<?xml version="1.0" encoding="UTF-8" standalone="no" ?>
<gpx xmlns="http://www.topografix.com/GPX/1/1" xmlns:xsi="http://www.w3.org/2001/XMLSchema-instance" xsi:schemaLocation="http://www.topografix.com/GPX/1/1 http://www.topografix.com/GPX/1/1/gpx.xsd" version="1.1" creator="VisuGPX - https://www.visugpx.com">
  <metadata>
    <name>In the mud...</name>
    <desc><![CDATA[Un peu de boue et de plus en plus collante mais des paysages d\'automne magnifiques!]]></desc>
  </metadata>
  <trk>
    <name><![CDATA[Rue Antoine Coysevox]]></name>
    <desc><![CDATA[]]></desc>
    <trkseg>
      <trkpt lat="47.51798" lon="6.77474">
        <ele>390.6</ele>
        <time>2014-11-23T08:05:05.000Z</time>
      </trkpt>
      <trkpt lat="47.51798" lon="6.77474">
        <ele>383.3</ele>
        <time>2014-11-23T08:05:28.000Z</time>
      </trkpt>
      <trkpt lat="47.51791" lon="6.77467">
        <ele>340.7</ele>
        <time>2014-11-23T08:05:31.000Z</time>
      </trkpt>
      <trkpt lat="47.5179" lon="6.77468">
        <ele>284.7</ele>
        <time>2014-11-23T08:08:44.000Z</time>
      </trkpt>
      <trkpt lat="47.51799" lon="6.77458">
        <ele>288.1</ele>
        <time>2014-11-23T08:08:45.000Z</time>
      </trkpt>
      <trkpt lat="47.51805" lon="6.77457">
        <ele>290.9</ele>
        <time>2014-11-23T08:08:46.000Z</time>
      </trkpt>
      <trkpt lat="47.51809" lon="6.77453">
        <ele>292.3</ele>
        <time>2014-11-23T08:08:47.000Z</time>
      </trkpt>
      <trkpt lat="47.51809" lon="6.77458">
        <ele>304.9</ele>
        <time>2014-11-23T08:08:54.000Z</time>
      </trkpt>
      <trkpt lat="47.51808" lon="6.77464">
        <ele>313.2</ele>
        <time>2014-11-23T08:08:55.000Z</time>
      </trkpt>
      <trkpt lat="47.51803" lon="6.77468">
        <ele>318.3</ele>
        <time>2014-11-23T08:08:56.000Z</time>
      </trkpt>
      <trkpt lat="47.51801" lon="6.77471">
        <ele>323.2</ele>
        <time>2014-11-23T08:08:57.000Z</time>
      </trkpt>
      <trkpt lat="47.51799" lon="6.77473">
        <ele>327</ele>
        <time>2014-11-23T08:08:58.000Z</time>
      </trkpt>
      <trkpt lat="47.51795" lon="6.77473">
        <ele>331.6</ele>
        <time>2014-11-23T08:09:00.000Z</time>
      </trkpt>
      <trkpt lat="47.51793" lon="6.77473">
        <ele>333.3</ele>
        <time>2014-11-23T08:09:01.000Z</time>
      </trkpt>
      <trkpt lat="47.51789" lon="6.77472">
        <ele>337.2</ele>
        <time>2014-11-23T08:09:03.000Z</time>
      </trkpt>
      <trkpt lat="47.51786" lon="6.77472">
        <ele>340.9</ele>
        <time>2014-11-23T08:09:04.000Z</time>
      </trkpt>
      <trkpt lat="47.51784" lon="6.77472">
        <ele>345.2</ele>
        <time>2014-11-23T08:09:05.000Z</time>
      </trkpt>
      <trkpt lat="47.51781" lon="6.77472">
        <ele>347.7</ele>
        <time>2014-11-23T08:09:06.000Z</time>
      </trkpt>
      <trkpt lat="47.51778" lon="6.77472">
        <ele>349.4</ele>
        <time>2014-11-23T08:09:07.000Z</time>
      </trkpt>
      <trkpt lat="47.51774" lon="6.77471">
        <ele>351.9</ele>
        <time>2014-11-23T08:09:08.000Z</time>
      </trkpt>
      <trkpt lat="47.5177" lon="6.77471">
        <ele>353.4</ele>
        <time>2014-11-23T08:09:09.000Z</time>
      </trkpt>
      <trkpt lat="47.51767" lon="6.77472">
        <ele>355</ele>
        <time>2014-11-23T08:09:10.000Z</time>
      </trkpt>
      <trkpt lat="47.51763" lon="6.77473">
        <ele>356.1</ele>
        <time>2014-11-23T08:09:11.000Z</time>
      </trkpt>
      <trkpt lat="47.51759" lon="6.77473">
        <ele>359.2</ele>
        <time>2014-11-23T08:09:12.000Z</time>
      </trkpt>
      <trkpt lat="47.51756" lon="6.77474">
        <ele>360.6</ele>
        <time>2014-11-23T08:09:13.000Z</time>
      </trkpt>
      <trkpt lat="47.51752" lon="6.77474">
        <ele>362.1</ele>
        <time>2014-11-23T08:09:14.000Z</time>
      </trkpt>
      <trkpt lat="47.51748" lon="6.77474">
        <ele>364.8</ele>
        <time>2014-11-23T08:09:15.000Z</time>
      </trkpt>
      <trkpt lat="47.51745" lon="6.77473">
        <ele>367.3</ele>
        <time>2014-11-23T08:09:16.000Z</time>
      </trkpt>
      <trkpt lat="47.51741" lon="6.77471">
        <ele>376.3</ele>
        <time>2014-11-23T08:09:18.000Z</time>
      </trkpt>
      <trkpt lat="47.51741" lon="6.77469">
        <ele>376.2</ele>
        <time>2014-11-23T08:09:19.000Z</time>
      </trkpt>
      <trkpt lat="47.51741" lon="6.77466">
        <ele>377.7</ele>
        <time>2014-11-23T08:09:20.000Z</time>
      </trkpt>
      <trkpt lat="47.51742" lon="6.77462">
        <ele>378.1</ele>
        <time>2014-11-23T08:09:21.000Z</time>
      </trkpt>
      <trkpt lat="47.51744" lon="6.77456">
        <ele>378.3</ele>
        <time>2014-11-23T08:09:22.000Z</time>
      </trkpt>
      <trkpt lat="47.51747" lon="6.77446">
        <ele>375.8</ele>
        <time>2014-11-23T08:09:23.000Z</time>
      </trkpt>
      <trkpt lat="47.51747" lon="6.7744">
        <ele>376.8</ele>
        <time>2014-11-23T08:09:24.000Z</time>
      </trkpt>
      <trkpt lat="47.51748" lon="6.77434">
        <ele>377.3</ele>
        <time>2014-11-23T08:09:25.000Z</time>
      </trkpt>
      <trkpt lat="47.5175" lon="6.77428">
        <ele>379</ele>
        <time>2014-11-23T08:09:26.000Z</time>
      </trkpt>
      <trkpt lat="47.5175" lon="6.77421">
        <ele>379.6</ele>
        <time>2014-11-23T08:09:27.000Z</time>
      </trkpt>
      <trkpt lat="47.51751" lon="6.77413">
        <ele>379.1</ele>
        <time>2014-11-23T08:09:28.000Z</time>
      </trkpt>
      <trkpt lat="47.51755" lon="6.774">
        <ele>378.9</ele>
        <time>2014-11-23T08:09:31.000Z</time>
      </trkpt>
      <trkpt lat="47.51755" lon="6.77393">
        <ele>382.4</ele>
        <time>2014-11-23T08:09:32.000Z</time>
      </trkpt>
      <trkpt lat="47.51756" lon="6.77388">
        <ele>383.1</ele>
        <time>2014-11-23T08:09:33.000Z</time>
      </trkpt>
      <trkpt lat="47.51757" lon="6.77382">
        <ele>382.6</ele>
        <time>2014-11-23T08:09:34.000Z</time>
      </trkpt>
      <trkpt lat="47.51758" lon="6.77378">
        <ele>382.8</ele>
        <time>2014-11-23T08:09:35.000Z</time>
      </trkpt>
      <trkpt lat="47.51759" lon="6.77376">
        <ele>383.8</ele>
        <time>2014-11-23T08:09:36.000Z</time>
      </trkpt>
      <trkpt lat="47.51761" lon="6.7737">
        <ele>384.6</ele>
        <time>2014-11-23T08:09:38.000Z</time>
      </trkpt>
      <trkpt lat="47.51761" lon="6.77369">
        <ele>384</ele>
        <time>2014-11-23T08:09:39.000Z</time>
      </trkpt>
      <trkpt lat="47.51758" lon="6.77368">
        <ele>386.8</ele>
        <time>2014-11-23T08:09:54.000Z</time>
      </trkpt>
      <trkpt lat="47.51756" lon="6.77369">
        <ele>387.5</ele>
        <time>2014-11-23T08:09:55.000Z</time>
      </trkpt>
      <trkpt lat="47.51754" lon="6.77372">
        <ele>388.2</ele>
        <time>2014-11-23T08:09:56.000Z</time>
      </trkpt>
      <trkpt lat="47.51752" lon="6.77376">
        <ele>388.1</ele>
        <time>2014-11-23T08:09:57.000Z</time>
      </trkpt>
      <trkpt lat="47.5175" lon="6.7738">
        <ele>388.4</ele>
        <time>2014-11-23T08:09:58.000Z</time>
      </trkpt>
      <trkpt lat="47.51748" lon="6.77385">
        <ele>388.9</ele>
        <time>2014-11-23T08:09:59.000Z</time>
      </trkpt>
      <trkpt lat="47.51746" lon="6.77391">
        <ele>389</ele>
        <time>2014-11-23T08:10:00.000Z</time>
      </trkpt>
      <trkpt lat="47.51745" lon="6.77396">
        <ele>389</ele>
        <time>2014-11-23T08:10:01.000Z</time>
      </trkpt>
      <trkpt lat="47.51744" lon="6.77402">
        <ele>389.8</ele>
        <time>2014-11-23T08:10:02.000Z</time>
      </trkpt>
      <trkpt lat="47.51742" lon="6.77408">
        <ele>389.9</ele>
        <time>2014-11-23T08:10:03.000Z</time>
      </trkpt>
      <trkpt lat="47.5174" lon="6.77412">
        <ele>390.3</ele>
        <time>2014-11-23T08:10:04.000Z</time>
      </trkpt>
      <trkpt lat="47.51738" lon="6.77416">
        <ele>390.8</ele>
        <time>2014-11-23T08:10:05.000Z</time>
      </trkpt>
      <trkpt lat="47.51737" lon="6.77421">
        <ele>390.9</ele>
        <time>2014-11-23T08:10:06.000Z</time>
      </trkpt>
      <trkpt lat="47.51735" lon="6.77426">
        <ele>391</ele>
        <time>2014-11-23T08:10:07.000Z</time>
      </trkpt>
      <trkpt lat="47.51734" lon="6.77431">
        <ele>391.3</ele>
        <time>2014-11-23T08:10:08.000Z</time>
      </trkpt>
      <trkpt lat="47.51733" lon="6.77437">
        <ele>391.5</ele>
        <time>2014-11-23T08:10:09.000Z</time>
      </trkpt>
      <trkpt lat="47.51732" lon="6.77443">
        <ele>391.1</ele>
        <time>2014-11-23T08:10:10.000Z</time>
      </trkpt>
      <trkpt lat="47.5173" lon="6.77449">
        <ele>391.2</ele>
        <time>2014-11-23T08:10:11.000Z</time>
      </trkpt>
      <trkpt lat="47.51729" lon="6.77455">
        <ele>391.7</ele>
        <time>2014-11-23T08:10:12.000Z</time>
      </trkpt>
      <trkpt lat="47.51728" lon="6.77461">
        <ele>391.6</ele>
        <time>2014-11-23T08:10:13.000Z</time>
      </trkpt>
      <trkpt lat="47.51727" lon="6.77467">
        <ele>391.4</ele>
        <time>2014-11-23T08:10:14.000Z</time>
      </trkpt>
      <trkpt lat="47.51725" lon="6.77474">
        <ele>391.6</ele>
        <time>2014-11-23T08:10:15.000Z</time>
      </trkpt>
      <trkpt lat="47.51724" lon="6.7748">
        <ele>391.8</ele>
        <time>2014-11-23T08:10:16.000Z</time>
      </trkpt>
      <trkpt lat="47.51723" lon="6.77486">
        <ele>391.9</ele>
        <time>2014-11-23T08:10:17.000Z</time>
      </trkpt>
      <trkpt lat="47.51722" lon="6.77492">
        <ele>392.2</ele>
        <time>2014-11-23T08:10:18.000Z</time>
      </trkpt>
      <trkpt lat="47.5172" lon="6.77499">
        <ele>391</ele>
        <time>2014-11-23T08:10:19.000Z</time>
      </trkpt>
      <trkpt lat="47.51719" lon="6.77504">
        <ele>390.9</ele>
        <time>2014-11-23T08:10:20.000Z</time>
      </trkpt>
      <trkpt lat="47.51717" lon="6.7751">
        <ele>390.6</ele>
        <time>2014-11-23T08:10:21.000Z</time>
      </trkpt>
      <trkpt lat="47.51716" lon="6.77516">
        <ele>390.4</ele>
        <time>2014-11-23T08:10:22.000Z</time>
      </trkpt>
      <trkpt lat="47.51716" lon="6.77522">
        <ele>390.8</ele>
        <time>2014-11-23T08:10:23.000Z</time>
      </trkpt>
      <trkpt lat="47.51715" lon="6.77527">
        <ele>390.2</ele>
        <time>2014-11-23T08:10:24.000Z</time>
      </trkpt>
      <trkpt lat="47.51714" lon="6.77533">
        <ele>390.3</ele>
        <time>2014-11-23T08:10:25.000Z</time>
      </trkpt>
      <trkpt lat="47.51713" lon="6.77539">
        <ele>390.1</ele>
        <time>2014-11-23T08:10:26.000Z</time>
      </trkpt>
      <trkpt lat="47.51712" lon="6.77545">
        <ele>390.4</ele>
        <time>2014-11-23T08:10:27.000Z</time>
      </trkpt>
      <trkpt lat="47.51711" lon="6.7755">
        <ele>390.3</ele>
        <time>2014-11-23T08:10:28.000Z</time>
      </trkpt>
      <trkpt lat="47.51701" lon="6.77557">
        <ele>387.1</ele>
        <time>2014-11-23T08:10:31.000Z</time>
      </trkpt>
      <trkpt lat="47.51697" lon="6.77556">
        <ele>387.5</ele>
        <time>2014-11-23T08:10:32.000Z</time>
      </trkpt>
      <trkpt lat="47.51691" lon="6.7754">
        <ele>387.5</ele>
        <time>2014-11-23T08:10:33.000Z</time>
      </trkpt>
      <trkpt lat="47.51687" lon="6.77535">
        <ele>387.2</ele>
        <time>2014-11-23T08:10:34.000Z</time>
      </trkpt>
      <trkpt lat="47.51683" lon="6.7753">
        <ele>386.6</ele>
        <time>2014-11-23T08:10:35.000Z</time>
      </trkpt>
      <trkpt lat="47.51679" lon="6.77525">
        <ele>386.5</ele>
        <time>2014-11-23T08:10:36.000Z</time>
      </trkpt>
      <trkpt lat="47.51675" lon="6.7752">
        <ele>385.9</ele>
        <time>2014-11-23T08:10:37.000Z</time>
      </trkpt>
      <trkpt lat="47.5167" lon="6.77514">
        <ele>386</ele>
        <time>2014-11-23T08:10:38.000Z</time>
      </trkpt>
      <trkpt lat="47.51667" lon="6.77509">
        <ele>386.8</ele>
        <time>2014-11-23T08:10:39.000Z</time>
      </trkpt>
      <trkpt lat="47.51663" lon="6.77503">
        <ele>386.7</ele>
        <time>2014-11-23T08:10:40.000Z</time>
      </trkpt>
      <trkpt lat="47.51658" lon="6.77497">
        <ele>387</ele>
        <time>2014-11-23T08:10:41.000Z</time>
      </trkpt>
      <trkpt lat="47.51654" lon="6.77491">
        <ele>386.1</ele>
        <time>2014-11-23T08:10:42.000Z</time>
      </trkpt>
      <trkpt lat="47.5165" lon="6.77486">
        <ele>385.9</ele>
        <time>2014-11-23T08:10:43.000Z</time>
      </trkpt>
      <trkpt lat="47.51646" lon="6.7748">
        <ele>385.6</ele>
        <time>2014-11-23T08:10:44.000Z</time>
      </trkpt>
      <trkpt lat="47.51641" lon="6.77475">
        <ele>385.4</ele>
        <time>2014-11-23T08:10:45.000Z</time>
      </trkpt>
      <trkpt lat="47.51636" lon="6.77469">
        <ele>385.4</ele>
        <time>2014-11-23T08:10:46.000Z</time>
      </trkpt>
      <trkpt lat="47.51632" lon="6.77463">
        <ele>385.2</ele>
        <time>2014-11-23T08:10:47.000Z</time>
      </trkpt>
      <trkpt lat="47.51627" lon="6.77457">
        <ele>384.8</ele>
        <time>2014-11-23T08:10:48.000Z</time>
      </trkpt>
      <trkpt lat="47.51622" lon="6.77451">
        <ele>384.7</ele>
        <time>2014-11-23T08:10:49.000Z</time>
      </trkpt>
      <trkpt lat="47.51617" lon="6.77445">
        <ele>384.2</ele>
        <time>2014-11-23T08:10:50.000Z</time>
      </trkpt>
      <trkpt lat="47.51612" lon="6.77439">
        <ele>383.5</ele>
        <time>2014-11-23T08:10:51.000Z</time>
      </trkpt>
      <trkpt lat="47.51606" lon="6.77432">
        <ele>383</ele>
        <time>2014-11-23T08:10:52.000Z</time>
      </trkpt>
      <trkpt lat="47.51601" lon="6.77425">
        <ele>382.3</ele>
        <time>2014-11-23T08:10:53.000Z</time>
      </trkpt>
      <trkpt lat="47.51593" lon="6.77418">
        <ele>381.3</ele>
        <time>2014-11-23T08:10:54.000Z</time>
      </trkpt>
      <trkpt lat="47.51587" lon="6.7741">
        <ele>380.2</ele>
        <time>2014-11-23T08:10:55.000Z</time>
      </trkpt>
      <trkpt lat="47.51581" lon="6.77403">
        <ele>379.8</ele>
        <time>2014-11-23T08:10:56.000Z</time>
      </trkpt>
      <trkpt lat="47.51574" lon="6.77395">
        <ele>379.1</ele>
        <time>2014-11-23T08:10:57.000Z</time>
      </trkpt>
      <trkpt lat="47.51567" lon="6.77386">
        <ele>379</ele>
        <time>2014-11-23T08:10:58.000Z</time>
      </trkpt>
      <trkpt lat="47.51561" lon="6.77378">
        <ele>378.5</ele>
        <time>2014-11-23T08:10:59.000Z</time>
      </trkpt>
      <trkpt lat="47.51554" lon="6.7737">
        <ele>378.2</ele>
        <time>2014-11-23T08:11:00.000Z</time>
      </trkpt>
      <trkpt lat="47.51546" lon="6.77361">
        <ele>377.6</ele>
        <time>2014-11-23T08:11:01.000Z</time>
      </trkpt>
      <trkpt lat="47.51539" lon="6.77354">
        <ele>376.2</ele>
        <time>2014-11-23T08:11:02.000Z</time>
      </trkpt>
      <trkpt lat="47.51531" lon="6.77345">
        <ele>375.1</ele>
        <time>2014-11-23T08:11:03.000Z</time>
      </trkpt>
      <trkpt lat="47.51524" lon="6.77337">
        <ele>374.8</ele>
        <time>2014-11-23T08:11:04.000Z</time>
      </trkpt>
      <trkpt lat="47.51517" lon="6.77328">
        <ele>374.3</ele>
        <time>2014-11-23T08:11:05.000Z</time>
      </trkpt>
      <trkpt lat="47.51509" lon="6.77318">
        <ele>373.7</ele>
        <time>2014-11-23T08:11:06.000Z</time>
      </trkpt>
      <trkpt lat="47.51502" lon="6.77307">
        <ele>373.5</ele>
        <time>2014-11-23T08:11:07.000Z</time>
      </trkpt>
      <trkpt lat="47.51496" lon="6.77296">
        <ele>373.9</ele>
        <time>2014-11-23T08:11:08.000Z</time>
      </trkpt>
      <trkpt lat="47.51491" lon="6.77284">
        <ele>372.8</ele>
        <time>2014-11-23T08:11:09.000Z</time>
      </trkpt>
      <trkpt lat="47.51489" lon="6.77271">
        <ele>372.5</ele>
        <time>2014-11-23T08:11:10.000Z</time>
      </trkpt>
      <trkpt lat="47.51488" lon="6.77258">
        <ele>372.7</ele>
        <time>2014-11-23T08:11:11.000Z</time>
      </trkpt>
      <trkpt lat="47.51487" lon="6.77245">
        <ele>372.4</ele>
        <time>2014-11-23T08:11:12.000Z</time>
      </trkpt>
      <trkpt lat="47.51486" lon="6.77233">
        <ele>372.6</ele>
        <time>2014-11-23T08:11:13.000Z</time>
      </trkpt>
      <trkpt lat="47.51485" lon="6.77222">
        <ele>372.4</ele>
        <time>2014-11-23T08:11:14.000Z</time>
      </trkpt>
      <trkpt lat="47.51483" lon="6.77212">
        <ele>371.8</ele>
        <time>2014-11-23T08:11:15.000Z</time>
      </trkpt>
      <trkpt lat="47.51478" lon="6.77204">
        <ele>371.9</ele>
        <time>2014-11-23T08:11:16.000Z</time>
      </trkpt>
      <trkpt lat="47.51471" lon="6.772">
        <ele>371</ele>
        <time>2014-11-23T08:11:17.000Z</time>
      </trkpt>
      <trkpt lat="47.51463" lon="6.772">
        <ele>370.6</ele>
        <time>2014-11-23T08:11:18.000Z</time>
      </trkpt>
      <trkpt lat="47.51456" lon="6.77202">
        <ele>371.3</ele>
        <time>2014-11-23T08:11:19.000Z</time>
      </trkpt>
      <trkpt lat="47.51448" lon="6.77207">
        <ele>370.2</ele>
        <time>2014-11-23T08:11:20.000Z</time>
      </trkpt>
      <trkpt lat="47.5144" lon="6.7721">
        <ele>370.6</ele>
        <time>2014-11-23T08:11:21.000Z</time>
      </trkpt>
      <trkpt lat="47.51432" lon="6.77214">
        <ele>371.1</ele>
        <time>2014-11-23T08:11:22.000Z</time>
      </trkpt>
      <trkpt lat="47.51424" lon="6.77217">
        <ele>371.3</ele>
        <time>2014-11-23T08:11:23.000Z</time>
      </trkpt>
      <trkpt lat="47.51418" lon="6.7722">
        <ele>371.7</ele>
        <time>2014-11-23T08:11:24.000Z</time>
      </trkpt>
      <trkpt lat="47.51412" lon="6.77224">
        <ele>372.2</ele>
        <time>2014-11-23T08:11:25.000Z</time>
      </trkpt>
      <trkpt lat="47.51406" lon="6.77227">
        <ele>372.8</ele>
        <time>2014-11-23T08:11:26.000Z</time>
      </trkpt>
      <trkpt lat="47.51401" lon="6.7723">
        <ele>372.6</ele>
        <time>2014-11-23T08:11:27.000Z</time>
      </trkpt>
      <trkpt lat="47.51396" lon="6.77232">
        <ele>372.1</ele>
        <time>2014-11-23T08:11:28.000Z</time>
      </trkpt>
      <trkpt lat="47.51384" lon="6.77238">
        <ele>372.1</ele>
        <time>2014-11-23T08:11:31.000Z</time>
      </trkpt>
      <trkpt lat="47.51381" lon="6.77241">
        <ele>373.2</ele>
        <time>2014-11-23T08:11:32.000Z</time>
      </trkpt>
      <trkpt lat="47.51376" lon="6.77245">
        <ele>374.5</ele>
        <time>2014-11-23T08:11:33.000Z</time>
      </trkpt>
      <trkpt lat="47.51373" lon="6.77249">
        <ele>375.2</ele>
        <time>2014-11-23T08:11:34.000Z</time>
      </trkpt>
      <trkpt lat="47.51369" lon="6.77252">
        <ele>374.9</ele>
        <time>2014-11-23T08:11:35.000Z</time>
      </trkpt>
      <trkpt lat="47.51365" lon="6.77254">
        <ele>375.5</ele>
        <time>2014-11-23T08:11:36.000Z</time>
      </trkpt>
      <trkpt lat="47.51363" lon="6.77258">
        <ele>375.5</ele>
        <time>2014-11-23T08:11:37.000Z</time>
      </trkpt>
      <trkpt lat="47.5136" lon="6.7726">
        <ele>375.9</ele>
        <time>2014-11-23T08:11:38.000Z</time>
      </trkpt>
      <trkpt lat="47.51357" lon="6.77262">
        <ele>376.6</ele>
        <time>2014-11-23T08:11:39.000Z</time>
      </trkpt>
      <trkpt lat="47.51354" lon="6.77263">
        <ele>376.9</ele>
        <time>2014-11-23T08:11:40.000Z</time>
      </trkpt>
      <trkpt lat="47.51351" lon="6.77265">
        <ele>377.1</ele>
        <time>2014-11-23T08:11:41.000Z</time>
      </trkpt>
      <trkpt lat="47.51349" lon="6.77266">
        <ele>378</ele>
        <time>2014-11-23T08:11:42.000Z</time>
      </trkpt>
      <trkpt lat="47.51346" lon="6.77268">
        <ele>378.4</ele>
        <time>2014-11-23T08:11:43.000Z</time>
      </trkpt>
      <trkpt lat="47.51344" lon="6.77269">
        <ele>378.6</ele>
        <time>2014-11-23T08:11:44.000Z</time>
      </trkpt>
      <trkpt lat="47.51342" lon="6.77271">
        <ele>379</ele>
        <time>2014-11-23T08:11:45.000Z</time>
      </trkpt>
      <trkpt lat="47.5134" lon="6.77273">
        <ele>379</ele>
        <time>2014-11-23T08:11:46.000Z</time>
      </trkpt>
      <trkpt lat="47.51338" lon="6.77274">
        <ele>378.7</ele>
        <time>2014-11-23T08:11:47.000Z</time>
      </trkpt>
      <trkpt lat="47.51333" lon="6.77275">
        <ele>379.4</ele>
        <time>2014-11-23T08:11:49.000Z</time>
      </trkpt>
      <trkpt lat="47.51331" lon="6.77274">
        <ele>379.5</ele>
        <time>2014-11-23T08:11:50.000Z</time>
      </trkpt>
      <trkpt lat="47.51329" lon="6.77274">
        <ele>379.5</ele>
        <time>2014-11-23T08:11:51.000Z</time>
      </trkpt>
      <trkpt lat="47.51326" lon="6.77273">
        <ele>380.5</ele>
        <time>2014-11-23T08:11:52.000Z</time>
      </trkpt>
      <trkpt lat="47.51323" lon="6.77273">
        <ele>380.7</ele>
        <time>2014-11-23T08:11:53.000Z</time>
      </trkpt>
      <trkpt lat="47.5132" lon="6.77273">
        <ele>382</ele>
        <time>2014-11-23T08:11:54.000Z</time>
      </trkpt>
      <trkpt lat="47.51318" lon="6.77272">
        <ele>382.1</ele>
        <time>2014-11-23T08:11:55.000Z</time>
      </trkpt>
      <trkpt lat="47.51315" lon="6.77271">
        <ele>382.2</ele>
        <time>2014-11-23T08:11:56.000Z</time>
      </trkpt>
      <trkpt lat="47.51312" lon="6.77269">
        <ele>382.6</ele>
        <time>2014-11-23T08:11:57.000Z</time>
      </trkpt>
      <trkpt lat="47.51309" lon="6.77269">
        <ele>380.9</ele>
        <time>2014-11-23T08:11:58.000Z</time>
      </trkpt>
      <trkpt lat="47.51306" lon="6.77269">
        <ele>381.1</ele>
        <time>2014-11-23T08:11:59.000Z</time>
      </trkpt>
      <trkpt lat="47.51303" lon="6.77268">
        <ele>381.6</ele>
        <time>2014-11-23T08:12:00.000Z</time>
      </trkpt>
      <trkpt lat="47.51299" lon="6.77267">
        <ele>381.3</ele>
        <time>2014-11-23T08:12:01.000Z</time>
      </trkpt>
      <trkpt lat="47.51296" lon="6.77266">
        <ele>381.7</ele>
        <time>2014-11-23T08:12:02.000Z</time>
      </trkpt>
      <trkpt lat="47.51293" lon="6.77264">
        <ele>382</ele>
        <time>2014-11-23T08:12:03.000Z</time>
      </trkpt>
      <trkpt lat="47.5129" lon="6.77263">
        <ele>382.6</ele>
        <time>2014-11-23T08:12:04.000Z</time>
      </trkpt>
      <trkpt lat="47.51287" lon="6.77261">
        <ele>382.9</ele>
        <time>2014-11-23T08:12:05.000Z</time>
      </trkpt>
      <trkpt lat="47.51284" lon="6.77259">
        <ele>382.7</ele>
        <time>2014-11-23T08:12:06.000Z</time>
      </trkpt>
      <trkpt lat="47.51281" lon="6.77258">
        <ele>383.7</ele>
        <time>2014-11-23T08:12:07.000Z</time>
      </trkpt>
      <trkpt lat="47.51278" lon="6.77256">
        <ele>383.8</ele>
        <time>2014-11-23T08:12:08.000Z</time>
      </trkpt>
      <trkpt lat="47.51275" lon="6.77254">
        <ele>383.8</ele>
        <time>2014-11-23T08:12:09.000Z</time>
      </trkpt>
      <trkpt lat="47.51272" lon="6.77252">
        <ele>384.4</ele>
        <time>2014-11-23T08:12:10.000Z</time>
      </trkpt>
      <trkpt lat="47.51269" lon="6.77249">
        <ele>383.5</ele>
        <time>2014-11-23T08:12:11.000Z</time>
      </trkpt>
      <trkpt lat="47.51266" lon="6.77246">
        <ele>383.4</ele>
        <time>2014-11-23T08:12:12.000Z</time>
      </trkpt>
      <trkpt lat="47.51263" lon="6.77243">
        <ele>384</ele>
        <time>2014-11-23T08:12:13.000Z</time>
      </trkpt>
      <trkpt lat="47.5126" lon="6.77239">
        <ele>384.1</ele>
        <time>2014-11-23T08:12:14.000Z</time>
      </trkpt>
      <trkpt lat="47.51257" lon="6.77233">
        <ele>383.2</ele>
        <time>2014-11-23T08:12:15.000Z</time>
      </trkpt>
      <trkpt lat="47.51254" lon="6.77228">
        <ele>383.2</ele>
        <time>2014-11-23T08:12:16.000Z</time>
      </trkpt>
      <trkpt lat="47.51251" lon="6.77222">
        <ele>383.1</ele>
        <time>2014-11-23T08:12:17.000Z</time>
      </trkpt>
      <trkpt lat="47.51247" lon="6.77216">
        <ele>383</ele>
        <time>2014-11-23T08:12:18.000Z</time>
      </trkpt>
      <trkpt lat="47.51245" lon="6.7721">
        <ele>383.4</ele>
        <time>2014-11-23T08:12:19.000Z</time>
      </trkpt>
      <trkpt lat="47.51242" lon="6.77203">
        <ele>383.2</ele>
        <time>2014-11-23T08:12:20.000Z</time>
      </trkpt>
      <trkpt lat="47.51239" lon="6.77197">
        <ele>383.1</ele>
        <time>2014-11-23T08:12:21.000Z</time>
      </trkpt>
      <trkpt lat="47.51235" lon="6.7719">
        <ele>383.2</ele>
        <time>2014-11-23T08:12:22.000Z</time>
      </trkpt>
      <trkpt lat="47.51232" lon="6.77184">
        <ele>383.1</ele>
        <time>2014-11-23T08:12:23.000Z</time>
      </trkpt>
      <trkpt lat="47.51228" lon="6.77177">
        <ele>382.7</ele>
        <time>2014-11-23T08:12:24.000Z</time>
      </trkpt>
      <trkpt lat="47.51225" lon="6.77171">
        <ele>383.1</ele>
        <time>2014-11-23T08:12:25.000Z</time>
      </trkpt>
      <trkpt lat="47.51221" lon="6.77164">
        <ele>383.1</ele>
        <time>2014-11-23T08:12:26.000Z</time>
      </trkpt>
      <trkpt lat="47.51218" lon="6.77157">
        <ele>382.7</ele>
        <time>2014-11-23T08:12:27.000Z</time>
      </trkpt>
      <trkpt lat="47.51212" lon="6.77151">
        <ele>381.4</ele>
        <time>2014-11-23T08:12:28.000Z</time>
      </trkpt>
      <trkpt lat="47.51206" lon="6.77139">
        <ele>380.6</ele>
        <time>2014-11-23T08:12:30.038Z</time>
      </trkpt>
      <trkpt lat="47.51202" lon="6.77134">
        <ele>380.5</ele>
        <time>2014-11-23T08:12:31.000Z</time>
      </trkpt>
      <trkpt lat="47.51187" lon="6.77105">
        <ele>380.2</ele>
        <time>2014-11-23T08:12:34.000Z</time>
      </trkpt>
      <trkpt lat="47.51184" lon="6.77096">
        <ele>380.8</ele>
        <time>2014-11-23T08:12:35.000Z</time>
      </trkpt>
      <trkpt lat="47.5118" lon="6.77089">
        <ele>380.6</ele>
        <time>2014-11-23T08:12:36.000Z</time>
      </trkpt>
      <trkpt lat="47.51175" lon="6.77081">
        <ele>380</ele>
        <time>2014-11-23T08:12:37.000Z</time>
      </trkpt>
      <trkpt lat="47.51169" lon="6.77072">
        <ele>381</ele>
        <time>2014-11-23T08:12:38.000Z</time>
      </trkpt>
      <trkpt lat="47.51162" lon="6.77066">
        <ele>380.5</ele>
        <time>2014-11-23T08:12:39.000Z</time>
      </trkpt>
      <trkpt lat="47.51157" lon="6.77059">
        <ele>380.2</ele>
        <time>2014-11-23T08:12:40.000Z</time>
      </trkpt>
      <trkpt lat="47.51151" lon="6.77053">
        <ele>379.6</ele>
        <time>2014-11-23T08:12:41.000Z</time>
      </trkpt>
      <trkpt lat="47.51143" lon="6.77047">
        <ele>379.4</ele>
        <time>2014-11-23T08:12:42.000Z</time>
      </trkpt>
      <trkpt lat="47.51138" lon="6.77041">
        <ele>378.4</ele>
        <time>2014-11-23T08:12:43.000Z</time>
      </trkpt>
      <trkpt lat="47.51132" lon="6.77035">
        <ele>378</ele>
        <time>2014-11-23T08:12:44.000Z</time>
      </trkpt>
      <trkpt lat="47.51125" lon="6.77029">
        <ele>377.4</ele>
        <time>2014-11-23T08:12:45.000Z</time>
      </trkpt>
      <trkpt lat="47.51119" lon="6.77024">
        <ele>376.6</ele>
        <time>2014-11-23T08:12:46.000Z</time>
      </trkpt>
      <trkpt lat="47.51112" lon="6.77018">
        <ele>376.5</ele>
        <time>2014-11-23T08:12:47.000Z</time>
      </trkpt>
      <trkpt lat="47.51106" lon="6.77013">
        <ele>376.3</ele>
        <time>2014-11-23T08:12:48.000Z</time>
      </trkpt>
      <trkpt lat="47.51101" lon="6.77008">
        <ele>375.7</ele>
        <time>2014-11-23T08:12:49.000Z</time>
      </trkpt>
      <trkpt lat="47.51095" lon="6.77002">
        <ele>375.8</ele>
        <time>2014-11-23T08:12:50.000Z</time>
      </trkpt>
      <trkpt lat="47.51089" lon="6.76997">
        <ele>375.9</ele>
        <time>2014-11-23T08:12:51.000Z</time>
      </trkpt>
      <trkpt lat="47.51083" lon="6.76991">
        <ele>375.6</ele>
        <time>2014-11-23T08:12:52.000Z</time>
      </trkpt>
      <trkpt lat="47.51077" lon="6.76986">
        <ele>375.6</ele>
        <time>2014-11-23T08:12:53.000Z</time>
      </trkpt>
      <trkpt lat="47.51071" lon="6.76981">
        <ele>375</ele>
        <time>2014-11-23T08:12:54.000Z</time>
      </trkpt>
      <trkpt lat="47.51066" lon="6.76976">
        <ele>374.7</ele>
        <time>2014-11-23T08:12:55.000Z</time>
      </trkpt>
      <trkpt lat="47.5106" lon="6.76971">
        <ele>374.6</ele>
        <time>2014-11-23T08:12:56.000Z</time>
      </trkpt>
      <trkpt lat="47.51055" lon="6.76966">
        <ele>374.5</ele>
        <time>2014-11-23T08:12:57.000Z</time>
      </trkpt>
      <trkpt lat="47.51049" lon="6.76961">
        <ele>374.8</ele>
        <time>2014-11-23T08:12:58.000Z</time>
      </trkpt>
      <trkpt lat="47.51044" lon="6.76957">
        <ele>374.8</ele>
        <time>2014-11-23T08:12:59.000Z</time>
      </trkpt>
      <trkpt lat="47.51039" lon="6.76952">
        <ele>374.9</ele>
        <time>2014-11-23T08:13:00.000Z</time>
      </trkpt>
      <trkpt lat="47.51034" lon="6.76948">
        <ele>374.7</ele>
        <time>2014-11-23T08:13:01.000Z</time>
      </trkpt>
      <trkpt lat="47.51029" lon="6.76943">
        <ele>374.6</ele>
        <time>2014-11-23T08:13:02.000Z</time>
      </trkpt>
      <trkpt lat="47.51024" lon="6.76939">
        <ele>374.9</ele>
        <time>2014-11-23T08:13:03.000Z</time>
      </trkpt>
      <trkpt lat="47.51018" lon="6.76936">
        <ele>374.7</ele>
        <time>2014-11-23T08:13:04.000Z</time>
      </trkpt>
      <trkpt lat="47.51014" lon="6.76932">
        <ele>375.1</ele>
        <time>2014-11-23T08:13:05.000Z</time>
      </trkpt>
      <trkpt lat="47.51011" lon="6.76929">
        <ele>375.6</ele>
        <time>2014-11-23T08:13:06.000Z</time>
      </trkpt>
      <trkpt lat="47.51007" lon="6.76926">
        <ele>376.1</ele>
        <time>2014-11-23T08:13:07.000Z</time>
      </trkpt>
      <trkpt lat="47.51003" lon="6.76922">
        <ele>376.3</ele>
        <time>2014-11-23T08:13:08.000Z</time>
      </trkpt>
      <trkpt lat="47.50999" lon="6.76917">
        <ele>376.8</ele>
        <time>2014-11-23T08:13:09.000Z</time>
      </trkpt>
      <trkpt lat="47.50997" lon="6.76912">
        <ele>377</ele>
        <time>2014-11-23T08:13:10.000Z</time>
      </trkpt>
      <trkpt lat="47.50997" lon="6.76905">
        <ele>377.2</ele>
        <time>2014-11-23T08:13:11.000Z</time>
      </trkpt>
      <trkpt lat="47.50994" lon="6.76899">
        <ele>376.9</ele>
        <time>2014-11-23T08:13:12.000Z</time>
      </trkpt>
      <trkpt lat="47.50991" lon="6.76895">
        <ele>377.1</ele>
        <time>2014-11-23T08:13:13.000Z</time>
      </trkpt>
      <trkpt lat="47.50987" lon="6.76892">
        <ele>377.9</ele>
        <time>2014-11-23T08:13:14.000Z</time>
      </trkpt>
      <trkpt lat="47.50982" lon="6.7689">
        <ele>377.9</ele>
        <time>2014-11-23T08:13:15.000Z</time>
      </trkpt>
      <trkpt lat="47.50978" lon="6.76891">
        <ele>378.5</ele>
        <time>2014-11-23T08:13:16.000Z</time>
      </trkpt>
      <trkpt lat="47.50974" lon="6.76891">
        <ele>378.3</ele>
        <time>2014-11-23T08:13:17.000Z</time>
      </trkpt>
      <trkpt lat="47.50971" lon="6.76891">
        <ele>378</ele>
        <time>2014-11-23T08:13:18.000Z</time>
      </trkpt>
      <trkpt lat="47.50968" lon="6.76888">
        <ele>378.6</ele>
        <time>2014-11-23T08:13:19.000Z</time>
      </trkpt>
      <trkpt lat="47.50966" lon="6.76887">
        <ele>379.6</ele>
        <time>2014-11-23T08:13:20.000Z</time>
      </trkpt>
      <trkpt lat="47.50963" lon="6.76886">
        <ele>379.4</ele>
        <time>2014-11-23T08:13:21.000Z</time>
      </trkpt>
      <trkpt lat="47.5096" lon="6.76884">
        <ele>379.5</ele>
        <time>2014-11-23T08:13:22.000Z</time>
      </trkpt>
      <trkpt lat="47.50957" lon="6.76882">
        <ele>379.9</ele>
        <time>2014-11-23T08:13:23.000Z</time>
      </trkpt>
      <trkpt lat="47.50955" lon="6.7688">
        <ele>380.1</ele>
        <time>2014-11-23T08:13:24.000Z</time>
      </trkpt>
      <trkpt lat="47.50952" lon="6.76878">
        <ele>379.9</ele>
        <time>2014-11-23T08:13:25.000Z</time>
      </trkpt>
      <trkpt lat="47.5095" lon="6.76875">
        <ele>380.8</ele>
        <time>2014-11-23T08:13:26.000Z</time>
      </trkpt>
      <trkpt lat="47.50947" lon="6.76872">
        <ele>380.7</ele>
        <time>2014-11-23T08:13:27.000Z</time>
      </trkpt>
      <trkpt lat="47.50944" lon="6.76869">
        <ele>380.1</ele>
        <time>2014-11-23T08:13:28.000Z</time>
      </trkpt>
      <trkpt lat="47.50937" lon="6.7686">
        <ele>380.3</ele>
        <time>2014-11-23T08:13:31.000Z</time>
      </trkpt>
      <trkpt lat="47.50934" lon="6.76857">
        <ele>380.3</ele>
        <time>2014-11-23T08:13:32.000Z</time>
      </trkpt>
      <trkpt lat="47.50931" lon="6.76853">
        <ele>380.4</ele>
        <time>2014-11-23T08:13:33.000Z</time>
      </trkpt>
      <trkpt lat="47.50927" lon="6.76846">
        <ele>379.4</ele>
        <time>2014-11-23T08:13:34.000Z</time>
      </trkpt>
      <trkpt lat="47.50925" lon="6.76842">
        <ele>379.9</ele>
        <time>2014-11-23T08:13:35.000Z</time>
      </trkpt>
      <trkpt lat="47.50922" lon="6.76837">
        <ele>379.4</ele>
        <time>2014-11-23T08:13:36.000Z</time>
      </trkpt>
      <trkpt lat="47.50921" lon="6.76832">
        <ele>379.1</ele>
        <time>2014-11-23T08:13:37.000Z</time>
      </trkpt>
      <trkpt lat="47.50919" lon="6.76827">
        <ele>379.6</ele>
        <time>2014-11-23T08:13:38.000Z</time>
      </trkpt>
      <trkpt lat="47.50916" lon="6.76822">
        <ele>379.7</ele>
        <time>2014-11-23T08:13:39.000Z</time>
      </trkpt>
      <trkpt lat="47.50915" lon="6.76817">
        <ele>379.2</ele>
        <time>2014-11-23T08:13:40.000Z</time>
      </trkpt>
      <trkpt lat="47.50913" lon="6.76812">
        <ele>379.9</ele>
        <time>2014-11-23T08:13:41.000Z</time>
      </trkpt>
      <trkpt lat="47.50911" lon="6.76805">
        <ele>379.9</ele>
        <time>2014-11-23T08:13:42.000Z</time>
      </trkpt>
      <trkpt lat="47.50909" lon="6.76801">
        <ele>380.2</ele>
        <time>2014-11-23T08:13:43.000Z</time>
      </trkpt>
      <trkpt lat="47.50907" lon="6.76795">
        <ele>380.6</ele>
        <time>2014-11-23T08:13:44.000Z</time>
      </trkpt>
      <trkpt lat="47.50905" lon="6.7679">
        <ele>381</ele>
        <time>2014-11-23T08:13:45.000Z</time>
      </trkpt>
      <trkpt lat="47.50902" lon="6.76784">
        <ele>381.5</ele>
        <time>2014-11-23T08:13:46.000Z</time>
      </trkpt>
      <trkpt lat="47.50901" lon="6.76781">
        <ele>382</ele>
        <time>2014-11-23T08:13:47.000Z</time>
      </trkpt>
      <trkpt lat="47.50899" lon="6.76776">
        <ele>382.8</ele>
        <time>2014-11-23T08:13:48.000Z</time>
      </trkpt>
      <trkpt lat="47.50897" lon="6.76771">
        <ele>383.5</ele>
        <time>2014-11-23T08:13:49.000Z</time>
      </trkpt>
      <trkpt lat="47.50894" lon="6.76765">
        <ele>383.6</ele>
        <time>2014-11-23T08:13:50.000Z</time>
      </trkpt>
      <trkpt lat="47.50892" lon="6.7676">
        <ele>383.9</ele>
        <time>2014-11-23T08:13:51.000Z</time>
      </trkpt>
      <trkpt lat="47.5089" lon="6.76755">
        <ele>384.5</ele>
        <time>2014-11-23T08:13:52.000Z</time>
      </trkpt>
      <trkpt lat="47.50888" lon="6.76749">
        <ele>384.1</ele>
        <time>2014-11-23T08:13:53.000Z</time>
      </trkpt>
      <trkpt lat="47.50886" lon="6.76744">
        <ele>383.5</ele>
        <time>2014-11-23T08:13:54.000Z</time>
      </trkpt>
      <trkpt lat="47.50885" lon="6.76739">
        <ele>383.7</ele>
        <time>2014-11-23T08:13:55.000Z</time>
      </trkpt>
      <trkpt lat="47.50883" lon="6.76734">
        <ele>384.3</ele>
        <time>2014-11-23T08:13:56.000Z</time>
      </trkpt>
      <trkpt lat="47.50882" lon="6.76729">
        <ele>384.9</ele>
        <time>2014-11-23T08:13:57.000Z</time>
      </trkpt>
      <trkpt lat="47.5088" lon="6.76724">
        <ele>384.4</ele>
        <time>2014-11-23T08:13:58.000Z</time>
      </trkpt>
      <trkpt lat="47.50878" lon="6.76718">
        <ele>384.1</ele>
        <time>2014-11-23T08:13:59.000Z</time>
      </trkpt>
      <trkpt lat="47.50876" lon="6.76713">
        <ele>384.9</ele>
        <time>2014-11-23T08:14:00.000Z</time>
      </trkpt>
      <trkpt lat="47.50873" lon="6.76708">
        <ele>384.5</ele>
        <time>2014-11-23T08:14:01.000Z</time>
      </trkpt>
      <trkpt lat="47.50871" lon="6.76703">
        <ele>384.5</ele>
        <time>2014-11-23T08:14:02.000Z</time>
      </trkpt>
      <trkpt lat="47.50869" lon="6.76698">
        <ele>385.2</ele>
        <time>2014-11-23T08:14:03.000Z</time>
      </trkpt>
      <trkpt lat="47.50867" lon="6.76693">
        <ele>385.4</ele>
        <time>2014-11-23T08:14:04.000Z</time>
      </trkpt>
      <trkpt lat="47.50865" lon="6.76688">
        <ele>385.4</ele>
        <time>2014-11-23T08:14:05.000Z</time>
      </trkpt>
      <trkpt lat="47.50863" lon="6.76684">
        <ele>386.3</ele>
        <time>2014-11-23T08:14:06.000Z</time>
      </trkpt>
      <trkpt lat="47.50861" lon="6.76679">
        <ele>386.7</ele>
        <time>2014-11-23T08:14:07.000Z</time>
      </trkpt>
      <trkpt lat="47.5086" lon="6.76675">
        <ele>386.8</ele>
        <time>2014-11-23T08:14:08.000Z</time>
      </trkpt>
      <trkpt lat="47.50858" lon="6.7667">
        <ele>386.8</ele>
        <time>2014-11-23T08:14:09.000Z</time>
      </trkpt>
      <trkpt lat="47.50856" lon="6.76665">
        <ele>387.3</ele>
        <time>2014-11-23T08:14:10.000Z</time>
      </trkpt>
      <trkpt lat="47.50854" lon="6.76661">
        <ele>388.1</ele>
        <time>2014-11-23T08:14:11.000Z</time>
      </trkpt>
      <trkpt lat="47.50852" lon="6.76657">
        <ele>388.4</ele>
        <time>2014-11-23T08:14:12.000Z</time>
      </trkpt>
      <trkpt lat="47.5085" lon="6.76653">
        <ele>388.9</ele>
        <time>2014-11-23T08:14:13.000Z</time>
      </trkpt>
      <trkpt lat="47.50849" lon="6.76649">
        <ele>389.4</ele>
        <time>2014-11-23T08:14:14.000Z</time>
      </trkpt>
      <trkpt lat="47.50847" lon="6.76645">
        <ele>389.9</ele>
        <time>2014-11-23T08:14:15.000Z</time>
      </trkpt>
      <trkpt lat="47.50846" lon="6.76641">
        <ele>390.3</ele>
        <time>2014-11-23T08:14:16.000Z</time>
      </trkpt>
      <trkpt lat="47.50844" lon="6.76638">
        <ele>390.8</ele>
        <time>2014-11-23T08:14:17.000Z</time>
      </trkpt>
      <trkpt lat="47.50843" lon="6.76634">
        <ele>390.9</ele>
        <time>2014-11-23T08:14:18.000Z</time>
      </trkpt>
      <trkpt lat="47.50841" lon="6.7663">
        <ele>391.5</ele>
        <time>2014-11-23T08:14:19.000Z</time>
      </trkpt>
      <trkpt lat="47.5084" lon="6.76627">
        <ele>392.1</ele>
        <time>2014-11-23T08:14:20.000Z</time>
      </trkpt>
      <trkpt lat="47.50838" lon="6.76624">
        <ele>392.8</ele>
        <time>2014-11-23T08:14:21.000Z</time>
      </trkpt>
      <trkpt lat="47.50837" lon="6.76621">
        <ele>393.1</ele>
        <time>2014-11-23T08:14:22.000Z</time>
      </trkpt>
      <trkpt lat="47.50835" lon="6.76618">
        <ele>393.2</ele>
        <time>2014-11-23T08:14:23.000Z</time>
      </trkpt>
      <trkpt lat="47.50834" lon="6.76614">
        <ele>393.2</ele>
        <time>2014-11-23T08:14:24.000Z</time>
      </trkpt>
      <trkpt lat="47.50832" lon="6.76611">
        <ele>393.4</ele>
        <time>2014-11-23T08:14:25.000Z</time>
      </trkpt>
      <trkpt lat="47.50831" lon="6.76607">
        <ele>393.9</ele>
        <time>2014-11-23T08:14:26.000Z</time>
      </trkpt>
      <trkpt lat="47.5083" lon="6.76603">
        <ele>394</ele>
        <time>2014-11-23T08:14:27.000Z</time>
      </trkpt>
      <trkpt lat="47.50829" lon="6.76599">
        <ele>394.4</ele>
        <time>2014-11-23T08:14:28.000Z</time>
      </trkpt>
      <trkpt lat="47.50825" lon="6.7659">
        <ele>395</ele>
        <time>2014-11-23T08:14:31.000Z</time>
      </trkpt>
      <trkpt lat="47.50822" lon="6.76592">
        <ele>393.7</ele>
        <time>2014-11-23T08:14:33.000Z</time>
      </trkpt>
      <trkpt lat="47.50819" lon="6.76593">
        <ele>393.5</ele>
        <time>2014-11-23T08:14:34.000Z</time>
      </trkpt>
      <trkpt lat="47.50816" lon="6.76593">
        <ele>393.7</ele>
        <time>2014-11-23T08:14:35.000Z</time>
      </trkpt>
      <trkpt lat="47.50814" lon="6.76591">
        <ele>393.8</ele>
        <time>2014-11-23T08:14:36.000Z</time>
      </trkpt>
      <trkpt lat="47.50812" lon="6.76588">
        <ele>393</ele>
        <time>2014-11-23T08:14:37.000Z</time>
      </trkpt>
      <trkpt lat="47.50811" lon="6.76585">
        <ele>392.9</ele>
        <time>2014-11-23T08:14:38.000Z</time>
      </trkpt>
      <trkpt lat="47.50807" lon="6.76582">
        <ele>392.7</ele>
        <time>2014-11-23T08:14:40.000Z</time>
      </trkpt>
      <trkpt lat="47.50805" lon="6.76582">
        <ele>392.8</ele>
        <time>2014-11-23T08:14:41.000Z</time>
      </trkpt>
      <trkpt lat="47.50803" lon="6.76582">
        <ele>392.9</ele>
        <time>2014-11-23T08:14:42.000Z</time>
      </trkpt>
      <trkpt lat="47.508" lon="6.76583">
        <ele>393.1</ele>
        <time>2014-11-23T08:14:43.000Z</time>
      </trkpt>
      <trkpt lat="47.50798" lon="6.76584">
        <ele>393.1</ele>
        <time>2014-11-23T08:14:44.000Z</time>
      </trkpt>
      <trkpt lat="47.50796" lon="6.76584">
        <ele>393.2</ele>
        <time>2014-11-23T08:14:45.000Z</time>
      </trkpt>
      <trkpt lat="47.50793" lon="6.76585">
        <ele>393.4</ele>
        <time>2014-11-23T08:14:46.000Z</time>
      </trkpt>
      <trkpt lat="47.50791" lon="6.76586">
        <ele>393.5</ele>
        <time>2014-11-23T08:14:47.000Z</time>
      </trkpt>
      <trkpt lat="47.50788" lon="6.76586">
        <ele>394.1</ele>
        <time>2014-11-23T08:14:48.000Z</time>
      </trkpt>
      <trkpt lat="47.50785" lon="6.76587">
        <ele>394.8</ele>
        <time>2014-11-23T08:14:49.000Z</time>
      </trkpt>
      <trkpt lat="47.50781" lon="6.76587">
        <ele>395.1</ele>
        <time>2014-11-23T08:14:50.000Z</time>
      </trkpt>
      <trkpt lat="47.50778" lon="6.76587">
        <ele>396.2</ele>
        <time>2014-11-23T08:14:51.000Z</time>
      </trkpt>
      <trkpt lat="47.50775" lon="6.76587">
        <ele>397</ele>
        <time>2014-11-23T08:14:52.000Z</time>
      </trkpt>
      <trkpt lat="47.50772" lon="6.76587">
        <ele>398</ele>
        <time>2014-11-23T08:14:53.000Z</time>
      </trkpt>
      <trkpt lat="47.50769" lon="6.76587">
        <ele>398.4</ele>
        <time>2014-11-23T08:14:54.000Z</time>
      </trkpt>
      <trkpt lat="47.50765" lon="6.76588">
        <ele>398.6</ele>
        <time>2014-11-23T08:14:55.000Z</time>
      </trkpt>
      <trkpt lat="47.50762" lon="6.76588">
        <ele>398.7</ele>
        <time>2014-11-23T08:14:56.000Z</time>
      </trkpt>
      <trkpt lat="47.50759" lon="6.76589">
        <ele>399</ele>
        <time>2014-11-23T08:14:57.000Z</time>
      </trkpt>
      <trkpt lat="47.50756" lon="6.7659">
        <ele>398.5</ele>
        <time>2014-11-23T08:14:58.000Z</time>
      </trkpt>
      <trkpt lat="47.50753" lon="6.7659">
        <ele>399.5</ele>
        <time>2014-11-23T08:14:59.000Z</time>
      </trkpt>
      <trkpt lat="47.50751" lon="6.7659">
        <ele>399.6</ele>
        <time>2014-11-23T08:15:00.000Z</time>
      </trkpt>
      <trkpt lat="47.50748" lon="6.7659">
        <ele>400.3</ele>
        <time>2014-11-23T08:15:01.000Z</time>
      </trkpt>
      <trkpt lat="47.50745" lon="6.7659">
        <ele>400.7</ele>
        <time>2014-11-23T08:15:02.000Z</time>
      </trkpt>
      <trkpt lat="47.50742" lon="6.76589">
        <ele>400.9</ele>
        <time>2014-11-23T08:15:03.000Z</time>
      </trkpt>
      <trkpt lat="47.50739" lon="6.76588">
        <ele>400.9</ele>
        <time>2014-11-23T08:15:04.000Z</time>
      </trkpt>
      <trkpt lat="47.50736" lon="6.76588">
        <ele>401</ele>
        <time>2014-11-23T08:15:05.000Z</time>
      </trkpt>
      <trkpt lat="47.50733" lon="6.76587">
        <ele>400.9</ele>
        <time>2014-11-23T08:15:06.000Z</time>
      </trkpt>
      <trkpt lat="47.5073" lon="6.76586">
        <ele>401.4</ele>
        <time>2014-11-23T08:15:07.000Z</time>
      </trkpt>
      <trkpt lat="47.50726" lon="6.76585">
        <ele>401.8</ele>
        <time>2014-11-23T08:15:08.000Z</time>
      </trkpt>
      <trkpt lat="47.50723" lon="6.76585">
        <ele>401.6</ele>
        <time>2014-11-23T08:15:09.000Z</time>
      </trkpt>
      <trkpt lat="47.5072" lon="6.76584">
        <ele>401.3</ele>
        <time>2014-11-23T08:15:10.000Z</time>
      </trkpt>
      <trkpt lat="47.50716" lon="6.76583">
        <ele>402.1</ele>
        <time>2014-11-23T08:15:11.000Z</time>
      </trkpt>
      <trkpt lat="47.50713" lon="6.76583">
        <ele>401.9</ele>
        <time>2014-11-23T08:15:12.000Z</time>
      </trkpt>
      <trkpt lat="47.5071" lon="6.76582">
        <ele>402.1</ele>
        <time>2014-11-23T08:15:13.000Z</time>
      </trkpt>
      <trkpt lat="47.50706" lon="6.76581">
        <ele>402.7</ele>
        <time>2014-11-23T08:15:14.000Z</time>
      </trkpt>
      <trkpt lat="47.50703" lon="6.76581">
        <ele>402.8</ele>
        <time>2014-11-23T08:15:15.000Z</time>
      </trkpt>
      <trkpt lat="47.507" lon="6.7658">
        <ele>402.8</ele>
        <time>2014-11-23T08:15:16.000Z</time>
      </trkpt>
      <trkpt lat="47.50697" lon="6.7658">
        <ele>402.6</ele>
        <time>2014-11-23T08:15:17.000Z</time>
      </trkpt>
      <trkpt lat="47.50694" lon="6.76581">
        <ele>402.5</ele>
        <time>2014-11-23T08:15:18.000Z</time>
      </trkpt>
      <trkpt lat="47.5069" lon="6.76581">
        <ele>402.5</ele>
        <time>2014-11-23T08:15:19.000Z</time>
      </trkpt>
      <trkpt lat="47.50687" lon="6.76582">
        <ele>401.8</ele>
        <time>2014-11-23T08:15:20.000Z</time>
      </trkpt>
      <trkpt lat="47.50684" lon="6.76582">
        <ele>402.6</ele>
        <time>2014-11-23T08:15:21.000Z</time>
      </trkpt>
      <trkpt lat="47.50681" lon="6.76582">
        <ele>402.7</ele>
        <time>2014-11-23T08:15:22.000Z</time>
      </trkpt>
      <trkpt lat="47.50677" lon="6.76582">
        <ele>402.8</ele>
        <time>2014-11-23T08:15:23.000Z</time>
      </trkpt>
      <trkpt lat="47.50674" lon="6.76583">
        <ele>403.3</ele>
        <time>2014-11-23T08:15:24.000Z</time>
      </trkpt>
      <trkpt lat="47.50671" lon="6.76584">
        <ele>403.2</ele>
        <time>2014-11-23T08:15:25.000Z</time>
      </trkpt>
      <trkpt lat="47.50668" lon="6.76585">
        <ele>404.1</ele>
        <time>2014-11-23T08:15:26.000Z</time>
      </trkpt>
      <trkpt lat="47.50665" lon="6.76586">
        <ele>404</ele>
        <time>2014-11-23T08:15:27.000Z</time>
      </trkpt>
      <trkpt lat="47.50662" lon="6.76587">
        <ele>402.9</ele>
        <time>2014-11-23T08:15:28.000Z</time>
      </trkpt>
      <trkpt lat="47.50653" lon="6.7659">
        <ele>401.3</ele>
        <time>2014-11-23T08:15:31.000Z</time>
      </trkpt>
      <trkpt lat="47.5065" lon="6.76592">
        <ele>401.6</ele>
        <time>2014-11-23T08:15:32.000Z</time>
      </trkpt>
      <trkpt lat="47.50647" lon="6.76593">
        <ele>401.9</ele>
        <time>2014-11-23T08:15:33.000Z</time>
      </trkpt>
      <trkpt lat="47.50643" lon="6.76595">
        <ele>401.8</ele>
        <time>2014-11-23T08:15:34.000Z</time>
      </trkpt>
      <trkpt lat="47.5064" lon="6.76596">
        <ele>401.6</ele>
        <time>2014-11-23T08:15:35.000Z</time>
      </trkpt>
      <trkpt lat="47.50638" lon="6.76598">
        <ele>401.4</ele>
        <time>2014-11-23T08:15:36.000Z</time>
      </trkpt>
      <trkpt lat="47.50635" lon="6.766">
        <ele>401.2</ele>
        <time>2014-11-23T08:15:37.000Z</time>
      </trkpt>
      <trkpt lat="47.50632" lon="6.76601">
        <ele>401</ele>
        <time>2014-11-23T08:15:38.000Z</time>
      </trkpt>
      <trkpt lat="47.50629" lon="6.76603">
        <ele>402.1</ele>
        <time>2014-11-23T08:15:39.000Z</time>
      </trkpt>
      <trkpt lat="47.50626" lon="6.76604">
        <ele>402.8</ele>
        <time>2014-11-23T08:15:40.000Z</time>
      </trkpt>
      <trkpt lat="47.50624" lon="6.76605">
        <ele>402.7</ele>
        <time>2014-11-23T08:15:41.000Z</time>
      </trkpt>
      <trkpt lat="47.50621" lon="6.76606">
        <ele>403.3</ele>
        <time>2014-11-23T08:15:42.000Z</time>
      </trkpt>
      <trkpt lat="47.50618" lon="6.76608">
        <ele>403.7</ele>
        <time>2014-11-23T08:15:43.000Z</time>
      </trkpt>
      <trkpt lat="47.50615" lon="6.7661">
        <ele>403.8</ele>
        <time>2014-11-23T08:15:44.000Z</time>
      </trkpt>
      <trkpt lat="47.50612" lon="6.76611">
        <ele>404.4</ele>
        <time>2014-11-23T08:15:45.000Z</time>
      </trkpt>
      <trkpt lat="47.50609" lon="6.76612">
        <ele>404.5</ele>
        <time>2014-11-23T08:15:46.000Z</time>
      </trkpt>
      <trkpt lat="47.50606" lon="6.76612">
        <ele>404.6</ele>
        <time>2014-11-23T08:15:47.000Z</time>
      </trkpt>
      <trkpt lat="47.50603" lon="6.76613">
        <ele>404.4</ele>
        <time>2014-11-23T08:15:48.000Z</time>
      </trkpt>
      <trkpt lat="47.506" lon="6.76614">
        <ele>404.2</ele>
        <time>2014-11-23T08:15:49.000Z</time>
      </trkpt>
      <trkpt lat="47.50597" lon="6.76615">
        <ele>404.3</ele>
        <time>2014-11-23T08:15:50.000Z</time>
      </trkpt>
      <trkpt lat="47.50594" lon="6.76617">
        <ele>404.4</ele>
        <time>2014-11-23T08:15:51.000Z</time>
      </trkpt>
      <trkpt lat="47.50591" lon="6.76618">
        <ele>404.6</ele>
        <time>2014-11-23T08:15:52.000Z</time>
      </trkpt>
      <trkpt lat="47.50588" lon="6.76619">
        <ele>405</ele>
        <time>2014-11-23T08:15:53.000Z</time>
      </trkpt>
      <trkpt lat="47.50585" lon="6.76619">
        <ele>405.3</ele>
        <time>2014-11-23T08:15:54.000Z</time>
      </trkpt>
      <trkpt lat="47.50582" lon="6.7662">
        <ele>405.4</ele>
        <time>2014-11-23T08:15:55.000Z</time>
      </trkpt>
      <trkpt lat="47.5058" lon="6.7662">
        <ele>405</ele>
        <time>2014-11-23T08:15:56.000Z</time>
      </trkpt>
      <trkpt lat="47.50577" lon="6.7662">
        <ele>405.4</ele>
        <time>2014-11-23T08:15:57.000Z</time>
      </trkpt>
      <trkpt lat="47.50574" lon="6.76621">
        <ele>405.6</ele>
        <time>2014-11-23T08:15:58.000Z</time>
      </trkpt>
      <trkpt lat="47.50571" lon="6.76621">
        <ele>406.1</ele>
        <time>2014-11-23T08:15:59.000Z</time>
      </trkpt>
      <trkpt lat="47.50569" lon="6.76622">
        <ele>406.2</ele>
        <time>2014-11-23T08:16:00.000Z</time>
      </trkpt>
      <trkpt lat="47.50566" lon="6.76623">
        <ele>406.1</ele>
        <time>2014-11-23T08:16:01.000Z</time>
      </trkpt>
      <trkpt lat="47.50563" lon="6.76624">
        <ele>405.4</ele>
        <time>2014-11-23T08:16:02.000Z</time>
      </trkpt>
      <trkpt lat="47.50561" lon="6.76625">
        <ele>405.8</ele>
        <time>2014-11-23T08:16:03.000Z</time>
      </trkpt>
      <trkpt lat="47.50558" lon="6.76626">
        <ele>405.9</ele>
        <time>2014-11-23T08:16:04.000Z</time>
      </trkpt>
      <trkpt lat="47.50555" lon="6.76626">
        <ele>406.2</ele>
        <time>2014-11-23T08:16:05.000Z</time>
      </trkpt>
      <trkpt lat="47.50552" lon="6.76627">
        <ele>406.1</ele>
        <time>2014-11-23T08:16:06.000Z</time>
      </trkpt>
      <trkpt lat="47.50548" lon="6.76628">
        <ele>406.2</ele>
        <time>2014-11-23T08:16:07.000Z</time>
      </trkpt>
      <trkpt lat="47.50545" lon="6.76629">
        <ele>406</ele>
        <time>2014-11-23T08:16:08.000Z</time>
      </trkpt>
      <trkpt lat="47.50542" lon="6.7663">
        <ele>405.8</ele>
        <time>2014-11-23T08:16:09.000Z</time>
      </trkpt>
      <trkpt lat="47.50539" lon="6.76631">
        <ele>405.7</ele>
        <time>2014-11-23T08:16:10.000Z</time>
      </trkpt>
      <trkpt lat="47.50535" lon="6.76632">
        <ele>405.4</ele>
        <time>2014-11-23T08:16:11.000Z</time>
      </trkpt>
      <trkpt lat="47.50532" lon="6.76633">
        <ele>405.7</ele>
        <time>2014-11-23T08:16:12.000Z</time>
      </trkpt>
      <trkpt lat="47.50529" lon="6.76634">
        <ele>405.5</ele>
        <time>2014-11-23T08:16:13.000Z</time>
      </trkpt>
      <trkpt lat="47.50525" lon="6.76634">
        <ele>407.3</ele>
        <time>2014-11-23T08:16:14.000Z</time>
      </trkpt>
      <trkpt lat="47.50521" lon="6.76635">
        <ele>406.5</ele>
        <time>2014-11-23T08:16:15.000Z</time>
      </trkpt>
      <trkpt lat="47.50516" lon="6.76635">
        <ele>406</ele>
        <time>2014-11-23T08:16:16.000Z</time>
      </trkpt>
      <trkpt lat="47.50512" lon="6.76637">
        <ele>405.8</ele>
        <time>2014-11-23T08:16:17.000Z</time>
      </trkpt>
      <trkpt lat="47.50508" lon="6.76638">
        <ele>406.2</ele>
        <time>2014-11-23T08:16:18.000Z</time>
      </trkpt>
      <trkpt lat="47.50504" lon="6.76639">
        <ele>406.5</ele>
        <time>2014-11-23T08:16:19.000Z</time>
      </trkpt>
      <trkpt lat="47.505" lon="6.7664">
        <ele>406.6</ele>
        <time>2014-11-23T08:16:20.000Z</time>
      </trkpt>
      <trkpt lat="47.50496" lon="6.76642">
        <ele>406.8</ele>
        <time>2014-11-23T08:16:21.000Z</time>
      </trkpt>
      <trkpt lat="47.50491" lon="6.76644">
        <ele>406.5</ele>
        <time>2014-11-23T08:16:22.000Z</time>
      </trkpt>
      <trkpt lat="47.50487" lon="6.76644">
        <ele>406.4</ele>
        <time>2014-11-23T08:16:23.000Z</time>
      </trkpt>
      <trkpt lat="47.50482" lon="6.76646">
        <ele>405.5</ele>
        <time>2014-11-23T08:16:24.000Z</time>
      </trkpt>
      <trkpt lat="47.50478" lon="6.76647">
        <ele>405.5</ele>
        <time>2014-11-23T08:16:25.000Z</time>
      </trkpt>
      <trkpt lat="47.50474" lon="6.76649">
        <ele>405.7</ele>
        <time>2014-11-23T08:16:26.000Z</time>
      </trkpt>
      <trkpt lat="47.5047" lon="6.7665">
        <ele>405.5</ele>
        <time>2014-11-23T08:16:27.000Z</time>
      </trkpt>
      <trkpt lat="47.50466" lon="6.76652">
        <ele>405</ele>
        <time>2014-11-23T08:16:28.000Z</time>
      </trkpt>
      <trkpt lat="47.50454" lon="6.76659">
        <ele>404.9</ele>
        <time>2014-11-23T08:16:31.000Z</time>
      </trkpt>
      <trkpt lat="47.5045" lon="6.76661">
        <ele>405.3</ele>
        <time>2014-11-23T08:16:32.000Z</time>
      </trkpt>
      <trkpt lat="47.50446" lon="6.76663">
        <ele>404.9</ele>
        <time>2014-11-23T08:16:33.000Z</time>
      </trkpt>
      <trkpt lat="47.50442" lon="6.76665">
        <ele>404.3</ele>
        <time>2014-11-23T08:16:34.000Z</time>
      </trkpt>
      <trkpt lat="47.50438" lon="6.76666">
        <ele>405.3</ele>
        <time>2014-11-23T08:16:35.000Z</time>
      </trkpt>
      <trkpt lat="47.50434" lon="6.76667">
        <ele>405.8</ele>
        <time>2014-11-23T08:16:36.000Z</time>
      </trkpt>
      <trkpt lat="47.5043" lon="6.76668">
        <ele>405.9</ele>
        <time>2014-11-23T08:16:37.000Z</time>
      </trkpt>
      <trkpt lat="47.50426" lon="6.76669">
        <ele>406.7</ele>
        <time>2014-11-23T08:16:38.000Z</time>
      </trkpt>
      <trkpt lat="47.50422" lon="6.7667">
        <ele>406.5</ele>
        <time>2014-11-23T08:16:39.000Z</time>
      </trkpt>
      <trkpt lat="47.50419" lon="6.76671">
        <ele>405.8</ele>
        <time>2014-11-23T08:16:40.000Z</time>
      </trkpt>
      <trkpt lat="47.50415" lon="6.76672">
        <ele>406.2</ele>
        <time>2014-11-23T08:16:41.000Z</time>
      </trkpt>
      <trkpt lat="47.50411" lon="6.76673">
        <ele>405.9</ele>
        <time>2014-11-23T08:16:42.000Z</time>
      </trkpt>
      <trkpt lat="47.50408" lon="6.76674">
        <ele>406</ele>
        <time>2014-11-23T08:16:43.000Z</time>
      </trkpt>
      <trkpt lat="47.50404" lon="6.76676">
        <ele>406</ele>
        <time>2014-11-23T08:16:44.000Z</time>
      </trkpt>
      <trkpt lat="47.50401" lon="6.76678">
        <ele>406.1</ele>
        <time>2014-11-23T08:16:45.000Z</time>
      </trkpt>
      <trkpt lat="47.50397" lon="6.7668">
        <ele>406</ele>
        <time>2014-11-23T08:16:46.000Z</time>
      </trkpt>
      <trkpt lat="47.50394" lon="6.76682">
        <ele>405.8</ele>
        <time>2014-11-23T08:16:47.000Z</time>
      </trkpt>
      <trkpt lat="47.5039" lon="6.76684">
        <ele>406.2</ele>
        <time>2014-11-23T08:16:48.000Z</time>
      </trkpt>
      <trkpt lat="47.50387" lon="6.76685">
        <ele>406.4</ele>
        <time>2014-11-23T08:16:49.000Z</time>
      </trkpt>
      <trkpt lat="47.50384" lon="6.76686">
        <ele>406.8</ele>
        <time>2014-11-23T08:16:50.000Z</time>
      </trkpt>
      <trkpt lat="47.5038" lon="6.76688">
        <ele>406</ele>
        <time>2014-11-23T08:16:51.000Z</time>
      </trkpt>
      <trkpt lat="47.50377" lon="6.76689">
        <ele>405.8</ele>
        <time>2014-11-23T08:16:52.000Z</time>
      </trkpt>
      <trkpt lat="47.50374" lon="6.76691">
        <ele>405.5</ele>
        <time>2014-11-23T08:16:53.000Z</time>
      </trkpt>
      <trkpt lat="47.50371" lon="6.76693">
        <ele>405.6</ele>
        <time>2014-11-23T08:16:54.000Z</time>
      </trkpt>
      <trkpt lat="47.50368" lon="6.76694">
        <ele>405.2</ele>
        <time>2014-11-23T08:16:55.000Z</time>
      </trkpt>
      <trkpt lat="47.50365" lon="6.76695">
        <ele>405.1</ele>
        <time>2014-11-23T08:16:56.000Z</time>
      </trkpt>
      <trkpt lat="47.50361" lon="6.76696">
        <ele>404.9</ele>
        <time>2014-11-23T08:16:57.000Z</time>
      </trkpt>
      <trkpt lat="47.50358" lon="6.76698">
        <ele>405.2</ele>
        <time>2014-11-23T08:16:58.000Z</time>
      </trkpt>
      <trkpt lat="47.50355" lon="6.767">
        <ele>405.1</ele>
        <time>2014-11-23T08:16:59.000Z</time>
      </trkpt>
      <trkpt lat="47.50351" lon="6.76701">
        <ele>404.6</ele>
        <time>2014-11-23T08:17:00.000Z</time>
      </trkpt>
      <trkpt lat="47.50348" lon="6.76703">
        <ele>404.8</ele>
        <time>2014-11-23T08:17:01.000Z</time>
      </trkpt>
      <trkpt lat="47.50344" lon="6.76704">
        <ele>405.1</ele>
        <time>2014-11-23T08:17:02.000Z</time>
      </trkpt>
      <trkpt lat="47.50341" lon="6.76706">
        <ele>405.4</ele>
        <time>2014-11-23T08:17:03.000Z</time>
      </trkpt>
      <trkpt lat="47.50338" lon="6.76707">
        <ele>405.4</ele>
        <time>2014-11-23T08:17:04.000Z</time>
      </trkpt>
      <trkpt lat="47.50334" lon="6.76708">
        <ele>405.6</ele>
        <time>2014-11-23T08:17:05.000Z</time>
      </trkpt>
      <trkpt lat="47.50331" lon="6.7671">
        <ele>406.1</ele>
        <time>2014-11-23T08:17:06.000Z</time>
      </trkpt>
      <trkpt lat="47.50328" lon="6.76711">
        <ele>406</ele>
        <time>2014-11-23T08:17:07.000Z</time>
      </trkpt>
      <trkpt lat="47.50325" lon="6.76712">
        <ele>405.8</ele>
        <time>2014-11-23T08:17:08.000Z</time>
      </trkpt>
      <trkpt lat="47.50321" lon="6.76714">
        <ele>405.6</ele>
        <time>2014-11-23T08:17:09.000Z</time>
      </trkpt>
      <trkpt lat="47.50318" lon="6.76715">
        <ele>405.9</ele>
        <time>2014-11-23T08:17:10.000Z</time>
      </trkpt>
      <trkpt lat="47.50315" lon="6.76717">
        <ele>406</ele>
        <time>2014-11-23T08:17:11.000Z</time>
      </trkpt>
      <trkpt lat="47.50312" lon="6.76718">
        <ele>405.9</ele>
        <time>2014-11-23T08:17:12.000Z</time>
      </trkpt>
      <trkpt lat="47.50309" lon="6.7672">
        <ele>405.6</ele>
        <time>2014-11-23T08:17:13.000Z</time>
      </trkpt>
      <trkpt lat="47.50306" lon="6.76722">
        <ele>405.5</ele>
        <time>2014-11-23T08:17:14.000Z</time>
      </trkpt>
      <trkpt lat="47.50303" lon="6.76723">
        <ele>405.2</ele>
        <time>2014-11-23T08:17:15.000Z</time>
      </trkpt>
      <trkpt lat="47.503" lon="6.76724">
        <ele>405</ele>
        <time>2014-11-23T08:17:16.000Z</time>
      </trkpt>
      <trkpt lat="47.50298" lon="6.76725">
        <ele>404.8</ele>
        <time>2014-11-23T08:17:17.000Z</time>
      </trkpt>
      <trkpt lat="47.50295" lon="6.76725">
        <ele>405.6</ele>
        <time>2014-11-23T08:17:18.000Z</time>
      </trkpt>
      <trkpt lat="47.50293" lon="6.76726">
        <ele>405.5</ele>
        <time>2014-11-23T08:17:19.000Z</time>
      </trkpt>
      <trkpt lat="47.50291" lon="6.76726">
        <ele>406.3</ele>
        <time>2014-11-23T08:17:20.000Z</time>
      </trkpt>
      <trkpt lat="47.50288" lon="6.76727">
        <ele>406.3</ele>
        <time>2014-11-23T08:17:21.000Z</time>
      </trkpt>
      <trkpt lat="47.50285" lon="6.76728">
        <ele>406.3</ele>
        <time>2014-11-23T08:17:22.000Z</time>
      </trkpt>
      <trkpt lat="47.50281" lon="6.76728">
        <ele>406.6</ele>
        <time>2014-11-23T08:17:23.000Z</time>
      </trkpt>
      <trkpt lat="47.50278" lon="6.76729">
        <ele>407.4</ele>
        <time>2014-11-23T08:17:24.000Z</time>
      </trkpt>
      <trkpt lat="47.50275" lon="6.7673">
        <ele>407.5</ele>
        <time>2014-11-23T08:17:25.000Z</time>
      </trkpt>
      <trkpt lat="47.50272" lon="6.76731">
        <ele>407.4</ele>
        <time>2014-11-23T08:17:26.000Z</time>
      </trkpt>
      <trkpt lat="47.50268" lon="6.76732">
        <ele>407.4</ele>
        <time>2014-11-23T08:17:27.000Z</time>
      </trkpt>
      <trkpt lat="47.50265" lon="6.76734">
        <ele>407.5</ele>
        <time>2014-11-23T08:17:28.000Z</time>
      </trkpt>
      <trkpt lat="47.50256" lon="6.76737">
        <ele>407.7</ele>
        <time>2014-11-23T08:17:31.000Z</time>
      </trkpt>
      <trkpt lat="47.50253" lon="6.76737">
        <ele>407.9</ele>
        <time>2014-11-23T08:17:32.000Z</time>
      </trkpt>
      <trkpt lat="47.5025" lon="6.76736">
        <ele>408.5</ele>
        <time>2014-11-23T08:17:33.000Z</time>
      </trkpt>
      <trkpt lat="47.50248" lon="6.76734">
        <ele>409.8</ele>
        <time>2014-11-23T08:17:34.000Z</time>
      </trkpt>
      <trkpt lat="47.50247" lon="6.76731">
        <ele>409.8</ele>
        <time>2014-11-23T08:17:35.000Z</time>
      </trkpt>
      <trkpt lat="47.50246" lon="6.76728">
        <ele>410.3</ele>
        <time>2014-11-23T08:17:36.000Z</time>
      </trkpt>
      <trkpt lat="47.50244" lon="6.76724">
        <ele>410.7</ele>
        <time>2014-11-23T08:17:37.000Z</time>
      </trkpt>
      <trkpt lat="47.50243" lon="6.76721">
        <ele>410.5</ele>
        <time>2014-11-23T08:17:38.000Z</time>
      </trkpt>
      <trkpt lat="47.50241" lon="6.76718">
        <ele>409</ele>
        <time>2014-11-23T08:17:39.000Z</time>
      </trkpt>
      <trkpt lat="47.50239" lon="6.76715">
        <ele>408.9</ele>
        <time>2014-11-23T08:17:40.000Z</time>
      </trkpt>
      <trkpt lat="47.50237" lon="6.76712">
        <ele>408.9</ele>
        <time>2014-11-23T08:17:41.000Z</time>
      </trkpt>
      <trkpt lat="47.50235" lon="6.76709">
        <ele>408.9</ele>
        <time>2014-11-23T08:17:42.000Z</time>
      </trkpt>
      <trkpt lat="47.50233" lon="6.76705">
        <ele>409</ele>
        <time>2014-11-23T08:17:43.000Z</time>
      </trkpt>
      <trkpt lat="47.50232" lon="6.76701">
        <ele>408.8</ele>
        <time>2014-11-23T08:17:44.000Z</time>
      </trkpt>
      <trkpt lat="47.50231" lon="6.76697">
        <ele>409.1</ele>
        <time>2014-11-23T08:17:45.000Z</time>
      </trkpt>
      <trkpt lat="47.50229" lon="6.76694">
        <ele>408.8</ele>
        <time>2014-11-23T08:17:46.000Z</time>
      </trkpt>
      <trkpt lat="47.50228" lon="6.7669">
        <ele>407.9</ele>
        <time>2014-11-23T08:17:47.000Z</time>
      </trkpt>
      <trkpt lat="47.50226" lon="6.76686">
        <ele>407.4</ele>
        <time>2014-11-23T08:17:48.000Z</time>
      </trkpt>
      <trkpt lat="47.50225" lon="6.76683">
        <ele>407.2</ele>
        <time>2014-11-23T08:17:49.000Z</time>
      </trkpt>
      <trkpt lat="47.50223" lon="6.76679">
        <ele>407.6</ele>
        <time>2014-11-23T08:17:50.000Z</time>
      </trkpt>
      <trkpt lat="47.50222" lon="6.76674">
        <ele>407.4</ele>
        <time>2014-11-23T08:17:51.000Z</time>
      </trkpt>
      <trkpt lat="47.5022" lon="6.7667">
        <ele>407.4</ele>
        <time>2014-11-23T08:17:52.000Z</time>
      </trkpt>
      <trkpt lat="47.50218" lon="6.76666">
        <ele>406.9</ele>
        <time>2014-11-23T08:17:53.000Z</time>
      </trkpt>
      <trkpt lat="47.50216" lon="6.76661">
        <ele>406.3</ele>
        <time>2014-11-23T08:17:54.000Z</time>
      </trkpt>
      <trkpt lat="47.50215" lon="6.76657">
        <ele>405.7</ele>
        <time>2014-11-23T08:17:55.000Z</time>
      </trkpt>
      <trkpt lat="47.50213" lon="6.76653">
        <ele>406.1</ele>
        <time>2014-11-23T08:17:56.000Z</time>
      </trkpt>
      <trkpt lat="47.50212" lon="6.76649">
        <ele>406.2</ele>
        <time>2014-11-23T08:17:57.000Z</time>
      </trkpt>
      <trkpt lat="47.50211" lon="6.76645">
        <ele>405.9</ele>
        <time>2014-11-23T08:17:58.000Z</time>
      </trkpt>
      <trkpt lat="47.5021" lon="6.7664">
        <ele>406.3</ele>
        <time>2014-11-23T08:17:59.000Z</time>
      </trkpt>
      <trkpt lat="47.50208" lon="6.76636">
        <ele>406.6</ele>
        <time>2014-11-23T08:18:00.000Z</time>
      </trkpt>
      <trkpt lat="47.50207" lon="6.76631">
        <ele>406.8</ele>
        <time>2014-11-23T08:18:01.000Z</time>
      </trkpt>
      <trkpt lat="47.50206" lon="6.76626">
        <ele>407.1</ele>
        <time>2014-11-23T08:18:02.000Z</time>
      </trkpt>
      <trkpt lat="47.50204" lon="6.76621">
        <ele>406.4</ele>
        <time>2014-11-23T08:18:03.000Z</time>
      </trkpt>
      <trkpt lat="47.50202" lon="6.76616">
        <ele>405.9</ele>
        <time>2014-11-23T08:18:04.000Z</time>
      </trkpt>
      <trkpt lat="47.50201" lon="6.76611">
        <ele>405.3</ele>
        <time>2014-11-23T08:18:05.000Z</time>
      </trkpt>
      <trkpt lat="47.50199" lon="6.76606">
        <ele>405.4</ele>
        <time>2014-11-23T08:18:06.000Z</time>
      </trkpt>
      <trkpt lat="47.50199" lon="6.76601">
        <ele>405.2</ele>
        <time>2014-11-23T08:18:07.000Z</time>
      </trkpt>
      <trkpt lat="47.50198" lon="6.76597">
        <ele>404.3</ele>
        <time>2014-11-23T08:18:08.000Z</time>
      </trkpt>
      <trkpt lat="47.50199" lon="6.76594">
        <ele>404.1</ele>
        <time>2014-11-23T08:18:09.000Z</time>
      </trkpt>
      <trkpt lat="47.50199" lon="6.76588">
        <ele>404.4</ele>
        <time>2014-11-23T08:18:12.000Z</time>
      </trkpt>
      <trkpt lat="47.50199" lon="6.76586">
        <ele>402.3</ele>
        <time>2014-11-23T08:18:13.000Z</time>
      </trkpt>
      <trkpt lat="47.50196" lon="6.76581">
        <ele>403.6</ele>
        <time>2014-11-23T08:18:16.000Z</time>
      </trkpt>
      <trkpt lat="47.50197" lon="6.76579">
        <ele>402.1</ele>
        <time>2014-11-23T08:18:17.000Z</time>
      </trkpt>
      <trkpt lat="47.50199" lon="6.76576">
        <ele>400.9</ele>
        <time>2014-11-23T08:18:19.000Z</time>
      </trkpt>
      <trkpt lat="47.50201" lon="6.76576">
        <ele>401.9</ele>
        <time>2014-11-23T08:18:20.000Z</time>
      </trkpt>
      <trkpt lat="47.50204" lon="6.76577">
        <ele>401.7</ele>
        <time>2014-11-23T08:18:21.000Z</time>
      </trkpt>
      <trkpt lat="47.50207" lon="6.76578">
        <ele>401.9</ele>
        <time>2014-11-23T08:18:22.000Z</time>
      </trkpt>
      <trkpt lat="47.50211" lon="6.7658">
        <ele>402.1</ele>
        <time>2014-11-23T08:18:23.000Z</time>
      </trkpt>
      <trkpt lat="47.50214" lon="6.76581">
        <ele>404.1</ele>
        <time>2014-11-23T08:18:24.000Z</time>
      </trkpt>
      <trkpt lat="47.50217" lon="6.76583">
        <ele>404.6</ele>
        <time>2014-11-23T08:18:25.000Z</time>
      </trkpt>
      <trkpt lat="47.50219" lon="6.76584">
        <ele>404.8</ele>
        <time>2014-11-23T08:18:26.000Z</time>
      </trkpt>
      <trkpt lat="47.50222" lon="6.76581">
        <ele>407.7</ele>
        <time>2014-11-23T08:18:28.000Z</time>
      </trkpt>
      <trkpt lat="47.50223" lon="6.7657">
        <ele>406.2</ele>
        <time>2014-11-23T08:18:31.000Z</time>
      </trkpt>
      <trkpt lat="47.50222" lon="6.76565">
        <ele>406.2</ele>
        <time>2014-11-23T08:18:32.000Z</time>
      </trkpt>
      <trkpt lat="47.5022" lon="6.76559">
        <ele>406.4</ele>
        <time>2014-11-23T08:18:33.000Z</time>
      </trkpt>
      <trkpt lat="47.50219" lon="6.76554">
        <ele>406.8</ele>
        <time>2014-11-23T08:18:34.000Z</time>
      </trkpt>
      <trkpt lat="47.50217" lon="6.76548">
        <ele>406.8</ele>
        <time>2014-11-23T08:18:35.000Z</time>
      </trkpt>
      <trkpt lat="47.50216" lon="6.76542">
        <ele>406.7</ele>
        <time>2014-11-23T08:18:36.000Z</time>
      </trkpt>
      <trkpt lat="47.50214" lon="6.76535">
        <ele>406.6</ele>
        <time>2014-11-23T08:18:37.000Z</time>
      </trkpt>
      <trkpt lat="47.50212" lon="6.76527">
        <ele>406</ele>
        <time>2014-11-23T08:18:38.000Z</time>
      </trkpt>
      <trkpt lat="47.5021" lon="6.76506">
        <ele>405.9</ele>
        <time>2014-11-23T08:18:39.000Z</time>
      </trkpt>
      <trkpt lat="47.5021" lon="6.76497">
        <ele>405.9</ele>
        <time>2014-11-23T08:18:40.000Z</time>
      </trkpt>
      <trkpt lat="47.50208" lon="6.76487">
        <ele>406</ele>
        <time>2014-11-23T08:18:41.000Z</time>
      </trkpt>
      <trkpt lat="47.50205" lon="6.76476">
        <ele>405.8</ele>
        <time>2014-11-23T08:18:42.000Z</time>
      </trkpt>
      <trkpt lat="47.50202" lon="6.76466">
        <ele>405.6</ele>
        <time>2014-11-23T08:18:43.000Z</time>
      </trkpt>
      <trkpt lat="47.50201" lon="6.76456">
        <ele>405.3</ele>
        <time>2014-11-23T08:18:44.000Z</time>
      </trkpt>
      <trkpt lat="47.50199" lon="6.76448">
        <ele>405.5</ele>
        <time>2014-11-23T08:18:45.000Z</time>
      </trkpt>
      <trkpt lat="47.50198" lon="6.7644">
        <ele>405.9</ele>
        <time>2014-11-23T08:18:46.000Z</time>
      </trkpt>
      <trkpt lat="47.50197" lon="6.76431">
        <ele>405.6</ele>
        <time>2014-11-23T08:18:47.000Z</time>
      </trkpt>
      <trkpt lat="47.50196" lon="6.76423">
        <ele>405.7</ele>
        <time>2014-11-23T08:18:48.000Z</time>
      </trkpt>
      <trkpt lat="47.50195" lon="6.76416">
        <ele>406.2</ele>
        <time>2014-11-23T08:18:49.000Z</time>
      </trkpt>
      <trkpt lat="47.50194" lon="6.76406">
        <ele>406.6</ele>
        <time>2014-11-23T08:18:50.000Z</time>
      </trkpt>
      <trkpt lat="47.50193" lon="6.76397">
        <ele>406.2</ele>
        <time>2014-11-23T08:18:51.000Z</time>
      </trkpt>
      <trkpt lat="47.50192" lon="6.76389">
        <ele>406.4</ele>
        <time>2014-11-23T08:18:52.000Z</time>
      </trkpt>
      <trkpt lat="47.5019" lon="6.76382">
        <ele>407.5</ele>
        <time>2014-11-23T08:18:53.000Z</time>
      </trkpt>
      <trkpt lat="47.50189" lon="6.76375">
        <ele>409.1</ele>
        <time>2014-11-23T08:18:54.000Z</time>
      </trkpt>
      <trkpt lat="47.50187" lon="6.76367">
        <ele>410.1</ele>
        <time>2014-11-23T08:18:55.000Z</time>
      </trkpt>
      <trkpt lat="47.50184" lon="6.76348">
        <ele>410.6</ele>
        <time>2014-11-23T08:18:56.000Z</time>
      </trkpt>
      <trkpt lat="47.50181" lon="6.76337">
        <ele>411</ele>
        <time>2014-11-23T08:18:57.000Z</time>
      </trkpt>
      <trkpt lat="47.50179" lon="6.76326">
        <ele>410.4</ele>
        <time>2014-11-23T08:18:58.000Z</time>
      </trkpt>
      <trkpt lat="47.50177" lon="6.7632">
        <ele>410.2</ele>
        <time>2014-11-23T08:18:59.000Z</time>
      </trkpt>
      <trkpt lat="47.50175" lon="6.76313">
        <ele>411.1</ele>
        <time>2014-11-23T08:19:00.000Z</time>
      </trkpt>
      <trkpt lat="47.50174" lon="6.76307">
        <ele>412.1</ele>
        <time>2014-11-23T08:19:01.000Z</time>
      </trkpt>
      <trkpt lat="47.50171" lon="6.76299">
        <ele>413.1</ele>
        <time>2014-11-23T08:19:02.000Z</time>
      </trkpt>
      <trkpt lat="47.50168" lon="6.76291">
        <ele>412.6</ele>
        <time>2014-11-23T08:19:03.000Z</time>
      </trkpt>
      <trkpt lat="47.50165" lon="6.76283">
        <ele>413.2</ele>
        <time>2014-11-23T08:19:04.000Z</time>
      </trkpt>
      <trkpt lat="47.50164" lon="6.76273">
        <ele>413</ele>
        <time>2014-11-23T08:19:05.000Z</time>
      </trkpt>
      <trkpt lat="47.50162" lon="6.76264">
        <ele>412.9</ele>
        <time>2014-11-23T08:19:06.000Z</time>
      </trkpt>
      <trkpt lat="47.50161" lon="6.76254">
        <ele>412.9</ele>
        <time>2014-11-23T08:19:07.000Z</time>
      </trkpt>
      <trkpt lat="47.5016" lon="6.76243">
        <ele>413.2</ele>
        <time>2014-11-23T08:19:08.000Z</time>
      </trkpt>
      <trkpt lat="47.50161" lon="6.7623">
        <ele>418.8</ele>
        <time>2014-11-23T08:19:09.000Z</time>
      </trkpt>
      <trkpt lat="47.50159" lon="6.76217">
        <ele>418.7</ele>
        <time>2014-11-23T08:19:10.000Z</time>
      </trkpt>
      <trkpt lat="47.50158" lon="6.76206">
        <ele>418.4</ele>
        <time>2014-11-23T08:19:11.000Z</time>
      </trkpt>
      <trkpt lat="47.50156" lon="6.76197">
        <ele>417.8</ele>
        <time>2014-11-23T08:19:12.000Z</time>
      </trkpt>
      <trkpt lat="47.50154" lon="6.76187">
        <ele>418</ele>
        <time>2014-11-23T08:19:13.000Z</time>
      </trkpt>
      <trkpt lat="47.5015" lon="6.76179">
        <ele>417.2</ele>
        <time>2014-11-23T08:19:14.000Z</time>
      </trkpt>
      <trkpt lat="47.50148" lon="6.76171">
        <ele>417.5</ele>
        <time>2014-11-23T08:19:15.000Z</time>
      </trkpt>
      <trkpt lat="47.50147" lon="6.76161">
        <ele>417.3</ele>
        <time>2014-11-23T08:19:16.000Z</time>
      </trkpt>
      <trkpt lat="47.50144" lon="6.76149">
        <ele>417.5</ele>
        <time>2014-11-23T08:19:17.000Z</time>
      </trkpt>
      <trkpt lat="47.50142" lon="6.7614">
        <ele>417.2</ele>
        <time>2014-11-23T08:19:18.000Z</time>
      </trkpt>
      <trkpt lat="47.5014" lon="6.76128">
        <ele>417</ele>
        <time>2014-11-23T08:19:19.000Z</time>
      </trkpt>
      <trkpt lat="47.50137" lon="6.76118">
        <ele>416.7</ele>
        <time>2014-11-23T08:19:20.000Z</time>
      </trkpt>
      <trkpt lat="47.50133" lon="6.76107">
        <ele>415.4</ele>
        <time>2014-11-23T08:19:21.000Z</time>
      </trkpt>
      <trkpt lat="47.50131" lon="6.76093">
        <ele>414.2</ele>
        <time>2014-11-23T08:19:22.000Z</time>
      </trkpt>
      <trkpt lat="47.5013" lon="6.7608">
        <ele>412.7</ele>
        <time>2014-11-23T08:19:23.000Z</time>
      </trkpt>
      <trkpt lat="47.50129" lon="6.76066">
        <ele>411.7</ele>
        <time>2014-11-23T08:19:24.000Z</time>
      </trkpt>
      <trkpt lat="47.50128" lon="6.76055">
        <ele>410.3</ele>
        <time>2014-11-23T08:19:25.000Z</time>
      </trkpt>
      <trkpt lat="47.50127" lon="6.76042">
        <ele>408.5</ele>
        <time>2014-11-23T08:19:26.000Z</time>
      </trkpt>
      <trkpt lat="47.50126" lon="6.76031">
        <ele>406</ele>
        <time>2014-11-23T08:19:27.000Z</time>
      </trkpt>
      <trkpt lat="47.50122" lon="6.76021">
        <ele>405.2</ele>
        <time>2014-11-23T08:19:28.000Z</time>
      </trkpt>
      <trkpt lat="47.50115" lon="6.76002">
        <ele>395.5</ele>
        <time>2014-11-23T08:19:31.000Z</time>
      </trkpt>
      <trkpt lat="47.50111" lon="6.7599">
        <ele>394.1</ele>
        <time>2014-11-23T08:19:32.000Z</time>
      </trkpt>
      <trkpt lat="47.50109" lon="6.75981">
        <ele>392.8</ele>
        <time>2014-11-23T08:19:33.000Z</time>
      </trkpt>
      <trkpt lat="47.50103" lon="6.75968">
        <ele>394.4</ele>
        <time>2014-11-23T08:19:34.000Z</time>
      </trkpt>
      <trkpt lat="47.50097" lon="6.75956">
        <ele>394</ele>
        <time>2014-11-23T08:19:35.000Z</time>
      </trkpt>
      <trkpt lat="47.50093" lon="6.75948">
        <ele>393.2</ele>
        <time>2014-11-23T08:19:36.000Z</time>
      </trkpt>
      <trkpt lat="47.50089" lon="6.75937">
        <ele>391</ele>
        <time>2014-11-23T08:19:37.000Z</time>
      </trkpt>
      <trkpt lat="47.50086" lon="6.75931">
        <ele>389.1</ele>
        <time>2014-11-23T08:19:38.000Z</time>
      </trkpt>
      <trkpt lat="47.50083" lon="6.75921">
        <ele>389.1</ele>
        <time>2014-11-23T08:19:39.000Z</time>
      </trkpt>
      <trkpt lat="47.50077" lon="6.75911">
        <ele>388.7</ele>
        <time>2014-11-23T08:19:40.000Z</time>
      </trkpt>
      <trkpt lat="47.50075" lon="6.75904">
        <ele>388.7</ele>
        <time>2014-11-23T08:19:40.998Z</time>
      </trkpt>
      <trkpt lat="47.50069" lon="6.75896">
        <ele>388.2</ele>
        <time>2014-11-23T08:19:42.000Z</time>
      </trkpt>
      <trkpt lat="47.50066" lon="6.75888">
        <ele>388.1</ele>
        <time>2014-11-23T08:19:43.000Z</time>
      </trkpt>
      <trkpt lat="47.50064" lon="6.75881">
        <ele>388.4</ele>
        <time>2014-11-23T08:19:44.000Z</time>
      </trkpt>
      <trkpt lat="47.50061" lon="6.75873">
        <ele>388.4</ele>
        <time>2014-11-23T08:19:45.000Z</time>
      </trkpt>
      <trkpt lat="47.50058" lon="6.75865">
        <ele>388.1</ele>
        <time>2014-11-23T08:19:46.000Z</time>
      </trkpt>
      <trkpt lat="47.50053" lon="6.75855">
        <ele>387.9</ele>
        <time>2014-11-23T08:19:47.000Z</time>
      </trkpt>
      <trkpt lat="47.50048" lon="6.75846">
        <ele>387.7</ele>
        <time>2014-11-23T08:19:48.000Z</time>
      </trkpt>
      <trkpt lat="47.50043" lon="6.75839">
        <ele>387.2</ele>
        <time>2014-11-23T08:19:49.000Z</time>
      </trkpt>
      <trkpt lat="47.50039" lon="6.75833">
        <ele>387</ele>
        <time>2014-11-23T08:19:50.000Z</time>
      </trkpt>
      <trkpt lat="47.50035" lon="6.75824">
        <ele>387.3</ele>
        <time>2014-11-23T08:19:51.000Z</time>
      </trkpt>
      <trkpt lat="47.50028" lon="6.75814">
        <ele>387.3</ele>
        <time>2014-11-23T08:19:52.000Z</time>
      </trkpt>
      <trkpt lat="47.50023" lon="6.75803">
        <ele>387.2</ele>
        <time>2014-11-23T08:19:53.000Z</time>
      </trkpt>
      <trkpt lat="47.50018" lon="6.75794">
        <ele>387</ele>
        <time>2014-11-23T08:19:54.000Z</time>
      </trkpt>
      <trkpt lat="47.50013" lon="6.75787">
        <ele>386.7</ele>
        <time>2014-11-23T08:19:55.000Z</time>
      </trkpt>
      <trkpt lat="47.50005" lon="6.7578">
        <ele>386.5</ele>
        <time>2014-11-23T08:19:56.000Z</time>
      </trkpt>
      <trkpt lat="47.50001" lon="6.75773">
        <ele>384.8</ele>
        <time>2014-11-23T08:19:57.000Z</time>
      </trkpt>
      <trkpt lat="47.49993" lon="6.75765">
        <ele>383.2</ele>
        <time>2014-11-23T08:19:58.000Z</time>
      </trkpt>
      <trkpt lat="47.49987" lon="6.75756">
        <ele>382.7</ele>
        <time>2014-11-23T08:19:59.000Z</time>
      </trkpt>
      <trkpt lat="47.4998" lon="6.75749">
        <ele>382.2</ele>
        <time>2014-11-23T08:20:00.000Z</time>
      </trkpt>
      <trkpt lat="47.49978" lon="6.75742">
        <ele>380.8</ele>
        <time>2014-11-23T08:20:01.000Z</time>
      </trkpt>
      <trkpt lat="47.49974" lon="6.75734">
        <ele>379.5</ele>
        <time>2014-11-23T08:20:02.000Z</time>
      </trkpt>
      <trkpt lat="47.49966" lon="6.7573">
        <ele>378.1</ele>
        <time>2014-11-23T08:20:03.000Z</time>
      </trkpt>
      <trkpt lat="47.49954" lon="6.75726">
        <ele>375.5</ele>
        <time>2014-11-23T08:20:04.000Z</time>
      </trkpt>
      <trkpt lat="47.49945" lon="6.75723">
        <ele>375</ele>
        <time>2014-11-23T08:20:05.000Z</time>
      </trkpt>
      <trkpt lat="47.49938" lon="6.75719">
        <ele>375.6</ele>
        <time>2014-11-23T08:20:06.000Z</time>
      </trkpt>
      <trkpt lat="47.49934" lon="6.75718">
        <ele>375.4</ele>
        <time>2014-11-23T08:20:07.000Z</time>
      </trkpt>
      <trkpt lat="47.49927" lon="6.75716">
        <ele>376</ele>
        <time>2014-11-23T08:20:08.000Z</time>
      </trkpt>
      <trkpt lat="47.49923" lon="6.75716">
        <ele>375.9</ele>
        <time>2014-11-23T08:20:09.000Z</time>
      </trkpt>
      <trkpt lat="47.49917" lon="6.75714">
        <ele>376.3</ele>
        <time>2014-11-23T08:20:10.000Z</time>
      </trkpt>
      <trkpt lat="47.499" lon="6.75709">
        <ele>376.3</ele>
        <time>2014-11-23T08:20:11.000Z</time>
      </trkpt>
      <trkpt lat="47.49893" lon="6.75711">
        <ele>375.8</ele>
        <time>2014-11-23T08:20:12.000Z</time>
      </trkpt>
      <trkpt lat="47.49885" lon="6.7571">
        <ele>375.5</ele>
        <time>2014-11-23T08:20:13.000Z</time>
      </trkpt>
      <trkpt lat="47.49878" lon="6.7571">
        <ele>375.4</ele>
        <time>2014-11-23T08:20:14.000Z</time>
      </trkpt>
      <trkpt lat="47.4987" lon="6.75711">
        <ele>374.4</ele>
        <time>2014-11-23T08:20:15.000Z</time>
      </trkpt>
      <trkpt lat="47.49863" lon="6.75712">
        <ele>374.3</ele>
        <time>2014-11-23T08:20:16.000Z</time>
      </trkpt>
      <trkpt lat="47.49857" lon="6.75713">
        <ele>373.5</ele>
        <time>2014-11-23T08:20:17.000Z</time>
      </trkpt>
      <trkpt lat="47.4985" lon="6.75715">
        <ele>372.6</ele>
        <time>2014-11-23T08:20:18.000Z</time>
      </trkpt>
      <trkpt lat="47.49843" lon="6.75717">
        <ele>372.2</ele>
        <time>2014-11-23T08:20:19.000Z</time>
      </trkpt>
      <trkpt lat="47.49835" lon="6.75717">
        <ele>371.4</ele>
        <time>2014-11-23T08:20:20.000Z</time>
      </trkpt>
      <trkpt lat="47.49824" lon="6.75719">
        <ele>370</ele>
        <time>2014-11-23T08:20:21.000Z</time>
      </trkpt>
      <trkpt lat="47.4981" lon="6.75719">
        <ele>370.5</ele>
        <time>2014-11-23T08:20:22.000Z</time>
      </trkpt>
      <trkpt lat="47.498" lon="6.75721">
        <ele>370.5</ele>
        <time>2014-11-23T08:20:23.000Z</time>
      </trkpt>
      <trkpt lat="47.49791" lon="6.75724">
        <ele>369.6</ele>
        <time>2014-11-23T08:20:24.000Z</time>
      </trkpt>
      <trkpt lat="47.49782" lon="6.75727">
        <ele>369.4</ele>
        <time>2014-11-23T08:20:25.000Z</time>
      </trkpt>
      <trkpt lat="47.49773" lon="6.75731">
        <ele>368.8</ele>
        <time>2014-11-23T08:20:26.000Z</time>
      </trkpt>
      <trkpt lat="47.49763" lon="6.75735">
        <ele>367.4</ele>
        <time>2014-11-23T08:20:27.000Z</time>
      </trkpt>
      <trkpt lat="47.49754" lon="6.75737">
        <ele>365.1</ele>
        <time>2014-11-23T08:20:28.000Z</time>
      </trkpt>
      <trkpt lat="47.4974" lon="6.75742">
        <ele>365.1</ele>
        <time>2014-11-23T08:20:31.000Z</time>
      </trkpt>
      <trkpt lat="47.49729" lon="6.75741">
        <ele>365.5</ele>
        <time>2014-11-23T08:20:32.000Z</time>
      </trkpt>
      <trkpt lat="47.49721" lon="6.75745">
        <ele>364.4</ele>
        <time>2014-11-23T08:20:33.000Z</time>
      </trkpt>
      <trkpt lat="47.49714" lon="6.75746">
        <ele>363.9</ele>
        <time>2014-11-23T08:20:34.000Z</time>
      </trkpt>
      <trkpt lat="47.49709" lon="6.75746">
        <ele>364.7</ele>
        <time>2014-11-23T08:20:35.000Z</time>
      </trkpt>
      <trkpt lat="47.49701" lon="6.75747">
        <ele>365.1</ele>
        <time>2014-11-23T08:20:36.000Z</time>
      </trkpt>
      <trkpt lat="47.49694" lon="6.75749">
        <ele>365.5</ele>
        <time>2014-11-23T08:20:37.000Z</time>
      </trkpt>
      <trkpt lat="47.49686" lon="6.75749">
        <ele>365</ele>
        <time>2014-11-23T08:20:38.000Z</time>
      </trkpt>
      <trkpt lat="47.49678" lon="6.75748">
        <ele>364.8</ele>
        <time>2014-11-23T08:20:39.000Z</time>
      </trkpt>
      <trkpt lat="47.49671" lon="6.75748">
        <ele>364.5</ele>
        <time>2014-11-23T08:20:40.000Z</time>
      </trkpt>
      <trkpt lat="47.49666" lon="6.75748">
        <ele>364.5</ele>
        <time>2014-11-23T08:20:41.000Z</time>
      </trkpt>
      <trkpt lat="47.4966" lon="6.7575">
        <ele>363.4</ele>
        <time>2014-11-23T08:20:42.000Z</time>
      </trkpt>
      <trkpt lat="47.49655" lon="6.7575">
        <ele>363.5</ele>
        <time>2014-11-23T08:20:43.000Z</time>
      </trkpt>
      <trkpt lat="47.49651" lon="6.7575">
        <ele>362.7</ele>
        <time>2014-11-23T08:20:44.000Z</time>
      </trkpt>
      <trkpt lat="47.49646" lon="6.7575">
        <ele>361.8</ele>
        <time>2014-11-23T08:20:45.000Z</time>
      </trkpt>
      <trkpt lat="47.49642" lon="6.7575">
        <ele>361.1</ele>
        <time>2014-11-23T08:20:46.000Z</time>
      </trkpt>
      <trkpt lat="47.49637" lon="6.7575">
        <ele>361.4</ele>
        <time>2014-11-23T08:20:47.000Z</time>
      </trkpt>
      <trkpt lat="47.49632" lon="6.7575">
        <ele>360.5</ele>
        <time>2014-11-23T08:20:48.000Z</time>
      </trkpt>
      <trkpt lat="47.49627" lon="6.7575">
        <ele>359.7</ele>
        <time>2014-11-23T08:20:49.000Z</time>
      </trkpt>
      <trkpt lat="47.49606" lon="6.75748">
        <ele>360.2</ele>
        <time>2014-11-23T08:20:50.000Z</time>
      </trkpt>
      <trkpt lat="47.49597" lon="6.75747">
        <ele>358.1</ele>
        <time>2014-11-23T08:20:51.000Z</time>
      </trkpt>
      <trkpt lat="47.49589" lon="6.75747">
        <ele>357.8</ele>
        <time>2014-11-23T08:20:52.000Z</time>
      </trkpt>
      <trkpt lat="47.49585" lon="6.75744">
        <ele>355.8</ele>
        <time>2014-11-23T08:20:53.000Z</time>
      </trkpt>
      <trkpt lat="47.4958" lon="6.75742">
        <ele>353.3</ele>
        <time>2014-11-23T08:20:54.000Z</time>
      </trkpt>
      <trkpt lat="47.49578" lon="6.75738">
        <ele>352.7</ele>
        <time>2014-11-23T08:20:55.000Z</time>
      </trkpt>
      <trkpt lat="47.49574" lon="6.75735">
        <ele>353.5</ele>
        <time>2014-11-23T08:20:56.000Z</time>
      </trkpt>
      <trkpt lat="47.49571" lon="6.75737">
        <ele>350.7</ele>
        <time>2014-11-23T08:20:58.000Z</time>
      </trkpt>
      <trkpt lat="47.4957" lon="6.7574">
        <ele>350.2</ele>
        <time>2014-11-23T08:20:59.000Z</time>
      </trkpt>
      <trkpt lat="47.49575" lon="6.75739">
        <ele>344.8</ele>
        <time>2014-11-23T08:21:02.000Z</time>
      </trkpt>
      <trkpt lat="47.49577" lon="6.75736">
        <ele>346.1</ele>
        <time>2014-11-23T08:21:03.000Z</time>
      </trkpt>
      <trkpt lat="47.49579" lon="6.75735">
        <ele>345.6</ele>
        <time>2014-11-23T08:21:04.000Z</time>
      </trkpt>
      <trkpt lat="47.49581" lon="6.75732">
        <ele>344.4</ele>
        <time>2014-11-23T08:21:05.000Z</time>
      </trkpt>
      <trkpt lat="47.49584" lon="6.75729">
        <ele>344.4</ele>
        <time>2014-11-23T08:21:06.000Z</time>
      </trkpt>
      <trkpt lat="47.49587" lon="6.75727">
        <ele>342.6</ele>
        <time>2014-11-23T08:21:07.000Z</time>
      </trkpt>
      <trkpt lat="47.4959" lon="6.75724">
        <ele>340.2</ele>
        <time>2014-11-23T08:21:08.000Z</time>
      </trkpt>
      <trkpt lat="47.49593" lon="6.75721">
        <ele>341.2</ele>
        <time>2014-11-23T08:21:09.000Z</time>
      </trkpt>
      <trkpt lat="47.49595" lon="6.75717">
        <ele>340.8</ele>
        <time>2014-11-23T08:21:10.000Z</time>
      </trkpt>
      <trkpt lat="47.49597" lon="6.75713">
        <ele>342.2</ele>
        <time>2014-11-23T08:21:11.000Z</time>
      </trkpt>
      <trkpt lat="47.49598" lon="6.75704">
        <ele>344.2</ele>
        <time>2014-11-23T08:21:12.000Z</time>
      </trkpt>
      <trkpt lat="47.49597" lon="6.75695">
        <ele>343</ele>
        <time>2014-11-23T08:21:13.000Z</time>
      </trkpt>
      <trkpt lat="47.49595" lon="6.75687">
        <ele>339.4</ele>
        <time>2014-11-23T08:21:14.000Z</time>
      </trkpt>
      <trkpt lat="47.49591" lon="6.75681">
        <ele>338.2</ele>
        <time>2014-11-23T08:21:15.000Z</time>
      </trkpt>
      <trkpt lat="47.49587" lon="6.75674">
        <ele>336.9</ele>
        <time>2014-11-23T08:21:16.000Z</time>
      </trkpt>
      <trkpt lat="47.49584" lon="6.75667">
        <ele>336.3</ele>
        <time>2014-11-23T08:21:17.000Z</time>
      </trkpt>
      <trkpt lat="47.49578" lon="6.75666">
        <ele>336.4</ele>
        <time>2014-11-23T08:21:18.000Z</time>
      </trkpt>
      <trkpt lat="47.49573" lon="6.75667">
        <ele>336.6</ele>
        <time>2014-11-23T08:21:19.000Z</time>
      </trkpt>
      <trkpt lat="47.49568" lon="6.75671">
        <ele>336.1</ele>
        <time>2014-11-23T08:21:20.000Z</time>
      </trkpt>
      <trkpt lat="47.49564" lon="6.75677">
        <ele>335.4</ele>
        <time>2014-11-23T08:21:21.000Z</time>
      </trkpt>
      <trkpt lat="47.4956" lon="6.75682">
        <ele>336.3</ele>
        <time>2014-11-23T08:21:22.000Z</time>
      </trkpt>
      <trkpt lat="47.49556" lon="6.75688">
        <ele>336.2</ele>
        <time>2014-11-23T08:21:23.000Z</time>
      </trkpt>
      <trkpt lat="47.4955" lon="6.75691">
        <ele>337.2</ele>
        <time>2014-11-23T08:21:24.000Z</time>
      </trkpt>
      <trkpt lat="47.49545" lon="6.75695">
        <ele>336.6</ele>
        <time>2014-11-23T08:21:25.000Z</time>
      </trkpt>
      <trkpt lat="47.49541" lon="6.757">
        <ele>336</ele>
        <time>2014-11-23T08:21:26.000Z</time>
      </trkpt>
      <trkpt lat="47.49536" lon="6.75703">
        <ele>335.8</ele>
        <time>2014-11-23T08:21:27.000Z</time>
      </trkpt>
      <trkpt lat="47.49532" lon="6.75707">
        <ele>335.3</ele>
        <time>2014-11-23T08:21:28.000Z</time>
      </trkpt>
      <trkpt lat="47.49522" lon="6.75716">
        <ele>336.4</ele>
        <time>2014-11-23T08:21:31.000Z</time>
      </trkpt>
      <trkpt lat="47.49517" lon="6.75719">
        <ele>336.1</ele>
        <time>2014-11-23T08:21:32.000Z</time>
      </trkpt>
      <trkpt lat="47.49513" lon="6.75721">
        <ele>336.1</ele>
        <time>2014-11-23T08:21:33.000Z</time>
      </trkpt>
      <trkpt lat="47.49508" lon="6.75724">
        <ele>335.9</ele>
        <time>2014-11-23T08:21:34.000Z</time>
      </trkpt>
      <trkpt lat="47.49504" lon="6.75726">
        <ele>335.5</ele>
        <time>2014-11-23T08:21:35.000Z</time>
      </trkpt>
      <trkpt lat="47.495" lon="6.75727">
        <ele>335.9</ele>
        <time>2014-11-23T08:21:36.000Z</time>
      </trkpt>
      <trkpt lat="47.49496" lon="6.75727">
        <ele>335.6</ele>
        <time>2014-11-23T08:21:37.000Z</time>
      </trkpt>
      <trkpt lat="47.49492" lon="6.75728">
        <ele>335.2</ele>
        <time>2014-11-23T08:21:38.000Z</time>
      </trkpt>
      <trkpt lat="47.49487" lon="6.75722">
        <ele>335.6</ele>
        <time>2014-11-23T08:21:39.000Z</time>
      </trkpt>
      <trkpt lat="47.49484" lon="6.75717">
        <ele>336.1</ele>
        <time>2014-11-23T08:21:40.000Z</time>
      </trkpt>
      <trkpt lat="47.49482" lon="6.75711">
        <ele>335.1</ele>
        <time>2014-11-23T08:21:41.000Z</time>
      </trkpt>
      <trkpt lat="47.4948" lon="6.75707">
        <ele>334.2</ele>
        <time>2014-11-23T08:21:42.000Z</time>
      </trkpt>
      <trkpt lat="47.49477" lon="6.75703">
        <ele>333.3</ele>
        <time>2014-11-23T08:21:43.000Z</time>
      </trkpt>
      <trkpt lat="47.49475" lon="6.75698">
        <ele>332.8</ele>
        <time>2014-11-23T08:21:44.000Z</time>
      </trkpt>
      <trkpt lat="47.49472" lon="6.75693">
        <ele>332.5</ele>
        <time>2014-11-23T08:21:45.000Z</time>
      </trkpt>
      <trkpt lat="47.49468" lon="6.75689">
        <ele>332.4</ele>
        <time>2014-11-23T08:21:46.000Z</time>
      </trkpt>
      <trkpt lat="47.49464" lon="6.75689">
        <ele>332.1</ele>
        <time>2014-11-23T08:21:47.000Z</time>
      </trkpt>
      <trkpt lat="47.4946" lon="6.75689">
        <ele>331.4</ele>
        <time>2014-11-23T08:21:48.000Z</time>
      </trkpt>
      <trkpt lat="47.49456" lon="6.7569">
        <ele>331.4</ele>
        <time>2014-11-23T08:21:49.000Z</time>
      </trkpt>
      <trkpt lat="47.49453" lon="6.75691">
        <ele>331.2</ele>
        <time>2014-11-23T08:21:50.000Z</time>
      </trkpt>
      <trkpt lat="47.4945" lon="6.75689">
        <ele>330.9</ele>
        <time>2014-11-23T08:21:51.000Z</time>
      </trkpt>
      <trkpt lat="47.4945" lon="6.75678">
        <ele>332.3</ele>
        <time>2014-11-23T08:21:52.000Z</time>
      </trkpt>
      <trkpt lat="47.49449" lon="6.75674">
        <ele>332.3</ele>
        <time>2014-11-23T08:21:53.000Z</time>
      </trkpt>
      <trkpt lat="47.49446" lon="6.75668">
        <ele>332</ele>
        <time>2014-11-23T08:21:54.000Z</time>
      </trkpt>
      <trkpt lat="47.49444" lon="6.75664">
        <ele>331.9</ele>
        <time>2014-11-23T08:21:55.000Z</time>
      </trkpt>
      <trkpt lat="47.49442" lon="6.7566">
        <ele>331.4</ele>
        <time>2014-11-23T08:21:56.000Z</time>
      </trkpt>
      <trkpt lat="47.49433" lon="6.75668">
        <ele>330</ele>
        <time>2014-11-23T08:21:57.000Z</time>
      </trkpt>
      <trkpt lat="47.49428" lon="6.75669">
        <ele>329.9</ele>
        <time>2014-11-23T08:21:58.000Z</time>
      </trkpt>
      <trkpt lat="47.49423" lon="6.75671">
        <ele>329.7</ele>
        <time>2014-11-23T08:21:59.000Z</time>
      </trkpt>
      <trkpt lat="47.49419" lon="6.75672">
        <ele>329.3</ele>
        <time>2014-11-23T08:22:00.000Z</time>
      </trkpt>
      <trkpt lat="47.49415" lon="6.75674">
        <ele>332</ele>
        <time>2014-11-23T08:22:01.000Z</time>
      </trkpt>
      <trkpt lat="47.49411" lon="6.75675">
        <ele>333.1</ele>
        <time>2014-11-23T08:22:02.000Z</time>
      </trkpt>
      <trkpt lat="47.49404" lon="6.75679">
        <ele>331.7</ele>
        <time>2014-11-23T08:22:03.000Z</time>
      </trkpt>
      <trkpt lat="47.49399" lon="6.75682">
        <ele>331.2</ele>
        <time>2014-11-23T08:22:04.000Z</time>
      </trkpt>
      <trkpt lat="47.49394" lon="6.75685">
        <ele>331.2</ele>
        <time>2014-11-23T08:22:05.000Z</time>
      </trkpt>
      <trkpt lat="47.4939" lon="6.75688">
        <ele>330.6</ele>
        <time>2014-11-23T08:22:06.000Z</time>
      </trkpt>
      <trkpt lat="47.49386" lon="6.7569">
        <ele>330.3</ele>
        <time>2014-11-23T08:22:07.000Z</time>
      </trkpt>
      <trkpt lat="47.49383" lon="6.75691">
        <ele>330.3</ele>
        <time>2014-11-23T08:22:08.000Z</time>
      </trkpt>
      <trkpt lat="47.49379" lon="6.75693">
        <ele>330.1</ele>
        <time>2014-11-23T08:22:09.000Z</time>
      </trkpt>
      <trkpt lat="47.49376" lon="6.75696">
        <ele>330.2</ele>
        <time>2014-11-23T08:22:10.000Z</time>
      </trkpt>
      <trkpt lat="47.49372" lon="6.75697">
        <ele>331.5</ele>
        <time>2014-11-23T08:22:11.000Z</time>
      </trkpt>
      <trkpt lat="47.49369" lon="6.75699">
        <ele>331.9</ele>
        <time>2014-11-23T08:22:13.000Z</time>
      </trkpt>
      <trkpt lat="47.49367" lon="6.75699">
        <ele>332.2</ele>
        <time>2014-11-23T08:22:14.000Z</time>
      </trkpt>
      <trkpt lat="47.49363" lon="6.75701">
        <ele>332.5</ele>
        <time>2014-11-23T08:22:16.000Z</time>
      </trkpt>
      <trkpt lat="47.49361" lon="6.75702">
        <ele>332.5</ele>
        <time>2014-11-23T08:22:17.000Z</time>
      </trkpt>
      <trkpt lat="47.49359" lon="6.75703">
        <ele>331.9</ele>
        <time>2014-11-23T08:22:18.000Z</time>
      </trkpt>
      <trkpt lat="47.49355" lon="6.75705">
        <ele>333.9</ele>
        <time>2014-11-23T08:22:19.000Z</time>
      </trkpt>
      <trkpt lat="47.49351" lon="6.75707">
        <ele>335</ele>
        <time>2014-11-23T08:22:20.000Z</time>
      </trkpt>
      <trkpt lat="47.49347" lon="6.75709">
        <ele>335.4</ele>
        <time>2014-11-23T08:22:21.000Z</time>
      </trkpt>
      <trkpt lat="47.49343" lon="6.75712">
        <ele>335.5</ele>
        <time>2014-11-23T08:22:22.000Z</time>
      </trkpt>
      <trkpt lat="47.49339" lon="6.75714">
        <ele>335.4</ele>
        <time>2014-11-23T08:22:23.000Z</time>
      </trkpt>
      <trkpt lat="47.49336" lon="6.75716">
        <ele>335.7</ele>
        <time>2014-11-23T08:22:24.000Z</time>
      </trkpt>
      <trkpt lat="47.49332" lon="6.75718">
        <ele>335.6</ele>
        <time>2014-11-23T08:22:25.000Z</time>
      </trkpt>
      <trkpt lat="47.49328" lon="6.75721">
        <ele>335.7</ele>
        <time>2014-11-23T08:22:26.000Z</time>
      </trkpt>
      <trkpt lat="47.49324" lon="6.75724">
        <ele>335.4</ele>
        <time>2014-11-23T08:22:27.000Z</time>
      </trkpt>
      <trkpt lat="47.4932" lon="6.75728">
        <ele>335.2</ele>
        <time>2014-11-23T08:22:28.000Z</time>
      </trkpt>
      <trkpt lat="47.49311" lon="6.75736">
        <ele>336.5</ele>
        <time>2014-11-23T08:22:31.000Z</time>
      </trkpt>
      <trkpt lat="47.49308" lon="6.7574">
        <ele>336.1</ele>
        <time>2014-11-23T08:22:32.000Z</time>
      </trkpt>
      <trkpt lat="47.49304" lon="6.75743">
        <ele>335.9</ele>
        <time>2014-11-23T08:22:33.000Z</time>
      </trkpt>
      <trkpt lat="47.493" lon="6.75747">
        <ele>335.9</ele>
        <time>2014-11-23T08:22:34.000Z</time>
      </trkpt>
      <trkpt lat="47.49289" lon="6.75758">
        <ele>335.6</ele>
        <time>2014-11-23T08:22:35.000Z</time>
      </trkpt>
      <trkpt lat="47.49283" lon="6.75763">
        <ele>335.2</ele>
        <time>2014-11-23T08:22:36.000Z</time>
      </trkpt>
      <trkpt lat="47.49277" lon="6.75771">
        <ele>334.3</ele>
        <time>2014-11-23T08:22:37.000Z</time>
      </trkpt>
      <trkpt lat="47.49271" lon="6.75776">
        <ele>334.3</ele>
        <time>2014-11-23T08:22:38.000Z</time>
      </trkpt>
      <trkpt lat="47.49267" lon="6.75782">
        <ele>333.9</ele>
        <time>2014-11-23T08:22:39.000Z</time>
      </trkpt>
      <trkpt lat="47.49262" lon="6.75788">
        <ele>334.3</ele>
        <time>2014-11-23T08:22:40.000Z</time>
      </trkpt>
      <trkpt lat="47.49257" lon="6.75792">
        <ele>334.4</ele>
        <time>2014-11-23T08:22:41.000Z</time>
      </trkpt>
      <trkpt lat="47.49253" lon="6.75797">
        <ele>334.7</ele>
        <time>2014-11-23T08:22:42.000Z</time>
      </trkpt>
      <trkpt lat="47.49251" lon="6.75801">
        <ele>335.3</ele>
        <time>2014-11-23T08:22:43.000Z</time>
      </trkpt>
      <trkpt lat="47.49248" lon="6.75808">
        <ele>336.5</ele>
        <time>2014-11-23T08:22:44.000Z</time>
      </trkpt>
      <trkpt lat="47.49242" lon="6.75814">
        <ele>336.6</ele>
        <time>2014-11-23T08:22:45.000Z</time>
      </trkpt>
      <trkpt lat="47.49239" lon="6.7582">
        <ele>336.9</ele>
        <time>2014-11-23T08:22:46.000Z</time>
      </trkpt>
      <trkpt lat="47.49238" lon="6.75825">
        <ele>341.3</ele>
        <time>2014-11-23T08:22:47.000Z</time>
      </trkpt>
      <trkpt lat="47.49233" lon="6.75832">
        <ele>342.4</ele>
        <time>2014-11-23T08:22:48.000Z</time>
      </trkpt>
      <trkpt lat="47.4923" lon="6.75835">
        <ele>343.3</ele>
        <time>2014-11-23T08:22:49.000Z</time>
      </trkpt>
      <trkpt lat="47.49229" lon="6.75841">
        <ele>343.4</ele>
        <time>2014-11-23T08:22:50.000Z</time>
      </trkpt>
      <trkpt lat="47.49227" lon="6.75845">
        <ele>343.1</ele>
        <time>2014-11-23T08:22:51.000Z</time>
      </trkpt>
      <trkpt lat="47.49225" lon="6.75848">
        <ele>342.8</ele>
        <time>2014-11-23T08:22:52.000Z</time>
      </trkpt>
      <trkpt lat="47.49224" lon="6.75851">
        <ele>343.1</ele>
        <time>2014-11-23T08:22:53.000Z</time>
      </trkpt>
      <trkpt lat="47.49222" lon="6.75854">
        <ele>342.6</ele>
        <time>2014-11-23T08:22:54.000Z</time>
      </trkpt>
      <trkpt lat="47.4922" lon="6.75858">
        <ele>343.8</ele>
        <time>2014-11-23T08:22:55.000Z</time>
      </trkpt>
      <trkpt lat="47.49217" lon="6.75861">
        <ele>343.7</ele>
        <time>2014-11-23T08:22:56.000Z</time>
      </trkpt>
      <trkpt lat="47.49214" lon="6.75864">
        <ele>344.6</ele>
        <time>2014-11-23T08:22:57.000Z</time>
      </trkpt>
      <trkpt lat="47.4921" lon="6.75867">
        <ele>345.3</ele>
        <time>2014-11-23T08:22:58.000Z</time>
      </trkpt>
      <trkpt lat="47.49205" lon="6.75871">
        <ele>345.5</ele>
        <time>2014-11-23T08:22:59.000Z</time>
      </trkpt>
      <trkpt lat="47.49201" lon="6.75876">
        <ele>345.9</ele>
        <time>2014-11-23T08:23:00.000Z</time>
      </trkpt>
      <trkpt lat="47.49198" lon="6.75881">
        <ele>345.9</ele>
        <time>2014-11-23T08:23:01.000Z</time>
      </trkpt>
      <trkpt lat="47.49195" lon="6.75887">
        <ele>344.4</ele>
        <time>2014-11-23T08:23:02.000Z</time>
      </trkpt>
      <trkpt lat="47.49192" lon="6.75894">
        <ele>342.7</ele>
        <time>2014-11-23T08:23:03.000Z</time>
      </trkpt>
      <trkpt lat="47.49188" lon="6.75901">
        <ele>342.1</ele>
        <time>2014-11-23T08:23:04.000Z</time>
      </trkpt>
      <trkpt lat="47.49184" lon="6.75909">
        <ele>341.6</ele>
        <time>2014-11-23T08:23:05.000Z</time>
      </trkpt>
      <trkpt lat="47.4918" lon="6.75918">
        <ele>339.4</ele>
        <time>2014-11-23T08:23:06.000Z</time>
      </trkpt>
      <trkpt lat="47.49172" lon="6.75949">
        <ele>337.7</ele>
        <time>2014-11-23T08:23:07.000Z</time>
      </trkpt>
      <trkpt lat="47.49166" lon="6.75962">
        <ele>337.2</ele>
        <time>2014-11-23T08:23:08.000Z</time>
      </trkpt>
      <trkpt lat="47.49162" lon="6.75976">
        <ele>332.9</ele>
        <time>2014-11-23T08:23:09.000Z</time>
      </trkpt>
      <trkpt lat="47.49158" lon="6.75984">
        <ele>332.2</ele>
        <time>2014-11-23T08:23:10.000Z</time>
      </trkpt>
      <trkpt lat="47.49152" lon="6.75993">
        <ele>331.4</ele>
        <time>2014-11-23T08:23:11.000Z</time>
      </trkpt>
      <trkpt lat="47.49149" lon="6.76004">
        <ele>332.7</ele>
        <time>2014-11-23T08:23:12.000Z</time>
      </trkpt>
      <trkpt lat="47.49146" lon="6.76014">
        <ele>331.9</ele>
        <time>2014-11-23T08:23:13.000Z</time>
      </trkpt>
      <trkpt lat="47.49142" lon="6.76021">
        <ele>331.7</ele>
        <time>2014-11-23T08:23:14.000Z</time>
      </trkpt>
      <trkpt lat="47.49138" lon="6.7603">
        <ele>331.4</ele>
        <time>2014-11-23T08:23:15.000Z</time>
      </trkpt>
      <trkpt lat="47.49133" lon="6.76039">
        <ele>331.2</ele>
        <time>2014-11-23T08:23:16.000Z</time>
      </trkpt>
      <trkpt lat="47.4913" lon="6.76049">
        <ele>330.8</ele>
        <time>2014-11-23T08:23:17.000Z</time>
      </trkpt>
      <trkpt lat="47.49128" lon="6.76058">
        <ele>333.5</ele>
        <time>2014-11-23T08:23:18.000Z</time>
      </trkpt>
      <trkpt lat="47.49125" lon="6.76068">
        <ele>334.7</ele>
        <time>2014-11-23T08:23:19.000Z</time>
      </trkpt>
      <trkpt lat="47.49122" lon="6.76077">
        <ele>334.4</ele>
        <time>2014-11-23T08:23:20.000Z</time>
      </trkpt>
      <trkpt lat="47.49119" lon="6.76086">
        <ele>334.2</ele>
        <time>2014-11-23T08:23:21.000Z</time>
      </trkpt>
      <trkpt lat="47.49117" lon="6.76094">
        <ele>332.9</ele>
        <time>2014-11-23T08:23:22.000Z</time>
      </trkpt>
      <trkpt lat="47.49115" lon="6.76105">
        <ele>331.1</ele>
        <time>2014-11-23T08:23:23.000Z</time>
      </trkpt>
      <trkpt lat="47.49112" lon="6.76115">
        <ele>330.4</ele>
        <time>2014-11-23T08:23:24.000Z</time>
      </trkpt>
      <trkpt lat="47.4911" lon="6.76124">
        <ele>330.4</ele>
        <time>2014-11-23T08:23:25.000Z</time>
      </trkpt>
      <trkpt lat="47.4911" lon="6.76134">
        <ele>329.8</ele>
        <time>2014-11-23T08:23:26.000Z</time>
      </trkpt>
      <trkpt lat="47.49108" lon="6.76146">
        <ele>328.4</ele>
        <time>2014-11-23T08:23:27.000Z</time>
      </trkpt>
      <trkpt lat="47.49109" lon="6.76153">
        <ele>334.2</ele>
        <time>2014-11-23T08:23:28.000Z</time>
      </trkpt>
      <trkpt lat="47.49108" lon="6.76192">
        <ele>336.9</ele>
        <time>2014-11-23T08:23:35.000Z</time>
      </trkpt>
      <trkpt lat="47.49104" lon="6.76203">
        <ele>335.7</ele>
        <time>2014-11-23T08:23:36.000Z</time>
      </trkpt>
      <trkpt lat="47.49103" lon="6.76212">
        <ele>335.3</ele>
        <time>2014-11-23T08:23:37.000Z</time>
      </trkpt>
      <trkpt lat="47.49104" lon="6.76228">
        <ele>334.8</ele>
        <time>2014-11-23T08:23:38.000Z</time>
      </trkpt>
      <trkpt lat="47.49105" lon="6.76244">
        <ele>333.3</ele>
        <time>2014-11-23T08:23:39.000Z</time>
      </trkpt>
      <trkpt lat="47.49105" lon="6.76256">
        <ele>333.1</ele>
        <time>2014-11-23T08:23:40.000Z</time>
      </trkpt>
      <trkpt lat="47.49104" lon="6.76264">
        <ele>332.9</ele>
        <time>2014-11-23T08:23:41.000Z</time>
      </trkpt>
      <trkpt lat="47.49102" lon="6.76271">
        <ele>331.4</ele>
        <time>2014-11-23T08:23:42.000Z</time>
      </trkpt>
      <trkpt lat="47.491" lon="6.76277">
        <ele>330.6</ele>
        <time>2014-11-23T08:23:43.000Z</time>
      </trkpt>
      <trkpt lat="47.49099" lon="6.76283">
        <ele>331</ele>
        <time>2014-11-23T08:23:44.000Z</time>
      </trkpt>
      <trkpt lat="47.49096" lon="6.76289">
        <ele>330.9</ele>
        <time>2014-11-23T08:23:45.000Z</time>
      </trkpt>
      <trkpt lat="47.49094" lon="6.76295">
        <ele>331.3</ele>
        <time>2014-11-23T08:23:46.000Z</time>
      </trkpt>
      <trkpt lat="47.49092" lon="6.76303">
        <ele>331</ele>
        <time>2014-11-23T08:23:47.000Z</time>
      </trkpt>
      <trkpt lat="47.49092" lon="6.76311">
        <ele>329.9</ele>
        <time>2014-11-23T08:23:48.000Z</time>
      </trkpt>
      <trkpt lat="47.49098" lon="6.7634">
        <ele>330</ele>
        <time>2014-11-23T08:23:49.000Z</time>
      </trkpt>
      <trkpt lat="47.49098" lon="6.76354">
        <ele>329.2</ele>
        <time>2014-11-23T08:23:50.000Z</time>
      </trkpt>
      <trkpt lat="47.49097" lon="6.76362">
        <ele>329.9</ele>
        <time>2014-11-23T08:23:51.000Z</time>
      </trkpt>
      <trkpt lat="47.49097" lon="6.7637">
        <ele>329.8</ele>
        <time>2014-11-23T08:23:52.000Z</time>
      </trkpt>
      <trkpt lat="47.49096" lon="6.76377">
        <ele>330.1</ele>
        <time>2014-11-23T08:23:53.000Z</time>
      </trkpt>
      <trkpt lat="47.49096" lon="6.76386">
        <ele>330.4</ele>
        <time>2014-11-23T08:23:54.000Z</time>
      </trkpt>
      <trkpt lat="47.49095" lon="6.76392">
        <ele>331.7</ele>
        <time>2014-11-23T08:23:55.000Z</time>
      </trkpt>
      <trkpt lat="47.49095" lon="6.76397">
        <ele>330.7</ele>
        <time>2014-11-23T08:23:56.000Z</time>
      </trkpt>
      <trkpt lat="47.49094" lon="6.76405">
        <ele>330.4</ele>
        <time>2014-11-23T08:23:57.000Z</time>
      </trkpt>
      <trkpt lat="47.49093" lon="6.76416">
        <ele>330.4</ele>
        <time>2014-11-23T08:23:58.000Z</time>
      </trkpt>
      <trkpt lat="47.49093" lon="6.76429">
        <ele>334.2</ele>
        <time>2014-11-23T08:23:59.000Z</time>
      </trkpt>
      <trkpt lat="47.49093" lon="6.76445">
        <ele>334.4</ele>
        <time>2014-11-23T08:24:00.000Z</time>
      </trkpt>
      <trkpt lat="47.49095" lon="6.76459">
        <ele>332.4</ele>
        <time>2014-11-23T08:24:01.000Z</time>
      </trkpt>
      <trkpt lat="47.49097" lon="6.76469">
        <ele>333</ele>
        <time>2014-11-23T08:24:02.000Z</time>
      </trkpt>
      <trkpt lat="47.49111" lon="6.76477">
        <ele>332.8</ele>
        <time>2014-11-23T08:24:03.000Z</time>
      </trkpt>
      <trkpt lat="47.49128" lon="6.7649">
        <ele>331.2</ele>
        <time>2014-11-23T08:24:04.000Z</time>
      </trkpt>
      <trkpt lat="47.49139" lon="6.76494">
        <ele>330.6</ele>
        <time>2014-11-23T08:24:05.000Z</time>
      </trkpt>
      <trkpt lat="47.49149" lon="6.76492">
        <ele>329.3</ele>
        <time>2014-11-23T08:24:06.000Z</time>
      </trkpt>
      <trkpt lat="47.49157" lon="6.76488">
        <ele>328.3</ele>
        <time>2014-11-23T08:24:07.000Z</time>
      </trkpt>
      <trkpt lat="47.49161" lon="6.76488">
        <ele>328.4</ele>
        <time>2014-11-23T08:24:08.000Z</time>
      </trkpt>
      <trkpt lat="47.49166" lon="6.76486">
        <ele>327.5</ele>
        <time>2014-11-23T08:24:09.000Z</time>
      </trkpt>
      <trkpt lat="47.4917" lon="6.76489">
        <ele>326.5</ele>
        <time>2014-11-23T08:24:10.000Z</time>
      </trkpt>
      <trkpt lat="47.49173" lon="6.76487">
        <ele>324</ele>
        <time>2014-11-23T08:24:11.000Z</time>
      </trkpt>
      <trkpt lat="47.49176" lon="6.76482">
        <ele>323.2</ele>
        <time>2014-11-23T08:24:12.000Z</time>
      </trkpt>
      <trkpt lat="47.49176" lon="6.76478">
        <ele>321.7</ele>
        <time>2014-11-23T08:24:13.000Z</time>
      </trkpt>
      <trkpt lat="47.49173" lon="6.76478">
        <ele>321.6</ele>
        <time>2014-11-23T08:24:14.000Z</time>
      </trkpt>
      <trkpt lat="47.4917" lon="6.76479">
        <ele>321.5</ele>
        <time>2014-11-23T08:24:15.000Z</time>
      </trkpt>
      <trkpt lat="47.49166" lon="6.76478">
        <ele>320.7</ele>
        <time>2014-11-23T08:24:16.000Z</time>
      </trkpt>
      <trkpt lat="47.49163" lon="6.76477">
        <ele>320.7</ele>
        <time>2014-11-23T08:24:17.000Z</time>
      </trkpt>
      <trkpt lat="47.49167" lon="6.7648">
        <ele>323.5</ele>
        <time>2014-11-23T08:24:40.000Z</time>
      </trkpt>
      <trkpt lat="47.49167" lon="6.7648">
        <ele>323.5</ele>
        <time>2014-11-23T08:24:41.000Z</time>
      </trkpt>
      <trkpt lat="47.4917" lon="6.76483">
        <ele>317.7</ele>
        <time>2014-11-23T08:25:40.999Z</time>
      </trkpt>
      <trkpt lat="47.49171" lon="6.76483">
        <ele>318.2</ele>
        <time>2014-11-23T08:25:42.000Z</time>
      </trkpt>
      <trkpt lat="47.49172" lon="6.7649">
        <ele>320.2</ele>
        <time>2014-11-23T08:29:44.000Z</time>
      </trkpt>
      <trkpt lat="47.49172" lon="6.7649">
        <ele>320.2</ele>
        <time>2014-11-23T08:29:45.000Z</time>
      </trkpt>
      <trkpt lat="47.49176" lon="6.7649">
        <ele>320.7</ele>
        <time>2014-11-23T08:36:54.000Z</time>
      </trkpt>
      <trkpt lat="47.49177" lon="6.76491">
        <ele>320.3</ele>
        <time>2014-11-23T08:36:55.000Z</time>
      </trkpt>
      <trkpt lat="47.49176" lon="6.76496">
        <ele>322.4</ele>
        <time>2014-11-23T08:37:00.000Z</time>
      </trkpt>
      <trkpt lat="47.49174" lon="6.76498">
        <ele>322</ele>
        <time>2014-11-23T08:37:01.000Z</time>
      </trkpt>
      <trkpt lat="47.49171" lon="6.765">
        <ele>321.5</ele>
        <time>2014-11-23T08:37:02.000Z</time>
      </trkpt>
      <trkpt lat="47.49168" lon="6.76501">
        <ele>321.3</ele>
        <time>2014-11-23T08:37:03.000Z</time>
      </trkpt>
      <trkpt lat="47.49157" lon="6.76507">
        <ele>320.3</ele>
        <time>2014-11-23T08:37:04.000Z</time>
      </trkpt>
      <trkpt lat="47.49152" lon="6.76511">
        <ele>320</ele>
        <time>2014-11-23T08:37:05.000Z</time>
      </trkpt>
      <trkpt lat="47.49146" lon="6.76515">
        <ele>319.4</ele>
        <time>2014-11-23T08:37:06.000Z</time>
      </trkpt>
      <trkpt lat="47.4914" lon="6.76516">
        <ele>319.9</ele>
        <time>2014-11-23T08:37:07.000Z</time>
      </trkpt>
      <trkpt lat="47.49134" lon="6.76516">
        <ele>320.2</ele>
        <time>2014-11-23T08:37:08.000Z</time>
      </trkpt>
      <trkpt lat="47.49129" lon="6.76515">
        <ele>319.7</ele>
        <time>2014-11-23T08:37:09.000Z</time>
      </trkpt>
      <trkpt lat="47.49125" lon="6.76513">
        <ele>320.1</ele>
        <time>2014-11-23T08:37:10.000Z</time>
      </trkpt>
      <trkpt lat="47.49121" lon="6.76509">
        <ele>320.3</ele>
        <time>2014-11-23T08:37:11.000Z</time>
      </trkpt>
      <trkpt lat="47.49119" lon="6.76505">
        <ele>319.3</ele>
        <time>2014-11-23T08:37:12.000Z</time>
      </trkpt>
      <trkpt lat="47.4912" lon="6.76497">
        <ele>319</ele>
        <time>2014-11-23T08:37:13.000Z</time>
      </trkpt>
      <trkpt lat="47.4912" lon="6.76493">
        <ele>318.6</ele>
        <time>2014-11-23T08:37:14.000Z</time>
      </trkpt>
      <trkpt lat="47.49122" lon="6.76487">
        <ele>320.1</ele>
        <time>2014-11-23T08:37:15.000Z</time>
      </trkpt>
      <trkpt lat="47.49123" lon="6.76482">
        <ele>320.4</ele>
        <time>2014-11-23T08:37:16.000Z</time>
      </trkpt>
      <trkpt lat="47.49124" lon="6.76478">
        <ele>320.2</ele>
        <time>2014-11-23T08:37:17.000Z</time>
      </trkpt>
      <trkpt lat="47.49123" lon="6.76472">
        <ele>320.8</ele>
        <time>2014-11-23T08:37:18.000Z</time>
      </trkpt>
      <trkpt lat="47.49124" lon="6.76467">
        <ele>320.9</ele>
        <time>2014-11-23T08:37:19.000Z</time>
      </trkpt>
      <trkpt lat="47.49125" lon="6.76462">
        <ele>322.3</ele>
        <time>2014-11-23T08:37:20.000Z</time>
      </trkpt>
      <trkpt lat="47.49126" lon="6.76458">
        <ele>323.2</ele>
        <time>2014-11-23T08:37:21.000Z</time>
      </trkpt>
      <trkpt lat="47.49126" lon="6.76454">
        <ele>323.7</ele>
        <time>2014-11-23T08:37:22.000Z</time>
      </trkpt>
      <trkpt lat="47.49127" lon="6.76449">
        <ele>323.6</ele>
        <time>2014-11-23T08:37:23.000Z</time>
      </trkpt>
      <trkpt lat="47.49127" lon="6.76444">
        <ele>322</ele>
        <time>2014-11-23T08:37:24.000Z</time>
      </trkpt>
      <trkpt lat="47.49128" lon="6.76439">
        <ele>321.6</ele>
        <time>2014-11-23T08:37:25.000Z</time>
      </trkpt>
      <trkpt lat="47.49128" lon="6.76434">
        <ele>321.2</ele>
        <time>2014-11-23T08:37:26.000Z</time>
      </trkpt>
      <trkpt lat="47.49128" lon="6.76429">
        <ele>320.8</ele>
        <time>2014-11-23T08:37:27.000Z</time>
      </trkpt>
      <trkpt lat="47.49127" lon="6.76427">
        <ele>320.6</ele>
        <time>2014-11-23T08:37:28.000Z</time>
      </trkpt>
      <trkpt lat="47.49121" lon="6.76426">
        <ele>322.9</ele>
        <time>2014-11-23T08:37:31.000Z</time>
      </trkpt>
      <trkpt lat="47.49118" lon="6.76426">
        <ele>322.9</ele>
        <time>2014-11-23T08:37:33.000Z</time>
      </trkpt>
      <trkpt lat="47.49116" lon="6.76426">
        <ele>322.3</ele>
        <time>2014-11-23T08:37:34.000Z</time>
      </trkpt>
      <trkpt lat="47.49115" lon="6.7642">
        <ele>324.4</ele>
        <time>2014-11-23T08:37:38.000Z</time>
      </trkpt>
      <trkpt lat="47.49115" lon="6.76416">
        <ele>324.3</ele>
        <time>2014-11-23T08:37:39.000Z</time>
      </trkpt>
      <trkpt lat="47.49117" lon="6.76411">
        <ele>324.8</ele>
        <time>2014-11-23T08:37:40.000Z</time>
      </trkpt>
      <trkpt lat="47.49118" lon="6.76406">
        <ele>325.7</ele>
        <time>2014-11-23T08:37:41.000Z</time>
      </trkpt>
      <trkpt lat="47.4912" lon="6.76401">
        <ele>325.9</ele>
        <time>2014-11-23T08:37:42.000Z</time>
      </trkpt>
      <trkpt lat="47.49122" lon="6.76396">
        <ele>326.7</ele>
        <time>2014-11-23T08:37:43.000Z</time>
      </trkpt>
      <trkpt lat="47.49123" lon="6.7639">
        <ele>327.8</ele>
        <time>2014-11-23T08:37:45.000Z</time>
      </trkpt>
      <trkpt lat="47.49123" lon="6.76387">
        <ele>328.2</ele>
        <time>2014-11-23T08:37:46.000Z</time>
      </trkpt>
      <trkpt lat="47.49123" lon="6.76383">
        <ele>328.7</ele>
        <time>2014-11-23T08:37:47.000Z</time>
      </trkpt>
      <trkpt lat="47.49123" lon="6.7638">
        <ele>329</ele>
        <time>2014-11-23T08:37:48.000Z</time>
      </trkpt>
      <trkpt lat="47.49123" lon="6.76376">
        <ele>329.6</ele>
        <time>2014-11-23T08:37:49.000Z</time>
      </trkpt>
      <trkpt lat="47.49123" lon="6.76372">
        <ele>329.7</ele>
        <time>2014-11-23T08:37:50.000Z</time>
      </trkpt>
      <trkpt lat="47.49123" lon="6.76368">
        <ele>330.6</ele>
        <time>2014-11-23T08:37:51.000Z</time>
      </trkpt>
      <trkpt lat="47.49123" lon="6.76364">
        <ele>331.9</ele>
        <time>2014-11-23T08:37:52.000Z</time>
      </trkpt>
      <trkpt lat="47.49123" lon="6.76361">
        <ele>332</ele>
        <time>2014-11-23T08:37:53.000Z</time>
      </trkpt>
      <trkpt lat="47.49123" lon="6.76357">
        <ele>331.8</ele>
        <time>2014-11-23T08:37:54.000Z</time>
      </trkpt>
      <trkpt lat="47.49123" lon="6.76353">
        <ele>330.7</ele>
        <time>2014-11-23T08:37:55.000Z</time>
      </trkpt>
      <trkpt lat="47.49123" lon="6.76349">
        <ele>329.9</ele>
        <time>2014-11-23T08:37:56.000Z</time>
      </trkpt>
      <trkpt lat="47.49122" lon="6.76345">
        <ele>329.3</ele>
        <time>2014-11-23T08:37:57.000Z</time>
      </trkpt>
      <trkpt lat="47.49121" lon="6.76341">
        <ele>329.1</ele>
        <time>2014-11-23T08:37:58.000Z</time>
      </trkpt>
      <trkpt lat="47.49121" lon="6.76337">
        <ele>330.5</ele>
        <time>2014-11-23T08:37:59.000Z</time>
      </trkpt>
      <trkpt lat="47.4912" lon="6.76333">
        <ele>330.9</ele>
        <time>2014-11-23T08:38:00.000Z</time>
      </trkpt>
      <trkpt lat="47.49119" lon="6.76328">
        <ele>331.3</ele>
        <time>2014-11-23T08:38:01.000Z</time>
      </trkpt>
      <trkpt lat="47.49119" lon="6.76323">
        <ele>332.1</ele>
        <time>2014-11-23T08:38:02.000Z</time>
      </trkpt>
      <trkpt lat="47.49118" lon="6.76318">
        <ele>332.4</ele>
        <time>2014-11-23T08:38:03.000Z</time>
      </trkpt>
      <trkpt lat="47.49118" lon="6.76314">
        <ele>331.8</ele>
        <time>2014-11-23T08:38:04.000Z</time>
      </trkpt>
      <trkpt lat="47.49118" lon="6.7631">
        <ele>331.1</ele>
        <time>2014-11-23T08:38:05.000Z</time>
      </trkpt>
      <trkpt lat="47.49118" lon="6.76306">
        <ele>331.1</ele>
        <time>2014-11-23T08:38:06.000Z</time>
      </trkpt>
      <trkpt lat="47.49118" lon="6.76302">
        <ele>331.4</ele>
        <time>2014-11-23T08:38:07.000Z</time>
      </trkpt>
      <trkpt lat="47.49118" lon="6.76298">
        <ele>329.4</ele>
        <time>2014-11-23T08:38:08.000Z</time>
      </trkpt>
      <trkpt lat="47.49118" lon="6.76293">
        <ele>332</ele>
        <time>2014-11-23T08:38:09.000Z</time>
      </trkpt>
      <trkpt lat="47.49118" lon="6.76288">
        <ele>332.4</ele>
        <time>2014-11-23T08:38:10.000Z</time>
      </trkpt>
      <trkpt lat="47.49118" lon="6.76282">
        <ele>332.6</ele>
        <time>2014-11-23T08:38:11.000Z</time>
      </trkpt>
      <trkpt lat="47.49118" lon="6.76276">
        <ele>332.3</ele>
        <time>2014-11-23T08:38:12.000Z</time>
      </trkpt>
      <trkpt lat="47.49118" lon="6.7627">
        <ele>331.1</ele>
        <time>2014-11-23T08:38:13.000Z</time>
      </trkpt>
      <trkpt lat="47.49118" lon="6.76264">
        <ele>331.5</ele>
        <time>2014-11-23T08:38:14.000Z</time>
      </trkpt>
      <trkpt lat="47.49119" lon="6.76258">
        <ele>332.6</ele>
        <time>2014-11-23T08:38:15.000Z</time>
      </trkpt>
      <trkpt lat="47.49119" lon="6.76254">
        <ele>333.5</ele>
        <time>2014-11-23T08:38:16.000Z</time>
      </trkpt>
      <trkpt lat="47.49119" lon="6.76249">
        <ele>331.3</ele>
        <time>2014-11-23T08:38:17.000Z</time>
      </trkpt>
      <trkpt lat="47.49119" lon="6.76244">
        <ele>331.4</ele>
        <time>2014-11-23T08:38:18.000Z</time>
      </trkpt>
      <trkpt lat="47.49119" lon="6.7624">
        <ele>331.2</ele>
        <time>2014-11-23T08:38:19.000Z</time>
      </trkpt>
      <trkpt lat="47.49119" lon="6.76235">
        <ele>331</ele>
        <time>2014-11-23T08:38:20.000Z</time>
      </trkpt>
      <trkpt lat="47.49119" lon="6.76232">
        <ele>331.1</ele>
        <time>2014-11-23T08:38:21.000Z</time>
      </trkpt>
      <trkpt lat="47.49119" lon="6.76227">
        <ele>330.8</ele>
        <time>2014-11-23T08:38:22.000Z</time>
      </trkpt>
      <trkpt lat="47.49119" lon="6.76222">
        <ele>330.9</ele>
        <time>2014-11-23T08:38:23.000Z</time>
      </trkpt>
      <trkpt lat="47.49119" lon="6.76218">
        <ele>331.4</ele>
        <time>2014-11-23T08:38:24.000Z</time>
      </trkpt>
      <trkpt lat="47.49119" lon="6.76214">
        <ele>331.4</ele>
        <time>2014-11-23T08:38:25.000Z</time>
      </trkpt>
      <trkpt lat="47.49119" lon="6.7621">
        <ele>331.2</ele>
        <time>2014-11-23T08:38:26.000Z</time>
      </trkpt>
      <trkpt lat="47.49118" lon="6.76206">
        <ele>331.6</ele>
        <time>2014-11-23T08:38:27.000Z</time>
      </trkpt>
      <trkpt lat="47.49118" lon="6.76203">
        <ele>333.6</ele>
        <time>2014-11-23T08:38:28.000Z</time>
      </trkpt>
      <trkpt lat="47.49114" lon="6.76193">
        <ele>333.9</ele>
        <time>2014-11-23T08:38:31.000Z</time>
      </trkpt>
      <trkpt lat="47.49113" lon="6.76189">
        <ele>333.6</ele>
        <time>2014-11-23T08:38:32.000Z</time>
      </trkpt>
      <trkpt lat="47.49113" lon="6.76185">
        <ele>334.4</ele>
        <time>2014-11-23T08:38:33.000Z</time>
      </trkpt>
      <trkpt lat="47.49112" lon="6.7618">
        <ele>334.8</ele>
        <time>2014-11-23T08:38:34.000Z</time>
      </trkpt>
      <trkpt lat="47.49112" lon="6.76175">
        <ele>334</ele>
        <time>2014-11-23T08:38:35.000Z</time>
      </trkpt>
      <trkpt lat="47.49112" lon="6.7617">
        <ele>333.2</ele>
        <time>2014-11-23T08:38:36.000Z</time>
      </trkpt>
      <trkpt lat="47.49111" lon="6.76165">
        <ele>333.9</ele>
        <time>2014-11-23T08:38:37.000Z</time>
      </trkpt>
      <trkpt lat="47.49111" lon="6.76161">
        <ele>334.4</ele>
        <time>2014-11-23T08:38:38.000Z</time>
      </trkpt>
      <trkpt lat="47.49111" lon="6.76156">
        <ele>333.8</ele>
        <time>2014-11-23T08:38:39.000Z</time>
      </trkpt>
      <trkpt lat="47.49111" lon="6.76151">
        <ele>334.8</ele>
        <time>2014-11-23T08:38:40.000Z</time>
      </trkpt>
      <trkpt lat="47.49112" lon="6.76147">
        <ele>335.4</ele>
        <time>2014-11-23T08:38:41.000Z</time>
      </trkpt>
      <trkpt lat="47.49113" lon="6.76143">
        <ele>335.6</ele>
        <time>2014-11-23T08:38:42.000Z</time>
      </trkpt>
      <trkpt lat="47.49114" lon="6.76139">
        <ele>335.5</ele>
        <time>2014-11-23T08:38:43.000Z</time>
      </trkpt>
      <trkpt lat="47.49114" lon="6.76135">
        <ele>335.2</ele>
        <time>2014-11-23T08:38:44.000Z</time>
      </trkpt>
      <trkpt lat="47.49114" lon="6.76132">
        <ele>335.7</ele>
        <time>2014-11-23T08:38:45.000Z</time>
      </trkpt>
      <trkpt lat="47.49114" lon="6.76125">
        <ele>335.8</ele>
        <time>2014-11-23T08:38:47.000Z</time>
      </trkpt>
      <trkpt lat="47.49115" lon="6.76122">
        <ele>335.6</ele>
        <time>2014-11-23T08:38:48.000Z</time>
      </trkpt>
      <trkpt lat="47.49115" lon="6.76118">
        <ele>334.4</ele>
        <time>2014-11-23T08:38:49.000Z</time>
      </trkpt>
      <trkpt lat="47.49115" lon="6.76114">
        <ele>334.4</ele>
        <time>2014-11-23T08:38:50.000Z</time>
      </trkpt>
      <trkpt lat="47.49115" lon="6.7611">
        <ele>334.1</ele>
        <time>2014-11-23T08:38:51.000Z</time>
      </trkpt>
      <trkpt lat="47.49115" lon="6.76105">
        <ele>334.3</ele>
        <time>2014-11-23T08:38:52.000Z</time>
      </trkpt>
      <trkpt lat="47.49115" lon="6.76101">
        <ele>334.4</ele>
        <time>2014-11-23T08:38:53.000Z</time>
      </trkpt>
      <trkpt lat="47.49116" lon="6.76097">
        <ele>335.3</ele>
        <time>2014-11-23T08:38:54.000Z</time>
      </trkpt>
      <trkpt lat="47.49116" lon="6.76093">
        <ele>336.3</ele>
        <time>2014-11-23T08:38:55.000Z</time>
      </trkpt>
      <trkpt lat="47.49116" lon="6.76088">
        <ele>336.9</ele>
        <time>2014-11-23T08:38:56.000Z</time>
      </trkpt>
      <trkpt lat="47.49116" lon="6.76084">
        <ele>336.5</ele>
        <time>2014-11-23T08:38:57.000Z</time>
      </trkpt>
      <trkpt lat="47.49116" lon="6.76079">
        <ele>339.5</ele>
        <time>2014-11-23T08:38:58.000Z</time>
      </trkpt>
      <trkpt lat="47.49117" lon="6.76075">
        <ele>340.5</ele>
        <time>2014-11-23T08:38:59.000Z</time>
      </trkpt>
      <trkpt lat="47.49118" lon="6.76071">
        <ele>338.9</ele>
        <time>2014-11-23T08:39:00.000Z</time>
      </trkpt>
      <trkpt lat="47.49118" lon="6.76066">
        <ele>340.1</ele>
        <time>2014-11-23T08:39:01.000Z</time>
      </trkpt>
      <trkpt lat="47.49119" lon="6.76061">
        <ele>340.2</ele>
        <time>2014-11-23T08:39:02.000Z</time>
      </trkpt>
      <trkpt lat="47.4912" lon="6.76055">
        <ele>339.2</ele>
        <time>2014-11-23T08:39:03.000Z</time>
      </trkpt>
      <trkpt lat="47.49121" lon="6.7605">
        <ele>339.3</ele>
        <time>2014-11-23T08:39:04.000Z</time>
      </trkpt>
      <trkpt lat="47.49122" lon="6.76045">
        <ele>340.8</ele>
        <time>2014-11-23T08:39:05.000Z</time>
      </trkpt>
      <trkpt lat="47.49123" lon="6.7604">
        <ele>341.4</ele>
        <time>2014-11-23T08:39:06.000Z</time>
      </trkpt>
      <trkpt lat="47.49124" lon="6.76035">
        <ele>341.7</ele>
        <time>2014-11-23T08:39:07.000Z</time>
      </trkpt>
      <trkpt lat="47.49125" lon="6.76032">
        <ele>341.5</ele>
        <time>2014-11-23T08:39:08.000Z</time>
      </trkpt>
      <trkpt lat="47.49126" lon="6.76029">
        <ele>341.2</ele>
        <time>2014-11-23T08:39:09.000Z</time>
      </trkpt>
      <trkpt lat="47.49128" lon="6.76025">
        <ele>341.7</ele>
        <time>2014-11-23T08:39:10.000Z</time>
      </trkpt>
      <trkpt lat="47.49129" lon="6.76022">
        <ele>342</ele>
        <time>2014-11-23T08:39:11.000Z</time>
      </trkpt>
      <trkpt lat="47.4913" lon="6.76018">
        <ele>342.5</ele>
        <time>2014-11-23T08:39:12.000Z</time>
      </trkpt>
      <trkpt lat="47.49132" lon="6.76014">
        <ele>342.4</ele>
        <time>2014-11-23T08:39:13.000Z</time>
      </trkpt>
      <trkpt lat="47.49133" lon="6.76011">
        <ele>343.2</ele>
        <time>2014-11-23T08:39:14.000Z</time>
      </trkpt>
      <trkpt lat="47.49134" lon="6.76005">
        <ele>344.6</ele>
        <time>2014-11-23T08:39:16.000Z</time>
      </trkpt>
      <trkpt lat="47.49134" lon="6.76003">
        <ele>345.3</ele>
        <time>2014-11-23T08:39:17.000Z</time>
      </trkpt>
      <trkpt lat="47.49135" lon="6.76">
        <ele>341.9</ele>
        <time>2014-11-23T08:39:18.000Z</time>
      </trkpt>
      <trkpt lat="47.49135" lon="6.75996">
        <ele>340.3</ele>
        <time>2014-11-23T08:39:19.000Z</time>
      </trkpt>
      <trkpt lat="47.49135" lon="6.75992">
        <ele>338.8</ele>
        <time>2014-11-23T08:39:20.000Z</time>
      </trkpt>
      <trkpt lat="47.49135" lon="6.75988">
        <ele>338.3</ele>
        <time>2014-11-23T08:39:21.000Z</time>
      </trkpt>
      <trkpt lat="47.49136" lon="6.75984">
        <ele>338.2</ele>
        <time>2014-11-23T08:39:22.000Z</time>
      </trkpt>
      <trkpt lat="47.49136" lon="6.75981">
        <ele>340.9</ele>
        <time>2014-11-23T08:39:23.000Z</time>
      </trkpt>
      <trkpt lat="47.49137" lon="6.75977">
        <ele>341.3</ele>
        <time>2014-11-23T08:39:24.000Z</time>
      </trkpt>
      <trkpt lat="47.49138" lon="6.75974">
        <ele>341.4</ele>
        <time>2014-11-23T08:39:25.000Z</time>
      </trkpt>
      <trkpt lat="47.4914" lon="6.75969">
        <ele>341.4</ele>
        <time>2014-11-23T08:39:27.000Z</time>
      </trkpt>
      <trkpt lat="47.49142" lon="6.75966">
        <ele>343.3</ele>
        <time>2014-11-23T08:39:28.000Z</time>
      </trkpt>
      <trkpt lat="47.49154" lon="6.7593">
        <ele>340.6</ele>
        <time>2014-11-23T08:39:37.000Z</time>
      </trkpt>
      <trkpt lat="47.49155" lon="6.75925">
        <ele>339.8</ele>
        <time>2014-11-23T08:39:38.000Z</time>
      </trkpt>
      <trkpt lat="47.49156" lon="6.75921">
        <ele>340</ele>
        <time>2014-11-23T08:39:39.000Z</time>
      </trkpt>
      <trkpt lat="47.49157" lon="6.75916">
        <ele>339.8</ele>
        <time>2014-11-23T08:39:40.000Z</time>
      </trkpt>
      <trkpt lat="47.49158" lon="6.75912">
        <ele>340</ele>
        <time>2014-11-23T08:39:41.000Z</time>
      </trkpt>
      <trkpt lat="47.49159" lon="6.75907">
        <ele>340.8</ele>
        <time>2014-11-23T08:39:42.000Z</time>
      </trkpt>
      <trkpt lat="47.4916" lon="6.75903">
        <ele>339.9</ele>
        <time>2014-11-23T08:39:43.000Z</time>
      </trkpt>
      <trkpt lat="47.49161" lon="6.75898">
        <ele>339.6</ele>
        <time>2014-11-23T08:39:44.000Z</time>
      </trkpt>
      <trkpt lat="47.49163" lon="6.75892">
        <ele>337.1</ele>
        <time>2014-11-23T08:39:45.000Z</time>
      </trkpt>
      <trkpt lat="47.49165" lon="6.75886">
        <ele>336.4</ele>
        <time>2014-11-23T08:39:46.000Z</time>
      </trkpt>
      <trkpt lat="47.49167" lon="6.7588">
        <ele>335.8</ele>
        <time>2014-11-23T08:39:47.000Z</time>
      </trkpt>
      <trkpt lat="47.49169" lon="6.75874">
        <ele>335.3</ele>
        <time>2014-11-23T08:39:48.000Z</time>
      </trkpt>
      <trkpt lat="47.49171" lon="6.75867">
        <ele>336.3</ele>
        <time>2014-11-23T08:39:49.000Z</time>
      </trkpt>
      <trkpt lat="47.49173" lon="6.75863">
        <ele>336.7</ele>
        <time>2014-11-23T08:39:49.999Z</time>
      </trkpt>
      <trkpt lat="47.49175" lon="6.75854">
        <ele>337.2</ele>
        <time>2014-11-23T08:39:51.000Z</time>
      </trkpt>
      <trkpt lat="47.4918" lon="6.75837">
        <ele>335.3</ele>
        <time>2014-11-23T08:39:52.000Z</time>
      </trkpt>
      <trkpt lat="47.49183" lon="6.7583">
        <ele>335.3</ele>
        <time>2014-11-23T08:39:53.000Z</time>
      </trkpt>
      <trkpt lat="47.49185" lon="6.75824">
        <ele>335.2</ele>
        <time>2014-11-23T08:39:54.000Z</time>
      </trkpt>
      <trkpt lat="47.49191" lon="6.75821">
        <ele>336.4</ele>
        <time>2014-11-23T08:39:55.000Z</time>
      </trkpt>
      <trkpt lat="47.49194" lon="6.75815">
        <ele>339</ele>
        <time>2014-11-23T08:39:56.000Z</time>
      </trkpt>
      <trkpt lat="47.49197" lon="6.75808">
        <ele>340.2</ele>
        <time>2014-11-23T08:39:57.000Z</time>
      </trkpt>
      <trkpt lat="47.492" lon="6.75804">
        <ele>340.7</ele>
        <time>2014-11-23T08:39:58.000Z</time>
      </trkpt>
      <trkpt lat="47.49199" lon="6.75794">
        <ele>336.9</ele>
        <time>2014-11-23T08:39:59.000Z</time>
      </trkpt>
      <trkpt lat="47.49201" lon="6.75788">
        <ele>336.5</ele>
        <time>2014-11-23T08:40:00.000Z</time>
      </trkpt>
      <trkpt lat="47.49204" lon="6.75784">
        <ele>337</ele>
        <time>2014-11-23T08:40:01.000Z</time>
      </trkpt>
      <trkpt lat="47.49206" lon="6.75778">
        <ele>337.5</ele>
        <time>2014-11-23T08:40:02.000Z</time>
      </trkpt>
      <trkpt lat="47.49209" lon="6.75772">
        <ele>338.9</ele>
        <time>2014-11-23T08:40:03.000Z</time>
      </trkpt>
      <trkpt lat="47.49211" lon="6.75765">
        <ele>339.3</ele>
        <time>2014-11-23T08:40:04.000Z</time>
      </trkpt>
      <trkpt lat="47.49213" lon="6.75761">
        <ele>339.4</ele>
        <time>2014-11-23T08:40:05.000Z</time>
      </trkpt>
      <trkpt lat="47.49213" lon="6.75755">
        <ele>338.7</ele>
        <time>2014-11-23T08:40:06.000Z</time>
      </trkpt>
      <trkpt lat="47.49215" lon="6.7575">
        <ele>337.1</ele>
        <time>2014-11-23T08:40:07.000Z</time>
      </trkpt>
      <trkpt lat="47.49216" lon="6.75745">
        <ele>336.3</ele>
        <time>2014-11-23T08:40:08.000Z</time>
      </trkpt>
      <trkpt lat="47.49217" lon="6.7574">
        <ele>335</ele>
        <time>2014-11-23T08:40:09.000Z</time>
      </trkpt>
      <trkpt lat="47.49219" lon="6.75735">
        <ele>335.2</ele>
        <time>2014-11-23T08:40:10.000Z</time>
      </trkpt>
      <trkpt lat="47.4922" lon="6.75731">
        <ele>335.1</ele>
        <time>2014-11-23T08:40:11.000Z</time>
      </trkpt>
      <trkpt lat="47.49221" lon="6.75727">
        <ele>336.3</ele>
        <time>2014-11-23T08:40:12.000Z</time>
      </trkpt>
      <trkpt lat="47.49223" lon="6.75722">
        <ele>336.4</ele>
        <time>2014-11-23T08:40:13.000Z</time>
      </trkpt>
      <trkpt lat="47.49225" lon="6.75717">
        <ele>337.3</ele>
        <time>2014-11-23T08:40:14.000Z</time>
      </trkpt>
      <trkpt lat="47.49226" lon="6.75711">
        <ele>339.4</ele>
        <time>2014-11-23T08:40:15.000Z</time>
      </trkpt>
      <trkpt lat="47.49228" lon="6.75706">
        <ele>339.9</ele>
        <time>2014-11-23T08:40:16.000Z</time>
      </trkpt>
      <trkpt lat="47.49229" lon="6.75701">
        <ele>340.9</ele>
        <time>2014-11-23T08:40:17.000Z</time>
      </trkpt>
      <trkpt lat="47.4923" lon="6.75696">
        <ele>342</ele>
        <time>2014-11-23T08:40:18.000Z</time>
      </trkpt>
      <trkpt lat="47.49231" lon="6.75691">
        <ele>342.3</ele>
        <time>2014-11-23T08:40:19.000Z</time>
      </trkpt>
      <trkpt lat="47.49232" lon="6.75687">
        <ele>342.3</ele>
        <time>2014-11-23T08:40:20.000Z</time>
      </trkpt>
      <trkpt lat="47.49233" lon="6.75682">
        <ele>342.5</ele>
        <time>2014-11-23T08:40:21.000Z</time>
      </trkpt>
      <trkpt lat="47.49234" lon="6.75677">
        <ele>342.6</ele>
        <time>2014-11-23T08:40:22.000Z</time>
      </trkpt>
      <trkpt lat="47.49235" lon="6.75673">
        <ele>343.1</ele>
        <time>2014-11-23T08:40:23.000Z</time>
      </trkpt>
      <trkpt lat="47.49236" lon="6.75667">
        <ele>345</ele>
        <time>2014-11-23T08:40:24.000Z</time>
      </trkpt>
      <trkpt lat="47.49238" lon="6.75662">
        <ele>344.4</ele>
        <time>2014-11-23T08:40:25.000Z</time>
      </trkpt>
      <trkpt lat="47.49239" lon="6.75657">
        <ele>345</ele>
        <time>2014-11-23T08:40:26.000Z</time>
      </trkpt>
      <trkpt lat="47.4924" lon="6.75653">
        <ele>345</ele>
        <time>2014-11-23T08:40:27.000Z</time>
      </trkpt>
      <trkpt lat="47.49242" lon="6.75648">
        <ele>346.4</ele>
        <time>2014-11-23T08:40:28.000Z</time>
      </trkpt>
      <trkpt lat="47.49248" lon="6.75632">
        <ele>348.5</ele>
        <time>2014-11-23T08:40:31.000Z</time>
      </trkpt>
      <trkpt lat="47.49249" lon="6.75627">
        <ele>348.7</ele>
        <time>2014-11-23T08:40:32.000Z</time>
      </trkpt>
      <trkpt lat="47.49251" lon="6.75623">
        <ele>348.7</ele>
        <time>2014-11-23T08:40:33.000Z</time>
      </trkpt>
      <trkpt lat="47.49252" lon="6.75619">
        <ele>349.3</ele>
        <time>2014-11-23T08:40:34.000Z</time>
      </trkpt>
      <trkpt lat="47.49253" lon="6.75615">
        <ele>349.1</ele>
        <time>2014-11-23T08:40:35.000Z</time>
      </trkpt>
      <trkpt lat="47.49254" lon="6.75611">
        <ele>349.3</ele>
        <time>2014-11-23T08:40:36.000Z</time>
      </trkpt>
      <trkpt lat="47.49255" lon="6.75606">
        <ele>343.7</ele>
        <time>2014-11-23T08:40:37.000Z</time>
      </trkpt>
      <trkpt lat="47.49255" lon="6.75601">
        <ele>342</ele>
        <time>2014-11-23T08:40:38.000Z</time>
      </trkpt>
      <trkpt lat="47.49256" lon="6.75595">
        <ele>341.2</ele>
        <time>2014-11-23T08:40:39.000Z</time>
      </trkpt>
      <trkpt lat="47.49257" lon="6.7559">
        <ele>340.6</ele>
        <time>2014-11-23T08:40:40.000Z</time>
      </trkpt>
      <trkpt lat="47.49257" lon="6.75585">
        <ele>341.3</ele>
        <time>2014-11-23T08:40:41.000Z</time>
      </trkpt>
      <trkpt lat="47.49258" lon="6.75581">
        <ele>340.7</ele>
        <time>2014-11-23T08:40:42.000Z</time>
      </trkpt>
      <trkpt lat="47.4926" lon="6.75577">
        <ele>340.1</ele>
        <time>2014-11-23T08:40:43.000Z</time>
      </trkpt>
      <trkpt lat="47.49261" lon="6.75572">
        <ele>341.7</ele>
        <time>2014-11-23T08:40:44.000Z</time>
      </trkpt>
      <trkpt lat="47.49261" lon="6.75567">
        <ele>342.6</ele>
        <time>2014-11-23T08:40:45.000Z</time>
      </trkpt>
      <trkpt lat="47.49262" lon="6.75561">
        <ele>342.7</ele>
        <time>2014-11-23T08:40:46.000Z</time>
      </trkpt>
      <trkpt lat="47.49263" lon="6.75555">
        <ele>344.2</ele>
        <time>2014-11-23T08:40:47.000Z</time>
      </trkpt>
      <trkpt lat="47.49265" lon="6.7555">
        <ele>344.4</ele>
        <time>2014-11-23T08:40:48.000Z</time>
      </trkpt>
      <trkpt lat="47.49267" lon="6.75544">
        <ele>345.6</ele>
        <time>2014-11-23T08:40:49.000Z</time>
      </trkpt>
      <trkpt lat="47.49269" lon="6.75539">
        <ele>348.3</ele>
        <time>2014-11-23T08:40:50.000Z</time>
      </trkpt>
      <trkpt lat="47.4927" lon="6.75535">
        <ele>349.4</ele>
        <time>2014-11-23T08:40:51.000Z</time>
      </trkpt>
      <trkpt lat="47.49272" lon="6.7553">
        <ele>351</ele>
        <time>2014-11-23T08:40:52.000Z</time>
      </trkpt>
      <trkpt lat="47.49273" lon="6.75527">
        <ele>351.1</ele>
        <time>2014-11-23T08:40:53.000Z</time>
      </trkpt>
      <trkpt lat="47.49274" lon="6.75523">
        <ele>351.8</ele>
        <time>2014-11-23T08:40:54.000Z</time>
      </trkpt>
      <trkpt lat="47.49275" lon="6.75519">
        <ele>351.9</ele>
        <time>2014-11-23T08:40:55.000Z</time>
      </trkpt>
      <trkpt lat="47.49276" lon="6.75513">
        <ele>352.6</ele>
        <time>2014-11-23T08:40:56.000Z</time>
      </trkpt>
      <trkpt lat="47.49276" lon="6.75508">
        <ele>353.2</ele>
        <time>2014-11-23T08:40:57.000Z</time>
      </trkpt>
      <trkpt lat="47.49276" lon="6.75502">
        <ele>352.7</ele>
        <time>2014-11-23T08:40:58.000Z</time>
      </trkpt>
      <trkpt lat="47.49277" lon="6.75497">
        <ele>352.7</ele>
        <time>2014-11-23T08:40:59.000Z</time>
      </trkpt>
      <trkpt lat="47.49277" lon="6.75492">
        <ele>352.9</ele>
        <time>2014-11-23T08:41:00.000Z</time>
      </trkpt>
      <trkpt lat="47.49278" lon="6.75487">
        <ele>353.1</ele>
        <time>2014-11-23T08:41:01.000Z</time>
      </trkpt>
      <trkpt lat="47.49279" lon="6.75482">
        <ele>353.2</ele>
        <time>2014-11-23T08:41:02.000Z</time>
      </trkpt>
      <trkpt lat="47.49279" lon="6.75477">
        <ele>353.5</ele>
        <time>2014-11-23T08:41:03.000Z</time>
      </trkpt>
      <trkpt lat="47.4928" lon="6.75473">
        <ele>353</ele>
        <time>2014-11-23T08:41:04.000Z</time>
      </trkpt>
      <trkpt lat="47.4928" lon="6.75468">
        <ele>353.1</ele>
        <time>2014-11-23T08:41:05.000Z</time>
      </trkpt>
      <trkpt lat="47.49281" lon="6.75464">
        <ele>353.2</ele>
        <time>2014-11-23T08:41:06.000Z</time>
      </trkpt>
      <trkpt lat="47.49282" lon="6.75458">
        <ele>354.3</ele>
        <time>2014-11-23T08:41:07.000Z</time>
      </trkpt>
      <trkpt lat="47.49283" lon="6.75453">
        <ele>355.1</ele>
        <time>2014-11-23T08:41:08.000Z</time>
      </trkpt>
      <trkpt lat="47.49284" lon="6.75447">
        <ele>353.8</ele>
        <time>2014-11-23T08:41:09.000Z</time>
      </trkpt>
      <trkpt lat="47.49285" lon="6.7544">
        <ele>353.8</ele>
        <time>2014-11-23T08:41:10.000Z</time>
      </trkpt>
      <trkpt lat="47.49285" lon="6.75434">
        <ele>353.7</ele>
        <time>2014-11-23T08:41:11.000Z</time>
      </trkpt>
      <trkpt lat="47.49285" lon="6.75428">
        <ele>353.1</ele>
        <time>2014-11-23T08:41:12.000Z</time>
      </trkpt>
      <trkpt lat="47.49285" lon="6.75423">
        <ele>352.6</ele>
        <time>2014-11-23T08:41:13.000Z</time>
      </trkpt>
      <trkpt lat="47.49285" lon="6.75418">
        <ele>350.7</ele>
        <time>2014-11-23T08:41:14.000Z</time>
      </trkpt>
      <trkpt lat="47.49285" lon="6.75413">
        <ele>349.8</ele>
        <time>2014-11-23T08:41:15.000Z</time>
      </trkpt>
      <trkpt lat="47.49286" lon="6.75408">
        <ele>350.1</ele>
        <time>2014-11-23T08:41:16.000Z</time>
      </trkpt>
      <trkpt lat="47.49286" lon="6.75403">
        <ele>350.8</ele>
        <time>2014-11-23T08:41:17.000Z</time>
      </trkpt>
      <trkpt lat="47.49287" lon="6.75399">
        <ele>350.5</ele>
        <time>2014-11-23T08:41:18.000Z</time>
      </trkpt>
      <trkpt lat="47.49288" lon="6.75394">
        <ele>352.5</ele>
        <time>2014-11-23T08:41:19.000Z</time>
      </trkpt>
      <trkpt lat="47.4929" lon="6.75389">
        <ele>352.3</ele>
        <time>2014-11-23T08:41:20.000Z</time>
      </trkpt>
      <trkpt lat="47.49291" lon="6.75384">
        <ele>354.7</ele>
        <time>2014-11-23T08:41:21.000Z</time>
      </trkpt>
      <trkpt lat="47.49293" lon="6.75379">
        <ele>354.8</ele>
        <time>2014-11-23T08:41:22.000Z</time>
      </trkpt>
      <trkpt lat="47.49295" lon="6.75373">
        <ele>354.2</ele>
        <time>2014-11-23T08:41:23.000Z</time>
      </trkpt>
      <trkpt lat="47.49296" lon="6.75367">
        <ele>353.8</ele>
        <time>2014-11-23T08:41:24.000Z</time>
      </trkpt>
      <trkpt lat="47.49297" lon="6.75362">
        <ele>352.5</ele>
        <time>2014-11-23T08:41:25.000Z</time>
      </trkpt>
      <trkpt lat="47.49298" lon="6.75357">
        <ele>352.6</ele>
        <time>2014-11-23T08:41:26.000Z</time>
      </trkpt>
      <trkpt lat="47.49299" lon="6.75352">
        <ele>352.4</ele>
        <time>2014-11-23T08:41:27.000Z</time>
      </trkpt>
      <trkpt lat="47.493" lon="6.75347">
        <ele>355.6</ele>
        <time>2014-11-23T08:41:28.000Z</time>
      </trkpt>
      <trkpt lat="47.49302" lon="6.75338">
        <ele>355.8</ele>
        <time>2014-11-23T08:41:30.084Z</time>
      </trkpt>
      <trkpt lat="47.49303" lon="6.7533">
        <ele>357.3</ele>
        <time>2014-11-23T08:41:32.000Z</time>
      </trkpt>
      <trkpt lat="47.49303" lon="6.75324">
        <ele>355.6</ele>
        <time>2014-11-23T08:41:34.000Z</time>
      </trkpt>
      <trkpt lat="47.49303" lon="6.7532">
        <ele>355.3</ele>
        <time>2014-11-23T08:41:35.000Z</time>
      </trkpt>
      <trkpt lat="47.49302" lon="6.75316">
        <ele>357.6</ele>
        <time>2014-11-23T08:41:36.000Z</time>
      </trkpt>
      <trkpt lat="47.49302" lon="6.75312">
        <ele>356.8</ele>
        <time>2014-11-23T08:41:37.000Z</time>
      </trkpt>
      <trkpt lat="47.49302" lon="6.75307">
        <ele>356.4</ele>
        <time>2014-11-23T08:41:38.000Z</time>
      </trkpt>
      <trkpt lat="47.49303" lon="6.75303">
        <ele>355.1</ele>
        <time>2014-11-23T08:41:39.000Z</time>
      </trkpt>
      <trkpt lat="47.49303" lon="6.75298">
        <ele>354.4</ele>
        <time>2014-11-23T08:41:40.000Z</time>
      </trkpt>
      <trkpt lat="47.49303" lon="6.75294">
        <ele>352.4</ele>
        <time>2014-11-23T08:41:41.000Z</time>
      </trkpt>
      <trkpt lat="47.49304" lon="6.75289">
        <ele>352.1</ele>
        <time>2014-11-23T08:41:42.000Z</time>
      </trkpt>
      <trkpt lat="47.49304" lon="6.75285">
        <ele>353.9</ele>
        <time>2014-11-23T08:41:43.000Z</time>
      </trkpt>
      <trkpt lat="47.49304" lon="6.75281">
        <ele>353</ele>
        <time>2014-11-23T08:41:44.000Z</time>
      </trkpt>
      <trkpt lat="47.49304" lon="6.75277">
        <ele>352.3</ele>
        <time>2014-11-23T08:41:45.000Z</time>
      </trkpt>
      <trkpt lat="47.49304" lon="6.75273">
        <ele>351.8</ele>
        <time>2014-11-23T08:41:46.000Z</time>
      </trkpt>
      <trkpt lat="47.49304" lon="6.75269">
        <ele>352.6</ele>
        <time>2014-11-23T08:41:47.000Z</time>
      </trkpt>
      <trkpt lat="47.49304" lon="6.75266">
        <ele>352</ele>
        <time>2014-11-23T08:41:48.000Z</time>
      </trkpt>
      <trkpt lat="47.49305" lon="6.75262">
        <ele>351.7</ele>
        <time>2014-11-23T08:41:49.000Z</time>
      </trkpt>
      <trkpt lat="47.49306" lon="6.75258">
        <ele>351.9</ele>
        <time>2014-11-23T08:41:50.000Z</time>
      </trkpt>
      <trkpt lat="47.49306" lon="6.75254">
        <ele>351.1</ele>
        <time>2014-11-23T08:41:51.000Z</time>
      </trkpt>
      <trkpt lat="47.49307" lon="6.75249">
        <ele>347.6</ele>
        <time>2014-11-23T08:41:52.000Z</time>
      </trkpt>
      <trkpt lat="47.49309" lon="6.75244">
        <ele>345.2</ele>
        <time>2014-11-23T08:41:53.000Z</time>
      </trkpt>
      <trkpt lat="47.49309" lon="6.75239">
        <ele>344</ele>
        <time>2014-11-23T08:41:54.000Z</time>
      </trkpt>
      <trkpt lat="47.4931" lon="6.75235">
        <ele>345.1</ele>
        <time>2014-11-23T08:41:55.000Z</time>
      </trkpt>
      <trkpt lat="47.49311" lon="6.75231">
        <ele>344.2</ele>
        <time>2014-11-23T08:41:56.000Z</time>
      </trkpt>
      <trkpt lat="47.49312" lon="6.75227">
        <ele>343</ele>
        <time>2014-11-23T08:41:57.000Z</time>
      </trkpt>
      <trkpt lat="47.49311" lon="6.75223">
        <ele>341.7</ele>
        <time>2014-11-23T08:41:58.000Z</time>
      </trkpt>
      <trkpt lat="47.49311" lon="6.75219">
        <ele>341.1</ele>
        <time>2014-11-23T08:41:59.000Z</time>
      </trkpt>
      <trkpt lat="47.4931" lon="6.75215">
        <ele>341.2</ele>
        <time>2014-11-23T08:42:00.000Z</time>
      </trkpt>
      <trkpt lat="47.4931" lon="6.75211">
        <ele>342.3</ele>
        <time>2014-11-23T08:42:01.000Z</time>
      </trkpt>
      <trkpt lat="47.4931" lon="6.75206">
        <ele>341.4</ele>
        <time>2014-11-23T08:42:02.000Z</time>
      </trkpt>
      <trkpt lat="47.49311" lon="6.75201">
        <ele>341.2</ele>
        <time>2014-11-23T08:42:03.000Z</time>
      </trkpt>
      <trkpt lat="47.49311" lon="6.75196">
        <ele>340.3</ele>
        <time>2014-11-23T08:42:04.000Z</time>
      </trkpt>
      <trkpt lat="47.49312" lon="6.75191">
        <ele>339.9</ele>
        <time>2014-11-23T08:42:05.000Z</time>
      </trkpt>
      <trkpt lat="47.49312" lon="6.75186">
        <ele>339.9</ele>
        <time>2014-11-23T08:42:06.000Z</time>
      </trkpt>
      <trkpt lat="47.49312" lon="6.75182">
        <ele>338.8</ele>
        <time>2014-11-23T08:42:07.000Z</time>
      </trkpt>
      <trkpt lat="47.49311" lon="6.75177">
        <ele>338.5</ele>
        <time>2014-11-23T08:42:08.000Z</time>
      </trkpt>
      <trkpt lat="47.49311" lon="6.75172">
        <ele>338.6</ele>
        <time>2014-11-23T08:42:09.000Z</time>
      </trkpt>
      <trkpt lat="47.49311" lon="6.75167">
        <ele>339.3</ele>
        <time>2014-11-23T08:42:10.000Z</time>
      </trkpt>
      <trkpt lat="47.49311" lon="6.75161">
        <ele>337.9</ele>
        <time>2014-11-23T08:42:11.000Z</time>
      </trkpt>
      <trkpt lat="47.4931" lon="6.75155">
        <ele>338.6</ele>
        <time>2014-11-23T08:42:12.000Z</time>
      </trkpt>
      <trkpt lat="47.49309" lon="6.75149">
        <ele>339.3</ele>
        <time>2014-11-23T08:42:13.000Z</time>
      </trkpt>
      <trkpt lat="47.49309" lon="6.75143">
        <ele>341.1</ele>
        <time>2014-11-23T08:42:14.000Z</time>
      </trkpt>
      <trkpt lat="47.4931" lon="6.75138">
        <ele>342.6</ele>
        <time>2014-11-23T08:42:15.000Z</time>
      </trkpt>
      <trkpt lat="47.49311" lon="6.75134">
        <ele>343.9</ele>
        <time>2014-11-23T08:42:16.000Z</time>
      </trkpt>
      <trkpt lat="47.49311" lon="6.75131">
        <ele>344.4</ele>
        <time>2014-11-23T08:42:17.000Z</time>
      </trkpt>
      <trkpt lat="47.49312" lon="6.75127">
        <ele>346.1</ele>
        <time>2014-11-23T08:42:18.000Z</time>
      </trkpt>
      <trkpt lat="47.49312" lon="6.75123">
        <ele>347</ele>
        <time>2014-11-23T08:42:19.000Z</time>
      </trkpt>
      <trkpt lat="47.49313" lon="6.75119">
        <ele>347.4</ele>
        <time>2014-11-23T08:42:20.000Z</time>
      </trkpt>
      <trkpt lat="47.49314" lon="6.75115">
        <ele>347.1</ele>
        <time>2014-11-23T08:42:21.000Z</time>
      </trkpt>
      <trkpt lat="47.49316" lon="6.7511">
        <ele>347.1</ele>
        <time>2014-11-23T08:42:22.000Z</time>
      </trkpt>
      <trkpt lat="47.49318" lon="6.75107">
        <ele>347.1</ele>
        <time>2014-11-23T08:42:23.000Z</time>
      </trkpt>
      <trkpt lat="47.49319" lon="6.75103">
        <ele>347.5</ele>
        <time>2014-11-23T08:42:24.000Z</time>
      </trkpt>
      <trkpt lat="47.49321" lon="6.75098">
        <ele>347.2</ele>
        <time>2014-11-23T08:42:25.000Z</time>
      </trkpt>
      <trkpt lat="47.49323" lon="6.75093">
        <ele>346.9</ele>
        <time>2014-11-23T08:42:26.000Z</time>
      </trkpt>
      <trkpt lat="47.49326" lon="6.75088">
        <ele>346.5</ele>
        <time>2014-11-23T08:42:27.000Z</time>
      </trkpt>
      <trkpt lat="47.49329" lon="6.75083">
        <ele>347.4</ele>
        <time>2014-11-23T08:42:28.000Z</time>
      </trkpt>
      <trkpt lat="47.49337" lon="6.75075">
        <ele>347.3</ele>
        <time>2014-11-23T08:42:31.000Z</time>
      </trkpt>
      <trkpt lat="47.49339" lon="6.75072">
        <ele>349</ele>
        <time>2014-11-23T08:42:32.000Z</time>
      </trkpt>
      <trkpt lat="47.49341" lon="6.75069">
        <ele>351.9</ele>
        <time>2014-11-23T08:42:33.000Z</time>
      </trkpt>
      <trkpt lat="47.49342" lon="6.75067">
        <ele>353.1</ele>
        <time>2014-11-23T08:42:34.000Z</time>
      </trkpt>
      <trkpt lat="47.49343" lon="6.75063">
        <ele>354.2</ele>
        <time>2014-11-23T08:42:35.000Z</time>
      </trkpt>
      <trkpt lat="47.49344" lon="6.7506">
        <ele>355</ele>
        <time>2014-11-23T08:42:36.000Z</time>
      </trkpt>
      <trkpt lat="47.49345" lon="6.75057">
        <ele>355</ele>
        <time>2014-11-23T08:42:37.000Z</time>
      </trkpt>
      <trkpt lat="47.49345" lon="6.75053">
        <ele>353.8</ele>
        <time>2014-11-23T08:42:38.000Z</time>
      </trkpt>
      <trkpt lat="47.49345" lon="6.7505">
        <ele>353.6</ele>
        <time>2014-11-23T08:42:39.000Z</time>
      </trkpt>
      <trkpt lat="47.49345" lon="6.75044">
        <ele>354.1</ele>
        <time>2014-11-23T08:42:41.000Z</time>
      </trkpt>
      <trkpt lat="47.49345" lon="6.75041">
        <ele>355.1</ele>
        <time>2014-11-23T08:42:42.000Z</time>
      </trkpt>
      <trkpt lat="47.49345" lon="6.75036">
        <ele>358.8</ele>
        <time>2014-11-23T08:42:44.000Z</time>
      </trkpt>
      <trkpt lat="47.49346" lon="6.75033">
        <ele>358.5</ele>
        <time>2014-11-23T08:42:45.000Z</time>
      </trkpt>
      <trkpt lat="47.49346" lon="6.75027">
        <ele>358.4</ele>
        <time>2014-11-23T08:42:47.000Z</time>
      </trkpt>
      <trkpt lat="47.49346" lon="6.75024">
        <ele>358.6</ele>
        <time>2014-11-23T08:42:48.000Z</time>
      </trkpt>
      <trkpt lat="47.49346" lon="6.75018">
        <ele>358.7</ele>
        <time>2014-11-23T08:42:50.000Z</time>
      </trkpt>
      <trkpt lat="47.49346" lon="6.75015">
        <ele>357.8</ele>
        <time>2014-11-23T08:42:51.000Z</time>
      </trkpt>
      <trkpt lat="47.49346" lon="6.75009">
        <ele>358.1</ele>
        <time>2014-11-23T08:42:53.000Z</time>
      </trkpt>
      <trkpt lat="47.49346" lon="6.75007">
        <ele>358.4</ele>
        <time>2014-11-23T08:42:54.000Z</time>
      </trkpt>
      <trkpt lat="47.49347" lon="6.75002">
        <ele>358.9</ele>
        <time>2014-11-23T08:42:56.000Z</time>
      </trkpt>
      <trkpt lat="47.49347" lon="6.75">
        <ele>359.4</ele>
        <time>2014-11-23T08:42:57.000Z</time>
      </trkpt>
      <trkpt lat="47.49348" lon="6.74994">
        <ele>361.2</ele>
        <time>2014-11-23T08:42:59.000Z</time>
      </trkpt>
      <trkpt lat="47.49348" lon="6.74991">
        <ele>361</ele>
        <time>2014-11-23T08:43:00.000Z</time>
      </trkpt>
      <trkpt lat="47.4935" lon="6.74986">
        <ele>363.7</ele>
        <time>2014-11-23T08:43:02.000Z</time>
      </trkpt>
      <trkpt lat="47.4935" lon="6.74983">
        <ele>362.6</ele>
        <time>2014-11-23T08:43:03.000Z</time>
      </trkpt>
      <trkpt lat="47.4935" lon="6.74978">
        <ele>363.5</ele>
        <time>2014-11-23T08:43:05.000Z</time>
      </trkpt>
      <trkpt lat="47.4935" lon="6.74975">
        <ele>362.1</ele>
        <time>2014-11-23T08:43:06.000Z</time>
      </trkpt>
      <trkpt lat="47.49349" lon="6.74969">
        <ele>361</ele>
        <time>2014-11-23T08:43:08.000Z</time>
      </trkpt>
      <trkpt lat="47.49349" lon="6.74966">
        <ele>360.6</ele>
        <time>2014-11-23T08:43:09.000Z</time>
      </trkpt>
      <trkpt lat="47.49349" lon="6.74959">
        <ele>362.5</ele>
        <time>2014-11-23T08:43:11.000Z</time>
      </trkpt>
      <trkpt lat="47.49349" lon="6.74956">
        <ele>363.5</ele>
        <time>2014-11-23T08:43:12.000Z</time>
      </trkpt>
      <trkpt lat="47.49349" lon="6.74953">
        <ele>364.1</ele>
        <time>2014-11-23T08:43:13.000Z</time>
      </trkpt>
      <trkpt lat="47.49349" lon="6.74949">
        <ele>364.1</ele>
        <time>2014-11-23T08:43:14.000Z</time>
      </trkpt>
      <trkpt lat="47.49349" lon="6.74945">
        <ele>363.8</ele>
        <time>2014-11-23T08:43:15.000Z</time>
      </trkpt>
      <trkpt lat="47.4935" lon="6.74941">
        <ele>363.9</ele>
        <time>2014-11-23T08:43:16.000Z</time>
      </trkpt>
      <trkpt lat="47.4935" lon="6.74937">
        <ele>364.3</ele>
        <time>2014-11-23T08:43:17.000Z</time>
      </trkpt>
      <trkpt lat="47.49351" lon="6.74934">
        <ele>364.8</ele>
        <time>2014-11-23T08:43:18.000Z</time>
      </trkpt>
      <trkpt lat="47.49352" lon="6.74928">
        <ele>364.8</ele>
        <time>2014-11-23T08:43:20.000Z</time>
      </trkpt>
      <trkpt lat="47.49353" lon="6.74925">
        <ele>364.6</ele>
        <time>2014-11-23T08:43:21.000Z</time>
      </trkpt>
      <trkpt lat="47.49354" lon="6.7492">
        <ele>364.7</ele>
        <time>2014-11-23T08:43:23.000Z</time>
      </trkpt>
      <trkpt lat="47.49354" lon="6.74918">
        <ele>363.4</ele>
        <time>2014-11-23T08:43:24.000Z</time>
      </trkpt>
      <trkpt lat="47.49354" lon="6.74913">
        <ele>363.1</ele>
        <time>2014-11-23T08:43:26.000Z</time>
      </trkpt>
      <trkpt lat="47.49354" lon="6.74911">
        <ele>362.9</ele>
        <time>2014-11-23T08:43:27.000Z</time>
      </trkpt>
      <trkpt lat="47.49354" lon="6.74909">
        <ele>362.9</ele>
        <time>2014-11-23T08:43:28.000Z</time>
      </trkpt>
      <trkpt lat="47.49353" lon="6.749">
        <ele>363.4</ele>
        <time>2014-11-23T08:43:31.000Z</time>
      </trkpt>
      <trkpt lat="47.49352" lon="6.74896">
        <ele>363.5</ele>
        <time>2014-11-23T08:43:32.000Z</time>
      </trkpt>
      <trkpt lat="47.49352" lon="6.74893">
        <ele>363.3</ele>
        <time>2014-11-23T08:43:33.000Z</time>
      </trkpt>
      <trkpt lat="47.49352" lon="6.74887">
        <ele>362.5</ele>
        <time>2014-11-23T08:43:35.000Z</time>
      </trkpt>
      <trkpt lat="47.49353" lon="6.74884">
        <ele>362.5</ele>
        <time>2014-11-23T08:43:36.000Z</time>
      </trkpt>
      <trkpt lat="47.49353" lon="6.74878">
        <ele>363.3</ele>
        <time>2014-11-23T08:43:38.000Z</time>
      </trkpt>
      <trkpt lat="47.49353" lon="6.74875">
        <ele>362.3</ele>
        <time>2014-11-23T08:43:39.000Z</time>
      </trkpt>
      <trkpt lat="47.49352" lon="6.7487">
        <ele>361.1</ele>
        <time>2014-11-23T08:43:41.000Z</time>
      </trkpt>
      <trkpt lat="47.49351" lon="6.74868">
        <ele>360.6</ele>
        <time>2014-11-23T08:43:42.000Z</time>
      </trkpt>
      <trkpt lat="47.49351" lon="6.74862">
        <ele>361.1</ele>
        <time>2014-11-23T08:43:44.000Z</time>
      </trkpt>
      <trkpt lat="47.49351" lon="6.74859">
        <ele>360.9</ele>
        <time>2014-11-23T08:43:45.000Z</time>
      </trkpt>
      <trkpt lat="47.49351" lon="6.74852">
        <ele>361.3</ele>
        <time>2014-11-23T08:43:47.000Z</time>
      </trkpt>
      <trkpt lat="47.49351" lon="6.7485">
        <ele>362.8</ele>
        <time>2014-11-23T08:43:48.000Z</time>
      </trkpt>
      <trkpt lat="47.4935" lon="6.74843">
        <ele>362.3</ele>
        <time>2014-11-23T08:43:51.000Z</time>
      </trkpt>
      <trkpt lat="47.49351" lon="6.74841">
        <ele>362.2</ele>
        <time>2014-11-23T08:43:52.000Z</time>
      </trkpt>
      <trkpt lat="47.49351" lon="6.74836">
        <ele>360.8</ele>
        <time>2014-11-23T08:43:55.000Z</time>
      </trkpt>
      <trkpt lat="47.4935" lon="6.74834">
        <ele>361.7</ele>
        <time>2014-11-23T08:43:56.000Z</time>
      </trkpt>
      <trkpt lat="47.4935" lon="6.74831">
        <ele>362.1</ele>
        <time>2014-11-23T08:43:57.000Z</time>
      </trkpt>
      <trkpt lat="47.4935" lon="6.74827">
        <ele>363.1</ele>
        <time>2014-11-23T08:43:58.000Z</time>
      </trkpt>
      <trkpt lat="47.49351" lon="6.74823">
        <ele>363.7</ele>
        <time>2014-11-23T08:43:59.000Z</time>
      </trkpt>
      <trkpt lat="47.49351" lon="6.74819">
        <ele>364</ele>
        <time>2014-11-23T08:44:00.000Z</time>
      </trkpt>
      <trkpt lat="47.4935" lon="6.74813">
        <ele>364.1</ele>
        <time>2014-11-23T08:44:02.000Z</time>
      </trkpt>
      <trkpt lat="47.4935" lon="6.7481">
        <ele>362.2</ele>
        <time>2014-11-23T08:44:03.000Z</time>
      </trkpt>
      <trkpt lat="47.49349" lon="6.74806">
        <ele>362.7</ele>
        <time>2014-11-23T08:44:04.000Z</time>
      </trkpt>
      <trkpt lat="47.49349" lon="6.74803">
        <ele>362.7</ele>
        <time>2014-11-23T08:44:05.000Z</time>
      </trkpt>
      <trkpt lat="47.49349" lon="6.74799">
        <ele>363.5</ele>
        <time>2014-11-23T08:44:06.000Z</time>
      </trkpt>
      <trkpt lat="47.49349" lon="6.74795">
        <ele>363.9</ele>
        <time>2014-11-23T08:44:07.000Z</time>
      </trkpt>
      <trkpt lat="47.49349" lon="6.74791">
        <ele>364.8</ele>
        <time>2014-11-23T08:44:08.000Z</time>
      </trkpt>
      <trkpt lat="47.49349" lon="6.74787">
        <ele>366.2</ele>
        <time>2014-11-23T08:44:09.000Z</time>
      </trkpt>
      <trkpt lat="47.49349" lon="6.74783">
        <ele>366.1</ele>
        <time>2014-11-23T08:44:10.000Z</time>
      </trkpt>
      <trkpt lat="47.49349" lon="6.7478">
        <ele>367.2</ele>
        <time>2014-11-23T08:44:11.000Z</time>
      </trkpt>
      <trkpt lat="47.49348" lon="6.74775">
        <ele>367</ele>
        <time>2014-11-23T08:44:13.000Z</time>
      </trkpt>
      <trkpt lat="47.49347" lon="6.74772">
        <ele>366.1</ele>
        <time>2014-11-23T08:44:14.000Z</time>
      </trkpt>
      <trkpt lat="47.49347" lon="6.74766">
        <ele>366.3</ele>
        <time>2014-11-23T08:44:16.000Z</time>
      </trkpt>
      <trkpt lat="47.49347" lon="6.74762">
        <ele>366.2</ele>
        <time>2014-11-23T08:44:17.000Z</time>
      </trkpt>
      <trkpt lat="47.49346" lon="6.74756">
        <ele>364.8</ele>
        <time>2014-11-23T08:44:19.000Z</time>
      </trkpt>
      <trkpt lat="47.49346" lon="6.74753">
        <ele>362.5</ele>
        <time>2014-11-23T08:44:20.000Z</time>
      </trkpt>
      <trkpt lat="47.49345" lon="6.74747">
        <ele>361.2</ele>
        <time>2014-11-23T08:44:22.000Z</time>
      </trkpt>
      <trkpt lat="47.49345" lon="6.74745">
        <ele>360.7</ele>
        <time>2014-11-23T08:44:23.000Z</time>
      </trkpt>
      <trkpt lat="47.49345" lon="6.7474">
        <ele>361.7</ele>
        <time>2014-11-23T08:44:25.000Z</time>
      </trkpt>
      <trkpt lat="47.49345" lon="6.74737">
        <ele>361.9</ele>
        <time>2014-11-23T08:44:26.000Z</time>
      </trkpt>
      <trkpt lat="47.49345" lon="6.7473">
        <ele>361.3</ele>
        <time>2014-11-23T08:44:28.000Z</time>
      </trkpt>
      <trkpt lat="47.49347" lon="6.74721">
        <ele>363.4</ele>
        <time>2014-11-23T08:44:31.000Z</time>
      </trkpt>
      <trkpt lat="47.49349" lon="6.74717">
        <ele>361.9</ele>
        <time>2014-11-23T08:44:33.000Z</time>
      </trkpt>
      <trkpt lat="47.4935" lon="6.74715">
        <ele>362.2</ele>
        <time>2014-11-23T08:44:34.000Z</time>
      </trkpt>
      <trkpt lat="47.49351" lon="6.74709">
        <ele>363.4</ele>
        <time>2014-11-23T08:44:38.000Z</time>
      </trkpt>
      <trkpt lat="47.49352" lon="6.74707">
        <ele>362.3</ele>
        <time>2014-11-23T08:44:39.000Z</time>
      </trkpt>
      <trkpt lat="47.49352" lon="6.74702">
        <ele>361.1</ele>
        <time>2014-11-23T08:44:41.000Z</time>
      </trkpt>
      <trkpt lat="47.49352" lon="6.747">
        <ele>360.6</ele>
        <time>2014-11-23T08:44:42.000Z</time>
      </trkpt>
      <trkpt lat="47.49352" lon="6.74694">
        <ele>360.2</ele>
        <time>2014-11-23T08:44:44.000Z</time>
      </trkpt>
      <trkpt lat="47.49352" lon="6.74692">
        <ele>360.7</ele>
        <time>2014-11-23T08:44:45.000Z</time>
      </trkpt>
      <trkpt lat="47.49352" lon="6.74687">
        <ele>362.6</ele>
        <time>2014-11-23T08:44:47.000Z</time>
      </trkpt>
      <trkpt lat="47.49352" lon="6.74684">
        <ele>362.9</ele>
        <time>2014-11-23T08:44:48.000Z</time>
      </trkpt>
      <trkpt lat="47.49352" lon="6.74679">
        <ele>360.3</ele>
        <time>2014-11-23T08:44:50.000Z</time>
      </trkpt>
      <trkpt lat="47.49352" lon="6.74677">
        <ele>359.7</ele>
        <time>2014-11-23T08:44:51.000Z</time>
      </trkpt>
      <trkpt lat="47.49352" lon="6.7467">
        <ele>359.5</ele>
        <time>2014-11-23T08:44:54.000Z</time>
      </trkpt>
      <trkpt lat="47.49352" lon="6.74668">
        <ele>360.2</ele>
        <time>2014-11-23T08:44:55.000Z</time>
      </trkpt>
      <trkpt lat="47.49352" lon="6.74665">
        <ele>359.5</ele>
        <time>2014-11-23T08:44:56.000Z</time>
      </trkpt>
      <trkpt lat="47.49352" lon="6.74661">
        <ele>359.8</ele>
        <time>2014-11-23T08:44:57.000Z</time>
      </trkpt>
      <trkpt lat="47.49352" lon="6.74657">
        <ele>359.8</ele>
        <time>2014-11-23T08:44:58.000Z</time>
      </trkpt>
      <trkpt lat="47.49351" lon="6.74653">
        <ele>360</ele>
        <time>2014-11-23T08:44:59.000Z</time>
      </trkpt>
      <trkpt lat="47.49351" lon="6.74647">
        <ele>360.4</ele>
        <time>2014-11-23T08:45:01.000Z</time>
      </trkpt>
      <trkpt lat="47.49351" lon="6.74644">
        <ele>360.4</ele>
        <time>2014-11-23T08:45:02.000Z</time>
      </trkpt>
      <trkpt lat="47.49351" lon="6.74639">
        <ele>361.6</ele>
        <time>2014-11-23T08:45:04.000Z</time>
      </trkpt>
      <trkpt lat="47.49351" lon="6.74635">
        <ele>361.6</ele>
        <time>2014-11-23T08:45:05.000Z</time>
      </trkpt>
      <trkpt lat="47.49351" lon="6.74632">
        <ele>361.4</ele>
        <time>2014-11-23T08:45:06.000Z</time>
      </trkpt>
      <trkpt lat="47.4935" lon="6.74628">
        <ele>361.5</ele>
        <time>2014-11-23T08:45:07.000Z</time>
      </trkpt>
      <trkpt lat="47.4935" lon="6.74622">
        <ele>360.1</ele>
        <time>2014-11-23T08:45:09.000Z</time>
      </trkpt>
      <trkpt lat="47.4935" lon="6.7462">
        <ele>360.8</ele>
        <time>2014-11-23T08:45:10.000Z</time>
      </trkpt>
      <trkpt lat="47.49348" lon="6.74614">
        <ele>362.5</ele>
        <time>2014-11-23T08:45:13.000Z</time>
      </trkpt>
      <trkpt lat="47.49348" lon="6.74612">
        <ele>364.1</ele>
        <time>2014-11-23T08:45:14.000Z</time>
      </trkpt>
      <trkpt lat="47.49348" lon="6.74609">
        <ele>364.2</ele>
        <time>2014-11-23T08:45:15.000Z</time>
      </trkpt>
      <trkpt lat="47.49349" lon="6.74605">
        <ele>364.8</ele>
        <time>2014-11-23T08:45:16.000Z</time>
      </trkpt>
      <trkpt lat="47.49349" lon="6.74602">
        <ele>364.9</ele>
        <time>2014-11-23T08:45:17.000Z</time>
      </trkpt>
      <trkpt lat="47.4935" lon="6.74598">
        <ele>365.7</ele>
        <time>2014-11-23T08:45:18.000Z</time>
      </trkpt>
      <trkpt lat="47.49351" lon="6.74593">
        <ele>365.8</ele>
        <time>2014-11-23T08:45:20.000Z</time>
      </trkpt>
      <trkpt lat="47.49351" lon="6.74591">
        <ele>365.2</ele>
        <time>2014-11-23T08:45:21.000Z</time>
      </trkpt>
      <trkpt lat="47.49352" lon="6.74585">
        <ele>365.3</ele>
        <time>2014-11-23T08:45:24.000Z</time>
      </trkpt>
      <trkpt lat="47.49352" lon="6.74582">
        <ele>366.5</ele>
        <time>2014-11-23T08:45:25.000Z</time>
      </trkpt>
      <trkpt lat="47.49353" lon="6.74577">
        <ele>364.3</ele>
        <time>2014-11-23T08:45:26.000Z</time>
      </trkpt>
      <trkpt lat="47.49354" lon="6.74572">
        <ele>363.6</ele>
        <time>2014-11-23T08:45:27.000Z</time>
      </trkpt>
      <trkpt lat="47.49354" lon="6.74566">
        <ele>361.4</ele>
        <time>2014-11-23T08:45:28.000Z</time>
      </trkpt>
      <trkpt lat="47.49355" lon="6.74551">
        <ele>360.9</ele>
        <time>2014-11-23T08:45:31.000Z</time>
      </trkpt>
      <trkpt lat="47.49355" lon="6.74547">
        <ele>360.6</ele>
        <time>2014-11-23T08:45:32.000Z</time>
      </trkpt>
      <trkpt lat="47.49356" lon="6.74542">
        <ele>361.3</ele>
        <time>2014-11-23T08:45:33.000Z</time>
      </trkpt>
      <trkpt lat="47.49357" lon="6.74537">
        <ele>360.8</ele>
        <time>2014-11-23T08:45:34.000Z</time>
      </trkpt>
      <trkpt lat="47.49358" lon="6.74533">
        <ele>361.2</ele>
        <time>2014-11-23T08:45:35.000Z</time>
      </trkpt>
      <trkpt lat="47.49358" lon="6.74528">
        <ele>361.3</ele>
        <time>2014-11-23T08:45:36.000Z</time>
      </trkpt>
      <trkpt lat="47.49359" lon="6.74524">
        <ele>361.4</ele>
        <time>2014-11-23T08:45:37.000Z</time>
      </trkpt>
      <trkpt lat="47.49359" lon="6.74519">
        <ele>361.3</ele>
        <time>2014-11-23T08:45:38.000Z</time>
      </trkpt>
      <trkpt lat="47.49359" lon="6.74514">
        <ele>361.9</ele>
        <time>2014-11-23T08:45:39.000Z</time>
      </trkpt>
      <trkpt lat="47.49359" lon="6.74509">
        <ele>362.1</ele>
        <time>2014-11-23T08:45:40.000Z</time>
      </trkpt>
      <trkpt lat="47.49359" lon="6.74504">
        <ele>361.3</ele>
        <time>2014-11-23T08:45:41.000Z</time>
      </trkpt>
      <trkpt lat="47.49359" lon="6.74498">
        <ele>362.4</ele>
        <time>2014-11-23T08:45:42.000Z</time>
      </trkpt>
      <trkpt lat="47.49358" lon="6.74493">
        <ele>362.3</ele>
        <time>2014-11-23T08:45:43.000Z</time>
      </trkpt>
      <trkpt lat="47.49358" lon="6.74488">
        <ele>362.1</ele>
        <time>2014-11-23T08:45:44.000Z</time>
      </trkpt>
      <trkpt lat="47.49358" lon="6.74484">
        <ele>361.6</ele>
        <time>2014-11-23T08:45:45.000Z</time>
      </trkpt>
      <trkpt lat="47.49358" lon="6.74479">
        <ele>362.6</ele>
        <time>2014-11-23T08:45:46.000Z</time>
      </trkpt>
      <trkpt lat="47.49358" lon="6.74475">
        <ele>363.8</ele>
        <time>2014-11-23T08:45:47.000Z</time>
      </trkpt>
      <trkpt lat="47.49358" lon="6.74471">
        <ele>364.2</ele>
        <time>2014-11-23T08:45:48.000Z</time>
      </trkpt>
      <trkpt lat="47.49359" lon="6.74467">
        <ele>366.8</ele>
        <time>2014-11-23T08:45:49.000Z</time>
      </trkpt>
      <trkpt lat="47.49359" lon="6.74463">
        <ele>368.1</ele>
        <time>2014-11-23T08:45:50.000Z</time>
      </trkpt>
      <trkpt lat="47.49359" lon="6.74459">
        <ele>368.3</ele>
        <time>2014-11-23T08:45:51.000Z</time>
      </trkpt>
      <trkpt lat="47.4936" lon="6.74455">
        <ele>369</ele>
        <time>2014-11-23T08:45:52.000Z</time>
      </trkpt>
      <trkpt lat="47.4936" lon="6.74451">
        <ele>369.3</ele>
        <time>2014-11-23T08:45:53.000Z</time>
      </trkpt>
      <trkpt lat="47.49361" lon="6.74447">
        <ele>369.7</ele>
        <time>2014-11-23T08:45:54.000Z</time>
      </trkpt>
      <trkpt lat="47.49362" lon="6.74442">
        <ele>371.8</ele>
        <time>2014-11-23T08:45:55.000Z</time>
      </trkpt>
      <trkpt lat="47.49362" lon="6.74436">
        <ele>371.4</ele>
        <time>2014-11-23T08:45:56.000Z</time>
      </trkpt>
      <trkpt lat="47.49363" lon="6.74431">
        <ele>371</ele>
        <time>2014-11-23T08:45:57.000Z</time>
      </trkpt>
      <trkpt lat="47.49363" lon="6.74426">
        <ele>370.2</ele>
        <time>2014-11-23T08:45:58.000Z</time>
      </trkpt>
      <trkpt lat="47.49364" lon="6.74422">
        <ele>371.9</ele>
        <time>2014-11-23T08:45:59.000Z</time>
      </trkpt>
      <trkpt lat="47.49364" lon="6.74417">
        <ele>372.2</ele>
        <time>2014-11-23T08:46:00.000Z</time>
      </trkpt>
      <trkpt lat="47.49364" lon="6.74413">
        <ele>372.3</ele>
        <time>2014-11-23T08:46:01.000Z</time>
      </trkpt>
      <trkpt lat="47.49364" lon="6.74407">
        <ele>372.2</ele>
        <time>2014-11-23T08:46:03.000Z</time>
      </trkpt>
      <trkpt lat="47.49365" lon="6.74405">
        <ele>372.5</ele>
        <time>2014-11-23T08:46:04.000Z</time>
      </trkpt>
      <trkpt lat="47.49367" lon="6.74401">
        <ele>372.7</ele>
        <time>2014-11-23T08:46:06.000Z</time>
      </trkpt>
      <trkpt lat="47.49367" lon="6.74399">
        <ele>372.7</ele>
        <time>2014-11-23T08:46:07.000Z</time>
      </trkpt>
      <trkpt lat="47.49369" lon="6.74394">
        <ele>372.5</ele>
        <time>2014-11-23T08:46:09.000Z</time>
      </trkpt>
      <trkpt lat="47.49369" lon="6.7439">
        <ele>373.4</ele>
        <time>2014-11-23T08:46:10.000Z</time>
      </trkpt>
      <trkpt lat="47.49369" lon="6.74387">
        <ele>373.6</ele>
        <time>2014-11-23T08:46:11.000Z</time>
      </trkpt>
      <trkpt lat="47.49369" lon="6.74383">
        <ele>370.8</ele>
        <time>2014-11-23T08:46:12.000Z</time>
      </trkpt>
      <trkpt lat="47.49368" lon="6.74379">
        <ele>369.3</ele>
        <time>2014-11-23T08:46:13.000Z</time>
      </trkpt>
      <trkpt lat="47.49368" lon="6.74374">
        <ele>368.4</ele>
        <time>2014-11-23T08:46:14.000Z</time>
      </trkpt>
      <trkpt lat="47.49367" lon="6.7437">
        <ele>368.1</ele>
        <time>2014-11-23T08:46:15.000Z</time>
      </trkpt>
      <trkpt lat="47.49366" lon="6.74366">
        <ele>368.2</ele>
        <time>2014-11-23T08:46:16.000Z</time>
      </trkpt>
      <trkpt lat="47.49367" lon="6.74362">
        <ele>370</ele>
        <time>2014-11-23T08:46:17.000Z</time>
      </trkpt>
      <trkpt lat="47.49368" lon="6.74358">
        <ele>370.3</ele>
        <time>2014-11-23T08:46:18.000Z</time>
      </trkpt>
      <trkpt lat="47.49369" lon="6.74354">
        <ele>370.8</ele>
        <time>2014-11-23T08:46:19.000Z</time>
      </trkpt>
      <trkpt lat="47.4937" lon="6.74351">
        <ele>370.7</ele>
        <time>2014-11-23T08:46:20.000Z</time>
      </trkpt>
      <trkpt lat="47.49371" lon="6.74345">
        <ele>369.6</ele>
        <time>2014-11-23T08:46:22.000Z</time>
      </trkpt>
      <trkpt lat="47.49371" lon="6.74342">
        <ele>369.7</ele>
        <time>2014-11-23T08:46:23.000Z</time>
      </trkpt>
      <trkpt lat="47.49371" lon="6.74335">
        <ele>369.9</ele>
        <time>2014-11-23T08:46:25.000Z</time>
      </trkpt>
      <trkpt lat="47.49371" lon="6.74332">
        <ele>370.6</ele>
        <time>2014-11-23T08:46:26.000Z</time>
      </trkpt>
      <trkpt lat="47.49372" lon="6.74327">
        <ele>369.8</ele>
        <time>2014-11-23T08:46:28.000Z</time>
      </trkpt>
      <trkpt lat="47.49372" lon="6.74321">
        <ele>370</ele>
        <time>2014-11-23T08:46:31.000Z</time>
      </trkpt>
      <trkpt lat="47.49373" lon="6.74315">
        <ele>370.9</ele>
        <time>2014-11-23T08:46:34.000Z</time>
      </trkpt>
      <trkpt lat="47.49373" lon="6.74312">
        <ele>371.1</ele>
        <time>2014-11-23T08:46:35.000Z</time>
      </trkpt>
      <trkpt lat="47.49374" lon="6.74308">
        <ele>371.7</ele>
        <time>2014-11-23T08:46:36.000Z</time>
      </trkpt>
      <trkpt lat="47.49374" lon="6.74304">
        <ele>372</ele>
        <time>2014-11-23T08:46:37.000Z</time>
      </trkpt>
      <trkpt lat="47.49375" lon="6.74298">
        <ele>372.4</ele>
        <time>2014-11-23T08:46:39.000Z</time>
      </trkpt>
      <trkpt lat="47.49375" lon="6.74295">
        <ele>372</ele>
        <time>2014-11-23T08:46:40.000Z</time>
      </trkpt>
      <trkpt lat="47.49375" lon="6.7429">
        <ele>373</ele>
        <time>2014-11-23T08:46:42.000Z</time>
      </trkpt>
      <trkpt lat="47.49375" lon="6.74287">
        <ele>372.8</ele>
        <time>2014-11-23T08:46:43.000Z</time>
      </trkpt>
      <trkpt lat="47.49375" lon="6.74283">
        <ele>372.1</ele>
        <time>2014-11-23T08:46:44.000Z</time>
      </trkpt>
      <trkpt lat="47.49375" lon="6.7428">
        <ele>372.1</ele>
        <time>2014-11-23T08:46:45.000Z</time>
      </trkpt>
      <trkpt lat="47.49376" lon="6.74276">
        <ele>372.4</ele>
        <time>2014-11-23T08:46:46.000Z</time>
      </trkpt>
      <trkpt lat="47.49376" lon="6.74272">
        <ele>374.2</ele>
        <time>2014-11-23T08:46:47.000Z</time>
      </trkpt>
      <trkpt lat="47.49377" lon="6.74268">
        <ele>375.3</ele>
        <time>2014-11-23T08:46:48.000Z</time>
      </trkpt>
      <trkpt lat="47.49378" lon="6.74265">
        <ele>376</ele>
        <time>2014-11-23T08:46:49.000Z</time>
      </trkpt>
      <trkpt lat="47.49379" lon="6.74261">
        <ele>375.5</ele>
        <time>2014-11-23T08:46:50.000Z</time>
      </trkpt>
      <trkpt lat="47.4938" lon="6.74258">
        <ele>375.2</ele>
        <time>2014-11-23T08:46:51.000Z</time>
      </trkpt>
      <trkpt lat="47.49382" lon="6.74253">
        <ele>375.7</ele>
        <time>2014-11-23T08:46:54.000Z</time>
      </trkpt>
      <trkpt lat="47.49383" lon="6.74251">
        <ele>376.7</ele>
        <time>2014-11-23T08:46:55.000Z</time>
      </trkpt>
      <trkpt lat="47.49384" lon="6.74245">
        <ele>378</ele>
        <time>2014-11-23T08:46:57.000Z</time>
      </trkpt>
      <trkpt lat="47.49385" lon="6.74241">
        <ele>377.7</ele>
        <time>2014-11-23T08:46:58.000Z</time>
      </trkpt>
      <trkpt lat="47.49386" lon="6.74236">
        <ele>376.6</ele>
        <time>2014-11-23T08:46:59.000Z</time>
      </trkpt>
      <trkpt lat="47.49387" lon="6.74232">
        <ele>376.2</ele>
        <time>2014-11-23T08:47:00.000Z</time>
      </trkpt>
      <trkpt lat="47.49389" lon="6.74228">
        <ele>375.8</ele>
        <time>2014-11-23T08:47:01.000Z</time>
      </trkpt>
      <trkpt lat="47.49389" lon="6.74223">
        <ele>372.9</ele>
        <time>2014-11-23T08:47:02.000Z</time>
      </trkpt>
      <trkpt lat="47.4939" lon="6.74218">
        <ele>372.2</ele>
        <time>2014-11-23T08:47:03.000Z</time>
      </trkpt>
      <trkpt lat="47.4939" lon="6.74213">
        <ele>371.6</ele>
        <time>2014-11-23T08:47:04.000Z</time>
      </trkpt>
      <trkpt lat="47.49389" lon="6.74209">
        <ele>371.6</ele>
        <time>2014-11-23T08:47:05.000Z</time>
      </trkpt>
      <trkpt lat="47.49389" lon="6.74205">
        <ele>371.6</ele>
        <time>2014-11-23T08:47:06.000Z</time>
      </trkpt>
      <trkpt lat="47.49389" lon="6.74201">
        <ele>371.5</ele>
        <time>2014-11-23T08:47:07.000Z</time>
      </trkpt>
      <trkpt lat="47.49389" lon="6.74196">
        <ele>371.7</ele>
        <time>2014-11-23T08:47:08.000Z</time>
      </trkpt>
      <trkpt lat="47.49389" lon="6.74191">
        <ele>371.8</ele>
        <time>2014-11-23T08:47:09.000Z</time>
      </trkpt>
      <trkpt lat="47.4939" lon="6.74184">
        <ele>370.7</ele>
        <time>2014-11-23T08:47:10.000Z</time>
      </trkpt>
      <trkpt lat="47.49391" lon="6.74178">
        <ele>370.1</ele>
        <time>2014-11-23T08:47:11.000Z</time>
      </trkpt>
      <trkpt lat="47.49392" lon="6.74171">
        <ele>370.5</ele>
        <time>2014-11-23T08:47:12.000Z</time>
      </trkpt>
      <trkpt lat="47.49394" lon="6.74165">
        <ele>370.4</ele>
        <time>2014-11-23T08:47:13.000Z</time>
      </trkpt>
      <trkpt lat="47.49395" lon="6.74159">
        <ele>369.3</ele>
        <time>2014-11-23T08:47:14.000Z</time>
      </trkpt>
      <trkpt lat="47.49395" lon="6.74153">
        <ele>369</ele>
        <time>2014-11-23T08:47:15.000Z</time>
      </trkpt>
      <trkpt lat="47.49396" lon="6.74147">
        <ele>368.5</ele>
        <time>2014-11-23T08:47:16.000Z</time>
      </trkpt>
      <trkpt lat="47.49397" lon="6.7414">
        <ele>368</ele>
        <time>2014-11-23T08:47:17.000Z</time>
      </trkpt>
      <trkpt lat="47.49398" lon="6.74133">
        <ele>367.3</ele>
        <time>2014-11-23T08:47:18.000Z</time>
      </trkpt>
      <trkpt lat="47.49399" lon="6.74126">
        <ele>367.7</ele>
        <time>2014-11-23T08:47:19.000Z</time>
      </trkpt>
      <trkpt lat="47.494" lon="6.74119">
        <ele>366.2</ele>
        <time>2014-11-23T08:47:20.000Z</time>
      </trkpt>
      <trkpt lat="47.49402" lon="6.74111">
        <ele>365.5</ele>
        <time>2014-11-23T08:47:21.000Z</time>
      </trkpt>
      <trkpt lat="47.49404" lon="6.74103">
        <ele>364.1</ele>
        <time>2014-11-23T08:47:22.000Z</time>
      </trkpt>
      <trkpt lat="47.49406" lon="6.74096">
        <ele>363.7</ele>
        <time>2014-11-23T08:47:23.000Z</time>
      </trkpt>
      <trkpt lat="47.49409" lon="6.74088">
        <ele>362.5</ele>
        <time>2014-11-23T08:47:24.000Z</time>
      </trkpt>
      <trkpt lat="47.49411" lon="6.74081">
        <ele>364.8</ele>
        <time>2014-11-23T08:47:25.000Z</time>
      </trkpt>
      <trkpt lat="47.49413" lon="6.74074">
        <ele>364.8</ele>
        <time>2014-11-23T08:47:26.000Z</time>
      </trkpt>
      <trkpt lat="47.49415" lon="6.74069">
        <ele>363.5</ele>
        <time>2014-11-23T08:47:27.000Z</time>
      </trkpt>
      <trkpt lat="47.49416" lon="6.74065">
        <ele>363.5</ele>
        <time>2014-11-23T08:47:28.000Z</time>
      </trkpt>
      <trkpt lat="47.49416" lon="6.74064">
        <ele>361.5</ele>
        <time>2014-11-23T08:47:29.000Z</time>
      </trkpt>
      <trkpt lat="47.49417" lon="6.74057">
        <ele>357.8</ele>
        <time>2014-11-23T08:47:37.000Z</time>
      </trkpt>
      <trkpt lat="47.49415" lon="6.74051">
        <ele>357.2</ele>
        <time>2014-11-23T08:48:10.000Z</time>
      </trkpt>
      <trkpt lat="47.49416" lon="6.7405">
        <ele>356.4</ele>
        <time>2014-11-23T08:48:11.000Z</time>
      </trkpt>
      <trkpt lat="47.49416" lon="6.74044">
        <ele>355.7</ele>
        <time>2014-11-23T08:48:14.000Z</time>
      </trkpt>
      <trkpt lat="47.49417" lon="6.74042">
        <ele>354.7</ele>
        <time>2014-11-23T08:48:15.000Z</time>
      </trkpt>
      <trkpt lat="47.49417" lon="6.74036">
        <ele>353.5</ele>
        <time>2014-11-23T08:48:17.000Z</time>
      </trkpt>
      <trkpt lat="47.49418" lon="6.74033">
        <ele>353.7</ele>
        <time>2014-11-23T08:48:18.000Z</time>
      </trkpt>
      <trkpt lat="47.49418" lon="6.74028">
        <ele>354.2</ele>
        <time>2014-11-23T08:48:20.000Z</time>
      </trkpt>
      <trkpt lat="47.49419" lon="6.74025">
        <ele>355.1</ele>
        <time>2014-11-23T08:48:21.000Z</time>
      </trkpt>
      <trkpt lat="47.49419" lon="6.74019">
        <ele>355.2</ele>
        <time>2014-11-23T08:48:24.000Z</time>
      </trkpt>
      <trkpt lat="47.49418" lon="6.74017">
        <ele>355.2</ele>
        <time>2014-11-23T08:48:25.000Z</time>
      </trkpt>
      <trkpt lat="47.49417" lon="6.74011">
        <ele>355.7</ele>
        <time>2014-11-23T08:48:28.000Z</time>
      </trkpt>
      <trkpt lat="47.49417" lon="6.74004">
        <ele>357.2</ele>
        <time>2014-11-23T08:48:31.000Z</time>
      </trkpt>
      <trkpt lat="47.49418" lon="6.73999">
        <ele>356.9</ele>
        <time>2014-11-23T08:48:33.000Z</time>
      </trkpt>
      <trkpt lat="47.49418" lon="6.73996">
        <ele>356.1</ele>
        <time>2014-11-23T08:48:34.000Z</time>
      </trkpt>
      <trkpt lat="47.49417" lon="6.73992">
        <ele>356.7</ele>
        <time>2014-11-23T08:48:35.000Z</time>
      </trkpt>
      <trkpt lat="47.49417" lon="6.73989">
        <ele>356.1</ele>
        <time>2014-11-23T08:48:36.000Z</time>
      </trkpt>
      <trkpt lat="47.49415" lon="6.73982">
        <ele>354.5</ele>
        <time>2014-11-23T08:48:38.000Z</time>
      </trkpt>
      <trkpt lat="47.49414" lon="6.73979">
        <ele>354</ele>
        <time>2014-11-23T08:48:39.000Z</time>
      </trkpt>
      <trkpt lat="47.49414" lon="6.73976">
        <ele>353.5</ele>
        <time>2014-11-23T08:48:40.000Z</time>
      </trkpt>
      <trkpt lat="47.49413" lon="6.73973">
        <ele>353.5</ele>
        <time>2014-11-23T08:48:41.000Z</time>
      </trkpt>
      <trkpt lat="47.49412" lon="6.7397">
        <ele>353.7</ele>
        <time>2014-11-23T08:48:42.000Z</time>
      </trkpt>
      <trkpt lat="47.49411" lon="6.73966">
        <ele>352.6</ele>
        <time>2014-11-23T08:48:43.000Z</time>
      </trkpt>
      <trkpt lat="47.4941" lon="6.73963">
        <ele>352.1</ele>
        <time>2014-11-23T08:48:44.000Z</time>
      </trkpt>
      <trkpt lat="47.4941" lon="6.73959">
        <ele>353.2</ele>
        <time>2014-11-23T08:48:45.000Z</time>
      </trkpt>
      <trkpt lat="47.49409" lon="6.73956">
        <ele>353.1</ele>
        <time>2014-11-23T08:48:46.000Z</time>
      </trkpt>
      <trkpt lat="47.49409" lon="6.73952">
        <ele>353.1</ele>
        <time>2014-11-23T08:48:47.000Z</time>
      </trkpt>
      <trkpt lat="47.49408" lon="6.73948">
        <ele>353.8</ele>
        <time>2014-11-23T08:48:48.000Z</time>
      </trkpt>
      <trkpt lat="47.49407" lon="6.73943">
        <ele>355</ele>
        <time>2014-11-23T08:48:49.000Z</time>
      </trkpt>
      <trkpt lat="47.49406" lon="6.73939">
        <ele>355.3</ele>
        <time>2014-11-23T08:48:50.000Z</time>
      </trkpt>
      <trkpt lat="47.49405" lon="6.73934">
        <ele>355.5</ele>
        <time>2014-11-23T08:48:51.000Z</time>
      </trkpt>
      <trkpt lat="47.49404" lon="6.73929">
        <ele>356.1</ele>
        <time>2014-11-23T08:48:52.000Z</time>
      </trkpt>
      <trkpt lat="47.49404" lon="6.73925">
        <ele>355.9</ele>
        <time>2014-11-23T08:48:53.000Z</time>
      </trkpt>
      <trkpt lat="47.49403" lon="6.73921">
        <ele>355.8</ele>
        <time>2014-11-23T08:48:54.000Z</time>
      </trkpt>
      <trkpt lat="47.49402" lon="6.73917">
        <ele>355.4</ele>
        <time>2014-11-23T08:48:55.000Z</time>
      </trkpt>
      <trkpt lat="47.494" lon="6.73913">
        <ele>354.9</ele>
        <time>2014-11-23T08:48:56.000Z</time>
      </trkpt>
      <trkpt lat="47.49399" lon="6.73909">
        <ele>354.5</ele>
        <time>2014-11-23T08:48:57.000Z</time>
      </trkpt>
      <trkpt lat="47.49397" lon="6.73906">
        <ele>351.9</ele>
        <time>2014-11-23T08:48:58.000Z</time>
      </trkpt>
      <trkpt lat="47.49395" lon="6.73903">
        <ele>351.4</ele>
        <time>2014-11-23T08:48:59.000Z</time>
      </trkpt>
      <trkpt lat="47.49394" lon="6.739">
        <ele>350.6</ele>
        <time>2014-11-23T08:49:00.000Z</time>
      </trkpt>
      <trkpt lat="47.49392" lon="6.73896">
        <ele>350.5</ele>
        <time>2014-11-23T08:49:01.000Z</time>
      </trkpt>
      <trkpt lat="47.49382" lon="6.73881">
        <ele>347.2</ele>
        <time>2014-11-23T08:49:02.000Z</time>
      </trkpt>
      <trkpt lat="47.49379" lon="6.73874">
        <ele>347.4</ele>
        <time>2014-11-23T08:49:03.000Z</time>
      </trkpt>
      <trkpt lat="47.49377" lon="6.73868">
        <ele>348</ele>
        <time>2014-11-23T08:49:04.000Z</time>
      </trkpt>
      <trkpt lat="47.49374" lon="6.73864">
        <ele>346.1</ele>
        <time>2014-11-23T08:49:05.000Z</time>
      </trkpt>
      <trkpt lat="47.4937" lon="6.73859">
        <ele>346</ele>
        <time>2014-11-23T08:49:06.000Z</time>
      </trkpt>
      <trkpt lat="47.49368" lon="6.73855">
        <ele>346</ele>
        <time>2014-11-23T08:49:07.000Z</time>
      </trkpt>
      <trkpt lat="47.49366" lon="6.73851">
        <ele>346.4</ele>
        <time>2014-11-23T08:49:08.000Z</time>
      </trkpt>
      <trkpt lat="47.49364" lon="6.73847">
        <ele>346.5</ele>
        <time>2014-11-23T08:49:10.000Z</time>
      </trkpt>
      <trkpt lat="47.49363" lon="6.73845">
        <ele>344.1</ele>
        <time>2014-11-23T08:49:11.000Z</time>
      </trkpt>
      <trkpt lat="47.49359" lon="6.73842">
        <ele>341.4</ele>
        <time>2014-11-23T08:49:13.000Z</time>
      </trkpt>
      <trkpt lat="47.49357" lon="6.73841">
        <ele>341.6</ele>
        <time>2014-11-23T08:49:14.000Z</time>
      </trkpt>
      <trkpt lat="47.49353" lon="6.73839">
        <ele>340.7</ele>
        <time>2014-11-23T08:49:16.000Z</time>
      </trkpt>
      <trkpt lat="47.49351" lon="6.73837">
        <ele>340.2</ele>
        <time>2014-11-23T08:49:17.000Z</time>
      </trkpt>
      <trkpt lat="47.49347" lon="6.73835">
        <ele>338.2</ele>
        <time>2014-11-23T08:49:19.000Z</time>
      </trkpt>
      <trkpt lat="47.49345" lon="6.73833">
        <ele>338</ele>
        <time>2014-11-23T08:49:20.000Z</time>
      </trkpt>
      <trkpt lat="47.49341" lon="6.7383">
        <ele>339.8</ele>
        <time>2014-11-23T08:49:22.000Z</time>
      </trkpt>
      <trkpt lat="47.49339" lon="6.73828">
        <ele>340.6</ele>
        <time>2014-11-23T08:49:23.000Z</time>
      </trkpt>
      <trkpt lat="47.49337" lon="6.73823">
        <ele>340.9</ele>
        <time>2014-11-23T08:49:25.000Z</time>
      </trkpt>
      <trkpt lat="47.49335" lon="6.73821">
        <ele>339.4</ele>
        <time>2014-11-23T08:49:26.000Z</time>
      </trkpt>
      <trkpt lat="47.49333" lon="6.73819">
        <ele>341.6</ele>
        <time>2014-11-23T08:49:27.000Z</time>
      </trkpt>
      <trkpt lat="47.49331" lon="6.73817">
        <ele>342.1</ele>
        <time>2014-11-23T08:49:28.000Z</time>
      </trkpt>
      <trkpt lat="47.49329" lon="6.73815">
        <ele>341</ele>
        <time>2014-11-23T08:49:29.000Z</time>
      </trkpt>
      <trkpt lat="47.49317" lon="6.73802">
        <ele>348.5</ele>
        <time>2014-11-23T08:49:37.000Z</time>
      </trkpt>
      <trkpt lat="47.49316" lon="6.73798">
        <ele>348</ele>
        <time>2014-11-23T08:49:39.000Z</time>
      </trkpt>
      <trkpt lat="47.49314" lon="6.73797">
        <ele>347.7</ele>
        <time>2014-11-23T08:49:40.000Z</time>
      </trkpt>
      <trkpt lat="47.49312" lon="6.73795">
        <ele>347.7</ele>
        <time>2014-11-23T08:49:41.000Z</time>
      </trkpt>
      <trkpt lat="47.4931" lon="6.73793">
        <ele>349.3</ele>
        <time>2014-11-23T08:49:42.000Z</time>
      </trkpt>
      <trkpt lat="47.49307" lon="6.73792">
        <ele>349.3</ele>
        <time>2014-11-23T08:49:43.000Z</time>
      </trkpt>
      <trkpt lat="47.49304" lon="6.7379">
        <ele>348.8</ele>
        <time>2014-11-23T08:49:44.000Z</time>
      </trkpt>
      <trkpt lat="47.49301" lon="6.73789">
        <ele>347.7</ele>
        <time>2014-11-23T08:49:45.000Z</time>
      </trkpt>
      <trkpt lat="47.49298" lon="6.73788">
        <ele>347.8</ele>
        <time>2014-11-23T08:49:46.000Z</time>
      </trkpt>
      <trkpt lat="47.49295" lon="6.73787">
        <ele>348</ele>
        <time>2014-11-23T08:49:47.000Z</time>
      </trkpt>
      <trkpt lat="47.49293" lon="6.73786">
        <ele>349.2</ele>
        <time>2014-11-23T08:49:48.000Z</time>
      </trkpt>
      <trkpt lat="47.4929" lon="6.73784">
        <ele>349.1</ele>
        <time>2014-11-23T08:49:49.000Z</time>
      </trkpt>
      <trkpt lat="47.49288" lon="6.73783">
        <ele>348.8</ele>
        <time>2014-11-23T08:49:50.000Z</time>
      </trkpt>
      <trkpt lat="47.49284" lon="6.7378">
        <ele>350.3</ele>
        <time>2014-11-23T08:49:52.000Z</time>
      </trkpt>
      <trkpt lat="47.49282" lon="6.73778">
        <ele>351</ele>
        <time>2014-11-23T08:49:53.000Z</time>
      </trkpt>
      <trkpt lat="47.49279" lon="6.73777">
        <ele>351.8</ele>
        <time>2014-11-23T08:49:55.000Z</time>
      </trkpt>
      <trkpt lat="47.49277" lon="6.73776">
        <ele>352</ele>
        <time>2014-11-23T08:49:56.000Z</time>
      </trkpt>
      <trkpt lat="47.49273" lon="6.73774">
        <ele>352</ele>
        <time>2014-11-23T08:49:58.000Z</time>
      </trkpt>
      <trkpt lat="47.49272" lon="6.73773">
        <ele>352.4</ele>
        <time>2014-11-23T08:49:59.000Z</time>
      </trkpt>
      <trkpt lat="47.49268" lon="6.73771">
        <ele>353.6</ele>
        <time>2014-11-23T08:50:01.000Z</time>
      </trkpt>
      <trkpt lat="47.49266" lon="6.7377">
        <ele>353.1</ele>
        <time>2014-11-23T08:50:02.000Z</time>
      </trkpt>
      <trkpt lat="47.49264" lon="6.73769">
        <ele>352.9</ele>
        <time>2014-11-23T08:50:03.000Z</time>
      </trkpt>
      <trkpt lat="47.49262" lon="6.73768">
        <ele>352.3</ele>
        <time>2014-11-23T08:50:04.000Z</time>
      </trkpt>
      <trkpt lat="47.49259" lon="6.73767">
        <ele>351.7</ele>
        <time>2014-11-23T08:50:05.000Z</time>
      </trkpt>
      <trkpt lat="47.49257" lon="6.73766">
        <ele>351.2</ele>
        <time>2014-11-23T08:50:06.000Z</time>
      </trkpt>
      <trkpt lat="47.49254" lon="6.73765">
        <ele>351.1</ele>
        <time>2014-11-23T08:50:07.000Z</time>
      </trkpt>
      <trkpt lat="47.49251" lon="6.73765">
        <ele>351</ele>
        <time>2014-11-23T08:50:08.000Z</time>
      </trkpt>
      <trkpt lat="47.49249" lon="6.73763">
        <ele>350.8</ele>
        <time>2014-11-23T08:50:09.000Z</time>
      </trkpt>
      <trkpt lat="47.49246" lon="6.73762">
        <ele>351</ele>
        <time>2014-11-23T08:50:10.000Z</time>
      </trkpt>
      <trkpt lat="47.49244" lon="6.7376">
        <ele>350.7</ele>
        <time>2014-11-23T08:50:11.000Z</time>
      </trkpt>
      <trkpt lat="47.49242" lon="6.73759">
        <ele>350.9</ele>
        <time>2014-11-23T08:50:12.000Z</time>
      </trkpt>
      <trkpt lat="47.49239" lon="6.73758">
        <ele>351.1</ele>
        <time>2014-11-23T08:50:13.000Z</time>
      </trkpt>
      <trkpt lat="47.49237" lon="6.73756">
        <ele>350.8</ele>
        <time>2014-11-23T08:50:14.000Z</time>
      </trkpt>
      <trkpt lat="47.49233" lon="6.73754">
        <ele>351.1</ele>
        <time>2014-11-23T08:50:16.000Z</time>
      </trkpt>
      <trkpt lat="47.49232" lon="6.73752">
        <ele>350.5</ele>
        <time>2014-11-23T08:50:17.000Z</time>
      </trkpt>
      <trkpt lat="47.49229" lon="6.73749">
        <ele>350.6</ele>
        <time>2014-11-23T08:50:19.000Z</time>
      </trkpt>
      <trkpt lat="47.49227" lon="6.73748">
        <ele>349.8</ele>
        <time>2014-11-23T08:50:20.000Z</time>
      </trkpt>
      <trkpt lat="47.49223" lon="6.73746">
        <ele>348</ele>
        <time>2014-11-23T08:50:22.000Z</time>
      </trkpt>
      <trkpt lat="47.49222" lon="6.73745">
        <ele>347.7</ele>
        <time>2014-11-23T08:50:23.000Z</time>
      </trkpt>
      <trkpt lat="47.49218" lon="6.73743">
        <ele>349.7</ele>
        <time>2014-11-23T08:50:26.000Z</time>
      </trkpt>
      <trkpt lat="47.49217" lon="6.73742">
        <ele>350.7</ele>
        <time>2014-11-23T08:50:27.000Z</time>
      </trkpt>
      <trkpt lat="47.49215" lon="6.73742">
        <ele>351.8</ele>
        <time>2014-11-23T08:50:28.000Z</time>
      </trkpt>
      <trkpt lat="47.4921" lon="6.7374">
        <ele>351.9</ele>
        <time>2014-11-23T08:50:31.000Z</time>
      </trkpt>
      <trkpt lat="47.49143" lon="6.73708">
        <ele>353.1</ele>
        <time>2014-11-23T08:50:58.000Z</time>
      </trkpt>
      <trkpt lat="47.4914" lon="6.73706">
        <ele>352.4</ele>
        <time>2014-11-23T08:51:00.000Z</time>
      </trkpt>
      <trkpt lat="47.49139" lon="6.73705">
        <ele>353.3</ele>
        <time>2014-11-23T08:51:01.000Z</time>
      </trkpt>
      <trkpt lat="47.49134" lon="6.73704">
        <ele>355.2</ele>
        <time>2014-11-23T08:51:04.000Z</time>
      </trkpt>
      <trkpt lat="47.49133" lon="6.73704">
        <ele>356.1</ele>
        <time>2014-11-23T08:51:05.000Z</time>
      </trkpt>
      <trkpt lat="47.4913" lon="6.73704">
        <ele>354.4</ele>
        <time>2014-11-23T08:51:08.000Z</time>
      </trkpt>
      <trkpt lat="47.49129" lon="6.73704">
        <ele>353.9</ele>
        <time>2014-11-23T08:51:09.000Z</time>
      </trkpt>
      <trkpt lat="47.49124" lon="6.73703">
        <ele>354.6</ele>
        <time>2014-11-23T08:51:18.000Z</time>
      </trkpt>
      <trkpt lat="47.49124" lon="6.73703">
        <ele>354.8</ele>
        <time>2014-11-23T08:51:19.000Z</time>
      </trkpt>
      <trkpt lat="47.49121" lon="6.73699">
        <ele>354.4</ele>
        <time>2014-11-23T08:51:27.000Z</time>
      </trkpt>
      <trkpt lat="47.49121" lon="6.73698">
        <ele>355.3</ele>
        <time>2014-11-23T08:51:28.000Z</time>
      </trkpt>
      <trkpt lat="47.49117" lon="6.73695">
        <ele>359.7</ele>
        <time>2014-11-23T08:51:49.000Z</time>
      </trkpt>
      <trkpt lat="47.49116" lon="6.73694">
        <ele>360.5</ele>
        <time>2014-11-23T08:51:50.000Z</time>
      </trkpt>
      <trkpt lat="47.49114" lon="6.73689">
        <ele>362.1</ele>
        <time>2014-11-23T08:51:54.000Z</time>
      </trkpt>
      <trkpt lat="47.49113" lon="6.73688">
        <ele>362.5</ele>
        <time>2014-11-23T08:51:55.000Z</time>
      </trkpt>
      <trkpt lat="47.49111" lon="6.73684">
        <ele>362.1</ele>
        <time>2014-11-23T08:51:57.000Z</time>
      </trkpt>
      <trkpt lat="47.4911" lon="6.73683">
        <ele>362.4</ele>
        <time>2014-11-23T08:51:58.000Z</time>
      </trkpt>
      <trkpt lat="47.49107" lon="6.7368">
        <ele>364.2</ele>
        <time>2014-11-23T08:52:00.000Z</time>
      </trkpt>
      <trkpt lat="47.49106" lon="6.73678">
        <ele>360.3</ele>
        <time>2014-11-23T08:52:01.000Z</time>
      </trkpt>
      <trkpt lat="47.49105" lon="6.73672">
        <ele>359.4</ele>
        <time>2014-11-23T08:52:04.000Z</time>
      </trkpt>
      <trkpt lat="47.49104" lon="6.7367">
        <ele>359.5</ele>
        <time>2014-11-23T08:52:05.000Z</time>
      </trkpt>
      <trkpt lat="47.491" lon="6.73669">
        <ele>360.6</ele>
        <time>2014-11-23T08:52:09.000Z</time>
      </trkpt>
      <trkpt lat="47.49098" lon="6.73668">
        <ele>360.7</ele>
        <time>2014-11-23T08:52:10.000Z</time>
      </trkpt>
      <trkpt lat="47.49095" lon="6.73667">
        <ele>360.3</ele>
        <time>2014-11-23T08:52:12.000Z</time>
      </trkpt>
      <trkpt lat="47.49093" lon="6.73666">
        <ele>360.4</ele>
        <time>2014-11-23T08:52:13.000Z</time>
      </trkpt>
      <trkpt lat="47.49089" lon="6.73664">
        <ele>358.7</ele>
        <time>2014-11-23T08:52:17.000Z</time>
      </trkpt>
      <trkpt lat="47.49089" lon="6.73664">
        <ele>358.6</ele>
        <time>2014-11-23T08:52:18.000Z</time>
      </trkpt>
      <trkpt lat="47.49085" lon="6.73662">
        <ele>358.1</ele>
        <time>2014-11-23T08:52:24.000Z</time>
      </trkpt>
      <trkpt lat="47.49083" lon="6.73662">
        <ele>357.8</ele>
        <time>2014-11-23T08:52:25.000Z</time>
      </trkpt>
      <trkpt lat="47.49079" lon="6.73663">
        <ele>358.2</ele>
        <time>2014-11-23T08:52:28.000Z</time>
      </trkpt>
      <trkpt lat="47.49078" lon="6.73663">
        <ele>359</ele>
        <time>2014-11-23T08:52:32.000Z</time>
      </trkpt>
      <trkpt lat="47.49074" lon="6.7366">
        <ele>361.2</ele>
        <time>2014-11-23T08:52:40.000Z</time>
      </trkpt>
      <trkpt lat="47.49073" lon="6.7366">
        <ele>362.5</ele>
        <time>2014-11-23T08:52:41.000Z</time>
      </trkpt>
      <trkpt lat="47.49069" lon="6.7366">
        <ele>366.2</ele>
        <time>2014-11-23T08:52:46.000Z</time>
      </trkpt>
      <trkpt lat="47.49068" lon="6.73659">
        <ele>366.5</ele>
        <time>2014-11-23T08:52:47.000Z</time>
      </trkpt>
      <trkpt lat="47.49064" lon="6.73659">
        <ele>368.4</ele>
        <time>2014-11-23T08:52:50.000Z</time>
      </trkpt>
      <trkpt lat="47.49063" lon="6.73659">
        <ele>369.7</ele>
        <time>2014-11-23T08:52:51.000Z</time>
      </trkpt>
      <trkpt lat="47.49059" lon="6.73659">
        <ele>370.5</ele>
        <time>2014-11-23T08:52:53.000Z</time>
      </trkpt>
      <trkpt lat="47.49058" lon="6.73659">
        <ele>370.4</ele>
        <time>2014-11-23T08:52:54.000Z</time>
      </trkpt>
      <trkpt lat="47.49055" lon="6.73656">
        <ele>370.7</ele>
        <time>2014-11-23T08:52:59.000Z</time>
      </trkpt>
      <trkpt lat="47.49054" lon="6.73654">
        <ele>370.9</ele>
        <time>2014-11-23T08:53:00.000Z</time>
      </trkpt>
      <trkpt lat="47.4905" lon="6.73652">
        <ele>370.6</ele>
        <time>2014-11-23T08:53:05.000Z</time>
      </trkpt>
      <trkpt lat="47.49049" lon="6.73652">
        <ele>371.2</ele>
        <time>2014-11-23T08:53:06.000Z</time>
      </trkpt>
      <trkpt lat="47.49046" lon="6.73649">
        <ele>371.8</ele>
        <time>2014-11-23T08:53:09.000Z</time>
      </trkpt>
      <trkpt lat="47.49045" lon="6.73648">
        <ele>371.8</ele>
        <time>2014-11-23T08:53:10.000Z</time>
      </trkpt>
      <trkpt lat="47.49041" lon="6.73646">
        <ele>369.9</ele>
        <time>2014-11-23T08:53:14.000Z</time>
      </trkpt>
      <trkpt lat="47.4904" lon="6.73645">
        <ele>370</ele>
        <time>2014-11-23T08:53:15.000Z</time>
      </trkpt>
      <trkpt lat="47.49036" lon="6.73645">
        <ele>371</ele>
        <time>2014-11-23T08:53:20.000Z</time>
      </trkpt>
      <trkpt lat="47.49034" lon="6.73645">
        <ele>372.4</ele>
        <time>2014-11-23T08:53:21.000Z</time>
      </trkpt>
      <trkpt lat="47.4903" lon="6.73647">
        <ele>374</ele>
        <time>2014-11-23T08:53:45.000Z</time>
      </trkpt>
      <trkpt lat="47.49027" lon="6.73647">
        <ele>371.8</ele>
        <time>2014-11-23T08:53:46.000Z</time>
      </trkpt>
      <trkpt lat="47.49023" lon="6.73646">
        <ele>370.5</ele>
        <time>2014-11-23T08:53:48.000Z</time>
      </trkpt>
      <trkpt lat="47.4902" lon="6.73645">
        <ele>369.9</ele>
        <time>2014-11-23T08:53:49.000Z</time>
      </trkpt>
      <trkpt lat="47.49017" lon="6.73645">
        <ele>370.6</ele>
        <time>2014-11-23T08:53:50.000Z</time>
      </trkpt>
      <trkpt lat="47.49014" lon="6.73644">
        <ele>371.3</ele>
        <time>2014-11-23T08:53:51.000Z</time>
      </trkpt>
      <trkpt lat="47.49012" lon="6.73644">
        <ele>371.1</ele>
        <time>2014-11-23T08:53:52.000Z</time>
      </trkpt>
      <trkpt lat="47.49009" lon="6.73644">
        <ele>371.7</ele>
        <time>2014-11-23T08:53:53.000Z</time>
      </trkpt>
      <trkpt lat="47.49006" lon="6.73644">
        <ele>373.3</ele>
        <time>2014-11-23T08:53:55.000Z</time>
      </trkpt>
      <trkpt lat="47.49004" lon="6.73643">
        <ele>375.2</ele>
        <time>2014-11-23T08:53:56.000Z</time>
      </trkpt>
      <trkpt lat="47.49001" lon="6.73642">
        <ele>374.1</ele>
        <time>2014-11-23T08:53:57.000Z</time>
      </trkpt>
      <trkpt lat="47.48999" lon="6.7364">
        <ele>374.7</ele>
        <time>2014-11-23T08:53:58.000Z</time>
      </trkpt>
      <trkpt lat="47.48995" lon="6.73639">
        <ele>373.1</ele>
        <time>2014-11-23T08:54:00.000Z</time>
      </trkpt>
      <trkpt lat="47.48993" lon="6.73639">
        <ele>373.1</ele>
        <time>2014-11-23T08:54:01.000Z</time>
      </trkpt>
      <trkpt lat="47.4899" lon="6.73638">
        <ele>375.9</ele>
        <time>2014-11-23T08:54:03.000Z</time>
      </trkpt>
      <trkpt lat="47.48988" lon="6.73638">
        <ele>374.9</ele>
        <time>2014-11-23T08:54:04.000Z</time>
      </trkpt>
      <trkpt lat="47.48985" lon="6.73637">
        <ele>374</ele>
        <time>2014-11-23T08:54:06.000Z</time>
      </trkpt>
      <trkpt lat="47.48983" lon="6.73636">
        <ele>374.7</ele>
        <time>2014-11-23T08:54:07.000Z</time>
      </trkpt>
      <trkpt lat="47.48979" lon="6.73635">
        <ele>376.6</ele>
        <time>2014-11-23T08:54:10.000Z</time>
      </trkpt>
      <trkpt lat="47.48978" lon="6.73635">
        <ele>377.2</ele>
        <time>2014-11-23T08:54:11.000Z</time>
      </trkpt>
      <trkpt lat="47.48973" lon="6.73635">
        <ele>377.4</ele>
        <time>2014-11-23T08:54:14.000Z</time>
      </trkpt>
      <trkpt lat="47.48972" lon="6.73635">
        <ele>377.4</ele>
        <time>2014-11-23T08:54:15.000Z</time>
      </trkpt>
      <trkpt lat="47.48968" lon="6.73635">
        <ele>378</ele>
        <time>2014-11-23T08:54:19.000Z</time>
      </trkpt>
      <trkpt lat="47.48966" lon="6.73635">
        <ele>377.5</ele>
        <time>2014-11-23T08:54:20.000Z</time>
      </trkpt>
      <trkpt lat="47.48963" lon="6.73634">
        <ele>380.4</ele>
        <time>2014-11-23T08:54:22.000Z</time>
      </trkpt>
      <trkpt lat="47.48961" lon="6.73634">
        <ele>379.9</ele>
        <time>2014-11-23T08:54:23.000Z</time>
      </trkpt>
      <trkpt lat="47.48958" lon="6.73633">
        <ele>380.2</ele>
        <time>2014-11-23T08:54:26.000Z</time>
      </trkpt>
      <trkpt lat="47.48956" lon="6.73633">
        <ele>379.4</ele>
        <time>2014-11-23T08:54:27.000Z</time>
      </trkpt>
      <trkpt lat="47.48954" lon="6.73632">
        <ele>378.2</ele>
        <time>2014-11-23T08:54:28.000Z</time>
      </trkpt>
      <trkpt lat="47.48947" lon="6.7363">
        <ele>378.2</ele>
        <time>2014-11-23T08:54:32.000Z</time>
      </trkpt>
      <trkpt lat="47.48943" lon="6.7363">
        <ele>378.4</ele>
        <time>2014-11-23T08:54:35.000Z</time>
      </trkpt>
      <trkpt lat="47.48942" lon="6.7363">
        <ele>378.3</ele>
        <time>2014-11-23T08:54:36.000Z</time>
      </trkpt>
      <trkpt lat="47.48938" lon="6.73631">
        <ele>378.9</ele>
        <time>2014-11-23T08:54:39.000Z</time>
      </trkpt>
      <trkpt lat="47.48937" lon="6.73631">
        <ele>378.8</ele>
        <time>2014-11-23T08:54:40.000Z</time>
      </trkpt>
      <trkpt lat="47.48934" lon="6.73627">
        <ele>379.8</ele>
        <time>2014-11-23T08:54:44.000Z</time>
      </trkpt>
      <trkpt lat="47.48933" lon="6.73625">
        <ele>379.5</ele>
        <time>2014-11-23T08:54:45.000Z</time>
      </trkpt>
      <trkpt lat="47.48929" lon="6.73622">
        <ele>377.6</ele>
        <time>2014-11-23T08:54:48.000Z</time>
      </trkpt>
      <trkpt lat="47.48928" lon="6.73622">
        <ele>376.6</ele>
        <time>2014-11-23T08:54:49.000Z</time>
      </trkpt>
      <trkpt lat="47.48924" lon="6.73623">
        <ele>377.2</ele>
        <time>2014-11-23T08:54:53.000Z</time>
      </trkpt>
      <trkpt lat="47.48923" lon="6.73623">
        <ele>377</ele>
        <time>2014-11-23T08:54:54.000Z</time>
      </trkpt>
      <trkpt lat="47.48919" lon="6.73623">
        <ele>376.5</ele>
        <time>2014-11-23T08:54:58.000Z</time>
      </trkpt>
      <trkpt lat="47.48918" lon="6.73622">
        <ele>376.4</ele>
        <time>2014-11-23T08:54:59.000Z</time>
      </trkpt>
      <trkpt lat="47.48915" lon="6.7362">
        <ele>376.1</ele>
        <time>2014-11-23T08:55:02.000Z</time>
      </trkpt>
      <trkpt lat="47.48914" lon="6.7362">
        <ele>376.2</ele>
        <time>2014-11-23T08:55:03.000Z</time>
      </trkpt>
      <trkpt lat="47.48916" lon="6.73626">
        <ele>375.1</ele>
        <time>2014-11-23T08:55:11.000Z</time>
      </trkpt>
      <trkpt lat="47.48916" lon="6.73626">
        <ele>374.9</ele>
        <time>2014-11-23T08:55:12.000Z</time>
      </trkpt>
      <trkpt lat="47.48912" lon="6.73624">
        <ele>372.9</ele>
        <time>2014-11-23T08:55:21.000Z</time>
      </trkpt>
      <trkpt lat="47.48911" lon="6.73624">
        <ele>373.5</ele>
        <time>2014-11-23T08:55:22.000Z</time>
      </trkpt>
      <trkpt lat="47.48908" lon="6.73624">
        <ele>373</ele>
        <time>2014-11-23T08:55:25.000Z</time>
      </trkpt>
      <trkpt lat="47.48906" lon="6.73624">
        <ele>373</ele>
        <time>2014-11-23T08:55:26.000Z</time>
      </trkpt>
      <trkpt lat="47.48904" lon="6.73625">
        <ele>373</ele>
        <time>2014-11-23T08:55:28.000Z</time>
      </trkpt>
      <trkpt lat="47.489" lon="6.73626">
        <ele>371.9</ele>
        <time>2014-11-23T08:55:32.000Z</time>
      </trkpt>
      <trkpt lat="47.48897" lon="6.73624">
        <ele>372.5</ele>
        <time>2014-11-23T08:55:36.000Z</time>
      </trkpt>
      <trkpt lat="47.48896" lon="6.73623">
        <ele>372.7</ele>
        <time>2014-11-23T08:55:37.000Z</time>
      </trkpt>
      <trkpt lat="47.48891" lon="6.73621">
        <ele>375.4</ele>
        <time>2014-11-23T08:55:42.000Z</time>
      </trkpt>
      <trkpt lat="47.48891" lon="6.7362">
        <ele>375.5</ele>
        <time>2014-11-23T08:55:43.000Z</time>
      </trkpt>
      <trkpt lat="47.48892" lon="6.73614">
        <ele>376.4</ele>
        <time>2014-11-23T08:58:11.000Z</time>
      </trkpt>
      <trkpt lat="47.48893" lon="6.73613">
        <ele>379.1</ele>
        <time>2014-11-23T08:58:12.000Z</time>
      </trkpt>
      <trkpt lat="47.48896" lon="6.7361">
        <ele>381.1</ele>
        <time>2014-11-23T08:58:15.000Z</time>
      </trkpt>
      <trkpt lat="47.48898" lon="6.73609">
        <ele>382.2</ele>
        <time>2014-11-23T08:58:16.000Z</time>
      </trkpt>
      <trkpt lat="47.48902" lon="6.73607">
        <ele>383.8</ele>
        <time>2014-11-23T08:58:18.000Z</time>
      </trkpt>
      <trkpt lat="47.48904" lon="6.73606">
        <ele>384.1</ele>
        <time>2014-11-23T08:58:19.000Z</time>
      </trkpt>
      <trkpt lat="47.48907" lon="6.73605">
        <ele>384.3</ele>
        <time>2014-11-23T08:58:20.000Z</time>
      </trkpt>
      <trkpt lat="47.48909" lon="6.73604">
        <ele>384.6</ele>
        <time>2014-11-23T08:58:21.000Z</time>
      </trkpt>
      <trkpt lat="47.48911" lon="6.73602">
        <ele>384.3</ele>
        <time>2014-11-23T08:58:22.000Z</time>
      </trkpt>
      <trkpt lat="47.48913" lon="6.73601">
        <ele>385.1</ele>
        <time>2014-11-23T08:58:23.000Z</time>
      </trkpt>
      <trkpt lat="47.48917" lon="6.73597">
        <ele>385.2</ele>
        <time>2014-11-23T08:58:25.000Z</time>
      </trkpt>
      <trkpt lat="47.48919" lon="6.73596">
        <ele>386.7</ele>
        <time>2014-11-23T08:58:26.000Z</time>
      </trkpt>
      <trkpt lat="47.48921" lon="6.73593">
        <ele>386.4</ele>
        <time>2014-11-23T08:58:27.000Z</time>
      </trkpt>
      <trkpt lat="47.48922" lon="6.73591">
        <ele>387.8</ele>
        <time>2014-11-23T08:58:28.000Z</time>
      </trkpt>
      <trkpt lat="47.48929" lon="6.73584">
        <ele>384.6</ele>
        <time>2014-11-23T08:58:32.000Z</time>
      </trkpt>
      <trkpt lat="47.48931" lon="6.73581">
        <ele>384.7</ele>
        <time>2014-11-23T08:58:33.000Z</time>
      </trkpt>
      <trkpt lat="47.48933" lon="6.73579">
        <ele>384.7</ele>
        <time>2014-11-23T08:58:34.000Z</time>
      </trkpt>
      <trkpt lat="47.48935" lon="6.73576">
        <ele>385.4</ele>
        <time>2014-11-23T08:58:35.000Z</time>
      </trkpt>
      <trkpt lat="47.48937" lon="6.73574">
        <ele>385.1</ele>
        <time>2014-11-23T08:58:36.000Z</time>
      </trkpt>
      <trkpt lat="47.4894" lon="6.73572">
        <ele>385.4</ele>
        <time>2014-11-23T08:58:37.000Z</time>
      </trkpt>
      <trkpt lat="47.48942" lon="6.7357">
        <ele>386.2</ele>
        <time>2014-11-23T08:58:38.000Z</time>
      </trkpt>
      <trkpt lat="47.48944" lon="6.73568">
        <ele>386.3</ele>
        <time>2014-11-23T08:58:39.000Z</time>
      </trkpt>
      <trkpt lat="47.48946" lon="6.73565">
        <ele>386.5</ele>
        <time>2014-11-23T08:58:40.000Z</time>
      </trkpt>
      <trkpt lat="47.48948" lon="6.73563">
        <ele>387.1</ele>
        <time>2014-11-23T08:58:41.000Z</time>
      </trkpt>
      <trkpt lat="47.4895" lon="6.7356">
        <ele>387.4</ele>
        <time>2014-11-23T08:58:42.000Z</time>
      </trkpt>
      <trkpt lat="47.48951" lon="6.73557">
        <ele>387.8</ele>
        <time>2014-11-23T08:58:43.000Z</time>
      </trkpt>
      <trkpt lat="47.48954" lon="6.73554">
        <ele>386.8</ele>
        <time>2014-11-23T08:58:44.000Z</time>
      </trkpt>
      <trkpt lat="47.48956" lon="6.73551">
        <ele>388.1</ele>
        <time>2014-11-23T08:58:45.000Z</time>
      </trkpt>
      <trkpt lat="47.48959" lon="6.73549">
        <ele>387.5</ele>
        <time>2014-11-23T08:58:46.000Z</time>
      </trkpt>
      <trkpt lat="47.48962" lon="6.73547">
        <ele>387.6</ele>
        <time>2014-11-23T08:58:47.000Z</time>
      </trkpt>
      <trkpt lat="47.48965" lon="6.73544">
        <ele>388.2</ele>
        <time>2014-11-23T08:58:48.000Z</time>
      </trkpt>
      <trkpt lat="47.48968" lon="6.73542">
        <ele>388.8</ele>
        <time>2014-11-23T08:58:49.000Z</time>
      </trkpt>
      <trkpt lat="47.48971" lon="6.7354">
        <ele>389.1</ele>
        <time>2014-11-23T08:58:50.000Z</time>
      </trkpt>
      <trkpt lat="47.48975" lon="6.73538">
        <ele>389.5</ele>
        <time>2014-11-23T08:58:51.000Z</time>
      </trkpt>
      <trkpt lat="47.48978" lon="6.73536">
        <ele>389.7</ele>
        <time>2014-11-23T08:58:52.000Z</time>
      </trkpt>
      <trkpt lat="47.48981" lon="6.73534">
        <ele>389.3</ele>
        <time>2014-11-23T08:58:53.000Z</time>
      </trkpt>
      <trkpt lat="47.48984" lon="6.73533">
        <ele>389.2</ele>
        <time>2014-11-23T08:58:54.000Z</time>
      </trkpt>
      <trkpt lat="47.48987" lon="6.73532">
        <ele>389.5</ele>
        <time>2014-11-23T08:58:55.000Z</time>
      </trkpt>
      <trkpt lat="47.48991" lon="6.73532">
        <ele>389.6</ele>
        <time>2014-11-23T08:58:56.000Z</time>
      </trkpt>
      <trkpt lat="47.48994" lon="6.7353">
        <ele>389.2</ele>
        <time>2014-11-23T08:58:57.000Z</time>
      </trkpt>
      <trkpt lat="47.48998" lon="6.73529">
        <ele>389.2</ele>
        <time>2014-11-23T08:58:58.000Z</time>
      </trkpt>
      <trkpt lat="47.49001" lon="6.73528">
        <ele>389.6</ele>
        <time>2014-11-23T08:58:59.000Z</time>
      </trkpt>
      <trkpt lat="47.49004" lon="6.73527">
        <ele>390.3</ele>
        <time>2014-11-23T08:59:00.000Z</time>
      </trkpt>
      <trkpt lat="47.49007" lon="6.73526">
        <ele>391.1</ele>
        <time>2014-11-23T08:59:01.000Z</time>
      </trkpt>
      <trkpt lat="47.49011" lon="6.73524">
        <ele>391.5</ele>
        <time>2014-11-23T08:59:02.000Z</time>
      </trkpt>
      <trkpt lat="47.49014" lon="6.73522">
        <ele>391.5</ele>
        <time>2014-11-23T08:59:03.000Z</time>
      </trkpt>
      <trkpt lat="47.49017" lon="6.7352">
        <ele>391.5</ele>
        <time>2014-11-23T08:59:04.000Z</time>
      </trkpt>
      <trkpt lat="47.49021" lon="6.73518">
        <ele>393</ele>
        <time>2014-11-23T08:59:05.000Z</time>
      </trkpt>
      <trkpt lat="47.49024" lon="6.73517">
        <ele>394.9</ele>
        <time>2014-11-23T08:59:06.000Z</time>
      </trkpt>
      <trkpt lat="47.49027" lon="6.73515">
        <ele>395.1</ele>
        <time>2014-11-23T08:59:07.000Z</time>
      </trkpt>
      <trkpt lat="47.4903" lon="6.73513">
        <ele>394.9</ele>
        <time>2014-11-23T08:59:08.000Z</time>
      </trkpt>
      <trkpt lat="47.49034" lon="6.73511">
        <ele>395</ele>
        <time>2014-11-23T08:59:09.000Z</time>
      </trkpt>
      <trkpt lat="47.49037" lon="6.73508">
        <ele>395.1</ele>
        <time>2014-11-23T08:59:10.000Z</time>
      </trkpt>
      <trkpt lat="47.4904" lon="6.73505">
        <ele>395.4</ele>
        <time>2014-11-23T08:59:11.000Z</time>
      </trkpt>
      <trkpt lat="47.49043" lon="6.73502">
        <ele>395</ele>
        <time>2014-11-23T08:59:12.000Z</time>
      </trkpt>
      <trkpt lat="47.49046" lon="6.73498">
        <ele>393.7</ele>
        <time>2014-11-23T08:59:13.000Z</time>
      </trkpt>
      <trkpt lat="47.49049" lon="6.73493">
        <ele>394.4</ele>
        <time>2014-11-23T08:59:14.000Z</time>
      </trkpt>
      <trkpt lat="47.49051" lon="6.73488">
        <ele>394.7</ele>
        <time>2014-11-23T08:59:15.000Z</time>
      </trkpt>
      <trkpt lat="47.49053" lon="6.73482">
        <ele>394.3</ele>
        <time>2014-11-23T08:59:16.000Z</time>
      </trkpt>
      <trkpt lat="47.49055" lon="6.73477">
        <ele>394.2</ele>
        <time>2014-11-23T08:59:17.000Z</time>
      </trkpt>
      <trkpt lat="47.49056" lon="6.73472">
        <ele>394.1</ele>
        <time>2014-11-23T08:59:18.000Z</time>
      </trkpt>
      <trkpt lat="47.49057" lon="6.73467">
        <ele>394</ele>
        <time>2014-11-23T08:59:19.000Z</time>
      </trkpt>
      <trkpt lat="47.49058" lon="6.73462">
        <ele>393.7</ele>
        <time>2014-11-23T08:59:20.000Z</time>
      </trkpt>
      <trkpt lat="47.49058" lon="6.73457">
        <ele>393.5</ele>
        <time>2014-11-23T08:59:21.000Z</time>
      </trkpt>
      <trkpt lat="47.4906" lon="6.73452">
        <ele>391.4</ele>
        <time>2014-11-23T08:59:22.000Z</time>
      </trkpt>
      <trkpt lat="47.49062" lon="6.73446">
        <ele>392.8</ele>
        <time>2014-11-23T08:59:23.000Z</time>
      </trkpt>
      <trkpt lat="47.49064" lon="6.7344">
        <ele>393</ele>
        <time>2014-11-23T08:59:24.000Z</time>
      </trkpt>
      <trkpt lat="47.49066" lon="6.73433">
        <ele>393.1</ele>
        <time>2014-11-23T08:59:25.000Z</time>
      </trkpt>
      <trkpt lat="47.49068" lon="6.73427">
        <ele>392.7</ele>
        <time>2014-11-23T08:59:26.000Z</time>
      </trkpt>
      <trkpt lat="47.4907" lon="6.73421">
        <ele>393.5</ele>
        <time>2014-11-23T08:59:27.000Z</time>
      </trkpt>
      <trkpt lat="47.49072" lon="6.73416">
        <ele>393.4</ele>
        <time>2014-11-23T08:59:28.000Z</time>
      </trkpt>
      <trkpt lat="47.49078" lon="6.73405">
        <ele>384.5</ele>
        <time>2014-11-23T08:59:31.000Z</time>
      </trkpt>
      <trkpt lat="47.4908" lon="6.73401">
        <ele>383.4</ele>
        <time>2014-11-23T08:59:32.000Z</time>
      </trkpt>
      <trkpt lat="47.49083" lon="6.73396">
        <ele>381.8</ele>
        <time>2014-11-23T08:59:33.000Z</time>
      </trkpt>
      <trkpt lat="47.49085" lon="6.73392">
        <ele>381.4</ele>
        <time>2014-11-23T08:59:34.000Z</time>
      </trkpt>
      <trkpt lat="47.49088" lon="6.73387">
        <ele>381.1</ele>
        <time>2014-11-23T08:59:35.000Z</time>
      </trkpt>
      <trkpt lat="47.49091" lon="6.73381">
        <ele>380.8</ele>
        <time>2014-11-23T08:59:36.000Z</time>
      </trkpt>
      <trkpt lat="47.49093" lon="6.73376">
        <ele>381.3</ele>
        <time>2014-11-23T08:59:37.000Z</time>
      </trkpt>
      <trkpt lat="47.49095" lon="6.73372">
        <ele>382.9</ele>
        <time>2014-11-23T08:59:38.000Z</time>
      </trkpt>
      <trkpt lat="47.49097" lon="6.73368">
        <ele>383.3</ele>
        <time>2014-11-23T08:59:39.000Z</time>
      </trkpt>
      <trkpt lat="47.49099" lon="6.73363">
        <ele>382.4</ele>
        <time>2014-11-23T08:59:40.000Z</time>
      </trkpt>
      <trkpt lat="47.491" lon="6.73358">
        <ele>382.1</ele>
        <time>2014-11-23T08:59:41.000Z</time>
      </trkpt>
      <trkpt lat="47.49101" lon="6.73354">
        <ele>382.2</ele>
        <time>2014-11-23T08:59:42.000Z</time>
      </trkpt>
      <trkpt lat="47.49102" lon="6.73349">
        <ele>382.2</ele>
        <time>2014-11-23T08:59:43.000Z</time>
      </trkpt>
      <trkpt lat="47.49102" lon="6.73346">
        <ele>383.2</ele>
        <time>2014-11-23T08:59:44.000Z</time>
      </trkpt>
      <trkpt lat="47.49103" lon="6.73343">
        <ele>383.9</ele>
        <time>2014-11-23T08:59:45.000Z</time>
      </trkpt>
      <trkpt lat="47.49103" lon="6.73336">
        <ele>384.4</ele>
        <time>2014-11-23T08:59:47.000Z</time>
      </trkpt>
      <trkpt lat="47.49104" lon="6.73332">
        <ele>388.6</ele>
        <time>2014-11-23T08:59:48.000Z</time>
      </trkpt>
      <trkpt lat="47.49105" lon="6.73327">
        <ele>389.8</ele>
        <time>2014-11-23T08:59:49.000Z</time>
      </trkpt>
      <trkpt lat="47.49106" lon="6.73322">
        <ele>390.6</ele>
        <time>2014-11-23T08:59:50.000Z</time>
      </trkpt>
      <trkpt lat="47.49107" lon="6.73318">
        <ele>391.2</ele>
        <time>2014-11-23T08:59:51.000Z</time>
      </trkpt>
      <trkpt lat="47.49108" lon="6.73313">
        <ele>391.7</ele>
        <time>2014-11-23T08:59:52.000Z</time>
      </trkpt>
      <trkpt lat="47.49109" lon="6.73309">
        <ele>391.9</ele>
        <time>2014-11-23T08:59:53.000Z</time>
      </trkpt>
      <trkpt lat="47.4911" lon="6.73305">
        <ele>391.6</ele>
        <time>2014-11-23T08:59:54.000Z</time>
      </trkpt>
      <trkpt lat="47.49112" lon="6.73301">
        <ele>391.4</ele>
        <time>2014-11-23T08:59:55.000Z</time>
      </trkpt>
      <trkpt lat="47.49114" lon="6.73297">
        <ele>390.3</ele>
        <time>2014-11-23T08:59:56.000Z</time>
      </trkpt>
      <trkpt lat="47.49116" lon="6.73293">
        <ele>393.4</ele>
        <time>2014-11-23T08:59:57.000Z</time>
      </trkpt>
      <trkpt lat="47.49118" lon="6.7329">
        <ele>395.2</ele>
        <time>2014-11-23T08:59:58.000Z</time>
      </trkpt>
      <trkpt lat="47.49121" lon="6.73286">
        <ele>396.1</ele>
        <time>2014-11-23T08:59:59.000Z</time>
      </trkpt>
      <trkpt lat="47.49124" lon="6.73283">
        <ele>395.8</ele>
        <time>2014-11-23T09:00:00.000Z</time>
      </trkpt>
      <trkpt lat="47.49127" lon="6.7328">
        <ele>396.5</ele>
        <time>2014-11-23T09:00:01.000Z</time>
      </trkpt>
      <trkpt lat="47.49129" lon="6.73276">
        <ele>397</ele>
        <time>2014-11-23T09:00:02.000Z</time>
      </trkpt>
      <trkpt lat="47.49132" lon="6.73273">
        <ele>396.7</ele>
        <time>2014-11-23T09:00:03.000Z</time>
      </trkpt>
      <trkpt lat="47.49134" lon="6.73269">
        <ele>396.6</ele>
        <time>2014-11-23T09:00:04.000Z</time>
      </trkpt>
      <trkpt lat="47.49135" lon="6.73266">
        <ele>397.2</ele>
        <time>2014-11-23T09:00:05.000Z</time>
      </trkpt>
      <trkpt lat="47.49137" lon="6.73263">
        <ele>397.2</ele>
        <time>2014-11-23T09:00:06.000Z</time>
      </trkpt>
      <trkpt lat="47.49139" lon="6.7326">
        <ele>395.4</ele>
        <time>2014-11-23T09:00:07.000Z</time>
      </trkpt>
      <trkpt lat="47.49142" lon="6.73256">
        <ele>396.8</ele>
        <time>2014-11-23T09:00:08.000Z</time>
      </trkpt>
      <trkpt lat="47.49144" lon="6.73252">
        <ele>396.6</ele>
        <time>2014-11-23T09:00:09.000Z</time>
      </trkpt>
      <trkpt lat="47.49146" lon="6.73248">
        <ele>395.7</ele>
        <time>2014-11-23T09:00:10.000Z</time>
      </trkpt>
      <trkpt lat="47.49148" lon="6.73245">
        <ele>395.6</ele>
        <time>2014-11-23T09:00:11.000Z</time>
      </trkpt>
      <trkpt lat="47.49149" lon="6.73242">
        <ele>395.1</ele>
        <time>2014-11-23T09:00:12.000Z</time>
      </trkpt>
      <trkpt lat="47.49151" lon="6.73239">
        <ele>395.7</ele>
        <time>2014-11-23T09:00:13.000Z</time>
      </trkpt>
      <trkpt lat="47.49152" lon="6.73236">
        <ele>396.3</ele>
        <time>2014-11-23T09:00:14.000Z</time>
      </trkpt>
      <trkpt lat="47.49154" lon="6.73231">
        <ele>397.4</ele>
        <time>2014-11-23T09:00:16.000Z</time>
      </trkpt>
      <trkpt lat="47.49156" lon="6.7323">
        <ele>396.2</ele>
        <time>2014-11-23T09:00:17.000Z</time>
      </trkpt>
      <trkpt lat="47.49158" lon="6.73228">
        <ele>395.4</ele>
        <time>2014-11-23T09:00:18.000Z</time>
      </trkpt>
      <trkpt lat="47.4916" lon="6.73226">
        <ele>394.8</ele>
        <time>2014-11-23T09:00:19.000Z</time>
      </trkpt>
      <trkpt lat="47.49161" lon="6.73224">
        <ele>395.1</ele>
        <time>2014-11-23T09:00:20.000Z</time>
      </trkpt>
      <trkpt lat="47.49163" lon="6.73221">
        <ele>394.8</ele>
        <time>2014-11-23T09:00:21.000Z</time>
      </trkpt>
      <trkpt lat="47.49164" lon="6.73218">
        <ele>395</ele>
        <time>2014-11-23T09:00:22.000Z</time>
      </trkpt>
      <trkpt lat="47.49165" lon="6.73215">
        <ele>395.5</ele>
        <time>2014-11-23T09:00:23.000Z</time>
      </trkpt>
      <trkpt lat="47.49166" lon="6.73211">
        <ele>395.7</ele>
        <time>2014-11-23T09:00:24.000Z</time>
      </trkpt>
      <trkpt lat="47.49167" lon="6.73208">
        <ele>395.8</ele>
        <time>2014-11-23T09:00:25.000Z</time>
      </trkpt>
      <trkpt lat="47.49167" lon="6.73205">
        <ele>396.5</ele>
        <time>2014-11-23T09:00:26.000Z</time>
      </trkpt>
      <trkpt lat="47.49168" lon="6.73201">
        <ele>396.2</ele>
        <time>2014-11-23T09:00:27.000Z</time>
      </trkpt>
      <trkpt lat="47.49169" lon="6.73197">
        <ele>395.5</ele>
        <time>2014-11-23T09:00:28.000Z</time>
      </trkpt>
      <trkpt lat="47.49171" lon="6.73184">
        <ele>386.1</ele>
        <time>2014-11-23T09:00:31.000Z</time>
      </trkpt>
      <trkpt lat="47.49171" lon="6.73179">
        <ele>386.3</ele>
        <time>2014-11-23T09:00:32.000Z</time>
      </trkpt>
      <trkpt lat="47.49172" lon="6.73175">
        <ele>387.5</ele>
        <time>2014-11-23T09:00:33.000Z</time>
      </trkpt>
      <trkpt lat="47.49173" lon="6.73171">
        <ele>389.5</ele>
        <time>2014-11-23T09:00:34.000Z</time>
      </trkpt>
      <trkpt lat="47.49174" lon="6.73166">
        <ele>391.2</ele>
        <time>2014-11-23T09:00:35.000Z</time>
      </trkpt>
      <trkpt lat="47.49176" lon="6.73162">
        <ele>392.5</ele>
        <time>2014-11-23T09:00:36.000Z</time>
      </trkpt>
      <trkpt lat="47.49178" lon="6.73157">
        <ele>392.2</ele>
        <time>2014-11-23T09:00:37.000Z</time>
      </trkpt>
      <trkpt lat="47.49179" lon="6.73152">
        <ele>393</ele>
        <time>2014-11-23T09:00:38.000Z</time>
      </trkpt>
      <trkpt lat="47.49181" lon="6.73147">
        <ele>394</ele>
        <time>2014-11-23T09:00:39.000Z</time>
      </trkpt>
      <trkpt lat="47.49182" lon="6.73143">
        <ele>394.9</ele>
        <time>2014-11-23T09:00:40.000Z</time>
      </trkpt>
      <trkpt lat="47.49184" lon="6.73139">
        <ele>400.6</ele>
        <time>2014-11-23T09:00:41.000Z</time>
      </trkpt>
      <trkpt lat="47.49185" lon="6.73135">
        <ele>402</ele>
        <time>2014-11-23T09:00:42.000Z</time>
      </trkpt>
      <trkpt lat="47.49187" lon="6.73131">
        <ele>403.8</ele>
        <time>2014-11-23T09:00:43.000Z</time>
      </trkpt>
      <trkpt lat="47.49188" lon="6.73126">
        <ele>404.1</ele>
        <time>2014-11-23T09:00:44.000Z</time>
      </trkpt>
      <trkpt lat="47.4919" lon="6.73122">
        <ele>403.9</ele>
        <time>2014-11-23T09:00:45.000Z</time>
      </trkpt>
      <trkpt lat="47.49191" lon="6.73117">
        <ele>404</ele>
        <time>2014-11-23T09:00:46.000Z</time>
      </trkpt>
      <trkpt lat="47.49192" lon="6.73114">
        <ele>405</ele>
        <time>2014-11-23T09:00:47.000Z</time>
      </trkpt>
      <trkpt lat="47.49193" lon="6.7311">
        <ele>404.8</ele>
        <time>2014-11-23T09:00:48.000Z</time>
      </trkpt>
      <trkpt lat="47.49193" lon="6.73106">
        <ele>404.5</ele>
        <time>2014-11-23T09:00:49.000Z</time>
      </trkpt>
      <trkpt lat="47.49195" lon="6.731">
        <ele>404.8</ele>
        <time>2014-11-23T09:00:50.000Z</time>
      </trkpt>
      <trkpt lat="47.49197" lon="6.73093">
        <ele>405.1</ele>
        <time>2014-11-23T09:00:51.000Z</time>
      </trkpt>
      <trkpt lat="47.49198" lon="6.73086">
        <ele>405.2</ele>
        <time>2014-11-23T09:00:52.000Z</time>
      </trkpt>
      <trkpt lat="47.49199" lon="6.73079">
        <ele>405</ele>
        <time>2014-11-23T09:00:53.000Z</time>
      </trkpt>
      <trkpt lat="47.49199" lon="6.73072">
        <ele>405.3</ele>
        <time>2014-11-23T09:00:54.000Z</time>
      </trkpt>
      <trkpt lat="47.49199" lon="6.73067">
        <ele>405.6</ele>
        <time>2014-11-23T09:00:55.000Z</time>
      </trkpt>
      <trkpt lat="47.49199" lon="6.73062">
        <ele>406.3</ele>
        <time>2014-11-23T09:00:56.000Z</time>
      </trkpt>
      <trkpt lat="47.492" lon="6.73058">
        <ele>407.2</ele>
        <time>2014-11-23T09:00:57.000Z</time>
      </trkpt>
      <trkpt lat="47.492" lon="6.73054">
        <ele>406.9</ele>
        <time>2014-11-23T09:00:58.000Z</time>
      </trkpt>
      <trkpt lat="47.492" lon="6.73051">
        <ele>406.2</ele>
        <time>2014-11-23T09:00:59.000Z</time>
      </trkpt>
      <trkpt lat="47.492" lon="6.73047">
        <ele>406.5</ele>
        <time>2014-11-23T09:01:00.000Z</time>
      </trkpt>
      <trkpt lat="47.49201" lon="6.73044">
        <ele>409.9</ele>
        <time>2014-11-23T09:01:01.000Z</time>
      </trkpt>
      <trkpt lat="47.49201" lon="6.73037">
        <ele>408.2</ele>
        <time>2014-11-23T09:01:03.000Z</time>
      </trkpt>
      <trkpt lat="47.49201" lon="6.73034">
        <ele>407.2</ele>
        <time>2014-11-23T09:01:04.000Z</time>
      </trkpt>
      <trkpt lat="47.49201" lon="6.7303">
        <ele>406.5</ele>
        <time>2014-11-23T09:01:05.000Z</time>
      </trkpt>
      <trkpt lat="47.49201" lon="6.73026">
        <ele>406.2</ele>
        <time>2014-11-23T09:01:06.000Z</time>
      </trkpt>
      <trkpt lat="47.49201" lon="6.73023">
        <ele>404.8</ele>
        <time>2014-11-23T09:01:07.000Z</time>
      </trkpt>
      <trkpt lat="47.49201" lon="6.73018">
        <ele>403.1</ele>
        <time>2014-11-23T09:01:08.000Z</time>
      </trkpt>
      <trkpt lat="47.49202" lon="6.73012">
        <ele>403.6</ele>
        <time>2014-11-23T09:01:09.000Z</time>
      </trkpt>
      <trkpt lat="47.49202" lon="6.73006">
        <ele>403.1</ele>
        <time>2014-11-23T09:01:10.000Z</time>
      </trkpt>
      <trkpt lat="47.49203" lon="6.73">
        <ele>403.1</ele>
        <time>2014-11-23T09:01:11.000Z</time>
      </trkpt>
      <trkpt lat="47.49204" lon="6.72996">
        <ele>403.4</ele>
        <time>2014-11-23T09:01:12.000Z</time>
      </trkpt>
      <trkpt lat="47.49205" lon="6.72991">
        <ele>404.3</ele>
        <time>2014-11-23T09:01:13.000Z</time>
      </trkpt>
      <trkpt lat="47.49206" lon="6.72988">
        <ele>404.9</ele>
        <time>2014-11-23T09:01:14.000Z</time>
      </trkpt>
      <trkpt lat="47.49209" lon="6.72983">
        <ele>407.7</ele>
        <time>2014-11-23T09:01:16.000Z</time>
      </trkpt>
      <trkpt lat="47.4921" lon="6.7298">
        <ele>408</ele>
        <time>2014-11-23T09:01:17.000Z</time>
      </trkpt>
      <trkpt lat="47.49212" lon="6.72977">
        <ele>409.1</ele>
        <time>2014-11-23T09:01:18.000Z</time>
      </trkpt>
      <trkpt lat="47.49213" lon="6.72973">
        <ele>409.8</ele>
        <time>2014-11-23T09:01:19.000Z</time>
      </trkpt>
      <trkpt lat="47.49214" lon="6.7297">
        <ele>409.5</ele>
        <time>2014-11-23T09:01:20.000Z</time>
      </trkpt>
      <trkpt lat="47.49215" lon="6.72966">
        <ele>409.9</ele>
        <time>2014-11-23T09:01:21.000Z</time>
      </trkpt>
      <trkpt lat="47.49216" lon="6.72963">
        <ele>410.3</ele>
        <time>2014-11-23T09:01:22.000Z</time>
      </trkpt>
      <trkpt lat="47.49217" lon="6.7296">
        <ele>410.5</ele>
        <time>2014-11-23T09:01:23.000Z</time>
      </trkpt>
      <trkpt lat="47.49218" lon="6.72957">
        <ele>410.7</ele>
        <time>2014-11-23T09:01:24.000Z</time>
      </trkpt>
      <trkpt lat="47.4922" lon="6.72954">
        <ele>410.9</ele>
        <time>2014-11-23T09:01:25.000Z</time>
      </trkpt>
      <trkpt lat="47.49221" lon="6.7295">
        <ele>411.2</ele>
        <time>2014-11-23T09:01:26.000Z</time>
      </trkpt>
      <trkpt lat="47.49223" lon="6.72946">
        <ele>412.1</ele>
        <time>2014-11-23T09:01:27.000Z</time>
      </trkpt>
      <trkpt lat="47.49224" lon="6.72941">
        <ele>412.7</ele>
        <time>2014-11-23T09:01:28.000Z</time>
      </trkpt>
      <trkpt lat="47.49228" lon="6.72931">
        <ele>406.6</ele>
        <time>2014-11-23T09:01:31.000Z</time>
      </trkpt>
      <trkpt lat="47.49229" lon="6.72927">
        <ele>404.8</ele>
        <time>2014-11-23T09:01:32.000Z</time>
      </trkpt>
      <trkpt lat="47.49231" lon="6.72923">
        <ele>405.2</ele>
        <time>2014-11-23T09:01:33.000Z</time>
      </trkpt>
      <trkpt lat="47.49232" lon="6.72919">
        <ele>405.6</ele>
        <time>2014-11-23T09:01:34.000Z</time>
      </trkpt>
      <trkpt lat="47.49234" lon="6.72915">
        <ele>405.3</ele>
        <time>2014-11-23T09:01:35.000Z</time>
      </trkpt>
      <trkpt lat="47.49236" lon="6.72911">
        <ele>405.4</ele>
        <time>2014-11-23T09:01:36.000Z</time>
      </trkpt>
      <trkpt lat="47.49238" lon="6.72909">
        <ele>407</ele>
        <time>2014-11-23T09:01:37.000Z</time>
      </trkpt>
      <trkpt lat="47.49241" lon="6.72907">
        <ele>407.1</ele>
        <time>2014-11-23T09:01:38.000Z</time>
      </trkpt>
      <trkpt lat="47.49248" lon="6.72899">
        <ele>406.9</ele>
        <time>2014-11-23T09:01:39.000Z</time>
      </trkpt>
      <trkpt lat="47.49252" lon="6.72896">
        <ele>408.2</ele>
        <time>2014-11-23T09:01:40.000Z</time>
      </trkpt>
      <trkpt lat="47.49255" lon="6.72894">
        <ele>408.4</ele>
        <time>2014-11-23T09:01:41.000Z</time>
      </trkpt>
      <trkpt lat="47.4926" lon="6.7289">
        <ele>409.1</ele>
        <time>2014-11-23T09:01:42.000Z</time>
      </trkpt>
      <trkpt lat="47.49264" lon="6.72886">
        <ele>408.5</ele>
        <time>2014-11-23T09:01:43.000Z</time>
      </trkpt>
      <trkpt lat="47.49269" lon="6.72882">
        <ele>406.4</ele>
        <time>2014-11-23T09:01:44.000Z</time>
      </trkpt>
      <trkpt lat="47.49272" lon="6.72879">
        <ele>405.6</ele>
        <time>2014-11-23T09:01:45.000Z</time>
      </trkpt>
      <trkpt lat="47.49275" lon="6.72876">
        <ele>406</ele>
        <time>2014-11-23T09:01:46.000Z</time>
      </trkpt>
      <trkpt lat="47.49279" lon="6.72869">
        <ele>406.7</ele>
        <time>2014-11-23T09:01:47.000Z</time>
      </trkpt>
      <trkpt lat="47.49282" lon="6.72865">
        <ele>407.8</ele>
        <time>2014-11-23T09:01:48.000Z</time>
      </trkpt>
      <trkpt lat="47.49285" lon="6.72862">
        <ele>409.1</ele>
        <time>2014-11-23T09:01:49.000Z</time>
      </trkpt>
      <trkpt lat="47.49287" lon="6.72857">
        <ele>410.3</ele>
        <time>2014-11-23T09:01:50.000Z</time>
      </trkpt>
      <trkpt lat="47.49289" lon="6.72854">
        <ele>411.4</ele>
        <time>2014-11-23T09:01:51.000Z</time>
      </trkpt>
      <trkpt lat="47.49291" lon="6.7285">
        <ele>411.8</ele>
        <time>2014-11-23T09:01:52.000Z</time>
      </trkpt>
      <trkpt lat="47.49293" lon="6.72846">
        <ele>412.7</ele>
        <time>2014-11-23T09:01:53.000Z</time>
      </trkpt>
      <trkpt lat="47.49295" lon="6.72842">
        <ele>412.6</ele>
        <time>2014-11-23T09:01:54.000Z</time>
      </trkpt>
      <trkpt lat="47.49296" lon="6.72839">
        <ele>412.9</ele>
        <time>2014-11-23T09:01:55.000Z</time>
      </trkpt>
      <trkpt lat="47.49298" lon="6.72836">
        <ele>413.1</ele>
        <time>2014-11-23T09:01:56.000Z</time>
      </trkpt>
      <trkpt lat="47.493" lon="6.7283">
        <ele>414.7</ele>
        <time>2014-11-23T09:01:58.000Z</time>
      </trkpt>
      <trkpt lat="47.493" lon="6.72827">
        <ele>413.1</ele>
        <time>2014-11-23T09:01:59.000Z</time>
      </trkpt>
      <trkpt lat="47.49301" lon="6.72823">
        <ele>412.6</ele>
        <time>2014-11-23T09:02:00.000Z</time>
      </trkpt>
      <trkpt lat="47.49302" lon="6.72819">
        <ele>412.2</ele>
        <time>2014-11-23T09:02:01.000Z</time>
      </trkpt>
      <trkpt lat="47.49303" lon="6.72816">
        <ele>412.3</ele>
        <time>2014-11-23T09:02:02.000Z</time>
      </trkpt>
      <trkpt lat="47.49304" lon="6.72812">
        <ele>412.7</ele>
        <time>2014-11-23T09:02:03.000Z</time>
      </trkpt>
      <trkpt lat="47.49304" lon="6.72805">
        <ele>410.6</ele>
        <time>2014-11-23T09:02:05.000Z</time>
      </trkpt>
      <trkpt lat="47.49304" lon="6.72802">
        <ele>410.2</ele>
        <time>2014-11-23T09:02:06.000Z</time>
      </trkpt>
      <trkpt lat="47.49305" lon="6.72797">
        <ele>409.8</ele>
        <time>2014-11-23T09:02:08.000Z</time>
      </trkpt>
      <trkpt lat="47.49305" lon="6.72793">
        <ele>410</ele>
        <time>2014-11-23T09:02:09.000Z</time>
      </trkpt>
      <trkpt lat="47.49306" lon="6.72789">
        <ele>409.3</ele>
        <time>2014-11-23T09:02:10.000Z</time>
      </trkpt>
      <trkpt lat="47.49307" lon="6.72784">
        <ele>410.4</ele>
        <time>2014-11-23T09:02:11.000Z</time>
      </trkpt>
      <trkpt lat="47.49308" lon="6.72779">
        <ele>410.4</ele>
        <time>2014-11-23T09:02:12.000Z</time>
      </trkpt>
      <trkpt lat="47.49309" lon="6.72775">
        <ele>410.2</ele>
        <time>2014-11-23T09:02:13.000Z</time>
      </trkpt>
      <trkpt lat="47.4931" lon="6.7277">
        <ele>410.5</ele>
        <time>2014-11-23T09:02:14.000Z</time>
      </trkpt>
      <trkpt lat="47.49311" lon="6.72765">
        <ele>409.4</ele>
        <time>2014-11-23T09:02:15.000Z</time>
      </trkpt>
      <trkpt lat="47.49312" lon="6.7276">
        <ele>406.5</ele>
        <time>2014-11-23T09:02:16.000Z</time>
      </trkpt>
      <trkpt lat="47.49313" lon="6.72754">
        <ele>405.9</ele>
        <time>2014-11-23T09:02:17.000Z</time>
      </trkpt>
      <trkpt lat="47.49313" lon="6.72748">
        <ele>405.6</ele>
        <time>2014-11-23T09:02:18.000Z</time>
      </trkpt>
      <trkpt lat="47.49314" lon="6.72742">
        <ele>405.4</ele>
        <time>2014-11-23T09:02:19.000Z</time>
      </trkpt>
      <trkpt lat="47.49314" lon="6.72737">
        <ele>405.5</ele>
        <time>2014-11-23T09:02:20.000Z</time>
      </trkpt>
      <trkpt lat="47.49315" lon="6.72733">
        <ele>405.5</ele>
        <time>2014-11-23T09:02:21.000Z</time>
      </trkpt>
      <trkpt lat="47.49315" lon="6.72729">
        <ele>405.9</ele>
        <time>2014-11-23T09:02:22.000Z</time>
      </trkpt>
      <trkpt lat="47.49316" lon="6.72726">
        <ele>406.3</ele>
        <time>2014-11-23T09:02:23.000Z</time>
      </trkpt>
      <trkpt lat="47.49316" lon="6.72722">
        <ele>406.5</ele>
        <time>2014-11-23T09:02:24.000Z</time>
      </trkpt>
      <trkpt lat="47.49317" lon="6.72718">
        <ele>406.7</ele>
        <time>2014-11-23T09:02:25.000Z</time>
      </trkpt>
      <trkpt lat="47.49317" lon="6.72713">
        <ele>407.6</ele>
        <time>2014-11-23T09:02:26.000Z</time>
      </trkpt>
      <trkpt lat="47.49318" lon="6.72708">
        <ele>408.1</ele>
        <time>2014-11-23T09:02:27.000Z</time>
      </trkpt>
      <trkpt lat="47.49318" lon="6.72704">
        <ele>409.1</ele>
        <time>2014-11-23T09:02:28.000Z</time>
      </trkpt>
      <trkpt lat="47.49319" lon="6.72692">
        <ele>403.8</ele>
        <time>2014-11-23T09:02:31.000Z</time>
      </trkpt>
      <trkpt lat="47.49319" lon="6.72688">
        <ele>403.7</ele>
        <time>2014-11-23T09:02:32.000Z</time>
      </trkpt>
      <trkpt lat="47.49318" lon="6.72684">
        <ele>403.8</ele>
        <time>2014-11-23T09:02:33.000Z</time>
      </trkpt>
      <trkpt lat="47.49318" lon="6.7268">
        <ele>404.5</ele>
        <time>2014-11-23T09:02:34.000Z</time>
      </trkpt>
      <trkpt lat="47.49319" lon="6.72676">
        <ele>406.6</ele>
        <time>2014-11-23T09:02:35.000Z</time>
      </trkpt>
      <trkpt lat="47.49319" lon="6.72672">
        <ele>408.4</ele>
        <time>2014-11-23T09:02:36.000Z</time>
      </trkpt>
      <trkpt lat="47.4932" lon="6.72668">
        <ele>408.6</ele>
        <time>2014-11-23T09:02:37.000Z</time>
      </trkpt>
      <trkpt lat="47.4932" lon="6.72664">
        <ele>406.3</ele>
        <time>2014-11-23T09:02:38.000Z</time>
      </trkpt>
      <trkpt lat="47.4932" lon="6.72661">
        <ele>405.7</ele>
        <time>2014-11-23T09:02:39.000Z</time>
      </trkpt>
      <trkpt lat="47.49319" lon="6.72655">
        <ele>405.5</ele>
        <time>2014-11-23T09:02:41.000Z</time>
      </trkpt>
      <trkpt lat="47.49318" lon="6.72652">
        <ele>405.9</ele>
        <time>2014-11-23T09:02:42.000Z</time>
      </trkpt>
      <trkpt lat="47.49318" lon="6.72646">
        <ele>407.6</ele>
        <time>2014-11-23T09:02:44.000Z</time>
      </trkpt>
      <trkpt lat="47.49317" lon="6.72643">
        <ele>407.5</ele>
        <time>2014-11-23T09:02:45.000Z</time>
      </trkpt>
      <trkpt lat="47.49318" lon="6.72637">
        <ele>406.7</ele>
        <time>2014-11-23T09:02:48.000Z</time>
      </trkpt>
      <trkpt lat="47.49319" lon="6.72637">
        <ele>406.4</ele>
        <time>2014-11-23T09:02:49.000Z</time>
      </trkpt>
      <trkpt lat="47.49323" lon="6.72634">
        <ele>403.8</ele>
        <time>2014-11-23T09:02:54.000Z</time>
      </trkpt>
      <trkpt lat="47.49323" lon="6.72632">
        <ele>403.3</ele>
        <time>2014-11-23T09:02:55.000Z</time>
      </trkpt>
      <trkpt lat="47.49325" lon="6.72626">
        <ele>405.4</ele>
        <time>2014-11-23T09:02:58.000Z</time>
      </trkpt>
      <trkpt lat="47.49325" lon="6.72624">
        <ele>406.3</ele>
        <time>2014-11-23T09:02:59.000Z</time>
      </trkpt>
      <trkpt lat="47.49327" lon="6.72619">
        <ele>406.5</ele>
        <time>2014-11-23T09:03:01.000Z</time>
      </trkpt>
      <trkpt lat="47.49328" lon="6.72616">
        <ele>406.2</ele>
        <time>2014-11-23T09:03:02.000Z</time>
      </trkpt>
      <trkpt lat="47.49329" lon="6.72612">
        <ele>407.5</ele>
        <time>2014-11-23T09:03:04.000Z</time>
      </trkpt>
      <trkpt lat="47.49329" lon="6.72609">
        <ele>407.2</ele>
        <time>2014-11-23T09:03:05.000Z</time>
      </trkpt>
      <trkpt lat="47.49329" lon="6.72604">
        <ele>407.8</ele>
        <time>2014-11-23T09:03:08.000Z</time>
      </trkpt>
      <trkpt lat="47.4933" lon="6.72601">
        <ele>408.2</ele>
        <time>2014-11-23T09:03:09.000Z</time>
      </trkpt>
      <trkpt lat="47.49331" lon="6.72597">
        <ele>408.8</ele>
        <time>2014-11-23T09:03:11.000Z</time>
      </trkpt>
      <trkpt lat="47.49332" lon="6.72594">
        <ele>409.2</ele>
        <time>2014-11-23T09:03:12.000Z</time>
      </trkpt>
      <trkpt lat="47.49333" lon="6.7259">
        <ele>410.2</ele>
        <time>2014-11-23T09:03:14.000Z</time>
      </trkpt>
      <trkpt lat="47.49333" lon="6.72587">
        <ele>410.6</ele>
        <time>2014-11-23T09:03:15.000Z</time>
      </trkpt>
      <trkpt lat="47.49335" lon="6.72582">
        <ele>411.7</ele>
        <time>2014-11-23T09:03:17.000Z</time>
      </trkpt>
      <trkpt lat="47.49336" lon="6.72578">
        <ele>412.1</ele>
        <time>2014-11-23T09:03:18.000Z</time>
      </trkpt>
      <trkpt lat="47.49336" lon="6.72572">
        <ele>412.1</ele>
        <time>2014-11-23T09:03:20.000Z</time>
      </trkpt>
      <trkpt lat="47.49336" lon="6.7257">
        <ele>413.9</ele>
        <time>2014-11-23T09:03:21.000Z</time>
      </trkpt>
      <trkpt lat="47.49337" lon="6.72564">
        <ele>415.9</ele>
        <time>2014-11-23T09:03:23.000Z</time>
      </trkpt>
      <trkpt lat="47.49337" lon="6.72562">
        <ele>416.4</ele>
        <time>2014-11-23T09:03:24.000Z</time>
      </trkpt>
      <trkpt lat="47.49338" lon="6.72556">
        <ele>417.3</ele>
        <time>2014-11-23T09:03:26.000Z</time>
      </trkpt>
      <trkpt lat="47.49339" lon="6.72553">
        <ele>417.9</ele>
        <time>2014-11-23T09:03:27.000Z</time>
      </trkpt>
      <trkpt lat="47.4934" lon="6.7255">
        <ele>418.5</ele>
        <time>2014-11-23T09:03:28.000Z</time>
      </trkpt>
      <trkpt lat="47.49342" lon="6.72538">
        <ele>416.2</ele>
        <time>2014-11-23T09:03:32.000Z</time>
      </trkpt>
      <trkpt lat="47.49342" lon="6.72535">
        <ele>415.5</ele>
        <time>2014-11-23T09:03:33.000Z</time>
      </trkpt>
      <trkpt lat="47.49342" lon="6.72531">
        <ele>415.4</ele>
        <time>2014-11-23T09:03:34.000Z</time>
      </trkpt>
      <trkpt lat="47.49342" lon="6.72525">
        <ele>415.6</ele>
        <time>2014-11-23T09:03:36.000Z</time>
      </trkpt>
      <trkpt lat="47.49342" lon="6.72522">
        <ele>415</ele>
        <time>2014-11-23T09:03:37.000Z</time>
      </trkpt>
      <trkpt lat="47.49343" lon="6.72516">
        <ele>414.9</ele>
        <time>2014-11-23T09:03:42.000Z</time>
      </trkpt>
      <trkpt lat="47.49344" lon="6.72516">
        <ele>416</ele>
        <time>2014-11-23T09:03:43.000Z</time>
      </trkpt>
      <trkpt lat="47.49346" lon="6.72511">
        <ele>417</ele>
        <time>2014-11-23T09:03:46.000Z</time>
      </trkpt>
      <trkpt lat="47.49346" lon="6.72508">
        <ele>417.2</ele>
        <time>2014-11-23T09:03:47.000Z</time>
      </trkpt>
      <trkpt lat="47.49347" lon="6.72503">
        <ele>418.1</ele>
        <time>2014-11-23T09:03:49.000Z</time>
      </trkpt>
      <trkpt lat="47.49348" lon="6.725">
        <ele>418.7</ele>
        <time>2014-11-23T09:03:50.000Z</time>
      </trkpt>
      <trkpt lat="47.49349" lon="6.72496">
        <ele>419.7</ele>
        <time>2014-11-23T09:03:51.000Z</time>
      </trkpt>
      <trkpt lat="47.4935" lon="6.72493">
        <ele>419</ele>
        <time>2014-11-23T09:03:52.000Z</time>
      </trkpt>
      <trkpt lat="47.49351" lon="6.72489">
        <ele>419.3</ele>
        <time>2014-11-23T09:03:53.000Z</time>
      </trkpt>
      <trkpt lat="47.49351" lon="6.72485">
        <ele>420</ele>
        <time>2014-11-23T09:03:54.000Z</time>
      </trkpt>
      <trkpt lat="47.49352" lon="6.72479">
        <ele>420.3</ele>
        <time>2014-11-23T09:03:56.000Z</time>
      </trkpt>
      <trkpt lat="47.49351" lon="6.72475">
        <ele>420.4</ele>
        <time>2014-11-23T09:03:57.000Z</time>
      </trkpt>
      <trkpt lat="47.49351" lon="6.72472">
        <ele>421.1</ele>
        <time>2014-11-23T09:03:58.000Z</time>
      </trkpt>
      <trkpt lat="47.49351" lon="6.72469">
        <ele>421.2</ele>
        <time>2014-11-23T09:03:59.000Z</time>
      </trkpt>
      <trkpt lat="47.49349" lon="6.72463">
        <ele>422.1</ele>
        <time>2014-11-23T09:04:01.000Z</time>
      </trkpt>
      <trkpt lat="47.49349" lon="6.7246">
        <ele>421.9</ele>
        <time>2014-11-23T09:04:02.000Z</time>
      </trkpt>
      <trkpt lat="47.49348" lon="6.72455">
        <ele>423.3</ele>
        <time>2014-11-23T09:04:04.000Z</time>
      </trkpt>
      <trkpt lat="47.49348" lon="6.72452">
        <ele>423.8</ele>
        <time>2014-11-23T09:04:05.000Z</time>
      </trkpt>
      <trkpt lat="47.49347" lon="6.72446">
        <ele>423.7</ele>
        <time>2014-11-23T09:04:07.000Z</time>
      </trkpt>
      <trkpt lat="47.49346" lon="6.72443">
        <ele>423.8</ele>
        <time>2014-11-23T09:04:08.000Z</time>
      </trkpt>
      <trkpt lat="47.49346" lon="6.72438">
        <ele>424.4</ele>
        <time>2014-11-23T09:04:10.000Z</time>
      </trkpt>
      <trkpt lat="47.49346" lon="6.72435">
        <ele>424</ele>
        <time>2014-11-23T09:04:11.000Z</time>
      </trkpt>
      <trkpt lat="47.49347" lon="6.7243">
        <ele>425.2</ele>
        <time>2014-11-23T09:04:13.000Z</time>
      </trkpt>
      <trkpt lat="47.49348" lon="6.72426">
        <ele>426</ele>
        <time>2014-11-23T09:04:14.000Z</time>
      </trkpt>
      <trkpt lat="47.4935" lon="6.72423">
        <ele>426.2</ele>
        <time>2014-11-23T09:04:15.000Z</time>
      </trkpt>
      <trkpt lat="47.49351" lon="6.7242">
        <ele>425.8</ele>
        <time>2014-11-23T09:04:16.000Z</time>
      </trkpt>
      <trkpt lat="47.49354" lon="6.72415">
        <ele>427.3</ele>
        <time>2014-11-23T09:04:18.000Z</time>
      </trkpt>
      <trkpt lat="47.49355" lon="6.72413">
        <ele>427.7</ele>
        <time>2014-11-23T09:04:19.000Z</time>
      </trkpt>
      <trkpt lat="47.49357" lon="6.72407">
        <ele>427.7</ele>
        <time>2014-11-23T09:04:22.000Z</time>
      </trkpt>
      <trkpt lat="47.49357" lon="6.72405">
        <ele>427.2</ele>
        <time>2014-11-23T09:04:23.000Z</time>
      </trkpt>
      <trkpt lat="47.49357" lon="6.724">
        <ele>425.6</ele>
        <time>2014-11-23T09:04:26.000Z</time>
      </trkpt>
      <trkpt lat="47.49357" lon="6.72397">
        <ele>424.4</ele>
        <time>2014-11-23T09:04:27.000Z</time>
      </trkpt>
      <trkpt lat="47.49357" lon="6.72394">
        <ele>424.7</ele>
        <time>2014-11-23T09:04:28.000Z</time>
      </trkpt>
      <trkpt lat="47.49355" lon="6.72385">
        <ele>421.4</ele>
        <time>2014-11-23T09:04:31.000Z</time>
      </trkpt>
      <trkpt lat="47.49354" lon="6.7238">
        <ele>424.1</ele>
        <time>2014-11-23T09:04:33.000Z</time>
      </trkpt>
      <trkpt lat="47.49354" lon="6.72378">
        <ele>425.3</ele>
        <time>2014-11-23T09:04:34.000Z</time>
      </trkpt>
      <trkpt lat="47.49355" lon="6.72373">
        <ele>426</ele>
        <time>2014-11-23T09:04:36.000Z</time>
      </trkpt>
      <trkpt lat="47.49356" lon="6.72371">
        <ele>426.9</ele>
        <time>2014-11-23T09:04:37.000Z</time>
      </trkpt>
      <trkpt lat="47.49358" lon="6.72365">
        <ele>427.8</ele>
        <time>2014-11-23T09:04:39.000Z</time>
      </trkpt>
      <trkpt lat="47.49358" lon="6.72363">
        <ele>427.3</ele>
        <time>2014-11-23T09:04:40.000Z</time>
      </trkpt>
      <trkpt lat="47.49355" lon="6.72358">
        <ele>424.9</ele>
        <time>2014-11-23T09:04:50.000Z</time>
      </trkpt>
      <trkpt lat="47.49355" lon="6.72358">
        <ele>424</ele>
        <time>2014-11-23T09:04:51.000Z</time>
      </trkpt>
      <trkpt lat="47.49353" lon="6.72352">
        <ele>423.1</ele>
        <time>2014-11-23T09:04:57.000Z</time>
      </trkpt>
      <trkpt lat="47.49353" lon="6.72352">
        <ele>423.2</ele>
        <time>2014-11-23T09:04:58.000Z</time>
      </trkpt>
      <trkpt lat="47.49351" lon="6.72346">
        <ele>420.2</ele>
        <time>2014-11-23T09:05:03.000Z</time>
      </trkpt>
      <trkpt lat="47.49351" lon="6.72344">
        <ele>421.1</ele>
        <time>2014-11-23T09:05:04.000Z</time>
      </trkpt>
      <trkpt lat="47.4935" lon="6.72338">
        <ele>416.3</ele>
        <time>2014-11-23T09:05:19.000Z</time>
      </trkpt>
      <trkpt lat="47.4935" lon="6.72337">
        <ele>415.9</ele>
        <time>2014-11-23T09:05:20.000Z</time>
      </trkpt>
      <trkpt lat="47.49346" lon="6.72335">
        <ele>413.5</ele>
        <time>2014-11-23T09:05:24.000Z</time>
      </trkpt>
      <trkpt lat="47.49345" lon="6.72335">
        <ele>413.6</ele>
        <time>2014-11-23T09:05:25.000Z</time>
      </trkpt>
      <trkpt lat="47.49347" lon="6.72329">
        <ele>405.6</ele>
        <time>2014-11-23T09:05:31.000Z</time>
      </trkpt>
      <trkpt lat="47.49348" lon="6.72328">
        <ele>405.1</ele>
        <time>2014-11-23T09:05:32.000Z</time>
      </trkpt>
      <trkpt lat="47.49349" lon="6.72321">
        <ele>406</ele>
        <time>2014-11-23T09:05:42.000Z</time>
      </trkpt>
      <trkpt lat="47.49349" lon="6.7232">
        <ele>406.1</ele>
        <time>2014-11-23T09:05:43.000Z</time>
      </trkpt>
      <trkpt lat="47.4935" lon="6.72314">
        <ele>407.2</ele>
        <time>2014-11-23T09:05:49.000Z</time>
      </trkpt>
      <trkpt lat="47.4935" lon="6.72313">
        <ele>407.2</ele>
        <time>2014-11-23T09:05:50.000Z</time>
      </trkpt>
      <trkpt lat="47.49345" lon="6.72311">
        <ele>408.9</ele>
        <time>2014-11-23T09:05:57.000Z</time>
      </trkpt>
      <trkpt lat="47.49345" lon="6.7231">
        <ele>409.3</ele>
        <time>2014-11-23T09:05:58.000Z</time>
      </trkpt>
      <trkpt lat="47.49346" lon="6.72305">
        <ele>411.6</ele>
        <time>2014-11-23T09:06:01.000Z</time>
      </trkpt>
      <trkpt lat="47.49346" lon="6.72303">
        <ele>411.8</ele>
        <time>2014-11-23T09:06:02.000Z</time>
      </trkpt>
      <trkpt lat="47.49347" lon="6.72298">
        <ele>410.2</ele>
        <time>2014-11-23T09:06:05.000Z</time>
      </trkpt>
      <trkpt lat="47.49348" lon="6.72295">
        <ele>410.2</ele>
        <time>2014-11-23T09:06:06.000Z</time>
      </trkpt>
      <trkpt lat="47.4935" lon="6.7229">
        <ele>411.6</ele>
        <time>2014-11-23T09:06:08.000Z</time>
      </trkpt>
      <trkpt lat="47.4935" lon="6.72289">
        <ele>411.6</ele>
        <time>2014-11-23T09:06:09.000Z</time>
      </trkpt>
      <trkpt lat="47.49352" lon="6.72284">
        <ele>413</ele>
        <time>2014-11-23T09:06:12.000Z</time>
      </trkpt>
      <trkpt lat="47.49353" lon="6.72283">
        <ele>413.3</ele>
        <time>2014-11-23T09:06:13.000Z</time>
      </trkpt>
      <trkpt lat="47.49354" lon="6.72277">
        <ele>411.8</ele>
        <time>2014-11-23T09:06:17.000Z</time>
      </trkpt>
      <trkpt lat="47.49354" lon="6.72275">
        <ele>412.9</ele>
        <time>2014-11-23T09:06:18.000Z</time>
      </trkpt>
      <trkpt lat="47.49354" lon="6.7227">
        <ele>414.1</ele>
        <time>2014-11-23T09:06:21.000Z</time>
      </trkpt>
      <trkpt lat="47.49355" lon="6.72268">
        <ele>414.6</ele>
        <time>2014-11-23T09:06:22.000Z</time>
      </trkpt>
      <trkpt lat="47.49356" lon="6.72262">
        <ele>416.2</ele>
        <time>2014-11-23T09:06:25.000Z</time>
      </trkpt>
      <trkpt lat="47.49357" lon="6.72261">
        <ele>416.8</ele>
        <time>2014-11-23T09:06:26.000Z</time>
      </trkpt>
      <trkpt lat="47.49357" lon="6.72257">
        <ele>417.9</ele>
        <time>2014-11-23T09:06:28.000Z</time>
      </trkpt>
      <trkpt lat="47.49358" lon="6.72251">
        <ele>412.5</ele>
        <time>2014-11-23T09:06:31.000Z</time>
      </trkpt>
      <trkpt lat="47.49358" lon="6.72247">
        <ele>412.8</ele>
        <time>2014-11-23T09:06:33.000Z</time>
      </trkpt>
      <trkpt lat="47.49359" lon="6.72244">
        <ele>413.5</ele>
        <time>2014-11-23T09:06:34.000Z</time>
      </trkpt>
      <trkpt lat="47.4936" lon="6.7224">
        <ele>413.2</ele>
        <time>2014-11-23T09:06:35.000Z</time>
      </trkpt>
      <trkpt lat="47.49361" lon="6.72237">
        <ele>412.5</ele>
        <time>2014-11-23T09:06:36.000Z</time>
      </trkpt>
      <trkpt lat="47.49361" lon="6.72231">
        <ele>413.7</ele>
        <time>2014-11-23T09:06:38.000Z</time>
      </trkpt>
      <trkpt lat="47.49361" lon="6.72229">
        <ele>413.5</ele>
        <time>2014-11-23T09:06:39.000Z</time>
      </trkpt>
      <trkpt lat="47.49363" lon="6.72223">
        <ele>415.9</ele>
        <time>2014-11-23T09:06:42.000Z</time>
      </trkpt>
      <trkpt lat="47.49363" lon="6.7222">
        <ele>415.4</ele>
        <time>2014-11-23T09:06:43.000Z</time>
      </trkpt>
      <trkpt lat="47.49365" lon="6.72216">
        <ele>415.7</ele>
        <time>2014-11-23T09:06:44.000Z</time>
      </trkpt>
      <trkpt lat="47.49366" lon="6.72213">
        <ele>416.1</ele>
        <time>2014-11-23T09:06:45.000Z</time>
      </trkpt>
      <trkpt lat="47.49367" lon="6.72207">
        <ele>416.6</ele>
        <time>2014-11-23T09:06:47.000Z</time>
      </trkpt>
      <trkpt lat="47.49368" lon="6.72205">
        <ele>417.4</ele>
        <time>2014-11-23T09:06:48.000Z</time>
      </trkpt>
      <trkpt lat="47.49368" lon="6.72201">
        <ele>416.9</ele>
        <time>2014-11-23T09:06:50.000Z</time>
      </trkpt>
      <trkpt lat="47.49369" lon="6.72198">
        <ele>417.7</ele>
        <time>2014-11-23T09:06:51.000Z</time>
      </trkpt>
      <trkpt lat="47.49371" lon="6.72193">
        <ele>417.9</ele>
        <time>2014-11-23T09:06:53.000Z</time>
      </trkpt>
      <trkpt lat="47.49371" lon="6.7219">
        <ele>418.7</ele>
        <time>2014-11-23T09:06:54.000Z</time>
      </trkpt>
      <trkpt lat="47.49372" lon="6.72185">
        <ele>418.3</ele>
        <time>2014-11-23T09:06:56.000Z</time>
      </trkpt>
      <trkpt lat="47.49373" lon="6.72183">
        <ele>417.6</ele>
        <time>2014-11-23T09:06:57.000Z</time>
      </trkpt>
      <trkpt lat="47.49374" lon="6.72177">
        <ele>414.3</ele>
        <time>2014-11-23T09:06:59.000Z</time>
      </trkpt>
      <trkpt lat="47.49374" lon="6.72174">
        <ele>413</ele>
        <time>2014-11-23T09:07:00.000Z</time>
      </trkpt>
      <trkpt lat="47.49374" lon="6.72167">
        <ele>414.6</ele>
        <time>2014-11-23T09:07:03.000Z</time>
      </trkpt>
      <trkpt lat="47.49375" lon="6.72165">
        <ele>415.7</ele>
        <time>2014-11-23T09:07:04.000Z</time>
      </trkpt>
      <trkpt lat="47.49376" lon="6.72161">
        <ele>416.5</ele>
        <time>2014-11-23T09:07:06.000Z</time>
      </trkpt>
      <trkpt lat="47.49376" lon="6.72159">
        <ele>418.1</ele>
        <time>2014-11-23T09:07:07.000Z</time>
      </trkpt>
      <trkpt lat="47.49378" lon="6.72153">
        <ele>418.3</ele>
        <time>2014-11-23T09:07:09.000Z</time>
      </trkpt>
      <trkpt lat="47.49379" lon="6.7215">
        <ele>419.1</ele>
        <time>2014-11-23T09:07:10.000Z</time>
      </trkpt>
      <trkpt lat="47.49381" lon="6.72146">
        <ele>421.1</ele>
        <time>2014-11-23T09:07:12.000Z</time>
      </trkpt>
      <trkpt lat="47.49382" lon="6.72143">
        <ele>421.8</ele>
        <time>2014-11-23T09:07:13.000Z</time>
      </trkpt>
      <trkpt lat="47.49381" lon="6.72137">
        <ele>419.9</ele>
        <time>2014-11-23T09:07:17.000Z</time>
      </trkpt>
      <trkpt lat="47.49381" lon="6.72136">
        <ele>420</ele>
        <time>2014-11-23T09:07:18.000Z</time>
      </trkpt>
      <trkpt lat="47.49383" lon="6.7213">
        <ele>420.9</ele>
        <time>2014-11-23T09:07:21.000Z</time>
      </trkpt>
      <trkpt lat="47.49384" lon="6.72127">
        <ele>419.3</ele>
        <time>2014-11-23T09:07:22.000Z</time>
      </trkpt>
      <trkpt lat="47.49385" lon="6.7212">
        <ele>417.7</ele>
        <time>2014-11-23T09:07:24.000Z</time>
      </trkpt>
      <trkpt lat="47.49385" lon="6.72117">
        <ele>418.7</ele>
        <time>2014-11-23T09:07:25.000Z</time>
      </trkpt>
      <trkpt lat="47.49386" lon="6.72112">
        <ele>419.6</ele>
        <time>2014-11-23T09:07:27.000Z</time>
      </trkpt>
      <trkpt lat="47.49386" lon="6.7211">
        <ele>420.7</ele>
        <time>2014-11-23T09:07:28.000Z</time>
      </trkpt>
      <trkpt lat="47.49387" lon="6.72104">
        <ele>417</ele>
        <time>2014-11-23T09:07:31.000Z</time>
      </trkpt>
      <trkpt lat="47.49388" lon="6.72102">
        <ele>417.4</ele>
        <time>2014-11-23T09:07:32.000Z</time>
      </trkpt>
      <trkpt lat="47.49388" lon="6.72096">
        <ele>418.2</ele>
        <time>2014-11-23T09:07:35.000Z</time>
      </trkpt>
      <trkpt lat="47.49389" lon="6.72093">
        <ele>419.7</ele>
        <time>2014-11-23T09:07:36.000Z</time>
      </trkpt>
      <trkpt lat="47.4939" lon="6.72087">
        <ele>420.8</ele>
        <time>2014-11-23T09:07:38.000Z</time>
      </trkpt>
      <trkpt lat="47.49391" lon="6.72085">
        <ele>421.5</ele>
        <time>2014-11-23T09:07:39.000Z</time>
      </trkpt>
      <trkpt lat="47.49393" lon="6.72081">
        <ele>423.6</ele>
        <time>2014-11-23T09:07:41.000Z</time>
      </trkpt>
      <trkpt lat="47.49394" lon="6.7208">
        <ele>425.7</ele>
        <time>2014-11-23T09:07:42.000Z</time>
      </trkpt>
      <trkpt lat="47.49397" lon="6.72075">
        <ele>425.4</ele>
        <time>2014-11-23T09:07:45.000Z</time>
      </trkpt>
      <trkpt lat="47.49398" lon="6.72074">
        <ele>425.7</ele>
        <time>2014-11-23T09:07:46.000Z</time>
      </trkpt>
      <trkpt lat="47.494" lon="6.72069">
        <ele>427.5</ele>
        <time>2014-11-23T09:07:49.000Z</time>
      </trkpt>
      <trkpt lat="47.494" lon="6.72066">
        <ele>426.4</ele>
        <time>2014-11-23T09:07:50.000Z</time>
      </trkpt>
      <trkpt lat="47.49401" lon="6.72061">
        <ele>428.4</ele>
        <time>2014-11-23T09:07:52.000Z</time>
      </trkpt>
      <trkpt lat="47.49402" lon="6.72059">
        <ele>428.8</ele>
        <time>2014-11-23T09:07:53.000Z</time>
      </trkpt>
      <trkpt lat="47.49402" lon="6.72053">
        <ele>429.3</ele>
        <time>2014-11-23T09:07:55.000Z</time>
      </trkpt>
      <trkpt lat="47.49402" lon="6.72051">
        <ele>429.4</ele>
        <time>2014-11-23T09:07:56.000Z</time>
      </trkpt>
      <trkpt lat="47.49403" lon="6.72045">
        <ele>431.7</ele>
        <time>2014-11-23T09:07:58.000Z</time>
      </trkpt>
      <trkpt lat="47.49403" lon="6.72043">
        <ele>432</ele>
        <time>2014-11-23T09:07:59.000Z</time>
      </trkpt>
      <trkpt lat="47.49404" lon="6.72039">
        <ele>432.6</ele>
        <time>2014-11-23T09:08:01.000Z</time>
      </trkpt>
      <trkpt lat="47.49404" lon="6.72036">
        <ele>433</ele>
        <time>2014-11-23T09:08:02.000Z</time>
      </trkpt>
      <trkpt lat="47.49404" lon="6.7203">
        <ele>433</ele>
        <time>2014-11-23T09:08:05.000Z</time>
      </trkpt>
      <trkpt lat="47.49404" lon="6.72028">
        <ele>433.1</ele>
        <time>2014-11-23T09:08:06.000Z</time>
      </trkpt>
      <trkpt lat="47.49404" lon="6.72024">
        <ele>433.5</ele>
        <time>2014-11-23T09:08:08.000Z</time>
      </trkpt>
      <trkpt lat="47.49404" lon="6.72022">
        <ele>433</ele>
        <time>2014-11-23T09:08:09.000Z</time>
      </trkpt>
      <trkpt lat="47.49404" lon="6.72017">
        <ele>433.3</ele>
        <time>2014-11-23T09:08:11.000Z</time>
      </trkpt>
      <trkpt lat="47.49403" lon="6.72014">
        <ele>433.7</ele>
        <time>2014-11-23T09:08:12.000Z</time>
      </trkpt>
      <trkpt lat="47.49402" lon="6.72008">
        <ele>434.1</ele>
        <time>2014-11-23T09:08:15.000Z</time>
      </trkpt>
      <trkpt lat="47.49402" lon="6.72006">
        <ele>434.1</ele>
        <time>2014-11-23T09:08:16.000Z</time>
      </trkpt>
      <trkpt lat="47.49403" lon="6.72">
        <ele>433</ele>
        <time>2014-11-23T09:08:19.000Z</time>
      </trkpt>
      <trkpt lat="47.49404" lon="6.71999">
        <ele>432.4</ele>
        <time>2014-11-23T09:08:20.000Z</time>
      </trkpt>
      <trkpt lat="47.49404" lon="6.71993">
        <ele>431.4</ele>
        <time>2014-11-23T09:08:23.000Z</time>
      </trkpt>
      <trkpt lat="47.49404" lon="6.71991">
        <ele>431.7</ele>
        <time>2014-11-23T09:08:24.000Z</time>
      </trkpt>
      <trkpt lat="47.49405" lon="6.71987">
        <ele>433.2</ele>
        <time>2014-11-23T09:08:26.000Z</time>
      </trkpt>
      <trkpt lat="47.49405" lon="6.71985">
        <ele>434.4</ele>
        <time>2014-11-23T09:08:27.000Z</time>
      </trkpt>
      <trkpt lat="47.49406" lon="6.71982">
        <ele>434.3</ele>
        <time>2014-11-23T09:08:28.000Z</time>
      </trkpt>
      <trkpt lat="47.49404" lon="6.71974">
        <ele>427.6</ele>
        <time>2014-11-23T09:08:31.000Z</time>
      </trkpt>
      <trkpt lat="47.49403" lon="6.71969">
        <ele>426.9</ele>
        <time>2014-11-23T09:08:33.000Z</time>
      </trkpt>
      <trkpt lat="47.49402" lon="6.71967">
        <ele>426.6</ele>
        <time>2014-11-23T09:08:34.000Z</time>
      </trkpt>
      <trkpt lat="47.49403" lon="6.71961">
        <ele>426.8</ele>
        <time>2014-11-23T09:08:38.000Z</time>
      </trkpt>
      <trkpt lat="47.49403" lon="6.7196">
        <ele>426.9</ele>
        <time>2014-11-23T09:08:39.000Z</time>
      </trkpt>
      <trkpt lat="47.49403" lon="6.71954">
        <ele>428.3</ele>
        <time>2014-11-23T09:08:44.000Z</time>
      </trkpt>
      <trkpt lat="47.49403" lon="6.71953">
        <ele>429.1</ele>
        <time>2014-11-23T09:08:45.000Z</time>
      </trkpt>
      <trkpt lat="47.49404" lon="6.71948">
        <ele>429.2</ele>
        <time>2014-11-23T09:08:49.000Z</time>
      </trkpt>
      <trkpt lat="47.49404" lon="6.71946">
        <ele>429.3</ele>
        <time>2014-11-23T09:08:50.000Z</time>
      </trkpt>
      <trkpt lat="47.49405" lon="6.7194">
        <ele>432.9</ele>
        <time>2014-11-23T09:09:02.000Z</time>
      </trkpt>
      <trkpt lat="47.49405" lon="6.7194">
        <ele>432.6</ele>
        <time>2014-11-23T09:09:03.000Z</time>
      </trkpt>
      <trkpt lat="47.49406" lon="6.71934">
        <ele>433.6</ele>
        <time>2014-11-23T09:09:07.000Z</time>
      </trkpt>
      <trkpt lat="47.49407" lon="6.71932">
        <ele>435.8</ele>
        <time>2014-11-23T09:09:08.000Z</time>
      </trkpt>
      <trkpt lat="47.49408" lon="6.71928">
        <ele>437.7</ele>
        <time>2014-11-23T09:09:11.000Z</time>
      </trkpt>
      <trkpt lat="47.49409" lon="6.71926">
        <ele>438</ele>
        <time>2014-11-23T09:09:12.000Z</time>
      </trkpt>
      <trkpt lat="47.4941" lon="6.71921">
        <ele>435.3</ele>
        <time>2014-11-23T09:09:16.000Z</time>
      </trkpt>
      <trkpt lat="47.49409" lon="6.71918">
        <ele>434.6</ele>
        <time>2014-11-23T09:09:17.000Z</time>
      </trkpt>
      <trkpt lat="47.49409" lon="6.71913">
        <ele>436.6</ele>
        <time>2014-11-23T09:09:19.000Z</time>
      </trkpt>
      <trkpt lat="47.49409" lon="6.71911">
        <ele>436.8</ele>
        <time>2014-11-23T09:09:20.000Z</time>
      </trkpt>
      <trkpt lat="47.49409" lon="6.71904">
        <ele>436.7</ele>
        <time>2014-11-23T09:09:23.000Z</time>
      </trkpt>
      <trkpt lat="47.49409" lon="6.71902">
        <ele>436.7</ele>
        <time>2014-11-23T09:09:24.000Z</time>
      </trkpt>
      <trkpt lat="47.4941" lon="6.71896">
        <ele>438</ele>
        <time>2014-11-23T09:09:27.000Z</time>
      </trkpt>
      <trkpt lat="47.4941" lon="6.71894">
        <ele>438.3</ele>
        <time>2014-11-23T09:09:28.000Z</time>
      </trkpt>
      <trkpt lat="47.4941" lon="6.71893">
        <ele>438.8</ele>
        <time>2014-11-23T09:09:29.000Z</time>
      </trkpt>
      <trkpt lat="47.49411" lon="6.71877">
        <ele>434</ele>
        <time>2014-11-23T09:09:37.000Z</time>
      </trkpt>
      <trkpt lat="47.49412" lon="6.71872">
        <ele>433.3</ele>
        <time>2014-11-23T09:09:40.000Z</time>
      </trkpt>
      <trkpt lat="47.49413" lon="6.7187">
        <ele>433.7</ele>
        <time>2014-11-23T09:09:41.000Z</time>
      </trkpt>
      <trkpt lat="47.49414" lon="6.71865">
        <ele>436.6</ele>
        <time>2014-11-23T09:09:45.000Z</time>
      </trkpt>
      <trkpt lat="47.49414" lon="6.71863">
        <ele>436.2</ele>
        <time>2014-11-23T09:09:46.000Z</time>
      </trkpt>
      <trkpt lat="47.49414" lon="6.71856">
        <ele>438.1</ele>
        <time>2014-11-23T09:09:49.000Z</time>
      </trkpt>
      <trkpt lat="47.49415" lon="6.71853">
        <ele>438.3</ele>
        <time>2014-11-23T09:09:50.000Z</time>
      </trkpt>
      <trkpt lat="47.49416" lon="6.71847">
        <ele>439.2</ele>
        <time>2014-11-23T09:09:52.000Z</time>
      </trkpt>
      <trkpt lat="47.49417" lon="6.71845">
        <ele>439.3</ele>
        <time>2014-11-23T09:09:53.000Z</time>
      </trkpt>
      <trkpt lat="47.49416" lon="6.71839">
        <ele>439</ele>
        <time>2014-11-23T09:09:57.000Z</time>
      </trkpt>
      <trkpt lat="47.49416" lon="6.71837">
        <ele>439.2</ele>
        <time>2014-11-23T09:09:58.000Z</time>
      </trkpt>
      <trkpt lat="47.49416" lon="6.71832">
        <ele>439</ele>
        <time>2014-11-23T09:10:00.000Z</time>
      </trkpt>
      <trkpt lat="47.49416" lon="6.7183">
        <ele>439.8</ele>
        <time>2014-11-23T09:10:01.000Z</time>
      </trkpt>
      <trkpt lat="47.49417" lon="6.71824">
        <ele>440.3</ele>
        <time>2014-11-23T09:10:05.000Z</time>
      </trkpt>
      <trkpt lat="47.49418" lon="6.71823">
        <ele>440.2</ele>
        <time>2014-11-23T09:10:06.000Z</time>
      </trkpt>
      <trkpt lat="47.49417" lon="6.71817">
        <ele>438</ele>
        <time>2014-11-23T09:10:11.000Z</time>
      </trkpt>
      <trkpt lat="47.49417" lon="6.71815">
        <ele>436.8</ele>
        <time>2014-11-23T09:10:12.000Z</time>
      </trkpt>
      <trkpt lat="47.49415" lon="6.71809">
        <ele>436.3</ele>
        <time>2014-11-23T09:10:16.000Z</time>
      </trkpt>
      <trkpt lat="47.49416" lon="6.71808">
        <ele>436.8</ele>
        <time>2014-11-23T09:10:17.000Z</time>
      </trkpt>
      <trkpt lat="47.49417" lon="6.71801">
        <ele>438</ele>
        <time>2014-11-23T09:10:21.000Z</time>
      </trkpt>
      <trkpt lat="47.49417" lon="6.718">
        <ele>437.9</ele>
        <time>2014-11-23T09:10:22.000Z</time>
      </trkpt>
      <trkpt lat="47.49419" lon="6.71794">
        <ele>441</ele>
        <time>2014-11-23T09:10:26.000Z</time>
      </trkpt>
      <trkpt lat="47.49419" lon="6.71793">
        <ele>441.4</ele>
        <time>2014-11-23T09:10:27.000Z</time>
      </trkpt>
      <trkpt lat="47.4942" lon="6.71792">
        <ele>442.3</ele>
        <time>2014-11-23T09:10:28.000Z</time>
      </trkpt>
      <trkpt lat="47.4942" lon="6.71786">
        <ele>436.7</ele>
        <time>2014-11-23T09:10:31.000Z</time>
      </trkpt>
      <trkpt lat="47.49418" lon="6.7178">
        <ele>435.9</ele>
        <time>2014-11-23T09:10:34.000Z</time>
      </trkpt>
      <trkpt lat="47.49418" lon="6.71779">
        <ele>435.3</ele>
        <time>2014-11-23T09:10:35.000Z</time>
      </trkpt>
      <trkpt lat="47.49419" lon="6.71773">
        <ele>442.2</ele>
        <time>2014-11-23T09:10:40.000Z</time>
      </trkpt>
      <trkpt lat="47.4942" lon="6.71772">
        <ele>443.3</ele>
        <time>2014-11-23T09:10:41.000Z</time>
      </trkpt>
      <trkpt lat="47.49422" lon="6.71766">
        <ele>444.9</ele>
        <time>2014-11-23T09:10:44.000Z</time>
      </trkpt>
      <trkpt lat="47.49423" lon="6.71765">
        <ele>444.7</ele>
        <time>2014-11-23T09:10:45.000Z</time>
      </trkpt>
      <trkpt lat="47.49425" lon="6.71761">
        <ele>444.5</ele>
        <time>2014-11-23T09:10:47.000Z</time>
      </trkpt>
      <trkpt lat="47.49426" lon="6.71759">
        <ele>444.9</ele>
        <time>2014-11-23T09:10:48.000Z</time>
      </trkpt>
      <trkpt lat="47.49427" lon="6.71754">
        <ele>444.3</ele>
        <time>2014-11-23T09:10:50.000Z</time>
      </trkpt>
      <trkpt lat="47.49427" lon="6.71751">
        <ele>442.8</ele>
        <time>2014-11-23T09:10:51.000Z</time>
      </trkpt>
      <trkpt lat="47.49426" lon="6.71745">
        <ele>441.7</ele>
        <time>2014-11-23T09:10:53.000Z</time>
      </trkpt>
      <trkpt lat="47.49426" lon="6.71743">
        <ele>443</ele>
        <time>2014-11-23T09:10:54.000Z</time>
      </trkpt>
      <trkpt lat="47.49427" lon="6.71737">
        <ele>443.9</ele>
        <time>2014-11-23T09:10:57.000Z</time>
      </trkpt>
      <trkpt lat="47.49428" lon="6.71735">
        <ele>444.6</ele>
        <time>2014-11-23T09:10:58.000Z</time>
      </trkpt>
      <trkpt lat="47.49429" lon="6.71729">
        <ele>446.9</ele>
        <time>2014-11-23T09:11:00.998Z</time>
      </trkpt>
      <trkpt lat="47.4943" lon="6.71727">
        <ele>446.6</ele>
        <time>2014-11-23T09:11:02.000Z</time>
      </trkpt>
      <trkpt lat="47.49431" lon="6.71721">
        <ele>449.5</ele>
        <time>2014-11-23T09:11:06.000Z</time>
      </trkpt>
      <trkpt lat="47.49431" lon="6.71719">
        <ele>449.6</ele>
        <time>2014-11-23T09:11:07.000Z</time>
      </trkpt>
      <trkpt lat="47.49432" lon="6.71715">
        <ele>449.8</ele>
        <time>2014-11-23T09:11:09.000Z</time>
      </trkpt>
      <trkpt lat="47.49432" lon="6.71713">
        <ele>450.4</ele>
        <time>2014-11-23T09:11:10.000Z</time>
      </trkpt>
      <trkpt lat="47.49432" lon="6.71706">
        <ele>450.5</ele>
        <time>2014-11-23T09:11:13.000Z</time>
      </trkpt>
      <trkpt lat="47.49432" lon="6.71704">
        <ele>451.1</ele>
        <time>2014-11-23T09:11:14.000Z</time>
      </trkpt>
      <trkpt lat="47.49432" lon="6.71699">
        <ele>451</ele>
        <time>2014-11-23T09:11:16.000Z</time>
      </trkpt>
      <trkpt lat="47.49432" lon="6.71696">
        <ele>451.6</ele>
        <time>2014-11-23T09:11:17.000Z</time>
      </trkpt>
      <trkpt lat="47.49433" lon="6.71691">
        <ele>451.1</ele>
        <time>2014-11-23T09:11:19.000Z</time>
      </trkpt>
      <trkpt lat="47.49433" lon="6.71689">
        <ele>451</ele>
        <time>2014-11-23T09:11:20.000Z</time>
      </trkpt>
      <trkpt lat="47.49433" lon="6.71684">
        <ele>452.7</ele>
        <time>2014-11-23T09:11:22.000Z</time>
      </trkpt>
      <trkpt lat="47.49433" lon="6.71681">
        <ele>454</ele>
        <time>2014-11-23T09:11:23.000Z</time>
      </trkpt>
      <trkpt lat="47.49433" lon="6.71676">
        <ele>454</ele>
        <time>2014-11-23T09:11:25.000Z</time>
      </trkpt>
      <trkpt lat="47.49434" lon="6.71673">
        <ele>455.3</ele>
        <time>2014-11-23T09:11:26.000Z</time>
      </trkpt>
      <trkpt lat="47.49434" lon="6.71668">
        <ele>456</ele>
        <time>2014-11-23T09:11:28.000Z</time>
      </trkpt>
      <trkpt lat="47.49435" lon="6.7166">
        <ele>454.5</ele>
        <time>2014-11-23T09:11:31.000Z</time>
      </trkpt>
      <trkpt lat="47.49435" lon="6.71654">
        <ele>454.4</ele>
        <time>2014-11-23T09:11:34.000Z</time>
      </trkpt>
      <trkpt lat="47.49435" lon="6.71652">
        <ele>453.3</ele>
        <time>2014-11-23T09:11:35.000Z</time>
      </trkpt>
      <trkpt lat="47.49435" lon="6.71647">
        <ele>454.2</ele>
        <time>2014-11-23T09:11:37.000Z</time>
      </trkpt>
      <trkpt lat="47.49435" lon="6.71644">
        <ele>454.9</ele>
        <time>2014-11-23T09:11:38.000Z</time>
      </trkpt>
      <trkpt lat="47.49436" lon="6.71638">
        <ele>455.2</ele>
        <time>2014-11-23T09:11:40.000Z</time>
      </trkpt>
      <trkpt lat="47.49437" lon="6.71636">
        <ele>454.8</ele>
        <time>2014-11-23T09:11:41.000Z</time>
      </trkpt>
      <trkpt lat="47.49437" lon="6.71632">
        <ele>455.1</ele>
        <time>2014-11-23T09:11:43.000Z</time>
      </trkpt>
      <trkpt lat="47.49437" lon="6.71629">
        <ele>455.4</ele>
        <time>2014-11-23T09:11:44.000Z</time>
      </trkpt>
      <trkpt lat="47.49436" lon="6.71624">
        <ele>451.5</ele>
        <time>2014-11-23T09:11:46.000Z</time>
      </trkpt>
      <trkpt lat="47.49435" lon="6.71622">
        <ele>450.6</ele>
        <time>2014-11-23T09:11:47.000Z</time>
      </trkpt>
      <trkpt lat="47.49432" lon="6.71618">
        <ele>448.8</ele>
        <time>2014-11-23T09:11:50.000Z</time>
      </trkpt>
      <trkpt lat="47.49431" lon="6.71617">
        <ele>448.5</ele>
        <time>2014-11-23T09:11:51.000Z</time>
      </trkpt>
      <trkpt lat="47.49429" lon="6.71613">
        <ele>448.3</ele>
        <time>2014-11-23T09:11:54.000Z</time>
      </trkpt>
      <trkpt lat="47.49428" lon="6.71612">
        <ele>448.1</ele>
        <time>2014-11-23T09:11:55.000Z</time>
      </trkpt>
      <trkpt lat="47.49426" lon="6.71607">
        <ele>446.4</ele>
        <time>2014-11-23T09:11:58.000Z</time>
      </trkpt>
      <trkpt lat="47.49426" lon="6.71606">
        <ele>446.1</ele>
        <time>2014-11-23T09:11:59.000Z</time>
      </trkpt>
      <trkpt lat="47.49425" lon="6.71601">
        <ele>445.4</ele>
        <time>2014-11-23T09:12:02.000Z</time>
      </trkpt>
      <trkpt lat="47.49426" lon="6.71598">
        <ele>445.7</ele>
        <time>2014-11-23T09:12:03.000Z</time>
      </trkpt>
      <trkpt lat="47.4943" lon="6.71596">
        <ele>447.4</ele>
        <time>2014-11-23T09:12:16.999Z</time>
      </trkpt>
      <trkpt lat="47.49429" lon="6.71592">
        <ele>447.3</ele>
        <time>2014-11-23T09:12:18.000Z</time>
      </trkpt>
      <trkpt lat="47.4943" lon="6.71585">
        <ele>450.9</ele>
        <time>2014-11-23T09:12:21.000Z</time>
      </trkpt>
      <trkpt lat="47.4943" lon="6.71583">
        <ele>452.7</ele>
        <time>2014-11-23T09:12:22.000Z</time>
      </trkpt>
      <trkpt lat="47.4943" lon="6.71578">
        <ele>453.4</ele>
        <time>2014-11-23T09:12:24.000Z</time>
      </trkpt>
      <trkpt lat="47.4943" lon="6.71576">
        <ele>455.5</ele>
        <time>2014-11-23T09:12:25.000Z</time>
      </trkpt>
      <trkpt lat="47.4943" lon="6.71571">
        <ele>455</ele>
        <time>2014-11-23T09:12:27.000Z</time>
      </trkpt>
      <trkpt lat="47.4943" lon="6.71569">
        <ele>455.9</ele>
        <time>2014-11-23T09:12:28.000Z</time>
      </trkpt>
      <trkpt lat="47.49429" lon="6.71563">
        <ele>446</ele>
        <time>2014-11-23T09:12:32.000Z</time>
      </trkpt>
      <trkpt lat="47.49429" lon="6.71561">
        <ele>446.4</ele>
        <time>2014-11-23T09:12:33.000Z</time>
      </trkpt>
      <trkpt lat="47.49429" lon="6.71556">
        <ele>446.5</ele>
        <time>2014-11-23T09:12:35.000Z</time>
      </trkpt>
      <trkpt lat="47.49429" lon="6.71553">
        <ele>446.7</ele>
        <time>2014-11-23T09:12:36.000Z</time>
      </trkpt>
      <trkpt lat="47.49429" lon="6.71548">
        <ele>447.5</ele>
        <time>2014-11-23T09:12:38.000Z</time>
      </trkpt>
      <trkpt lat="47.49429" lon="6.71546">
        <ele>449.6</ele>
        <time>2014-11-23T09:12:39.000Z</time>
      </trkpt>
      <trkpt lat="47.4943" lon="6.71542">
        <ele>450.6</ele>
        <time>2014-11-23T09:12:42.000Z</time>
      </trkpt>
      <trkpt lat="47.49431" lon="6.7154">
        <ele>449.9</ele>
        <time>2014-11-23T09:12:43.000Z</time>
      </trkpt>
      <trkpt lat="47.49431" lon="6.71534">
        <ele>451.4</ele>
        <time>2014-11-23T09:12:45.000Z</time>
      </trkpt>
      <trkpt lat="47.49431" lon="6.71531">
        <ele>451.6</ele>
        <time>2014-11-23T09:12:46.000Z</time>
      </trkpt>
      <trkpt lat="47.49431" lon="6.71525">
        <ele>453.4</ele>
        <time>2014-11-23T09:12:48.000Z</time>
      </trkpt>
      <trkpt lat="47.49431" lon="6.71522">
        <ele>452.8</ele>
        <time>2014-11-23T09:12:49.000Z</time>
      </trkpt>
      <trkpt lat="47.4943" lon="6.71517">
        <ele>452.7</ele>
        <time>2014-11-23T09:12:51.000Z</time>
      </trkpt>
      <trkpt lat="47.4943" lon="6.71515">
        <ele>452.6</ele>
        <time>2014-11-23T09:12:52.000Z</time>
      </trkpt>
      <trkpt lat="47.4943" lon="6.71511">
        <ele>453.6</ele>
        <time>2014-11-23T09:12:54.000Z</time>
      </trkpt>
      <trkpt lat="47.4943" lon="6.71508">
        <ele>454.5</ele>
        <time>2014-11-23T09:12:55.000Z</time>
      </trkpt>
      <trkpt lat="47.49431" lon="6.71504">
        <ele>456</ele>
        <time>2014-11-23T09:12:57.000Z</time>
      </trkpt>
      <trkpt lat="47.49431" lon="6.71501">
        <ele>457.5</ele>
        <time>2014-11-23T09:12:58.000Z</time>
      </trkpt>
      <trkpt lat="47.49431" lon="6.71495">
        <ele>456.6</ele>
        <time>2014-11-23T09:13:00.000Z</time>
      </trkpt>
      <trkpt lat="47.49431" lon="6.71492">
        <ele>456.9</ele>
        <time>2014-11-23T09:13:01.000Z</time>
      </trkpt>
      <trkpt lat="47.4943" lon="6.71487">
        <ele>457.2</ele>
        <time>2014-11-23T09:13:03.000Z</time>
      </trkpt>
      <trkpt lat="47.4943" lon="6.71484">
        <ele>456.7</ele>
        <time>2014-11-23T09:13:04.000Z</time>
      </trkpt>
      <trkpt lat="47.49431" lon="6.71479">
        <ele>458.6</ele>
        <time>2014-11-23T09:13:06.000Z</time>
      </trkpt>
      <trkpt lat="47.49431" lon="6.71477">
        <ele>459.1</ele>
        <time>2014-11-23T09:13:07.000Z</time>
      </trkpt>
      <trkpt lat="47.49431" lon="6.71471">
        <ele>459.2</ele>
        <time>2014-11-23T09:13:09.000Z</time>
      </trkpt>
      <trkpt lat="47.49431" lon="6.71468">
        <ele>458.7</ele>
        <time>2014-11-23T09:13:10.000Z</time>
      </trkpt>
      <trkpt lat="47.49432" lon="6.71463">
        <ele>458.7</ele>
        <time>2014-11-23T09:13:12.000Z</time>
      </trkpt>
      <trkpt lat="47.49433" lon="6.7146">
        <ele>459</ele>
        <time>2014-11-23T09:13:13.000Z</time>
      </trkpt>
      <trkpt lat="47.49433" lon="6.71456">
        <ele>459</ele>
        <time>2014-11-23T09:13:14.000Z</time>
      </trkpt>
      <trkpt lat="47.49434" lon="6.71453">
        <ele>459.7</ele>
        <time>2014-11-23T09:13:15.000Z</time>
      </trkpt>
      <trkpt lat="47.49434" lon="6.71446">
        <ele>459.9</ele>
        <time>2014-11-23T09:13:17.000Z</time>
      </trkpt>
      <trkpt lat="47.49434" lon="6.71443">
        <ele>460.7</ele>
        <time>2014-11-23T09:13:18.000Z</time>
      </trkpt>
      <trkpt lat="47.49434" lon="6.71437">
        <ele>462.1</ele>
        <time>2014-11-23T09:13:20.000Z</time>
      </trkpt>
      <trkpt lat="47.49433" lon="6.71434">
        <ele>462.9</ele>
        <time>2014-11-23T09:13:21.000Z</time>
      </trkpt>
      <trkpt lat="47.49432" lon="6.7143">
        <ele>463.5</ele>
        <time>2014-11-23T09:13:22.000Z</time>
      </trkpt>
      <trkpt lat="47.49432" lon="6.71427">
        <ele>463.9</ele>
        <time>2014-11-23T09:13:23.000Z</time>
      </trkpt>
      <trkpt lat="47.49431" lon="6.7142">
        <ele>464.6</ele>
        <time>2014-11-23T09:13:25.000Z</time>
      </trkpt>
      <trkpt lat="47.49431" lon="6.71418">
        <ele>465.3</ele>
        <time>2014-11-23T09:13:26.000Z</time>
      </trkpt>
      <trkpt lat="47.49431" lon="6.71412">
        <ele>465.5</ele>
        <time>2014-11-23T09:13:28.000Z</time>
      </trkpt>
      <trkpt lat="47.4943" lon="6.71404">
        <ele>454.5</ele>
        <time>2014-11-23T09:13:30.460Z</time>
      </trkpt>
      <trkpt lat="47.49429" lon="6.71396">
        <ele>454.7</ele>
        <time>2014-11-23T09:13:33.000Z</time>
      </trkpt>
      <trkpt lat="47.49429" lon="6.71391">
        <ele>455.4</ele>
        <time>2014-11-23T09:13:34.000Z</time>
      </trkpt>
      <trkpt lat="47.49429" lon="6.71387">
        <ele>456</ele>
        <time>2014-11-23T09:13:35.000Z</time>
      </trkpt>
      <trkpt lat="47.49429" lon="6.71383">
        <ele>456.3</ele>
        <time>2014-11-23T09:13:35.999Z</time>
      </trkpt>
      <trkpt lat="47.49428" lon="6.71375">
        <ele>452.8</ele>
        <time>2014-11-23T09:13:37.000Z</time>
      </trkpt>
      <trkpt lat="47.49427" lon="6.7137">
        <ele>454.3</ele>
        <time>2014-11-23T09:13:38.000Z</time>
      </trkpt>
      <trkpt lat="47.49427" lon="6.71365">
        <ele>455.7</ele>
        <time>2014-11-23T09:13:39.000Z</time>
      </trkpt>
      <trkpt lat="47.49426" lon="6.71359">
        <ele>456</ele>
        <time>2014-11-23T09:13:40.000Z</time>
      </trkpt>
      <trkpt lat="47.49426" lon="6.71354">
        <ele>455.6</ele>
        <time>2014-11-23T09:13:41.000Z</time>
      </trkpt>
      <trkpt lat="47.49426" lon="6.71351">
        <ele>455.8</ele>
        <time>2014-11-23T09:13:41.999Z</time>
      </trkpt>
      <trkpt lat="47.49425" lon="6.71345">
        <ele>452.4</ele>
        <time>2014-11-23T09:13:43.000Z</time>
      </trkpt>
      <trkpt lat="47.49424" lon="6.7134">
        <ele>452.2</ele>
        <time>2014-11-23T09:13:44.000Z</time>
      </trkpt>
      <trkpt lat="47.49424" lon="6.71335">
        <ele>452.3</ele>
        <time>2014-11-23T09:13:45.000Z</time>
      </trkpt>
      <trkpt lat="47.49423" lon="6.7133">
        <ele>454.1</ele>
        <time>2014-11-23T09:13:46.000Z</time>
      </trkpt>
      <trkpt lat="47.49423" lon="6.71326">
        <ele>453.9</ele>
        <time>2014-11-23T09:13:47.000Z</time>
      </trkpt>
      <trkpt lat="47.49423" lon="6.71323">
        <ele>453.7</ele>
        <time>2014-11-23T09:13:48.000Z</time>
      </trkpt>
      <trkpt lat="47.49423" lon="6.71318">
        <ele>453.9</ele>
        <time>2014-11-23T09:13:49.000Z</time>
      </trkpt>
      <trkpt lat="47.49423" lon="6.71314">
        <ele>454.5</ele>
        <time>2014-11-23T09:13:50.000Z</time>
      </trkpt>
      <trkpt lat="47.49423" lon="6.71311">
        <ele>455.3</ele>
        <time>2014-11-23T09:13:51.000Z</time>
      </trkpt>
      <trkpt lat="47.49423" lon="6.71305">
        <ele>458</ele>
        <time>2014-11-23T09:13:53.000Z</time>
      </trkpt>
      <trkpt lat="47.49423" lon="6.71303">
        <ele>458.5</ele>
        <time>2014-11-23T09:13:53.999Z</time>
      </trkpt>
      <trkpt lat="47.49424" lon="6.71299">
        <ele>462.4</ele>
        <time>2014-11-23T09:13:55.000Z</time>
      </trkpt>
      <trkpt lat="47.49424" lon="6.71295">
        <ele>463.1</ele>
        <time>2014-11-23T09:13:56.000Z</time>
      </trkpt>
      <trkpt lat="47.49425" lon="6.71292">
        <ele>464.1</ele>
        <time>2014-11-23T09:13:57.000Z</time>
      </trkpt>
      <trkpt lat="47.49426" lon="6.71289">
        <ele>465.4</ele>
        <time>2014-11-23T09:13:58.000Z</time>
      </trkpt>
      <trkpt lat="47.49426" lon="6.71284">
        <ele>465.9</ele>
        <time>2014-11-23T09:14:00.000Z</time>
      </trkpt>
      <trkpt lat="47.49426" lon="6.7128">
        <ele>467.5</ele>
        <time>2014-11-23T09:14:01.000Z</time>
      </trkpt>
      <trkpt lat="47.49426" lon="6.71274">
        <ele>468.2</ele>
        <time>2014-11-23T09:14:03.000Z</time>
      </trkpt>
      <trkpt lat="47.49426" lon="6.71272">
        <ele>468.6</ele>
        <time>2014-11-23T09:14:04.000Z</time>
      </trkpt>
      <trkpt lat="47.49425" lon="6.71266">
        <ele>467.2</ele>
        <time>2014-11-23T09:14:06.000Z</time>
      </trkpt>
      <trkpt lat="47.49423" lon="6.71263">
        <ele>466.4</ele>
        <time>2014-11-23T09:14:07.000Z</time>
      </trkpt>
      <trkpt lat="47.49421" lon="6.71258">
        <ele>466.7</ele>
        <time>2014-11-23T09:14:09.000Z</time>
      </trkpt>
      <trkpt lat="47.4942" lon="6.71255">
        <ele>466.9</ele>
        <time>2014-11-23T09:14:10.000Z</time>
      </trkpt>
      <trkpt lat="47.4942" lon="6.71252">
        <ele>466.7</ele>
        <time>2014-11-23T09:14:11.000Z</time>
      </trkpt>
      <trkpt lat="47.49419" lon="6.71248">
        <ele>465.1</ele>
        <time>2014-11-23T09:14:12.000Z</time>
      </trkpt>
      <trkpt lat="47.49418" lon="6.71244">
        <ele>463.9</ele>
        <time>2014-11-23T09:14:13.000Z</time>
      </trkpt>
      <trkpt lat="47.49417" lon="6.7124">
        <ele>463.2</ele>
        <time>2014-11-23T09:14:14.000Z</time>
      </trkpt>
      <trkpt lat="47.49416" lon="6.71236">
        <ele>464.3</ele>
        <time>2014-11-23T09:14:15.000Z</time>
      </trkpt>
      <trkpt lat="47.49416" lon="6.71233">
        <ele>464.8</ele>
        <time>2014-11-23T09:14:16.000Z</time>
      </trkpt>
      <trkpt lat="47.49415" lon="6.71229">
        <ele>464.9</ele>
        <time>2014-11-23T09:14:17.000Z</time>
      </trkpt>
      <trkpt lat="47.49414" lon="6.71226">
        <ele>464.5</ele>
        <time>2014-11-23T09:14:18.000Z</time>
      </trkpt>
      <trkpt lat="47.49413" lon="6.71223">
        <ele>465.3</ele>
        <time>2014-11-23T09:14:19.000Z</time>
      </trkpt>
      <trkpt lat="47.49412" lon="6.71219">
        <ele>465.4</ele>
        <time>2014-11-23T09:14:20.000Z</time>
      </trkpt>
      <trkpt lat="47.49411" lon="6.71215">
        <ele>466.2</ele>
        <time>2014-11-23T09:14:21.000Z</time>
      </trkpt>
      <trkpt lat="47.49411" lon="6.71212">
        <ele>466.9</ele>
        <time>2014-11-23T09:14:22.000Z</time>
      </trkpt>
      <trkpt lat="47.49411" lon="6.71205">
        <ele>467</ele>
        <time>2014-11-23T09:14:24.000Z</time>
      </trkpt>
      <trkpt lat="47.49411" lon="6.71202">
        <ele>467.7</ele>
        <time>2014-11-23T09:14:25.000Z</time>
      </trkpt>
      <trkpt lat="47.49411" lon="6.71198">
        <ele>468.5</ele>
        <time>2014-11-23T09:14:26.000Z</time>
      </trkpt>
      <trkpt lat="47.4941" lon="6.71195">
        <ele>467</ele>
        <time>2014-11-23T09:14:27.000Z</time>
      </trkpt>
      <trkpt lat="47.4941" lon="6.71191">
        <ele>468.1</ele>
        <time>2014-11-23T09:14:28.000Z</time>
      </trkpt>
      <trkpt lat="47.49407" lon="6.7118">
        <ele>463.9</ele>
        <time>2014-11-23T09:14:31.000Z</time>
      </trkpt>
      <trkpt lat="47.49405" lon="6.71175">
        <ele>462.9</ele>
        <time>2014-11-23T09:14:33.000Z</time>
      </trkpt>
      <trkpt lat="47.49404" lon="6.71172">
        <ele>463.5</ele>
        <time>2014-11-23T09:14:34.000Z</time>
      </trkpt>
      <trkpt lat="47.49402" lon="6.71166">
        <ele>462.8</ele>
        <time>2014-11-23T09:14:36.000Z</time>
      </trkpt>
      <trkpt lat="47.49401" lon="6.71163">
        <ele>462.1</ele>
        <time>2014-11-23T09:14:37.000Z</time>
      </trkpt>
      <trkpt lat="47.49399" lon="6.71158">
        <ele>462.1</ele>
        <time>2014-11-23T09:14:39.000Z</time>
      </trkpt>
      <trkpt lat="47.49397" lon="6.71156">
        <ele>461.5</ele>
        <time>2014-11-23T09:14:40.000Z</time>
      </trkpt>
      <trkpt lat="47.49393" lon="6.71154">
        <ele>461.1</ele>
        <time>2014-11-23T09:14:57.000Z</time>
      </trkpt>
      <trkpt lat="47.49392" lon="6.71153">
        <ele>457.5</ele>
        <time>2014-11-23T09:14:58.000Z</time>
      </trkpt>
      <trkpt lat="47.49389" lon="6.71153">
        <ele>449.2</ele>
        <time>2014-11-23T09:15:01.000Z</time>
      </trkpt>
      <trkpt lat="47.49387" lon="6.71153">
        <ele>447.6</ele>
        <time>2014-11-23T09:15:02.000Z</time>
      </trkpt>
      <trkpt lat="47.49384" lon="6.71154">
        <ele>441.5</ele>
        <time>2014-11-23T09:15:05.000Z</time>
      </trkpt>
      <trkpt lat="47.4938" lon="6.71155">
        <ele>441.3</ele>
        <time>2014-11-23T09:15:06.000Z</time>
      </trkpt>
      <trkpt lat="47.49377" lon="6.71156">
        <ele>440.8</ele>
        <time>2014-11-23T09:15:08.000Z</time>
      </trkpt>
      <trkpt lat="47.49376" lon="6.71156">
        <ele>440.3</ele>
        <time>2014-11-23T09:15:09.000Z</time>
      </trkpt>
      <trkpt lat="47.49372" lon="6.71153">
        <ele>436.2</ele>
        <time>2014-11-23T09:15:44.000Z</time>
      </trkpt>
      <trkpt lat="47.49372" lon="6.71153">
        <ele>436.2</ele>
        <time>2014-11-23T09:15:45.000Z</time>
      </trkpt>
      <trkpt lat="47.49368" lon="6.71149">
        <ele>435.5</ele>
        <time>2014-11-23T09:17:20.000Z</time>
      </trkpt>
      <trkpt lat="47.49368" lon="6.71149">
        <ele>435.5</ele>
        <time>2014-11-23T09:17:21.000Z</time>
      </trkpt>
      <trkpt lat="47.49368" lon="6.71143">
        <ele>390.3</ele>
        <time>2014-11-23T09:18:55.000Z</time>
      </trkpt>
      <trkpt lat="47.49367" lon="6.71142">
        <ele>390.9</ele>
        <time>2014-11-23T09:18:56.000Z</time>
      </trkpt>
      <trkpt lat="47.49367" lon="6.71136">
        <ele>405</ele>
        <time>2014-11-23T09:19:08.000Z</time>
      </trkpt>
      <trkpt lat="47.49367" lon="6.71134">
        <ele>407</ele>
        <time>2014-11-23T09:19:09.000Z</time>
      </trkpt>
      <trkpt lat="47.49367" lon="6.71129">
        <ele>413</ele>
        <time>2014-11-23T09:19:11.000Z</time>
      </trkpt>
      <trkpt lat="47.49368" lon="6.71126">
        <ele>414</ele>
        <time>2014-11-23T09:19:12.000Z</time>
      </trkpt>
      <trkpt lat="47.49368" lon="6.7112">
        <ele>415.9</ele>
        <time>2014-11-23T09:19:14.000Z</time>
      </trkpt>
      <trkpt lat="47.49369" lon="6.71118">
        <ele>416.9</ele>
        <time>2014-11-23T09:19:15.000Z</time>
      </trkpt>
      <trkpt lat="47.49369" lon="6.71113">
        <ele>419.5</ele>
        <time>2014-11-23T09:19:17.000Z</time>
      </trkpt>
      <trkpt lat="47.49369" lon="6.71109">
        <ele>421</ele>
        <time>2014-11-23T09:19:18.000Z</time>
      </trkpt>
      <trkpt lat="47.49368" lon="6.71106">
        <ele>425.7</ele>
        <time>2014-11-23T09:19:19.000Z</time>
      </trkpt>
      <trkpt lat="47.49368" lon="6.71101">
        <ele>427.9</ele>
        <time>2014-11-23T09:19:20.000Z</time>
      </trkpt>
      <trkpt lat="47.49367" lon="6.71097">
        <ele>429.9</ele>
        <time>2014-11-23T09:19:21.000Z</time>
      </trkpt>
      <trkpt lat="47.49366" lon="6.71093">
        <ele>428.1</ele>
        <time>2014-11-23T09:19:22.000Z</time>
      </trkpt>
      <trkpt lat="47.49365" lon="6.7109">
        <ele>427.7</ele>
        <time>2014-11-23T09:19:23.000Z</time>
      </trkpt>
      <trkpt lat="47.49364" lon="6.71087">
        <ele>427.9</ele>
        <time>2014-11-23T09:19:24.000Z</time>
      </trkpt>
      <trkpt lat="47.49363" lon="6.71083">
        <ele>430</ele>
        <time>2014-11-23T09:19:25.000Z</time>
      </trkpt>
      <trkpt lat="47.49362" lon="6.7108">
        <ele>430.1</ele>
        <time>2014-11-23T09:19:26.000Z</time>
      </trkpt>
      <trkpt lat="47.49361" lon="6.71077">
        <ele>430.7</ele>
        <time>2014-11-23T09:19:27.000Z</time>
      </trkpt>
      <trkpt lat="47.49361" lon="6.71072">
        <ele>434</ele>
        <time>2014-11-23T09:19:28.000Z</time>
      </trkpt>
      <trkpt lat="47.49349" lon="6.71034">
        <ele>442.7</ele>
        <time>2014-11-23T09:19:37.000Z</time>
      </trkpt>
      <trkpt lat="47.49347" lon="6.7103">
        <ele>444</ele>
        <time>2014-11-23T09:19:38.000Z</time>
      </trkpt>
      <trkpt lat="47.49346" lon="6.71027">
        <ele>446.2</ele>
        <time>2014-11-23T09:19:39.000Z</time>
      </trkpt>
      <trkpt lat="47.49344" lon="6.71023">
        <ele>443.8</ele>
        <time>2014-11-23T09:19:42.000Z</time>
      </trkpt>
      <trkpt lat="47.49343" lon="6.71021">
        <ele>443.5</ele>
        <time>2014-11-23T09:19:43.000Z</time>
      </trkpt>
      <trkpt lat="47.4934" lon="6.71017">
        <ele>445.4</ele>
        <time>2014-11-23T09:19:46.000Z</time>
      </trkpt>
      <trkpt lat="47.49339" lon="6.71015">
        <ele>445.5</ele>
        <time>2014-11-23T09:19:47.000Z</time>
      </trkpt>
      <trkpt lat="47.49338" lon="6.71011">
        <ele>447.9</ele>
        <time>2014-11-23T09:19:49.000Z</time>
      </trkpt>
      <trkpt lat="47.49337" lon="6.71008">
        <ele>448.1</ele>
        <time>2014-11-23T09:19:50.000Z</time>
      </trkpt>
      <trkpt lat="47.49336" lon="6.71003">
        <ele>450</ele>
        <time>2014-11-23T09:19:52.000Z</time>
      </trkpt>
      <trkpt lat="47.49335" lon="6.71">
        <ele>451.2</ele>
        <time>2014-11-23T09:19:53.000Z</time>
      </trkpt>
      <trkpt lat="47.49334" lon="6.70994">
        <ele>453.7</ele>
        <time>2014-11-23T09:19:55.000Z</time>
      </trkpt>
      <trkpt lat="47.49333" lon="6.70991">
        <ele>453.2</ele>
        <time>2014-11-23T09:19:56.000Z</time>
      </trkpt>
      <trkpt lat="47.49331" lon="6.70987">
        <ele>452.4</ele>
        <time>2014-11-23T09:19:58.000Z</time>
      </trkpt>
      <trkpt lat="47.4933" lon="6.70984">
        <ele>451.9</ele>
        <time>2014-11-23T09:19:59.000Z</time>
      </trkpt>
      <trkpt lat="47.49327" lon="6.70979">
        <ele>449.9</ele>
        <time>2014-11-23T09:20:01.000Z</time>
      </trkpt>
      <trkpt lat="47.49326" lon="6.70977">
        <ele>450.2</ele>
        <time>2014-11-23T09:20:02.000Z</time>
      </trkpt>
      <trkpt lat="47.49324" lon="6.70975">
        <ele>450.3</ele>
        <time>2014-11-23T09:20:03.000Z</time>
      </trkpt>
      <trkpt lat="47.49322" lon="6.70972">
        <ele>450.4</ele>
        <time>2014-11-23T09:20:04.000Z</time>
      </trkpt>
      <trkpt lat="47.49321" lon="6.70969">
        <ele>451.1</ele>
        <time>2014-11-23T09:20:05.000Z</time>
      </trkpt>
      <trkpt lat="47.49319" lon="6.70966">
        <ele>451.5</ele>
        <time>2014-11-23T09:20:06.000Z</time>
      </trkpt>
      <trkpt lat="47.49318" lon="6.70963">
        <ele>452.4</ele>
        <time>2014-11-23T09:20:07.000Z</time>
      </trkpt>
      <trkpt lat="47.49316" lon="6.7096">
        <ele>450.9</ele>
        <time>2014-11-23T09:20:08.000Z</time>
      </trkpt>
      <trkpt lat="47.49315" lon="6.70957">
        <ele>451.8</ele>
        <time>2014-11-23T09:20:09.000Z</time>
      </trkpt>
      <trkpt lat="47.49314" lon="6.70954">
        <ele>451.9</ele>
        <time>2014-11-23T09:20:10.000Z</time>
      </trkpt>
      <trkpt lat="47.49312" lon="6.70948">
        <ele>451.8</ele>
        <time>2014-11-23T09:20:12.000Z</time>
      </trkpt>
      <trkpt lat="47.49311" lon="6.70946">
        <ele>452.4</ele>
        <time>2014-11-23T09:20:13.000Z</time>
      </trkpt>
      <trkpt lat="47.4931" lon="6.70943">
        <ele>452.6</ele>
        <time>2014-11-23T09:20:14.000Z</time>
      </trkpt>
      <trkpt lat="47.49309" lon="6.7094">
        <ele>452.7</ele>
        <time>2014-11-23T09:20:15.000Z</time>
      </trkpt>
      <trkpt lat="47.49305" lon="6.70936">
        <ele>450.6</ele>
        <time>2014-11-23T09:20:17.000Z</time>
      </trkpt>
      <trkpt lat="47.49304" lon="6.70934">
        <ele>451.7</ele>
        <time>2014-11-23T09:20:18.000Z</time>
      </trkpt>
      <trkpt lat="47.49301" lon="6.70931">
        <ele>451.7</ele>
        <time>2014-11-23T09:20:20.000Z</time>
      </trkpt>
      <trkpt lat="47.49301" lon="6.70929">
        <ele>451.4</ele>
        <time>2014-11-23T09:20:21.000Z</time>
      </trkpt>
      <trkpt lat="47.49299" lon="6.70923">
        <ele>451.7</ele>
        <time>2014-11-23T09:20:23.000Z</time>
      </trkpt>
      <trkpt lat="47.49298" lon="6.7092">
        <ele>452.1</ele>
        <time>2014-11-23T09:20:24.000Z</time>
      </trkpt>
      <trkpt lat="47.49296" lon="6.70917">
        <ele>451.9</ele>
        <time>2014-11-23T09:20:25.000Z</time>
      </trkpt>
      <trkpt lat="47.49295" lon="6.70914">
        <ele>451.8</ele>
        <time>2014-11-23T09:20:26.000Z</time>
      </trkpt>
      <trkpt lat="47.49292" lon="6.70909">
        <ele>452.4</ele>
        <time>2014-11-23T09:20:28.000Z</time>
      </trkpt>
      <trkpt lat="47.4929" lon="6.70902">
        <ele>404.8</ele>
        <time>2014-11-23T09:20:31.000Z</time>
      </trkpt>
      <trkpt lat="47.49287" lon="6.70899">
        <ele>405</ele>
        <time>2014-11-23T09:20:33.000Z</time>
      </trkpt>
      <trkpt lat="47.49286" lon="6.70897">
        <ele>404.1</ele>
        <time>2014-11-23T09:20:34.000Z</time>
      </trkpt>
      <trkpt lat="47.49282" lon="6.70893">
        <ele>405</ele>
        <time>2014-11-23T09:20:36.000Z</time>
      </trkpt>
      <trkpt lat="47.49281" lon="6.70891">
        <ele>405.7</ele>
        <time>2014-11-23T09:20:37.000Z</time>
      </trkpt>
      <trkpt lat="47.49278" lon="6.70887">
        <ele>406.7</ele>
        <time>2014-11-23T09:20:39.000Z</time>
      </trkpt>
      <trkpt lat="47.49277" lon="6.70885">
        <ele>407.3</ele>
        <time>2014-11-23T09:20:40.000Z</time>
      </trkpt>
      <trkpt lat="47.49275" lon="6.70881">
        <ele>408.2</ele>
        <time>2014-11-23T09:20:42.000Z</time>
      </trkpt>
      <trkpt lat="47.49274" lon="6.70879">
        <ele>408.9</ele>
        <time>2014-11-23T09:20:43.000Z</time>
      </trkpt>
      <trkpt lat="47.49272" lon="6.70877">
        <ele>408.8</ele>
        <time>2014-11-23T09:20:44.000Z</time>
      </trkpt>
      <trkpt lat="47.4927" lon="6.70875">
        <ele>408.5</ele>
        <time>2014-11-23T09:20:45.000Z</time>
      </trkpt>
      <trkpt lat="47.49268" lon="6.70873">
        <ele>409.2</ele>
        <time>2014-11-23T09:20:46.000Z</time>
      </trkpt>
      <trkpt lat="47.49267" lon="6.7087">
        <ele>410.2</ele>
        <time>2014-11-23T09:20:47.000Z</time>
      </trkpt>
      <trkpt lat="47.49265" lon="6.70868">
        <ele>411</ele>
        <time>2014-11-23T09:20:48.000Z</time>
      </trkpt>
      <trkpt lat="47.49263" lon="6.70865">
        <ele>411.3</ele>
        <time>2014-11-23T09:20:49.000Z</time>
      </trkpt>
      <trkpt lat="47.49261" lon="6.70862">
        <ele>411.9</ele>
        <time>2014-11-23T09:20:50.000Z</time>
      </trkpt>
      <trkpt lat="47.4926" lon="6.70858">
        <ele>413.3</ele>
        <time>2014-11-23T09:20:51.000Z</time>
      </trkpt>
      <trkpt lat="47.49258" lon="6.70855">
        <ele>414</ele>
        <time>2014-11-23T09:20:52.000Z</time>
      </trkpt>
      <trkpt lat="47.49256" lon="6.70852">
        <ele>414.4</ele>
        <time>2014-11-23T09:20:53.000Z</time>
      </trkpt>
      <trkpt lat="47.49254" lon="6.70848">
        <ele>414.7</ele>
        <time>2014-11-23T09:20:54.000Z</time>
      </trkpt>
      <trkpt lat="47.49252" lon="6.70844">
        <ele>415</ele>
        <time>2014-11-23T09:20:55.000Z</time>
      </trkpt>
      <trkpt lat="47.49249" lon="6.7084">
        <ele>415.5</ele>
        <time>2014-11-23T09:20:56.000Z</time>
      </trkpt>
      <trkpt lat="47.49247" lon="6.70835">
        <ele>417.4</ele>
        <time>2014-11-23T09:20:57.000Z</time>
      </trkpt>
      <trkpt lat="47.49245" lon="6.70831">
        <ele>417.4</ele>
        <time>2014-11-23T09:20:58.000Z</time>
      </trkpt>
      <trkpt lat="47.49243" lon="6.70826">
        <ele>416.2</ele>
        <time>2014-11-23T09:20:59.000Z</time>
      </trkpt>
      <trkpt lat="47.49241" lon="6.70822">
        <ele>417.4</ele>
        <time>2014-11-23T09:21:00.000Z</time>
      </trkpt>
      <trkpt lat="47.49239" lon="6.70818">
        <ele>419</ele>
        <time>2014-11-23T09:21:01.000Z</time>
      </trkpt>
      <trkpt lat="47.49238" lon="6.70814">
        <ele>422</ele>
        <time>2014-11-23T09:21:02.000Z</time>
      </trkpt>
      <trkpt lat="47.49236" lon="6.7081">
        <ele>423.2</ele>
        <time>2014-11-23T09:21:03.000Z</time>
      </trkpt>
      <trkpt lat="47.49234" lon="6.70807">
        <ele>424.6</ele>
        <time>2014-11-23T09:21:04.000Z</time>
      </trkpt>
      <trkpt lat="47.49232" lon="6.70804">
        <ele>425.6</ele>
        <time>2014-11-23T09:21:05.000Z</time>
      </trkpt>
      <trkpt lat="47.4923" lon="6.70801">
        <ele>426.4</ele>
        <time>2014-11-23T09:21:06.000Z</time>
      </trkpt>
      <trkpt lat="47.49227" lon="6.70797">
        <ele>426.7</ele>
        <time>2014-11-23T09:21:07.000Z</time>
      </trkpt>
      <trkpt lat="47.49224" lon="6.70793">
        <ele>426.9</ele>
        <time>2014-11-23T09:21:08.000Z</time>
      </trkpt>
      <trkpt lat="47.49221" lon="6.7079">
        <ele>426</ele>
        <time>2014-11-23T09:21:09.000Z</time>
      </trkpt>
      <trkpt lat="47.49218" lon="6.70786">
        <ele>425.8</ele>
        <time>2014-11-23T09:21:10.000Z</time>
      </trkpt>
      <trkpt lat="47.49215" lon="6.70782">
        <ele>426.1</ele>
        <time>2014-11-23T09:21:11.000Z</time>
      </trkpt>
      <trkpt lat="47.49213" lon="6.70779">
        <ele>427.1</ele>
        <time>2014-11-23T09:21:12.000Z</time>
      </trkpt>
      <trkpt lat="47.49211" lon="6.70775">
        <ele>427.3</ele>
        <time>2014-11-23T09:21:13.000Z</time>
      </trkpt>
      <trkpt lat="47.4921" lon="6.70771">
        <ele>427.4</ele>
        <time>2014-11-23T09:21:14.000Z</time>
      </trkpt>
      <trkpt lat="47.49209" lon="6.70767">
        <ele>427.6</ele>
        <time>2014-11-23T09:21:15.000Z</time>
      </trkpt>
      <trkpt lat="47.49207" lon="6.70763">
        <ele>428.7</ele>
        <time>2014-11-23T09:21:16.000Z</time>
      </trkpt>
      <trkpt lat="47.49206" lon="6.7076">
        <ele>429.1</ele>
        <time>2014-11-23T09:21:17.000Z</time>
      </trkpt>
      <trkpt lat="47.49204" lon="6.70757">
        <ele>430.9</ele>
        <time>2014-11-23T09:21:18.000Z</time>
      </trkpt>
      <trkpt lat="47.49203" lon="6.70753">
        <ele>431.5</ele>
        <time>2014-11-23T09:21:19.000Z</time>
      </trkpt>
      <trkpt lat="47.49201" lon="6.7075">
        <ele>434</ele>
        <time>2014-11-23T09:21:20.000Z</time>
      </trkpt>
      <trkpt lat="47.49199" lon="6.70746">
        <ele>434.9</ele>
        <time>2014-11-23T09:21:21.000Z</time>
      </trkpt>
      <trkpt lat="47.49197" lon="6.70742">
        <ele>435</ele>
        <time>2014-11-23T09:21:22.000Z</time>
      </trkpt>
      <trkpt lat="47.49195" lon="6.70738">
        <ele>436.4</ele>
        <time>2014-11-23T09:21:23.000Z</time>
      </trkpt>
      <trkpt lat="47.49193" lon="6.70733">
        <ele>437.6</ele>
        <time>2014-11-23T09:21:24.000Z</time>
      </trkpt>
      <trkpt lat="47.49191" lon="6.70727">
        <ele>438.6</ele>
        <time>2014-11-23T09:21:25.000Z</time>
      </trkpt>
      <trkpt lat="47.49189" lon="6.70721">
        <ele>438.3</ele>
        <time>2014-11-23T09:21:26.000Z</time>
      </trkpt>
      <trkpt lat="47.49186" lon="6.70715">
        <ele>440.3</ele>
        <time>2014-11-23T09:21:27.000Z</time>
      </trkpt>
      <trkpt lat="47.49184" lon="6.70709">
        <ele>440.8</ele>
        <time>2014-11-23T09:21:28.000Z</time>
      </trkpt>
      <trkpt lat="47.49178" lon="6.70694">
        <ele>439.9</ele>
        <time>2014-11-23T09:21:31.000Z</time>
      </trkpt>
      <trkpt lat="47.49176" lon="6.7069">
        <ele>440.8</ele>
        <time>2014-11-23T09:21:32.000Z</time>
      </trkpt>
      <trkpt lat="47.49174" lon="6.70685">
        <ele>441.5</ele>
        <time>2014-11-23T09:21:33.000Z</time>
      </trkpt>
      <trkpt lat="47.49173" lon="6.7068">
        <ele>442.7</ele>
        <time>2014-11-23T09:21:34.000Z</time>
      </trkpt>
      <trkpt lat="47.49171" lon="6.70676">
        <ele>444.1</ele>
        <time>2014-11-23T09:21:35.000Z</time>
      </trkpt>
      <trkpt lat="47.4917" lon="6.70671">
        <ele>447</ele>
        <time>2014-11-23T09:21:36.000Z</time>
      </trkpt>
      <trkpt lat="47.49168" lon="6.70666">
        <ele>447.5</ele>
        <time>2014-11-23T09:21:37.000Z</time>
      </trkpt>
      <trkpt lat="47.49167" lon="6.70663">
        <ele>447.7</ele>
        <time>2014-11-23T09:21:38.000Z</time>
      </trkpt>
      <trkpt lat="47.49165" lon="6.70659">
        <ele>447.3</ele>
        <time>2014-11-23T09:21:39.000Z</time>
      </trkpt>
      <trkpt lat="47.49164" lon="6.70656">
        <ele>447.5</ele>
        <time>2014-11-23T09:21:40.000Z</time>
      </trkpt>
      <trkpt lat="47.49163" lon="6.70652">
        <ele>448.8</ele>
        <time>2014-11-23T09:21:41.000Z</time>
      </trkpt>
      <trkpt lat="47.49162" lon="6.70649">
        <ele>449.7</ele>
        <time>2014-11-23T09:21:42.000Z</time>
      </trkpt>
      <trkpt lat="47.49161" lon="6.70645">
        <ele>449.6</ele>
        <time>2014-11-23T09:21:43.000Z</time>
      </trkpt>
      <trkpt lat="47.4916" lon="6.70642">
        <ele>450.1</ele>
        <time>2014-11-23T09:21:44.000Z</time>
      </trkpt>
      <trkpt lat="47.49158" lon="6.70638">
        <ele>450.9</ele>
        <time>2014-11-23T09:21:45.000Z</time>
      </trkpt>
      <trkpt lat="47.49156" lon="6.70635">
        <ele>451.6</ele>
        <time>2014-11-23T09:21:46.000Z</time>
      </trkpt>
      <trkpt lat="47.49154" lon="6.70631">
        <ele>453.5</ele>
        <time>2014-11-23T09:21:47.000Z</time>
      </trkpt>
      <trkpt lat="47.49152" lon="6.70627">
        <ele>455</ele>
        <time>2014-11-23T09:21:48.000Z</time>
      </trkpt>
      <trkpt lat="47.4915" lon="6.70622">
        <ele>456.1</ele>
        <time>2014-11-23T09:21:49.000Z</time>
      </trkpt>
      <trkpt lat="47.49148" lon="6.70618">
        <ele>456.1</ele>
        <time>2014-11-23T09:21:50.000Z</time>
      </trkpt>
      <trkpt lat="47.49146" lon="6.70614">
        <ele>456.3</ele>
        <time>2014-11-23T09:21:51.000Z</time>
      </trkpt>
      <trkpt lat="47.49145" lon="6.70609">
        <ele>455.8</ele>
        <time>2014-11-23T09:21:52.000Z</time>
      </trkpt>
      <trkpt lat="47.49143" lon="6.70605">
        <ele>455.5</ele>
        <time>2014-11-23T09:21:53.000Z</time>
      </trkpt>
      <trkpt lat="47.49141" lon="6.706">
        <ele>458.1</ele>
        <time>2014-11-23T09:21:54.000Z</time>
      </trkpt>
      <trkpt lat="47.49139" lon="6.70595">
        <ele>456.1</ele>
        <time>2014-11-23T09:21:55.000Z</time>
      </trkpt>
      <trkpt lat="47.49137" lon="6.7059">
        <ele>455.4</ele>
        <time>2014-11-23T09:21:56.000Z</time>
      </trkpt>
      <trkpt lat="47.49135" lon="6.70585">
        <ele>455</ele>
        <time>2014-11-23T09:21:57.000Z</time>
      </trkpt>
      <trkpt lat="47.49133" lon="6.7058">
        <ele>455.4</ele>
        <time>2014-11-23T09:21:58.000Z</time>
      </trkpt>
      <trkpt lat="47.49131" lon="6.70575">
        <ele>454.4</ele>
        <time>2014-11-23T09:21:59.000Z</time>
      </trkpt>
      <trkpt lat="47.49129" lon="6.7057">
        <ele>454.2</ele>
        <time>2014-11-23T09:22:00.000Z</time>
      </trkpt>
      <trkpt lat="47.49127" lon="6.70564">
        <ele>454.3</ele>
        <time>2014-11-23T09:22:01.000Z</time>
      </trkpt>
      <trkpt lat="47.49126" lon="6.70559">
        <ele>455.4</ele>
        <time>2014-11-23T09:22:02.000Z</time>
      </trkpt>
      <trkpt lat="47.49124" lon="6.70554">
        <ele>455.9</ele>
        <time>2014-11-23T09:22:03.000Z</time>
      </trkpt>
      <trkpt lat="47.49122" lon="6.70549">
        <ele>456.4</ele>
        <time>2014-11-23T09:22:04.000Z</time>
      </trkpt>
      <trkpt lat="47.4912" lon="6.70543">
        <ele>457</ele>
        <time>2014-11-23T09:22:05.000Z</time>
      </trkpt>
      <trkpt lat="47.49118" lon="6.70538">
        <ele>457.7</ele>
        <time>2014-11-23T09:22:06.000Z</time>
      </trkpt>
      <trkpt lat="47.49116" lon="6.70532">
        <ele>458.5</ele>
        <time>2014-11-23T09:22:07.000Z</time>
      </trkpt>
      <trkpt lat="47.49114" lon="6.70527">
        <ele>459</ele>
        <time>2014-11-23T09:22:08.000Z</time>
      </trkpt>
      <trkpt lat="47.49112" lon="6.70521">
        <ele>459.7</ele>
        <time>2014-11-23T09:22:09.000Z</time>
      </trkpt>
      <trkpt lat="47.4911" lon="6.70517">
        <ele>458.2</ele>
        <time>2014-11-23T09:22:10.000Z</time>
      </trkpt>
      <trkpt lat="47.49108" lon="6.70512">
        <ele>460.7</ele>
        <time>2014-11-23T09:22:11.000Z</time>
      </trkpt>
      <trkpt lat="47.49106" lon="6.70507">
        <ele>460.9</ele>
        <time>2014-11-23T09:22:12.000Z</time>
      </trkpt>
      <trkpt lat="47.49104" lon="6.70504">
        <ele>460.7</ele>
        <time>2014-11-23T09:22:13.000Z</time>
      </trkpt>
      <trkpt lat="47.49102" lon="6.705">
        <ele>460.6</ele>
        <time>2014-11-23T09:22:14.000Z</time>
      </trkpt>
      <trkpt lat="47.49101" lon="6.70496">
        <ele>460.7</ele>
        <time>2014-11-23T09:22:15.000Z</time>
      </trkpt>
      <trkpt lat="47.491" lon="6.70492">
        <ele>460.5</ele>
        <time>2014-11-23T09:22:16.000Z</time>
      </trkpt>
      <trkpt lat="47.49098" lon="6.70488">
        <ele>461.2</ele>
        <time>2014-11-23T09:22:17.000Z</time>
      </trkpt>
      <trkpt lat="47.49097" lon="6.70484">
        <ele>463.9</ele>
        <time>2014-11-23T09:22:18.000Z</time>
      </trkpt>
      <trkpt lat="47.49096" lon="6.70479">
        <ele>463</ele>
        <time>2014-11-23T09:22:19.000Z</time>
      </trkpt>
      <trkpt lat="47.49095" lon="6.70476">
        <ele>463.1</ele>
        <time>2014-11-23T09:22:20.000Z</time>
      </trkpt>
      <trkpt lat="47.49094" lon="6.70472">
        <ele>463.2</ele>
        <time>2014-11-23T09:22:21.000Z</time>
      </trkpt>
      <trkpt lat="47.49093" lon="6.70468">
        <ele>464</ele>
        <time>2014-11-23T09:22:22.000Z</time>
      </trkpt>
      <trkpt lat="47.49091" lon="6.70465">
        <ele>464</ele>
        <time>2014-11-23T09:22:23.000Z</time>
      </trkpt>
      <trkpt lat="47.4909" lon="6.70461">
        <ele>464.6</ele>
        <time>2014-11-23T09:22:24.000Z</time>
      </trkpt>
      <trkpt lat="47.49088" lon="6.70457">
        <ele>464.7</ele>
        <time>2014-11-23T09:22:25.000Z</time>
      </trkpt>
      <trkpt lat="47.49087" lon="6.70454">
        <ele>465</ele>
        <time>2014-11-23T09:22:26.000Z</time>
      </trkpt>
      <trkpt lat="47.49086" lon="6.7045">
        <ele>465.3</ele>
        <time>2014-11-23T09:22:27.000Z</time>
      </trkpt>
      <trkpt lat="47.49084" lon="6.70446">
        <ele>464.5</ele>
        <time>2014-11-23T09:22:28.000Z</time>
      </trkpt>
      <trkpt lat="47.49082" lon="6.70436">
        <ele>416.4</ele>
        <time>2014-11-23T09:22:31.000Z</time>
      </trkpt>
      <trkpt lat="47.49079" lon="6.70434">
        <ele>415</ele>
        <time>2014-11-23T09:22:32.000Z</time>
      </trkpt>
      <trkpt lat="47.49077" lon="6.70432">
        <ele>415.4</ele>
        <time>2014-11-23T09:22:33.000Z</time>
      </trkpt>
      <trkpt lat="47.49075" lon="6.70429">
        <ele>417.1</ele>
        <time>2014-11-23T09:22:34.000Z</time>
      </trkpt>
      <trkpt lat="47.49073" lon="6.70426">
        <ele>417.5</ele>
        <time>2014-11-23T09:22:35.000Z</time>
      </trkpt>
      <trkpt lat="47.49071" lon="6.70422">
        <ele>420.4</ele>
        <time>2014-11-23T09:22:36.000Z</time>
      </trkpt>
      <trkpt lat="47.49069" lon="6.70417">
        <ele>421.5</ele>
        <time>2014-11-23T09:22:37.000Z</time>
      </trkpt>
      <trkpt lat="47.49067" lon="6.70412">
        <ele>422.4</ele>
        <time>2014-11-23T09:22:38.000Z</time>
      </trkpt>
      <trkpt lat="47.49066" lon="6.70406">
        <ele>424.1</ele>
        <time>2014-11-23T09:22:39.000Z</time>
      </trkpt>
      <trkpt lat="47.49065" lon="6.704">
        <ele>423.8</ele>
        <time>2014-11-23T09:22:40.000Z</time>
      </trkpt>
      <trkpt lat="47.49064" lon="6.70394">
        <ele>425.8</ele>
        <time>2014-11-23T09:22:41.000Z</time>
      </trkpt>
      <trkpt lat="47.49063" lon="6.70388">
        <ele>428.3</ele>
        <time>2014-11-23T09:22:42.000Z</time>
      </trkpt>
      <trkpt lat="47.49062" lon="6.70381">
        <ele>429.8</ele>
        <time>2014-11-23T09:22:43.000Z</time>
      </trkpt>
      <trkpt lat="47.49061" lon="6.70375">
        <ele>429.8</ele>
        <time>2014-11-23T09:22:44.000Z</time>
      </trkpt>
      <trkpt lat="47.4906" lon="6.70369">
        <ele>429.9</ele>
        <time>2014-11-23T09:22:45.000Z</time>
      </trkpt>
      <trkpt lat="47.49059" lon="6.70364">
        <ele>430</ele>
        <time>2014-11-23T09:22:46.000Z</time>
      </trkpt>
      <trkpt lat="47.49057" lon="6.70358">
        <ele>429.5</ele>
        <time>2014-11-23T09:22:47.000Z</time>
      </trkpt>
      <trkpt lat="47.49055" lon="6.70352">
        <ele>429.4</ele>
        <time>2014-11-23T09:22:48.000Z</time>
      </trkpt>
      <trkpt lat="47.49054" lon="6.70347">
        <ele>429.7</ele>
        <time>2014-11-23T09:22:49.000Z</time>
      </trkpt>
      <trkpt lat="47.49052" lon="6.70341">
        <ele>434.5</ele>
        <time>2014-11-23T09:22:50.000Z</time>
      </trkpt>
      <trkpt lat="47.4905" lon="6.70335">
        <ele>436.2</ele>
        <time>2014-11-23T09:22:51.000Z</time>
      </trkpt>
      <trkpt lat="47.49048" lon="6.7033">
        <ele>439</ele>
        <time>2014-11-23T09:22:52.000Z</time>
      </trkpt>
      <trkpt lat="47.49047" lon="6.70324">
        <ele>440.4</ele>
        <time>2014-11-23T09:22:53.000Z</time>
      </trkpt>
      <trkpt lat="47.49045" lon="6.70318">
        <ele>441.5</ele>
        <time>2014-11-23T09:22:54.000Z</time>
      </trkpt>
      <trkpt lat="47.49043" lon="6.70313">
        <ele>442.3</ele>
        <time>2014-11-23T09:22:55.000Z</time>
      </trkpt>
      <trkpt lat="47.49042" lon="6.70309">
        <ele>442.7</ele>
        <time>2014-11-23T09:22:56.000Z</time>
      </trkpt>
      <trkpt lat="47.4904" lon="6.70306">
        <ele>444.1</ele>
        <time>2014-11-23T09:22:57.000Z</time>
      </trkpt>
      <trkpt lat="47.49039" lon="6.70301">
        <ele>443.4</ele>
        <time>2014-11-23T09:22:59.000Z</time>
      </trkpt>
      <trkpt lat="47.49038" lon="6.70297">
        <ele>443.9</ele>
        <time>2014-11-23T09:23:00.000Z</time>
      </trkpt>
      <trkpt lat="47.49038" lon="6.70294">
        <ele>444.7</ele>
        <time>2014-11-23T09:23:01.000Z</time>
      </trkpt>
      <trkpt lat="47.49037" lon="6.70289">
        <ele>443.6</ele>
        <time>2014-11-23T09:23:02.000Z</time>
      </trkpt>
      <trkpt lat="47.49036" lon="6.70285">
        <ele>443.1</ele>
        <time>2014-11-23T09:23:03.000Z</time>
      </trkpt>
      <trkpt lat="47.49034" lon="6.70281">
        <ele>443.1</ele>
        <time>2014-11-23T09:23:04.000Z</time>
      </trkpt>
      <trkpt lat="47.49033" lon="6.70278">
        <ele>443.1</ele>
        <time>2014-11-23T09:23:05.000Z</time>
      </trkpt>
      <trkpt lat="47.49032" lon="6.70275">
        <ele>443.4</ele>
        <time>2014-11-23T09:23:06.000Z</time>
      </trkpt>
      <trkpt lat="47.4903" lon="6.70272">
        <ele>443.6</ele>
        <time>2014-11-23T09:23:07.000Z</time>
      </trkpt>
      <trkpt lat="47.49029" lon="6.70268">
        <ele>443.4</ele>
        <time>2014-11-23T09:23:08.000Z</time>
      </trkpt>
      <trkpt lat="47.49028" lon="6.70265">
        <ele>444.9</ele>
        <time>2014-11-23T09:23:09.000Z</time>
      </trkpt>
      <trkpt lat="47.49027" lon="6.70262">
        <ele>445.1</ele>
        <time>2014-11-23T09:23:10.000Z</time>
      </trkpt>
      <trkpt lat="47.49026" lon="6.70258">
        <ele>444.8</ele>
        <time>2014-11-23T09:23:11.000Z</time>
      </trkpt>
      <trkpt lat="47.49025" lon="6.70254">
        <ele>444.4</ele>
        <time>2014-11-23T09:23:12.000Z</time>
      </trkpt>
      <trkpt lat="47.49024" lon="6.70248">
        <ele>444</ele>
        <time>2014-11-23T09:23:13.000Z</time>
      </trkpt>
      <trkpt lat="47.49022" lon="6.70242">
        <ele>443.8</ele>
        <time>2014-11-23T09:23:14.000Z</time>
      </trkpt>
      <trkpt lat="47.4902" lon="6.70235">
        <ele>445.5</ele>
        <time>2014-11-23T09:23:15.000Z</time>
      </trkpt>
      <trkpt lat="47.49018" lon="6.70227">
        <ele>445.7</ele>
        <time>2014-11-23T09:23:16.000Z</time>
      </trkpt>
      <trkpt lat="47.49016" lon="6.7022">
        <ele>446.5</ele>
        <time>2014-11-23T09:23:17.000Z</time>
      </trkpt>
      <trkpt lat="47.49015" lon="6.70214">
        <ele>447.5</ele>
        <time>2014-11-23T09:23:18.000Z</time>
      </trkpt>
      <trkpt lat="47.49014" lon="6.70207">
        <ele>448.3</ele>
        <time>2014-11-23T09:23:19.000Z</time>
      </trkpt>
      <trkpt lat="47.49013" lon="6.70202">
        <ele>449.8</ele>
        <time>2014-11-23T09:23:20.000Z</time>
      </trkpt>
      <trkpt lat="47.49012" lon="6.70198">
        <ele>449</ele>
        <time>2014-11-23T09:23:21.000Z</time>
      </trkpt>
      <trkpt lat="47.49011" lon="6.70193">
        <ele>449</ele>
        <time>2014-11-23T09:23:22.000Z</time>
      </trkpt>
      <trkpt lat="47.4901" lon="6.70189">
        <ele>449.3</ele>
        <time>2014-11-23T09:23:23.000Z</time>
      </trkpt>
      <trkpt lat="47.49008" lon="6.70183">
        <ele>449.6</ele>
        <time>2014-11-23T09:23:24.000Z</time>
      </trkpt>
      <trkpt lat="47.49006" lon="6.70178">
        <ele>447.6</ele>
        <time>2014-11-23T09:23:25.000Z</time>
      </trkpt>
      <trkpt lat="47.49004" lon="6.70173">
        <ele>448.7</ele>
        <time>2014-11-23T09:23:26.000Z</time>
      </trkpt>
      <trkpt lat="47.49002" lon="6.70167">
        <ele>445.4</ele>
        <time>2014-11-23T09:23:27.000Z</time>
      </trkpt>
      <trkpt lat="47.48999" lon="6.70162">
        <ele>446</ele>
        <time>2014-11-23T09:23:28.000Z</time>
      </trkpt>
      <trkpt lat="47.48995" lon="6.70152">
        <ele>446.8</ele>
        <time>2014-11-23T09:23:29.884Z</time>
      </trkpt>
      <trkpt lat="47.48993" lon="6.70146">
        <ele>446.2</ele>
        <time>2014-11-23T09:23:31.000Z</time>
      </trkpt>
      <trkpt lat="47.48992" lon="6.70141">
        <ele>446.3</ele>
        <time>2014-11-23T09:23:32.000Z</time>
      </trkpt>
      <trkpt lat="47.4899" lon="6.70136">
        <ele>446.3</ele>
        <time>2014-11-23T09:23:33.000Z</time>
      </trkpt>
      <trkpt lat="47.48989" lon="6.70131">
        <ele>446.6</ele>
        <time>2014-11-23T09:23:34.000Z</time>
      </trkpt>
      <trkpt lat="47.48988" lon="6.70126">
        <ele>446.2</ele>
        <time>2014-11-23T09:23:35.000Z</time>
      </trkpt>
      <trkpt lat="47.48986" lon="6.70122">
        <ele>447.1</ele>
        <time>2014-11-23T09:23:36.000Z</time>
      </trkpt>
      <trkpt lat="47.48984" lon="6.70117">
        <ele>447.5</ele>
        <time>2014-11-23T09:23:37.000Z</time>
      </trkpt>
      <trkpt lat="47.48982" lon="6.70113">
        <ele>447.2</ele>
        <time>2014-11-23T09:23:38.000Z</time>
      </trkpt>
      <trkpt lat="47.4898" lon="6.70109">
        <ele>446.8</ele>
        <time>2014-11-23T09:23:39.000Z</time>
      </trkpt>
      <trkpt lat="47.48978" lon="6.70104">
        <ele>446.5</ele>
        <time>2014-11-23T09:23:40.000Z</time>
      </trkpt>
      <trkpt lat="47.48976" lon="6.701">
        <ele>446</ele>
        <time>2014-11-23T09:23:41.000Z</time>
      </trkpt>
      <trkpt lat="47.48974" lon="6.70094">
        <ele>445.4</ele>
        <time>2014-11-23T09:23:42.000Z</time>
      </trkpt>
      <trkpt lat="47.48971" lon="6.70089">
        <ele>444.2</ele>
        <time>2014-11-23T09:23:43.000Z</time>
      </trkpt>
      <trkpt lat="47.48969" lon="6.70083">
        <ele>443.5</ele>
        <time>2014-11-23T09:23:44.000Z</time>
      </trkpt>
      <trkpt lat="47.48966" lon="6.70078">
        <ele>442.9</ele>
        <time>2014-11-23T09:23:45.000Z</time>
      </trkpt>
      <trkpt lat="47.48964" lon="6.70072">
        <ele>441.7</ele>
        <time>2014-11-23T09:23:46.000Z</time>
      </trkpt>
      <trkpt lat="47.48962" lon="6.70066">
        <ele>441.2</ele>
        <time>2014-11-23T09:23:47.000Z</time>
      </trkpt>
      <trkpt lat="47.4896" lon="6.70061">
        <ele>441.2</ele>
        <time>2014-11-23T09:23:48.000Z</time>
      </trkpt>
      <trkpt lat="47.48958" lon="6.70056">
        <ele>440.8</ele>
        <time>2014-11-23T09:23:49.000Z</time>
      </trkpt>
      <trkpt lat="47.48956" lon="6.70051">
        <ele>441.1</ele>
        <time>2014-11-23T09:23:50.000Z</time>
      </trkpt>
      <trkpt lat="47.48955" lon="6.70046">
        <ele>441.1</ele>
        <time>2014-11-23T09:23:51.000Z</time>
      </trkpt>
      <trkpt lat="47.48952" lon="6.70041">
        <ele>441.3</ele>
        <time>2014-11-23T09:23:52.000Z</time>
      </trkpt>
      <trkpt lat="47.48945" lon="6.70032">
        <ele>439.3</ele>
        <time>2014-11-23T09:23:53.000Z</time>
      </trkpt>
      <trkpt lat="47.48942" lon="6.70023">
        <ele>439.3</ele>
        <time>2014-11-23T09:23:54.000Z</time>
      </trkpt>
      <trkpt lat="47.48941" lon="6.70015">
        <ele>439.2</ele>
        <time>2014-11-23T09:23:55.000Z</time>
      </trkpt>
      <trkpt lat="47.48938" lon="6.70007">
        <ele>439.6</ele>
        <time>2014-11-23T09:23:56.000Z</time>
      </trkpt>
      <trkpt lat="47.48935" lon="6.69999">
        <ele>439.6</ele>
        <time>2014-11-23T09:23:57.000Z</time>
      </trkpt>
      <trkpt lat="47.48932" lon="6.6999">
        <ele>439.3</ele>
        <time>2014-11-23T09:23:58.000Z</time>
      </trkpt>
      <trkpt lat="47.48928" lon="6.69981">
        <ele>439.4</ele>
        <time>2014-11-23T09:23:59.000Z</time>
      </trkpt>
      <trkpt lat="47.48924" lon="6.69972">
        <ele>438.8</ele>
        <time>2014-11-23T09:24:00.000Z</time>
      </trkpt>
      <trkpt lat="47.48918" lon="6.69962">
        <ele>438.7</ele>
        <time>2014-11-23T09:24:01.000Z</time>
      </trkpt>
      <trkpt lat="47.48912" lon="6.69951">
        <ele>438.2</ele>
        <time>2014-11-23T09:24:02.000Z</time>
      </trkpt>
      <trkpt lat="47.48905" lon="6.69938">
        <ele>436.9</ele>
        <time>2014-11-23T09:24:03.000Z</time>
      </trkpt>
      <trkpt lat="47.48898" lon="6.69927">
        <ele>438.2</ele>
        <time>2014-11-23T09:24:04.000Z</time>
      </trkpt>
      <trkpt lat="47.48893" lon="6.69915">
        <ele>438.5</ele>
        <time>2014-11-23T09:24:05.000Z</time>
      </trkpt>
      <trkpt lat="47.48887" lon="6.69906">
        <ele>438.9</ele>
        <time>2014-11-23T09:24:06.000Z</time>
      </trkpt>
      <trkpt lat="47.48881" lon="6.69895">
        <ele>439</ele>
        <time>2014-11-23T09:24:07.000Z</time>
      </trkpt>
      <trkpt lat="47.48876" lon="6.69885">
        <ele>438.7</ele>
        <time>2014-11-23T09:24:08.000Z</time>
      </trkpt>
      <trkpt lat="47.48871" lon="6.69875">
        <ele>438</ele>
        <time>2014-11-23T09:24:09.000Z</time>
      </trkpt>
      <trkpt lat="47.48868" lon="6.69866">
        <ele>437.7</ele>
        <time>2014-11-23T09:24:10.000Z</time>
      </trkpt>
      <trkpt lat="47.48863" lon="6.69856">
        <ele>437.3</ele>
        <time>2014-11-23T09:24:11.000Z</time>
      </trkpt>
      <trkpt lat="47.48859" lon="6.69847">
        <ele>437.7</ele>
        <time>2014-11-23T09:24:12.000Z</time>
      </trkpt>
      <trkpt lat="47.48852" lon="6.69839">
        <ele>438.1</ele>
        <time>2014-11-23T09:24:13.000Z</time>
      </trkpt>
      <trkpt lat="47.48847" lon="6.69831">
        <ele>438</ele>
        <time>2014-11-23T09:24:14.000Z</time>
      </trkpt>
      <trkpt lat="47.48844" lon="6.69823">
        <ele>438.1</ele>
        <time>2014-11-23T09:24:15.000Z</time>
      </trkpt>
      <trkpt lat="47.48841" lon="6.69812">
        <ele>438.9</ele>
        <time>2014-11-23T09:24:16.000Z</time>
      </trkpt>
      <trkpt lat="47.48837" lon="6.69804">
        <ele>438.5</ele>
        <time>2014-11-23T09:24:17.000Z</time>
      </trkpt>
      <trkpt lat="47.48832" lon="6.69795">
        <ele>438</ele>
        <time>2014-11-23T09:24:18.000Z</time>
      </trkpt>
      <trkpt lat="47.48826" lon="6.69783">
        <ele>435.9</ele>
        <time>2014-11-23T09:24:19.000Z</time>
      </trkpt>
      <trkpt lat="47.48821" lon="6.69772">
        <ele>433.8</ele>
        <time>2014-11-23T09:24:20.000Z</time>
      </trkpt>
      <trkpt lat="47.48815" lon="6.69764">
        <ele>432.2</ele>
        <time>2014-11-23T09:24:21.000Z</time>
      </trkpt>
      <trkpt lat="47.48807" lon="6.69755">
        <ele>430</ele>
        <time>2014-11-23T09:24:22.000Z</time>
      </trkpt>
      <trkpt lat="47.48803" lon="6.69746">
        <ele>428.8</ele>
        <time>2014-11-23T09:24:23.000Z</time>
      </trkpt>
      <trkpt lat="47.488" lon="6.69737">
        <ele>428.3</ele>
        <time>2014-11-23T09:24:24.000Z</time>
      </trkpt>
      <trkpt lat="47.48797" lon="6.69731">
        <ele>428.7</ele>
        <time>2014-11-23T09:24:25.000Z</time>
      </trkpt>
      <trkpt lat="47.48793" lon="6.69723">
        <ele>428.2</ele>
        <time>2014-11-23T09:24:26.000Z</time>
      </trkpt>
      <trkpt lat="47.48788" lon="6.69716">
        <ele>427.5</ele>
        <time>2014-11-23T09:24:27.000Z</time>
      </trkpt>
      <trkpt lat="47.48784" lon="6.69707">
        <ele>427.4</ele>
        <time>2014-11-23T09:24:28.000Z</time>
      </trkpt>
      <trkpt lat="47.48768" lon="6.69684">
        <ele>422.5</ele>
        <time>2014-11-23T09:24:31.000Z</time>
      </trkpt>
      <trkpt lat="47.48763" lon="6.69676">
        <ele>422.3</ele>
        <time>2014-11-23T09:24:32.000Z</time>
      </trkpt>
      <trkpt lat="47.48756" lon="6.69664">
        <ele>422.1</ele>
        <time>2014-11-23T09:24:33.000Z</time>
      </trkpt>
      <trkpt lat="47.48751" lon="6.69652">
        <ele>421.1</ele>
        <time>2014-11-23T09:24:34.000Z</time>
      </trkpt>
      <trkpt lat="47.48745" lon="6.69642">
        <ele>420.6</ele>
        <time>2014-11-23T09:24:35.000Z</time>
      </trkpt>
      <trkpt lat="47.48738" lon="6.69629">
        <ele>419.7</ele>
        <time>2014-11-23T09:24:36.000Z</time>
      </trkpt>
      <trkpt lat="47.48729" lon="6.69619">
        <ele>418</ele>
        <time>2014-11-23T09:24:37.000Z</time>
      </trkpt>
      <trkpt lat="47.48722" lon="6.69606">
        <ele>416.3</ele>
        <time>2014-11-23T09:24:38.000Z</time>
      </trkpt>
      <trkpt lat="47.48712" lon="6.69597">
        <ele>414.7</ele>
        <time>2014-11-23T09:24:39.000Z</time>
      </trkpt>
      <trkpt lat="47.48707" lon="6.69587">
        <ele>414</ele>
        <time>2014-11-23T09:24:40.000Z</time>
      </trkpt>
      <trkpt lat="47.48699" lon="6.69578">
        <ele>416.2</ele>
        <time>2014-11-23T09:24:41.000Z</time>
      </trkpt>
      <trkpt lat="47.48693" lon="6.69568">
        <ele>418</ele>
        <time>2014-11-23T09:24:42.000Z</time>
      </trkpt>
      <trkpt lat="47.48688" lon="6.69559">
        <ele>417.6</ele>
        <time>2014-11-23T09:24:43.000Z</time>
      </trkpt>
      <trkpt lat="47.48682" lon="6.69549">
        <ele>415.9</ele>
        <time>2014-11-23T09:24:44.000Z</time>
      </trkpt>
      <trkpt lat="47.48675" lon="6.69542">
        <ele>414.9</ele>
        <time>2014-11-23T09:24:45.000Z</time>
      </trkpt>
      <trkpt lat="47.48671" lon="6.69532">
        <ele>414.4</ele>
        <time>2014-11-23T09:24:46.000Z</time>
      </trkpt>
      <trkpt lat="47.48666" lon="6.69526">
        <ele>414.6</ele>
        <time>2014-11-23T09:24:47.000Z</time>
      </trkpt>
      <trkpt lat="47.48661" lon="6.6952">
        <ele>414.4</ele>
        <time>2014-11-23T09:24:48.000Z</time>
      </trkpt>
      <trkpt lat="47.48656" lon="6.69513">
        <ele>413.5</ele>
        <time>2014-11-23T09:24:49.000Z</time>
      </trkpt>
      <trkpt lat="47.48651" lon="6.69504">
        <ele>413.5</ele>
        <time>2014-11-23T09:24:50.000Z</time>
      </trkpt>
      <trkpt lat="47.48646" lon="6.69497">
        <ele>413.6</ele>
        <time>2014-11-23T09:24:51.000Z</time>
      </trkpt>
      <trkpt lat="47.48641" lon="6.69493">
        <ele>413.2</ele>
        <time>2014-11-23T09:24:52.000Z</time>
      </trkpt>
      <trkpt lat="47.48636" lon="6.69486">
        <ele>412.4</ele>
        <time>2014-11-23T09:24:53.000Z</time>
      </trkpt>
      <trkpt lat="47.48632" lon="6.69479">
        <ele>412.4</ele>
        <time>2014-11-23T09:24:54.000Z</time>
      </trkpt>
      <trkpt lat="47.48628" lon="6.69472">
        <ele>412.2</ele>
        <time>2014-11-23T09:24:55.000Z</time>
      </trkpt>
      <trkpt lat="47.48623" lon="6.69465">
        <ele>412.3</ele>
        <time>2014-11-23T09:24:56.000Z</time>
      </trkpt>
      <trkpt lat="47.48619" lon="6.69457">
        <ele>412.7</ele>
        <time>2014-11-23T09:24:57.000Z</time>
      </trkpt>
      <trkpt lat="47.48615" lon="6.69451">
        <ele>412</ele>
        <time>2014-11-23T09:24:58.000Z</time>
      </trkpt>
      <trkpt lat="47.48611" lon="6.69443">
        <ele>411.7</ele>
        <time>2014-11-23T09:24:59.000Z</time>
      </trkpt>
      <trkpt lat="47.48606" lon="6.69433">
        <ele>411</ele>
        <time>2014-11-23T09:25:00.000Z</time>
      </trkpt>
      <trkpt lat="47.48597" lon="6.69428">
        <ele>412</ele>
        <time>2014-11-23T09:25:01.000Z</time>
      </trkpt>
      <trkpt lat="47.48589" lon="6.69418">
        <ele>410.1</ele>
        <time>2014-11-23T09:25:02.000Z</time>
      </trkpt>
      <trkpt lat="47.48582" lon="6.69411">
        <ele>409.4</ele>
        <time>2014-11-23T09:25:03.000Z</time>
      </trkpt>
      <trkpt lat="47.48576" lon="6.69404">
        <ele>407.9</ele>
        <time>2014-11-23T09:25:04.000Z</time>
      </trkpt>
      <trkpt lat="47.4857" lon="6.69398">
        <ele>406.9</ele>
        <time>2014-11-23T09:25:05.000Z</time>
      </trkpt>
      <trkpt lat="47.48566" lon="6.69391">
        <ele>406.5</ele>
        <time>2014-11-23T09:25:06.000Z</time>
      </trkpt>
      <trkpt lat="47.48562" lon="6.69383">
        <ele>406.6</ele>
        <time>2014-11-23T09:25:07.000Z</time>
      </trkpt>
      <trkpt lat="47.48557" lon="6.69376">
        <ele>405.8</ele>
        <time>2014-11-23T09:25:08.000Z</time>
      </trkpt>
      <trkpt lat="47.4855" lon="6.69365">
        <ele>406.1</ele>
        <time>2014-11-23T09:25:09.000Z</time>
      </trkpt>
      <trkpt lat="47.48544" lon="6.69356">
        <ele>405.2</ele>
        <time>2014-11-23T09:25:10.000Z</time>
      </trkpt>
      <trkpt lat="47.48539" lon="6.69347">
        <ele>404.6</ele>
        <time>2014-11-23T09:25:11.000Z</time>
      </trkpt>
      <trkpt lat="47.48531" lon="6.69337">
        <ele>403.8</ele>
        <time>2014-11-23T09:25:12.000Z</time>
      </trkpt>
      <trkpt lat="47.48525" lon="6.69331">
        <ele>403.3</ele>
        <time>2014-11-23T09:25:13.000Z</time>
      </trkpt>
      <trkpt lat="47.48518" lon="6.69322">
        <ele>403.3</ele>
        <time>2014-11-23T09:25:14.000Z</time>
      </trkpt>
      <trkpt lat="47.48512" lon="6.6931">
        <ele>403.5</ele>
        <time>2014-11-23T09:25:15.000Z</time>
      </trkpt>
      <trkpt lat="47.48505" lon="6.69299">
        <ele>403.5</ele>
        <time>2014-11-23T09:25:16.000Z</time>
      </trkpt>
      <trkpt lat="47.48499" lon="6.69292">
        <ele>402.6</ele>
        <time>2014-11-23T09:25:17.000Z</time>
      </trkpt>
      <trkpt lat="47.48495" lon="6.69286">
        <ele>402</ele>
        <time>2014-11-23T09:25:18.000Z</time>
      </trkpt>
      <trkpt lat="47.4849" lon="6.6928">
        <ele>401.2</ele>
        <time>2014-11-23T09:25:19.000Z</time>
      </trkpt>
      <trkpt lat="47.48487" lon="6.69273">
        <ele>400.7</ele>
        <time>2014-11-23T09:25:20.000Z</time>
      </trkpt>
      <trkpt lat="47.48482" lon="6.69266">
        <ele>399.3</ele>
        <time>2014-11-23T09:25:21.000Z</time>
      </trkpt>
      <trkpt lat="47.48476" lon="6.6926">
        <ele>398.1</ele>
        <time>2014-11-23T09:25:22.000Z</time>
      </trkpt>
      <trkpt lat="47.4847" lon="6.69251">
        <ele>397.6</ele>
        <time>2014-11-23T09:25:23.000Z</time>
      </trkpt>
      <trkpt lat="47.48464" lon="6.69243">
        <ele>396.6</ele>
        <time>2014-11-23T09:25:24.000Z</time>
      </trkpt>
      <trkpt lat="47.4846" lon="6.69236">
        <ele>394.8</ele>
        <time>2014-11-23T09:25:25.000Z</time>
      </trkpt>
      <trkpt lat="47.48456" lon="6.69228">
        <ele>392.5</ele>
        <time>2014-11-23T09:25:26.000Z</time>
      </trkpt>
      <trkpt lat="47.48448" lon="6.69227">
        <ele>390.8</ele>
        <time>2014-11-23T09:25:27.000Z</time>
      </trkpt>
      <trkpt lat="47.48443" lon="6.69224">
        <ele>388.9</ele>
        <time>2014-11-23T09:25:28.000Z</time>
      </trkpt>
      <trkpt lat="47.48432" lon="6.69221">
        <ele>380</ele>
        <time>2014-11-23T09:25:31.000Z</time>
      </trkpt>
      <trkpt lat="47.48428" lon="6.69219">
        <ele>378.3</ele>
        <time>2014-11-23T09:25:32.000Z</time>
      </trkpt>
      <trkpt lat="47.48425" lon="6.69218">
        <ele>377.7</ele>
        <time>2014-11-23T09:25:33.000Z</time>
      </trkpt>
      <trkpt lat="47.48422" lon="6.69217">
        <ele>376.8</ele>
        <time>2014-11-23T09:25:34.000Z</time>
      </trkpt>
      <trkpt lat="47.4842" lon="6.69216">
        <ele>375.8</ele>
        <time>2014-11-23T09:25:35.000Z</time>
      </trkpt>
      <trkpt lat="47.48417" lon="6.69215">
        <ele>376.3</ele>
        <time>2014-11-23T09:25:36.000Z</time>
      </trkpt>
      <trkpt lat="47.48414" lon="6.69213">
        <ele>376.4</ele>
        <time>2014-11-23T09:25:37.000Z</time>
      </trkpt>
      <trkpt lat="47.4841" lon="6.69211">
        <ele>376.4</ele>
        <time>2014-11-23T09:25:38.000Z</time>
      </trkpt>
      <trkpt lat="47.48405" lon="6.69208">
        <ele>376.6</ele>
        <time>2014-11-23T09:25:39.000Z</time>
      </trkpt>
      <trkpt lat="47.484" lon="6.69205">
        <ele>375.5</ele>
        <time>2014-11-23T09:25:40.000Z</time>
      </trkpt>
      <trkpt lat="47.48395" lon="6.69201">
        <ele>374.9</ele>
        <time>2014-11-23T09:25:41.000Z</time>
      </trkpt>
      <trkpt lat="47.48372" lon="6.69193">
        <ele>373.3</ele>
        <time>2014-11-23T09:25:42.000Z</time>
      </trkpt>
      <trkpt lat="47.48362" lon="6.69193">
        <ele>369.1</ele>
        <time>2014-11-23T09:25:43.000Z</time>
      </trkpt>
      <trkpt lat="47.48354" lon="6.69194">
        <ele>366.8</ele>
        <time>2014-11-23T09:25:44.000Z</time>
      </trkpt>
      <trkpt lat="47.48347" lon="6.69194">
        <ele>365.1</ele>
        <time>2014-11-23T09:25:45.000Z</time>
      </trkpt>
      <trkpt lat="47.48341" lon="6.69194">
        <ele>363.6</ele>
        <time>2014-11-23T09:25:46.000Z</time>
      </trkpt>
      <trkpt lat="47.48335" lon="6.69195">
        <ele>362.9</ele>
        <time>2014-11-23T09:25:47.000Z</time>
      </trkpt>
      <trkpt lat="47.48328" lon="6.69197">
        <ele>362.5</ele>
        <time>2014-11-23T09:25:48.000Z</time>
      </trkpt>
      <trkpt lat="47.48322" lon="6.69198">
        <ele>362.1</ele>
        <time>2014-11-23T09:25:49.000Z</time>
      </trkpt>
      <trkpt lat="47.48315" lon="6.692">
        <ele>361.6</ele>
        <time>2014-11-23T09:25:50.000Z</time>
      </trkpt>
      <trkpt lat="47.48309" lon="6.69202">
        <ele>361.7</ele>
        <time>2014-11-23T09:25:51.000Z</time>
      </trkpt>
      <trkpt lat="47.48303" lon="6.69204">
        <ele>361.5</ele>
        <time>2014-11-23T09:25:52.000Z</time>
      </trkpt>
      <trkpt lat="47.48298" lon="6.69207">
        <ele>361.2</ele>
        <time>2014-11-23T09:25:53.000Z</time>
      </trkpt>
      <trkpt lat="47.48293" lon="6.69209">
        <ele>361</ele>
        <time>2014-11-23T09:25:54.000Z</time>
      </trkpt>
      <trkpt lat="47.48289" lon="6.6921">
        <ele>361.6</ele>
        <time>2014-11-23T09:25:55.000Z</time>
      </trkpt>
      <trkpt lat="47.48285" lon="6.69211">
        <ele>361.7</ele>
        <time>2014-11-23T09:25:56.000Z</time>
      </trkpt>
      <trkpt lat="47.48282" lon="6.69211">
        <ele>361</ele>
        <time>2014-11-23T09:25:57.000Z</time>
      </trkpt>
      <trkpt lat="47.48279" lon="6.6921">
        <ele>360.4</ele>
        <time>2014-11-23T09:25:58.000Z</time>
      </trkpt>
      <trkpt lat="47.48276" lon="6.6921">
        <ele>360.4</ele>
        <time>2014-11-23T09:25:59.000Z</time>
      </trkpt>
      <trkpt lat="47.48273" lon="6.6921">
        <ele>360.2</ele>
        <time>2014-11-23T09:26:00.000Z</time>
      </trkpt>
      <trkpt lat="47.4827" lon="6.6921">
        <ele>360.7</ele>
        <time>2014-11-23T09:26:01.000Z</time>
      </trkpt>
      <trkpt lat="47.48267" lon="6.6921">
        <ele>358.4</ele>
        <time>2014-11-23T09:26:02.000Z</time>
      </trkpt>
      <trkpt lat="47.48264" lon="6.69208">
        <ele>354.4</ele>
        <time>2014-11-23T09:27:14.000Z</time>
      </trkpt>
      <trkpt lat="47.48263" lon="6.69207">
        <ele>354.6</ele>
        <time>2014-11-23T09:27:15.000Z</time>
      </trkpt>
      <trkpt lat="47.4826" lon="6.69202">
        <ele>355.3</ele>
        <time>2014-11-23T09:27:18.000Z</time>
      </trkpt>
      <trkpt lat="47.4826" lon="6.69199">
        <ele>356.2</ele>
        <time>2014-11-23T09:27:19.000Z</time>
      </trkpt>
      <trkpt lat="47.48258" lon="6.69197">
        <ele>356.2</ele>
        <time>2014-11-23T09:27:20.000Z</time>
      </trkpt>
      <trkpt lat="47.48257" lon="6.69193">
        <ele>356.5</ele>
        <time>2014-11-23T09:27:21.000Z</time>
      </trkpt>
      <trkpt lat="47.48255" lon="6.69189">
        <ele>357.5</ele>
        <time>2014-11-23T09:27:22.000Z</time>
      </trkpt>
      <trkpt lat="47.48253" lon="6.69185">
        <ele>358.1</ele>
        <time>2014-11-23T09:27:23.000Z</time>
      </trkpt>
      <trkpt lat="47.48251" lon="6.6918">
        <ele>358.2</ele>
        <time>2014-11-23T09:27:24.000Z</time>
      </trkpt>
      <trkpt lat="47.48249" lon="6.69175">
        <ele>357.3</ele>
        <time>2014-11-23T09:27:25.000Z</time>
      </trkpt>
      <trkpt lat="47.48247" lon="6.69169">
        <ele>357.3</ele>
        <time>2014-11-23T09:27:26.000Z</time>
      </trkpt>
      <trkpt lat="47.48246" lon="6.69163">
        <ele>358</ele>
        <time>2014-11-23T09:27:27.000Z</time>
      </trkpt>
      <trkpt lat="47.48244" lon="6.69157">
        <ele>358.3</ele>
        <time>2014-11-23T09:27:28.000Z</time>
      </trkpt>
      <trkpt lat="47.48228" lon="6.69119">
        <ele>356.8</ele>
        <time>2014-11-23T09:27:35.786Z</time>
      </trkpt>
      <trkpt lat="47.48226" lon="6.69114">
        <ele>357.7</ele>
        <time>2014-11-23T09:27:37.000Z</time>
      </trkpt>
      <trkpt lat="47.48224" lon="6.69111">
        <ele>357.2</ele>
        <time>2014-11-23T09:27:38.000Z</time>
      </trkpt>
      <trkpt lat="47.48221" lon="6.69108">
        <ele>355.5</ele>
        <time>2014-11-23T09:27:39.000Z</time>
      </trkpt>
      <trkpt lat="47.48219" lon="6.69107">
        <ele>355.5</ele>
        <time>2014-11-23T09:27:40.000Z</time>
      </trkpt>
      <trkpt lat="47.48217" lon="6.69108">
        <ele>356.1</ele>
        <time>2014-11-23T09:27:41.000Z</time>
      </trkpt>
      <trkpt lat="47.48215" lon="6.69111">
        <ele>356.2</ele>
        <time>2014-11-23T09:27:42.000Z</time>
      </trkpt>
      <trkpt lat="47.48212" lon="6.69114">
        <ele>355.9</ele>
        <time>2014-11-23T09:27:43.000Z</time>
      </trkpt>
      <trkpt lat="47.4821" lon="6.69118">
        <ele>355.7</ele>
        <time>2014-11-23T09:27:44.000Z</time>
      </trkpt>
      <trkpt lat="47.48207" lon="6.69122">
        <ele>357.6</ele>
        <time>2014-11-23T09:27:45.000Z</time>
      </trkpt>
      <trkpt lat="47.48205" lon="6.69126">
        <ele>357.8</ele>
        <time>2014-11-23T09:27:46.000Z</time>
      </trkpt>
      <trkpt lat="47.48203" lon="6.6913">
        <ele>358.4</ele>
        <time>2014-11-23T09:27:47.000Z</time>
      </trkpt>
      <trkpt lat="47.482" lon="6.69133">
        <ele>358.6</ele>
        <time>2014-11-23T09:27:48.000Z</time>
      </trkpt>
      <trkpt lat="47.48197" lon="6.69136">
        <ele>358.9</ele>
        <time>2014-11-23T09:27:49.000Z</time>
      </trkpt>
      <trkpt lat="47.48194" lon="6.69139">
        <ele>359.5</ele>
        <time>2014-11-23T09:27:50.000Z</time>
      </trkpt>
      <trkpt lat="47.48191" lon="6.69142">
        <ele>359.1</ele>
        <time>2014-11-23T09:27:51.000Z</time>
      </trkpt>
      <trkpt lat="47.48188" lon="6.69145">
        <ele>360</ele>
        <time>2014-11-23T09:27:52.000Z</time>
      </trkpt>
      <trkpt lat="47.48184" lon="6.69149">
        <ele>361.6</ele>
        <time>2014-11-23T09:27:53.000Z</time>
      </trkpt>
      <trkpt lat="47.48181" lon="6.69153">
        <ele>361.8</ele>
        <time>2014-11-23T09:27:54.000Z</time>
      </trkpt>
      <trkpt lat="47.48177" lon="6.69157">
        <ele>362.4</ele>
        <time>2014-11-23T09:27:55.000Z</time>
      </trkpt>
      <trkpt lat="47.48174" lon="6.6916">
        <ele>364.2</ele>
        <time>2014-11-23T09:27:56.000Z</time>
      </trkpt>
      <trkpt lat="47.48171" lon="6.69163">
        <ele>365.6</ele>
        <time>2014-11-23T09:27:57.000Z</time>
      </trkpt>
      <trkpt lat="47.48168" lon="6.69166">
        <ele>366.9</ele>
        <time>2014-11-23T09:27:58.000Z</time>
      </trkpt>
      <trkpt lat="47.48165" lon="6.69168">
        <ele>368.2</ele>
        <time>2014-11-23T09:27:59.000Z</time>
      </trkpt>
      <trkpt lat="47.48163" lon="6.69172">
        <ele>369.1</ele>
        <time>2014-11-23T09:28:00.000Z</time>
      </trkpt>
      <trkpt lat="47.4816" lon="6.69175">
        <ele>370.9</ele>
        <time>2014-11-23T09:28:01.000Z</time>
      </trkpt>
      <trkpt lat="47.48158" lon="6.69178">
        <ele>372.3</ele>
        <time>2014-11-23T09:28:02.000Z</time>
      </trkpt>
      <trkpt lat="47.48155" lon="6.69181">
        <ele>372.7</ele>
        <time>2014-11-23T09:28:03.000Z</time>
      </trkpt>
      <trkpt lat="47.48153" lon="6.69185">
        <ele>373</ele>
        <time>2014-11-23T09:28:04.000Z</time>
      </trkpt>
      <trkpt lat="47.4815" lon="6.69188">
        <ele>374.4</ele>
        <time>2014-11-23T09:28:05.000Z</time>
      </trkpt>
      <trkpt lat="47.48146" lon="6.69192">
        <ele>375.5</ele>
        <time>2014-11-23T09:28:06.000Z</time>
      </trkpt>
      <trkpt lat="47.48143" lon="6.69196">
        <ele>376.3</ele>
        <time>2014-11-23T09:28:07.000Z</time>
      </trkpt>
      <trkpt lat="47.48139" lon="6.692">
        <ele>377.8</ele>
        <time>2014-11-23T09:28:08.000Z</time>
      </trkpt>
      <trkpt lat="47.48135" lon="6.69204">
        <ele>378.5</ele>
        <time>2014-11-23T09:28:09.000Z</time>
      </trkpt>
      <trkpt lat="47.48132" lon="6.69207">
        <ele>378.9</ele>
        <time>2014-11-23T09:28:10.000Z</time>
      </trkpt>
      <trkpt lat="47.48128" lon="6.69211">
        <ele>379.2</ele>
        <time>2014-11-23T09:28:11.000Z</time>
      </trkpt>
      <trkpt lat="47.48125" lon="6.69214">
        <ele>378.4</ele>
        <time>2014-11-23T09:28:12.000Z</time>
      </trkpt>
      <trkpt lat="47.48122" lon="6.69218">
        <ele>377.4</ele>
        <time>2014-11-23T09:28:13.000Z</time>
      </trkpt>
      <trkpt lat="47.48119" lon="6.69221">
        <ele>377.3</ele>
        <time>2014-11-23T09:28:14.000Z</time>
      </trkpt>
      <trkpt lat="47.48117" lon="6.69224">
        <ele>376.3</ele>
        <time>2014-11-23T09:28:15.000Z</time>
      </trkpt>
      <trkpt lat="47.48113" lon="6.69226">
        <ele>375</ele>
        <time>2014-11-23T09:28:16.000Z</time>
      </trkpt>
      <trkpt lat="47.4811" lon="6.69227">
        <ele>374.2</ele>
        <time>2014-11-23T09:28:17.000Z</time>
      </trkpt>
      <trkpt lat="47.48106" lon="6.69229">
        <ele>373.6</ele>
        <time>2014-11-23T09:28:18.000Z</time>
      </trkpt>
      <trkpt lat="47.48102" lon="6.69231">
        <ele>373.4</ele>
        <time>2014-11-23T09:28:19.000Z</time>
      </trkpt>
      <trkpt lat="47.48099" lon="6.69231">
        <ele>372.7</ele>
        <time>2014-11-23T09:28:20.000Z</time>
      </trkpt>
      <trkpt lat="47.48096" lon="6.69232">
        <ele>372.5</ele>
        <time>2014-11-23T09:28:21.000Z</time>
      </trkpt>
      <trkpt lat="47.48093" lon="6.69232">
        <ele>371.9</ele>
        <time>2014-11-23T09:28:22.000Z</time>
      </trkpt>
      <trkpt lat="47.48089" lon="6.69232">
        <ele>371.2</ele>
        <time>2014-11-23T09:28:23.000Z</time>
      </trkpt>
      <trkpt lat="47.48085" lon="6.69232">
        <ele>371.8</ele>
        <time>2014-11-23T09:28:24.000Z</time>
      </trkpt>
      <trkpt lat="47.48081" lon="6.69232">
        <ele>371.6</ele>
        <time>2014-11-23T09:28:25.000Z</time>
      </trkpt>
      <trkpt lat="47.48077" lon="6.69233">
        <ele>370.9</ele>
        <time>2014-11-23T09:28:26.000Z</time>
      </trkpt>
      <trkpt lat="47.48072" lon="6.69234">
        <ele>370.2</ele>
        <time>2014-11-23T09:28:27.000Z</time>
      </trkpt>
      <trkpt lat="47.48067" lon="6.69235">
        <ele>369.3</ele>
        <time>2014-11-23T09:28:28.000Z</time>
      </trkpt>
      <trkpt lat="47.48014" lon="6.69263">
        <ele>361.2</ele>
        <time>2014-11-23T09:28:35.773Z</time>
      </trkpt>
      <trkpt lat="47.48006" lon="6.69278">
        <ele>361.7</ele>
        <time>2014-11-23T09:28:37.000Z</time>
      </trkpt>
      <trkpt lat="47.47998" lon="6.6928">
        <ele>359.8</ele>
        <time>2014-11-23T09:28:38.000Z</time>
      </trkpt>
      <trkpt lat="47.4799" lon="6.69286">
        <ele>358.9</ele>
        <time>2014-11-23T09:28:39.000Z</time>
      </trkpt>
      <trkpt lat="47.47983" lon="6.69289">
        <ele>358.2</ele>
        <time>2014-11-23T09:28:40.000Z</time>
      </trkpt>
      <trkpt lat="47.47978" lon="6.69295">
        <ele>357</ele>
        <time>2014-11-23T09:28:41.000Z</time>
      </trkpt>
      <trkpt lat="47.4797" lon="6.69298">
        <ele>356.1</ele>
        <time>2014-11-23T09:28:42.000Z</time>
      </trkpt>
      <trkpt lat="47.47961" lon="6.69304">
        <ele>355.5</ele>
        <time>2014-11-23T09:28:43.000Z</time>
      </trkpt>
      <trkpt lat="47.47955" lon="6.69315">
        <ele>350.9</ele>
        <time>2014-11-23T09:28:44.000Z</time>
      </trkpt>
      <trkpt lat="47.47946" lon="6.69322">
        <ele>352</ele>
        <time>2014-11-23T09:28:45.000Z</time>
      </trkpt>
      <trkpt lat="47.47938" lon="6.69328">
        <ele>351.8</ele>
        <time>2014-11-23T09:28:46.000Z</time>
      </trkpt>
      <trkpt lat="47.4793" lon="6.69333">
        <ele>351.8</ele>
        <time>2014-11-23T09:28:47.000Z</time>
      </trkpt>
      <trkpt lat="47.47923" lon="6.6934">
        <ele>349.7</ele>
        <time>2014-11-23T09:28:48.000Z</time>
      </trkpt>
      <trkpt lat="47.47916" lon="6.69346">
        <ele>350</ele>
        <time>2014-11-23T09:28:49.000Z</time>
      </trkpt>
      <trkpt lat="47.47907" lon="6.6935">
        <ele>350.6</ele>
        <time>2014-11-23T09:28:50.000Z</time>
      </trkpt>
      <trkpt lat="47.479" lon="6.69357">
        <ele>348.1</ele>
        <time>2014-11-23T09:28:51.000Z</time>
      </trkpt>
      <trkpt lat="47.47892" lon="6.69362">
        <ele>347.1</ele>
        <time>2014-11-23T09:28:52.000Z</time>
      </trkpt>
      <trkpt lat="47.47883" lon="6.69368">
        <ele>347.8</ele>
        <time>2014-11-23T09:28:53.000Z</time>
      </trkpt>
      <trkpt lat="47.47874" lon="6.69371">
        <ele>349.9</ele>
        <time>2014-11-23T09:28:54.000Z</time>
      </trkpt>
      <trkpt lat="47.47866" lon="6.69377">
        <ele>348.6</ele>
        <time>2014-11-23T09:28:55.000Z</time>
      </trkpt>
      <trkpt lat="47.47857" lon="6.69383">
        <ele>348.1</ele>
        <time>2014-11-23T09:28:56.000Z</time>
      </trkpt>
      <trkpt lat="47.47848" lon="6.69389">
        <ele>348.3</ele>
        <time>2014-11-23T09:28:57.000Z</time>
      </trkpt>
      <trkpt lat="47.4784" lon="6.69393">
        <ele>347.9</ele>
        <time>2014-11-23T09:28:58.000Z</time>
      </trkpt>
      <trkpt lat="47.47831" lon="6.69397">
        <ele>347.2</ele>
        <time>2014-11-23T09:28:59.000Z</time>
      </trkpt>
      <trkpt lat="47.47822" lon="6.69401">
        <ele>346.8</ele>
        <time>2014-11-23T09:29:00.000Z</time>
      </trkpt>
      <trkpt lat="47.47812" lon="6.69403">
        <ele>346.1</ele>
        <time>2014-11-23T09:29:01.000Z</time>
      </trkpt>
      <trkpt lat="47.47803" lon="6.69404">
        <ele>345.3</ele>
        <time>2014-11-23T09:29:02.000Z</time>
      </trkpt>
      <trkpt lat="47.47794" lon="6.69404">
        <ele>345.5</ele>
        <time>2014-11-23T09:29:03.000Z</time>
      </trkpt>
      <trkpt lat="47.47785" lon="6.69406">
        <ele>345.1</ele>
        <time>2014-11-23T09:29:04.000Z</time>
      </trkpt>
      <trkpt lat="47.47778" lon="6.69409">
        <ele>342.3</ele>
        <time>2014-11-23T09:29:05.000Z</time>
      </trkpt>
      <trkpt lat="47.47769" lon="6.6941">
        <ele>342</ele>
        <time>2014-11-23T09:29:06.000Z</time>
      </trkpt>
      <trkpt lat="47.47759" lon="6.69411">
        <ele>341.7</ele>
        <time>2014-11-23T09:29:07.000Z</time>
      </trkpt>
      <trkpt lat="47.4775" lon="6.69411">
        <ele>341.9</ele>
        <time>2014-11-23T09:29:08.000Z</time>
      </trkpt>
      <trkpt lat="47.47742" lon="6.69413">
        <ele>340.5</ele>
        <time>2014-11-23T09:29:09.000Z</time>
      </trkpt>
      <trkpt lat="47.47732" lon="6.69413">
        <ele>340.4</ele>
        <time>2014-11-23T09:29:10.000Z</time>
      </trkpt>
      <trkpt lat="47.47724" lon="6.69413">
        <ele>339.2</ele>
        <time>2014-11-23T09:29:11.000Z</time>
      </trkpt>
      <trkpt lat="47.47714" lon="6.69411">
        <ele>339.5</ele>
        <time>2014-11-23T09:29:12.000Z</time>
      </trkpt>
      <trkpt lat="47.47705" lon="6.69405">
        <ele>338.6</ele>
        <time>2014-11-23T09:29:13.000Z</time>
      </trkpt>
      <trkpt lat="47.47696" lon="6.694">
        <ele>337.8</ele>
        <time>2014-11-23T09:29:14.000Z</time>
      </trkpt>
      <trkpt lat="47.47687" lon="6.69394">
        <ele>337.2</ele>
        <time>2014-11-23T09:29:15.000Z</time>
      </trkpt>
      <trkpt lat="47.47679" lon="6.69389">
        <ele>335.6</ele>
        <time>2014-11-23T09:29:16.000Z</time>
      </trkpt>
      <trkpt lat="47.47671" lon="6.69383">
        <ele>333.7</ele>
        <time>2014-11-23T09:29:17.000Z</time>
      </trkpt>
      <trkpt lat="47.47663" lon="6.69376">
        <ele>333</ele>
        <time>2014-11-23T09:29:18.000Z</time>
      </trkpt>
      <trkpt lat="47.47655" lon="6.69371">
        <ele>332.1</ele>
        <time>2014-11-23T09:29:19.000Z</time>
      </trkpt>
      <trkpt lat="47.47646" lon="6.69368">
        <ele>331.4</ele>
        <time>2014-11-23T09:29:20.000Z</time>
      </trkpt>
      <trkpt lat="47.47637" lon="6.69368">
        <ele>331</ele>
        <time>2014-11-23T09:29:21.000Z</time>
      </trkpt>
      <trkpt lat="47.47628" lon="6.69371">
        <ele>330.6</ele>
        <time>2014-11-23T09:29:22.000Z</time>
      </trkpt>
      <trkpt lat="47.47619" lon="6.69375">
        <ele>330.1</ele>
        <time>2014-11-23T09:29:23.000Z</time>
      </trkpt>
      <trkpt lat="47.47611" lon="6.69381">
        <ele>329.6</ele>
        <time>2014-11-23T09:29:24.000Z</time>
      </trkpt>
      <trkpt lat="47.47603" lon="6.69386">
        <ele>329.2</ele>
        <time>2014-11-23T09:29:25.000Z</time>
      </trkpt>
      <trkpt lat="47.47596" lon="6.69391">
        <ele>328.8</ele>
        <time>2014-11-23T09:29:26.000Z</time>
      </trkpt>
      <trkpt lat="47.47589" lon="6.69395">
        <ele>328.7</ele>
        <time>2014-11-23T09:29:27.000Z</time>
      </trkpt>
      <trkpt lat="47.47582" lon="6.69401">
        <ele>327.5</ele>
        <time>2014-11-23T09:29:28.000Z</time>
      </trkpt>
      <trkpt lat="47.47533" lon="6.69429">
        <ele>326.1</ele>
        <time>2014-11-23T09:29:35.787Z</time>
      </trkpt>
      <trkpt lat="47.47526" lon="6.69432">
        <ele>326.7</ele>
        <time>2014-11-23T09:29:37.000Z</time>
      </trkpt>
      <trkpt lat="47.47519" lon="6.69435">
        <ele>327</ele>
        <time>2014-11-23T09:29:38.000Z</time>
      </trkpt>
      <trkpt lat="47.47513" lon="6.69438">
        <ele>327.6</ele>
        <time>2014-11-23T09:29:39.000Z</time>
      </trkpt>
      <trkpt lat="47.47507" lon="6.69439">
        <ele>325.9</ele>
        <time>2014-11-23T09:29:40.000Z</time>
      </trkpt>
      <trkpt lat="47.47501" lon="6.69441">
        <ele>325.9</ele>
        <time>2014-11-23T09:29:41.000Z</time>
      </trkpt>
      <trkpt lat="47.47497" lon="6.69441">
        <ele>324.9</ele>
        <time>2014-11-23T09:29:42.000Z</time>
      </trkpt>
      <trkpt lat="47.47492" lon="6.69444">
        <ele>325.7</ele>
        <time>2014-11-23T09:29:43.000Z</time>
      </trkpt>
      <trkpt lat="47.47487" lon="6.69447">
        <ele>325.4</ele>
        <time>2014-11-23T09:29:44.000Z</time>
      </trkpt>
      <trkpt lat="47.47483" lon="6.69449">
        <ele>325.7</ele>
        <time>2014-11-23T09:29:45.000Z</time>
      </trkpt>
      <trkpt lat="47.47481" lon="6.69451">
        <ele>326.1</ele>
        <time>2014-11-23T09:29:46.000Z</time>
      </trkpt>
      <trkpt lat="47.4748" lon="6.69455">
        <ele>326.2</ele>
        <time>2014-11-23T09:29:47.000Z</time>
      </trkpt>
      <trkpt lat="47.47479" lon="6.69457">
        <ele>327.2</ele>
        <time>2014-11-23T09:29:48.000Z</time>
      </trkpt>
      <trkpt lat="47.47478" lon="6.69462">
        <ele>326.6</ele>
        <time>2014-11-23T09:29:49.000Z</time>
      </trkpt>
      <trkpt lat="47.47477" lon="6.69467">
        <ele>325.1</ele>
        <time>2014-11-23T09:29:50.000Z</time>
      </trkpt>
      <trkpt lat="47.47475" lon="6.69472">
        <ele>326.1</ele>
        <time>2014-11-23T09:29:51.000Z</time>
      </trkpt>
      <trkpt lat="47.47472" lon="6.69475">
        <ele>326.3</ele>
        <time>2014-11-23T09:29:52.000Z</time>
      </trkpt>
      <trkpt lat="47.47468" lon="6.69477">
        <ele>327.1</ele>
        <time>2014-11-23T09:29:53.000Z</time>
      </trkpt>
      <trkpt lat="47.47465" lon="6.69479">
        <ele>327.9</ele>
        <time>2014-11-23T09:29:54.000Z</time>
      </trkpt>
      <trkpt lat="47.47461" lon="6.6948">
        <ele>327.9</ele>
        <time>2014-11-23T09:29:55.000Z</time>
      </trkpt>
      <trkpt lat="47.47457" lon="6.69481">
        <ele>327.5</ele>
        <time>2014-11-23T09:29:56.000Z</time>
      </trkpt>
      <trkpt lat="47.47451" lon="6.69475">
        <ele>327.6</ele>
        <time>2014-11-23T09:29:57.000Z</time>
      </trkpt>
      <trkpt lat="47.47446" lon="6.69475">
        <ele>327</ele>
        <time>2014-11-23T09:29:58.000Z</time>
      </trkpt>
      <trkpt lat="47.47442" lon="6.69475">
        <ele>324.9</ele>
        <time>2014-11-23T09:29:59.000Z</time>
      </trkpt>
      <trkpt lat="47.47437" lon="6.69475">
        <ele>324.4</ele>
        <time>2014-11-23T09:30:00.000Z</time>
      </trkpt>
      <trkpt lat="47.4743" lon="6.69471">
        <ele>323.2</ele>
        <time>2014-11-23T09:30:01.000Z</time>
      </trkpt>
      <trkpt lat="47.47424" lon="6.69471">
        <ele>323.5</ele>
        <time>2014-11-23T09:30:02.000Z</time>
      </trkpt>
      <trkpt lat="47.4742" lon="6.6947">
        <ele>323.5</ele>
        <time>2014-11-23T09:30:03.000Z</time>
      </trkpt>
      <trkpt lat="47.47415" lon="6.6947">
        <ele>323</ele>
        <time>2014-11-23T09:30:04.000Z</time>
      </trkpt>
      <trkpt lat="47.47412" lon="6.69468">
        <ele>322.9</ele>
        <time>2014-11-23T09:30:05.000Z</time>
      </trkpt>
      <trkpt lat="47.47409" lon="6.69467">
        <ele>321.9</ele>
        <time>2014-11-23T09:30:06.000Z</time>
      </trkpt>
      <trkpt lat="47.47407" lon="6.69467">
        <ele>321.6</ele>
        <time>2014-11-23T09:30:07.000Z</time>
      </trkpt>
      <trkpt lat="47.47405" lon="6.69466">
        <ele>321.1</ele>
        <time>2014-11-23T09:30:08.000Z</time>
      </trkpt>
      <trkpt lat="47.47402" lon="6.69464">
        <ele>320.7</ele>
        <time>2014-11-23T09:30:09.000Z</time>
      </trkpt>
      <trkpt lat="47.47399" lon="6.69463">
        <ele>320.7</ele>
        <time>2014-11-23T09:30:10.000Z</time>
      </trkpt>
      <trkpt lat="47.47396" lon="6.69461">
        <ele>319.2</ele>
        <time>2014-11-23T09:30:11.000Z</time>
      </trkpt>
      <trkpt lat="47.47392" lon="6.69459">
        <ele>318.3</ele>
        <time>2014-11-23T09:30:12.000Z</time>
      </trkpt>
      <trkpt lat="47.47388" lon="6.69456">
        <ele>317.6</ele>
        <time>2014-11-23T09:30:13.000Z</time>
      </trkpt>
      <trkpt lat="47.47385" lon="6.69454">
        <ele>318.1</ele>
        <time>2014-11-23T09:30:14.000Z</time>
      </trkpt>
      <trkpt lat="47.4738" lon="6.69453">
        <ele>318.3</ele>
        <time>2014-11-23T09:30:15.000Z</time>
      </trkpt>
      <trkpt lat="47.47375" lon="6.69453">
        <ele>318.4</ele>
        <time>2014-11-23T09:30:16.000Z</time>
      </trkpt>
      <trkpt lat="47.4737" lon="6.69453">
        <ele>319</ele>
        <time>2014-11-23T09:30:17.000Z</time>
      </trkpt>
      <trkpt lat="47.47365" lon="6.69454">
        <ele>318.6</ele>
        <time>2014-11-23T09:30:18.000Z</time>
      </trkpt>
      <trkpt lat="47.47361" lon="6.69453">
        <ele>318.2</ele>
        <time>2014-11-23T09:30:19.000Z</time>
      </trkpt>
      <trkpt lat="47.47356" lon="6.69453">
        <ele>317.9</ele>
        <time>2014-11-23T09:30:20.000Z</time>
      </trkpt>
      <trkpt lat="47.47352" lon="6.69453">
        <ele>317.9</ele>
        <time>2014-11-23T09:30:21.000Z</time>
      </trkpt>
      <trkpt lat="47.47347" lon="6.69453">
        <ele>317.7</ele>
        <time>2014-11-23T09:30:22.000Z</time>
      </trkpt>
      <trkpt lat="47.47343" lon="6.69453">
        <ele>317.5</ele>
        <time>2014-11-23T09:30:23.000Z</time>
      </trkpt>
      <trkpt lat="47.47339" lon="6.69453">
        <ele>318.2</ele>
        <time>2014-11-23T09:30:24.000Z</time>
      </trkpt>
      <trkpt lat="47.47335" lon="6.69453">
        <ele>318.5</ele>
        <time>2014-11-23T09:30:25.000Z</time>
      </trkpt>
      <trkpt lat="47.47331" lon="6.69454">
        <ele>317.6</ele>
        <time>2014-11-23T09:30:26.000Z</time>
      </trkpt>
      <trkpt lat="47.47327" lon="6.69455">
        <ele>316.9</ele>
        <time>2014-11-23T09:30:27.000Z</time>
      </trkpt>
      <trkpt lat="47.47323" lon="6.69457">
        <ele>316.2</ele>
        <time>2014-11-23T09:30:28.000Z</time>
      </trkpt>
      <trkpt lat="47.47319" lon="6.69459">
        <ele>316.4</ele>
        <time>2014-11-23T09:30:29.000Z</time>
      </trkpt>
      <trkpt lat="47.47293" lon="6.69469">
        <ele>314.3</ele>
        <time>2014-11-23T09:30:37.000Z</time>
      </trkpt>
      <trkpt lat="47.47291" lon="6.69471">
        <ele>313.1</ele>
        <time>2014-11-23T09:30:38.000Z</time>
      </trkpt>
      <trkpt lat="47.47289" lon="6.69475">
        <ele>313.7</ele>
        <time>2014-11-23T09:30:39.000Z</time>
      </trkpt>
      <trkpt lat="47.47287" lon="6.69479">
        <ele>313.4</ele>
        <time>2014-11-23T09:30:40.000Z</time>
      </trkpt>
      <trkpt lat="47.47285" lon="6.69483">
        <ele>314.5</ele>
        <time>2014-11-23T09:30:41.000Z</time>
      </trkpt>
      <trkpt lat="47.47284" lon="6.69486">
        <ele>315.6</ele>
        <time>2014-11-23T09:30:42.000Z</time>
      </trkpt>
      <trkpt lat="47.47283" lon="6.69491">
        <ele>315.8</ele>
        <time>2014-11-23T09:30:43.000Z</time>
      </trkpt>
      <trkpt lat="47.47283" lon="6.69495">
        <ele>315.3</ele>
        <time>2014-11-23T09:30:44.000Z</time>
      </trkpt>
      <trkpt lat="47.47283" lon="6.69499">
        <ele>315.1</ele>
        <time>2014-11-23T09:30:45.000Z</time>
      </trkpt>
      <trkpt lat="47.47283" lon="6.69503">
        <ele>315.3</ele>
        <time>2014-11-23T09:30:46.000Z</time>
      </trkpt>
      <trkpt lat="47.47285" lon="6.69507">
        <ele>316</ele>
        <time>2014-11-23T09:30:47.000Z</time>
      </trkpt>
      <trkpt lat="47.47287" lon="6.69511">
        <ele>315.6</ele>
        <time>2014-11-23T09:30:48.000Z</time>
      </trkpt>
      <trkpt lat="47.47288" lon="6.69514">
        <ele>315.8</ele>
        <time>2014-11-23T09:30:49.000Z</time>
      </trkpt>
      <trkpt lat="47.4729" lon="6.69518">
        <ele>316.4</ele>
        <time>2014-11-23T09:30:50.000Z</time>
      </trkpt>
      <trkpt lat="47.47291" lon="6.69521">
        <ele>316.9</ele>
        <time>2014-11-23T09:30:51.001Z</time>
      </trkpt>
      <trkpt lat="47.47293" lon="6.69527">
        <ele>314.5</ele>
        <time>2014-11-23T09:30:52.000Z</time>
      </trkpt>
      <trkpt lat="47.47295" lon="6.69532">
        <ele>314.6</ele>
        <time>2014-11-23T09:30:53.000Z</time>
      </trkpt>
      <trkpt lat="47.47296" lon="6.69536">
        <ele>315.4</ele>
        <time>2014-11-23T09:30:54.000Z</time>
      </trkpt>
      <trkpt lat="47.47298" lon="6.69541">
        <ele>316.3</ele>
        <time>2014-11-23T09:30:55.000Z</time>
      </trkpt>
      <trkpt lat="47.47299" lon="6.69545">
        <ele>316.7</ele>
        <time>2014-11-23T09:30:56.001Z</time>
      </trkpt>
      <trkpt lat="47.47301" lon="6.69549">
        <ele>316.5</ele>
        <time>2014-11-23T09:30:57.000Z</time>
      </trkpt>
      <trkpt lat="47.47303" lon="6.69554">
        <ele>316.7</ele>
        <time>2014-11-23T09:30:58.000Z</time>
      </trkpt>
      <trkpt lat="47.47305" lon="6.69558">
        <ele>317.6</ele>
        <time>2014-11-23T09:30:59.000Z</time>
      </trkpt>
      <trkpt lat="47.47306" lon="6.69562">
        <ele>318.1</ele>
        <time>2014-11-23T09:31:00.000Z</time>
      </trkpt>
      <trkpt lat="47.47308" lon="6.69566">
        <ele>318.2</ele>
        <time>2014-11-23T09:31:01.000Z</time>
      </trkpt>
      <trkpt lat="47.4731" lon="6.6957">
        <ele>318.4</ele>
        <time>2014-11-23T09:31:02.000Z</time>
      </trkpt>
      <trkpt lat="47.47311" lon="6.69574">
        <ele>318.6</ele>
        <time>2014-11-23T09:31:03.000Z</time>
      </trkpt>
      <trkpt lat="47.47313" lon="6.69578">
        <ele>317.9</ele>
        <time>2014-11-23T09:31:04.000Z</time>
      </trkpt>
      <trkpt lat="47.47314" lon="6.69583">
        <ele>318.8</ele>
        <time>2014-11-23T09:31:05.000Z</time>
      </trkpt>
      <trkpt lat="47.47316" lon="6.69588">
        <ele>318.9</ele>
        <time>2014-11-23T09:31:06.000Z</time>
      </trkpt>
      <trkpt lat="47.47317" lon="6.69592">
        <ele>319.6</ele>
        <time>2014-11-23T09:31:07.000Z</time>
      </trkpt>
      <trkpt lat="47.47319" lon="6.69596">
        <ele>319.9</ele>
        <time>2014-11-23T09:31:08.000Z</time>
      </trkpt>
      <trkpt lat="47.4732" lon="6.696">
        <ele>320.4</ele>
        <time>2014-11-23T09:31:09.000Z</time>
      </trkpt>
      <trkpt lat="47.47321" lon="6.69605">
        <ele>320.9</ele>
        <time>2014-11-23T09:31:10.000Z</time>
      </trkpt>
      <trkpt lat="47.4732" lon="6.69614">
        <ele>320.1</ele>
        <time>2014-11-23T09:31:11.000Z</time>
      </trkpt>
      <trkpt lat="47.4732" lon="6.69617">
        <ele>321</ele>
        <time>2014-11-23T09:31:12.000Z</time>
      </trkpt>
      <trkpt lat="47.47321" lon="6.69621">
        <ele>321.4</ele>
        <time>2014-11-23T09:31:13.000Z</time>
      </trkpt>
      <trkpt lat="47.4732" lon="6.69624">
        <ele>322.4</ele>
        <time>2014-11-23T09:31:14.000Z</time>
      </trkpt>
      <trkpt lat="47.47321" lon="6.6963">
        <ele>321.3</ele>
        <time>2014-11-23T09:31:15.000Z</time>
      </trkpt>
      <trkpt lat="47.4732" lon="6.69634">
        <ele>321.5</ele>
        <time>2014-11-23T09:31:16.000Z</time>
      </trkpt>
      <trkpt lat="47.47319" lon="6.69638">
        <ele>322</ele>
        <time>2014-11-23T09:31:17.000Z</time>
      </trkpt>
      <trkpt lat="47.47318" lon="6.69643">
        <ele>322.3</ele>
        <time>2014-11-23T09:31:18.000Z</time>
      </trkpt>
      <trkpt lat="47.47316" lon="6.69647">
        <ele>323.2</ele>
        <time>2014-11-23T09:31:19.000Z</time>
      </trkpt>
      <trkpt lat="47.47315" lon="6.6965">
        <ele>322.5</ele>
        <time>2014-11-23T09:31:20.000Z</time>
      </trkpt>
      <trkpt lat="47.47314" lon="6.69654">
        <ele>322.5</ele>
        <time>2014-11-23T09:31:21.000Z</time>
      </trkpt>
      <trkpt lat="47.47312" lon="6.69658">
        <ele>322.4</ele>
        <time>2014-11-23T09:31:22.000Z</time>
      </trkpt>
      <trkpt lat="47.47311" lon="6.69662">
        <ele>322.5</ele>
        <time>2014-11-23T09:31:23.000Z</time>
      </trkpt>
      <trkpt lat="47.47309" lon="6.69666">
        <ele>322.8</ele>
        <time>2014-11-23T09:31:24.000Z</time>
      </trkpt>
      <trkpt lat="47.47307" lon="6.6967">
        <ele>322.7</ele>
        <time>2014-11-23T09:31:25.000Z</time>
      </trkpt>
      <trkpt lat="47.47306" lon="6.69674">
        <ele>322.9</ele>
        <time>2014-11-23T09:31:26.000Z</time>
      </trkpt>
      <trkpt lat="47.47304" lon="6.69677">
        <ele>322.6</ele>
        <time>2014-11-23T09:31:27.000Z</time>
      </trkpt>
      <trkpt lat="47.47302" lon="6.69681">
        <ele>321.7</ele>
        <time>2014-11-23T09:31:28.000Z</time>
      </trkpt>
      <trkpt lat="47.47298" lon="6.69689">
        <ele>321.5</ele>
        <time>2014-11-23T09:31:29.892Z</time>
      </trkpt>
      <trkpt lat="47.47296" lon="6.69694">
        <ele>321.2</ele>
        <time>2014-11-23T09:31:31.000Z</time>
      </trkpt>
      <trkpt lat="47.47294" lon="6.69697">
        <ele>321.6</ele>
        <time>2014-11-23T09:31:32.000Z</time>
      </trkpt>
      <trkpt lat="47.47291" lon="6.697">
        <ele>320.9</ele>
        <time>2014-11-23T09:31:33.000Z</time>
      </trkpt>
      <trkpt lat="47.47289" lon="6.69703">
        <ele>321.6</ele>
        <time>2014-11-23T09:31:34.000Z</time>
      </trkpt>
      <trkpt lat="47.47286" lon="6.69705">
        <ele>321.8</ele>
        <time>2014-11-23T09:31:35.000Z</time>
      </trkpt>
      <trkpt lat="47.47284" lon="6.69708">
        <ele>322.4</ele>
        <time>2014-11-23T09:31:36.000Z</time>
      </trkpt>
      <trkpt lat="47.47281" lon="6.69709">
        <ele>323</ele>
        <time>2014-11-23T09:31:37.000Z</time>
      </trkpt>
      <trkpt lat="47.47279" lon="6.69711">
        <ele>323.2</ele>
        <time>2014-11-23T09:31:38.000Z</time>
      </trkpt>
      <trkpt lat="47.47276" lon="6.69713">
        <ele>323.6</ele>
        <time>2014-11-23T09:31:40.000Z</time>
      </trkpt>
      <trkpt lat="47.47274" lon="6.69713">
        <ele>324.3</ele>
        <time>2014-11-23T09:31:41.000Z</time>
      </trkpt>
      <trkpt lat="47.47271" lon="6.69712">
        <ele>324.7</ele>
        <time>2014-11-23T09:31:43.000Z</time>
      </trkpt>
      <trkpt lat="47.47269" lon="6.69713">
        <ele>325.6</ele>
        <time>2014-11-23T09:31:44.000Z</time>
      </trkpt>
      <trkpt lat="47.47267" lon="6.69715">
        <ele>324.9</ele>
        <time>2014-11-23T09:31:45.000Z</time>
      </trkpt>
      <trkpt lat="47.47265" lon="6.69717">
        <ele>326.3</ele>
        <time>2014-11-23T09:31:46.000Z</time>
      </trkpt>
      <trkpt lat="47.47263" lon="6.69718">
        <ele>327.3</ele>
        <time>2014-11-23T09:31:47.000Z</time>
      </trkpt>
      <trkpt lat="47.4726" lon="6.69719">
        <ele>327</ele>
        <time>2014-11-23T09:31:48.000Z</time>
      </trkpt>
      <trkpt lat="47.47258" lon="6.6972">
        <ele>327.2</ele>
        <time>2014-11-23T09:31:49.000Z</time>
      </trkpt>
      <trkpt lat="47.47256" lon="6.6972">
        <ele>327.4</ele>
        <time>2014-11-23T09:31:50.000Z</time>
      </trkpt>
      <trkpt lat="47.47252" lon="6.69721">
        <ele>328</ele>
        <time>2014-11-23T09:31:52.000Z</time>
      </trkpt>
      <trkpt lat="47.4725" lon="6.69722">
        <ele>328</ele>
        <time>2014-11-23T09:31:53.000Z</time>
      </trkpt>
      <trkpt lat="47.47247" lon="6.69724">
        <ele>328.7</ele>
        <time>2014-11-23T09:31:55.000Z</time>
      </trkpt>
      <trkpt lat="47.47245" lon="6.69725">
        <ele>329.3</ele>
        <time>2014-11-23T09:31:56.000Z</time>
      </trkpt>
      <trkpt lat="47.47241" lon="6.69725">
        <ele>330.1</ele>
        <time>2014-11-23T09:31:58.000Z</time>
      </trkpt>
      <trkpt lat="47.47239" lon="6.69726">
        <ele>330.1</ele>
        <time>2014-11-23T09:31:59.000Z</time>
      </trkpt>
      <trkpt lat="47.47236" lon="6.69728">
        <ele>330</ele>
        <time>2014-11-23T09:32:01.000Z</time>
      </trkpt>
      <trkpt lat="47.47234" lon="6.69729">
        <ele>331.1</ele>
        <time>2014-11-23T09:32:02.000Z</time>
      </trkpt>
      <trkpt lat="47.47231" lon="6.69731">
        <ele>331</ele>
        <time>2014-11-23T09:32:04.000Z</time>
      </trkpt>
      <trkpt lat="47.47229" lon="6.69731">
        <ele>331.5</ele>
        <time>2014-11-23T09:32:05.000Z</time>
      </trkpt>
      <trkpt lat="47.47226" lon="6.69731">
        <ele>331.9</ele>
        <time>2014-11-23T09:32:07.000Z</time>
      </trkpt>
      <trkpt lat="47.47224" lon="6.69731">
        <ele>332.1</ele>
        <time>2014-11-23T09:32:08.000Z</time>
      </trkpt>
      <trkpt lat="47.4722" lon="6.69731">
        <ele>332</ele>
        <time>2014-11-23T09:32:10.001Z</time>
      </trkpt>
      <trkpt lat="47.47218" lon="6.69732">
        <ele>331.6</ele>
        <time>2014-11-23T09:32:11.000Z</time>
      </trkpt>
      <trkpt lat="47.47215" lon="6.69733">
        <ele>331.8</ele>
        <time>2014-11-23T09:32:12.000Z</time>
      </trkpt>
      <trkpt lat="47.47213" lon="6.69733">
        <ele>331</ele>
        <time>2014-11-23T09:32:13.000Z</time>
      </trkpt>
      <trkpt lat="47.47211" lon="6.69734">
        <ele>330.2</ele>
        <time>2014-11-23T09:32:14.000Z</time>
      </trkpt>
      <trkpt lat="47.47208" lon="6.69734">
        <ele>329.7</ele>
        <time>2014-11-23T09:32:15.000Z</time>
      </trkpt>
      <trkpt lat="47.47206" lon="6.69734">
        <ele>329.5</ele>
        <time>2014-11-23T09:32:16.000Z</time>
      </trkpt>
      <trkpt lat="47.47204" lon="6.69735">
        <ele>329.3</ele>
        <time>2014-11-23T09:32:17.000Z</time>
      </trkpt>
      <trkpt lat="47.47201" lon="6.69736">
        <ele>329.5</ele>
        <time>2014-11-23T09:32:18.000Z</time>
      </trkpt>
      <trkpt lat="47.47199" lon="6.69736">
        <ele>329.7</ele>
        <time>2014-11-23T09:32:19.000Z</time>
      </trkpt>
      <trkpt lat="47.47196" lon="6.69737">
        <ele>329.2</ele>
        <time>2014-11-23T09:32:20.000Z</time>
      </trkpt>
      <trkpt lat="47.47193" lon="6.69737">
        <ele>329.7</ele>
        <time>2014-11-23T09:32:21.000Z</time>
      </trkpt>
      <trkpt lat="47.47191" lon="6.69737">
        <ele>329.9</ele>
        <time>2014-11-23T09:32:22.000Z</time>
      </trkpt>
      <trkpt lat="47.47188" lon="6.69738">
        <ele>329.8</ele>
        <time>2014-11-23T09:32:23.000Z</time>
      </trkpt>
      <trkpt lat="47.47185" lon="6.6974">
        <ele>330.3</ele>
        <time>2014-11-23T09:32:24.000Z</time>
      </trkpt>
      <trkpt lat="47.47183" lon="6.69742">
        <ele>330.2</ele>
        <time>2014-11-23T09:32:25.000Z</time>
      </trkpt>
      <trkpt lat="47.47181" lon="6.69745">
        <ele>330.6</ele>
        <time>2014-11-23T09:32:26.000Z</time>
      </trkpt>
      <trkpt lat="47.4718" lon="6.69748">
        <ele>330.9</ele>
        <time>2014-11-23T09:32:27.000Z</time>
      </trkpt>
      <trkpt lat="47.47179" lon="6.69752">
        <ele>331.1</ele>
        <time>2014-11-23T09:32:28.000Z</time>
      </trkpt>
      <trkpt lat="47.47173" lon="6.69772">
        <ele>327.7</ele>
        <time>2014-11-23T09:32:35.775Z</time>
      </trkpt>
      <trkpt lat="47.47172" lon="6.69778">
        <ele>327</ele>
        <time>2014-11-23T09:32:38.000Z</time>
      </trkpt>
      <trkpt lat="47.47171" lon="6.6978">
        <ele>327.7</ele>
        <time>2014-11-23T09:32:39.000Z</time>
      </trkpt>
      <trkpt lat="47.4717" lon="6.69785">
        <ele>328.7</ele>
        <time>2014-11-23T09:32:41.000Z</time>
      </trkpt>
      <trkpt lat="47.4717" lon="6.69787">
        <ele>330</ele>
        <time>2014-11-23T09:32:42.000Z</time>
      </trkpt>
      <trkpt lat="47.47171" lon="6.69793">
        <ele>330.1</ele>
        <time>2014-11-23T09:32:44.000Z</time>
      </trkpt>
      <trkpt lat="47.47171" lon="6.69796">
        <ele>332.1</ele>
        <time>2014-11-23T09:32:45.000Z</time>
      </trkpt>
      <trkpt lat="47.47172" lon="6.69801">
        <ele>333.2</ele>
        <time>2014-11-23T09:32:47.000Z</time>
      </trkpt>
      <trkpt lat="47.47172" lon="6.69804">
        <ele>333.4</ele>
        <time>2014-11-23T09:32:48.000Z</time>
      </trkpt>
      <trkpt lat="47.47172" lon="6.69809">
        <ele>333.9</ele>
        <time>2014-11-23T09:32:50.000Z</time>
      </trkpt>
      <trkpt lat="47.47171" lon="6.69811">
        <ele>334.2</ele>
        <time>2014-11-23T09:32:51.000Z</time>
      </trkpt>
      <trkpt lat="47.47171" lon="6.69817">
        <ele>335.1</ele>
        <time>2014-11-23T09:32:53.000Z</time>
      </trkpt>
      <trkpt lat="47.4717" lon="6.6982">
        <ele>338.2</ele>
        <time>2014-11-23T09:32:54.000Z</time>
      </trkpt>
      <trkpt lat="47.47169" lon="6.69826">
        <ele>339.4</ele>
        <time>2014-11-23T09:32:56.000Z</time>
      </trkpt>
      <trkpt lat="47.47169" lon="6.69829">
        <ele>340</ele>
        <time>2014-11-23T09:32:57.000Z</time>
      </trkpt>
      <trkpt lat="47.47167" lon="6.69836">
        <ele>340</ele>
        <time>2014-11-23T09:32:59.000Z</time>
      </trkpt>
      <trkpt lat="47.47167" lon="6.69838">
        <ele>341.6</ele>
        <time>2014-11-23T09:33:00.000Z</time>
      </trkpt>
      <trkpt lat="47.47166" lon="6.69842">
        <ele>341</ele>
        <time>2014-11-23T09:33:01.000Z</time>
      </trkpt>
      <trkpt lat="47.47166" lon="6.69846">
        <ele>341.6</ele>
        <time>2014-11-23T09:33:02.000Z</time>
      </trkpt>
      <trkpt lat="47.47165" lon="6.6985">
        <ele>342.8</ele>
        <time>2014-11-23T09:33:03.000Z</time>
      </trkpt>
      <trkpt lat="47.47164" lon="6.69854">
        <ele>343</ele>
        <time>2014-11-23T09:33:04.000Z</time>
      </trkpt>
      <trkpt lat="47.47164" lon="6.69858">
        <ele>341.7</ele>
        <time>2014-11-23T09:33:05.000Z</time>
      </trkpt>
      <trkpt lat="47.47164" lon="6.69861">
        <ele>340.9</ele>
        <time>2014-11-23T09:33:06.000Z</time>
      </trkpt>
      <trkpt lat="47.47165" lon="6.69867">
        <ele>340.7</ele>
        <time>2014-11-23T09:33:08.000Z</time>
      </trkpt>
      <trkpt lat="47.47165" lon="6.69869">
        <ele>341</ele>
        <time>2014-11-23T09:33:09.000Z</time>
      </trkpt>
      <trkpt lat="47.47166" lon="6.69875">
        <ele>341.8</ele>
        <time>2014-11-23T09:33:12.000Z</time>
      </trkpt>
      <trkpt lat="47.47166" lon="6.69877">
        <ele>341.9</ele>
        <time>2014-11-23T09:33:13.000Z</time>
      </trkpt>
      <trkpt lat="47.47167" lon="6.6988">
        <ele>345.4</ele>
        <time>2014-11-23T09:33:14.000Z</time>
      </trkpt>
      <trkpt lat="47.47168" lon="6.69884">
        <ele>345.4</ele>
        <time>2014-11-23T09:33:15.000Z</time>
      </trkpt>
      <trkpt lat="47.47169" lon="6.69888">
        <ele>347.2</ele>
        <time>2014-11-23T09:33:16.000Z</time>
      </trkpt>
      <trkpt lat="47.47171" lon="6.69893">
        <ele>347</ele>
        <time>2014-11-23T09:33:17.000Z</time>
      </trkpt>
      <trkpt lat="47.47172" lon="6.69898">
        <ele>347.5</ele>
        <time>2014-11-23T09:33:18.000Z</time>
      </trkpt>
      <trkpt lat="47.47173" lon="6.69902">
        <ele>348.4</ele>
        <time>2014-11-23T09:33:19.000Z</time>
      </trkpt>
      <trkpt lat="47.47173" lon="6.69905">
        <ele>348.2</ele>
        <time>2014-11-23T09:33:20.000Z</time>
      </trkpt>
      <trkpt lat="47.47174" lon="6.69909">
        <ele>349.2</ele>
        <time>2014-11-23T09:33:21.000Z</time>
      </trkpt>
      <trkpt lat="47.47174" lon="6.69913">
        <ele>349.1</ele>
        <time>2014-11-23T09:33:22.000Z</time>
      </trkpt>
      <trkpt lat="47.47174" lon="6.69917">
        <ele>349</ele>
        <time>2014-11-23T09:33:23.000Z</time>
      </trkpt>
      <trkpt lat="47.47174" lon="6.69921">
        <ele>350.2</ele>
        <time>2014-11-23T09:33:24.000Z</time>
      </trkpt>
      <trkpt lat="47.47175" lon="6.69924">
        <ele>349.7</ele>
        <time>2014-11-23T09:33:25.000Z</time>
      </trkpt>
      <trkpt lat="47.47175" lon="6.69927">
        <ele>349</ele>
        <time>2014-11-23T09:33:26.000Z</time>
      </trkpt>
      <trkpt lat="47.47176" lon="6.69931">
        <ele>347.1</ele>
        <time>2014-11-23T09:33:27.000Z</time>
      </trkpt>
      <trkpt lat="47.47177" lon="6.69935">
        <ele>345.7</ele>
        <time>2014-11-23T09:33:28.000Z</time>
      </trkpt>
      <trkpt lat="47.47176" lon="6.69965">
        <ele>347.8</ele>
        <time>2014-11-23T09:33:35.814Z</time>
      </trkpt>
      <trkpt lat="47.47176" lon="6.69969">
        <ele>348</ele>
        <time>2014-11-23T09:33:37.000Z</time>
      </trkpt>
      <trkpt lat="47.47176" lon="6.69973">
        <ele>348.1</ele>
        <time>2014-11-23T09:33:38.000Z</time>
      </trkpt>
      <trkpt lat="47.47176" lon="6.69977">
        <ele>347.2</ele>
        <time>2014-11-23T09:33:39.000Z</time>
      </trkpt>
      <trkpt lat="47.47177" lon="6.6998">
        <ele>346.8</ele>
        <time>2014-11-23T09:33:40.000Z</time>
      </trkpt>
      <trkpt lat="47.47179" lon="6.69983">
        <ele>345.7</ele>
        <time>2014-11-23T09:33:41.000Z</time>
      </trkpt>
      <trkpt lat="47.4718" lon="6.69987">
        <ele>347.2</ele>
        <time>2014-11-23T09:33:42.000Z</time>
      </trkpt>
      <trkpt lat="47.47181" lon="6.69991">
        <ele>347.6</ele>
        <time>2014-11-23T09:33:43.000Z</time>
      </trkpt>
      <trkpt lat="47.47183" lon="6.69995">
        <ele>347.6</ele>
        <time>2014-11-23T09:33:44.000Z</time>
      </trkpt>
      <trkpt lat="47.47184" lon="6.69999">
        <ele>347.9</ele>
        <time>2014-11-23T09:33:45.000Z</time>
      </trkpt>
      <trkpt lat="47.47185" lon="6.70003">
        <ele>346.8</ele>
        <time>2014-11-23T09:33:46.000Z</time>
      </trkpt>
      <trkpt lat="47.47186" lon="6.70007">
        <ele>347</ele>
        <time>2014-11-23T09:33:47.000Z</time>
      </trkpt>
      <trkpt lat="47.47187" lon="6.7001">
        <ele>349.5</ele>
        <time>2014-11-23T09:33:48.000Z</time>
      </trkpt>
      <trkpt lat="47.47188" lon="6.70016">
        <ele>350.1</ele>
        <time>2014-11-23T09:33:50.000Z</time>
      </trkpt>
      <trkpt lat="47.47188" lon="6.7002">
        <ele>349.3</ele>
        <time>2014-11-23T09:33:51.000Z</time>
      </trkpt>
      <trkpt lat="47.47188" lon="6.70024">
        <ele>349.4</ele>
        <time>2014-11-23T09:33:52.000Z</time>
      </trkpt>
      <trkpt lat="47.47188" lon="6.70028">
        <ele>349.4</ele>
        <time>2014-11-23T09:33:53.000Z</time>
      </trkpt>
      <trkpt lat="47.47188" lon="6.70034">
        <ele>348.9</ele>
        <time>2014-11-23T09:33:55.000Z</time>
      </trkpt>
      <trkpt lat="47.47188" lon="6.70037">
        <ele>348.8</ele>
        <time>2014-11-23T09:33:56.000Z</time>
      </trkpt>
      <trkpt lat="47.47188" lon="6.70041">
        <ele>348.2</ele>
        <time>2014-11-23T09:33:57.000Z</time>
      </trkpt>
      <trkpt lat="47.47187" lon="6.70044">
        <ele>350.1</ele>
        <time>2014-11-23T09:33:58.000Z</time>
      </trkpt>
      <trkpt lat="47.47187" lon="6.70048">
        <ele>349.8</ele>
        <time>2014-11-23T09:33:59.000Z</time>
      </trkpt>
      <trkpt lat="47.47187" lon="6.70052">
        <ele>350.2</ele>
        <time>2014-11-23T09:34:00.000Z</time>
      </trkpt>
      <trkpt lat="47.47187" lon="6.70057">
        <ele>353</ele>
        <time>2014-11-23T09:34:02.000Z</time>
      </trkpt>
      <trkpt lat="47.47187" lon="6.7006">
        <ele>353.8</ele>
        <time>2014-11-23T09:34:03.000Z</time>
      </trkpt>
      <trkpt lat="47.47186" lon="6.70065">
        <ele>356.5</ele>
        <time>2014-11-23T09:34:05.000Z</time>
      </trkpt>
      <trkpt lat="47.47186" lon="6.70067">
        <ele>357.8</ele>
        <time>2014-11-23T09:34:05.999Z</time>
      </trkpt>
      <trkpt lat="47.47185" lon="6.70073">
        <ele>356.2</ele>
        <time>2014-11-23T09:34:08.000Z</time>
      </trkpt>
      <trkpt lat="47.47185" lon="6.70076">
        <ele>356.2</ele>
        <time>2014-11-23T09:34:09.000Z</time>
      </trkpt>
      <trkpt lat="47.47185" lon="6.70079">
        <ele>357.3</ele>
        <time>2014-11-23T09:34:10.000Z</time>
      </trkpt>
      <trkpt lat="47.47185" lon="6.70083">
        <ele>357.4</ele>
        <time>2014-11-23T09:34:11.000Z</time>
      </trkpt>
      <trkpt lat="47.47185" lon="6.70088">
        <ele>356.9</ele>
        <time>2014-11-23T09:34:12.000Z</time>
      </trkpt>
      <trkpt lat="47.47185" lon="6.70093">
        <ele>356.6</ele>
        <time>2014-11-23T09:34:13.000Z</time>
      </trkpt>
      <trkpt lat="47.47186" lon="6.70098">
        <ele>356.8</ele>
        <time>2014-11-23T09:34:14.000Z</time>
      </trkpt>
      <trkpt lat="47.47186" lon="6.70104">
        <ele>357.1</ele>
        <time>2014-11-23T09:34:15.000Z</time>
      </trkpt>
      <trkpt lat="47.47187" lon="6.70109">
        <ele>357</ele>
        <time>2014-11-23T09:34:16.000Z</time>
      </trkpt>
      <trkpt lat="47.47188" lon="6.70114">
        <ele>356.8</ele>
        <time>2014-11-23T09:34:17.000Z</time>
      </trkpt>
      <trkpt lat="47.47189" lon="6.70118">
        <ele>357.5</ele>
        <time>2014-11-23T09:34:18.000Z</time>
      </trkpt>
      <trkpt lat="47.47189" lon="6.70123">
        <ele>357.4</ele>
        <time>2014-11-23T09:34:19.000Z</time>
      </trkpt>
      <trkpt lat="47.4719" lon="6.70127">
        <ele>356.6</ele>
        <time>2014-11-23T09:34:20.000Z</time>
      </trkpt>
      <trkpt lat="47.4719" lon="6.70131">
        <ele>356.9</ele>
        <time>2014-11-23T09:34:21.000Z</time>
      </trkpt>
      <trkpt lat="47.47191" lon="6.70135">
        <ele>359.3</ele>
        <time>2014-11-23T09:34:22.000Z</time>
      </trkpt>
      <trkpt lat="47.47192" lon="6.70138">
        <ele>360.2</ele>
        <time>2014-11-23T09:34:23.000Z</time>
      </trkpt>
      <trkpt lat="47.47193" lon="6.70142">
        <ele>360.5</ele>
        <time>2014-11-23T09:34:24.000Z</time>
      </trkpt>
      <trkpt lat="47.47195" lon="6.70145">
        <ele>361.5</ele>
        <time>2014-11-23T09:34:25.000Z</time>
      </trkpt>
      <trkpt lat="47.47195" lon="6.70148">
        <ele>361</ele>
        <time>2014-11-23T09:34:26.000Z</time>
      </trkpt>
      <trkpt lat="47.47196" lon="6.70152">
        <ele>360.9</ele>
        <time>2014-11-23T09:34:27.000Z</time>
      </trkpt>
      <trkpt lat="47.47196" lon="6.70155">
        <ele>359.9</ele>
        <time>2014-11-23T09:34:28.000Z</time>
      </trkpt>
      <trkpt lat="47.47192" lon="6.7017">
        <ele>359.2</ele>
        <time>2014-11-23T09:34:35.778Z</time>
      </trkpt>
      <trkpt lat="47.47188" lon="6.70171">
        <ele>339.6</ele>
        <time>2014-11-23T09:34:43.000Z</time>
      </trkpt>
      <trkpt lat="47.47187" lon="6.70169">
        <ele>339.5</ele>
        <time>2014-11-23T09:34:44.000Z</time>
      </trkpt>
      <trkpt lat="47.47189" lon="6.70172">
        <ele>338</ele>
        <time>2014-11-23T09:34:51.000Z</time>
      </trkpt>
      <trkpt lat="47.47191" lon="6.70173">
        <ele>337.8</ele>
        <time>2014-11-23T09:34:52.000Z</time>
      </trkpt>
      <trkpt lat="47.47189" lon="6.70169">
        <ele>337.4</ele>
        <time>2014-11-23T09:36:09.000Z</time>
      </trkpt>
      <trkpt lat="47.47187" lon="6.70166">
        <ele>336.7</ele>
        <time>2014-11-23T09:36:10.000Z</time>
      </trkpt>
      <trkpt lat="47.47185" lon="6.70161">
        <ele>335.3</ele>
        <time>2014-11-23T09:36:11.000Z</time>
      </trkpt>
      <trkpt lat="47.47183" lon="6.70157">
        <ele>334</ele>
        <time>2014-11-23T09:36:12.000Z</time>
      </trkpt>
      <trkpt lat="47.47182" lon="6.70153">
        <ele>334</ele>
        <time>2014-11-23T09:36:13.000Z</time>
      </trkpt>
      <trkpt lat="47.47179" lon="6.70149">
        <ele>335.9</ele>
        <time>2014-11-23T09:36:14.000Z</time>
      </trkpt>
      <trkpt lat="47.47177" lon="6.70146">
        <ele>336.5</ele>
        <time>2014-11-23T09:36:15.000Z</time>
      </trkpt>
      <trkpt lat="47.47174" lon="6.70143">
        <ele>337</ele>
        <time>2014-11-23T09:36:16.000Z</time>
      </trkpt>
      <trkpt lat="47.47172" lon="6.70139">
        <ele>336.3</ele>
        <time>2014-11-23T09:36:17.000Z</time>
      </trkpt>
      <trkpt lat="47.4717" lon="6.70136">
        <ele>336.4</ele>
        <time>2014-11-23T09:36:18.000Z</time>
      </trkpt>
      <trkpt lat="47.47169" lon="6.70132">
        <ele>337.2</ele>
        <time>2014-11-23T09:36:19.000Z</time>
      </trkpt>
      <trkpt lat="47.47167" lon="6.70129">
        <ele>336.5</ele>
        <time>2014-11-23T09:36:20.000Z</time>
      </trkpt>
      <trkpt lat="47.47165" lon="6.70127">
        <ele>336.9</ele>
        <time>2014-11-23T09:36:21.000Z</time>
      </trkpt>
      <trkpt lat="47.47164" lon="6.70124">
        <ele>337.6</ele>
        <time>2014-11-23T09:36:22.000Z</time>
      </trkpt>
      <trkpt lat="47.47161" lon="6.70122">
        <ele>337.1</ele>
        <time>2014-11-23T09:36:23.000Z</time>
      </trkpt>
      <trkpt lat="47.47159" lon="6.7012">
        <ele>337.3</ele>
        <time>2014-11-23T09:36:24.000Z</time>
      </trkpt>
      <trkpt lat="47.47157" lon="6.70118">
        <ele>339.7</ele>
        <time>2014-11-23T09:36:25.000Z</time>
      </trkpt>
      <trkpt lat="47.47155" lon="6.70116">
        <ele>339.6</ele>
        <time>2014-11-23T09:36:26.000Z</time>
      </trkpt>
      <trkpt lat="47.47153" lon="6.70114">
        <ele>341.1</ele>
        <time>2014-11-23T09:36:27.000Z</time>
      </trkpt>
      <trkpt lat="47.47151" lon="6.70112">
        <ele>342</ele>
        <time>2014-11-23T09:36:28.000Z</time>
      </trkpt>
      <trkpt lat="47.47132" lon="6.70085">
        <ele>341.5</ele>
        <time>2014-11-23T09:36:37.000Z</time>
      </trkpt>
      <trkpt lat="47.4713" lon="6.70082">
        <ele>339</ele>
        <time>2014-11-23T09:36:38.000Z</time>
      </trkpt>
      <trkpt lat="47.47127" lon="6.7008">
        <ele>338.9</ele>
        <time>2014-11-23T09:36:39.000Z</time>
      </trkpt>
      <trkpt lat="47.47124" lon="6.70076">
        <ele>337.1</ele>
        <time>2014-11-23T09:36:40.000Z</time>
      </trkpt>
      <trkpt lat="47.47121" lon="6.70073">
        <ele>337.1</ele>
        <time>2014-11-23T09:36:41.000Z</time>
      </trkpt>
      <trkpt lat="47.47119" lon="6.7007">
        <ele>335.8</ele>
        <time>2014-11-23T09:36:42.000Z</time>
      </trkpt>
      <trkpt lat="47.47116" lon="6.70066">
        <ele>335.2</ele>
        <time>2014-11-23T09:36:43.000Z</time>
      </trkpt>
      <trkpt lat="47.47113" lon="6.70064">
        <ele>335</ele>
        <time>2014-11-23T09:36:44.000Z</time>
      </trkpt>
      <trkpt lat="47.4711" lon="6.70061">
        <ele>334.5</ele>
        <time>2014-11-23T09:36:45.000Z</time>
      </trkpt>
      <trkpt lat="47.47107" lon="6.70059">
        <ele>337.3</ele>
        <time>2014-11-23T09:36:46.000Z</time>
      </trkpt>
      <trkpt lat="47.47104" lon="6.70056">
        <ele>338.8</ele>
        <time>2014-11-23T09:36:47.000Z</time>
      </trkpt>
      <trkpt lat="47.47101" lon="6.70052">
        <ele>339.2</ele>
        <time>2014-11-23T09:36:48.000Z</time>
      </trkpt>
      <trkpt lat="47.47098" lon="6.70049">
        <ele>340</ele>
        <time>2014-11-23T09:36:49.000Z</time>
      </trkpt>
      <trkpt lat="47.47096" lon="6.70045">
        <ele>339</ele>
        <time>2014-11-23T09:36:50.000Z</time>
      </trkpt>
      <trkpt lat="47.47093" lon="6.7004">
        <ele>339.3</ele>
        <time>2014-11-23T09:36:51.000Z</time>
      </trkpt>
      <trkpt lat="47.4709" lon="6.70036">
        <ele>341.7</ele>
        <time>2014-11-23T09:36:52.000Z</time>
      </trkpt>
      <trkpt lat="47.47087" lon="6.70031">
        <ele>343.1</ele>
        <time>2014-11-23T09:36:53.000Z</time>
      </trkpt>
      <trkpt lat="47.47084" lon="6.70026">
        <ele>343.9</ele>
        <time>2014-11-23T09:36:54.000Z</time>
      </trkpt>
      <trkpt lat="47.47081" lon="6.70021">
        <ele>344.4</ele>
        <time>2014-11-23T09:36:55.000Z</time>
      </trkpt>
      <trkpt lat="47.47075" lon="6.70011">
        <ele>345.6</ele>
        <time>2014-11-23T09:36:56.000Z</time>
      </trkpt>
      <trkpt lat="47.47072" lon="6.70006">
        <ele>345.6</ele>
        <time>2014-11-23T09:36:57.000Z</time>
      </trkpt>
      <trkpt lat="47.4707" lon="6.70001">
        <ele>345.4</ele>
        <time>2014-11-23T09:36:58.000Z</time>
      </trkpt>
      <trkpt lat="47.47067" lon="6.69995">
        <ele>344.4</ele>
        <time>2014-11-23T09:36:59.000Z</time>
      </trkpt>
      <trkpt lat="47.47066" lon="6.69989">
        <ele>344.1</ele>
        <time>2014-11-23T09:37:00.000Z</time>
      </trkpt>
      <trkpt lat="47.47064" lon="6.69985">
        <ele>344.1</ele>
        <time>2014-11-23T09:37:01.000Z</time>
      </trkpt>
      <trkpt lat="47.47062" lon="6.6998">
        <ele>343.9</ele>
        <time>2014-11-23T09:37:02.000Z</time>
      </trkpt>
      <trkpt lat="47.4706" lon="6.69976">
        <ele>344.3</ele>
        <time>2014-11-23T09:37:03.000Z</time>
      </trkpt>
      <trkpt lat="47.47058" lon="6.69971">
        <ele>344.4</ele>
        <time>2014-11-23T09:37:04.000Z</time>
      </trkpt>
      <trkpt lat="47.47055" lon="6.69968">
        <ele>343.5</ele>
        <time>2014-11-23T09:37:05.000Z</time>
      </trkpt>
      <trkpt lat="47.47052" lon="6.69964">
        <ele>342.1</ele>
        <time>2014-11-23T09:37:06.000Z</time>
      </trkpt>
      <trkpt lat="47.4705" lon="6.6996">
        <ele>341.8</ele>
        <time>2014-11-23T09:37:07.000Z</time>
      </trkpt>
      <trkpt lat="47.47048" lon="6.69957">
        <ele>340.9</ele>
        <time>2014-11-23T09:37:08.000Z</time>
      </trkpt>
      <trkpt lat="47.47046" lon="6.69954">
        <ele>340</ele>
        <time>2014-11-23T09:37:09.000Z</time>
      </trkpt>
      <trkpt lat="47.47044" lon="6.6995">
        <ele>340.3</ele>
        <time>2014-11-23T09:37:10.000Z</time>
      </trkpt>
      <trkpt lat="47.47042" lon="6.69947">
        <ele>341.6</ele>
        <time>2014-11-23T09:37:11.000Z</time>
      </trkpt>
      <trkpt lat="47.47038" lon="6.69943">
        <ele>341.4</ele>
        <time>2014-11-23T09:37:12.000Z</time>
      </trkpt>
      <trkpt lat="47.47035" lon="6.6994">
        <ele>341.7</ele>
        <time>2014-11-23T09:37:13.000Z</time>
      </trkpt>
      <trkpt lat="47.47032" lon="6.69936">
        <ele>342.4</ele>
        <time>2014-11-23T09:37:14.000Z</time>
      </trkpt>
      <trkpt lat="47.47029" lon="6.69933">
        <ele>342.9</ele>
        <time>2014-11-23T09:37:15.000Z</time>
      </trkpt>
      <trkpt lat="47.47026" lon="6.69929">
        <ele>343.5</ele>
        <time>2014-11-23T09:37:16.000Z</time>
      </trkpt>
      <trkpt lat="47.47023" lon="6.69924">
        <ele>341.9</ele>
        <time>2014-11-23T09:37:17.000Z</time>
      </trkpt>
      <trkpt lat="47.4702" lon="6.69919">
        <ele>342.2</ele>
        <time>2014-11-23T09:37:18.000Z</time>
      </trkpt>
      <trkpt lat="47.47018" lon="6.69915">
        <ele>342.6</ele>
        <time>2014-11-23T09:37:19.000Z</time>
      </trkpt>
      <trkpt lat="47.47015" lon="6.69912">
        <ele>342.5</ele>
        <time>2014-11-23T09:37:20.000Z</time>
      </trkpt>
      <trkpt lat="47.47013" lon="6.69909">
        <ele>342</ele>
        <time>2014-11-23T09:37:21.000Z</time>
      </trkpt>
      <trkpt lat="47.4701" lon="6.69906">
        <ele>342.1</ele>
        <time>2014-11-23T09:37:22.000Z</time>
      </trkpt>
      <trkpt lat="47.47007" lon="6.69903">
        <ele>342.9</ele>
        <time>2014-11-23T09:37:23.000Z</time>
      </trkpt>
      <trkpt lat="47.47004" lon="6.699">
        <ele>342.9</ele>
        <time>2014-11-23T09:37:24.000Z</time>
      </trkpt>
      <trkpt lat="47.47" lon="6.69896">
        <ele>343.8</ele>
        <time>2014-11-23T09:37:25.000Z</time>
      </trkpt>
      <trkpt lat="47.46996" lon="6.6989">
        <ele>341.5</ele>
        <time>2014-11-23T09:37:26.000Z</time>
      </trkpt>
      <trkpt lat="47.46992" lon="6.69884">
        <ele>340.1</ele>
        <time>2014-11-23T09:37:27.000Z</time>
      </trkpt>
      <trkpt lat="47.46987" lon="6.69878">
        <ele>338.4</ele>
        <time>2014-11-23T09:37:28.000Z</time>
      </trkpt>
      <trkpt lat="47.4698" lon="6.69866">
        <ele>333.6</ele>
        <time>2014-11-23T09:37:37.000Z</time>
      </trkpt>
      <trkpt lat="47.46976" lon="6.69858">
        <ele>331.8</ele>
        <time>2014-11-23T09:37:38.000Z</time>
      </trkpt>
      <trkpt lat="47.46972" lon="6.69852">
        <ele>330.6</ele>
        <time>2014-11-23T09:37:39.000Z</time>
      </trkpt>
      <trkpt lat="47.46968" lon="6.69847">
        <ele>329.9</ele>
        <time>2014-11-23T09:37:40.000Z</time>
      </trkpt>
      <trkpt lat="47.46963" lon="6.69842">
        <ele>329</ele>
        <time>2014-11-23T09:37:41.000Z</time>
      </trkpt>
      <trkpt lat="47.4694" lon="6.69831">
        <ele>324.1</ele>
        <time>2014-11-23T09:37:42.000Z</time>
      </trkpt>
      <trkpt lat="47.46931" lon="6.69829">
        <ele>322.5</ele>
        <time>2014-11-23T09:37:43.000Z</time>
      </trkpt>
      <trkpt lat="47.46924" lon="6.69828">
        <ele>320.9</ele>
        <time>2014-11-23T09:37:44.000Z</time>
      </trkpt>
      <trkpt lat="47.46902" lon="6.6983">
        <ele>318.2</ele>
        <time>2014-11-23T09:37:45.000Z</time>
      </trkpt>
      <trkpt lat="47.46894" lon="6.6983">
        <ele>317.4</ele>
        <time>2014-11-23T09:37:46.000Z</time>
      </trkpt>
      <trkpt lat="47.46887" lon="6.6983">
        <ele>315.5</ele>
        <time>2014-11-23T09:37:47.000Z</time>
      </trkpt>
      <trkpt lat="47.46881" lon="6.6983">
        <ele>314.7</ele>
        <time>2014-11-23T09:37:48.000Z</time>
      </trkpt>
      <trkpt lat="47.46875" lon="6.69831">
        <ele>314.5</ele>
        <time>2014-11-23T09:37:49.000Z</time>
      </trkpt>
      <trkpt lat="47.46868" lon="6.69831">
        <ele>313.8</ele>
        <time>2014-11-23T09:37:50.000Z</time>
      </trkpt>
      <trkpt lat="47.46852" lon="6.69833">
        <ele>310.8</ele>
        <time>2014-11-23T09:37:51.000Z</time>
      </trkpt>
      <trkpt lat="47.46844" lon="6.69836">
        <ele>308.1</ele>
        <time>2014-11-23T09:37:52.000Z</time>
      </trkpt>
      <trkpt lat="47.46837" lon="6.69837">
        <ele>307.2</ele>
        <time>2014-11-23T09:37:53.000Z</time>
      </trkpt>
      <trkpt lat="47.46832" lon="6.69839">
        <ele>307.3</ele>
        <time>2014-11-23T09:37:54.000Z</time>
      </trkpt>
      <trkpt lat="47.46826" lon="6.69841">
        <ele>307.3</ele>
        <time>2014-11-23T09:37:55.000Z</time>
      </trkpt>
      <trkpt lat="47.46821" lon="6.69842">
        <ele>306.3</ele>
        <time>2014-11-23T09:37:56.000Z</time>
      </trkpt>
      <trkpt lat="47.46815" lon="6.69845">
        <ele>305.6</ele>
        <time>2014-11-23T09:37:57.000Z</time>
      </trkpt>
      <trkpt lat="47.46806" lon="6.69846">
        <ele>308</ele>
        <time>2014-11-23T09:37:58.000Z</time>
      </trkpt>
      <trkpt lat="47.46801" lon="6.69847">
        <ele>307.9</ele>
        <time>2014-11-23T09:37:59.000Z</time>
      </trkpt>
      <trkpt lat="47.46796" lon="6.69847">
        <ele>309</ele>
        <time>2014-11-23T09:38:00.000Z</time>
      </trkpt>
      <trkpt lat="47.4679" lon="6.69848">
        <ele>310.2</ele>
        <time>2014-11-23T09:38:01.000Z</time>
      </trkpt>
      <trkpt lat="47.46785" lon="6.69848">
        <ele>310.4</ele>
        <time>2014-11-23T09:38:02.000Z</time>
      </trkpt>
      <trkpt lat="47.46779" lon="6.69849">
        <ele>310.8</ele>
        <time>2014-11-23T09:38:03.000Z</time>
      </trkpt>
      <trkpt lat="47.46774" lon="6.69852">
        <ele>311.3</ele>
        <time>2014-11-23T09:38:04.000Z</time>
      </trkpt>
      <trkpt lat="47.46769" lon="6.69856">
        <ele>311.6</ele>
        <time>2014-11-23T09:38:05.000Z</time>
      </trkpt>
      <trkpt lat="47.46768" lon="6.69861">
        <ele>309</ele>
        <time>2014-11-23T09:38:06.000Z</time>
      </trkpt>
      <trkpt lat="47.46765" lon="6.69862">
        <ele>309.4</ele>
        <time>2014-11-23T09:38:07.000Z</time>
      </trkpt>
      <trkpt lat="47.46761" lon="6.69862">
        <ele>309.1</ele>
        <time>2014-11-23T09:38:08.000Z</time>
      </trkpt>
      <trkpt lat="47.46758" lon="6.69861">
        <ele>308.1</ele>
        <time>2014-11-23T09:38:09.000Z</time>
      </trkpt>
      <trkpt lat="47.46754" lon="6.69858">
        <ele>305.9</ele>
        <time>2014-11-23T09:38:11.000Z</time>
      </trkpt>
      <trkpt lat="47.46751" lon="6.69854">
        <ele>306</ele>
        <time>2014-11-23T09:38:12.000Z</time>
      </trkpt>
      <trkpt lat="47.46749" lon="6.69848">
        <ele>306.3</ele>
        <time>2014-11-23T09:38:13.000Z</time>
      </trkpt>
      <trkpt lat="47.46747" lon="6.69844">
        <ele>305.8</ele>
        <time>2014-11-23T09:38:14.000Z</time>
      </trkpt>
      <trkpt lat="47.46745" lon="6.69839">
        <ele>305.2</ele>
        <time>2014-11-23T09:38:15.000Z</time>
      </trkpt>
      <trkpt lat="47.46742" lon="6.69834">
        <ele>306.9</ele>
        <time>2014-11-23T09:38:16.000Z</time>
      </trkpt>
      <trkpt lat="47.4674" lon="6.69829">
        <ele>308.2</ele>
        <time>2014-11-23T09:38:17.000Z</time>
      </trkpt>
      <trkpt lat="47.46737" lon="6.69824">
        <ele>307.8</ele>
        <time>2014-11-23T09:38:18.000Z</time>
      </trkpt>
      <trkpt lat="47.46735" lon="6.6982">
        <ele>306.9</ele>
        <time>2014-11-23T09:38:19.000Z</time>
      </trkpt>
      <trkpt lat="47.46733" lon="6.69814">
        <ele>306.7</ele>
        <time>2014-11-23T09:38:20.000Z</time>
      </trkpt>
      <trkpt lat="47.46731" lon="6.69809">
        <ele>306.6</ele>
        <time>2014-11-23T09:38:21.000Z</time>
      </trkpt>
      <trkpt lat="47.46728" lon="6.69804">
        <ele>307.5</ele>
        <time>2014-11-23T09:38:22.000Z</time>
      </trkpt>
      <trkpt lat="47.46726" lon="6.69799">
        <ele>307.5</ele>
        <time>2014-11-23T09:38:23.000Z</time>
      </trkpt>
      <trkpt lat="47.46723" lon="6.69793">
        <ele>307.1</ele>
        <time>2014-11-23T09:38:24.000Z</time>
      </trkpt>
      <trkpt lat="47.46721" lon="6.69788">
        <ele>306.3</ele>
        <time>2014-11-23T09:38:25.000Z</time>
      </trkpt>
      <trkpt lat="47.46718" lon="6.69782">
        <ele>306.4</ele>
        <time>2014-11-23T09:38:26.000Z</time>
      </trkpt>
      <trkpt lat="47.46716" lon="6.69777">
        <ele>306.7</ele>
        <time>2014-11-23T09:38:27.000Z</time>
      </trkpt>
      <trkpt lat="47.46713" lon="6.69771">
        <ele>306.1</ele>
        <time>2014-11-23T09:38:28.000Z</time>
      </trkpt>
      <trkpt lat="47.46706" lon="6.69757">
        <ele>307.9</ele>
        <time>2014-11-23T09:38:31.000Z</time>
      </trkpt>
      <trkpt lat="47.46704" lon="6.69753">
        <ele>308.4</ele>
        <time>2014-11-23T09:38:32.000Z</time>
      </trkpt>
      <trkpt lat="47.46702" lon="6.69748">
        <ele>308.6</ele>
        <time>2014-11-23T09:38:33.000Z</time>
      </trkpt>
      <trkpt lat="47.467" lon="6.69744">
        <ele>308.3</ele>
        <time>2014-11-23T09:38:34.000Z</time>
      </trkpt>
      <trkpt lat="47.46698" lon="6.6974">
        <ele>305.1</ele>
        <time>2014-11-23T09:38:35.000Z</time>
      </trkpt>
      <trkpt lat="47.46694" lon="6.69739">
        <ele>304.7</ele>
        <time>2014-11-23T09:38:36.000Z</time>
      </trkpt>
      <trkpt lat="47.46691" lon="6.69737">
        <ele>303.8</ele>
        <time>2014-11-23T09:38:37.000Z</time>
      </trkpt>
      <trkpt lat="47.46685" lon="6.69738">
        <ele>304</ele>
        <time>2014-11-23T09:38:38.000Z</time>
      </trkpt>
      <trkpt lat="47.4668" lon="6.69737">
        <ele>303.8</ele>
        <time>2014-11-23T09:38:38.999Z</time>
      </trkpt>
      <trkpt lat="47.46678" lon="6.69737">
        <ele>304.1</ele>
        <time>2014-11-23T09:38:40.000Z</time>
      </trkpt>
      <trkpt lat="47.4667" lon="6.6974">
        <ele>303.8</ele>
        <time>2014-11-23T09:38:41.000Z</time>
      </trkpt>
      <trkpt lat="47.46665" lon="6.69742">
        <ele>303.3</ele>
        <time>2014-11-23T09:38:42.000Z</time>
      </trkpt>
      <trkpt lat="47.4666" lon="6.69743">
        <ele>302.9</ele>
        <time>2014-11-23T09:38:43.000Z</time>
      </trkpt>
      <trkpt lat="47.46656" lon="6.69746">
        <ele>303.3</ele>
        <time>2014-11-23T09:38:44.000Z</time>
      </trkpt>
      <trkpt lat="47.46652" lon="6.69748">
        <ele>304</ele>
        <time>2014-11-23T09:38:45.000Z</time>
      </trkpt>
      <trkpt lat="47.46647" lon="6.6975">
        <ele>304.2</ele>
        <time>2014-11-23T09:38:46.000Z</time>
      </trkpt>
      <trkpt lat="47.46645" lon="6.69749">
        <ele>304.9</ele>
        <time>2014-11-23T09:38:47.000Z</time>
      </trkpt>
      <trkpt lat="47.46642" lon="6.69745">
        <ele>303.4</ele>
        <time>2014-11-23T09:39:08.000Z</time>
      </trkpt>
      <trkpt lat="47.46641" lon="6.69745">
        <ele>303.5</ele>
        <time>2014-11-23T09:39:09.000Z</time>
      </trkpt>
      <trkpt lat="47.46637" lon="6.69743">
        <ele>304.1</ele>
        <time>2014-11-23T09:39:11.000Z</time>
      </trkpt>
      <trkpt lat="47.46635" lon="6.69742">
        <ele>304.9</ele>
        <time>2014-11-23T09:39:12.000Z</time>
      </trkpt>
      <trkpt lat="47.46632" lon="6.69742">
        <ele>305.2</ele>
        <time>2014-11-23T09:39:13.000Z</time>
      </trkpt>
      <trkpt lat="47.46629" lon="6.69741">
        <ele>305.6</ele>
        <time>2014-11-23T09:39:14.000Z</time>
      </trkpt>
      <trkpt lat="47.46625" lon="6.6974">
        <ele>305.8</ele>
        <time>2014-11-23T09:39:15.000Z</time>
      </trkpt>
      <trkpt lat="47.46622" lon="6.6974">
        <ele>304.8</ele>
        <time>2014-11-23T09:39:16.000Z</time>
      </trkpt>
      <trkpt lat="47.46618" lon="6.69741">
        <ele>302.3</ele>
        <time>2014-11-23T09:39:17.000Z</time>
      </trkpt>
      <trkpt lat="47.46614" lon="6.69741">
        <ele>303.1</ele>
        <time>2014-11-23T09:39:18.000Z</time>
      </trkpt>
      <trkpt lat="47.4661" lon="6.69742">
        <ele>303</ele>
        <time>2014-11-23T09:39:19.000Z</time>
      </trkpt>
      <trkpt lat="47.46606" lon="6.69742">
        <ele>302.9</ele>
        <time>2014-11-23T09:39:20.000Z</time>
      </trkpt>
      <trkpt lat="47.46602" lon="6.69741">
        <ele>303.3</ele>
        <time>2014-11-23T09:39:21.000Z</time>
      </trkpt>
      <trkpt lat="47.46599" lon="6.6974">
        <ele>304.4</ele>
        <time>2014-11-23T09:39:22.000Z</time>
      </trkpt>
      <trkpt lat="47.46595" lon="6.69739">
        <ele>304.8</ele>
        <time>2014-11-23T09:39:23.000Z</time>
      </trkpt>
      <trkpt lat="47.46592" lon="6.69738">
        <ele>305.1</ele>
        <time>2014-11-23T09:39:24.000Z</time>
      </trkpt>
      <trkpt lat="47.46588" lon="6.69737">
        <ele>306.1</ele>
        <time>2014-11-23T09:39:26.000Z</time>
      </trkpt>
      <trkpt lat="47.46587" lon="6.69737">
        <ele>306.1</ele>
        <time>2014-11-23T09:39:27.000Z</time>
      </trkpt>
      <trkpt lat="47.46584" lon="6.69741">
        <ele>308.7</ele>
        <time>2014-11-23T09:39:41.998Z</time>
      </trkpt>
      <trkpt lat="47.46583" lon="6.69743">
        <ele>308.1</ele>
        <time>2014-11-23T09:39:43.000Z</time>
      </trkpt>
      <trkpt lat="47.46582" lon="6.69749">
        <ele>303</ele>
        <time>2014-11-23T09:40:13.001Z</time>
      </trkpt>
      <trkpt lat="47.4658" lon="6.69749">
        <ele>303.2</ele>
        <time>2014-11-23T09:40:14.000Z</time>
      </trkpt>
      <trkpt lat="47.46577" lon="6.69753">
        <ele>303.6</ele>
        <time>2014-11-23T09:40:17.000Z</time>
      </trkpt>
      <trkpt lat="47.46575" lon="6.69756">
        <ele>301.8</ele>
        <time>2014-11-23T09:40:18.000Z</time>
      </trkpt>
      <trkpt lat="47.46573" lon="6.6976">
        <ele>304.1</ele>
        <time>2014-11-23T09:40:20.000Z</time>
      </trkpt>
      <trkpt lat="47.46571" lon="6.69762">
        <ele>305</ele>
        <time>2014-11-23T09:40:21.000Z</time>
      </trkpt>
      <trkpt lat="47.46569" lon="6.69764">
        <ele>305.5</ele>
        <time>2014-11-23T09:40:22.000Z</time>
      </trkpt>
      <trkpt lat="47.46566" lon="6.69765">
        <ele>306.1</ele>
        <time>2014-11-23T09:40:23.000Z</time>
      </trkpt>
      <trkpt lat="47.46563" lon="6.69767">
        <ele>306.7</ele>
        <time>2014-11-23T09:40:24.000Z</time>
      </trkpt>
      <trkpt lat="47.46561" lon="6.69769">
        <ele>306.9</ele>
        <time>2014-11-23T09:40:25.000Z</time>
      </trkpt>
      <trkpt lat="47.46559" lon="6.69771">
        <ele>307.4</ele>
        <time>2014-11-23T09:40:26.000Z</time>
      </trkpt>
      <trkpt lat="47.46556" lon="6.69774">
        <ele>306.4</ele>
        <time>2014-11-23T09:40:27.000Z</time>
      </trkpt>
      <trkpt lat="47.46554" lon="6.69776">
        <ele>307.3</ele>
        <time>2014-11-23T09:40:28.000Z</time>
      </trkpt>
      <trkpt lat="47.46536" lon="6.69783">
        <ele>317.1</ele>
        <time>2014-11-23T09:40:35.815Z</time>
      </trkpt>
      <trkpt lat="47.46533" lon="6.69786">
        <ele>317</ele>
        <time>2014-11-23T09:40:37.000Z</time>
      </trkpt>
      <trkpt lat="47.4653" lon="6.69788">
        <ele>317.8</ele>
        <time>2014-11-23T09:40:38.000Z</time>
      </trkpt>
      <trkpt lat="47.46528" lon="6.69791">
        <ele>318.2</ele>
        <time>2014-11-23T09:40:39.000Z</time>
      </trkpt>
      <trkpt lat="47.46524" lon="6.69792">
        <ele>320</ele>
        <time>2014-11-23T09:40:40.000Z</time>
      </trkpt>
      <trkpt lat="47.46522" lon="6.69794">
        <ele>321.8</ele>
        <time>2014-11-23T09:40:41.000Z</time>
      </trkpt>
      <trkpt lat="47.46519" lon="6.69795">
        <ele>322.9</ele>
        <time>2014-11-23T09:40:41.998Z</time>
      </trkpt>
      <trkpt lat="47.46517" lon="6.69797">
        <ele>322</ele>
        <time>2014-11-23T09:40:43.000Z</time>
      </trkpt>
      <trkpt lat="47.46514" lon="6.69799">
        <ele>322</ele>
        <time>2014-11-23T09:40:44.000Z</time>
      </trkpt>
      <trkpt lat="47.46512" lon="6.69801">
        <ele>321.8</ele>
        <time>2014-11-23T09:40:45.001Z</time>
      </trkpt>
      <trkpt lat="47.46509" lon="6.69803">
        <ele>322.8</ele>
        <time>2014-11-23T09:40:46.000Z</time>
      </trkpt>
      <trkpt lat="47.46507" lon="6.69805">
        <ele>323.5</ele>
        <time>2014-11-23T09:40:47.000Z</time>
      </trkpt>
      <trkpt lat="47.46504" lon="6.69807">
        <ele>325.1</ele>
        <time>2014-11-23T09:40:48.000Z</time>
      </trkpt>
      <trkpt lat="47.465" lon="6.69806">
        <ele>329.4</ele>
        <time>2014-11-23T09:40:49.000Z</time>
      </trkpt>
      <trkpt lat="47.46497" lon="6.69808">
        <ele>330.7</ele>
        <time>2014-11-23T09:40:50.000Z</time>
      </trkpt>
      <trkpt lat="47.46494" lon="6.6981">
        <ele>331.8</ele>
        <time>2014-11-23T09:40:51.000Z</time>
      </trkpt>
      <trkpt lat="47.4649" lon="6.69812">
        <ele>332.8</ele>
        <time>2014-11-23T09:40:52.000Z</time>
      </trkpt>
      <trkpt lat="47.46486" lon="6.69813">
        <ele>334.1</ele>
        <time>2014-11-23T09:40:53.000Z</time>
      </trkpt>
      <trkpt lat="47.46483" lon="6.69814">
        <ele>337</ele>
        <time>2014-11-23T09:40:54.000Z</time>
      </trkpt>
      <trkpt lat="47.4648" lon="6.69816">
        <ele>339.7</ele>
        <time>2014-11-23T09:40:55.000Z</time>
      </trkpt>
      <trkpt lat="47.46477" lon="6.69819">
        <ele>342.1</ele>
        <time>2014-11-23T09:40:56.000Z</time>
      </trkpt>
      <trkpt lat="47.46474" lon="6.69821">
        <ele>345.3</ele>
        <time>2014-11-23T09:40:56.999Z</time>
      </trkpt>
      <trkpt lat="47.46471" lon="6.69824">
        <ele>344.4</ele>
        <time>2014-11-23T09:40:58.002Z</time>
      </trkpt>
      <trkpt lat="47.4647" lon="6.69828">
        <ele>342.7</ele>
        <time>2014-11-23T09:40:59.000Z</time>
      </trkpt>
      <trkpt lat="47.46468" lon="6.6983">
        <ele>342.9</ele>
        <time>2014-11-23T09:41:00.000Z</time>
      </trkpt>
      <trkpt lat="47.46467" lon="6.69835">
        <ele>339.1</ele>
        <time>2014-11-23T09:41:04.000Z</time>
      </trkpt>
      <trkpt lat="47.46472" lon="6.69844">
        <ele>329.6</ele>
        <time>2014-11-23T09:41:05.000Z</time>
      </trkpt>
      <trkpt lat="47.46471" lon="6.6985">
        <ele>321.1</ele>
        <time>2014-11-23T09:41:20.000Z</time>
      </trkpt>
      <trkpt lat="47.46471" lon="6.69851">
        <ele>320.5</ele>
        <time>2014-11-23T09:41:21.000Z</time>
      </trkpt>
      <trkpt lat="47.46467" lon="6.69853">
        <ele>320</ele>
        <time>2014-11-23T09:41:24.000Z</time>
      </trkpt>
      <trkpt lat="47.46465" lon="6.69854">
        <ele>319.6</ele>
        <time>2014-11-23T09:41:25.000Z</time>
      </trkpt>
      <trkpt lat="47.46462" lon="6.69857">
        <ele>317.8</ele>
        <time>2014-11-23T09:41:26.000Z</time>
      </trkpt>
      <trkpt lat="47.4646" lon="6.69858">
        <ele>317.7</ele>
        <time>2014-11-23T09:41:26.999Z</time>
      </trkpt>
      <trkpt lat="47.46457" lon="6.69858">
        <ele>317.9</ele>
        <time>2014-11-23T09:41:28.000Z</time>
      </trkpt>
      <trkpt lat="47.46449" lon="6.69853">
        <ele>313.1</ele>
        <time>2014-11-23T09:41:37.000Z</time>
      </trkpt>
      <trkpt lat="47.46445" lon="6.69852">
        <ele>309.4</ele>
        <time>2014-11-23T09:41:45.000Z</time>
      </trkpt>
      <trkpt lat="47.46445" lon="6.6985">
        <ele>311.3</ele>
        <time>2014-11-23T09:41:46.000Z</time>
      </trkpt>
      <trkpt lat="47.46446" lon="6.69844">
        <ele>312.1</ele>
        <time>2014-11-23T09:41:48.000Z</time>
      </trkpt>
      <trkpt lat="47.46445" lon="6.69841">
        <ele>312</ele>
        <time>2014-11-23T09:41:49.000Z</time>
      </trkpt>
      <trkpt lat="47.46443" lon="6.69836">
        <ele>311.4</ele>
        <time>2014-11-23T09:41:51.000Z</time>
      </trkpt>
      <trkpt lat="47.46441" lon="6.69835">
        <ele>311.1</ele>
        <time>2014-11-23T09:41:52.000Z</time>
      </trkpt>
      <trkpt lat="47.46437" lon="6.69834">
        <ele>311.1</ele>
        <time>2014-11-23T09:41:54.000Z</time>
      </trkpt>
      <trkpt lat="47.46435" lon="6.69834">
        <ele>311.4</ele>
        <time>2014-11-23T09:41:55.000Z</time>
      </trkpt>
      <trkpt lat="47.46432" lon="6.69834">
        <ele>312.9</ele>
        <time>2014-11-23T09:41:57.000Z</time>
      </trkpt>
      <trkpt lat="47.4643" lon="6.69833">
        <ele>312.5</ele>
        <time>2014-11-23T09:41:58.000Z</time>
      </trkpt>
      <trkpt lat="47.46428" lon="6.69831">
        <ele>313</ele>
        <time>2014-11-23T09:41:59.000Z</time>
      </trkpt>
      <trkpt lat="47.46425" lon="6.69829">
        <ele>313.1</ele>
        <time>2014-11-23T09:42:00.000Z</time>
      </trkpt>
      <trkpt lat="47.46423" lon="6.69827">
        <ele>313.6</ele>
        <time>2014-11-23T09:42:01.000Z</time>
      </trkpt>
      <trkpt lat="47.4642" lon="6.69825">
        <ele>311.8</ele>
        <time>2014-11-23T09:42:02.000Z</time>
      </trkpt>
      <trkpt lat="47.46416" lon="6.69823">
        <ele>311.6</ele>
        <time>2014-11-23T09:42:03.000Z</time>
      </trkpt>
      <trkpt lat="47.46413" lon="6.69821">
        <ele>311.3</ele>
        <time>2014-11-23T09:42:04.000Z</time>
      </trkpt>
      <trkpt lat="47.4641" lon="6.69819">
        <ele>311.1</ele>
        <time>2014-11-23T09:42:05.000Z</time>
      </trkpt>
      <trkpt lat="47.46406" lon="6.69817">
        <ele>309.6</ele>
        <time>2014-11-23T09:42:06.000Z</time>
      </trkpt>
      <trkpt lat="47.46403" lon="6.69815">
        <ele>310.6</ele>
        <time>2014-11-23T09:42:07.000Z</time>
      </trkpt>
      <trkpt lat="47.464" lon="6.69813">
        <ele>310.3</ele>
        <time>2014-11-23T09:42:08.000Z</time>
      </trkpt>
      <trkpt lat="47.46397" lon="6.69811">
        <ele>311.6</ele>
        <time>2014-11-23T09:42:09.000Z</time>
      </trkpt>
      <trkpt lat="47.46395" lon="6.69808">
        <ele>312.6</ele>
        <time>2014-11-23T09:42:10.000Z</time>
      </trkpt>
      <trkpt lat="47.46392" lon="6.69806">
        <ele>311.9</ele>
        <time>2014-11-23T09:42:11.000Z</time>
      </trkpt>
      <trkpt lat="47.46389" lon="6.69804">
        <ele>311.1</ele>
        <time>2014-11-23T09:42:12.000Z</time>
      </trkpt>
      <trkpt lat="47.46386" lon="6.69801">
        <ele>311.6</ele>
        <time>2014-11-23T09:42:13.000Z</time>
      </trkpt>
      <trkpt lat="47.46381" lon="6.69796">
        <ele>313.2</ele>
        <time>2014-11-23T09:42:14.000Z</time>
      </trkpt>
      <trkpt lat="47.46376" lon="6.69791">
        <ele>315.6</ele>
        <time>2014-11-23T09:42:15.000Z</time>
      </trkpt>
      <trkpt lat="47.46373" lon="6.69787">
        <ele>315.5</ele>
        <time>2014-11-23T09:42:16.000Z</time>
      </trkpt>
      <trkpt lat="47.4637" lon="6.69785">
        <ele>315.1</ele>
        <time>2014-11-23T09:42:17.000Z</time>
      </trkpt>
      <trkpt lat="47.46367" lon="6.69783">
        <ele>315.1</ele>
        <time>2014-11-23T09:42:18.000Z</time>
      </trkpt>
      <trkpt lat="47.46363" lon="6.69781">
        <ele>315.4</ele>
        <time>2014-11-23T09:42:19.000Z</time>
      </trkpt>
      <trkpt lat="47.4636" lon="6.69778">
        <ele>315.4</ele>
        <time>2014-11-23T09:42:20.000Z</time>
      </trkpt>
      <trkpt lat="47.46358" lon="6.69774">
        <ele>316</ele>
        <time>2014-11-23T09:42:21.000Z</time>
      </trkpt>
      <trkpt lat="47.46355" lon="6.69771">
        <ele>316.5</ele>
        <time>2014-11-23T09:42:22.000Z</time>
      </trkpt>
      <trkpt lat="47.46352" lon="6.69768">
        <ele>316.9</ele>
        <time>2014-11-23T09:42:23.000Z</time>
      </trkpt>
      <trkpt lat="47.46348" lon="6.69764">
        <ele>316.7</ele>
        <time>2014-11-23T09:42:24.000Z</time>
      </trkpt>
      <trkpt lat="47.46345" lon="6.6976">
        <ele>316.9</ele>
        <time>2014-11-23T09:42:25.000Z</time>
      </trkpt>
      <trkpt lat="47.46341" lon="6.69758">
        <ele>314.1</ele>
        <time>2014-11-23T09:42:26.000Z</time>
      </trkpt>
      <trkpt lat="47.46338" lon="6.69755">
        <ele>313.3</ele>
        <time>2014-11-23T09:42:27.000Z</time>
      </trkpt>
      <trkpt lat="47.46334" lon="6.69752">
        <ele>312.9</ele>
        <time>2014-11-23T09:42:28.000Z</time>
      </trkpt>
      <trkpt lat="47.46327" lon="6.69745">
        <ele>311.8</ele>
        <time>2014-11-23T09:42:29.934Z</time>
      </trkpt>
      <trkpt lat="47.46324" lon="6.69741">
        <ele>310.8</ele>
        <time>2014-11-23T09:42:31.000Z</time>
      </trkpt>
      <trkpt lat="47.4632" lon="6.69737">
        <ele>310.4</ele>
        <time>2014-11-23T09:42:32.000Z</time>
      </trkpt>
      <trkpt lat="47.46317" lon="6.69733">
        <ele>309.3</ele>
        <time>2014-11-23T09:42:33.000Z</time>
      </trkpt>
      <trkpt lat="47.46313" lon="6.6973">
        <ele>308.2</ele>
        <time>2014-11-23T09:42:34.000Z</time>
      </trkpt>
      <trkpt lat="47.46309" lon="6.69725">
        <ele>305.5</ele>
        <time>2014-11-23T09:42:35.000Z</time>
      </trkpt>
      <trkpt lat="47.46306" lon="6.69721">
        <ele>306.2</ele>
        <time>2014-11-23T09:42:36.000Z</time>
      </trkpt>
      <trkpt lat="47.46304" lon="6.69718">
        <ele>305.8</ele>
        <time>2014-11-23T09:42:37.000Z</time>
      </trkpt>
      <trkpt lat="47.46301" lon="6.69714">
        <ele>306.4</ele>
        <time>2014-11-23T09:42:38.000Z</time>
      </trkpt>
      <trkpt lat="47.46298" lon="6.6971">
        <ele>306.8</ele>
        <time>2014-11-23T09:42:39.000Z</time>
      </trkpt>
      <trkpt lat="47.46295" lon="6.69706">
        <ele>306.4</ele>
        <time>2014-11-23T09:42:40.000Z</time>
      </trkpt>
      <trkpt lat="47.46292" lon="6.69702">
        <ele>305.6</ele>
        <time>2014-11-23T09:42:41.000Z</time>
      </trkpt>
      <trkpt lat="47.46289" lon="6.69697">
        <ele>305.9</ele>
        <time>2014-11-23T09:42:42.000Z</time>
      </trkpt>
      <trkpt lat="47.46286" lon="6.69693">
        <ele>305.4</ele>
        <time>2014-11-23T09:42:43.000Z</time>
      </trkpt>
      <trkpt lat="47.46283" lon="6.6969">
        <ele>306.4</ele>
        <time>2014-11-23T09:42:44.000Z</time>
      </trkpt>
      <trkpt lat="47.4628" lon="6.69686">
        <ele>306.8</ele>
        <time>2014-11-23T09:42:45.000Z</time>
      </trkpt>
      <trkpt lat="47.46278" lon="6.69681">
        <ele>307.2</ele>
        <time>2014-11-23T09:42:46.000Z</time>
      </trkpt>
      <trkpt lat="47.46275" lon="6.69675">
        <ele>304.4</ele>
        <time>2014-11-23T09:42:47.000Z</time>
      </trkpt>
      <trkpt lat="47.46272" lon="6.69671">
        <ele>304.7</ele>
        <time>2014-11-23T09:42:48.000Z</time>
      </trkpt>
      <trkpt lat="47.4627" lon="6.69666">
        <ele>303.8</ele>
        <time>2014-11-23T09:42:49.000Z</time>
      </trkpt>
      <trkpt lat="47.46268" lon="6.69662">
        <ele>303.7</ele>
        <time>2014-11-23T09:42:50.000Z</time>
      </trkpt>
      <trkpt lat="47.46266" lon="6.69658">
        <ele>305.3</ele>
        <time>2014-11-23T09:42:51.000Z</time>
      </trkpt>
      <trkpt lat="47.46263" lon="6.69654">
        <ele>305</ele>
        <time>2014-11-23T09:42:53.000Z</time>
      </trkpt>
      <trkpt lat="47.46261" lon="6.69652">
        <ele>304.5</ele>
        <time>2014-11-23T09:42:54.000Z</time>
      </trkpt>
      <trkpt lat="47.46258" lon="6.69647">
        <ele>304.6</ele>
        <time>2014-11-23T09:42:56.000Z</time>
      </trkpt>
      <trkpt lat="47.46257" lon="6.69646">
        <ele>303.7</ele>
        <time>2014-11-23T09:42:57.000Z</time>
      </trkpt>
      <trkpt lat="47.46254" lon="6.69643">
        <ele>303.7</ele>
        <time>2014-11-23T09:42:59.000Z</time>
      </trkpt>
      <trkpt lat="47.46253" lon="6.69641">
        <ele>304</ele>
        <time>2014-11-23T09:43:00.000Z</time>
      </trkpt>
      <trkpt lat="47.46251" lon="6.69638">
        <ele>303.7</ele>
        <time>2014-11-23T09:43:02.000Z</time>
      </trkpt>
      <trkpt lat="47.4625" lon="6.69636">
        <ele>303.9</ele>
        <time>2014-11-23T09:43:03.000Z</time>
      </trkpt>
      <trkpt lat="47.46246" lon="6.69632">
        <ele>303.9</ele>
        <time>2014-11-23T09:43:05.000Z</time>
      </trkpt>
      <trkpt lat="47.46245" lon="6.69629">
        <ele>304.3</ele>
        <time>2014-11-23T09:43:06.000Z</time>
      </trkpt>
      <trkpt lat="47.46242" lon="6.69626">
        <ele>304.4</ele>
        <time>2014-11-23T09:43:07.000Z</time>
      </trkpt>
      <trkpt lat="47.4624" lon="6.69622">
        <ele>306.6</ele>
        <time>2014-11-23T09:43:08.000Z</time>
      </trkpt>
      <trkpt lat="47.46237" lon="6.69618">
        <ele>307.9</ele>
        <time>2014-11-23T09:43:09.000Z</time>
      </trkpt>
      <trkpt lat="47.46233" lon="6.69614">
        <ele>307.6</ele>
        <time>2014-11-23T09:43:10.000Z</time>
      </trkpt>
      <trkpt lat="47.4623" lon="6.6961">
        <ele>307.1</ele>
        <time>2014-11-23T09:43:11.000Z</time>
      </trkpt>
      <trkpt lat="47.46226" lon="6.69605">
        <ele>307</ele>
        <time>2014-11-23T09:43:12.000Z</time>
      </trkpt>
      <trkpt lat="47.46223" lon="6.696">
        <ele>309</ele>
        <time>2014-11-23T09:43:13.000Z</time>
      </trkpt>
      <trkpt lat="47.4622" lon="6.69595">
        <ele>310.2</ele>
        <time>2014-11-23T09:43:14.000Z</time>
      </trkpt>
      <trkpt lat="47.46217" lon="6.69591">
        <ele>310.6</ele>
        <time>2014-11-23T09:43:15.000Z</time>
      </trkpt>
      <trkpt lat="47.46214" lon="6.69587">
        <ele>311.7</ele>
        <time>2014-11-23T09:43:16.000Z</time>
      </trkpt>
      <trkpt lat="47.46211" lon="6.69582">
        <ele>310.4</ele>
        <time>2014-11-23T09:43:17.000Z</time>
      </trkpt>
      <trkpt lat="47.46208" lon="6.69576">
        <ele>309.8</ele>
        <time>2014-11-23T09:43:18.000Z</time>
      </trkpt>
      <trkpt lat="47.46205" lon="6.69571">
        <ele>309.8</ele>
        <time>2014-11-23T09:43:19.000Z</time>
      </trkpt>
      <trkpt lat="47.46203" lon="6.69566">
        <ele>309.5</ele>
        <time>2014-11-23T09:43:20.000Z</time>
      </trkpt>
      <trkpt lat="47.462" lon="6.69562">
        <ele>308.3</ele>
        <time>2014-11-23T09:43:21.000Z</time>
      </trkpt>
      <trkpt lat="47.46198" lon="6.69558">
        <ele>307.5</ele>
        <time>2014-11-23T09:43:22.000Z</time>
      </trkpt>
      <trkpt lat="47.46196" lon="6.69554">
        <ele>309.6</ele>
        <time>2014-11-23T09:43:23.000Z</time>
      </trkpt>
      <trkpt lat="47.46194" lon="6.69551">
        <ele>309.8</ele>
        <time>2014-11-23T09:43:24.000Z</time>
      </trkpt>
      <trkpt lat="47.46193" lon="6.69548">
        <ele>310.7</ele>
        <time>2014-11-23T09:43:25.000Z</time>
      </trkpt>
      <trkpt lat="47.4619" lon="6.69544">
        <ele>309.7</ele>
        <time>2014-11-23T09:43:28.000Z</time>
      </trkpt>
      <trkpt lat="47.46179" lon="6.69569">
        <ele>308.4</ele>
        <time>2014-11-23T09:43:37.000Z</time>
      </trkpt>
      <trkpt lat="47.4618" lon="6.69574">
        <ele>308.5</ele>
        <time>2014-11-23T09:43:38.000Z</time>
      </trkpt>
      <trkpt lat="47.46181" lon="6.69579">
        <ele>308.9</ele>
        <time>2014-11-23T09:43:39.000Z</time>
      </trkpt>
      <trkpt lat="47.46182" lon="6.69584">
        <ele>309.3</ele>
        <time>2014-11-23T09:43:39.999Z</time>
      </trkpt>
      <trkpt lat="47.46183" lon="6.69589">
        <ele>309</ele>
        <time>2014-11-23T09:43:41.000Z</time>
      </trkpt>
      <trkpt lat="47.46185" lon="6.69593">
        <ele>307.3</ele>
        <time>2014-11-23T09:43:42.000Z</time>
      </trkpt>
      <trkpt lat="47.46186" lon="6.69598">
        <ele>307.3</ele>
        <time>2014-11-23T09:43:43.000Z</time>
      </trkpt>
      <trkpt lat="47.46188" lon="6.69603">
        <ele>306.9</ele>
        <time>2014-11-23T09:43:44.000Z</time>
      </trkpt>
      <trkpt lat="47.46189" lon="6.69608">
        <ele>307.2</ele>
        <time>2014-11-23T09:43:45.000Z</time>
      </trkpt>
      <trkpt lat="47.46192" lon="6.69613">
        <ele>307.4</ele>
        <time>2014-11-23T09:43:46.000Z</time>
      </trkpt>
      <trkpt lat="47.46194" lon="6.69617">
        <ele>307.7</ele>
        <time>2014-11-23T09:43:47.000Z</time>
      </trkpt>
      <trkpt lat="47.46196" lon="6.69621">
        <ele>307.1</ele>
        <time>2014-11-23T09:43:48.000Z</time>
      </trkpt>
      <trkpt lat="47.46197" lon="6.69625">
        <ele>306.7</ele>
        <time>2014-11-23T09:43:48.999Z</time>
      </trkpt>
      <trkpt lat="47.46194" lon="6.69629">
        <ele>308.7</ele>
        <time>2014-11-23T09:43:51.000Z</time>
      </trkpt>
      <trkpt lat="47.46191" lon="6.69628">
        <ele>308.3</ele>
        <time>2014-11-23T09:43:52.000Z</time>
      </trkpt>
      <trkpt lat="47.46189" lon="6.69625">
        <ele>308.4</ele>
        <time>2014-11-23T09:43:53.000Z</time>
      </trkpt>
      <trkpt lat="47.46186" lon="6.6962">
        <ele>308.6</ele>
        <time>2014-11-23T09:43:54.000Z</time>
      </trkpt>
      <trkpt lat="47.46181" lon="6.69607">
        <ele>305.5</ele>
        <time>2014-11-23T09:43:55.000Z</time>
      </trkpt>
      <trkpt lat="47.46178" lon="6.696">
        <ele>304.9</ele>
        <time>2014-11-23T09:43:56.000Z</time>
      </trkpt>
      <trkpt lat="47.46175" lon="6.69592">
        <ele>303.9</ele>
        <time>2014-11-23T09:43:57.000Z</time>
      </trkpt>
      <trkpt lat="47.46171" lon="6.69585">
        <ele>303.3</ele>
        <time>2014-11-23T09:43:58.000Z</time>
      </trkpt>
      <trkpt lat="47.46168" lon="6.69578">
        <ele>302.8</ele>
        <time>2014-11-23T09:43:59.000Z</time>
      </trkpt>
      <trkpt lat="47.46165" lon="6.69571">
        <ele>302.7</ele>
        <time>2014-11-23T09:44:00.000Z</time>
      </trkpt>
      <trkpt lat="47.46161" lon="6.69563">
        <ele>302.5</ele>
        <time>2014-11-23T09:44:01.000Z</time>
      </trkpt>
      <trkpt lat="47.46158" lon="6.69555">
        <ele>303</ele>
        <time>2014-11-23T09:44:02.000Z</time>
      </trkpt>
      <trkpt lat="47.46152" lon="6.69548">
        <ele>302.9</ele>
        <time>2014-11-23T09:44:03.000Z</time>
      </trkpt>
      <trkpt lat="47.46148" lon="6.69541">
        <ele>302.9</ele>
        <time>2014-11-23T09:44:04.000Z</time>
      </trkpt>
      <trkpt lat="47.46143" lon="6.69535">
        <ele>303.1</ele>
        <time>2014-11-23T09:44:05.000Z</time>
      </trkpt>
      <trkpt lat="47.46139" lon="6.69529">
        <ele>304.3</ele>
        <time>2014-11-23T09:44:06.000Z</time>
      </trkpt>
      <trkpt lat="47.46135" lon="6.69524">
        <ele>304.7</ele>
        <time>2014-11-23T09:44:07.000Z</time>
      </trkpt>
      <trkpt lat="47.4613" lon="6.69519">
        <ele>304.5</ele>
        <time>2014-11-23T09:44:08.000Z</time>
      </trkpt>
      <trkpt lat="47.46126" lon="6.69514">
        <ele>304.9</ele>
        <time>2014-11-23T09:44:09.000Z</time>
      </trkpt>
      <trkpt lat="47.46122" lon="6.69509">
        <ele>304.9</ele>
        <time>2014-11-23T09:44:10.000Z</time>
      </trkpt>
      <trkpt lat="47.46119" lon="6.69504">
        <ele>305.8</ele>
        <time>2014-11-23T09:44:11.000Z</time>
      </trkpt>
      <trkpt lat="47.46115" lon="6.69499">
        <ele>306</ele>
        <time>2014-11-23T09:44:12.000Z</time>
      </trkpt>
      <trkpt lat="47.46111" lon="6.69494">
        <ele>306.3</ele>
        <time>2014-11-23T09:44:13.000Z</time>
      </trkpt>
      <trkpt lat="47.46107" lon="6.69489">
        <ele>306.6</ele>
        <time>2014-11-23T09:44:14.000Z</time>
      </trkpt>
      <trkpt lat="47.46103" lon="6.69485">
        <ele>306.6</ele>
        <time>2014-11-23T09:44:15.000Z</time>
      </trkpt>
      <trkpt lat="47.46099" lon="6.6948">
        <ele>307.2</ele>
        <time>2014-11-23T09:44:16.000Z</time>
      </trkpt>
      <trkpt lat="47.46095" lon="6.69475">
        <ele>307</ele>
        <time>2014-11-23T09:44:17.000Z</time>
      </trkpt>
      <trkpt lat="47.46091" lon="6.69471">
        <ele>307.6</ele>
        <time>2014-11-23T09:44:18.000Z</time>
      </trkpt>
      <trkpt lat="47.46088" lon="6.69468">
        <ele>308.1</ele>
        <time>2014-11-23T09:44:19.000Z</time>
      </trkpt>
      <trkpt lat="47.46085" lon="6.69464">
        <ele>307.8</ele>
        <time>2014-11-23T09:44:20.000Z</time>
      </trkpt>
      <trkpt lat="47.46081" lon="6.69461">
        <ele>307.8</ele>
        <time>2014-11-23T09:44:21.000Z</time>
      </trkpt>
      <trkpt lat="47.46078" lon="6.69457">
        <ele>307.9</ele>
        <time>2014-11-23T09:44:22.000Z</time>
      </trkpt>
      <trkpt lat="47.46075" lon="6.69453">
        <ele>308</ele>
        <time>2014-11-23T09:44:23.000Z</time>
      </trkpt>
      <trkpt lat="47.46071" lon="6.69448">
        <ele>308.3</ele>
        <time>2014-11-23T09:44:24.000Z</time>
      </trkpt>
      <trkpt lat="47.46067" lon="6.69444">
        <ele>308.4</ele>
        <time>2014-11-23T09:44:25.000Z</time>
      </trkpt>
      <trkpt lat="47.46064" lon="6.69441">
        <ele>308.4</ele>
        <time>2014-11-23T09:44:26.000Z</time>
      </trkpt>
      <trkpt lat="47.4606" lon="6.69436">
        <ele>308.9</ele>
        <time>2014-11-23T09:44:27.000Z</time>
      </trkpt>
      <trkpt lat="47.46056" lon="6.69432">
        <ele>309.1</ele>
        <time>2014-11-23T09:44:28.000Z</time>
      </trkpt>
      <trkpt lat="47.46053" lon="6.69428">
        <ele>309.6</ele>
        <time>2014-11-23T09:44:29.000Z</time>
      </trkpt>
      <trkpt lat="47.46026" lon="6.69395">
        <ele>310.2</ele>
        <time>2014-11-23T09:44:37.000Z</time>
      </trkpt>
      <trkpt lat="47.46021" lon="6.69389">
        <ele>309.8</ele>
        <time>2014-11-23T09:44:38.000Z</time>
      </trkpt>
      <trkpt lat="47.46017" lon="6.69385">
        <ele>310.4</ele>
        <time>2014-11-23T09:44:39.000Z</time>
      </trkpt>
      <trkpt lat="47.46012" lon="6.69379">
        <ele>310.9</ele>
        <time>2014-11-23T09:44:40.000Z</time>
      </trkpt>
      <trkpt lat="47.46008" lon="6.69375">
        <ele>311.3</ele>
        <time>2014-11-23T09:44:41.000Z</time>
      </trkpt>
      <trkpt lat="47.46003" lon="6.6937">
        <ele>311.9</ele>
        <time>2014-11-23T09:44:42.000Z</time>
      </trkpt>
      <trkpt lat="47.45999" lon="6.69365">
        <ele>311.9</ele>
        <time>2014-11-23T09:44:43.000Z</time>
      </trkpt>
      <trkpt lat="47.45995" lon="6.69361">
        <ele>312.2</ele>
        <time>2014-11-23T09:44:44.000Z</time>
      </trkpt>
      <trkpt lat="47.45992" lon="6.69356">
        <ele>312.2</ele>
        <time>2014-11-23T09:44:45.000Z</time>
      </trkpt>
      <trkpt lat="47.45987" lon="6.69351">
        <ele>313.1</ele>
        <time>2014-11-23T09:44:46.000Z</time>
      </trkpt>
      <trkpt lat="47.45983" lon="6.69345">
        <ele>313.5</ele>
        <time>2014-11-23T09:44:47.000Z</time>
      </trkpt>
      <trkpt lat="47.45979" lon="6.69341">
        <ele>313.5</ele>
        <time>2014-11-23T09:44:48.000Z</time>
      </trkpt>
      <trkpt lat="47.45974" lon="6.69337">
        <ele>314</ele>
        <time>2014-11-23T09:44:49.000Z</time>
      </trkpt>
      <trkpt lat="47.45972" lon="6.69333">
        <ele>313.6</ele>
        <time>2014-11-23T09:44:50.000Z</time>
      </trkpt>
      <trkpt lat="47.45968" lon="6.69328">
        <ele>313.9</ele>
        <time>2014-11-23T09:44:51.000Z</time>
      </trkpt>
      <trkpt lat="47.45964" lon="6.69324">
        <ele>313.9</ele>
        <time>2014-11-23T09:44:52.000Z</time>
      </trkpt>
      <trkpt lat="47.45961" lon="6.6932">
        <ele>313.8</ele>
        <time>2014-11-23T09:44:53.000Z</time>
      </trkpt>
      <trkpt lat="47.45956" lon="6.69316">
        <ele>314.1</ele>
        <time>2014-11-23T09:44:54.000Z</time>
      </trkpt>
      <trkpt lat="47.45953" lon="6.69312">
        <ele>313.4</ele>
        <time>2014-11-23T09:44:55.000Z</time>
      </trkpt>
      <trkpt lat="47.45949" lon="6.6931">
        <ele>312.4</ele>
        <time>2014-11-23T09:44:56.000Z</time>
      </trkpt>
      <trkpt lat="47.45945" lon="6.69306">
        <ele>311.9</ele>
        <time>2014-11-23T09:44:57.000Z</time>
      </trkpt>
      <trkpt lat="47.45942" lon="6.69302">
        <ele>311.9</ele>
        <time>2014-11-23T09:44:58.000Z</time>
      </trkpt>
      <trkpt lat="47.45938" lon="6.69297">
        <ele>312</ele>
        <time>2014-11-23T09:44:59.000Z</time>
      </trkpt>
      <trkpt lat="47.45935" lon="6.69292">
        <ele>311.4</ele>
        <time>2014-11-23T09:45:00.000Z</time>
      </trkpt>
      <trkpt lat="47.45932" lon="6.69287">
        <ele>311.6</ele>
        <time>2014-11-23T09:45:01.000Z</time>
      </trkpt>
      <trkpt lat="47.45928" lon="6.69283">
        <ele>311.4</ele>
        <time>2014-11-23T09:45:02.000Z</time>
      </trkpt>
      <trkpt lat="47.45925" lon="6.69279">
        <ele>311.2</ele>
        <time>2014-11-23T09:45:03.000Z</time>
      </trkpt>
      <trkpt lat="47.45921" lon="6.69275">
        <ele>311.4</ele>
        <time>2014-11-23T09:45:04.000Z</time>
      </trkpt>
      <trkpt lat="47.45916" lon="6.69272">
        <ele>311.5</ele>
        <time>2014-11-23T09:45:05.000Z</time>
      </trkpt>
      <trkpt lat="47.45912" lon="6.69267">
        <ele>312.6</ele>
        <time>2014-11-23T09:45:06.000Z</time>
      </trkpt>
      <trkpt lat="47.45908" lon="6.69263">
        <ele>312.9</ele>
        <time>2014-11-23T09:45:07.000Z</time>
      </trkpt>
      <trkpt lat="47.45904" lon="6.69259">
        <ele>312.7</ele>
        <time>2014-11-23T09:45:08.000Z</time>
      </trkpt>
      <trkpt lat="47.459" lon="6.69255">
        <ele>312.3</ele>
        <time>2014-11-23T09:45:09.000Z</time>
      </trkpt>
      <trkpt lat="47.45897" lon="6.69251">
        <ele>312.5</ele>
        <time>2014-11-23T09:45:10.000Z</time>
      </trkpt>
      <trkpt lat="47.45894" lon="6.69247">
        <ele>311.7</ele>
        <time>2014-11-23T09:45:11.000Z</time>
      </trkpt>
      <trkpt lat="47.45891" lon="6.69242">
        <ele>311.9</ele>
        <time>2014-11-23T09:45:12.000Z</time>
      </trkpt>
      <trkpt lat="47.45887" lon="6.69238">
        <ele>310.8</ele>
        <time>2014-11-23T09:45:13.000Z</time>
      </trkpt>
      <trkpt lat="47.45884" lon="6.69233">
        <ele>311.6</ele>
        <time>2014-11-23T09:45:14.000Z</time>
      </trkpt>
      <trkpt lat="47.4588" lon="6.69229">
        <ele>311.7</ele>
        <time>2014-11-23T09:45:15.000Z</time>
      </trkpt>
      <trkpt lat="47.45877" lon="6.69226">
        <ele>311.9</ele>
        <time>2014-11-23T09:45:16.000Z</time>
      </trkpt>
      <trkpt lat="47.45874" lon="6.69221">
        <ele>312.1</ele>
        <time>2014-11-23T09:45:17.000Z</time>
      </trkpt>
      <trkpt lat="47.4587" lon="6.69218">
        <ele>311.4</ele>
        <time>2014-11-23T09:45:18.000Z</time>
      </trkpt>
      <trkpt lat="47.45866" lon="6.69214">
        <ele>311.7</ele>
        <time>2014-11-23T09:45:19.000Z</time>
      </trkpt>
      <trkpt lat="47.45863" lon="6.6921">
        <ele>312.3</ele>
        <time>2014-11-23T09:45:20.000Z</time>
      </trkpt>
      <trkpt lat="47.4586" lon="6.69206">
        <ele>312.2</ele>
        <time>2014-11-23T09:45:21.000Z</time>
      </trkpt>
      <trkpt lat="47.45856" lon="6.69201">
        <ele>312.9</ele>
        <time>2014-11-23T09:45:22.000Z</time>
      </trkpt>
      <trkpt lat="47.45853" lon="6.69196">
        <ele>312.9</ele>
        <time>2014-11-23T09:45:23.000Z</time>
      </trkpt>
      <trkpt lat="47.4585" lon="6.69193">
        <ele>313</ele>
        <time>2014-11-23T09:45:24.000Z</time>
      </trkpt>
      <trkpt lat="47.45846" lon="6.69189">
        <ele>313.3</ele>
        <time>2014-11-23T09:45:25.000Z</time>
      </trkpt>
      <trkpt lat="47.45842" lon="6.69185">
        <ele>313.6</ele>
        <time>2014-11-23T09:45:26.000Z</time>
      </trkpt>
      <trkpt lat="47.45839" lon="6.69181">
        <ele>313.5</ele>
        <time>2014-11-23T09:45:27.000Z</time>
      </trkpt>
      <trkpt lat="47.45837" lon="6.69177">
        <ele>314.2</ele>
        <time>2014-11-23T09:45:28.000Z</time>
      </trkpt>
      <trkpt lat="47.45813" lon="6.69148">
        <ele>313.9</ele>
        <time>2014-11-23T09:45:35.786Z</time>
      </trkpt>
      <trkpt lat="47.45809" lon="6.69143">
        <ele>313.9</ele>
        <time>2014-11-23T09:45:37.000Z</time>
      </trkpt>
      <trkpt lat="47.45806" lon="6.69139">
        <ele>314.6</ele>
        <time>2014-11-23T09:45:38.000Z</time>
      </trkpt>
      <trkpt lat="47.45802" lon="6.69134">
        <ele>315.7</ele>
        <time>2014-11-23T09:45:39.000Z</time>
      </trkpt>
      <trkpt lat="47.45799" lon="6.6913">
        <ele>316.4</ele>
        <time>2014-11-23T09:45:40.000Z</time>
      </trkpt>
      <trkpt lat="47.45795" lon="6.69125">
        <ele>316.2</ele>
        <time>2014-11-23T09:45:41.000Z</time>
      </trkpt>
      <trkpt lat="47.4579" lon="6.69121">
        <ele>316</ele>
        <time>2014-11-23T09:45:42.000Z</time>
      </trkpt>
      <trkpt lat="47.45786" lon="6.69117">
        <ele>315.9</ele>
        <time>2014-11-23T09:45:43.000Z</time>
      </trkpt>
      <trkpt lat="47.45783" lon="6.69114">
        <ele>314.7</ele>
        <time>2014-11-23T09:45:44.000Z</time>
      </trkpt>
      <trkpt lat="47.45779" lon="6.69111">
        <ele>314.2</ele>
        <time>2014-11-23T09:45:45.000Z</time>
      </trkpt>
      <trkpt lat="47.45775" lon="6.69108">
        <ele>313.7</ele>
        <time>2014-11-23T09:45:46.000Z</time>
      </trkpt>
      <trkpt lat="47.4577" lon="6.69104">
        <ele>313.6</ele>
        <time>2014-11-23T09:45:47.001Z</time>
      </trkpt>
      <trkpt lat="47.45766" lon="6.69101">
        <ele>314.5</ele>
        <time>2014-11-23T09:45:48.000Z</time>
      </trkpt>
      <trkpt lat="47.45763" lon="6.69097">
        <ele>314.5</ele>
        <time>2014-11-23T09:45:49.000Z</time>
      </trkpt>
      <trkpt lat="47.45761" lon="6.6909">
        <ele>316</ele>
        <time>2014-11-23T09:45:50.000Z</time>
      </trkpt>
      <trkpt lat="47.45757" lon="6.69088">
        <ele>315.7</ele>
        <time>2014-11-23T09:45:51.000Z</time>
      </trkpt>
      <trkpt lat="47.45754" lon="6.69083">
        <ele>316.2</ele>
        <time>2014-11-23T09:45:52.000Z</time>
      </trkpt>
      <trkpt lat="47.45749" lon="6.69078">
        <ele>316.9</ele>
        <time>2014-11-23T09:45:53.000Z</time>
      </trkpt>
      <trkpt lat="47.45746" lon="6.69075">
        <ele>316.4</ele>
        <time>2014-11-23T09:45:54.000Z</time>
      </trkpt>
      <trkpt lat="47.45742" lon="6.6907">
        <ele>315.9</ele>
        <time>2014-11-23T09:45:55.000Z</time>
      </trkpt>
      <trkpt lat="47.45738" lon="6.69067">
        <ele>316.1</ele>
        <time>2014-11-23T09:45:56.000Z</time>
      </trkpt>
      <trkpt lat="47.45735" lon="6.69063">
        <ele>316.2</ele>
        <time>2014-11-23T09:45:57.000Z</time>
      </trkpt>
      <trkpt lat="47.45732" lon="6.69058">
        <ele>315.7</ele>
        <time>2014-11-23T09:45:58.000Z</time>
      </trkpt>
      <trkpt lat="47.45728" lon="6.69055">
        <ele>315.6</ele>
        <time>2014-11-23T09:45:59.000Z</time>
      </trkpt>
      <trkpt lat="47.45723" lon="6.6905">
        <ele>315.6</ele>
        <time>2014-11-23T09:46:00.000Z</time>
      </trkpt>
      <trkpt lat="47.45719" lon="6.69046">
        <ele>315</ele>
        <time>2014-11-23T09:46:01.000Z</time>
      </trkpt>
      <trkpt lat="47.45714" lon="6.69042">
        <ele>314.4</ele>
        <time>2014-11-23T09:46:02.000Z</time>
      </trkpt>
      <trkpt lat="47.4571" lon="6.69039">
        <ele>313.2</ele>
        <time>2014-11-23T09:46:03.000Z</time>
      </trkpt>
      <trkpt lat="47.45706" lon="6.69036">
        <ele>312.5</ele>
        <time>2014-11-23T09:46:04.000Z</time>
      </trkpt>
      <trkpt lat="47.45702" lon="6.69033">
        <ele>311.9</ele>
        <time>2014-11-23T09:46:05.000Z</time>
      </trkpt>
      <trkpt lat="47.45699" lon="6.69029">
        <ele>311.2</ele>
        <time>2014-11-23T09:46:06.000Z</time>
      </trkpt>
      <trkpt lat="47.45695" lon="6.69026">
        <ele>311</ele>
        <time>2014-11-23T09:46:07.000Z</time>
      </trkpt>
      <trkpt lat="47.45689" lon="6.69025">
        <ele>311.8</ele>
        <time>2014-11-23T09:46:08.000Z</time>
      </trkpt>
      <trkpt lat="47.45687" lon="6.69022">
        <ele>311.6</ele>
        <time>2014-11-23T09:46:09.000Z</time>
      </trkpt>
      <trkpt lat="47.45683" lon="6.69017">
        <ele>311.4</ele>
        <time>2014-11-23T09:46:10.000Z</time>
      </trkpt>
      <trkpt lat="47.4568" lon="6.69013">
        <ele>311</ele>
        <time>2014-11-23T09:46:11.000Z</time>
      </trkpt>
      <trkpt lat="47.45675" lon="6.6901">
        <ele>310.3</ele>
        <time>2014-11-23T09:46:12.000Z</time>
      </trkpt>
      <trkpt lat="47.45671" lon="6.69005">
        <ele>310.8</ele>
        <time>2014-11-23T09:46:13.000Z</time>
      </trkpt>
      <trkpt lat="47.45667" lon="6.69">
        <ele>311.4</ele>
        <time>2014-11-23T09:46:14.000Z</time>
      </trkpt>
      <trkpt lat="47.45664" lon="6.68997">
        <ele>310.4</ele>
        <time>2014-11-23T09:46:15.000Z</time>
      </trkpt>
      <trkpt lat="47.4566" lon="6.68993">
        <ele>310.2</ele>
        <time>2014-11-23T09:46:16.000Z</time>
      </trkpt>
      <trkpt lat="47.45657" lon="6.68991">
        <ele>308.9</ele>
        <time>2014-11-23T09:46:17.000Z</time>
      </trkpt>
      <trkpt lat="47.45653" lon="6.68987">
        <ele>308.9</ele>
        <time>2014-11-23T09:46:18.000Z</time>
      </trkpt>
      <trkpt lat="47.45649" lon="6.68985">
        <ele>307.7</ele>
        <time>2014-11-23T09:46:19.000Z</time>
      </trkpt>
      <trkpt lat="47.45645" lon="6.68981">
        <ele>307.6</ele>
        <time>2014-11-23T09:46:19.999Z</time>
      </trkpt>
      <trkpt lat="47.45642" lon="6.68977">
        <ele>308.2</ele>
        <time>2014-11-23T09:46:21.000Z</time>
      </trkpt>
      <trkpt lat="47.45639" lon="6.68973">
        <ele>308.3</ele>
        <time>2014-11-23T09:46:22.000Z</time>
      </trkpt>
      <trkpt lat="47.45635" lon="6.68969">
        <ele>308.2</ele>
        <time>2014-11-23T09:46:23.000Z</time>
      </trkpt>
      <trkpt lat="47.45632" lon="6.68964">
        <ele>309.4</ele>
        <time>2014-11-23T09:46:24.000Z</time>
      </trkpt>
      <trkpt lat="47.45628" lon="6.68961">
        <ele>308.8</ele>
        <time>2014-11-23T09:46:25.000Z</time>
      </trkpt>
      <trkpt lat="47.45624" lon="6.68957">
        <ele>308.5</ele>
        <time>2014-11-23T09:46:26.000Z</time>
      </trkpt>
      <trkpt lat="47.4562" lon="6.68952">
        <ele>307.5</ele>
        <time>2014-11-23T09:46:27.000Z</time>
      </trkpt>
      <trkpt lat="47.45616" lon="6.68949">
        <ele>307.1</ele>
        <time>2014-11-23T09:46:28.000Z</time>
      </trkpt>
      <trkpt lat="47.45592" lon="6.68918">
        <ele>306</ele>
        <time>2014-11-23T09:46:35.853Z</time>
      </trkpt>
      <trkpt lat="47.45589" lon="6.68914">
        <ele>305.8</ele>
        <time>2014-11-23T09:46:37.000Z</time>
      </trkpt>
      <trkpt lat="47.45583" lon="6.68915">
        <ele>302.6</ele>
        <time>2014-11-23T09:46:38.000Z</time>
      </trkpt>
      <trkpt lat="47.45579" lon="6.68911">
        <ele>303.8</ele>
        <time>2014-11-23T09:46:39.000Z</time>
      </trkpt>
      <trkpt lat="47.45576" lon="6.68908">
        <ele>303.4</ele>
        <time>2014-11-23T09:46:40.000Z</time>
      </trkpt>
      <trkpt lat="47.45573" lon="6.68904">
        <ele>303.2</ele>
        <time>2014-11-23T09:46:41.000Z</time>
      </trkpt>
      <trkpt lat="47.4557" lon="6.689">
        <ele>303.2</ele>
        <time>2014-11-23T09:46:42.000Z</time>
      </trkpt>
      <trkpt lat="47.45567" lon="6.68896">
        <ele>303.2</ele>
        <time>2014-11-23T09:46:43.000Z</time>
      </trkpt>
      <trkpt lat="47.45564" lon="6.68892">
        <ele>302.9</ele>
        <time>2014-11-23T09:46:44.000Z</time>
      </trkpt>
      <trkpt lat="47.45561" lon="6.68888">
        <ele>302.3</ele>
        <time>2014-11-23T09:46:45.000Z</time>
      </trkpt>
      <trkpt lat="47.45558" lon="6.68883">
        <ele>302.5</ele>
        <time>2014-11-23T09:46:46.000Z</time>
      </trkpt>
      <trkpt lat="47.45555" lon="6.6888">
        <ele>302.6</ele>
        <time>2014-11-23T09:46:47.000Z</time>
      </trkpt>
      <trkpt lat="47.45552" lon="6.68875">
        <ele>302.6</ele>
        <time>2014-11-23T09:46:48.000Z</time>
      </trkpt>
      <trkpt lat="47.45549" lon="6.68872">
        <ele>300.9</ele>
        <time>2014-11-23T09:46:49.000Z</time>
      </trkpt>
      <trkpt lat="47.45545" lon="6.68869">
        <ele>300.1</ele>
        <time>2014-11-23T09:46:50.000Z</time>
      </trkpt>
      <trkpt lat="47.45542" lon="6.68867">
        <ele>299.9</ele>
        <time>2014-11-23T09:46:51.000Z</time>
      </trkpt>
      <trkpt lat="47.45539" lon="6.68865">
        <ele>299.9</ele>
        <time>2014-11-23T09:46:52.000Z</time>
      </trkpt>
      <trkpt lat="47.45536" lon="6.68863">
        <ele>300.1</ele>
        <time>2014-11-23T09:46:53.000Z</time>
      </trkpt>
      <trkpt lat="47.45534" lon="6.68862">
        <ele>296.3</ele>
        <time>2014-11-23T09:46:54.000Z</time>
      </trkpt>
      <trkpt lat="47.45532" lon="6.6886">
        <ele>296.2</ele>
        <time>2014-11-23T09:46:55.000Z</time>
      </trkpt>
      <trkpt lat="47.4553" lon="6.68859">
        <ele>293.6</ele>
        <time>2014-11-23T09:46:56.000Z</time>
      </trkpt>
      <trkpt lat="47.45527" lon="6.68859">
        <ele>293</ele>
        <time>2014-11-23T09:46:57.000Z</time>
      </trkpt>
      <trkpt lat="47.45524" lon="6.68859">
        <ele>293.4</ele>
        <time>2014-11-23T09:47:00.000Z</time>
      </trkpt>
      <trkpt lat="47.45522" lon="6.68859">
        <ele>293</ele>
        <time>2014-11-23T09:47:01.000Z</time>
      </trkpt>
      <trkpt lat="47.45519" lon="6.6886">
        <ele>292.8</ele>
        <time>2014-11-23T09:47:02.000Z</time>
      </trkpt>
      <trkpt lat="47.45517" lon="6.68862">
        <ele>292.4</ele>
        <time>2014-11-23T09:47:03.000Z</time>
      </trkpt>
      <trkpt lat="47.45513" lon="6.68864">
        <ele>293.8</ele>
        <time>2014-11-23T09:47:04.000Z</time>
      </trkpt>
      <trkpt lat="47.4551" lon="6.68866">
        <ele>294.9</ele>
        <time>2014-11-23T09:47:05.000Z</time>
      </trkpt>
      <trkpt lat="47.45507" lon="6.68868">
        <ele>295.1</ele>
        <time>2014-11-23T09:47:06.000Z</time>
      </trkpt>
      <trkpt lat="47.45504" lon="6.6887">
        <ele>293.9</ele>
        <time>2014-11-23T09:47:07.000Z</time>
      </trkpt>
      <trkpt lat="47.45502" lon="6.68872">
        <ele>294.2</ele>
        <time>2014-11-23T09:47:08.000Z</time>
      </trkpt>
      <trkpt lat="47.455" lon="6.68874">
        <ele>295</ele>
        <time>2014-11-23T09:47:09.000Z</time>
      </trkpt>
      <trkpt lat="47.45498" lon="6.68877">
        <ele>295.9</ele>
        <time>2014-11-23T09:47:10.000Z</time>
      </trkpt>
      <trkpt lat="47.45495" lon="6.68881">
        <ele>296.1</ele>
        <time>2014-11-23T09:47:11.000Z</time>
      </trkpt>
      <trkpt lat="47.45493" lon="6.68884">
        <ele>297.1</ele>
        <time>2014-11-23T09:47:12.000Z</time>
      </trkpt>
      <trkpt lat="47.45489" lon="6.68888">
        <ele>296.8</ele>
        <time>2014-11-23T09:47:13.000Z</time>
      </trkpt>
      <trkpt lat="47.45486" lon="6.68892">
        <ele>296.9</ele>
        <time>2014-11-23T09:47:14.000Z</time>
      </trkpt>
      <trkpt lat="47.45482" lon="6.68896">
        <ele>297.1</ele>
        <time>2014-11-23T09:47:15.000Z</time>
      </trkpt>
      <trkpt lat="47.45479" lon="6.68899">
        <ele>297.8</ele>
        <time>2014-11-23T09:47:16.000Z</time>
      </trkpt>
      <trkpt lat="47.45475" lon="6.68901">
        <ele>297.3</ele>
        <time>2014-11-23T09:47:17.000Z</time>
      </trkpt>
      <trkpt lat="47.45471" lon="6.68902">
        <ele>298.1</ele>
        <time>2014-11-23T09:47:18.000Z</time>
      </trkpt>
      <trkpt lat="47.45467" lon="6.68904">
        <ele>298.3</ele>
        <time>2014-11-23T09:47:19.000Z</time>
      </trkpt>
      <trkpt lat="47.45464" lon="6.68907">
        <ele>297.1</ele>
        <time>2014-11-23T09:47:20.000Z</time>
      </trkpt>
      <trkpt lat="47.4546" lon="6.6891">
        <ele>297.3</ele>
        <time>2014-11-23T09:47:21.000Z</time>
      </trkpt>
      <trkpt lat="47.45457" lon="6.68913">
        <ele>297.2</ele>
        <time>2014-11-23T09:47:22.000Z</time>
      </trkpt>
      <trkpt lat="47.45454" lon="6.68916">
        <ele>296.7</ele>
        <time>2014-11-23T09:47:23.000Z</time>
      </trkpt>
      <trkpt lat="47.4545" lon="6.68919">
        <ele>298.2</ele>
        <time>2014-11-23T09:47:24.000Z</time>
      </trkpt>
      <trkpt lat="47.45447" lon="6.68922">
        <ele>299.4</ele>
        <time>2014-11-23T09:47:25.000Z</time>
      </trkpt>
      <trkpt lat="47.45443" lon="6.68925">
        <ele>299.1</ele>
        <time>2014-11-23T09:47:26.000Z</time>
      </trkpt>
      <trkpt lat="47.4544" lon="6.68929">
        <ele>299.8</ele>
        <time>2014-11-23T09:47:27.000Z</time>
      </trkpt>
      <trkpt lat="47.45437" lon="6.68932">
        <ele>300.4</ele>
        <time>2014-11-23T09:47:28.000Z</time>
      </trkpt>
      <trkpt lat="47.45402" lon="6.68955">
        <ele>301.5</ele>
        <time>2014-11-23T09:47:37.000Z</time>
      </trkpt>
      <trkpt lat="47.45399" lon="6.68957">
        <ele>301.6</ele>
        <time>2014-11-23T09:47:38.000Z</time>
      </trkpt>
      <trkpt lat="47.45396" lon="6.68962">
        <ele>300.5</ele>
        <time>2014-11-23T09:47:39.000Z</time>
      </trkpt>
      <trkpt lat="47.45393" lon="6.68964">
        <ele>300.2</ele>
        <time>2014-11-23T09:47:40.000Z</time>
      </trkpt>
      <trkpt lat="47.45389" lon="6.68967">
        <ele>298.1</ele>
        <time>2014-11-23T09:47:41.000Z</time>
      </trkpt>
      <trkpt lat="47.45386" lon="6.6897">
        <ele>297.5</ele>
        <time>2014-11-23T09:47:42.000Z</time>
      </trkpt>
      <trkpt lat="47.45382" lon="6.68974">
        <ele>296.4</ele>
        <time>2014-11-23T09:47:43.000Z</time>
      </trkpt>
      <trkpt lat="47.45379" lon="6.68977">
        <ele>296.4</ele>
        <time>2014-11-23T09:47:44.000Z</time>
      </trkpt>
      <trkpt lat="47.45375" lon="6.68981">
        <ele>296.5</ele>
        <time>2014-11-23T09:47:44.999Z</time>
      </trkpt>
      <trkpt lat="47.45372" lon="6.68985">
        <ele>296.3</ele>
        <time>2014-11-23T09:47:46.000Z</time>
      </trkpt>
      <trkpt lat="47.45368" lon="6.68988">
        <ele>296.1</ele>
        <time>2014-11-23T09:47:47.000Z</time>
      </trkpt>
      <trkpt lat="47.45365" lon="6.68991">
        <ele>296.4</ele>
        <time>2014-11-23T09:47:48.000Z</time>
      </trkpt>
      <trkpt lat="47.45361" lon="6.68995">
        <ele>296.3</ele>
        <time>2014-11-23T09:47:49.000Z</time>
      </trkpt>
      <trkpt lat="47.45358" lon="6.68998">
        <ele>296.6</ele>
        <time>2014-11-23T09:47:50.000Z</time>
      </trkpt>
      <trkpt lat="47.45354" lon="6.69001">
        <ele>294.6</ele>
        <time>2014-11-23T09:47:51.000Z</time>
      </trkpt>
      <trkpt lat="47.45351" lon="6.69005">
        <ele>295.4</ele>
        <time>2014-11-23T09:47:52.000Z</time>
      </trkpt>
      <trkpt lat="47.45348" lon="6.69008">
        <ele>294.9</ele>
        <time>2014-11-23T09:47:52.999Z</time>
      </trkpt>
      <trkpt lat="47.45345" lon="6.69012">
        <ele>295</ele>
        <time>2014-11-23T09:47:54.000Z</time>
      </trkpt>
      <trkpt lat="47.45341" lon="6.69014">
        <ele>295.6</ele>
        <time>2014-11-23T09:47:55.000Z</time>
      </trkpt>
      <trkpt lat="47.45338" lon="6.69017">
        <ele>295</ele>
        <time>2014-11-23T09:47:56.000Z</time>
      </trkpt>
      <trkpt lat="47.45334" lon="6.69018">
        <ele>294.7</ele>
        <time>2014-11-23T09:47:57.000Z</time>
      </trkpt>
      <trkpt lat="47.4533" lon="6.6902">
        <ele>294.6</ele>
        <time>2014-11-23T09:47:58.000Z</time>
      </trkpt>
      <trkpt lat="47.45326" lon="6.69021">
        <ele>294.3</ele>
        <time>2014-11-23T09:47:59.001Z</time>
      </trkpt>
      <trkpt lat="47.45322" lon="6.69023">
        <ele>293.8</ele>
        <time>2014-11-23T09:48:00.000Z</time>
      </trkpt>
      <trkpt lat="47.45319" lon="6.69025">
        <ele>294.1</ele>
        <time>2014-11-23T09:48:01.000Z</time>
      </trkpt>
      <trkpt lat="47.45316" lon="6.69027">
        <ele>294.5</ele>
        <time>2014-11-23T09:48:02.000Z</time>
      </trkpt>
      <trkpt lat="47.45312" lon="6.69028">
        <ele>293.9</ele>
        <time>2014-11-23T09:48:03.000Z</time>
      </trkpt>
      <trkpt lat="47.45308" lon="6.69029">
        <ele>293.9</ele>
        <time>2014-11-23T09:48:04.000Z</time>
      </trkpt>
      <trkpt lat="47.45304" lon="6.6903">
        <ele>294.3</ele>
        <time>2014-11-23T09:48:05.000Z</time>
      </trkpt>
      <trkpt lat="47.45297" lon="6.6903">
        <ele>294.7</ele>
        <time>2014-11-23T09:48:06.000Z</time>
      </trkpt>
      <trkpt lat="47.45293" lon="6.69031">
        <ele>295</ele>
        <time>2014-11-23T09:48:07.000Z</time>
      </trkpt>
      <trkpt lat="47.45289" lon="6.69033">
        <ele>295.1</ele>
        <time>2014-11-23T09:48:08.000Z</time>
      </trkpt>
      <trkpt lat="47.45284" lon="6.69034">
        <ele>295.5</ele>
        <time>2014-11-23T09:48:09.000Z</time>
      </trkpt>
      <trkpt lat="47.45281" lon="6.69038">
        <ele>292.7</ele>
        <time>2014-11-23T09:48:10.000Z</time>
      </trkpt>
      <trkpt lat="47.45277" lon="6.69041">
        <ele>292.6</ele>
        <time>2014-11-23T09:48:11.000Z</time>
      </trkpt>
      <trkpt lat="47.45273" lon="6.6904">
        <ele>294.7</ele>
        <time>2014-11-23T09:48:12.000Z</time>
      </trkpt>
      <trkpt lat="47.45268" lon="6.6904">
        <ele>293.9</ele>
        <time>2014-11-23T09:48:13.000Z</time>
      </trkpt>
      <trkpt lat="47.45264" lon="6.69044">
        <ele>294</ele>
        <time>2014-11-23T09:48:14.000Z</time>
      </trkpt>
      <trkpt lat="47.45261" lon="6.69048">
        <ele>294.1</ele>
        <time>2014-11-23T09:48:15.000Z</time>
      </trkpt>
      <trkpt lat="47.45257" lon="6.6905">
        <ele>294.5</ele>
        <time>2014-11-23T09:48:16.000Z</time>
      </trkpt>
      <trkpt lat="47.45254" lon="6.69053">
        <ele>294.7</ele>
        <time>2014-11-23T09:48:17.000Z</time>
      </trkpt>
      <trkpt lat="47.4525" lon="6.69056">
        <ele>294.4</ele>
        <time>2014-11-23T09:48:18.000Z</time>
      </trkpt>
      <trkpt lat="47.45247" lon="6.69059">
        <ele>293.9</ele>
        <time>2014-11-23T09:48:19.000Z</time>
      </trkpt>
      <trkpt lat="47.45241" lon="6.69063">
        <ele>295.4</ele>
        <time>2014-11-23T09:48:20.000Z</time>
      </trkpt>
      <trkpt lat="47.45239" lon="6.69067">
        <ele>296.3</ele>
        <time>2014-11-23T09:48:21.000Z</time>
      </trkpt>
      <trkpt lat="47.45235" lon="6.69071">
        <ele>297</ele>
        <time>2014-11-23T09:48:22.000Z</time>
      </trkpt>
      <trkpt lat="47.45232" lon="6.69074">
        <ele>298.5</ele>
        <time>2014-11-23T09:48:23.000Z</time>
      </trkpt>
      <trkpt lat="47.45229" lon="6.69079">
        <ele>297.4</ele>
        <time>2014-11-23T09:48:24.000Z</time>
      </trkpt>
      <trkpt lat="47.45225" lon="6.69084">
        <ele>296.4</ele>
        <time>2014-11-23T09:48:25.000Z</time>
      </trkpt>
      <trkpt lat="47.45222" lon="6.69088">
        <ele>296.4</ele>
        <time>2014-11-23T09:48:26.000Z</time>
      </trkpt>
      <trkpt lat="47.45219" lon="6.69093">
        <ele>296.3</ele>
        <time>2014-11-23T09:48:26.999Z</time>
      </trkpt>
      <trkpt lat="47.45215" lon="6.69096">
        <ele>296.3</ele>
        <time>2014-11-23T09:48:28.000Z</time>
      </trkpt>
      <trkpt lat="47.4519" lon="6.69122">
        <ele>299.1</ele>
        <time>2014-11-23T09:48:36.351Z</time>
      </trkpt>
      <trkpt lat="47.45189" lon="6.69124">
        <ele>299</ele>
        <time>2014-11-23T09:48:36.998Z</time>
      </trkpt>
      <trkpt lat="47.45184" lon="6.6913">
        <ele>298.9</ele>
        <time>2014-11-23T09:48:39.000Z</time>
      </trkpt>
      <trkpt lat="47.45182" lon="6.69133">
        <ele>299.8</ele>
        <time>2014-11-23T09:48:40.000Z</time>
      </trkpt>
      <trkpt lat="47.45179" lon="6.69135">
        <ele>300.4</ele>
        <time>2014-11-23T09:48:41.000Z</time>
      </trkpt>
      <trkpt lat="47.45175" lon="6.69133">
        <ele>301.8</ele>
        <time>2014-11-23T09:48:50.000Z</time>
      </trkpt>
      <trkpt lat="47.45174" lon="6.69132">
        <ele>301.6</ele>
        <time>2014-11-23T09:48:51.000Z</time>
      </trkpt>
      <trkpt lat="47.45173" lon="6.69127">
        <ele>298.9</ele>
        <time>2014-11-23T09:48:55.000Z</time>
      </trkpt>
      <trkpt lat="47.45172" lon="6.69125">
        <ele>298.9</ele>
        <time>2014-11-23T09:48:56.000Z</time>
      </trkpt>
      <trkpt lat="47.45171" lon="6.69121">
        <ele>299.1</ele>
        <time>2014-11-23T09:48:58.000Z</time>
      </trkpt>
      <trkpt lat="47.45169" lon="6.69119">
        <ele>298.2</ele>
        <time>2014-11-23T09:48:59.000Z</time>
      </trkpt>
      <trkpt lat="47.45167" lon="6.69117">
        <ele>298.4</ele>
        <time>2014-11-23T09:49:00.000Z</time>
      </trkpt>
      <trkpt lat="47.45164" lon="6.69116">
        <ele>297.9</ele>
        <time>2014-11-23T09:49:01.000Z</time>
      </trkpt>
      <trkpt lat="47.45161" lon="6.69115">
        <ele>298.2</ele>
        <time>2014-11-23T09:49:02.000Z</time>
      </trkpt>
      <trkpt lat="47.45158" lon="6.69115">
        <ele>297</ele>
        <time>2014-11-23T09:49:03.000Z</time>
      </trkpt>
      <trkpt lat="47.45156" lon="6.69116">
        <ele>296.6</ele>
        <time>2014-11-23T09:49:04.000Z</time>
      </trkpt>
      <trkpt lat="47.45153" lon="6.69116">
        <ele>296.1</ele>
        <time>2014-11-23T09:49:05.000Z</time>
      </trkpt>
      <trkpt lat="47.4515" lon="6.69116">
        <ele>296.4</ele>
        <time>2014-11-23T09:49:06.000Z</time>
      </trkpt>
      <trkpt lat="47.45147" lon="6.69115">
        <ele>296.7</ele>
        <time>2014-11-23T09:49:07.000Z</time>
      </trkpt>
      <trkpt lat="47.45143" lon="6.69113">
        <ele>298</ele>
        <time>2014-11-23T09:49:08.000Z</time>
      </trkpt>
      <trkpt lat="47.4514" lon="6.6911">
        <ele>300.2</ele>
        <time>2014-11-23T09:49:09.000Z</time>
      </trkpt>
      <trkpt lat="47.45136" lon="6.69107">
        <ele>300.1</ele>
        <time>2014-11-23T09:49:10.000Z</time>
      </trkpt>
      <trkpt lat="47.45133" lon="6.69104">
        <ele>300.5</ele>
        <time>2014-11-23T09:49:11.000Z</time>
      </trkpt>
      <trkpt lat="47.4513" lon="6.69101">
        <ele>300.8</ele>
        <time>2014-11-23T09:49:12.000Z</time>
      </trkpt>
      <trkpt lat="47.45128" lon="6.69099">
        <ele>300.7</ele>
        <time>2014-11-23T09:49:13.000Z</time>
      </trkpt>
      <trkpt lat="47.45125" lon="6.69096">
        <ele>300.8</ele>
        <time>2014-11-23T09:49:14.000Z</time>
      </trkpt>
      <trkpt lat="47.45123" lon="6.69092">
        <ele>301.7</ele>
        <time>2014-11-23T09:49:15.000Z</time>
      </trkpt>
      <trkpt lat="47.45121" lon="6.69089">
        <ele>302.3</ele>
        <time>2014-11-23T09:49:16.000Z</time>
      </trkpt>
      <trkpt lat="47.4512" lon="6.69085">
        <ele>302.6</ele>
        <time>2014-11-23T09:49:17.000Z</time>
      </trkpt>
      <trkpt lat="47.45118" lon="6.69081">
        <ele>302.3</ele>
        <time>2014-11-23T09:49:18.000Z</time>
      </trkpt>
      <trkpt lat="47.45116" lon="6.69077">
        <ele>302.4</ele>
        <time>2014-11-23T09:49:19.000Z</time>
      </trkpt>
      <trkpt lat="47.45115" lon="6.69073">
        <ele>302.8</ele>
        <time>2014-11-23T09:49:20.000Z</time>
      </trkpt>
      <trkpt lat="47.45113" lon="6.69069">
        <ele>303.5</ele>
        <time>2014-11-23T09:49:21.000Z</time>
      </trkpt>
      <trkpt lat="47.4511" lon="6.69065">
        <ele>303.9</ele>
        <time>2014-11-23T09:49:22.000Z</time>
      </trkpt>
      <trkpt lat="47.45108" lon="6.69061">
        <ele>303.7</ele>
        <time>2014-11-23T09:49:23.000Z</time>
      </trkpt>
      <trkpt lat="47.45105" lon="6.69057">
        <ele>303.9</ele>
        <time>2014-11-23T09:49:24.000Z</time>
      </trkpt>
      <trkpt lat="47.45103" lon="6.69053">
        <ele>303.5</ele>
        <time>2014-11-23T09:49:25.000Z</time>
      </trkpt>
      <trkpt lat="47.451" lon="6.69049">
        <ele>302.7</ele>
        <time>2014-11-23T09:49:26.000Z</time>
      </trkpt>
      <trkpt lat="47.45098" lon="6.69044">
        <ele>303</ele>
        <time>2014-11-23T09:49:27.000Z</time>
      </trkpt>
      <trkpt lat="47.45095" lon="6.69041">
        <ele>302.5</ele>
        <time>2014-11-23T09:49:28.000Z</time>
      </trkpt>
      <trkpt lat="47.45092" lon="6.69037">
        <ele>302.1</ele>
        <time>2014-11-23T09:49:29.000Z</time>
      </trkpt>
      <trkpt lat="47.4507" lon="6.6901">
        <ele>301.8</ele>
        <time>2014-11-23T09:49:37.000Z</time>
      </trkpt>
      <trkpt lat="47.45067" lon="6.69008">
        <ele>302</ele>
        <time>2014-11-23T09:49:38.000Z</time>
      </trkpt>
      <trkpt lat="47.45065" lon="6.69005">
        <ele>302.3</ele>
        <time>2014-11-23T09:49:39.000Z</time>
      </trkpt>
      <trkpt lat="47.45062" lon="6.69002">
        <ele>301.4</ele>
        <time>2014-11-23T09:49:40.000Z</time>
      </trkpt>
      <trkpt lat="47.45059" lon="6.68999">
        <ele>303</ele>
        <time>2014-11-23T09:49:41.000Z</time>
      </trkpt>
      <trkpt lat="47.45056" lon="6.68996">
        <ele>303</ele>
        <time>2014-11-23T09:49:42.000Z</time>
      </trkpt>
      <trkpt lat="47.45053" lon="6.68994">
        <ele>303</ele>
        <time>2014-11-23T09:49:43.000Z</time>
      </trkpt>
      <trkpt lat="47.4505" lon="6.68992">
        <ele>303.2</ele>
        <time>2014-11-23T09:49:44.000Z</time>
      </trkpt>
      <trkpt lat="47.45048" lon="6.6899">
        <ele>303.4</ele>
        <time>2014-11-23T09:49:45.000Z</time>
      </trkpt>
      <trkpt lat="47.45046" lon="6.68988">
        <ele>303.8</ele>
        <time>2014-11-23T09:49:46.000Z</time>
      </trkpt>
      <trkpt lat="47.45043" lon="6.68985">
        <ele>303.3</ele>
        <time>2014-11-23T09:49:47.000Z</time>
      </trkpt>
      <trkpt lat="47.4504" lon="6.68983">
        <ele>302.7</ele>
        <time>2014-11-23T09:49:48.000Z</time>
      </trkpt>
      <trkpt lat="47.45037" lon="6.6898">
        <ele>302.6</ele>
        <time>2014-11-23T09:49:49.000Z</time>
      </trkpt>
      <trkpt lat="47.45034" lon="6.68978">
        <ele>302.2</ele>
        <time>2014-11-23T09:49:50.000Z</time>
      </trkpt>
      <trkpt lat="47.45031" lon="6.68976">
        <ele>300.5</ele>
        <time>2014-11-23T09:49:51.000Z</time>
      </trkpt>
      <trkpt lat="47.45027" lon="6.68975">
        <ele>300.4</ele>
        <time>2014-11-23T09:49:52.000Z</time>
      </trkpt>
      <trkpt lat="47.45024" lon="6.68973">
        <ele>300.7</ele>
        <time>2014-11-23T09:49:53.000Z</time>
      </trkpt>
      <trkpt lat="47.45021" lon="6.68972">
        <ele>300.9</ele>
        <time>2014-11-23T09:49:54.000Z</time>
      </trkpt>
      <trkpt lat="47.45018" lon="6.6897">
        <ele>301.1</ele>
        <time>2014-11-23T09:49:55.000Z</time>
      </trkpt>
      <trkpt lat="47.45015" lon="6.68967">
        <ele>301.5</ele>
        <time>2014-11-23T09:49:56.000Z</time>
      </trkpt>
      <trkpt lat="47.45012" lon="6.68965">
        <ele>302.1</ele>
        <time>2014-11-23T09:49:57.000Z</time>
      </trkpt>
      <trkpt lat="47.45009" lon="6.68963">
        <ele>302.3</ele>
        <time>2014-11-23T09:49:58.000Z</time>
      </trkpt>
      <trkpt lat="47.45006" lon="6.6896">
        <ele>302.3</ele>
        <time>2014-11-23T09:49:59.000Z</time>
      </trkpt>
      <trkpt lat="47.45003" lon="6.68957">
        <ele>302.8</ele>
        <time>2014-11-23T09:50:00.000Z</time>
      </trkpt>
      <trkpt lat="47.45" lon="6.68954">
        <ele>303.4</ele>
        <time>2014-11-23T09:50:01.000Z</time>
      </trkpt>
      <trkpt lat="47.44997" lon="6.68952">
        <ele>303.6</ele>
        <time>2014-11-23T09:50:02.000Z</time>
      </trkpt>
      <trkpt lat="47.44994" lon="6.68949">
        <ele>304</ele>
        <time>2014-11-23T09:50:03.000Z</time>
      </trkpt>
      <trkpt lat="47.44991" lon="6.68947">
        <ele>302</ele>
        <time>2014-11-23T09:50:04.000Z</time>
      </trkpt>
      <trkpt lat="47.44988" lon="6.68945">
        <ele>301.9</ele>
        <time>2014-11-23T09:50:05.000Z</time>
      </trkpt>
      <trkpt lat="47.44985" lon="6.68943">
        <ele>302.5</ele>
        <time>2014-11-23T09:50:06.000Z</time>
      </trkpt>
      <trkpt lat="47.44983" lon="6.6894">
        <ele>302.9</ele>
        <time>2014-11-23T09:50:07.000Z</time>
      </trkpt>
      <trkpt lat="47.4498" lon="6.68938">
        <ele>303.6</ele>
        <time>2014-11-23T09:50:08.000Z</time>
      </trkpt>
      <trkpt lat="47.44978" lon="6.68935">
        <ele>303.8</ele>
        <time>2014-11-23T09:50:09.000Z</time>
      </trkpt>
      <trkpt lat="47.44975" lon="6.68933">
        <ele>302.5</ele>
        <time>2014-11-23T09:50:10.000Z</time>
      </trkpt>
      <trkpt lat="47.44972" lon="6.68932">
        <ele>302.2</ele>
        <time>2014-11-23T09:50:11.000Z</time>
      </trkpt>
      <trkpt lat="47.4497" lon="6.6893">
        <ele>302.1</ele>
        <time>2014-11-23T09:50:12.000Z</time>
      </trkpt>
      <trkpt lat="47.44967" lon="6.68928">
        <ele>302.1</ele>
        <time>2014-11-23T09:50:13.000Z</time>
      </trkpt>
      <trkpt lat="47.44965" lon="6.68926">
        <ele>302.3</ele>
        <time>2014-11-23T09:50:14.000Z</time>
      </trkpt>
      <trkpt lat="47.44962" lon="6.68924">
        <ele>302.3</ele>
        <time>2014-11-23T09:50:15.000Z</time>
      </trkpt>
      <trkpt lat="47.4496" lon="6.68921">
        <ele>302.1</ele>
        <time>2014-11-23T09:50:16.000Z</time>
      </trkpt>
      <trkpt lat="47.44957" lon="6.68919">
        <ele>303.8</ele>
        <time>2014-11-23T09:50:17.000Z</time>
      </trkpt>
      <trkpt lat="47.44955" lon="6.68915">
        <ele>304.3</ele>
        <time>2014-11-23T09:50:18.000Z</time>
      </trkpt>
      <trkpt lat="47.44952" lon="6.68912">
        <ele>304.9</ele>
        <time>2014-11-23T09:50:19.000Z</time>
      </trkpt>
      <trkpt lat="47.4495" lon="6.68909">
        <ele>305.1</ele>
        <time>2014-11-23T09:50:20.000Z</time>
      </trkpt>
      <trkpt lat="47.44947" lon="6.68906">
        <ele>306</ele>
        <time>2014-11-23T09:50:21.000Z</time>
      </trkpt>
      <trkpt lat="47.44944" lon="6.68903">
        <ele>303.9</ele>
        <time>2014-11-23T09:50:22.000Z</time>
      </trkpt>
      <trkpt lat="47.44941" lon="6.68899">
        <ele>303.9</ele>
        <time>2014-11-23T09:50:23.000Z</time>
      </trkpt>
      <trkpt lat="47.44939" lon="6.68896">
        <ele>304</ele>
        <time>2014-11-23T09:50:24.000Z</time>
      </trkpt>
      <trkpt lat="47.44936" lon="6.68893">
        <ele>305.4</ele>
        <time>2014-11-23T09:50:25.000Z</time>
      </trkpt>
      <trkpt lat="47.44934" lon="6.68889">
        <ele>306.4</ele>
        <time>2014-11-23T09:50:26.000Z</time>
      </trkpt>
      <trkpt lat="47.44931" lon="6.68886">
        <ele>307.7</ele>
        <time>2014-11-23T09:50:27.000Z</time>
      </trkpt>
      <trkpt lat="47.44929" lon="6.68882">
        <ele>308.7</ele>
        <time>2014-11-23T09:50:28.000Z</time>
      </trkpt>
      <trkpt lat="47.44903" lon="6.68848">
        <ele>309.6</ele>
        <time>2014-11-23T09:50:37.000Z</time>
      </trkpt>
      <trkpt lat="47.449" lon="6.68845">
        <ele>310.2</ele>
        <time>2014-11-23T09:50:38.000Z</time>
      </trkpt>
      <trkpt lat="47.44898" lon="6.68841">
        <ele>310.9</ele>
        <time>2014-11-23T09:50:39.000Z</time>
      </trkpt>
      <trkpt lat="47.44896" lon="6.68838">
        <ele>309.9</ele>
        <time>2014-11-23T09:50:40.000Z</time>
      </trkpt>
      <trkpt lat="47.44893" lon="6.68834">
        <ele>310.9</ele>
        <time>2014-11-23T09:50:41.000Z</time>
      </trkpt>
      <trkpt lat="47.4489" lon="6.68831">
        <ele>311.1</ele>
        <time>2014-11-23T09:50:42.000Z</time>
      </trkpt>
      <trkpt lat="47.44887" lon="6.68828">
        <ele>309.6</ele>
        <time>2014-11-23T09:50:43.000Z</time>
      </trkpt>
      <trkpt lat="47.44883" lon="6.68825">
        <ele>309</ele>
        <time>2014-11-23T09:50:44.000Z</time>
      </trkpt>
      <trkpt lat="47.4488" lon="6.68822">
        <ele>310.9</ele>
        <time>2014-11-23T09:50:45.000Z</time>
      </trkpt>
      <trkpt lat="47.44878" lon="6.68819">
        <ele>310.9</ele>
        <time>2014-11-23T09:50:46.000Z</time>
      </trkpt>
      <trkpt lat="47.44875" lon="6.68816">
        <ele>312.7</ele>
        <time>2014-11-23T09:50:47.000Z</time>
      </trkpt>
      <trkpt lat="47.44873" lon="6.68814">
        <ele>312</ele>
        <time>2014-11-23T09:50:48.000Z</time>
      </trkpt>
      <trkpt lat="47.4487" lon="6.68813">
        <ele>312</ele>
        <time>2014-11-23T09:50:49.000Z</time>
      </trkpt>
      <trkpt lat="47.44868" lon="6.68812">
        <ele>311.9</ele>
        <time>2014-11-23T09:50:50.000Z</time>
      </trkpt>
      <trkpt lat="47.44865" lon="6.68812">
        <ele>311.6</ele>
        <time>2014-11-23T09:50:51.000Z</time>
      </trkpt>
      <trkpt lat="47.44862" lon="6.68811">
        <ele>311.4</ele>
        <time>2014-11-23T09:50:52.000Z</time>
      </trkpt>
      <trkpt lat="47.4486" lon="6.6881">
        <ele>311.4</ele>
        <time>2014-11-23T09:50:53.000Z</time>
      </trkpt>
      <trkpt lat="47.44855" lon="6.68811">
        <ele>311.9</ele>
        <time>2014-11-23T09:50:55.000Z</time>
      </trkpt>
      <trkpt lat="47.44853" lon="6.68811">
        <ele>312.3</ele>
        <time>2014-11-23T09:50:56.000Z</time>
      </trkpt>
      <trkpt lat="47.4485" lon="6.68812">
        <ele>312.8</ele>
        <time>2014-11-23T09:50:58.000Z</time>
      </trkpt>
      <trkpt lat="47.44848" lon="6.68813">
        <ele>311.5</ele>
        <time>2014-11-23T09:50:59.000Z</time>
      </trkpt>
      <trkpt lat="47.44844" lon="6.68815">
        <ele>312.8</ele>
        <time>2014-11-23T09:51:03.000Z</time>
      </trkpt>
      <trkpt lat="47.44843" lon="6.68815">
        <ele>314.3</ele>
        <time>2014-11-23T09:51:04.000Z</time>
      </trkpt>
      <trkpt lat="47.44846" lon="6.68818">
        <ele>315.4</ele>
        <time>2014-11-23T09:51:08.000Z</time>
      </trkpt>
      <trkpt lat="47.44848" lon="6.6882">
        <ele>315.2</ele>
        <time>2014-11-23T09:51:09.000Z</time>
      </trkpt>
      <trkpt lat="47.44851" lon="6.68825">
        <ele>314.8</ele>
        <time>2014-11-23T09:51:11.000Z</time>
      </trkpt>
      <trkpt lat="47.44851" lon="6.68827">
        <ele>314.8</ele>
        <time>2014-11-23T09:51:12.000Z</time>
      </trkpt>
      <trkpt lat="47.44853" lon="6.68832">
        <ele>314.6</ele>
        <time>2014-11-23T09:51:15.000Z</time>
      </trkpt>
      <trkpt lat="47.44854" lon="6.68834">
        <ele>314.7</ele>
        <time>2014-11-23T09:51:16.000Z</time>
      </trkpt>
      <trkpt lat="47.44855" lon="6.6884">
        <ele>314.8</ele>
        <time>2014-11-23T09:51:19.000Z</time>
      </trkpt>
      <trkpt lat="47.44856" lon="6.68842">
        <ele>315.5</ele>
        <time>2014-11-23T09:51:20.000Z</time>
      </trkpt>
      <trkpt lat="47.44858" lon="6.68848">
        <ele>316.4</ele>
        <time>2014-11-23T09:51:23.000Z</time>
      </trkpt>
      <trkpt lat="47.44858" lon="6.68849">
        <ele>317</ele>
        <time>2014-11-23T09:51:24.000Z</time>
      </trkpt>
      <trkpt lat="47.44861" lon="6.68853">
        <ele>316.8</ele>
        <time>2014-11-23T09:51:26.000Z</time>
      </trkpt>
      <trkpt lat="47.44862" lon="6.68856">
        <ele>316.2</ele>
        <time>2014-11-23T09:51:27.000Z</time>
      </trkpt>
      <trkpt lat="47.44863" lon="6.68858">
        <ele>317.4</ele>
        <time>2014-11-23T09:51:28.000Z</time>
      </trkpt>
      <trkpt lat="47.44875" lon="6.68876">
        <ele>319.2</ele>
        <time>2014-11-23T09:51:37.000Z</time>
      </trkpt>
      <trkpt lat="47.44877" lon="6.6888">
        <ele>320.4</ele>
        <time>2014-11-23T09:51:40.000Z</time>
      </trkpt>
      <trkpt lat="47.44878" lon="6.68882">
        <ele>320.8</ele>
        <time>2014-11-23T09:51:41.000Z</time>
      </trkpt>
      <trkpt lat="47.4488" lon="6.68885">
        <ele>323.1</ele>
        <time>2014-11-23T09:51:43.000Z</time>
      </trkpt>
      <trkpt lat="47.44881" lon="6.68888">
        <ele>323.3</ele>
        <time>2014-11-23T09:51:44.000Z</time>
      </trkpt>
      <trkpt lat="47.44883" lon="6.68893">
        <ele>323.4</ele>
        <time>2014-11-23T09:51:46.000Z</time>
      </trkpt>
      <trkpt lat="47.44884" lon="6.68896">
        <ele>323.5</ele>
        <time>2014-11-23T09:51:47.000Z</time>
      </trkpt>
      <trkpt lat="47.44887" lon="6.68901">
        <ele>323.6</ele>
        <time>2014-11-23T09:51:49.000Z</time>
      </trkpt>
      <trkpt lat="47.44888" lon="6.68903">
        <ele>324.4</ele>
        <time>2014-11-23T09:51:50.000Z</time>
      </trkpt>
      <trkpt lat="47.44891" lon="6.68908">
        <ele>325.3</ele>
        <time>2014-11-23T09:51:52.000Z</time>
      </trkpt>
      <trkpt lat="47.44892" lon="6.6891">
        <ele>325.5</ele>
        <time>2014-11-23T09:51:53.000Z</time>
      </trkpt>
      <trkpt lat="47.44894" lon="6.68914">
        <ele>326.3</ele>
        <time>2014-11-23T09:51:55.000Z</time>
      </trkpt>
      <trkpt lat="47.44895" lon="6.68916">
        <ele>326.8</ele>
        <time>2014-11-23T09:51:56.000Z</time>
      </trkpt>
      <trkpt lat="47.44898" lon="6.6892">
        <ele>325.7</ele>
        <time>2014-11-23T09:51:58.000Z</time>
      </trkpt>
      <trkpt lat="47.44899" lon="6.68923">
        <ele>325.6</ele>
        <time>2014-11-23T09:51:59.000Z</time>
      </trkpt>
      <trkpt lat="47.44902" lon="6.68926">
        <ele>324</ele>
        <time>2014-11-23T09:52:01.000Z</time>
      </trkpt>
      <trkpt lat="47.44904" lon="6.68928">
        <ele>324.8</ele>
        <time>2014-11-23T09:52:02.000Z</time>
      </trkpt>
      <trkpt lat="47.44906" lon="6.68932">
        <ele>324.5</ele>
        <time>2014-11-23T09:52:04.000Z</time>
      </trkpt>
      <trkpt lat="47.44908" lon="6.68934">
        <ele>325</ele>
        <time>2014-11-23T09:52:05.000Z</time>
      </trkpt>
      <trkpt lat="47.4491" lon="6.68938">
        <ele>325.7</ele>
        <time>2014-11-23T09:52:07.000Z</time>
      </trkpt>
      <trkpt lat="47.44911" lon="6.6894">
        <ele>325.8</ele>
        <time>2014-11-23T09:52:08.000Z</time>
      </trkpt>
      <trkpt lat="47.44913" lon="6.68945">
        <ele>326.4</ele>
        <time>2014-11-23T09:52:10.000Z</time>
      </trkpt>
      <trkpt lat="47.44915" lon="6.68947">
        <ele>326</ele>
        <time>2014-11-23T09:52:11.000Z</time>
      </trkpt>
      <trkpt lat="47.44916" lon="6.68951">
        <ele>326.8</ele>
        <time>2014-11-23T09:52:13.000Z</time>
      </trkpt>
      <trkpt lat="47.44917" lon="6.68953">
        <ele>327.4</ele>
        <time>2014-11-23T09:52:14.000Z</time>
      </trkpt>
      <trkpt lat="47.4492" lon="6.68958">
        <ele>328.1</ele>
        <time>2014-11-23T09:52:16.000Z</time>
      </trkpt>
      <trkpt lat="47.44921" lon="6.6896">
        <ele>328.7</ele>
        <time>2014-11-23T09:52:17.000Z</time>
      </trkpt>
      <trkpt lat="47.44924" lon="6.68964">
        <ele>329.1</ele>
        <time>2014-11-23T09:52:19.000Z</time>
      </trkpt>
      <trkpt lat="47.44925" lon="6.68966">
        <ele>329.7</ele>
        <time>2014-11-23T09:52:20.000Z</time>
      </trkpt>
      <trkpt lat="47.44928" lon="6.6897">
        <ele>330.1</ele>
        <time>2014-11-23T09:52:22.000Z</time>
      </trkpt>
      <trkpt lat="47.44929" lon="6.68972">
        <ele>330.3</ele>
        <time>2014-11-23T09:52:23.000Z</time>
      </trkpt>
      <trkpt lat="47.44932" lon="6.68975">
        <ele>331.2</ele>
        <time>2014-11-23T09:52:25.000Z</time>
      </trkpt>
      <trkpt lat="47.44933" lon="6.68976">
        <ele>331.8</ele>
        <time>2014-11-23T09:52:26.000Z</time>
      </trkpt>
      <trkpt lat="47.44936" lon="6.68979">
        <ele>332.1</ele>
        <time>2014-11-23T09:52:28.000Z</time>
      </trkpt>
      <trkpt lat="47.44946" lon="6.68995">
        <ele>335.3</ele>
        <time>2014-11-23T09:52:37.000Z</time>
      </trkpt>
      <trkpt lat="47.44949" lon="6.69">
        <ele>335.2</ele>
        <time>2014-11-23T09:52:40.000Z</time>
      </trkpt>
      <trkpt lat="47.4495" lon="6.69004">
        <ele>334.1</ele>
        <time>2014-11-23T09:52:41.000Z</time>
      </trkpt>
      <trkpt lat="47.44952" lon="6.69009">
        <ele>336.2</ele>
        <time>2014-11-23T09:52:43.000Z</time>
      </trkpt>
      <trkpt lat="47.44953" lon="6.69011">
        <ele>337.5</ele>
        <time>2014-11-23T09:52:44.000Z</time>
      </trkpt>
      <trkpt lat="47.44955" lon="6.69015">
        <ele>336.8</ele>
        <time>2014-11-23T09:52:46.000Z</time>
      </trkpt>
      <trkpt lat="47.44957" lon="6.69017">
        <ele>337.1</ele>
        <time>2014-11-23T09:52:47.000Z</time>
      </trkpt>
      <trkpt lat="47.4496" lon="6.69021">
        <ele>337.9</ele>
        <time>2014-11-23T09:52:49.000Z</time>
      </trkpt>
      <trkpt lat="47.44961" lon="6.69023">
        <ele>338.4</ele>
        <time>2014-11-23T09:52:50.000Z</time>
      </trkpt>
      <trkpt lat="47.44964" lon="6.69027">
        <ele>340</ele>
        <time>2014-11-23T09:52:52.000Z</time>
      </trkpt>
      <trkpt lat="47.44966" lon="6.69029">
        <ele>341.4</ele>
        <time>2014-11-23T09:52:53.000Z</time>
      </trkpt>
      <trkpt lat="47.44969" lon="6.69032">
        <ele>341.1</ele>
        <time>2014-11-23T09:52:55.000Z</time>
      </trkpt>
      <trkpt lat="47.44971" lon="6.69034">
        <ele>341.2</ele>
        <time>2014-11-23T09:52:56.000Z</time>
      </trkpt>
      <trkpt lat="47.44974" lon="6.69039">
        <ele>341.4</ele>
        <time>2014-11-23T09:52:58.000Z</time>
      </trkpt>
      <trkpt lat="47.44975" lon="6.69041">
        <ele>340.9</ele>
        <time>2014-11-23T09:52:59.000Z</time>
      </trkpt>
      <trkpt lat="47.44977" lon="6.69046">
        <ele>340.6</ele>
        <time>2014-11-23T09:53:01.000Z</time>
      </trkpt>
      <trkpt lat="47.44978" lon="6.69048">
        <ele>340.7</ele>
        <time>2014-11-23T09:53:02.000Z</time>
      </trkpt>
      <trkpt lat="47.4498" lon="6.69053">
        <ele>341.6</ele>
        <time>2014-11-23T09:53:04.000Z</time>
      </trkpt>
      <trkpt lat="47.4498" lon="6.69055">
        <ele>340.4</ele>
        <time>2014-11-23T09:53:05.000Z</time>
      </trkpt>
      <trkpt lat="47.44981" lon="6.69061">
        <ele>340.8</ele>
        <time>2014-11-23T09:53:07.000Z</time>
      </trkpt>
      <trkpt lat="47.44981" lon="6.69063">
        <ele>340.9</ele>
        <time>2014-11-23T09:53:08.000Z</time>
      </trkpt>
      <trkpt lat="47.44983" lon="6.69068">
        <ele>341.9</ele>
        <time>2014-11-23T09:53:10.000Z</time>
      </trkpt>
      <trkpt lat="47.44983" lon="6.6907">
        <ele>342.6</ele>
        <time>2014-11-23T09:53:11.000Z</time>
      </trkpt>
      <trkpt lat="47.44985" lon="6.69075">
        <ele>342.8</ele>
        <time>2014-11-23T09:53:13.000Z</time>
      </trkpt>
      <trkpt lat="47.44985" lon="6.69078">
        <ele>342.8</ele>
        <time>2014-11-23T09:53:14.000Z</time>
      </trkpt>
      <trkpt lat="47.44986" lon="6.69083">
        <ele>343.3</ele>
        <time>2014-11-23T09:53:16.000Z</time>
      </trkpt>
      <trkpt lat="47.44986" lon="6.69085">
        <ele>343.3</ele>
        <time>2014-11-23T09:53:17.000Z</time>
      </trkpt>
      <trkpt lat="47.44986" lon="6.6909">
        <ele>343.6</ele>
        <time>2014-11-23T09:53:19.000Z</time>
      </trkpt>
      <trkpt lat="47.44987" lon="6.69092">
        <ele>343.6</ele>
        <time>2014-11-23T09:53:20.000Z</time>
      </trkpt>
      <trkpt lat="47.44987" lon="6.69098">
        <ele>344</ele>
        <time>2014-11-23T09:53:23.000Z</time>
      </trkpt>
      <trkpt lat="47.44987" lon="6.691">
        <ele>346.4</ele>
        <time>2014-11-23T09:53:24.000Z</time>
      </trkpt>
      <trkpt lat="47.44987" lon="6.69105">
        <ele>350.6</ele>
        <time>2014-11-23T09:53:27.000Z</time>
      </trkpt>
      <trkpt lat="47.44987" lon="6.69107">
        <ele>351</ele>
        <time>2014-11-23T09:53:28.000Z</time>
      </trkpt>
      <trkpt lat="47.44987" lon="6.69109">
        <ele>350.2</ele>
        <time>2014-11-23T09:53:29.000Z</time>
      </trkpt>
      <trkpt lat="47.44989" lon="6.69115">
        <ele>351.2</ele>
        <time>2014-11-23T09:53:37.000Z</time>
      </trkpt>
      <trkpt lat="47.44989" lon="6.69122">
        <ele>356.6</ele>
        <time>2014-11-23T09:53:47.000Z</time>
      </trkpt>
      <trkpt lat="47.44989" lon="6.69124">
        <ele>356.6</ele>
        <time>2014-11-23T09:53:48.000Z</time>
      </trkpt>
      <trkpt lat="47.4499" lon="6.69129">
        <ele>356.2</ele>
        <time>2014-11-23T09:53:51.000Z</time>
      </trkpt>
      <trkpt lat="47.44991" lon="6.69131">
        <ele>356</ele>
        <time>2014-11-23T09:53:52.000Z</time>
      </trkpt>
      <trkpt lat="47.44993" lon="6.69136">
        <ele>356.8</ele>
        <time>2014-11-23T09:53:58.000Z</time>
      </trkpt>
      <trkpt lat="47.44994" lon="6.69138">
        <ele>356.6</ele>
        <time>2014-11-23T09:53:59.000Z</time>
      </trkpt>
      <trkpt lat="47.44995" lon="6.69143">
        <ele>355.1</ele>
        <time>2014-11-23T09:54:02.000Z</time>
      </trkpt>
      <trkpt lat="47.44996" lon="6.69145">
        <ele>355.1</ele>
        <time>2014-11-23T09:54:03.000Z</time>
      </trkpt>
      <trkpt lat="47.44997" lon="6.6915">
        <ele>357.1</ele>
        <time>2014-11-23T09:54:06.000Z</time>
      </trkpt>
      <trkpt lat="47.44997" lon="6.69151">
        <ele>357.8</ele>
        <time>2014-11-23T09:54:07.000Z</time>
      </trkpt>
      <trkpt lat="47.44999" lon="6.69155">
        <ele>355</ele>
        <time>2014-11-23T09:54:10.000Z</time>
      </trkpt>
      <trkpt lat="47.44999" lon="6.69157">
        <ele>354.8</ele>
        <time>2014-11-23T09:54:11.000Z</time>
      </trkpt>
      <trkpt lat="47.45001" lon="6.69162">
        <ele>354.5</ele>
        <time>2014-11-23T09:54:15.000Z</time>
      </trkpt>
      <trkpt lat="47.45002" lon="6.69163">
        <ele>354.9</ele>
        <time>2014-11-23T09:54:16.000Z</time>
      </trkpt>
      <trkpt lat="47.45002" lon="6.69169">
        <ele>357</ele>
        <time>2014-11-23T09:54:37.000Z</time>
      </trkpt>
      <trkpt lat="47.45002" lon="6.69171">
        <ele>357</ele>
        <time>2014-11-23T09:54:38.000Z</time>
      </trkpt>
      <trkpt lat="47.45001" lon="6.69174">
        <ele>359.2</ele>
        <time>2014-11-23T09:54:40.000Z</time>
      </trkpt>
      <trkpt lat="47.45001" lon="6.69178">
        <ele>361.3</ele>
        <time>2014-11-23T09:54:41.000Z</time>
      </trkpt>
      <trkpt lat="47.45001" lon="6.69181">
        <ele>360.1</ele>
        <time>2014-11-23T09:54:42.000Z</time>
      </trkpt>
      <trkpt lat="47.45001" lon="6.69185">
        <ele>360.2</ele>
        <time>2014-11-23T09:54:43.000Z</time>
      </trkpt>
      <trkpt lat="47.45001" lon="6.69189">
        <ele>360.7</ele>
        <time>2014-11-23T09:54:44.000Z</time>
      </trkpt>
      <trkpt lat="47.45" lon="6.69192">
        <ele>361.9</ele>
        <time>2014-11-23T09:54:45.000Z</time>
      </trkpt>
      <trkpt lat="47.45" lon="6.69198">
        <ele>361.7</ele>
        <time>2014-11-23T09:54:47.000Z</time>
      </trkpt>
      <trkpt lat="47.44999" lon="6.692">
        <ele>362.4</ele>
        <time>2014-11-23T09:54:48.000Z</time>
      </trkpt>
      <trkpt lat="47.44999" lon="6.69205">
        <ele>362.2</ele>
        <time>2014-11-23T09:54:50.000Z</time>
      </trkpt>
      <trkpt lat="47.44999" lon="6.69207">
        <ele>362.5</ele>
        <time>2014-11-23T09:54:51.000Z</time>
      </trkpt>
      <trkpt lat="47.45" lon="6.69212">
        <ele>363.1</ele>
        <time>2014-11-23T09:54:53.000Z</time>
      </trkpt>
      <trkpt lat="47.45" lon="6.69215">
        <ele>363</ele>
        <time>2014-11-23T09:54:54.000Z</time>
      </trkpt>
      <trkpt lat="47.45001" lon="6.6922">
        <ele>365.1</ele>
        <time>2014-11-23T09:54:56.000Z</time>
      </trkpt>
      <trkpt lat="47.45002" lon="6.69223">
        <ele>365.5</ele>
        <time>2014-11-23T09:54:57.000Z</time>
      </trkpt>
      <trkpt lat="47.45003" lon="6.69228">
        <ele>364.9</ele>
        <time>2014-11-23T09:54:59.000Z</time>
      </trkpt>
      <trkpt lat="47.45003" lon="6.69232">
        <ele>364.6</ele>
        <time>2014-11-23T09:55:00.000Z</time>
      </trkpt>
      <trkpt lat="47.45002" lon="6.69237">
        <ele>365.7</ele>
        <time>2014-11-23T09:55:02.000Z</time>
      </trkpt>
      <trkpt lat="47.45002" lon="6.69238">
        <ele>368</ele>
        <time>2014-11-23T09:55:03.000Z</time>
      </trkpt>
      <trkpt lat="47.44998" lon="6.69242">
        <ele>363.6</ele>
        <time>2014-11-23T09:55:16.000Z</time>
      </trkpt>
      <trkpt lat="47.44998" lon="6.69243">
        <ele>363.6</ele>
        <time>2014-11-23T09:55:17.000Z</time>
      </trkpt>
      <trkpt lat="47.45" lon="6.69248">
        <ele>361.4</ele>
        <time>2014-11-23T09:55:21.000Z</time>
      </trkpt>
      <trkpt lat="47.45001" lon="6.69249">
        <ele>361.9</ele>
        <time>2014-11-23T09:55:22.000Z</time>
      </trkpt>
      <trkpt lat="47.45005" lon="6.69251">
        <ele>361.1</ele>
        <time>2014-11-23T09:55:29.000Z</time>
      </trkpt>
      <trkpt lat="47.45006" lon="6.69253">
        <ele>361.1</ele>
        <time>2014-11-23T09:55:37.000Z</time>
      </trkpt>
      <trkpt lat="47.45008" lon="6.69258">
        <ele>360.8</ele>
        <time>2014-11-23T09:55:43.000Z</time>
      </trkpt>
      <trkpt lat="47.45008" lon="6.69259">
        <ele>360.2</ele>
        <time>2014-11-23T09:55:44.000Z</time>
      </trkpt>
      <trkpt lat="47.4501" lon="6.69265">
        <ele>357.9</ele>
        <time>2014-11-23T09:55:51.000Z</time>
      </trkpt>
      <trkpt lat="47.45011" lon="6.69267">
        <ele>358</ele>
        <time>2014-11-23T09:55:52.000Z</time>
      </trkpt>
      <trkpt lat="47.45012" lon="6.69272">
        <ele>357.1</ele>
        <time>2014-11-23T09:55:56.000Z</time>
      </trkpt>
      <trkpt lat="47.45013" lon="6.69273">
        <ele>357.1</ele>
        <time>2014-11-23T09:55:57.000Z</time>
      </trkpt>
      <trkpt lat="47.45013" lon="6.69278">
        <ele>357.7</ele>
        <time>2014-11-23T09:56:03.000Z</time>
      </trkpt>
      <trkpt lat="47.45014" lon="6.69279">
        <ele>357.2</ele>
        <time>2014-11-23T09:56:04.000Z</time>
      </trkpt>
      <trkpt lat="47.45015" lon="6.69284">
        <ele>354.5</ele>
        <time>2014-11-23T09:56:07.000Z</time>
      </trkpt>
      <trkpt lat="47.45015" lon="6.69286">
        <ele>354.8</ele>
        <time>2014-11-23T09:56:08.000Z</time>
      </trkpt>
      <trkpt lat="47.45013" lon="6.69291">
        <ele>354</ele>
        <time>2014-11-23T09:56:17.000Z</time>
      </trkpt>
      <trkpt lat="47.45012" lon="6.69292">
        <ele>353.4</ele>
        <time>2014-11-23T09:56:18.000Z</time>
      </trkpt>
      <trkpt lat="47.45011" lon="6.69298">
        <ele>357.6</ele>
        <time>2014-11-23T09:56:25.000Z</time>
      </trkpt>
      <trkpt lat="47.45011" lon="6.693">
        <ele>357.4</ele>
        <time>2014-11-23T09:56:26.000Z</time>
      </trkpt>
      <trkpt lat="47.45009" lon="6.69302">
        <ele>356.5</ele>
        <time>2014-11-23T09:56:28.000Z</time>
      </trkpt>
      <trkpt lat="47.45007" lon="6.69303">
        <ele>359</ele>
        <time>2014-11-23T09:56:37.000Z</time>
      </trkpt>
      <trkpt lat="47.45005" lon="6.69308">
        <ele>360.2</ele>
        <time>2014-11-23T09:56:52.000Z</time>
      </trkpt>
      <trkpt lat="47.45005" lon="6.69309">
        <ele>360.1</ele>
        <time>2014-11-23T09:56:53.000Z</time>
      </trkpt>
      <trkpt lat="47.45002" lon="6.69315">
        <ele>361.1</ele>
        <time>2014-11-23T09:56:56.000Z</time>
      </trkpt>
      <trkpt lat="47.45001" lon="6.69316">
        <ele>363.5</ele>
        <time>2014-11-23T09:56:57.000Z</time>
      </trkpt>
      <trkpt lat="47.44999" lon="6.69322">
        <ele>365.3</ele>
        <time>2014-11-23T09:57:00.000Z</time>
      </trkpt>
      <trkpt lat="47.44998" lon="6.69323">
        <ele>365.2</ele>
        <time>2014-11-23T09:57:01.000Z</time>
      </trkpt>
      <trkpt lat="47.44996" lon="6.69329">
        <ele>365.7</ele>
        <time>2014-11-23T09:57:04.000Z</time>
      </trkpt>
      <trkpt lat="47.44996" lon="6.69331">
        <ele>368.5</ele>
        <time>2014-11-23T09:57:05.000Z</time>
      </trkpt>
      <trkpt lat="47.44995" lon="6.69336">
        <ele>368.8</ele>
        <time>2014-11-23T09:57:07.000Z</time>
      </trkpt>
      <trkpt lat="47.44994" lon="6.69338">
        <ele>368.3</ele>
        <time>2014-11-23T09:57:08.000Z</time>
      </trkpt>
      <trkpt lat="47.44994" lon="6.69344">
        <ele>370.8</ele>
        <time>2014-11-23T09:57:10.000Z</time>
      </trkpt>
      <trkpt lat="47.44994" lon="6.69346">
        <ele>371.4</ele>
        <time>2014-11-23T09:57:11.000Z</time>
      </trkpt>
      <trkpt lat="47.44996" lon="6.69351">
        <ele>372</ele>
        <time>2014-11-23T09:57:16.000Z</time>
      </trkpt>
      <trkpt lat="47.44997" lon="6.69352">
        <ele>371.8</ele>
        <time>2014-11-23T09:57:17.000Z</time>
      </trkpt>
      <trkpt lat="47.44995" lon="6.69356">
        <ele>379</ele>
        <time>2014-11-23T09:57:23.000Z</time>
      </trkpt>
      <trkpt lat="47.44994" lon="6.69358">
        <ele>380.2</ele>
        <time>2014-11-23T09:57:24.000Z</time>
      </trkpt>
      <trkpt lat="47.44993" lon="6.69361">
        <ele>382.7</ele>
        <time>2014-11-23T09:57:29.000Z</time>
      </trkpt>
      <trkpt lat="47.44991" lon="6.69364">
        <ele>386.8</ele>
        <time>2014-11-23T09:57:37.000Z</time>
      </trkpt>
      <trkpt lat="47.4499" lon="6.6937">
        <ele>385.9</ele>
        <time>2014-11-23T09:57:46.000Z</time>
      </trkpt>
      <trkpt lat="47.4499" lon="6.69371">
        <ele>385.6</ele>
        <time>2014-11-23T09:57:47.000Z</time>
      </trkpt>
      <trkpt lat="47.44986" lon="6.69374">
        <ele>389.2</ele>
        <time>2014-11-23T09:58:08.000Z</time>
      </trkpt>
      <trkpt lat="47.44986" lon="6.69374">
        <ele>389.7</ele>
        <time>2014-11-23T09:58:09.000Z</time>
      </trkpt>
      <trkpt lat="47.44985" lon="6.6938">
        <ele>390.1</ele>
        <time>2014-11-23T09:58:18.000Z</time>
      </trkpt>
      <trkpt lat="47.44985" lon="6.69381">
        <ele>389.7</ele>
        <time>2014-11-23T09:58:19.000Z</time>
      </trkpt>
      <trkpt lat="47.44983" lon="6.69386">
        <ele>388.1</ele>
        <time>2014-11-23T09:58:23.000Z</time>
      </trkpt>
      <trkpt lat="47.44983" lon="6.69388">
        <ele>388</ele>
        <time>2014-11-23T09:58:24.000Z</time>
      </trkpt>
      <trkpt lat="47.44981" lon="6.69394">
        <ele>384.6</ele>
        <time>2014-11-23T09:58:34.000Z</time>
      </trkpt>
      <trkpt lat="47.44981" lon="6.69394">
        <ele>384.7</ele>
        <time>2014-11-23T09:58:35.000Z</time>
      </trkpt>
      <trkpt lat="47.44978" lon="6.69398">
        <ele>384.6</ele>
        <time>2014-11-23T09:58:40.000Z</time>
      </trkpt>
      <trkpt lat="47.44977" lon="6.69399">
        <ele>386.3</ele>
        <time>2014-11-23T09:58:41.000Z</time>
      </trkpt>
      <trkpt lat="47.44975" lon="6.69404">
        <ele>384.7</ele>
        <time>2014-11-23T09:58:44.000Z</time>
      </trkpt>
      <trkpt lat="47.44975" lon="6.69405">
        <ele>384.8</ele>
        <time>2014-11-23T09:58:45.000Z</time>
      </trkpt>
      <trkpt lat="47.44973" lon="6.6941">
        <ele>384.8</ele>
        <time>2014-11-23T09:58:56.000Z</time>
      </trkpt>
      <trkpt lat="47.44972" lon="6.69411">
        <ele>384.7</ele>
        <time>2014-11-23T09:58:57.000Z</time>
      </trkpt>
      <trkpt lat="47.4497" lon="6.69415">
        <ele>384.7</ele>
        <time>2014-11-23T09:59:03.000Z</time>
      </trkpt>
      <trkpt lat="47.44969" lon="6.69416">
        <ele>384.5</ele>
        <time>2014-11-23T09:59:04.000Z</time>
      </trkpt>
      <trkpt lat="47.44966" lon="6.69419">
        <ele>384.3</ele>
        <time>2014-11-23T09:59:06.000Z</time>
      </trkpt>
      <trkpt lat="47.44965" lon="6.69421">
        <ele>384.4</ele>
        <time>2014-11-23T09:59:07.000Z</time>
      </trkpt>
      <trkpt lat="47.44962" lon="6.69425">
        <ele>387</ele>
        <time>2014-11-23T09:59:10.000Z</time>
      </trkpt>
      <trkpt lat="47.44961" lon="6.69426">
        <ele>387.3</ele>
        <time>2014-11-23T09:59:11.000Z</time>
      </trkpt>
      <trkpt lat="47.44957" lon="6.6943">
        <ele>388</ele>
        <time>2014-11-23T09:59:15.000Z</time>
      </trkpt>
      <trkpt lat="47.44956" lon="6.6943">
        <ele>389.1</ele>
        <time>2014-11-23T09:59:16.000Z</time>
      </trkpt>
      <trkpt lat="47.44953" lon="6.69434">
        <ele>391.9</ele>
        <time>2014-11-23T09:59:20.000Z</time>
      </trkpt>
      <trkpt lat="47.44952" lon="6.69435">
        <ele>392.3</ele>
        <time>2014-11-23T09:59:21.000Z</time>
      </trkpt>
      <trkpt lat="47.44949" lon="6.69439">
        <ele>394</ele>
        <time>2014-11-23T09:59:24.000Z</time>
      </trkpt>
      <trkpt lat="47.44948" lon="6.6944">
        <ele>395.5</ele>
        <time>2014-11-23T09:59:25.000Z</time>
      </trkpt>
      <trkpt lat="47.44945" lon="6.69445">
        <ele>346.1</ele>
        <time>2014-11-23T10:01:52.000Z</time>
      </trkpt>
      <trkpt lat="47.44944" lon="6.69446">
        <ele>349.3</ele>
        <time>2014-11-23T10:01:53.000Z</time>
      </trkpt>
      <trkpt lat="47.44942" lon="6.69449">
        <ele>352</ele>
        <time>2014-11-23T10:01:55.000Z</time>
      </trkpt>
      <trkpt lat="47.4494" lon="6.69452">
        <ele>355</ele>
        <time>2014-11-23T10:01:56.000Z</time>
      </trkpt>
      <trkpt lat="47.44938" lon="6.69454">
        <ele>355.5</ele>
        <time>2014-11-23T10:01:57.000Z</time>
      </trkpt>
      <trkpt lat="47.44936" lon="6.69457">
        <ele>355</ele>
        <time>2014-11-23T10:01:58.000Z</time>
      </trkpt>
      <trkpt lat="47.44933" lon="6.69461">
        <ele>356.3</ele>
        <time>2014-11-23T10:02:00.000Z</time>
      </trkpt>
      <trkpt lat="47.44932" lon="6.69463">
        <ele>357.7</ele>
        <time>2014-11-23T10:02:01.000Z</time>
      </trkpt>
      <trkpt lat="47.4493" lon="6.69468">
        <ele>364.2</ele>
        <time>2014-11-23T10:02:03.000Z</time>
      </trkpt>
      <trkpt lat="47.44928" lon="6.69471">
        <ele>366.6</ele>
        <time>2014-11-23T10:02:04.000Z</time>
      </trkpt>
      <trkpt lat="47.44926" lon="6.69476">
        <ele>371</ele>
        <time>2014-11-23T10:02:06.000Z</time>
      </trkpt>
      <trkpt lat="47.44924" lon="6.69479">
        <ele>369.7</ele>
        <time>2014-11-23T10:02:07.000Z</time>
      </trkpt>
      <trkpt lat="47.44924" lon="6.69485">
        <ele>372.7</ele>
        <time>2014-11-23T10:02:09.000Z</time>
      </trkpt>
      <trkpt lat="47.44923" lon="6.69488">
        <ele>375.6</ele>
        <time>2014-11-23T10:02:10.000Z</time>
      </trkpt>
      <trkpt lat="47.44923" lon="6.69492">
        <ele>377.8</ele>
        <time>2014-11-23T10:02:12.000Z</time>
      </trkpt>
      <trkpt lat="47.44922" lon="6.69494">
        <ele>378.5</ele>
        <time>2014-11-23T10:02:13.000Z</time>
      </trkpt>
      <trkpt lat="47.4492" lon="6.69499">
        <ele>383.3</ele>
        <time>2014-11-23T10:02:15.000Z</time>
      </trkpt>
      <trkpt lat="47.4492" lon="6.69501">
        <ele>384.5</ele>
        <time>2014-11-23T10:02:16.000Z</time>
      </trkpt>
      <trkpt lat="47.44918" lon="6.69506">
        <ele>385.6</ele>
        <time>2014-11-23T10:02:18.000Z</time>
      </trkpt>
      <trkpt lat="47.44917" lon="6.69508">
        <ele>386.9</ele>
        <time>2014-11-23T10:02:19.000Z</time>
      </trkpt>
      <trkpt lat="47.44914" lon="6.69512">
        <ele>387.1</ele>
        <time>2014-11-23T10:02:21.000Z</time>
      </trkpt>
      <trkpt lat="47.44913" lon="6.69514">
        <ele>388.8</ele>
        <time>2014-11-23T10:02:22.000Z</time>
      </trkpt>
      <trkpt lat="47.44911" lon="6.69519">
        <ele>389</ele>
        <time>2014-11-23T10:02:24.000Z</time>
      </trkpt>
      <trkpt lat="47.44911" lon="6.69522">
        <ele>390</ele>
        <time>2014-11-23T10:02:25.000Z</time>
      </trkpt>
      <trkpt lat="47.44911" lon="6.69528">
        <ele>392.5</ele>
        <time>2014-11-23T10:02:27.000Z</time>
      </trkpt>
      <trkpt lat="47.4491" lon="6.69531">
        <ele>393</ele>
        <time>2014-11-23T10:02:28.000Z</time>
      </trkpt>
      <trkpt lat="47.4491" lon="6.69534">
        <ele>395.8</ele>
        <time>2014-11-23T10:02:29.000Z</time>
      </trkpt>
      <trkpt lat="47.44902" lon="6.69551">
        <ele>391.3</ele>
        <time>2014-11-23T10:02:37.000Z</time>
      </trkpt>
      <trkpt lat="47.44901" lon="6.69556">
        <ele>391.7</ele>
        <time>2014-11-23T10:02:39.000Z</time>
      </trkpt>
      <trkpt lat="47.44902" lon="6.69558">
        <ele>391.2</ele>
        <time>2014-11-23T10:02:40.000Z</time>
      </trkpt>
      <trkpt lat="47.44903" lon="6.69561">
        <ele>390.7</ele>
        <time>2014-11-23T10:02:41.000Z</time>
      </trkpt>
      <trkpt lat="47.44905" lon="6.69564">
        <ele>390.1</ele>
        <time>2014-11-23T10:02:42.000Z</time>
      </trkpt>
      <trkpt lat="47.44907" lon="6.69566">
        <ele>391.4</ele>
        <time>2014-11-23T10:02:43.000Z</time>
      </trkpt>
      <trkpt lat="47.44908" lon="6.69569">
        <ele>391.3</ele>
        <time>2014-11-23T10:02:44.000Z</time>
      </trkpt>
      <trkpt lat="47.4491" lon="6.69572">
        <ele>390.9</ele>
        <time>2014-11-23T10:02:45.000Z</time>
      </trkpt>
      <trkpt lat="47.44911" lon="6.69575">
        <ele>392.7</ele>
        <time>2014-11-23T10:02:46.000Z</time>
      </trkpt>
      <trkpt lat="47.44913" lon="6.69581">
        <ele>393.7</ele>
        <time>2014-11-23T10:02:48.000Z</time>
      </trkpt>
      <trkpt lat="47.44914" lon="6.69583">
        <ele>393</ele>
        <time>2014-11-23T10:02:49.000Z</time>
      </trkpt>
      <trkpt lat="47.44916" lon="6.69589">
        <ele>394.9</ele>
        <time>2014-11-23T10:02:51.000Z</time>
      </trkpt>
      <trkpt lat="47.44917" lon="6.69592">
        <ele>395.1</ele>
        <time>2014-11-23T10:02:52.000Z</time>
      </trkpt>
      <trkpt lat="47.44918" lon="6.69596">
        <ele>394.3</ele>
        <time>2014-11-23T10:02:53.000Z</time>
      </trkpt>
      <trkpt lat="47.44919" lon="6.696">
        <ele>393.7</ele>
        <time>2014-11-23T10:02:54.000Z</time>
      </trkpt>
      <trkpt lat="47.44922" lon="6.69604">
        <ele>394</ele>
        <time>2014-11-23T10:02:56.000Z</time>
      </trkpt>
      <trkpt lat="47.44924" lon="6.69606">
        <ele>393.5</ele>
        <time>2014-11-23T10:02:57.000Z</time>
      </trkpt>
      <trkpt lat="47.44926" lon="6.69608">
        <ele>394.8</ele>
        <time>2014-11-23T10:02:58.000Z</time>
      </trkpt>
      <trkpt lat="47.44928" lon="6.6961">
        <ele>395.8</ele>
        <time>2014-11-23T10:02:59.000Z</time>
      </trkpt>
      <trkpt lat="47.4493" lon="6.69613">
        <ele>396.5</ele>
        <time>2014-11-23T10:03:01.000Z</time>
      </trkpt>
      <trkpt lat="47.44931" lon="6.69615">
        <ele>396.4</ele>
        <time>2014-11-23T10:03:02.000Z</time>
      </trkpt>
      <trkpt lat="47.44934" lon="6.69618">
        <ele>397.6</ele>
        <time>2014-11-23T10:03:04.000Z</time>
      </trkpt>
      <trkpt lat="47.44935" lon="6.6962">
        <ele>399.6</ele>
        <time>2014-11-23T10:03:05.000Z</time>
      </trkpt>
      <trkpt lat="47.44937" lon="6.69624">
        <ele>399.2</ele>
        <time>2014-11-23T10:03:07.000Z</time>
      </trkpt>
      <trkpt lat="47.44938" lon="6.69626">
        <ele>400.1</ele>
        <time>2014-11-23T10:03:08.000Z</time>
      </trkpt>
      <trkpt lat="47.4494" lon="6.69629">
        <ele>401.8</ele>
        <time>2014-11-23T10:03:10.000Z</time>
      </trkpt>
      <trkpt lat="47.44942" lon="6.69631">
        <ele>402.1</ele>
        <time>2014-11-23T10:03:11.000Z</time>
      </trkpt>
      <trkpt lat="47.44945" lon="6.69634">
        <ele>401.9</ele>
        <time>2014-11-23T10:03:13.000Z</time>
      </trkpt>
      <trkpt lat="47.44946" lon="6.69635">
        <ele>402.4</ele>
        <time>2014-11-23T10:03:14.000Z</time>
      </trkpt>
      <trkpt lat="47.4495" lon="6.69639">
        <ele>402.3</ele>
        <time>2014-11-23T10:03:18.000Z</time>
      </trkpt>
      <trkpt lat="47.44951" lon="6.6964">
        <ele>402.5</ele>
        <time>2014-11-23T10:03:19.000Z</time>
      </trkpt>
      <trkpt lat="47.44954" lon="6.69644">
        <ele>404.2</ele>
        <time>2014-11-23T10:03:23.000Z</time>
      </trkpt>
      <trkpt lat="47.44955" lon="6.69645">
        <ele>404.3</ele>
        <time>2014-11-23T10:03:24.000Z</time>
      </trkpt>
      <trkpt lat="47.44957" lon="6.69651">
        <ele>405.5</ele>
        <time>2014-11-23T10:03:28.000Z</time>
      </trkpt>
      <trkpt lat="47.44958" lon="6.69653">
        <ele>404.9</ele>
        <time>2014-11-23T10:03:29.000Z</time>
      </trkpt>
      <trkpt lat="47.44963" lon="6.69665">
        <ele>400.8</ele>
        <time>2014-11-23T10:03:37.000Z</time>
      </trkpt>
      <trkpt lat="47.44965" lon="6.69669">
        <ele>402.6</ele>
        <time>2014-11-23T10:03:39.000Z</time>
      </trkpt>
      <trkpt lat="47.44967" lon="6.69671">
        <ele>403.2</ele>
        <time>2014-11-23T10:03:40.000Z</time>
      </trkpt>
      <trkpt lat="47.44969" lon="6.69676">
        <ele>403.8</ele>
        <time>2014-11-23T10:03:42.000Z</time>
      </trkpt>
      <trkpt lat="47.44971" lon="6.69678">
        <ele>403.6</ele>
        <time>2014-11-23T10:03:43.000Z</time>
      </trkpt>
      <trkpt lat="47.44973" lon="6.69683">
        <ele>403.5</ele>
        <time>2014-11-23T10:03:46.000Z</time>
      </trkpt>
      <trkpt lat="47.44974" lon="6.69684">
        <ele>403.9</ele>
        <time>2014-11-23T10:03:47.000Z</time>
      </trkpt>
      <trkpt lat="47.44976" lon="6.69689">
        <ele>406.6</ele>
        <time>2014-11-23T10:03:50.000Z</time>
      </trkpt>
      <trkpt lat="47.44977" lon="6.6969">
        <ele>407.4</ele>
        <time>2014-11-23T10:03:51.000Z</time>
      </trkpt>
      <trkpt lat="47.44979" lon="6.69694">
        <ele>407.9</ele>
        <time>2014-11-23T10:03:53.000Z</time>
      </trkpt>
      <trkpt lat="47.4498" lon="6.69697">
        <ele>408</ele>
        <time>2014-11-23T10:03:54.000Z</time>
      </trkpt>
      <trkpt lat="47.4498" lon="6.697">
        <ele>408.1</ele>
        <time>2014-11-23T10:03:55.000Z</time>
      </trkpt>
      <trkpt lat="47.4498" lon="6.69704">
        <ele>409.4</ele>
        <time>2014-11-23T10:03:56.000Z</time>
      </trkpt>
      <trkpt lat="47.44981" lon="6.69708">
        <ele>409.7</ele>
        <time>2014-11-23T10:03:57.000Z</time>
      </trkpt>
      <trkpt lat="47.44982" lon="6.69711">
        <ele>409.6</ele>
        <time>2014-11-23T10:03:58.000Z</time>
      </trkpt>
      <trkpt lat="47.44984" lon="6.69718">
        <ele>410.4</ele>
        <time>2014-11-23T10:04:00.000Z</time>
      </trkpt>
      <trkpt lat="47.44983" lon="6.6972">
        <ele>411.1</ele>
        <time>2014-11-23T10:04:01.000Z</time>
      </trkpt>
      <trkpt lat="47.44982" lon="6.69724">
        <ele>414.4</ele>
        <time>2014-11-23T10:04:03.000Z</time>
      </trkpt>
      <trkpt lat="47.44982" lon="6.69727">
        <ele>415.7</ele>
        <time>2014-11-23T10:04:04.000Z</time>
      </trkpt>
      <trkpt lat="47.44984" lon="6.69732">
        <ele>417.1</ele>
        <time>2014-11-23T10:04:06.000Z</time>
      </trkpt>
      <trkpt lat="47.44984" lon="6.69734">
        <ele>417.2</ele>
        <time>2014-11-23T10:04:07.000Z</time>
      </trkpt>
      <trkpt lat="47.44987" lon="6.69739">
        <ele>417.8</ele>
        <time>2014-11-23T10:04:09.000Z</time>
      </trkpt>
      <trkpt lat="47.44988" lon="6.69741">
        <ele>417.9</ele>
        <time>2014-11-23T10:04:10.000Z</time>
      </trkpt>
      <trkpt lat="47.4499" lon="6.69744">
        <ele>418.2</ele>
        <time>2014-11-23T10:04:11.000Z</time>
      </trkpt>
      <trkpt lat="47.44992" lon="6.69747">
        <ele>419.3</ele>
        <time>2014-11-23T10:04:12.000Z</time>
      </trkpt>
      <trkpt lat="47.44993" lon="6.6975">
        <ele>419.2</ele>
        <time>2014-11-23T10:04:13.000Z</time>
      </trkpt>
      <trkpt lat="47.44994" lon="6.69753">
        <ele>419.2</ele>
        <time>2014-11-23T10:04:14.000Z</time>
      </trkpt>
      <trkpt lat="47.44995" lon="6.69758">
        <ele>418.4</ele>
        <time>2014-11-23T10:04:16.000Z</time>
      </trkpt>
      <trkpt lat="47.44996" lon="6.69761">
        <ele>418.5</ele>
        <time>2014-11-23T10:04:17.000Z</time>
      </trkpt>
      <trkpt lat="47.44998" lon="6.69767">
        <ele>416.1</ele>
        <time>2014-11-23T10:04:19.000Z</time>
      </trkpt>
      <trkpt lat="47.44998" lon="6.6977">
        <ele>415.9</ele>
        <time>2014-11-23T10:04:20.000Z</time>
      </trkpt>
      <trkpt lat="47.44999" lon="6.69774">
        <ele>414.9</ele>
        <time>2014-11-23T10:04:21.000Z</time>
      </trkpt>
      <trkpt lat="47.45" lon="6.69777">
        <ele>415.8</ele>
        <time>2014-11-23T10:04:22.000Z</time>
      </trkpt>
      <trkpt lat="47.45001" lon="6.69781">
        <ele>416</ele>
        <time>2014-11-23T10:04:23.000Z</time>
      </trkpt>
      <trkpt lat="47.45002" lon="6.69785">
        <ele>415.7</ele>
        <time>2014-11-23T10:04:24.000Z</time>
      </trkpt>
      <trkpt lat="47.45003" lon="6.69788">
        <ele>415.6</ele>
        <time>2014-11-23T10:04:25.000Z</time>
      </trkpt>
      <trkpt lat="47.45005" lon="6.69791">
        <ele>415.4</ele>
        <time>2014-11-23T10:04:26.000Z</time>
      </trkpt>
      <trkpt lat="47.45006" lon="6.69795">
        <ele>415.6</ele>
        <time>2014-11-23T10:04:27.000Z</time>
      </trkpt>
      <trkpt lat="47.45007" lon="6.69797">
        <ele>411.8</ele>
        <time>2014-11-23T10:04:28.000Z</time>
      </trkpt>
      <trkpt lat="47.4502" lon="6.69822">
        <ele>411</ele>
        <time>2014-11-23T10:04:37.000Z</time>
      </trkpt>
      <trkpt lat="47.45023" lon="6.69826">
        <ele>410.8</ele>
        <time>2014-11-23T10:04:39.000Z</time>
      </trkpt>
      <trkpt lat="47.45025" lon="6.69828">
        <ele>410.4</ele>
        <time>2014-11-23T10:04:40.000Z</time>
      </trkpt>
      <trkpt lat="47.45027" lon="6.69833">
        <ele>411.3</ele>
        <time>2014-11-23T10:04:42.000Z</time>
      </trkpt>
      <trkpt lat="47.45028" lon="6.69836">
        <ele>412.5</ele>
        <time>2014-11-23T10:04:43.000Z</time>
      </trkpt>
      <trkpt lat="47.4503" lon="6.69839">
        <ele>413</ele>
        <time>2014-11-23T10:04:44.000Z</time>
      </trkpt>
      <trkpt lat="47.45031" lon="6.69843">
        <ele>413.2</ele>
        <time>2014-11-23T10:04:45.000Z</time>
      </trkpt>
      <trkpt lat="47.45033" lon="6.69847">
        <ele>413</ele>
        <time>2014-11-23T10:04:46.000Z</time>
      </trkpt>
      <trkpt lat="47.45034" lon="6.6985">
        <ele>413.1</ele>
        <time>2014-11-23T10:04:47.000Z</time>
      </trkpt>
      <trkpt lat="47.45036" lon="6.69854">
        <ele>414.1</ele>
        <time>2014-11-23T10:04:48.000Z</time>
      </trkpt>
      <trkpt lat="47.45037" lon="6.69857">
        <ele>414.2</ele>
        <time>2014-11-23T10:04:49.000Z</time>
      </trkpt>
      <trkpt lat="47.45038" lon="6.69861">
        <ele>414.4</ele>
        <time>2014-11-23T10:04:50.000Z</time>
      </trkpt>
      <trkpt lat="47.4504" lon="6.69864">
        <ele>413.3</ele>
        <time>2014-11-23T10:04:51.000Z</time>
      </trkpt>
      <trkpt lat="47.45042" lon="6.69868">
        <ele>412.4</ele>
        <time>2014-11-23T10:04:52.000Z</time>
      </trkpt>
      <trkpt lat="47.45044" lon="6.69871">
        <ele>410.9</ele>
        <time>2014-11-23T10:04:53.000Z</time>
      </trkpt>
      <trkpt lat="47.45046" lon="6.69875">
        <ele>411.6</ele>
        <time>2014-11-23T10:04:54.000Z</time>
      </trkpt>
      <trkpt lat="47.45048" lon="6.69878">
        <ele>411.2</ele>
        <time>2014-11-23T10:04:55.000Z</time>
      </trkpt>
      <trkpt lat="47.45049" lon="6.69882">
        <ele>412.3</ele>
        <time>2014-11-23T10:04:56.000Z</time>
      </trkpt>
      <trkpt lat="47.45051" lon="6.69886">
        <ele>412.8</ele>
        <time>2014-11-23T10:04:57.000Z</time>
      </trkpt>
      <trkpt lat="47.45053" lon="6.69892">
        <ele>413.3</ele>
        <time>2014-11-23T10:04:59.000Z</time>
      </trkpt>
      <trkpt lat="47.45054" lon="6.69894">
        <ele>413.7</ele>
        <time>2014-11-23T10:05:00.000Z</time>
      </trkpt>
      <trkpt lat="47.45056" lon="6.69899">
        <ele>414.4</ele>
        <time>2014-11-23T10:05:02.000Z</time>
      </trkpt>
      <trkpt lat="47.45057" lon="6.69902">
        <ele>415</ele>
        <time>2014-11-23T10:05:03.000Z</time>
      </trkpt>
      <trkpt lat="47.4506" lon="6.69905">
        <ele>415.6</ele>
        <time>2014-11-23T10:05:04.000Z</time>
      </trkpt>
      <trkpt lat="47.45062" lon="6.69908">
        <ele>414.2</ele>
        <time>2014-11-23T10:05:05.000Z</time>
      </trkpt>
      <trkpt lat="47.45064" lon="6.69912">
        <ele>412.7</ele>
        <time>2014-11-23T10:05:06.000Z</time>
      </trkpt>
      <trkpt lat="47.45067" lon="6.69916">
        <ele>414.7</ele>
        <time>2014-11-23T10:05:07.000Z</time>
      </trkpt>
      <trkpt lat="47.4507" lon="6.6992">
        <ele>415.1</ele>
        <time>2014-11-23T10:05:08.000Z</time>
      </trkpt>
      <trkpt lat="47.45072" lon="6.69925">
        <ele>414.9</ele>
        <time>2014-11-23T10:05:09.000Z</time>
      </trkpt>
      <trkpt lat="47.45075" lon="6.69929">
        <ele>415.2</ele>
        <time>2014-11-23T10:05:10.000Z</time>
      </trkpt>
      <trkpt lat="47.45077" lon="6.69933">
        <ele>415.4</ele>
        <time>2014-11-23T10:05:11.000Z</time>
      </trkpt>
      <trkpt lat="47.45079" lon="6.69937">
        <ele>415.2</ele>
        <time>2014-11-23T10:05:12.000Z</time>
      </trkpt>
      <trkpt lat="47.45081" lon="6.69941">
        <ele>415.7</ele>
        <time>2014-11-23T10:05:13.000Z</time>
      </trkpt>
      <trkpt lat="47.45083" lon="6.69945">
        <ele>417.3</ele>
        <time>2014-11-23T10:05:14.000Z</time>
      </trkpt>
      <trkpt lat="47.45085" lon="6.69949">
        <ele>418.2</ele>
        <time>2014-11-23T10:05:15.000Z</time>
      </trkpt>
      <trkpt lat="47.45086" lon="6.69953">
        <ele>419</ele>
        <time>2014-11-23T10:05:16.000Z</time>
      </trkpt>
      <trkpt lat="47.45088" lon="6.69957">
        <ele>417.7</ele>
        <time>2014-11-23T10:05:17.000Z</time>
      </trkpt>
      <trkpt lat="47.45089" lon="6.69962">
        <ele>418.1</ele>
        <time>2014-11-23T10:05:18.000Z</time>
      </trkpt>
      <trkpt lat="47.4509" lon="6.69966">
        <ele>418.3</ele>
        <time>2014-11-23T10:05:19.000Z</time>
      </trkpt>
      <trkpt lat="47.45091" lon="6.6997">
        <ele>419.9</ele>
        <time>2014-11-23T10:05:20.000Z</time>
      </trkpt>
      <trkpt lat="47.45092" lon="6.69974">
        <ele>420.6</ele>
        <time>2014-11-23T10:05:21.000Z</time>
      </trkpt>
      <trkpt lat="47.45092" lon="6.69978">
        <ele>420.4</ele>
        <time>2014-11-23T10:05:22.000Z</time>
      </trkpt>
      <trkpt lat="47.45093" lon="6.69982">
        <ele>420.8</ele>
        <time>2014-11-23T10:05:23.000Z</time>
      </trkpt>
      <trkpt lat="47.45094" lon="6.69986">
        <ele>421.3</ele>
        <time>2014-11-23T10:05:24.000Z</time>
      </trkpt>
      <trkpt lat="47.45095" lon="6.69989">
        <ele>421.9</ele>
        <time>2014-11-23T10:05:25.000Z</time>
      </trkpt>
      <trkpt lat="47.45095" lon="6.69993">
        <ele>421.8</ele>
        <time>2014-11-23T10:05:26.000Z</time>
      </trkpt>
      <trkpt lat="47.45096" lon="6.69996">
        <ele>422.2</ele>
        <time>2014-11-23T10:05:27.000Z</time>
      </trkpt>
      <trkpt lat="47.45097" lon="6.7">
        <ele>423.5</ele>
        <time>2014-11-23T10:05:28.000Z</time>
      </trkpt>
      <trkpt lat="47.45099" lon="6.70003">
        <ele>424</ele>
        <time>2014-11-23T10:05:29.000Z</time>
      </trkpt>
      <trkpt lat="47.45104" lon="6.70028">
        <ele>423</ele>
        <time>2014-11-23T10:05:37.000Z</time>
      </trkpt>
      <trkpt lat="47.45102" lon="6.70033">
        <ele>425.9</ele>
        <time>2014-11-23T10:05:40.000Z</time>
      </trkpt>
      <trkpt lat="47.45102" lon="6.70035">
        <ele>426.5</ele>
        <time>2014-11-23T10:05:41.000Z</time>
      </trkpt>
      <trkpt lat="47.45102" lon="6.70039">
        <ele>431.1</ele>
        <time>2014-11-23T10:05:43.000Z</time>
      </trkpt>
      <trkpt lat="47.45102" lon="6.70042">
        <ele>432.6</ele>
        <time>2014-11-23T10:05:44.000Z</time>
      </trkpt>
      <trkpt lat="47.45102" lon="6.70045">
        <ele>432.1</ele>
        <time>2014-11-23T10:05:45.000Z</time>
      </trkpt>
      <trkpt lat="47.45102" lon="6.70049">
        <ele>432</ele>
        <time>2014-11-23T10:05:46.000Z</time>
      </trkpt>
      <trkpt lat="47.45103" lon="6.70052">
        <ele>432.5</ele>
        <time>2014-11-23T10:05:47.000Z</time>
      </trkpt>
      <trkpt lat="47.45103" lon="6.70056">
        <ele>432.5</ele>
        <time>2014-11-23T10:05:48.000Z</time>
      </trkpt>
      <trkpt lat="47.45103" lon="6.70062">
        <ele>432.8</ele>
        <time>2014-11-23T10:05:52.000Z</time>
      </trkpt>
      <trkpt lat="47.45103" lon="6.70063">
        <ele>432.3</ele>
        <time>2014-11-23T10:05:53.000Z</time>
      </trkpt>
      <trkpt lat="47.45102" lon="6.70068">
        <ele>431</ele>
        <time>2014-11-23T10:06:03.000Z</time>
      </trkpt>
      <trkpt lat="47.45103" lon="6.70069">
        <ele>430.8</ele>
        <time>2014-11-23T10:06:04.000Z</time>
      </trkpt>
      <trkpt lat="47.45106" lon="6.70074">
        <ele>428.6</ele>
        <time>2014-11-23T10:06:08.000Z</time>
      </trkpt>
      <trkpt lat="47.45106" lon="6.70075">
        <ele>428.4</ele>
        <time>2014-11-23T10:06:09.000Z</time>
      </trkpt>
      <trkpt lat="47.45108" lon="6.70081">
        <ele>429</ele>
        <time>2014-11-23T10:06:15.000Z</time>
      </trkpt>
      <trkpt lat="47.45108" lon="6.70081">
        <ele>429</ele>
        <time>2014-11-23T10:06:16.000Z</time>
      </trkpt>
      <trkpt lat="47.45109" lon="6.70085">
        <ele>382</ele>
        <time>2014-11-23T10:07:10.000Z</time>
      </trkpt>
      <trkpt lat="47.4511" lon="6.70088">
        <ele>383.4</ele>
        <time>2014-11-23T10:07:11.000Z</time>
      </trkpt>
      <trkpt lat="47.45113" lon="6.70093">
        <ele>385.7</ele>
        <time>2014-11-23T10:07:15.000Z</time>
      </trkpt>
      <trkpt lat="47.45113" lon="6.70093">
        <ele>386.3</ele>
        <time>2014-11-23T10:07:16.000Z</time>
      </trkpt>
      <trkpt lat="47.45115" lon="6.70097">
        <ele>388</ele>
        <time>2014-11-23T10:07:29.000Z</time>
      </trkpt>
      <trkpt lat="47.45118" lon="6.70096">
        <ele>382</ele>
        <time>2014-11-23T10:07:37.000Z</time>
      </trkpt>
      <trkpt lat="47.45121" lon="6.70097">
        <ele>383</ele>
        <time>2014-11-23T10:07:40.000Z</time>
      </trkpt>
      <trkpt lat="47.45124" lon="6.70099">
        <ele>385.4</ele>
        <time>2014-11-23T10:07:41.000Z</time>
      </trkpt>
      <trkpt lat="47.45126" lon="6.701">
        <ele>387.4</ele>
        <time>2014-11-23T10:07:42.000Z</time>
      </trkpt>
      <trkpt lat="47.45129" lon="6.70103">
        <ele>389.3</ele>
        <time>2014-11-23T10:07:43.000Z</time>
      </trkpt>
      <trkpt lat="47.45132" lon="6.70105">
        <ele>390.6</ele>
        <time>2014-11-23T10:07:44.000Z</time>
      </trkpt>
      <trkpt lat="47.45135" lon="6.70107">
        <ele>391.1</ele>
        <time>2014-11-23T10:07:45.000Z</time>
      </trkpt>
      <trkpt lat="47.45137" lon="6.7011">
        <ele>394.5</ele>
        <time>2014-11-23T10:07:46.000Z</time>
      </trkpt>
      <trkpt lat="47.45139" lon="6.70114">
        <ele>396.6</ele>
        <time>2014-11-23T10:07:47.000Z</time>
      </trkpt>
      <trkpt lat="47.45141" lon="6.70117">
        <ele>397.5</ele>
        <time>2014-11-23T10:07:48.000Z</time>
      </trkpt>
      <trkpt lat="47.45143" lon="6.70121">
        <ele>398</ele>
        <time>2014-11-23T10:07:49.000Z</time>
      </trkpt>
      <trkpt lat="47.45145" lon="6.70124">
        <ele>400.5</ele>
        <time>2014-11-23T10:07:50.000Z</time>
      </trkpt>
      <trkpt lat="47.45148" lon="6.70126">
        <ele>402.4</ele>
        <time>2014-11-23T10:07:51.000Z</time>
      </trkpt>
      <trkpt lat="47.45151" lon="6.70128">
        <ele>402.9</ele>
        <time>2014-11-23T10:07:52.000Z</time>
      </trkpt>
      <trkpt lat="47.45154" lon="6.70129">
        <ele>403.2</ele>
        <time>2014-11-23T10:07:53.000Z</time>
      </trkpt>
      <trkpt lat="47.45157" lon="6.7013">
        <ele>403.5</ele>
        <time>2014-11-23T10:07:54.000Z</time>
      </trkpt>
      <trkpt lat="47.45161" lon="6.70132">
        <ele>403.7</ele>
        <time>2014-11-23T10:07:55.000Z</time>
      </trkpt>
      <trkpt lat="47.45171" lon="6.70136">
        <ele>404.8</ele>
        <time>2014-11-23T10:07:56.000Z</time>
      </trkpt>
      <trkpt lat="47.45174" lon="6.70139">
        <ele>404.5</ele>
        <time>2014-11-23T10:07:57.000Z</time>
      </trkpt>
      <trkpt lat="47.45178" lon="6.70144">
        <ele>407</ele>
        <time>2014-11-23T10:07:58.000Z</time>
      </trkpt>
      <trkpt lat="47.45182" lon="6.70148">
        <ele>407.5</ele>
        <time>2014-11-23T10:07:59.000Z</time>
      </trkpt>
      <trkpt lat="47.45186" lon="6.70151">
        <ele>407.3</ele>
        <time>2014-11-23T10:08:00.000Z</time>
      </trkpt>
      <trkpt lat="47.45191" lon="6.70152">
        <ele>406.6</ele>
        <time>2014-11-23T10:08:01.000Z</time>
      </trkpt>
      <trkpt lat="47.45197" lon="6.70154">
        <ele>406.3</ele>
        <time>2014-11-23T10:08:02.000Z</time>
      </trkpt>
      <trkpt lat="47.45201" lon="6.70157">
        <ele>407.1</ele>
        <time>2014-11-23T10:08:03.000Z</time>
      </trkpt>
      <trkpt lat="47.45208" lon="6.70161">
        <ele>408</ele>
        <time>2014-11-23T10:08:04.000Z</time>
      </trkpt>
      <trkpt lat="47.45215" lon="6.70164">
        <ele>408.8</ele>
        <time>2014-11-23T10:08:05.000Z</time>
      </trkpt>
      <trkpt lat="47.45219" lon="6.70164">
        <ele>409.5</ele>
        <time>2014-11-23T10:08:06.000Z</time>
      </trkpt>
      <trkpt lat="47.45224" lon="6.70166">
        <ele>410.5</ele>
        <time>2014-11-23T10:08:07.000Z</time>
      </trkpt>
      <trkpt lat="47.45229" lon="6.70169">
        <ele>410</ele>
        <time>2014-11-23T10:08:08.000Z</time>
      </trkpt>
      <trkpt lat="47.45235" lon="6.70172">
        <ele>409.6</ele>
        <time>2014-11-23T10:08:09.000Z</time>
      </trkpt>
      <trkpt lat="47.45239" lon="6.70174">
        <ele>409.6</ele>
        <time>2014-11-23T10:08:10.000Z</time>
      </trkpt>
      <trkpt lat="47.45245" lon="6.70177">
        <ele>409.3</ele>
        <time>2014-11-23T10:08:11.000Z</time>
      </trkpt>
      <trkpt lat="47.45249" lon="6.70179">
        <ele>409.3</ele>
        <time>2014-11-23T10:08:12.000Z</time>
      </trkpt>
      <trkpt lat="47.4525" lon="6.70182">
        <ele>410.3</ele>
        <time>2014-11-23T10:08:13.000Z</time>
      </trkpt>
      <trkpt lat="47.45253" lon="6.70182">
        <ele>410.9</ele>
        <time>2014-11-23T10:08:14.000Z</time>
      </trkpt>
      <trkpt lat="47.45255" lon="6.70183">
        <ele>411.9</ele>
        <time>2014-11-23T10:08:15.000Z</time>
      </trkpt>
      <trkpt lat="47.45256" lon="6.70188">
        <ele>409.1</ele>
        <time>2014-11-23T10:08:18.000Z</time>
      </trkpt>
      <trkpt lat="47.45258" lon="6.7019">
        <ele>406.3</ele>
        <time>2014-11-23T10:08:19.000Z</time>
      </trkpt>
      <trkpt lat="47.4526" lon="6.70196">
        <ele>408.7</ele>
        <time>2014-11-23T10:08:23.000Z</time>
      </trkpt>
      <trkpt lat="47.45261" lon="6.70198">
        <ele>410.6</ele>
        <time>2014-11-23T10:08:24.000Z</time>
      </trkpt>
      <trkpt lat="47.45263" lon="6.70201">
        <ele>412</ele>
        <time>2014-11-23T10:08:25.000Z</time>
      </trkpt>
      <trkpt lat="47.45264" lon="6.70204">
        <ele>412.2</ele>
        <time>2014-11-23T10:08:26.000Z</time>
      </trkpt>
      <trkpt lat="47.45268" lon="6.70208">
        <ele>413.8</ele>
        <time>2014-11-23T10:08:28.000Z</time>
      </trkpt>
      <trkpt lat="47.45269" lon="6.7021">
        <ele>415</ele>
        <time>2014-11-23T10:08:29.000Z</time>
      </trkpt>
      <trkpt lat="47.45271" lon="6.70222">
        <ele>414.3</ele>
        <time>2014-11-23T10:08:37.000Z</time>
      </trkpt>
      <trkpt lat="47.45273" lon="6.70227">
        <ele>414</ele>
        <time>2014-11-23T10:08:39.000Z</time>
      </trkpt>
      <trkpt lat="47.45273" lon="6.7023">
        <ele>414</ele>
        <time>2014-11-23T10:08:40.000Z</time>
      </trkpt>
      <trkpt lat="47.45274" lon="6.70235">
        <ele>415.2</ele>
        <time>2014-11-23T10:08:42.000Z</time>
      </trkpt>
      <trkpt lat="47.45274" lon="6.70238">
        <ele>415.7</ele>
        <time>2014-11-23T10:08:43.000Z</time>
      </trkpt>
      <trkpt lat="47.45274" lon="6.70243">
        <ele>417.2</ele>
        <time>2014-11-23T10:08:45.000Z</time>
      </trkpt>
      <trkpt lat="47.45275" lon="6.70246">
        <ele>418.8</ele>
        <time>2014-11-23T10:08:46.000Z</time>
      </trkpt>
      <trkpt lat="47.45275" lon="6.70253">
        <ele>420.9</ele>
        <time>2014-11-23T10:08:48.000Z</time>
      </trkpt>
      <trkpt lat="47.45275" lon="6.70256">
        <ele>421.5</ele>
        <time>2014-11-23T10:08:49.000Z</time>
      </trkpt>
      <trkpt lat="47.45275" lon="6.70262">
        <ele>422.5</ele>
        <time>2014-11-23T10:08:51.000Z</time>
      </trkpt>
      <trkpt lat="47.45276" lon="6.70265">
        <ele>422.6</ele>
        <time>2014-11-23T10:08:52.000Z</time>
      </trkpt>
      <trkpt lat="47.45276" lon="6.70271">
        <ele>424.5</ele>
        <time>2014-11-23T10:08:54.000Z</time>
      </trkpt>
      <trkpt lat="47.45276" lon="6.70274">
        <ele>424.2</ele>
        <time>2014-11-23T10:08:55.000Z</time>
      </trkpt>
      <trkpt lat="47.45276" lon="6.70277">
        <ele>424</ele>
        <time>2014-11-23T10:08:56.000Z</time>
      </trkpt>
      <trkpt lat="47.45276" lon="6.70281">
        <ele>421.2</ele>
        <time>2014-11-23T10:08:57.000Z</time>
      </trkpt>
      <trkpt lat="47.45276" lon="6.70286">
        <ele>419.8</ele>
        <time>2014-11-23T10:08:58.000Z</time>
      </trkpt>
      <trkpt lat="47.45276" lon="6.7029">
        <ele>420.1</ele>
        <time>2014-11-23T10:08:59.000Z</time>
      </trkpt>
      <trkpt lat="47.45275" lon="6.70294">
        <ele>420.2</ele>
        <time>2014-11-23T10:09:00.000Z</time>
      </trkpt>
      <trkpt lat="47.45275" lon="6.70297">
        <ele>421.1</ele>
        <time>2014-11-23T10:09:01.000Z</time>
      </trkpt>
      <trkpt lat="47.45275" lon="6.70304">
        <ele>423.2</ele>
        <time>2014-11-23T10:09:04.000Z</time>
      </trkpt>
      <trkpt lat="47.45275" lon="6.70306">
        <ele>422.9</ele>
        <time>2014-11-23T10:09:05.000Z</time>
      </trkpt>
      <trkpt lat="47.45275" lon="6.70311">
        <ele>422.9</ele>
        <time>2014-11-23T10:09:07.000Z</time>
      </trkpt>
      <trkpt lat="47.45275" lon="6.70313">
        <ele>423.4</ele>
        <time>2014-11-23T10:09:08.000Z</time>
      </trkpt>
      <trkpt lat="47.45275" lon="6.70318">
        <ele>423.9</ele>
        <time>2014-11-23T10:09:10.000Z</time>
      </trkpt>
      <trkpt lat="47.45275" lon="6.70321">
        <ele>423.6</ele>
        <time>2014-11-23T10:09:11.000Z</time>
      </trkpt>
      <trkpt lat="47.45275" lon="6.70327">
        <ele>427.3</ele>
        <time>2014-11-23T10:09:14.000Z</time>
      </trkpt>
      <trkpt lat="47.45274" lon="6.70329">
        <ele>426.1</ele>
        <time>2014-11-23T10:09:15.000Z</time>
      </trkpt>
      <trkpt lat="47.45274" lon="6.70333">
        <ele>426.2</ele>
        <time>2014-11-23T10:09:17.000Z</time>
      </trkpt>
      <trkpt lat="47.45274" lon="6.70336">
        <ele>426.4</ele>
        <time>2014-11-23T10:09:18.000Z</time>
      </trkpt>
      <trkpt lat="47.45275" lon="6.70341">
        <ele>424.7</ele>
        <time>2014-11-23T10:09:21.000Z</time>
      </trkpt>
      <trkpt lat="47.45275" lon="6.70343">
        <ele>424.2</ele>
        <time>2014-11-23T10:09:22.000Z</time>
      </trkpt>
      <trkpt lat="47.45276" lon="6.70349">
        <ele>424.2</ele>
        <time>2014-11-23T10:09:25.000Z</time>
      </trkpt>
      <trkpt lat="47.45276" lon="6.70351">
        <ele>424.8</ele>
        <time>2014-11-23T10:09:26.000Z</time>
      </trkpt>
      <trkpt lat="47.45275" lon="6.70356">
        <ele>424.9</ele>
        <time>2014-11-23T10:09:28.000Z</time>
      </trkpt>
      <trkpt lat="47.45275" lon="6.70358">
        <ele>425.4</ele>
        <time>2014-11-23T10:09:29.000Z</time>
      </trkpt>
      <trkpt lat="47.45269" lon="6.70372">
        <ele>422.3</ele>
        <time>2014-11-23T10:09:37.000Z</time>
      </trkpt>
      <trkpt lat="47.45266" lon="6.70374">
        <ele>429.3</ele>
        <time>2014-11-23T10:09:41.000Z</time>
      </trkpt>
      <trkpt lat="47.45265" lon="6.70375">
        <ele>430.3</ele>
        <time>2014-11-23T10:09:42.000Z</time>
      </trkpt>
      <trkpt lat="47.45263" lon="6.7038">
        <ele>430.7</ele>
        <time>2014-11-23T10:09:45.000Z</time>
      </trkpt>
      <trkpt lat="47.45263" lon="6.70382">
        <ele>431.5</ele>
        <time>2014-11-23T10:09:46.000Z</time>
      </trkpt>
      <trkpt lat="47.45261" lon="6.70386">
        <ele>430.9</ele>
        <time>2014-11-23T10:09:49.000Z</time>
      </trkpt>
      <trkpt lat="47.4526" lon="6.70387">
        <ele>431</ele>
        <time>2014-11-23T10:09:50.000Z</time>
      </trkpt>
      <trkpt lat="47.45258" lon="6.70391">
        <ele>426.4</ele>
        <time>2014-11-23T10:09:52.000Z</time>
      </trkpt>
      <trkpt lat="47.45258" lon="6.70393">
        <ele>426.1</ele>
        <time>2014-11-23T10:09:53.000Z</time>
      </trkpt>
      <trkpt lat="47.45255" lon="6.70398">
        <ele>426.3</ele>
        <time>2014-11-23T10:09:56.000Z</time>
      </trkpt>
      <trkpt lat="47.45254" lon="6.70399">
        <ele>426</ele>
        <time>2014-11-23T10:09:57.000Z</time>
      </trkpt>
      <trkpt lat="47.45252" lon="6.70403">
        <ele>428.3</ele>
        <time>2014-11-23T10:10:02.000Z</time>
      </trkpt>
      <trkpt lat="47.45251" lon="6.70404">
        <ele>428.2</ele>
        <time>2014-11-23T10:10:03.000Z</time>
      </trkpt>
      <trkpt lat="47.45247" lon="6.70407">
        <ele>426.7</ele>
        <time>2014-11-23T10:10:07.000Z</time>
      </trkpt>
      <trkpt lat="47.45246" lon="6.70409">
        <ele>426.1</ele>
        <time>2014-11-23T10:10:08.000Z</time>
      </trkpt>
      <trkpt lat="47.45243" lon="6.70411">
        <ele>425.5</ele>
        <time>2014-11-23T10:10:10.000Z</time>
      </trkpt>
      <trkpt lat="47.45242" lon="6.70412">
        <ele>425.2</ele>
        <time>2014-11-23T10:10:11.000Z</time>
      </trkpt>
      <trkpt lat="47.45238" lon="6.70413">
        <ele>425.1</ele>
        <time>2014-11-23T10:10:14.000Z</time>
      </trkpt>
      <trkpt lat="47.45237" lon="6.70413">
        <ele>425.4</ele>
        <time>2014-11-23T10:10:15.000Z</time>
      </trkpt>
      <trkpt lat="47.45233" lon="6.70416">
        <ele>424.1</ele>
        <time>2014-11-23T10:10:18.000Z</time>
      </trkpt>
      <trkpt lat="47.45231" lon="6.70417">
        <ele>424.3</ele>
        <time>2014-11-23T10:10:19.000Z</time>
      </trkpt>
      <trkpt lat="47.45228" lon="6.7042">
        <ele>424.2</ele>
        <time>2014-11-23T10:10:21.000Z</time>
      </trkpt>
      <trkpt lat="47.45227" lon="6.70422">
        <ele>424.2</ele>
        <time>2014-11-23T10:10:22.000Z</time>
      </trkpt>
      <trkpt lat="47.45225" lon="6.70423">
        <ele>424.2</ele>
        <time>2014-11-23T10:10:23.000Z</time>
      </trkpt>
      <trkpt lat="47.45222" lon="6.70425">
        <ele>423.7</ele>
        <time>2014-11-23T10:10:24.000Z</time>
      </trkpt>
      <trkpt lat="47.45219" lon="6.70427">
        <ele>423.9</ele>
        <time>2014-11-23T10:10:25.000Z</time>
      </trkpt>
      <trkpt lat="47.45217" lon="6.70429">
        <ele>423.6</ele>
        <time>2014-11-23T10:10:26.000Z</time>
      </trkpt>
      <trkpt lat="47.45214" lon="6.70431">
        <ele>423.5</ele>
        <time>2014-11-23T10:10:27.000Z</time>
      </trkpt>
      <trkpt lat="47.4521" lon="6.70433">
        <ele>423.4</ele>
        <time>2014-11-23T10:10:28.000Z</time>
      </trkpt>
      <trkpt lat="47.45207" lon="6.70436">
        <ele>424.3</ele>
        <time>2014-11-23T10:10:29.000Z</time>
      </trkpt>
      <trkpt lat="47.45184" lon="6.70453">
        <ele>423.2</ele>
        <time>2014-11-23T10:10:37.000Z</time>
      </trkpt>
      <trkpt lat="47.45181" lon="6.70458">
        <ele>424.7</ele>
        <time>2014-11-23T10:10:40.000Z</time>
      </trkpt>
      <trkpt lat="47.4518" lon="6.70459">
        <ele>425</ele>
        <time>2014-11-23T10:10:41.000Z</time>
      </trkpt>
      <trkpt lat="47.45178" lon="6.70464">
        <ele>426.3</ele>
        <time>2014-11-23T10:10:50.000Z</time>
      </trkpt>
      <trkpt lat="47.45177" lon="6.70464">
        <ele>426.8</ele>
        <time>2014-11-23T10:10:51.000Z</time>
      </trkpt>
      <trkpt lat="47.45173" lon="6.70466">
        <ele>426</ele>
        <time>2014-11-23T10:10:55.000Z</time>
      </trkpt>
      <trkpt lat="47.45172" lon="6.70466">
        <ele>426.2</ele>
        <time>2014-11-23T10:10:56.000Z</time>
      </trkpt>
      <trkpt lat="47.45168" lon="6.70466">
        <ele>426.1</ele>
        <time>2014-11-23T10:10:58.000Z</time>
      </trkpt>
      <trkpt lat="47.45165" lon="6.70466">
        <ele>425.7</ele>
        <time>2014-11-23T10:10:59.000Z</time>
      </trkpt>
      <trkpt lat="47.45161" lon="6.70466">
        <ele>424.8</ele>
        <time>2014-11-23T10:11:00.000Z</time>
      </trkpt>
      <trkpt lat="47.45157" lon="6.70467">
        <ele>423.5</ele>
        <time>2014-11-23T10:11:01.000Z</time>
      </trkpt>
      <trkpt lat="47.45152" lon="6.70467">
        <ele>423.3</ele>
        <time>2014-11-23T10:11:02.000Z</time>
      </trkpt>
      <trkpt lat="47.45148" lon="6.70468">
        <ele>424.4</ele>
        <time>2014-11-23T10:11:03.000Z</time>
      </trkpt>
      <trkpt lat="47.45143" lon="6.7047">
        <ele>424.9</ele>
        <time>2014-11-23T10:11:04.000Z</time>
      </trkpt>
      <trkpt lat="47.45138" lon="6.70472">
        <ele>424</ele>
        <time>2014-11-23T10:11:05.000Z</time>
      </trkpt>
      <trkpt lat="47.45133" lon="6.70475">
        <ele>423.9</ele>
        <time>2014-11-23T10:11:06.000Z</time>
      </trkpt>
      <trkpt lat="47.4513" lon="6.70476">
        <ele>424.1</ele>
        <time>2014-11-23T10:11:06.998Z</time>
      </trkpt>
      <trkpt lat="47.45124" lon="6.70484">
        <ele>425.3</ele>
        <time>2014-11-23T10:11:08.000Z</time>
      </trkpt>
      <trkpt lat="47.4512" lon="6.7049">
        <ele>425.2</ele>
        <time>2014-11-23T10:11:09.000Z</time>
      </trkpt>
      <trkpt lat="47.45116" lon="6.70495">
        <ele>427.7</ele>
        <time>2014-11-23T10:11:10.000Z</time>
      </trkpt>
      <trkpt lat="47.45107" lon="6.70509">
        <ele>428.5</ele>
        <time>2014-11-23T10:11:11.000Z</time>
      </trkpt>
      <trkpt lat="47.45104" lon="6.70514">
        <ele>429.6</ele>
        <time>2014-11-23T10:11:12.000Z</time>
      </trkpt>
      <trkpt lat="47.451" lon="6.70516">
        <ele>429.6</ele>
        <time>2014-11-23T10:11:13.000Z</time>
      </trkpt>
      <trkpt lat="47.45097" lon="6.70519">
        <ele>429.1</ele>
        <time>2014-11-23T10:11:14.000Z</time>
      </trkpt>
      <trkpt lat="47.45093" lon="6.70523">
        <ele>428.9</ele>
        <time>2014-11-23T10:11:15.000Z</time>
      </trkpt>
      <trkpt lat="47.4509" lon="6.70527">
        <ele>429.5</ele>
        <time>2014-11-23T10:11:16.000Z</time>
      </trkpt>
      <trkpt lat="47.45085" lon="6.70531">
        <ele>428.5</ele>
        <time>2014-11-23T10:11:17.000Z</time>
      </trkpt>
      <trkpt lat="47.45081" lon="6.70539">
        <ele>428.2</ele>
        <time>2014-11-23T10:11:18.000Z</time>
      </trkpt>
      <trkpt lat="47.45076" lon="6.70546">
        <ele>426.5</ele>
        <time>2014-11-23T10:11:19.000Z</time>
      </trkpt>
      <trkpt lat="47.45073" lon="6.70551">
        <ele>426.7</ele>
        <time>2014-11-23T10:11:20.000Z</time>
      </trkpt>
      <trkpt lat="47.45069" lon="6.70556">
        <ele>428.8</ele>
        <time>2014-11-23T10:11:21.000Z</time>
      </trkpt>
      <trkpt lat="47.45066" lon="6.70564">
        <ele>427.6</ele>
        <time>2014-11-23T10:11:22.000Z</time>
      </trkpt>
      <trkpt lat="47.45065" lon="6.7057">
        <ele>427</ele>
        <time>2014-11-23T10:11:23.000Z</time>
      </trkpt>
      <trkpt lat="47.45064" lon="6.70576">
        <ele>426.5</ele>
        <time>2014-11-23T10:11:24.000Z</time>
      </trkpt>
      <trkpt lat="47.45066" lon="6.70584">
        <ele>423.3</ele>
        <time>2014-11-23T10:11:25.000Z</time>
      </trkpt>
      <trkpt lat="47.45065" lon="6.7059">
        <ele>424.4</ele>
        <time>2014-11-23T10:11:26.000Z</time>
      </trkpt>
      <trkpt lat="47.45065" lon="6.70596">
        <ele>424.1</ele>
        <time>2014-11-23T10:11:27.000Z</time>
      </trkpt>
      <trkpt lat="47.45064" lon="6.70602">
        <ele>423.5</ele>
        <time>2014-11-23T10:11:28.000Z</time>
      </trkpt>
      <trkpt lat="47.45062" lon="6.70606">
        <ele>423.4</ele>
        <time>2014-11-23T10:11:29.000Z</time>
      </trkpt>
      <trkpt lat="47.45069" lon="6.70629">
        <ele>422.6</ele>
        <time>2014-11-23T10:11:37.000Z</time>
      </trkpt>
      <trkpt lat="47.45072" lon="6.70634">
        <ele>423.6</ele>
        <time>2014-11-23T10:11:39.000Z</time>
      </trkpt>
      <trkpt lat="47.45074" lon="6.70636">
        <ele>425.1</ele>
        <time>2014-11-23T10:11:40.000Z</time>
      </trkpt>
      <trkpt lat="47.45075" lon="6.70642">
        <ele>424.7</ele>
        <time>2014-11-23T10:11:42.000Z</time>
      </trkpt>
      <trkpt lat="47.45076" lon="6.70645">
        <ele>422.5</ele>
        <time>2014-11-23T10:11:43.000Z</time>
      </trkpt>
      <trkpt lat="47.45078" lon="6.7065">
        <ele>423.1</ele>
        <time>2014-11-23T10:11:45.000Z</time>
      </trkpt>
      <trkpt lat="47.45079" lon="6.70652">
        <ele>421.8</ele>
        <time>2014-11-23T10:11:46.000Z</time>
      </trkpt>
      <trkpt lat="47.45081" lon="6.70658">
        <ele>420.3</ele>
        <time>2014-11-23T10:11:48.000Z</time>
      </trkpt>
      <trkpt lat="47.45082" lon="6.70661">
        <ele>418.5</ele>
        <time>2014-11-23T10:11:49.000Z</time>
      </trkpt>
      <trkpt lat="47.45083" lon="6.70664">
        <ele>417.2</ele>
        <time>2014-11-23T10:11:50.000Z</time>
      </trkpt>
      <trkpt lat="47.45084" lon="6.70667">
        <ele>416.8</ele>
        <time>2014-11-23T10:11:51.000Z</time>
      </trkpt>
      <trkpt lat="47.45087" lon="6.70672">
        <ele>416</ele>
        <time>2014-11-23T10:11:53.000Z</time>
      </trkpt>
      <trkpt lat="47.45088" lon="6.70674">
        <ele>416</ele>
        <time>2014-11-23T10:11:54.000Z</time>
      </trkpt>
      <trkpt lat="47.45091" lon="6.70678">
        <ele>414.3</ele>
        <time>2014-11-23T10:11:56.000Z</time>
      </trkpt>
      <trkpt lat="47.45093" lon="6.7068">
        <ele>413.8</ele>
        <time>2014-11-23T10:11:57.000Z</time>
      </trkpt>
      <trkpt lat="47.45096" lon="6.70683">
        <ele>414.8</ele>
        <time>2014-11-23T10:11:59.000Z</time>
      </trkpt>
      <trkpt lat="47.45098" lon="6.70685">
        <ele>414.7</ele>
        <time>2014-11-23T10:12:00.000Z</time>
      </trkpt>
      <trkpt lat="47.451" lon="6.70686">
        <ele>415.8</ele>
        <time>2014-11-23T10:12:01.000Z</time>
      </trkpt>
      <trkpt lat="47.45102" lon="6.70688">
        <ele>416.6</ele>
        <time>2014-11-23T10:12:02.000Z</time>
      </trkpt>
      <trkpt lat="47.45104" lon="6.70689">
        <ele>416.7</ele>
        <time>2014-11-23T10:12:03.000Z</time>
      </trkpt>
      <trkpt lat="47.45106" lon="6.70691">
        <ele>415.7</ele>
        <time>2014-11-23T10:12:04.000Z</time>
      </trkpt>
      <trkpt lat="47.45108" lon="6.70693">
        <ele>414.5</ele>
        <time>2014-11-23T10:12:05.000Z</time>
      </trkpt>
      <trkpt lat="47.4511" lon="6.70694">
        <ele>413.8</ele>
        <time>2014-11-23T10:12:06.000Z</time>
      </trkpt>
      <trkpt lat="47.45112" lon="6.70699">
        <ele>414.5</ele>
        <time>2014-11-23T10:12:08.000Z</time>
      </trkpt>
      <trkpt lat="47.45114" lon="6.70701">
        <ele>413.6</ele>
        <time>2014-11-23T10:12:09.000Z</time>
      </trkpt>
      <trkpt lat="47.45116" lon="6.70706">
        <ele>412.7</ele>
        <time>2014-11-23T10:12:11.000Z</time>
      </trkpt>
      <trkpt lat="47.45117" lon="6.70708">
        <ele>412.4</ele>
        <time>2014-11-23T10:12:12.000Z</time>
      </trkpt>
      <trkpt lat="47.45118" lon="6.70713">
        <ele>412.6</ele>
        <time>2014-11-23T10:12:14.000Z</time>
      </trkpt>
      <trkpt lat="47.45118" lon="6.70716">
        <ele>412.5</ele>
        <time>2014-11-23T10:12:15.000Z</time>
      </trkpt>
      <trkpt lat="47.45118" lon="6.70721">
        <ele>411.5</ele>
        <time>2014-11-23T10:12:17.000Z</time>
      </trkpt>
      <trkpt lat="47.45118" lon="6.70724">
        <ele>410.9</ele>
        <time>2014-11-23T10:12:18.000Z</time>
      </trkpt>
      <trkpt lat="47.45119" lon="6.70729">
        <ele>412.3</ele>
        <time>2014-11-23T10:12:20.000Z</time>
      </trkpt>
      <trkpt lat="47.4512" lon="6.70731">
        <ele>412.9</ele>
        <time>2014-11-23T10:12:21.000Z</time>
      </trkpt>
      <trkpt lat="47.45121" lon="6.70737">
        <ele>412.5</ele>
        <time>2014-11-23T10:12:24.000Z</time>
      </trkpt>
      <trkpt lat="47.45121" lon="6.70739">
        <ele>412.5</ele>
        <time>2014-11-23T10:12:25.000Z</time>
      </trkpt>
      <trkpt lat="47.45121" lon="6.70744">
        <ele>412.9</ele>
        <time>2014-11-23T10:12:28.000Z</time>
      </trkpt>
      <trkpt lat="47.45121" lon="6.7075">
        <ele>412.4</ele>
        <time>2014-11-23T10:12:31.000Z</time>
      </trkpt>
      <trkpt lat="47.4512" lon="6.70756">
        <ele>413.4</ele>
        <time>2014-11-23T10:12:34.000Z</time>
      </trkpt>
      <trkpt lat="47.45119" lon="6.70757">
        <ele>414.5</ele>
        <time>2014-11-23T10:12:35.000Z</time>
      </trkpt>
      <trkpt lat="47.45117" lon="6.70762">
        <ele>416.9</ele>
        <time>2014-11-23T10:12:38.000Z</time>
      </trkpt>
      <trkpt lat="47.45116" lon="6.70763">
        <ele>417.2</ele>
        <time>2014-11-23T10:12:39.000Z</time>
      </trkpt>
      <trkpt lat="47.45112" lon="6.70767">
        <ele>421.7</ele>
        <time>2014-11-23T10:12:43.000Z</time>
      </trkpt>
      <trkpt lat="47.45112" lon="6.70768">
        <ele>421.9</ele>
        <time>2014-11-23T10:12:44.000Z</time>
      </trkpt>
      <trkpt lat="47.4511" lon="6.70773">
        <ele>422.6</ele>
        <time>2014-11-23T10:12:47.000Z</time>
      </trkpt>
      <trkpt lat="47.4511" lon="6.70774">
        <ele>423.1</ele>
        <time>2014-11-23T10:12:48.000Z</time>
      </trkpt>
      <trkpt lat="47.45109" lon="6.70779">
        <ele>422.8</ele>
        <time>2014-11-23T10:12:51.000Z</time>
      </trkpt>
      <trkpt lat="47.45109" lon="6.70781">
        <ele>422</ele>
        <time>2014-11-23T10:12:52.000Z</time>
      </trkpt>
      <trkpt lat="47.4511" lon="6.70787">
        <ele>424.6</ele>
        <time>2014-11-23T10:12:57.000Z</time>
      </trkpt>
      <trkpt lat="47.4511" lon="6.70789">
        <ele>425.3</ele>
        <time>2014-11-23T10:12:58.000Z</time>
      </trkpt>
      <trkpt lat="47.45111" lon="6.70794">
        <ele>422.9</ele>
        <time>2014-11-23T10:13:01.000Z</time>
      </trkpt>
      <trkpt lat="47.45111" lon="6.70797">
        <ele>422.6</ele>
        <time>2014-11-23T10:13:02.000Z</time>
      </trkpt>
      <trkpt lat="47.45112" lon="6.70803">
        <ele>423.4</ele>
        <time>2014-11-23T10:13:05.000Z</time>
      </trkpt>
      <trkpt lat="47.45112" lon="6.70805">
        <ele>423.8</ele>
        <time>2014-11-23T10:13:06.000Z</time>
      </trkpt>
      <trkpt lat="47.45113" lon="6.70809">
        <ele>423.3</ele>
        <time>2014-11-23T10:13:08.000Z</time>
      </trkpt>
      <trkpt lat="47.45113" lon="6.70811">
        <ele>424.2</ele>
        <time>2014-11-23T10:13:09.000Z</time>
      </trkpt>
      <trkpt lat="47.45115" lon="6.70816">
        <ele>424.3</ele>
        <time>2014-11-23T10:13:11.000Z</time>
      </trkpt>
      <trkpt lat="47.45115" lon="6.70818">
        <ele>424.1</ele>
        <time>2014-11-23T10:13:12.000Z</time>
      </trkpt>
      <trkpt lat="47.45117" lon="6.70824">
        <ele>424.2</ele>
        <time>2014-11-23T10:13:14.000Z</time>
      </trkpt>
      <trkpt lat="47.45118" lon="6.70827">
        <ele>422.2</ele>
        <time>2014-11-23T10:13:15.000Z</time>
      </trkpt>
      <trkpt lat="47.45119" lon="6.70831">
        <ele>421.4</ele>
        <time>2014-11-23T10:13:16.000Z</time>
      </trkpt>
      <trkpt lat="47.45121" lon="6.70835">
        <ele>421.2</ele>
        <time>2014-11-23T10:13:17.000Z</time>
      </trkpt>
      <trkpt lat="47.45122" lon="6.70839">
        <ele>421</ele>
        <time>2014-11-23T10:13:18.000Z</time>
      </trkpt>
      <trkpt lat="47.45123" lon="6.70842">
        <ele>421</ele>
        <time>2014-11-23T10:13:19.000Z</time>
      </trkpt>
      <trkpt lat="47.45125" lon="6.70846">
        <ele>420.6</ele>
        <time>2014-11-23T10:13:20.000Z</time>
      </trkpt>
      <trkpt lat="47.45126" lon="6.70851">
        <ele>421</ele>
        <time>2014-11-23T10:13:21.000Z</time>
      </trkpt>
      <trkpt lat="47.45128" lon="6.70855">
        <ele>421.2</ele>
        <time>2014-11-23T10:13:22.000Z</time>
      </trkpt>
      <trkpt lat="47.45129" lon="6.7086">
        <ele>420.8</ele>
        <time>2014-11-23T10:13:23.000Z</time>
      </trkpt>
      <trkpt lat="47.45131" lon="6.70864">
        <ele>420.3</ele>
        <time>2014-11-23T10:13:24.000Z</time>
      </trkpt>
      <trkpt lat="47.45132" lon="6.70868">
        <ele>419.7</ele>
        <time>2014-11-23T10:13:25.000Z</time>
      </trkpt>
      <trkpt lat="47.45133" lon="6.70872">
        <ele>421</ele>
        <time>2014-11-23T10:13:26.000Z</time>
      </trkpt>
      <trkpt lat="47.45135" lon="6.70876">
        <ele>420.6</ele>
        <time>2014-11-23T10:13:27.000Z</time>
      </trkpt>
      <trkpt lat="47.45136" lon="6.70879">
        <ele>420.3</ele>
        <time>2014-11-23T10:13:28.000Z</time>
      </trkpt>
      <trkpt lat="47.45138" lon="6.70882">
        <ele>420.5</ele>
        <time>2014-11-23T10:13:29.000Z</time>
      </trkpt>
      <trkpt lat="47.45143" lon="6.70897">
        <ele>423.1</ele>
        <time>2014-11-23T10:13:37.000Z</time>
      </trkpt>
      <trkpt lat="47.45145" lon="6.70902">
        <ele>425.9</ele>
        <time>2014-11-23T10:14:08.000Z</time>
      </trkpt>
      <trkpt lat="47.45146" lon="6.70904">
        <ele>425.3</ele>
        <time>2014-11-23T10:14:09.000Z</time>
      </trkpt>
      <trkpt lat="47.45147" lon="6.70907">
        <ele>424.5</ele>
        <time>2014-11-23T10:14:10.000Z</time>
      </trkpt>
      <trkpt lat="47.45149" lon="6.7091">
        <ele>425.2</ele>
        <time>2014-11-23T10:14:11.000Z</time>
      </trkpt>
      <trkpt lat="47.4515" lon="6.70913">
        <ele>424.7</ele>
        <time>2014-11-23T10:14:12.000Z</time>
      </trkpt>
      <trkpt lat="47.45152" lon="6.70916">
        <ele>425.2</ele>
        <time>2014-11-23T10:14:13.000Z</time>
      </trkpt>
      <trkpt lat="47.45153" lon="6.70919">
        <ele>422.4</ele>
        <time>2014-11-23T10:14:14.000Z</time>
      </trkpt>
      <trkpt lat="47.45155" lon="6.70923">
        <ele>423.4</ele>
        <time>2014-11-23T10:14:15.000Z</time>
      </trkpt>
      <trkpt lat="47.45156" lon="6.70926">
        <ele>422.9</ele>
        <time>2014-11-23T10:14:16.000Z</time>
      </trkpt>
      <trkpt lat="47.45157" lon="6.7093">
        <ele>422.9</ele>
        <time>2014-11-23T10:14:17.000Z</time>
      </trkpt>
      <trkpt lat="47.45159" lon="6.70933">
        <ele>423.1</ele>
        <time>2014-11-23T10:14:18.000Z</time>
      </trkpt>
      <trkpt lat="47.4516" lon="6.70936">
        <ele>423.2</ele>
        <time>2014-11-23T10:14:19.000Z</time>
      </trkpt>
      <trkpt lat="47.45161" lon="6.70941">
        <ele>421.2</ele>
        <time>2014-11-23T10:14:21.000Z</time>
      </trkpt>
      <trkpt lat="47.45162" lon="6.70944">
        <ele>421</ele>
        <time>2014-11-23T10:14:22.000Z</time>
      </trkpt>
      <trkpt lat="47.45163" lon="6.70947">
        <ele>421.1</ele>
        <time>2014-11-23T10:14:23.000Z</time>
      </trkpt>
      <trkpt lat="47.45164" lon="6.70951">
        <ele>421.8</ele>
        <time>2014-11-23T10:14:24.000Z</time>
      </trkpt>
      <trkpt lat="47.45166" lon="6.70955">
        <ele>422.6</ele>
        <time>2014-11-23T10:14:25.000Z</time>
      </trkpt>
      <trkpt lat="47.45168" lon="6.70959">
        <ele>423.3</ele>
        <time>2014-11-23T10:14:26.000Z</time>
      </trkpt>
      <trkpt lat="47.45171" lon="6.70963">
        <ele>423.1</ele>
        <time>2014-11-23T10:14:27.000Z</time>
      </trkpt>
      <trkpt lat="47.45173" lon="6.70967">
        <ele>423.5</ele>
        <time>2014-11-23T10:14:28.000Z</time>
      </trkpt>
      <trkpt lat="47.45175" lon="6.70972">
        <ele>420.9</ele>
        <time>2014-11-23T10:14:29.000Z</time>
      </trkpt>
      <trkpt lat="47.45183" lon="6.71001">
        <ele>426.2</ele>
        <time>2014-11-23T10:14:37.000Z</time>
      </trkpt>
      <trkpt lat="47.45185" lon="6.71005">
        <ele>426.6</ele>
        <time>2014-11-23T10:14:38.000Z</time>
      </trkpt>
      <trkpt lat="47.45187" lon="6.71009">
        <ele>426.8</ele>
        <time>2014-11-23T10:14:39.000Z</time>
      </trkpt>
      <trkpt lat="47.45189" lon="6.71013">
        <ele>426.7</ele>
        <time>2014-11-23T10:14:40.000Z</time>
      </trkpt>
      <trkpt lat="47.4519" lon="6.71016">
        <ele>427.1</ele>
        <time>2014-11-23T10:14:41.000Z</time>
      </trkpt>
      <trkpt lat="47.45191" lon="6.71023">
        <ele>428.9</ele>
        <time>2014-11-23T10:14:43.000Z</time>
      </trkpt>
      <trkpt lat="47.45191" lon="6.71025">
        <ele>429.4</ele>
        <time>2014-11-23T10:14:44.000Z</time>
      </trkpt>
      <trkpt lat="47.45193" lon="6.71029">
        <ele>429.4</ele>
        <time>2014-11-23T10:14:46.000Z</time>
      </trkpt>
      <trkpt lat="47.45194" lon="6.71031">
        <ele>427.2</ele>
        <time>2014-11-23T10:14:47.000Z</time>
      </trkpt>
      <trkpt lat="47.45196" lon="6.71034">
        <ele>428.4</ele>
        <time>2014-11-23T10:14:49.000Z</time>
      </trkpt>
      <trkpt lat="47.45197" lon="6.71036">
        <ele>429.1</ele>
        <time>2014-11-23T10:14:50.000Z</time>
      </trkpt>
      <trkpt lat="47.452" lon="6.71041">
        <ele>430</ele>
        <time>2014-11-23T10:14:53.000Z</time>
      </trkpt>
      <trkpt lat="47.452" lon="6.71043">
        <ele>430.5</ele>
        <time>2014-11-23T10:14:54.000Z</time>
      </trkpt>
      <trkpt lat="47.45202" lon="6.71047">
        <ele>430.9</ele>
        <time>2014-11-23T10:14:57.000Z</time>
      </trkpt>
      <trkpt lat="47.45203" lon="6.71049">
        <ele>432.3</ele>
        <time>2014-11-23T10:14:58.000Z</time>
      </trkpt>
      <trkpt lat="47.45205" lon="6.71053">
        <ele>434.1</ele>
        <time>2014-11-23T10:15:00.000Z</time>
      </trkpt>
      <trkpt lat="47.45206" lon="6.71056">
        <ele>434.5</ele>
        <time>2014-11-23T10:15:01.000Z</time>
      </trkpt>
      <trkpt lat="47.45208" lon="6.7106">
        <ele>435.5</ele>
        <time>2014-11-23T10:15:02.999Z</time>
      </trkpt>
      <trkpt lat="47.4521" lon="6.71065">
        <ele>437.9</ele>
        <time>2014-11-23T10:15:04.000Z</time>
      </trkpt>
      <trkpt lat="47.45211" lon="6.71069">
        <ele>438.6</ele>
        <time>2014-11-23T10:15:05.000Z</time>
      </trkpt>
      <trkpt lat="47.45213" lon="6.71073">
        <ele>439.2</ele>
        <time>2014-11-23T10:15:06.000Z</time>
      </trkpt>
      <trkpt lat="47.45214" lon="6.71076">
        <ele>439.4</ele>
        <time>2014-11-23T10:15:07.000Z</time>
      </trkpt>
      <trkpt lat="47.45216" lon="6.7108">
        <ele>440.5</ele>
        <time>2014-11-23T10:15:08.000Z</time>
      </trkpt>
      <trkpt lat="47.45217" lon="6.71082">
        <ele>441.1</ele>
        <time>2014-11-23T10:15:09.000Z</time>
      </trkpt>
      <trkpt lat="47.45218" lon="6.71086">
        <ele>440</ele>
        <time>2014-11-23T10:15:10.000Z</time>
      </trkpt>
      <trkpt lat="47.45219" lon="6.71089">
        <ele>439.7</ele>
        <time>2014-11-23T10:15:11.000Z</time>
      </trkpt>
      <trkpt lat="47.45221" lon="6.71092">
        <ele>438.3</ele>
        <time>2014-11-23T10:15:12.000Z</time>
      </trkpt>
      <trkpt lat="47.45222" lon="6.71095">
        <ele>438.1</ele>
        <time>2014-11-23T10:15:13.000Z</time>
      </trkpt>
      <trkpt lat="47.45224" lon="6.71097">
        <ele>440</ele>
        <time>2014-11-23T10:15:14.000Z</time>
      </trkpt>
      <trkpt lat="47.45225" lon="6.711">
        <ele>440.3</ele>
        <time>2014-11-23T10:15:15.000Z</time>
      </trkpt>
      <trkpt lat="47.45227" lon="6.71103">
        <ele>439.5</ele>
        <time>2014-11-23T10:15:16.000Z</time>
      </trkpt>
      <trkpt lat="47.45229" lon="6.71106">
        <ele>438.8</ele>
        <time>2014-11-23T10:15:17.000Z</time>
      </trkpt>
      <trkpt lat="47.4523" lon="6.71109">
        <ele>438.8</ele>
        <time>2014-11-23T10:15:18.000Z</time>
      </trkpt>
      <trkpt lat="47.45232" lon="6.71112">
        <ele>439.6</ele>
        <time>2014-11-23T10:15:19.000Z</time>
      </trkpt>
      <trkpt lat="47.45234" lon="6.71116">
        <ele>440.2</ele>
        <time>2014-11-23T10:15:20.000Z</time>
      </trkpt>
      <trkpt lat="47.45235" lon="6.71119">
        <ele>438.4</ele>
        <time>2014-11-23T10:15:21.000Z</time>
      </trkpt>
      <trkpt lat="47.45237" lon="6.71122">
        <ele>439.7</ele>
        <time>2014-11-23T10:15:22.000Z</time>
      </trkpt>
      <trkpt lat="47.45238" lon="6.71125">
        <ele>440.4</ele>
        <time>2014-11-23T10:15:23.000Z</time>
      </trkpt>
      <trkpt lat="47.4524" lon="6.71128">
        <ele>441.1</ele>
        <time>2014-11-23T10:15:24.000Z</time>
      </trkpt>
      <trkpt lat="47.45241" lon="6.71132">
        <ele>441.1</ele>
        <time>2014-11-23T10:15:25.000Z</time>
      </trkpt>
      <trkpt lat="47.45243" lon="6.71135">
        <ele>437.7</ele>
        <time>2014-11-23T10:15:26.000Z</time>
      </trkpt>
      <trkpt lat="47.45245" lon="6.7114">
        <ele>438.5</ele>
        <time>2014-11-23T10:15:28.000Z</time>
      </trkpt>
      <trkpt lat="47.45256" lon="6.71162">
        <ele>436.5</ele>
        <time>2014-11-23T10:15:37.000Z</time>
      </trkpt>
      <trkpt lat="47.45257" lon="6.71166">
        <ele>436.2</ele>
        <time>2014-11-23T10:15:39.000Z</time>
      </trkpt>
      <trkpt lat="47.45258" lon="6.71169">
        <ele>436.9</ele>
        <time>2014-11-23T10:15:40.000Z</time>
      </trkpt>
      <trkpt lat="47.45259" lon="6.71172">
        <ele>436.7</ele>
        <time>2014-11-23T10:15:41.000Z</time>
      </trkpt>
      <trkpt lat="47.45261" lon="6.71175">
        <ele>436</ele>
        <time>2014-11-23T10:15:42.000Z</time>
      </trkpt>
      <trkpt lat="47.45262" lon="6.71178">
        <ele>437.5</ele>
        <time>2014-11-23T10:15:43.000Z</time>
      </trkpt>
      <trkpt lat="47.45263" lon="6.71181">
        <ele>438.6</ele>
        <time>2014-11-23T10:15:44.000Z</time>
      </trkpt>
      <trkpt lat="47.45264" lon="6.71185">
        <ele>437.8</ele>
        <time>2014-11-23T10:15:45.000Z</time>
      </trkpt>
      <trkpt lat="47.45266" lon="6.71188">
        <ele>437.6</ele>
        <time>2014-11-23T10:15:46.000Z</time>
      </trkpt>
      <trkpt lat="47.45267" lon="6.71191">
        <ele>438</ele>
        <time>2014-11-23T10:15:47.000Z</time>
      </trkpt>
      <trkpt lat="47.45268" lon="6.71194">
        <ele>438.3</ele>
        <time>2014-11-23T10:15:48.000Z</time>
      </trkpt>
      <trkpt lat="47.4527" lon="6.71197">
        <ele>437.8</ele>
        <time>2014-11-23T10:15:49.000Z</time>
      </trkpt>
      <trkpt lat="47.45271" lon="6.71201">
        <ele>438.1</ele>
        <time>2014-11-23T10:15:50.000Z</time>
      </trkpt>
      <trkpt lat="47.45272" lon="6.71204">
        <ele>438.3</ele>
        <time>2014-11-23T10:15:51.000Z</time>
      </trkpt>
      <trkpt lat="47.45272" lon="6.71207">
        <ele>438.3</ele>
        <time>2014-11-23T10:15:52.000Z</time>
      </trkpt>
      <trkpt lat="47.45274" lon="6.71213">
        <ele>437</ele>
        <time>2014-11-23T10:15:54.000Z</time>
      </trkpt>
      <trkpt lat="47.45275" lon="6.71215">
        <ele>437.2</ele>
        <time>2014-11-23T10:15:55.000Z</time>
      </trkpt>
      <trkpt lat="47.45276" lon="6.7122">
        <ele>436.7</ele>
        <time>2014-11-23T10:15:57.000Z</time>
      </trkpt>
      <trkpt lat="47.45277" lon="6.71223">
        <ele>434.5</ele>
        <time>2014-11-23T10:15:58.000Z</time>
      </trkpt>
      <trkpt lat="47.45279" lon="6.71225">
        <ele>433.8</ele>
        <time>2014-11-23T10:15:59.000Z</time>
      </trkpt>
      <trkpt lat="47.4528" lon="6.71228">
        <ele>430.8</ele>
        <time>2014-11-23T10:16:00.000Z</time>
      </trkpt>
      <trkpt lat="47.45282" lon="6.71234">
        <ele>429.6</ele>
        <time>2014-11-23T10:16:02.000Z</time>
      </trkpt>
      <trkpt lat="47.45283" lon="6.71236">
        <ele>432.7</ele>
        <time>2014-11-23T10:16:03.000Z</time>
      </trkpt>
      <trkpt lat="47.45285" lon="6.71241">
        <ele>433.7</ele>
        <time>2014-11-23T10:16:05.000Z</time>
      </trkpt>
      <trkpt lat="47.45285" lon="6.71244">
        <ele>432.9</ele>
        <time>2014-11-23T10:16:06.000Z</time>
      </trkpt>
      <trkpt lat="47.45286" lon="6.7125">
        <ele>434</ele>
        <time>2014-11-23T10:16:08.000Z</time>
      </trkpt>
      <trkpt lat="47.45286" lon="6.71253">
        <ele>433.6</ele>
        <time>2014-11-23T10:16:09.000Z</time>
      </trkpt>
      <trkpt lat="47.45284" lon="6.71258">
        <ele>432.6</ele>
        <time>2014-11-23T10:16:11.000Z</time>
      </trkpt>
      <trkpt lat="47.45284" lon="6.7126">
        <ele>432.6</ele>
        <time>2014-11-23T10:16:12.000Z</time>
      </trkpt>
      <trkpt lat="47.45281" lon="6.71264">
        <ele>433.1</ele>
        <time>2014-11-23T10:16:14.000Z</time>
      </trkpt>
      <trkpt lat="47.4528" lon="6.71265">
        <ele>432.4</ele>
        <time>2014-11-23T10:16:15.000Z</time>
      </trkpt>
      <trkpt lat="47.45277" lon="6.71269">
        <ele>435.3</ele>
        <time>2014-11-23T10:16:19.000Z</time>
      </trkpt>
      <trkpt lat="47.45277" lon="6.7127">
        <ele>436.1</ele>
        <time>2014-11-23T10:16:20.000Z</time>
      </trkpt>
      <trkpt lat="47.45274" lon="6.71273">
        <ele>437.8</ele>
        <time>2014-11-23T10:16:24.000Z</time>
      </trkpt>
      <trkpt lat="47.45273" lon="6.71274">
        <ele>437.9</ele>
        <time>2014-11-23T10:16:25.000Z</time>
      </trkpt>
      <trkpt lat="47.4527" lon="6.71276">
        <ele>436.4</ele>
        <time>2014-11-23T10:16:28.000Z</time>
      </trkpt>
      <trkpt lat="47.45267" lon="6.7128">
        <ele>435.9</ele>
        <time>2014-11-23T10:16:31.000Z</time>
      </trkpt>
      <trkpt lat="47.45264" lon="6.71283">
        <ele>435.6</ele>
        <time>2014-11-23T10:16:34.000Z</time>
      </trkpt>
      <trkpt lat="47.45263" lon="6.71284">
        <ele>436.1</ele>
        <time>2014-11-23T10:16:35.000Z</time>
      </trkpt>
      <trkpt lat="47.4526" lon="6.71287">
        <ele>437</ele>
        <time>2014-11-23T10:16:38.000Z</time>
      </trkpt>
      <trkpt lat="47.45259" lon="6.71289">
        <ele>437.6</ele>
        <time>2014-11-23T10:16:39.000Z</time>
      </trkpt>
      <trkpt lat="47.45257" lon="6.71293">
        <ele>439.2</ele>
        <time>2014-11-23T10:16:41.000Z</time>
      </trkpt>
      <trkpt lat="47.45256" lon="6.71295">
        <ele>439.2</ele>
        <time>2014-11-23T10:16:42.000Z</time>
      </trkpt>
      <trkpt lat="47.45256" lon="6.713">
        <ele>439.1</ele>
        <time>2014-11-23T10:16:44.000Z</time>
      </trkpt>
      <trkpt lat="47.45257" lon="6.71303">
        <ele>439.1</ele>
        <time>2014-11-23T10:16:45.000Z</time>
      </trkpt>
      <trkpt lat="47.45258" lon="6.71309">
        <ele>439.7</ele>
        <time>2014-11-23T10:16:47.000Z</time>
      </trkpt>
      <trkpt lat="47.45259" lon="6.71312">
        <ele>440.2</ele>
        <time>2014-11-23T10:16:48.000Z</time>
      </trkpt>
      <trkpt lat="47.4526" lon="6.71317">
        <ele>441.8</ele>
        <time>2014-11-23T10:16:50.000Z</time>
      </trkpt>
      <trkpt lat="47.4526" lon="6.7132">
        <ele>442.3</ele>
        <time>2014-11-23T10:16:51.000Z</time>
      </trkpt>
      <trkpt lat="47.45262" lon="6.71326">
        <ele>441.6</ele>
        <time>2014-11-23T10:16:53.000Z</time>
      </trkpt>
      <trkpt lat="47.45263" lon="6.71328">
        <ele>441.4</ele>
        <time>2014-11-23T10:16:54.000Z</time>
      </trkpt>
      <trkpt lat="47.45263" lon="6.71332">
        <ele>440.8</ele>
        <time>2014-11-23T10:16:55.000Z</time>
      </trkpt>
      <trkpt lat="47.45264" lon="6.71335">
        <ele>440.1</ele>
        <time>2014-11-23T10:16:56.000Z</time>
      </trkpt>
      <trkpt lat="47.45265" lon="6.71341">
        <ele>441.4</ele>
        <time>2014-11-23T10:16:58.000Z</time>
      </trkpt>
      <trkpt lat="47.45265" lon="6.71344">
        <ele>441.8</ele>
        <time>2014-11-23T10:16:59.000Z</time>
      </trkpt>
      <trkpt lat="47.45267" lon="6.71349">
        <ele>442.6</ele>
        <time>2014-11-23T10:17:01.000Z</time>
      </trkpt>
      <trkpt lat="47.45268" lon="6.71351">
        <ele>442.7</ele>
        <time>2014-11-23T10:17:02.000Z</time>
      </trkpt>
      <trkpt lat="47.45268" lon="6.71355">
        <ele>442.8</ele>
        <time>2014-11-23T10:17:03.000Z</time>
      </trkpt>
      <trkpt lat="47.4527" lon="6.71358">
        <ele>442.5</ele>
        <time>2014-11-23T10:17:04.000Z</time>
      </trkpt>
      <trkpt lat="47.45271" lon="6.71362">
        <ele>441.8</ele>
        <time>2014-11-23T10:17:05.000Z</time>
      </trkpt>
      <trkpt lat="47.45272" lon="6.71365">
        <ele>442.4</ele>
        <time>2014-11-23T10:17:06.000Z</time>
      </trkpt>
      <trkpt lat="47.45274" lon="6.71368">
        <ele>442.6</ele>
        <time>2014-11-23T10:17:07.000Z</time>
      </trkpt>
      <trkpt lat="47.45275" lon="6.71371">
        <ele>443.2</ele>
        <time>2014-11-23T10:17:08.000Z</time>
      </trkpt>
      <trkpt lat="47.45276" lon="6.71375">
        <ele>444.1</ele>
        <time>2014-11-23T10:17:09.000Z</time>
      </trkpt>
      <trkpt lat="47.45277" lon="6.71378">
        <ele>443.4</ele>
        <time>2014-11-23T10:17:10.000Z</time>
      </trkpt>
      <trkpt lat="47.45278" lon="6.71382">
        <ele>443.3</ele>
        <time>2014-11-23T10:17:11.000Z</time>
      </trkpt>
      <trkpt lat="47.45278" lon="6.71385">
        <ele>442.5</ele>
        <time>2014-11-23T10:17:12.000Z</time>
      </trkpt>
      <trkpt lat="47.45279" lon="6.71389">
        <ele>442.3</ele>
        <time>2014-11-23T10:17:13.000Z</time>
      </trkpt>
      <trkpt lat="47.4528" lon="6.71393">
        <ele>442</ele>
        <time>2014-11-23T10:17:14.000Z</time>
      </trkpt>
      <trkpt lat="47.45281" lon="6.71396">
        <ele>442.5</ele>
        <time>2014-11-23T10:17:15.000Z</time>
      </trkpt>
      <trkpt lat="47.45281" lon="6.71399">
        <ele>443.2</ele>
        <time>2014-11-23T10:17:16.000Z</time>
      </trkpt>
      <trkpt lat="47.45282" lon="6.71405">
        <ele>443</ele>
        <time>2014-11-23T10:17:18.000Z</time>
      </trkpt>
      <trkpt lat="47.45283" lon="6.71408">
        <ele>443.6</ele>
        <time>2014-11-23T10:17:19.000Z</time>
      </trkpt>
      <trkpt lat="47.45284" lon="6.71411">
        <ele>443.9</ele>
        <time>2014-11-23T10:17:20.000Z</time>
      </trkpt>
      <trkpt lat="47.45284" lon="6.71414">
        <ele>444.3</ele>
        <time>2014-11-23T10:17:21.000Z</time>
      </trkpt>
      <trkpt lat="47.45285" lon="6.71418">
        <ele>444.4</ele>
        <time>2014-11-23T10:17:22.000Z</time>
      </trkpt>
      <trkpt lat="47.45285" lon="6.71422">
        <ele>446.5</ele>
        <time>2014-11-23T10:17:23.000Z</time>
      </trkpt>
      <trkpt lat="47.45286" lon="6.71425">
        <ele>447</ele>
        <time>2014-11-23T10:17:24.000Z</time>
      </trkpt>
      <trkpt lat="47.45287" lon="6.71428">
        <ele>447.5</ele>
        <time>2014-11-23T10:17:25.000Z</time>
      </trkpt>
      <trkpt lat="47.45289" lon="6.71433">
        <ele>447.9</ele>
        <time>2014-11-23T10:17:27.000Z</time>
      </trkpt>
      <trkpt lat="47.45289" lon="6.71436">
        <ele>449</ele>
        <time>2014-11-23T10:17:28.000Z</time>
      </trkpt>
      <trkpt lat="47.45292" lon="6.71453">
        <ele>449.7</ele>
        <time>2014-11-23T10:17:37.000Z</time>
      </trkpt>
      <trkpt lat="47.45291" lon="6.71447">
        <ele>446.9</ele>
        <time>2014-11-23T10:17:47.000Z</time>
      </trkpt>
      <trkpt lat="47.45291" lon="6.71447">
        <ele>446.4</ele>
        <time>2014-11-23T10:17:48.000Z</time>
      </trkpt>
      <trkpt lat="47.45294" lon="6.71452">
        <ele>444.2</ele>
        <time>2014-11-23T10:18:39.000Z</time>
      </trkpt>
      <trkpt lat="47.45295" lon="6.71453">
        <ele>444.6</ele>
        <time>2014-11-23T10:18:40.000Z</time>
      </trkpt>
      <trkpt lat="47.45296" lon="6.71459">
        <ele>444.5</ele>
        <time>2014-11-23T10:18:42.000Z</time>
      </trkpt>
      <trkpt lat="47.45297" lon="6.71462">
        <ele>445.1</ele>
        <time>2014-11-23T10:18:43.000Z</time>
      </trkpt>
      <trkpt lat="47.45298" lon="6.71466">
        <ele>445.1</ele>
        <time>2014-11-23T10:18:44.000Z</time>
      </trkpt>
      <trkpt lat="47.45299" lon="6.71469">
        <ele>446.2</ele>
        <time>2014-11-23T10:18:45.000Z</time>
      </trkpt>
      <trkpt lat="47.453" lon="6.71474">
        <ele>446.3</ele>
        <time>2014-11-23T10:18:46.000Z</time>
      </trkpt>
      <trkpt lat="47.453" lon="6.71478">
        <ele>446.1</ele>
        <time>2014-11-23T10:18:47.000Z</time>
      </trkpt>
      <trkpt lat="47.45301" lon="6.71483">
        <ele>447.8</ele>
        <time>2014-11-23T10:18:48.000Z</time>
      </trkpt>
      <trkpt lat="47.45302" lon="6.71488">
        <ele>447.9</ele>
        <time>2014-11-23T10:18:49.000Z</time>
      </trkpt>
      <trkpt lat="47.45304" lon="6.71494">
        <ele>448.3</ele>
        <time>2014-11-23T10:18:50.000Z</time>
      </trkpt>
      <trkpt lat="47.45305" lon="6.71499">
        <ele>449.2</ele>
        <time>2014-11-23T10:18:51.000Z</time>
      </trkpt>
      <trkpt lat="47.45306" lon="6.71504">
        <ele>449.4</ele>
        <time>2014-11-23T10:18:52.000Z</time>
      </trkpt>
      <trkpt lat="47.45307" lon="6.71509">
        <ele>448.9</ele>
        <time>2014-11-23T10:18:53.000Z</time>
      </trkpt>
      <trkpt lat="47.45308" lon="6.71513">
        <ele>448.4</ele>
        <time>2014-11-23T10:18:54.000Z</time>
      </trkpt>
      <trkpt lat="47.45309" lon="6.71518">
        <ele>448.3</ele>
        <time>2014-11-23T10:18:55.000Z</time>
      </trkpt>
      <trkpt lat="47.45309" lon="6.71522">
        <ele>447</ele>
        <time>2014-11-23T10:18:56.000Z</time>
      </trkpt>
      <trkpt lat="47.4531" lon="6.71527">
        <ele>446.2</ele>
        <time>2014-11-23T10:18:57.000Z</time>
      </trkpt>
      <trkpt lat="47.45311" lon="6.71531">
        <ele>446.7</ele>
        <time>2014-11-23T10:18:58.000Z</time>
      </trkpt>
      <trkpt lat="47.45311" lon="6.71535">
        <ele>449.1</ele>
        <time>2014-11-23T10:18:59.000Z</time>
      </trkpt>
      <trkpt lat="47.45312" lon="6.71542">
        <ele>449.9</ele>
        <time>2014-11-23T10:19:01.000Z</time>
      </trkpt>
      <trkpt lat="47.45312" lon="6.71545">
        <ele>448.2</ele>
        <time>2014-11-23T10:19:02.000Z</time>
      </trkpt>
      <trkpt lat="47.45312" lon="6.71548">
        <ele>447.6</ele>
        <time>2014-11-23T10:19:03.000Z</time>
      </trkpt>
      <trkpt lat="47.45313" lon="6.71552">
        <ele>447.5</ele>
        <time>2014-11-23T10:19:04.000Z</time>
      </trkpt>
      <trkpt lat="47.45313" lon="6.71555">
        <ele>447.9</ele>
        <time>2014-11-23T10:19:05.000Z</time>
      </trkpt>
      <trkpt lat="47.45313" lon="6.71559">
        <ele>448.4</ele>
        <time>2014-11-23T10:19:06.000Z</time>
      </trkpt>
      <trkpt lat="47.45313" lon="6.71563">
        <ele>448.5</ele>
        <time>2014-11-23T10:19:07.000Z</time>
      </trkpt>
      <trkpt lat="47.45313" lon="6.71566">
        <ele>448</ele>
        <time>2014-11-23T10:19:08.000Z</time>
      </trkpt>
      <trkpt lat="47.45313" lon="6.7157">
        <ele>447</ele>
        <time>2014-11-23T10:19:09.000Z</time>
      </trkpt>
      <trkpt lat="47.45313" lon="6.71573">
        <ele>447.3</ele>
        <time>2014-11-23T10:19:10.000Z</time>
      </trkpt>
      <trkpt lat="47.45311" lon="6.71579">
        <ele>447.9</ele>
        <time>2014-11-23T10:19:12.000Z</time>
      </trkpt>
      <trkpt lat="47.4531" lon="6.71582">
        <ele>448.1</ele>
        <time>2014-11-23T10:19:13.000Z</time>
      </trkpt>
      <trkpt lat="47.45308" lon="6.71585">
        <ele>444.3</ele>
        <time>2014-11-23T10:19:15.000Z</time>
      </trkpt>
      <trkpt lat="47.45306" lon="6.71586">
        <ele>445.1</ele>
        <time>2014-11-23T10:19:16.000Z</time>
      </trkpt>
      <trkpt lat="47.45303" lon="6.71589">
        <ele>445.5</ele>
        <time>2014-11-23T10:19:18.000Z</time>
      </trkpt>
      <trkpt lat="47.45301" lon="6.71591">
        <ele>445.6</ele>
        <time>2014-11-23T10:19:19.000Z</time>
      </trkpt>
      <trkpt lat="47.45298" lon="6.71594">
        <ele>444.6</ele>
        <time>2014-11-23T10:19:21.000Z</time>
      </trkpt>
      <trkpt lat="47.45296" lon="6.71595">
        <ele>444.3</ele>
        <time>2014-11-23T10:19:22.000Z</time>
      </trkpt>
      <trkpt lat="47.45292" lon="6.71598">
        <ele>444.3</ele>
        <time>2014-11-23T10:19:24.000Z</time>
      </trkpt>
      <trkpt lat="47.4529" lon="6.716">
        <ele>444.6</ele>
        <time>2014-11-23T10:19:25.000Z</time>
      </trkpt>
      <trkpt lat="47.45287" lon="6.71603">
        <ele>444.9</ele>
        <time>2014-11-23T10:19:27.000Z</time>
      </trkpt>
      <trkpt lat="47.45286" lon="6.71605">
        <ele>446.1</ele>
        <time>2014-11-23T10:19:28.000Z</time>
      </trkpt>
      <trkpt lat="47.45284" lon="6.71607">
        <ele>447</ele>
        <time>2014-11-23T10:19:29.000Z</time>
      </trkpt>
      <trkpt lat="47.45272" lon="6.71619">
        <ele>446.9</ele>
        <time>2014-11-23T10:19:37.000Z</time>
      </trkpt>
      <trkpt lat="47.45269" lon="6.71624">
        <ele>446.9</ele>
        <time>2014-11-23T10:19:40.000Z</time>
      </trkpt>
      <trkpt lat="47.45268" lon="6.71625">
        <ele>446.9</ele>
        <time>2014-11-23T10:19:41.000Z</time>
      </trkpt>
      <trkpt lat="47.45265" lon="6.71629">
        <ele>451.8</ele>
        <time>2014-11-23T10:19:43.000Z</time>
      </trkpt>
      <trkpt lat="47.45263" lon="6.71631">
        <ele>453.2</ele>
        <time>2014-11-23T10:19:44.000Z</time>
      </trkpt>
      <trkpt lat="47.45259" lon="6.71634">
        <ele>454.5</ele>
        <time>2014-11-23T10:19:46.000Z</time>
      </trkpt>
      <trkpt lat="47.45258" lon="6.71635">
        <ele>454.6</ele>
        <time>2014-11-23T10:19:47.000Z</time>
      </trkpt>
      <trkpt lat="47.45255" lon="6.71639">
        <ele>454.3</ele>
        <time>2014-11-23T10:19:49.000Z</time>
      </trkpt>
      <trkpt lat="47.45254" lon="6.71641">
        <ele>454</ele>
        <time>2014-11-23T10:19:50.000Z</time>
      </trkpt>
      <trkpt lat="47.45252" lon="6.71645">
        <ele>455.9</ele>
        <time>2014-11-23T10:19:52.000Z</time>
      </trkpt>
      <trkpt lat="47.45251" lon="6.71648">
        <ele>456.3</ele>
        <time>2014-11-23T10:19:53.000Z</time>
      </trkpt>
      <trkpt lat="47.4525" lon="6.71653">
        <ele>454.7</ele>
        <time>2014-11-23T10:19:55.000Z</time>
      </trkpt>
      <trkpt lat="47.45249" lon="6.71656">
        <ele>454.5</ele>
        <time>2014-11-23T10:19:56.000Z</time>
      </trkpt>
      <trkpt lat="47.45246" lon="6.71661">
        <ele>454.8</ele>
        <time>2014-11-23T10:19:58.000Z</time>
      </trkpt>
      <trkpt lat="47.45245" lon="6.71664">
        <ele>454.7</ele>
        <time>2014-11-23T10:19:59.000Z</time>
      </trkpt>
      <trkpt lat="47.45243" lon="6.71667">
        <ele>454.5</ele>
        <time>2014-11-23T10:20:00.000Z</time>
      </trkpt>
      <trkpt lat="47.45241" lon="6.71669">
        <ele>454.8</ele>
        <time>2014-11-23T10:20:01.000Z</time>
      </trkpt>
      <trkpt lat="47.45239" lon="6.71672">
        <ele>454.9</ele>
        <time>2014-11-23T10:20:02.000Z</time>
      </trkpt>
      <trkpt lat="47.45237" lon="6.71675">
        <ele>455</ele>
        <time>2014-11-23T10:20:03.000Z</time>
      </trkpt>
      <trkpt lat="47.45235" lon="6.71677">
        <ele>457.1</ele>
        <time>2014-11-23T10:20:04.000Z</time>
      </trkpt>
      <trkpt lat="47.45234" lon="6.7168">
        <ele>458</ele>
        <time>2014-11-23T10:20:05.000Z</time>
      </trkpt>
      <trkpt lat="47.45232" lon="6.71683">
        <ele>457.7</ele>
        <time>2014-11-23T10:20:06.000Z</time>
      </trkpt>
      <trkpt lat="47.4523" lon="6.71686">
        <ele>457.6</ele>
        <time>2014-11-23T10:20:07.000Z</time>
      </trkpt>
      <trkpt lat="47.45227" lon="6.71691">
        <ele>459.1</ele>
        <time>2014-11-23T10:20:09.000Z</time>
      </trkpt>
      <trkpt lat="47.45225" lon="6.71693">
        <ele>460.9</ele>
        <time>2014-11-23T10:20:10.000Z</time>
      </trkpt>
      <trkpt lat="47.45222" lon="6.71698">
        <ele>460.8</ele>
        <time>2014-11-23T10:20:12.000Z</time>
      </trkpt>
      <trkpt lat="47.45221" lon="6.717">
        <ele>460.6</ele>
        <time>2014-11-23T10:20:13.000Z</time>
      </trkpt>
      <trkpt lat="47.45219" lon="6.71703">
        <ele>460.8</ele>
        <time>2014-11-23T10:20:14.000Z</time>
      </trkpt>
      <trkpt lat="47.45217" lon="6.71705">
        <ele>460.8</ele>
        <time>2014-11-23T10:20:15.000Z</time>
      </trkpt>
      <trkpt lat="47.45215" lon="6.71707">
        <ele>461.1</ele>
        <time>2014-11-23T10:20:16.000Z</time>
      </trkpt>
      <trkpt lat="47.45213" lon="6.71709">
        <ele>461.3</ele>
        <time>2014-11-23T10:20:17.000Z</time>
      </trkpt>
      <trkpt lat="47.4521" lon="6.71713">
        <ele>461.7</ele>
        <time>2014-11-23T10:20:19.000Z</time>
      </trkpt>
      <trkpt lat="47.45208" lon="6.71715">
        <ele>462.2</ele>
        <time>2014-11-23T10:20:20.000Z</time>
      </trkpt>
      <trkpt lat="47.45206" lon="6.7172">
        <ele>462.4</ele>
        <time>2014-11-23T10:20:22.000Z</time>
      </trkpt>
      <trkpt lat="47.45204" lon="6.71722">
        <ele>462.5</ele>
        <time>2014-11-23T10:20:23.000Z</time>
      </trkpt>
      <trkpt lat="47.45203" lon="6.71725">
        <ele>460.7</ele>
        <time>2014-11-23T10:20:24.000Z</time>
      </trkpt>
      <trkpt lat="47.45201" lon="6.71728">
        <ele>461.2</ele>
        <time>2014-11-23T10:20:25.000Z</time>
      </trkpt>
      <trkpt lat="47.45199" lon="6.71731">
        <ele>461</ele>
        <time>2014-11-23T10:20:26.000Z</time>
      </trkpt>
      <trkpt lat="47.45197" lon="6.71735">
        <ele>461</ele>
        <time>2014-11-23T10:20:27.000Z</time>
      </trkpt>
      <trkpt lat="47.45195" lon="6.71737">
        <ele>461</ele>
        <time>2014-11-23T10:20:28.000Z</time>
      </trkpt>
      <trkpt lat="47.45193" lon="6.7174">
        <ele>460.7</ele>
        <time>2014-11-23T10:20:29.000Z</time>
      </trkpt>
      <trkpt lat="47.45176" lon="6.71764">
        <ele>461.1</ele>
        <time>2014-11-23T10:20:37.000Z</time>
      </trkpt>
      <trkpt lat="47.45174" lon="6.71767">
        <ele>460.4</ele>
        <time>2014-11-23T10:20:38.000Z</time>
      </trkpt>
      <trkpt lat="47.45172" lon="6.7177">
        <ele>457.5</ele>
        <time>2014-11-23T10:20:39.000Z</time>
      </trkpt>
      <trkpt lat="47.4517" lon="6.71773">
        <ele>458</ele>
        <time>2014-11-23T10:20:40.000Z</time>
      </trkpt>
      <trkpt lat="47.45168" lon="6.71776">
        <ele>457.4</ele>
        <time>2014-11-23T10:20:41.000Z</time>
      </trkpt>
      <trkpt lat="47.45167" lon="6.71779">
        <ele>456.6</ele>
        <time>2014-11-23T10:20:42.000Z</time>
      </trkpt>
      <trkpt lat="47.45165" lon="6.71781">
        <ele>456.6</ele>
        <time>2014-11-23T10:20:43.000Z</time>
      </trkpt>
      <trkpt lat="47.45163" lon="6.71783">
        <ele>456.8</ele>
        <time>2014-11-23T10:20:44.000Z</time>
      </trkpt>
      <trkpt lat="47.45161" lon="6.71786">
        <ele>456.6</ele>
        <time>2014-11-23T10:20:45.000Z</time>
      </trkpt>
      <trkpt lat="47.45159" lon="6.71788">
        <ele>456.5</ele>
        <time>2014-11-23T10:20:46.000Z</time>
      </trkpt>
      <trkpt lat="47.45157" lon="6.71791">
        <ele>455.8</ele>
        <time>2014-11-23T10:20:47.000Z</time>
      </trkpt>
      <trkpt lat="47.45155" lon="6.71793">
        <ele>454.3</ele>
        <time>2014-11-23T10:20:48.000Z</time>
      </trkpt>
      <trkpt lat="47.45152" lon="6.71796">
        <ele>456.6</ele>
        <time>2014-11-23T10:20:49.000Z</time>
      </trkpt>
      <trkpt lat="47.45149" lon="6.71798">
        <ele>454.4</ele>
        <time>2014-11-23T10:20:50.000Z</time>
      </trkpt>
      <trkpt lat="47.45147" lon="6.71801">
        <ele>453.6</ele>
        <time>2014-11-23T10:20:51.000Z</time>
      </trkpt>
      <trkpt lat="47.45145" lon="6.71804">
        <ele>452.7</ele>
        <time>2014-11-23T10:20:52.000Z</time>
      </trkpt>
      <trkpt lat="47.45142" lon="6.71806">
        <ele>452.5</ele>
        <time>2014-11-23T10:20:53.000Z</time>
      </trkpt>
      <trkpt lat="47.4514" lon="6.71808">
        <ele>455.2</ele>
        <time>2014-11-23T10:20:54.000Z</time>
      </trkpt>
      <trkpt lat="47.45137" lon="6.7181">
        <ele>457.9</ele>
        <time>2014-11-23T10:20:55.000Z</time>
      </trkpt>
      <trkpt lat="47.45134" lon="6.71812">
        <ele>459</ele>
        <time>2014-11-23T10:20:56.000Z</time>
      </trkpt>
      <trkpt lat="47.45131" lon="6.71814">
        <ele>459.4</ele>
        <time>2014-11-23T10:20:57.000Z</time>
      </trkpt>
      <trkpt lat="47.45128" lon="6.71815">
        <ele>459.4</ele>
        <time>2014-11-23T10:20:58.000Z</time>
      </trkpt>
      <trkpt lat="47.45125" lon="6.71816">
        <ele>459.6</ele>
        <time>2014-11-23T10:20:59.000Z</time>
      </trkpt>
      <trkpt lat="47.45122" lon="6.71817">
        <ele>460.6</ele>
        <time>2014-11-23T10:21:00.000Z</time>
      </trkpt>
      <trkpt lat="47.4512" lon="6.71819">
        <ele>460.6</ele>
        <time>2014-11-23T10:21:01.000Z</time>
      </trkpt>
      <trkpt lat="47.45117" lon="6.7182">
        <ele>461.1</ele>
        <time>2014-11-23T10:21:02.000Z</time>
      </trkpt>
      <trkpt lat="47.45115" lon="6.71822">
        <ele>461.5</ele>
        <time>2014-11-23T10:21:03.000Z</time>
      </trkpt>
      <trkpt lat="47.45112" lon="6.71824">
        <ele>460.4</ele>
        <time>2014-11-23T10:21:04.000Z</time>
      </trkpt>
      <trkpt lat="47.4511" lon="6.71826">
        <ele>461.8</ele>
        <time>2014-11-23T10:21:05.000Z</time>
      </trkpt>
      <trkpt lat="47.45108" lon="6.71827">
        <ele>461.7</ele>
        <time>2014-11-23T10:21:06.000Z</time>
      </trkpt>
      <trkpt lat="47.45105" lon="6.71829">
        <ele>461.8</ele>
        <time>2014-11-23T10:21:07.000Z</time>
      </trkpt>
      <trkpt lat="47.45103" lon="6.71831">
        <ele>462.4</ele>
        <time>2014-11-23T10:21:08.000Z</time>
      </trkpt>
      <trkpt lat="47.451" lon="6.71832">
        <ele>465.2</ele>
        <time>2014-11-23T10:21:09.000Z</time>
      </trkpt>
      <trkpt lat="47.45098" lon="6.71832">
        <ele>466.5</ele>
        <time>2014-11-23T10:21:10.000Z</time>
      </trkpt>
      <trkpt lat="47.45095" lon="6.71833">
        <ele>467.5</ele>
        <time>2014-11-23T10:21:11.000Z</time>
      </trkpt>
      <trkpt lat="47.45093" lon="6.71834">
        <ele>466.1</ele>
        <time>2014-11-23T10:21:12.000Z</time>
      </trkpt>
      <trkpt lat="47.45091" lon="6.71835">
        <ele>465.6</ele>
        <time>2014-11-23T10:21:13.000Z</time>
      </trkpt>
      <trkpt lat="47.45088" lon="6.71836">
        <ele>464.9</ele>
        <time>2014-11-23T10:21:14.000Z</time>
      </trkpt>
      <trkpt lat="47.45085" lon="6.71838">
        <ele>465.1</ele>
        <time>2014-11-23T10:21:15.000Z</time>
      </trkpt>
      <trkpt lat="47.45083" lon="6.7184">
        <ele>465.9</ele>
        <time>2014-11-23T10:21:16.000Z</time>
      </trkpt>
      <trkpt lat="47.4508" lon="6.71842">
        <ele>466.3</ele>
        <time>2014-11-23T10:21:17.000Z</time>
      </trkpt>
      <trkpt lat="47.45077" lon="6.71844">
        <ele>465.9</ele>
        <time>2014-11-23T10:21:18.000Z</time>
      </trkpt>
      <trkpt lat="47.45074" lon="6.71845">
        <ele>465.5</ele>
        <time>2014-11-23T10:21:19.000Z</time>
      </trkpt>
      <trkpt lat="47.45071" lon="6.71847">
        <ele>465.1</ele>
        <time>2014-11-23T10:21:20.000Z</time>
      </trkpt>
      <trkpt lat="47.45067" lon="6.71848">
        <ele>465.5</ele>
        <time>2014-11-23T10:21:21.000Z</time>
      </trkpt>
      <trkpt lat="47.45064" lon="6.7185">
        <ele>467.5</ele>
        <time>2014-11-23T10:21:22.000Z</time>
      </trkpt>
      <trkpt lat="47.4506" lon="6.71853">
        <ele>467.5</ele>
        <time>2014-11-23T10:21:23.000Z</time>
      </trkpt>
      <trkpt lat="47.45057" lon="6.71855">
        <ele>466.3</ele>
        <time>2014-11-23T10:21:24.000Z</time>
      </trkpt>
      <trkpt lat="47.45053" lon="6.71858">
        <ele>464.9</ele>
        <time>2014-11-23T10:21:25.000Z</time>
      </trkpt>
      <trkpt lat="47.4505" lon="6.7186">
        <ele>464.7</ele>
        <time>2014-11-23T10:21:26.000Z</time>
      </trkpt>
      <trkpt lat="47.45046" lon="6.71863">
        <ele>464.2</ele>
        <time>2014-11-23T10:21:27.000Z</time>
      </trkpt>
      <trkpt lat="47.45042" lon="6.71866">
        <ele>463.6</ele>
        <time>2014-11-23T10:21:28.000Z</time>
      </trkpt>
      <trkpt lat="47.45036" lon="6.71873">
        <ele>463.4</ele>
        <time>2014-11-23T10:21:29.998Z</time>
      </trkpt>
      <trkpt lat="47.45029" lon="6.71879">
        <ele>462.2</ele>
        <time>2014-11-23T10:21:32.000Z</time>
      </trkpt>
      <trkpt lat="47.45026" lon="6.71882">
        <ele>462.2</ele>
        <time>2014-11-23T10:21:33.000Z</time>
      </trkpt>
      <trkpt lat="47.45023" lon="6.71885">
        <ele>461.5</ele>
        <time>2014-11-23T10:21:34.000Z</time>
      </trkpt>
      <trkpt lat="47.45019" lon="6.71887">
        <ele>461.5</ele>
        <time>2014-11-23T10:21:35.000Z</time>
      </trkpt>
      <trkpt lat="47.45016" lon="6.7189">
        <ele>460.9</ele>
        <time>2014-11-23T10:21:36.000Z</time>
      </trkpt>
      <trkpt lat="47.45012" lon="6.71892">
        <ele>461</ele>
        <time>2014-11-23T10:21:37.000Z</time>
      </trkpt>
      <trkpt lat="47.45007" lon="6.71896">
        <ele>461</ele>
        <time>2014-11-23T10:21:38.000Z</time>
      </trkpt>
      <trkpt lat="47.45003" lon="6.71898">
        <ele>460.9</ele>
        <time>2014-11-23T10:21:39.000Z</time>
      </trkpt>
      <trkpt lat="47.44998" lon="6.719">
        <ele>460.9</ele>
        <time>2014-11-23T10:21:40.000Z</time>
      </trkpt>
      <trkpt lat="47.44993" lon="6.71903">
        <ele>461.2</ele>
        <time>2014-11-23T10:21:41.000Z</time>
      </trkpt>
      <trkpt lat="47.44989" lon="6.71905">
        <ele>461.1</ele>
        <time>2014-11-23T10:21:42.000Z</time>
      </trkpt>
      <trkpt lat="47.44984" lon="6.71909">
        <ele>460.3</ele>
        <time>2014-11-23T10:21:43.000Z</time>
      </trkpt>
      <trkpt lat="47.44979" lon="6.71912">
        <ele>460.2</ele>
        <time>2014-11-23T10:21:44.000Z</time>
      </trkpt>
      <trkpt lat="47.44975" lon="6.71915">
        <ele>459.7</ele>
        <time>2014-11-23T10:21:45.000Z</time>
      </trkpt>
      <trkpt lat="47.4497" lon="6.71918">
        <ele>459.9</ele>
        <time>2014-11-23T10:21:46.000Z</time>
      </trkpt>
      <trkpt lat="47.44965" lon="6.71921">
        <ele>459.8</ele>
        <time>2014-11-23T10:21:47.000Z</time>
      </trkpt>
      <trkpt lat="47.4496" lon="6.71924">
        <ele>459.3</ele>
        <time>2014-11-23T10:21:48.000Z</time>
      </trkpt>
      <trkpt lat="47.44956" lon="6.71927">
        <ele>459.6</ele>
        <time>2014-11-23T10:21:49.000Z</time>
      </trkpt>
      <trkpt lat="47.44951" lon="6.71929">
        <ele>459.6</ele>
        <time>2014-11-23T10:21:50.000Z</time>
      </trkpt>
      <trkpt lat="47.44946" lon="6.71932">
        <ele>459.9</ele>
        <time>2014-11-23T10:21:51.000Z</time>
      </trkpt>
      <trkpt lat="47.44942" lon="6.71935">
        <ele>460.1</ele>
        <time>2014-11-23T10:21:52.000Z</time>
      </trkpt>
      <trkpt lat="47.44937" lon="6.71938">
        <ele>460</ele>
        <time>2014-11-23T10:21:53.000Z</time>
      </trkpt>
      <trkpt lat="47.44933" lon="6.71939">
        <ele>459.9</ele>
        <time>2014-11-23T10:21:54.000Z</time>
      </trkpt>
      <trkpt lat="47.44928" lon="6.71942">
        <ele>459.7</ele>
        <time>2014-11-23T10:21:55.000Z</time>
      </trkpt>
      <trkpt lat="47.44923" lon="6.71944">
        <ele>459.5</ele>
        <time>2014-11-23T10:21:56.000Z</time>
      </trkpt>
      <trkpt lat="47.44918" lon="6.71947">
        <ele>458.4</ele>
        <time>2014-11-23T10:21:57.000Z</time>
      </trkpt>
      <trkpt lat="47.44913" lon="6.71944">
        <ele>459.3</ele>
        <time>2014-11-23T10:21:58.000Z</time>
      </trkpt>
      <trkpt lat="47.44908" lon="6.71945">
        <ele>458.9</ele>
        <time>2014-11-23T10:21:59.000Z</time>
      </trkpt>
      <trkpt lat="47.44903" lon="6.71949">
        <ele>458.5</ele>
        <time>2014-11-23T10:22:00.000Z</time>
      </trkpt>
      <trkpt lat="47.44898" lon="6.71951">
        <ele>458.5</ele>
        <time>2014-11-23T10:22:01.000Z</time>
      </trkpt>
      <trkpt lat="47.44894" lon="6.71954">
        <ele>458</ele>
        <time>2014-11-23T10:22:02.000Z</time>
      </trkpt>
      <trkpt lat="47.44889" lon="6.71956">
        <ele>457.9</ele>
        <time>2014-11-23T10:22:03.000Z</time>
      </trkpt>
      <trkpt lat="47.44885" lon="6.71959">
        <ele>457.8</ele>
        <time>2014-11-23T10:22:04.000Z</time>
      </trkpt>
      <trkpt lat="47.44881" lon="6.7196">
        <ele>457.3</ele>
        <time>2014-11-23T10:22:05.000Z</time>
      </trkpt>
      <trkpt lat="47.44877" lon="6.71962">
        <ele>457.5</ele>
        <time>2014-11-23T10:22:06.000Z</time>
      </trkpt>
      <trkpt lat="47.44873" lon="6.71965">
        <ele>457.1</ele>
        <time>2014-11-23T10:22:07.000Z</time>
      </trkpt>
      <trkpt lat="47.4487" lon="6.71968">
        <ele>457.4</ele>
        <time>2014-11-23T10:22:08.000Z</time>
      </trkpt>
      <trkpt lat="47.44866" lon="6.7197">
        <ele>457.2</ele>
        <time>2014-11-23T10:22:09.000Z</time>
      </trkpt>
      <trkpt lat="47.44862" lon="6.71972">
        <ele>457.4</ele>
        <time>2014-11-23T10:22:10.000Z</time>
      </trkpt>
      <trkpt lat="47.44858" lon="6.71974">
        <ele>457.3</ele>
        <time>2014-11-23T10:22:11.000Z</time>
      </trkpt>
      <trkpt lat="47.44854" lon="6.71976">
        <ele>457.1</ele>
        <time>2014-11-23T10:22:12.000Z</time>
      </trkpt>
      <trkpt lat="47.4485" lon="6.71978">
        <ele>457.2</ele>
        <time>2014-11-23T10:22:13.000Z</time>
      </trkpt>
      <trkpt lat="47.44846" lon="6.71979">
        <ele>457</ele>
        <time>2014-11-23T10:22:14.000Z</time>
      </trkpt>
      <trkpt lat="47.44842" lon="6.71981">
        <ele>457.1</ele>
        <time>2014-11-23T10:22:15.000Z</time>
      </trkpt>
      <trkpt lat="47.44838" lon="6.71983">
        <ele>457.2</ele>
        <time>2014-11-23T10:22:16.000Z</time>
      </trkpt>
      <trkpt lat="47.44834" lon="6.71985">
        <ele>457.4</ele>
        <time>2014-11-23T10:22:17.000Z</time>
      </trkpt>
      <trkpt lat="47.4483" lon="6.71987">
        <ele>457.4</ele>
        <time>2014-11-23T10:22:18.000Z</time>
      </trkpt>
      <trkpt lat="47.44826" lon="6.71989">
        <ele>457.4</ele>
        <time>2014-11-23T10:22:19.000Z</time>
      </trkpt>
      <trkpt lat="47.44822" lon="6.7199">
        <ele>457.1</ele>
        <time>2014-11-23T10:22:20.000Z</time>
      </trkpt>
      <trkpt lat="47.44819" lon="6.71992">
        <ele>456.8</ele>
        <time>2014-11-23T10:22:21.000Z</time>
      </trkpt>
      <trkpt lat="47.44815" lon="6.71993">
        <ele>457</ele>
        <time>2014-11-23T10:22:22.000Z</time>
      </trkpt>
      <trkpt lat="47.44812" lon="6.71995">
        <ele>457</ele>
        <time>2014-11-23T10:22:23.000Z</time>
      </trkpt>
      <trkpt lat="47.44808" lon="6.71996">
        <ele>457.2</ele>
        <time>2014-11-23T10:22:24.000Z</time>
      </trkpt>
      <trkpt lat="47.44805" lon="6.71998">
        <ele>457.1</ele>
        <time>2014-11-23T10:22:25.000Z</time>
      </trkpt>
      <trkpt lat="47.44801" lon="6.72">
        <ele>457.2</ele>
        <time>2014-11-23T10:22:26.000Z</time>
      </trkpt>
      <trkpt lat="47.44798" lon="6.72002">
        <ele>457.4</ele>
        <time>2014-11-23T10:22:27.000Z</time>
      </trkpt>
      <trkpt lat="47.44795" lon="6.72003">
        <ele>457.4</ele>
        <time>2014-11-23T10:22:28.000Z</time>
      </trkpt>
      <trkpt lat="47.44791" lon="6.72004">
        <ele>457.5</ele>
        <time>2014-11-23T10:22:29.000Z</time>
      </trkpt>
      <trkpt lat="47.44768" lon="6.72011">
        <ele>457.4</ele>
        <time>2014-11-23T10:22:37.000Z</time>
      </trkpt>
      <trkpt lat="47.44766" lon="6.72014">
        <ele>457.7</ele>
        <time>2014-11-23T10:22:38.000Z</time>
      </trkpt>
      <trkpt lat="47.44764" lon="6.72017">
        <ele>458.2</ele>
        <time>2014-11-23T10:22:39.000Z</time>
      </trkpt>
      <trkpt lat="47.44763" lon="6.72022">
        <ele>458.6</ele>
        <time>2014-11-23T10:22:40.000Z</time>
      </trkpt>
      <trkpt lat="47.44763" lon="6.72028">
        <ele>459.2</ele>
        <time>2014-11-23T10:22:41.000Z</time>
      </trkpt>
      <trkpt lat="47.44764" lon="6.72033">
        <ele>459.5</ele>
        <time>2014-11-23T10:22:42.000Z</time>
      </trkpt>
      <trkpt lat="47.44764" lon="6.72039">
        <ele>460</ele>
        <time>2014-11-23T10:22:43.000Z</time>
      </trkpt>
      <trkpt lat="47.44765" lon="6.72044">
        <ele>459.4</ele>
        <time>2014-11-23T10:22:44.000Z</time>
      </trkpt>
      <trkpt lat="47.44766" lon="6.7205">
        <ele>459.4</ele>
        <time>2014-11-23T10:22:45.000Z</time>
      </trkpt>
      <trkpt lat="47.44766" lon="6.72054">
        <ele>459.1</ele>
        <time>2014-11-23T10:22:46.000Z</time>
      </trkpt>
      <trkpt lat="47.44768" lon="6.7206">
        <ele>459</ele>
        <time>2014-11-23T10:22:47.000Z</time>
      </trkpt>
      <trkpt lat="47.44769" lon="6.72065">
        <ele>459.4</ele>
        <time>2014-11-23T10:22:48.000Z</time>
      </trkpt>
      <trkpt lat="47.44769" lon="6.7207">
        <ele>459.6</ele>
        <time>2014-11-23T10:22:49.000Z</time>
      </trkpt>
      <trkpt lat="47.4477" lon="6.72075">
        <ele>459.4</ele>
        <time>2014-11-23T10:22:50.000Z</time>
      </trkpt>
      <trkpt lat="47.4477" lon="6.7208">
        <ele>459.8</ele>
        <time>2014-11-23T10:22:51.000Z</time>
      </trkpt>
      <trkpt lat="47.44771" lon="6.72085">
        <ele>460.6</ele>
        <time>2014-11-23T10:22:52.000Z</time>
      </trkpt>
      <trkpt lat="47.44772" lon="6.72089">
        <ele>460.3</ele>
        <time>2014-11-23T10:22:53.000Z</time>
      </trkpt>
      <trkpt lat="47.44773" lon="6.72093">
        <ele>459.8</ele>
        <time>2014-11-23T10:22:54.000Z</time>
      </trkpt>
      <trkpt lat="47.44773" lon="6.72098">
        <ele>459.6</ele>
        <time>2014-11-23T10:22:55.000Z</time>
      </trkpt>
      <trkpt lat="47.44773" lon="6.72105">
        <ele>456.8</ele>
        <time>2014-11-23T10:22:56.000Z</time>
      </trkpt>
      <trkpt lat="47.44774" lon="6.72111">
        <ele>457</ele>
        <time>2014-11-23T10:22:57.000Z</time>
      </trkpt>
      <trkpt lat="47.44775" lon="6.72112">
        <ele>458.2</ele>
        <time>2014-11-23T10:22:58.000Z</time>
      </trkpt>
      <trkpt lat="47.44775" lon="6.72116">
        <ele>458.2</ele>
        <time>2014-11-23T10:22:59.000Z</time>
      </trkpt>
      <trkpt lat="47.44777" lon="6.72121">
        <ele>458.9</ele>
        <time>2014-11-23T10:23:00.000Z</time>
      </trkpt>
      <trkpt lat="47.44778" lon="6.72125">
        <ele>459.3</ele>
        <time>2014-11-23T10:23:01.000Z</time>
      </trkpt>
      <trkpt lat="47.44779" lon="6.72128">
        <ele>460.1</ele>
        <time>2014-11-23T10:23:02.000Z</time>
      </trkpt>
      <trkpt lat="47.4478" lon="6.72134">
        <ele>460</ele>
        <time>2014-11-23T10:23:03.000Z</time>
      </trkpt>
      <trkpt lat="47.44781" lon="6.72139">
        <ele>460.5</ele>
        <time>2014-11-23T10:23:04.000Z</time>
      </trkpt>
      <trkpt lat="47.44782" lon="6.72143">
        <ele>461</ele>
        <time>2014-11-23T10:23:05.000Z</time>
      </trkpt>
      <trkpt lat="47.44783" lon="6.72147">
        <ele>461.5</ele>
        <time>2014-11-23T10:23:06.000Z</time>
      </trkpt>
      <trkpt lat="47.44784" lon="6.72151">
        <ele>459.9</ele>
        <time>2014-11-23T10:23:07.000Z</time>
      </trkpt>
      <trkpt lat="47.44785" lon="6.72155">
        <ele>459.9</ele>
        <time>2014-11-23T10:23:08.000Z</time>
      </trkpt>
      <trkpt lat="47.44786" lon="6.72159">
        <ele>462</ele>
        <time>2014-11-23T10:23:09.000Z</time>
      </trkpt>
      <trkpt lat="47.44787" lon="6.72164">
        <ele>462</ele>
        <time>2014-11-23T10:23:10.000Z</time>
      </trkpt>
      <trkpt lat="47.44788" lon="6.72168">
        <ele>461.9</ele>
        <time>2014-11-23T10:23:11.000Z</time>
      </trkpt>
      <trkpt lat="47.44789" lon="6.72173">
        <ele>462</ele>
        <time>2014-11-23T10:23:12.000Z</time>
      </trkpt>
      <trkpt lat="47.4479" lon="6.72178">
        <ele>461.3</ele>
        <time>2014-11-23T10:23:13.000Z</time>
      </trkpt>
      <trkpt lat="47.44791" lon="6.72183">
        <ele>460.7</ele>
        <time>2014-11-23T10:23:14.000Z</time>
      </trkpt>
      <trkpt lat="47.44792" lon="6.72188">
        <ele>460.7</ele>
        <time>2014-11-23T10:23:15.000Z</time>
      </trkpt>
      <trkpt lat="47.44793" lon="6.72193">
        <ele>461</ele>
        <time>2014-11-23T10:23:16.000Z</time>
      </trkpt>
      <trkpt lat="47.44794" lon="6.72198">
        <ele>461</ele>
        <time>2014-11-23T10:23:17.000Z</time>
      </trkpt>
      <trkpt lat="47.44796" lon="6.72203">
        <ele>461.6</ele>
        <time>2014-11-23T10:23:18.000Z</time>
      </trkpt>
      <trkpt lat="47.44797" lon="6.72208">
        <ele>461</ele>
        <time>2014-11-23T10:23:19.000Z</time>
      </trkpt>
      <trkpt lat="47.44798" lon="6.72214">
        <ele>459.9</ele>
        <time>2014-11-23T10:23:20.000Z</time>
      </trkpt>
      <trkpt lat="47.448" lon="6.7222">
        <ele>459.9</ele>
        <time>2014-11-23T10:23:21.000Z</time>
      </trkpt>
      <trkpt lat="47.44802" lon="6.72225">
        <ele>459.4</ele>
        <time>2014-11-23T10:23:22.000Z</time>
      </trkpt>
      <trkpt lat="47.44805" lon="6.72231">
        <ele>459.5</ele>
        <time>2014-11-23T10:23:23.000Z</time>
      </trkpt>
      <trkpt lat="47.44807" lon="6.72236">
        <ele>458.8</ele>
        <time>2014-11-23T10:23:24.000Z</time>
      </trkpt>
      <trkpt lat="47.44809" lon="6.72241">
        <ele>458.2</ele>
        <time>2014-11-23T10:23:25.000Z</time>
      </trkpt>
      <trkpt lat="47.44812" lon="6.72246">
        <ele>459.4</ele>
        <time>2014-11-23T10:23:26.000Z</time>
      </trkpt>
      <trkpt lat="47.44813" lon="6.7225">
        <ele>459.9</ele>
        <time>2014-11-23T10:23:27.000Z</time>
      </trkpt>
      <trkpt lat="47.44816" lon="6.72254">
        <ele>461.6</ele>
        <time>2014-11-23T10:23:28.000Z</time>
      </trkpt>
      <trkpt lat="47.44819" lon="6.72257">
        <ele>461.7</ele>
        <time>2014-11-23T10:23:29.000Z</time>
      </trkpt>
      <trkpt lat="47.44858" lon="6.72292">
        <ele>460.1</ele>
        <time>2014-11-23T10:23:37.000Z</time>
      </trkpt>
      <trkpt lat="47.44867" lon="6.72299">
        <ele>460.1</ele>
        <time>2014-11-23T10:23:38.000Z</time>
      </trkpt>
      <trkpt lat="47.44876" lon="6.72307">
        <ele>460.4</ele>
        <time>2014-11-23T10:23:39.000Z</time>
      </trkpt>
      <trkpt lat="47.44887" lon="6.72318">
        <ele>459.7</ele>
        <time>2014-11-23T10:23:40.000Z</time>
      </trkpt>
      <trkpt lat="47.44897" lon="6.72326">
        <ele>459.3</ele>
        <time>2014-11-23T10:23:41.000Z</time>
      </trkpt>
      <trkpt lat="47.44908" lon="6.72333">
        <ele>461.1</ele>
        <time>2014-11-23T10:23:42.000Z</time>
      </trkpt>
      <trkpt lat="47.44917" lon="6.72341">
        <ele>459.7</ele>
        <time>2014-11-23T10:23:43.000Z</time>
      </trkpt>
      <trkpt lat="47.44927" lon="6.72351">
        <ele>457.9</ele>
        <time>2014-11-23T10:23:44.000Z</time>
      </trkpt>
      <trkpt lat="47.44937" lon="6.72359">
        <ele>459.4</ele>
        <time>2014-11-23T10:23:45.000Z</time>
      </trkpt>
      <trkpt lat="47.44945" lon="6.72368">
        <ele>461.3</ele>
        <time>2014-11-23T10:23:46.000Z</time>
      </trkpt>
      <trkpt lat="47.44954" lon="6.72375">
        <ele>460.2</ele>
        <time>2014-11-23T10:23:47.000Z</time>
      </trkpt>
      <trkpt lat="47.44963" lon="6.72384">
        <ele>460.7</ele>
        <time>2014-11-23T10:23:48.000Z</time>
      </trkpt>
      <trkpt lat="47.44973" lon="6.72393">
        <ele>459.8</ele>
        <time>2014-11-23T10:23:49.000Z</time>
      </trkpt>
      <trkpt lat="47.44981" lon="6.724">
        <ele>460</ele>
        <time>2014-11-23T10:23:50.000Z</time>
      </trkpt>
      <trkpt lat="47.44989" lon="6.72406">
        <ele>460.7</ele>
        <time>2014-11-23T10:23:51.000Z</time>
      </trkpt>
      <trkpt lat="47.44996" lon="6.72412">
        <ele>460.7</ele>
        <time>2014-11-23T10:23:52.000Z</time>
      </trkpt>
      <trkpt lat="47.45005" lon="6.72418">
        <ele>461.4</ele>
        <time>2014-11-23T10:23:53.000Z</time>
      </trkpt>
      <trkpt lat="47.45014" lon="6.72424">
        <ele>462.6</ele>
        <time>2014-11-23T10:23:54.000Z</time>
      </trkpt>
      <trkpt lat="47.45023" lon="6.72431">
        <ele>461.5</ele>
        <time>2014-11-23T10:23:55.000Z</time>
      </trkpt>
      <trkpt lat="47.45031" lon="6.72436">
        <ele>461.2</ele>
        <time>2014-11-23T10:23:56.000Z</time>
      </trkpt>
      <trkpt lat="47.45041" lon="6.72439">
        <ele>460.9</ele>
        <time>2014-11-23T10:23:57.000Z</time>
      </trkpt>
      <trkpt lat="47.45048" lon="6.72445">
        <ele>459.2</ele>
        <time>2014-11-23T10:23:58.000Z</time>
      </trkpt>
      <trkpt lat="47.45057" lon="6.7245">
        <ele>458.6</ele>
        <time>2014-11-23T10:23:59.000Z</time>
      </trkpt>
      <trkpt lat="47.45064" lon="6.72456">
        <ele>457.6</ele>
        <time>2014-11-23T10:24:00.000Z</time>
      </trkpt>
      <trkpt lat="47.45071" lon="6.72461">
        <ele>456.6</ele>
        <time>2014-11-23T10:24:01.000Z</time>
      </trkpt>
      <trkpt lat="47.45078" lon="6.72466">
        <ele>456.8</ele>
        <time>2014-11-23T10:24:02.000Z</time>
      </trkpt>
      <trkpt lat="47.45086" lon="6.7247">
        <ele>456.7</ele>
        <time>2014-11-23T10:24:03.000Z</time>
      </trkpt>
      <trkpt lat="47.45094" lon="6.72475">
        <ele>456.5</ele>
        <time>2014-11-23T10:24:04.000Z</time>
      </trkpt>
      <trkpt lat="47.45102" lon="6.7248">
        <ele>454.7</ele>
        <time>2014-11-23T10:24:05.000Z</time>
      </trkpt>
      <trkpt lat="47.4511" lon="6.72485">
        <ele>454.3</ele>
        <time>2014-11-23T10:24:06.000Z</time>
      </trkpt>
      <trkpt lat="47.45116" lon="6.72491">
        <ele>453.1</ele>
        <time>2014-11-23T10:24:07.000Z</time>
      </trkpt>
      <trkpt lat="47.45123" lon="6.72495">
        <ele>453.7</ele>
        <time>2014-11-23T10:24:08.000Z</time>
      </trkpt>
      <trkpt lat="47.4513" lon="6.725">
        <ele>452.9</ele>
        <time>2014-11-23T10:24:09.000Z</time>
      </trkpt>
      <trkpt lat="47.45137" lon="6.72505">
        <ele>452.6</ele>
        <time>2014-11-23T10:24:10.000Z</time>
      </trkpt>
      <trkpt lat="47.45143" lon="6.72509">
        <ele>452.4</ele>
        <time>2014-11-23T10:24:11.000Z</time>
      </trkpt>
      <trkpt lat="47.4515" lon="6.72514">
        <ele>452.2</ele>
        <time>2014-11-23T10:24:12.000Z</time>
      </trkpt>
      <trkpt lat="47.45156" lon="6.72519">
        <ele>451.8</ele>
        <time>2014-11-23T10:24:13.000Z</time>
      </trkpt>
      <trkpt lat="47.45162" lon="6.72524">
        <ele>451.8</ele>
        <time>2014-11-23T10:24:14.000Z</time>
      </trkpt>
      <trkpt lat="47.45169" lon="6.72529">
        <ele>451.8</ele>
        <time>2014-11-23T10:24:15.000Z</time>
      </trkpt>
      <trkpt lat="47.45175" lon="6.72534">
        <ele>451.9</ele>
        <time>2014-11-23T10:24:16.000Z</time>
      </trkpt>
      <trkpt lat="47.45181" lon="6.72538">
        <ele>452.4</ele>
        <time>2014-11-23T10:24:17.000Z</time>
      </trkpt>
      <trkpt lat="47.45187" lon="6.72542">
        <ele>452.5</ele>
        <time>2014-11-23T10:24:18.000Z</time>
      </trkpt>
      <trkpt lat="47.45194" lon="6.72546">
        <ele>452.6</ele>
        <time>2014-11-23T10:24:19.000Z</time>
      </trkpt>
      <trkpt lat="47.452" lon="6.7255">
        <ele>452.9</ele>
        <time>2014-11-23T10:24:20.000Z</time>
      </trkpt>
      <trkpt lat="47.45206" lon="6.72554">
        <ele>453.3</ele>
        <time>2014-11-23T10:24:21.000Z</time>
      </trkpt>
      <trkpt lat="47.45212" lon="6.72558">
        <ele>453.4</ele>
        <time>2014-11-23T10:24:22.000Z</time>
      </trkpt>
      <trkpt lat="47.45217" lon="6.72561">
        <ele>453.6</ele>
        <time>2014-11-23T10:24:22.982Z</time>
      </trkpt>
      <trkpt lat="47.45221" lon="6.72565">
        <ele>453.6</ele>
        <time>2014-11-23T10:24:24.000Z</time>
      </trkpt>
      <trkpt lat="47.45226" lon="6.72568">
        <ele>453.9</ele>
        <time>2014-11-23T10:24:25.000Z</time>
      </trkpt>
      <trkpt lat="47.4523" lon="6.72571">
        <ele>453.6</ele>
        <time>2014-11-23T10:24:26.000Z</time>
      </trkpt>
      <trkpt lat="47.45234" lon="6.72574">
        <ele>453.7</ele>
        <time>2014-11-23T10:24:27.000Z</time>
      </trkpt>
      <trkpt lat="47.45239" lon="6.72576">
        <ele>453</ele>
        <time>2014-11-23T10:24:28.000Z</time>
      </trkpt>
      <trkpt lat="47.45271" lon="6.72596">
        <ele>453</ele>
        <time>2014-11-23T10:24:35.797Z</time>
      </trkpt>
      <trkpt lat="47.45276" lon="6.72601">
        <ele>452.3</ele>
        <time>2014-11-23T10:24:37.000Z</time>
      </trkpt>
      <trkpt lat="47.45281" lon="6.72603">
        <ele>452.6</ele>
        <time>2014-11-23T10:24:38.000Z</time>
      </trkpt>
      <trkpt lat="47.45284" lon="6.72607">
        <ele>452.9</ele>
        <time>2014-11-23T10:24:39.000Z</time>
      </trkpt>
      <trkpt lat="47.45286" lon="6.72612">
        <ele>453.1</ele>
        <time>2014-11-23T10:24:40.000Z</time>
      </trkpt>
      <trkpt lat="47.45291" lon="6.72613">
        <ele>452.1</ele>
        <time>2014-11-23T10:24:41.000Z</time>
      </trkpt>
      <trkpt lat="47.45295" lon="6.72614">
        <ele>452.8</ele>
        <time>2014-11-23T10:24:42.000Z</time>
      </trkpt>
      <trkpt lat="47.45299" lon="6.72618">
        <ele>452.3</ele>
        <time>2014-11-23T10:24:43.000Z</time>
      </trkpt>
      <trkpt lat="47.45303" lon="6.72621">
        <ele>452.5</ele>
        <time>2014-11-23T10:24:44.000Z</time>
      </trkpt>
      <trkpt lat="47.45306" lon="6.72624">
        <ele>452.6</ele>
        <time>2014-11-23T10:24:45.000Z</time>
      </trkpt>
      <trkpt lat="47.4531" lon="6.72626">
        <ele>452.4</ele>
        <time>2014-11-23T10:24:46.000Z</time>
      </trkpt>
      <trkpt lat="47.45314" lon="6.72629">
        <ele>451.1</ele>
        <time>2014-11-23T10:24:47.000Z</time>
      </trkpt>
      <trkpt lat="47.45318" lon="6.72632">
        <ele>451.4</ele>
        <time>2014-11-23T10:24:48.000Z</time>
      </trkpt>
      <trkpt lat="47.45322" lon="6.72635">
        <ele>451.6</ele>
        <time>2014-11-23T10:24:49.000Z</time>
      </trkpt>
      <trkpt lat="47.45325" lon="6.72639">
        <ele>451.7</ele>
        <time>2014-11-23T10:24:50.000Z</time>
      </trkpt>
      <trkpt lat="47.45329" lon="6.72644">
        <ele>451.8</ele>
        <time>2014-11-23T10:24:51.000Z</time>
      </trkpt>
      <trkpt lat="47.45332" lon="6.72648">
        <ele>451.9</ele>
        <time>2014-11-23T10:24:52.000Z</time>
      </trkpt>
      <trkpt lat="47.45336" lon="6.72651">
        <ele>452</ele>
        <time>2014-11-23T10:24:53.000Z</time>
      </trkpt>
      <trkpt lat="47.45338" lon="6.72655">
        <ele>451.9</ele>
        <time>2014-11-23T10:24:54.000Z</time>
      </trkpt>
      <trkpt lat="47.45341" lon="6.72659">
        <ele>452.9</ele>
        <time>2014-11-23T10:24:55.000Z</time>
      </trkpt>
      <trkpt lat="47.45344" lon="6.72664">
        <ele>453.1</ele>
        <time>2014-11-23T10:24:56.000Z</time>
      </trkpt>
      <trkpt lat="47.45347" lon="6.72668">
        <ele>453</ele>
        <time>2014-11-23T10:24:57.000Z</time>
      </trkpt>
      <trkpt lat="47.4535" lon="6.72672">
        <ele>453.1</ele>
        <time>2014-11-23T10:24:58.000Z</time>
      </trkpt>
      <trkpt lat="47.45353" lon="6.72677">
        <ele>453.1</ele>
        <time>2014-11-23T10:24:59.000Z</time>
      </trkpt>
      <trkpt lat="47.45356" lon="6.72681">
        <ele>454</ele>
        <time>2014-11-23T10:25:00.000Z</time>
      </trkpt>
      <trkpt lat="47.4536" lon="6.72685">
        <ele>457</ele>
        <time>2014-11-23T10:25:01.000Z</time>
      </trkpt>
      <trkpt lat="47.45363" lon="6.7269">
        <ele>457.8</ele>
        <time>2014-11-23T10:25:02.000Z</time>
      </trkpt>
      <trkpt lat="47.45366" lon="6.72694">
        <ele>458.2</ele>
        <time>2014-11-23T10:25:03.000Z</time>
      </trkpt>
      <trkpt lat="47.45369" lon="6.72698">
        <ele>458.9</ele>
        <time>2014-11-23T10:25:04.000Z</time>
      </trkpt>
      <trkpt lat="47.45373" lon="6.72702">
        <ele>459.3</ele>
        <time>2014-11-23T10:25:05.000Z</time>
      </trkpt>
      <trkpt lat="47.45376" lon="6.72706">
        <ele>461.4</ele>
        <time>2014-11-23T10:25:06.000Z</time>
      </trkpt>
      <trkpt lat="47.45379" lon="6.72709">
        <ele>461.3</ele>
        <time>2014-11-23T10:25:07.000Z</time>
      </trkpt>
      <trkpt lat="47.45382" lon="6.72713">
        <ele>461.4</ele>
        <time>2014-11-23T10:25:08.000Z</time>
      </trkpt>
      <trkpt lat="47.45385" lon="6.72716">
        <ele>462</ele>
        <time>2014-11-23T10:25:09.000Z</time>
      </trkpt>
      <trkpt lat="47.45388" lon="6.72718">
        <ele>461.4</ele>
        <time>2014-11-23T10:25:10.000Z</time>
      </trkpt>
      <trkpt lat="47.4539" lon="6.72721">
        <ele>461.3</ele>
        <time>2014-11-23T10:25:11.000Z</time>
      </trkpt>
      <trkpt lat="47.45392" lon="6.72723">
        <ele>461.2</ele>
        <time>2014-11-23T10:25:12.000Z</time>
      </trkpt>
      <trkpt lat="47.45395" lon="6.72725">
        <ele>461.1</ele>
        <time>2014-11-23T10:25:13.000Z</time>
      </trkpt>
      <trkpt lat="47.45397" lon="6.72727">
        <ele>461.6</ele>
        <time>2014-11-23T10:25:14.000Z</time>
      </trkpt>
      <trkpt lat="47.454" lon="6.72729">
        <ele>461.1</ele>
        <time>2014-11-23T10:25:15.000Z</time>
      </trkpt>
      <trkpt lat="47.45403" lon="6.7273">
        <ele>461.5</ele>
        <time>2014-11-23T10:25:16.000Z</time>
      </trkpt>
      <trkpt lat="47.45407" lon="6.72732">
        <ele>461.4</ele>
        <time>2014-11-23T10:25:17.000Z</time>
      </trkpt>
      <trkpt lat="47.45411" lon="6.72732">
        <ele>461.7</ele>
        <time>2014-11-23T10:25:18.000Z</time>
      </trkpt>
      <trkpt lat="47.45415" lon="6.72733">
        <ele>461.2</ele>
        <time>2014-11-23T10:25:19.000Z</time>
      </trkpt>
      <trkpt lat="47.45419" lon="6.72733">
        <ele>459.6</ele>
        <time>2014-11-23T10:25:20.000Z</time>
      </trkpt>
      <trkpt lat="47.45422" lon="6.72733">
        <ele>458.9</ele>
        <time>2014-11-23T10:25:21.000Z</time>
      </trkpt>
      <trkpt lat="47.45425" lon="6.72732">
        <ele>459.8</ele>
        <time>2014-11-23T10:25:22.000Z</time>
      </trkpt>
      <trkpt lat="47.45429" lon="6.72731">
        <ele>460.3</ele>
        <time>2014-11-23T10:25:23.000Z</time>
      </trkpt>
      <trkpt lat="47.45433" lon="6.7273">
        <ele>459.4</ele>
        <time>2014-11-23T10:25:24.000Z</time>
      </trkpt>
      <trkpt lat="47.45437" lon="6.7273">
        <ele>459.1</ele>
        <time>2014-11-23T10:25:25.000Z</time>
      </trkpt>
      <trkpt lat="47.45441" lon="6.72731">
        <ele>458.1</ele>
        <time>2014-11-23T10:25:26.000Z</time>
      </trkpt>
      <trkpt lat="47.45443" lon="6.72734">
        <ele>458.3</ele>
        <time>2014-11-23T10:25:27.000Z</time>
      </trkpt>
      <trkpt lat="47.45444" lon="6.72738">
        <ele>457.3</ele>
        <time>2014-11-23T10:25:28.000Z</time>
      </trkpt>
      <trkpt lat="47.45445" lon="6.72742">
        <ele>455.9</ele>
        <time>2014-11-23T10:25:29.000Z</time>
      </trkpt>
      <trkpt lat="47.4544" lon="6.72766">
        <ele>451.6</ele>
        <time>2014-11-23T10:25:37.000Z</time>
      </trkpt>
      <trkpt lat="47.45442" lon="6.72771">
        <ele>452.4</ele>
        <time>2014-11-23T10:25:40.000Z</time>
      </trkpt>
      <trkpt lat="47.45442" lon="6.72773">
        <ele>452.3</ele>
        <time>2014-11-23T10:25:41.000Z</time>
      </trkpt>
      <trkpt lat="47.45445" lon="6.72777">
        <ele>451.9</ele>
        <time>2014-11-23T10:25:44.000Z</time>
      </trkpt>
      <trkpt lat="47.45447" lon="6.7278">
        <ele>451.2</ele>
        <time>2014-11-23T10:25:45.000Z</time>
      </trkpt>
      <trkpt lat="47.45448" lon="6.72784">
        <ele>452.2</ele>
        <time>2014-11-23T10:25:47.000Z</time>
      </trkpt>
      <trkpt lat="47.45449" lon="6.72787">
        <ele>452.7</ele>
        <time>2014-11-23T10:25:48.000Z</time>
      </trkpt>
      <trkpt lat="47.45449" lon="6.72792">
        <ele>450.8</ele>
        <time>2014-11-23T10:25:52.000Z</time>
      </trkpt>
      <trkpt lat="47.45449" lon="6.72793">
        <ele>449.9</ele>
        <time>2014-11-23T10:25:53.000Z</time>
      </trkpt>
      <trkpt lat="47.45448" lon="6.72798">
        <ele>451.8</ele>
        <time>2014-11-23T10:25:57.000Z</time>
      </trkpt>
      <trkpt lat="47.45448" lon="6.728">
        <ele>452.3</ele>
        <time>2014-11-23T10:25:58.000Z</time>
      </trkpt>
      <trkpt lat="47.45448" lon="6.72807">
        <ele>454.5</ele>
        <time>2014-11-23T10:26:01.000Z</time>
      </trkpt>
      <trkpt lat="47.45448" lon="6.72809">
        <ele>455.4</ele>
        <time>2014-11-23T10:26:02.000Z</time>
      </trkpt>
      <trkpt lat="47.45448" lon="6.72814">
        <ele>457.8</ele>
        <time>2014-11-23T10:26:04.000Z</time>
      </trkpt>
      <trkpt lat="47.45449" lon="6.72816">
        <ele>459.4</ele>
        <time>2014-11-23T10:26:05.000Z</time>
      </trkpt>
      <trkpt lat="47.4545" lon="6.72822">
        <ele>460.6</ele>
        <time>2014-11-23T10:26:08.000Z</time>
      </trkpt>
      <trkpt lat="47.4545" lon="6.72823">
        <ele>460.7</ele>
        <time>2014-11-23T10:26:09.000Z</time>
      </trkpt>
      <trkpt lat="47.45453" lon="6.72828">
        <ele>461</ele>
        <time>2014-11-23T10:26:20.000Z</time>
      </trkpt>
      <trkpt lat="47.45453" lon="6.72829">
        <ele>460.8</ele>
        <time>2014-11-23T10:26:21.000Z</time>
      </trkpt>
      <trkpt lat="47.45457" lon="6.7283">
        <ele>460.5</ele>
        <time>2014-11-23T10:26:25.000Z</time>
      </trkpt>
      <trkpt lat="47.45458" lon="6.72831">
        <ele>460.6</ele>
        <time>2014-11-23T10:26:26.000Z</time>
      </trkpt>
      <trkpt lat="47.4546" lon="6.72837">
        <ele>460.5</ele>
        <time>2014-11-23T10:26:43.000Z</time>
      </trkpt>
      <trkpt lat="47.4546" lon="6.72838">
        <ele>459.5</ele>
        <time>2014-11-23T10:26:44.000Z</time>
      </trkpt>
      <trkpt lat="47.45462" lon="6.72843">
        <ele>459.6</ele>
        <time>2014-11-23T10:26:47.000Z</time>
      </trkpt>
      <trkpt lat="47.45462" lon="6.72844">
        <ele>460</ele>
        <time>2014-11-23T10:26:48.000Z</time>
      </trkpt>
      <trkpt lat="47.45462" lon="6.72851">
        <ele>462.9</ele>
        <time>2014-11-23T10:26:52.000Z</time>
      </trkpt>
      <trkpt lat="47.45462" lon="6.72853">
        <ele>463</ele>
        <time>2014-11-23T10:26:53.000Z</time>
      </trkpt>
      <trkpt lat="47.45463" lon="6.72857">
        <ele>466.3</ele>
        <time>2014-11-23T10:26:55.000Z</time>
      </trkpt>
      <trkpt lat="47.45463" lon="6.72859">
        <ele>467</ele>
        <time>2014-11-23T10:26:56.000Z</time>
      </trkpt>
      <trkpt lat="47.45463" lon="6.72865">
        <ele>465.7</ele>
        <time>2014-11-23T10:26:58.000Z</time>
      </trkpt>
      <trkpt lat="47.45464" lon="6.72867">
        <ele>465.7</ele>
        <time>2014-11-23T10:26:59.000Z</time>
      </trkpt>
      <trkpt lat="47.45464" lon="6.72871">
        <ele>465.1</ele>
        <time>2014-11-23T10:27:01.000Z</time>
      </trkpt>
      <trkpt lat="47.45465" lon="6.72874">
        <ele>465.3</ele>
        <time>2014-11-23T10:27:02.000Z</time>
      </trkpt>
      <trkpt lat="47.45466" lon="6.72879">
        <ele>465.9</ele>
        <time>2014-11-23T10:27:05.000Z</time>
      </trkpt>
      <trkpt lat="47.45465" lon="6.72881">
        <ele>466.7</ele>
        <time>2014-11-23T10:27:06.000Z</time>
      </trkpt>
      <trkpt lat="47.45465" lon="6.72887">
        <ele>468.5</ele>
        <time>2014-11-23T10:27:09.000Z</time>
      </trkpt>
      <trkpt lat="47.45465" lon="6.72889">
        <ele>468.6</ele>
        <time>2014-11-23T10:27:10.000Z</time>
      </trkpt>
      <trkpt lat="47.45467" lon="6.72894">
        <ele>470.5</ele>
        <time>2014-11-23T10:27:14.000Z</time>
      </trkpt>
      <trkpt lat="47.45468" lon="6.72895">
        <ele>470.1</ele>
        <time>2014-11-23T10:27:15.000Z</time>
      </trkpt>
      <trkpt lat="47.45471" lon="6.72899">
        <ele>471.6</ele>
        <time>2014-11-23T10:27:21.000Z</time>
      </trkpt>
      <trkpt lat="47.45471" lon="6.729">
        <ele>471.7</ele>
        <time>2014-11-23T10:27:22.000Z</time>
      </trkpt>
      <trkpt lat="47.45474" lon="6.72905">
        <ele>473.7</ele>
        <time>2014-11-23T10:27:26.000Z</time>
      </trkpt>
      <trkpt lat="47.45474" lon="6.72907">
        <ele>472.6</ele>
        <time>2014-11-23T10:27:27.000Z</time>
      </trkpt>
      <trkpt lat="47.45476" lon="6.7291">
        <ele>470.6</ele>
        <time>2014-11-23T10:27:29.000Z</time>
      </trkpt>
      <trkpt lat="47.45485" lon="6.72916">
        <ele>466.4</ele>
        <time>2014-11-23T10:27:37.000Z</time>
      </trkpt>
      <trkpt lat="47.45487" lon="6.7292">
        <ele>464.1</ele>
        <time>2014-11-23T10:27:42.000Z</time>
      </trkpt>
      <trkpt lat="47.45488" lon="6.72922">
        <ele>463.9</ele>
        <time>2014-11-23T10:27:43.000Z</time>
      </trkpt>
      <trkpt lat="47.4549" lon="6.72927">
        <ele>463.7</ele>
        <time>2014-11-23T10:27:46.000Z</time>
      </trkpt>
      <trkpt lat="47.45491" lon="6.72928">
        <ele>463.3</ele>
        <time>2014-11-23T10:27:47.000Z</time>
      </trkpt>
      <trkpt lat="47.45494" lon="6.72932">
        <ele>459.6</ele>
        <time>2014-11-23T10:27:51.000Z</time>
      </trkpt>
      <trkpt lat="47.45494" lon="6.72933">
        <ele>458</ele>
        <time>2014-11-23T10:27:51.998Z</time>
      </trkpt>
      <trkpt lat="47.45497" lon="6.72937">
        <ele>459.6</ele>
        <time>2014-11-23T10:27:56.000Z</time>
      </trkpt>
      <trkpt lat="47.45498" lon="6.72937">
        <ele>459.7</ele>
        <time>2014-11-23T10:27:57.000Z</time>
      </trkpt>
      <trkpt lat="47.45501" lon="6.72941">
        <ele>461.7</ele>
        <time>2014-11-23T10:28:03.000Z</time>
      </trkpt>
      <trkpt lat="47.45501" lon="6.72943">
        <ele>462.7</ele>
        <time>2014-11-23T10:28:04.000Z</time>
      </trkpt>
      <trkpt lat="47.45503" lon="6.72949">
        <ele>465.8</ele>
        <time>2014-11-23T10:28:07.000Z</time>
      </trkpt>
      <trkpt lat="47.45503" lon="6.72951">
        <ele>466.2</ele>
        <time>2014-11-23T10:28:08.000Z</time>
      </trkpt>
      <trkpt lat="47.45504" lon="6.72956">
        <ele>465.5</ele>
        <time>2014-11-23T10:28:10.000Z</time>
      </trkpt>
      <trkpt lat="47.45505" lon="6.72958">
        <ele>465.6</ele>
        <time>2014-11-23T10:28:11.000Z</time>
      </trkpt>
      <trkpt lat="47.45508" lon="6.72962">
        <ele>470</ele>
        <time>2014-11-23T10:28:13.000Z</time>
      </trkpt>
      <trkpt lat="47.4551" lon="6.72964">
        <ele>470.8</ele>
        <time>2014-11-23T10:28:14.000Z</time>
      </trkpt>
      <trkpt lat="47.45512" lon="6.72966">
        <ele>469.2</ele>
        <time>2014-11-23T10:28:15.000Z</time>
      </trkpt>
      <trkpt lat="47.45514" lon="6.72969">
        <ele>467.8</ele>
        <time>2014-11-23T10:28:16.000Z</time>
      </trkpt>
      <trkpt lat="47.45515" lon="6.72972">
        <ele>468.1</ele>
        <time>2014-11-23T10:28:17.000Z</time>
      </trkpt>
      <trkpt lat="47.45516" lon="6.72975">
        <ele>468.5</ele>
        <time>2014-11-23T10:28:18.000Z</time>
      </trkpt>
      <trkpt lat="47.45518" lon="6.7298">
        <ele>467.5</ele>
        <time>2014-11-23T10:28:20.000Z</time>
      </trkpt>
      <trkpt lat="47.45519" lon="6.72982">
        <ele>467.3</ele>
        <time>2014-11-23T10:28:21.000Z</time>
      </trkpt>
      <trkpt lat="47.45521" lon="6.72986">
        <ele>469.2</ele>
        <time>2014-11-23T10:28:23.000Z</time>
      </trkpt>
      <trkpt lat="47.45522" lon="6.72987">
        <ele>467.6</ele>
        <time>2014-11-23T10:28:24.000Z</time>
      </trkpt>
      <trkpt lat="47.45524" lon="6.72991">
        <ele>467.7</ele>
        <time>2014-11-23T10:28:27.000Z</time>
      </trkpt>
      <trkpt lat="47.45525" lon="6.72993">
        <ele>467.5</ele>
        <time>2014-11-23T10:28:28.000Z</time>
      </trkpt>
      <trkpt lat="47.45526" lon="6.72994">
        <ele>467.7</ele>
        <time>2014-11-23T10:28:29.000Z</time>
      </trkpt>
      <trkpt lat="47.45532" lon="6.73012">
        <ele>471.3</ele>
        <time>2014-11-23T10:28:37.000Z</time>
      </trkpt>
      <trkpt lat="47.45532" lon="6.73018">
        <ele>474.2</ele>
        <time>2014-11-23T10:28:40.000Z</time>
      </trkpt>
      <trkpt lat="47.45533" lon="6.73021">
        <ele>474.7</ele>
        <time>2014-11-23T10:28:41.000Z</time>
      </trkpt>
      <trkpt lat="47.45534" lon="6.73024">
        <ele>475.1</ele>
        <time>2014-11-23T10:28:42.000Z</time>
      </trkpt>
      <trkpt lat="47.45535" lon="6.73027">
        <ele>474.5</ele>
        <time>2014-11-23T10:28:43.000Z</time>
      </trkpt>
      <trkpt lat="47.45536" lon="6.73032">
        <ele>474.5</ele>
        <time>2014-11-23T10:28:45.000Z</time>
      </trkpt>
      <trkpt lat="47.45537" lon="6.73034">
        <ele>474.5</ele>
        <time>2014-11-23T10:28:46.000Z</time>
      </trkpt>
      <trkpt lat="47.4554" lon="6.73038">
        <ele>474</ele>
        <time>2014-11-23T10:28:48.000Z</time>
      </trkpt>
      <trkpt lat="47.45541" lon="6.7304">
        <ele>474</ele>
        <time>2014-11-23T10:28:49.000Z</time>
      </trkpt>
      <trkpt lat="47.45543" lon="6.73044">
        <ele>474.1</ele>
        <time>2014-11-23T10:28:51.000Z</time>
      </trkpt>
      <trkpt lat="47.45544" lon="6.73046">
        <ele>471.2</ele>
        <time>2014-11-23T10:28:52.000Z</time>
      </trkpt>
      <trkpt lat="47.45545" lon="6.7305">
        <ele>473.9</ele>
        <time>2014-11-23T10:28:54.000Z</time>
      </trkpt>
      <trkpt lat="47.45547" lon="6.73052">
        <ele>473</ele>
        <time>2014-11-23T10:28:55.000Z</time>
      </trkpt>
      <trkpt lat="47.4555" lon="6.73056">
        <ele>470.7</ele>
        <time>2014-11-23T10:28:57.000Z</time>
      </trkpt>
      <trkpt lat="47.45551" lon="6.73059">
        <ele>470.7</ele>
        <time>2014-11-23T10:28:58.000Z</time>
      </trkpt>
      <trkpt lat="47.45552" lon="6.73062">
        <ele>469.3</ele>
        <time>2014-11-23T10:29:00.000Z</time>
      </trkpt>
      <trkpt lat="47.45553" lon="6.73064">
        <ele>468.9</ele>
        <time>2014-11-23T10:29:01.000Z</time>
      </trkpt>
      <trkpt lat="47.45556" lon="6.73066">
        <ele>468.8</ele>
        <time>2014-11-23T10:29:03.000Z</time>
      </trkpt>
      <trkpt lat="47.45558" lon="6.73066">
        <ele>468.1</ele>
        <time>2014-11-23T10:29:04.000Z</time>
      </trkpt>
      <trkpt lat="47.45561" lon="6.7307">
        <ele>466.7</ele>
        <time>2014-11-23T10:29:07.000Z</time>
      </trkpt>
      <trkpt lat="47.45562" lon="6.73072">
        <ele>465.9</ele>
        <time>2014-11-23T10:29:08.000Z</time>
      </trkpt>
      <trkpt lat="47.45565" lon="6.73076">
        <ele>464.8</ele>
        <time>2014-11-23T10:29:11.000Z</time>
      </trkpt>
      <trkpt lat="47.45566" lon="6.73077">
        <ele>464.5</ele>
        <time>2014-11-23T10:29:12.000Z</time>
      </trkpt>
      <trkpt lat="47.45567" lon="6.7308">
        <ele>464.6</ele>
        <time>2014-11-23T10:29:14.000Z</time>
      </trkpt>
      <trkpt lat="47.45568" lon="6.73083">
        <ele>464.5</ele>
        <time>2014-11-23T10:29:15.000Z</time>
      </trkpt>
      <trkpt lat="47.45569" lon="6.73087">
        <ele>465.6</ele>
        <time>2014-11-23T10:29:17.000Z</time>
      </trkpt>
      <trkpt lat="47.4557" lon="6.7309">
        <ele>465.8</ele>
        <time>2014-11-23T10:29:18.000Z</time>
      </trkpt>
      <trkpt lat="47.45568" lon="6.73095">
        <ele>469.2</ele>
        <time>2014-11-23T10:29:22.000Z</time>
      </trkpt>
      <trkpt lat="47.45568" lon="6.73096">
        <ele>470.1</ele>
        <time>2014-11-23T10:29:23.000Z</time>
      </trkpt>
      <trkpt lat="47.45569" lon="6.73102">
        <ele>470.3</ele>
        <time>2014-11-23T10:29:27.000Z</time>
      </trkpt>
      <trkpt lat="47.45569" lon="6.73104">
        <ele>470.1</ele>
        <time>2014-11-23T10:29:28.000Z</time>
      </trkpt>
      <trkpt lat="47.45569" lon="6.73105">
        <ele>471.1</ele>
        <time>2014-11-23T10:29:29.000Z</time>
      </trkpt>
      <trkpt lat="47.45565" lon="6.7311">
        <ele>467.7</ele>
        <time>2014-11-23T10:29:37.000Z</time>
      </trkpt>
      <trkpt lat="47.45567" lon="6.73116">
        <ele>470.3</ele>
        <time>2014-11-23T10:29:42.000Z</time>
      </trkpt>
      <trkpt lat="47.45568" lon="6.73118">
        <ele>469.9</ele>
        <time>2014-11-23T10:29:43.000Z</time>
      </trkpt>
      <trkpt lat="47.45569" lon="6.73123">
        <ele>467.4</ele>
        <time>2014-11-23T10:29:45.000Z</time>
      </trkpt>
      <trkpt lat="47.4557" lon="6.73125">
        <ele>467.2</ele>
        <time>2014-11-23T10:29:46.000Z</time>
      </trkpt>
      <trkpt lat="47.45572" lon="6.73131">
        <ele>466.2</ele>
        <time>2014-11-23T10:29:48.000Z</time>
      </trkpt>
      <trkpt lat="47.45573" lon="6.73134">
        <ele>465.8</ele>
        <time>2014-11-23T10:29:49.000Z</time>
      </trkpt>
      <trkpt lat="47.45574" lon="6.7314">
        <ele>465.4</ele>
        <time>2014-11-23T10:29:52.000Z</time>
      </trkpt>
      <trkpt lat="47.45574" lon="6.73141">
        <ele>465.5</ele>
        <time>2014-11-23T10:29:53.000Z</time>
      </trkpt>
      <trkpt lat="47.45574" lon="6.73146">
        <ele>464.1</ele>
        <time>2014-11-23T10:29:55.000Z</time>
      </trkpt>
      <trkpt lat="47.45573" lon="6.73149">
        <ele>464</ele>
        <time>2014-11-23T10:29:56.000Z</time>
      </trkpt>
      <trkpt lat="47.45573" lon="6.73155">
        <ele>464.6</ele>
        <time>2014-11-23T10:29:58.000Z</time>
      </trkpt>
      <trkpt lat="47.45573" lon="6.73158">
        <ele>464.7</ele>
        <time>2014-11-23T10:29:59.000Z</time>
      </trkpt>
      <trkpt lat="47.45573" lon="6.73162">
        <ele>465</ele>
        <time>2014-11-23T10:30:00.000Z</time>
      </trkpt>
      <trkpt lat="47.45573" lon="6.73166">
        <ele>465.4</ele>
        <time>2014-11-23T10:30:01.000Z</time>
      </trkpt>
      <trkpt lat="47.45573" lon="6.7317">
        <ele>464.7</ele>
        <time>2014-11-23T10:30:02.000Z</time>
      </trkpt>
      <trkpt lat="47.45572" lon="6.73174">
        <ele>464.4</ele>
        <time>2014-11-23T10:30:03.000Z</time>
      </trkpt>
      <trkpt lat="47.45572" lon="6.73179">
        <ele>464.7</ele>
        <time>2014-11-23T10:30:04.000Z</time>
      </trkpt>
      <trkpt lat="47.45573" lon="6.73183">
        <ele>464.2</ele>
        <time>2014-11-23T10:30:05.000Z</time>
      </trkpt>
      <trkpt lat="47.45572" lon="6.73188">
        <ele>464.9</ele>
        <time>2014-11-23T10:30:06.000Z</time>
      </trkpt>
      <trkpt lat="47.45572" lon="6.73193">
        <ele>464.3</ele>
        <time>2014-11-23T10:30:07.000Z</time>
      </trkpt>
      <trkpt lat="47.45572" lon="6.73197">
        <ele>464.4</ele>
        <time>2014-11-23T10:30:08.000Z</time>
      </trkpt>
      <trkpt lat="47.45571" lon="6.73202">
        <ele>465</ele>
        <time>2014-11-23T10:30:09.000Z</time>
      </trkpt>
      <trkpt lat="47.4557" lon="6.73205">
        <ele>465.4</ele>
        <time>2014-11-23T10:30:10.000Z</time>
      </trkpt>
      <trkpt lat="47.45568" lon="6.73209">
        <ele>465.8</ele>
        <time>2014-11-23T10:30:11.000Z</time>
      </trkpt>
      <trkpt lat="47.45566" lon="6.73212">
        <ele>466.2</ele>
        <time>2014-11-23T10:30:12.000Z</time>
      </trkpt>
      <trkpt lat="47.45563" lon="6.73215">
        <ele>465.7</ele>
        <time>2014-11-23T10:30:13.000Z</time>
      </trkpt>
      <trkpt lat="47.45561" lon="6.73219">
        <ele>465.6</ele>
        <time>2014-11-23T10:30:14.000Z</time>
      </trkpt>
      <trkpt lat="47.45558" lon="6.73223">
        <ele>464.8</ele>
        <time>2014-11-23T10:30:15.000Z</time>
      </trkpt>
      <trkpt lat="47.45555" lon="6.73227">
        <ele>464.9</ele>
        <time>2014-11-23T10:30:16.000Z</time>
      </trkpt>
      <trkpt lat="47.45553" lon="6.73231">
        <ele>465.2</ele>
        <time>2014-11-23T10:30:17.000Z</time>
      </trkpt>
      <trkpt lat="47.4555" lon="6.73235">
        <ele>466.8</ele>
        <time>2014-11-23T10:30:18.000Z</time>
      </trkpt>
      <trkpt lat="47.45547" lon="6.73239">
        <ele>469.1</ele>
        <time>2014-11-23T10:30:19.000Z</time>
      </trkpt>
      <trkpt lat="47.45544" lon="6.73243">
        <ele>468.8</ele>
        <time>2014-11-23T10:30:20.000Z</time>
      </trkpt>
      <trkpt lat="47.45541" lon="6.73247">
        <ele>469.2</ele>
        <time>2014-11-23T10:30:21.000Z</time>
      </trkpt>
      <trkpt lat="47.45538" lon="6.7325">
        <ele>469.1</ele>
        <time>2014-11-23T10:30:22.000Z</time>
      </trkpt>
      <trkpt lat="47.45535" lon="6.73253">
        <ele>468.1</ele>
        <time>2014-11-23T10:30:23.000Z</time>
      </trkpt>
      <trkpt lat="47.45533" lon="6.73255">
        <ele>468.7</ele>
        <time>2014-11-23T10:30:24.000Z</time>
      </trkpt>
      <trkpt lat="47.4553" lon="6.73257">
        <ele>468.7</ele>
        <time>2014-11-23T10:30:25.000Z</time>
      </trkpt>
      <trkpt lat="47.45527" lon="6.73259">
        <ele>468.5</ele>
        <time>2014-11-23T10:30:26.000Z</time>
      </trkpt>
      <trkpt lat="47.45524" lon="6.73261">
        <ele>468.6</ele>
        <time>2014-11-23T10:30:27.000Z</time>
      </trkpt>
      <trkpt lat="47.4552" lon="6.73263">
        <ele>468.7</ele>
        <time>2014-11-23T10:30:28.000Z</time>
      </trkpt>
      <trkpt lat="47.45517" lon="6.73266">
        <ele>468.1</ele>
        <time>2014-11-23T10:30:29.000Z</time>
      </trkpt>
      <trkpt lat="47.45496" lon="6.73283">
        <ele>469.3</ele>
        <time>2014-11-23T10:30:37.000Z</time>
      </trkpt>
      <trkpt lat="47.45493" lon="6.73288">
        <ele>469.5</ele>
        <time>2014-11-23T10:30:39.000Z</time>
      </trkpt>
      <trkpt lat="47.45492" lon="6.7329">
        <ele>469.7</ele>
        <time>2014-11-23T10:30:40.000Z</time>
      </trkpt>
      <trkpt lat="47.45491" lon="6.73292">
        <ele>469.9</ele>
        <time>2014-11-23T10:30:41.000Z</time>
      </trkpt>
      <trkpt lat="47.45488" lon="6.73294">
        <ele>469.2</ele>
        <time>2014-11-23T10:30:42.000Z</time>
      </trkpt>
      <trkpt lat="47.45486" lon="6.73296">
        <ele>469.1</ele>
        <time>2014-11-23T10:30:43.000Z</time>
      </trkpt>
      <trkpt lat="47.45483" lon="6.73299">
        <ele>468.6</ele>
        <time>2014-11-23T10:30:44.000Z</time>
      </trkpt>
      <trkpt lat="47.4548" lon="6.73302">
        <ele>467.4</ele>
        <time>2014-11-23T10:30:45.000Z</time>
      </trkpt>
      <trkpt lat="47.45476" lon="6.73305">
        <ele>468.1</ele>
        <time>2014-11-23T10:30:46.000Z</time>
      </trkpt>
      <trkpt lat="47.45473" lon="6.73308">
        <ele>467.9</ele>
        <time>2014-11-23T10:30:47.000Z</time>
      </trkpt>
      <trkpt lat="47.45469" lon="6.73311">
        <ele>467.9</ele>
        <time>2014-11-23T10:30:48.000Z</time>
      </trkpt>
      <trkpt lat="47.45465" lon="6.73315">
        <ele>467.4</ele>
        <time>2014-11-23T10:30:49.000Z</time>
      </trkpt>
      <trkpt lat="47.45462" lon="6.73319">
        <ele>466.8</ele>
        <time>2014-11-23T10:30:50.000Z</time>
      </trkpt>
      <trkpt lat="47.45458" lon="6.73323">
        <ele>466.1</ele>
        <time>2014-11-23T10:30:51.000Z</time>
      </trkpt>
      <trkpt lat="47.45455" lon="6.73328">
        <ele>463.4</ele>
        <time>2014-11-23T10:30:52.000Z</time>
      </trkpt>
      <trkpt lat="47.45452" lon="6.73332">
        <ele>462.9</ele>
        <time>2014-11-23T10:30:53.000Z</time>
      </trkpt>
      <trkpt lat="47.45449" lon="6.73336">
        <ele>465.2</ele>
        <time>2014-11-23T10:30:54.000Z</time>
      </trkpt>
      <trkpt lat="47.45446" lon="6.73339">
        <ele>465.1</ele>
        <time>2014-11-23T10:30:55.000Z</time>
      </trkpt>
      <trkpt lat="47.45443" lon="6.73343">
        <ele>464.4</ele>
        <time>2014-11-23T10:30:56.000Z</time>
      </trkpt>
      <trkpt lat="47.45441" lon="6.73347">
        <ele>464.5</ele>
        <time>2014-11-23T10:30:57.000Z</time>
      </trkpt>
      <trkpt lat="47.45439" lon="6.73351">
        <ele>464.4</ele>
        <time>2014-11-23T10:30:58.000Z</time>
      </trkpt>
      <trkpt lat="47.45437" lon="6.73355">
        <ele>466</ele>
        <time>2014-11-23T10:30:59.000Z</time>
      </trkpt>
      <trkpt lat="47.45435" lon="6.73359">
        <ele>465.7</ele>
        <time>2014-11-23T10:31:00.000Z</time>
      </trkpt>
      <trkpt lat="47.45434" lon="6.73362">
        <ele>466.3</ele>
        <time>2014-11-23T10:31:01.000Z</time>
      </trkpt>
      <trkpt lat="47.45432" lon="6.73365">
        <ele>465.6</ele>
        <time>2014-11-23T10:31:02.000Z</time>
      </trkpt>
      <trkpt lat="47.4543" lon="6.73368">
        <ele>464.9</ele>
        <time>2014-11-23T10:31:03.000Z</time>
      </trkpt>
      <trkpt lat="47.45428" lon="6.73371">
        <ele>464.5</ele>
        <time>2014-11-23T10:31:04.000Z</time>
      </trkpt>
      <trkpt lat="47.45427" lon="6.73373">
        <ele>464.4</ele>
        <time>2014-11-23T10:31:05.000Z</time>
      </trkpt>
      <trkpt lat="47.45426" lon="6.73377">
        <ele>464.6</ele>
        <time>2014-11-23T10:31:06.000Z</time>
      </trkpt>
      <trkpt lat="47.45425" lon="6.7338">
        <ele>463.3</ele>
        <time>2014-11-23T10:31:07.000Z</time>
      </trkpt>
      <trkpt lat="47.45424" lon="6.73384">
        <ele>462.2</ele>
        <time>2014-11-23T10:31:08.000Z</time>
      </trkpt>
      <trkpt lat="47.45424" lon="6.73389">
        <ele>462.3</ele>
        <time>2014-11-23T10:31:09.000Z</time>
      </trkpt>
      <trkpt lat="47.45424" lon="6.73394">
        <ele>462.1</ele>
        <time>2014-11-23T10:31:10.000Z</time>
      </trkpt>
      <trkpt lat="47.45424" lon="6.734">
        <ele>461.4</ele>
        <time>2014-11-23T10:31:11.000Z</time>
      </trkpt>
      <trkpt lat="47.45424" lon="6.73405">
        <ele>461.6</ele>
        <time>2014-11-23T10:31:12.000Z</time>
      </trkpt>
      <trkpt lat="47.45424" lon="6.7341">
        <ele>462</ele>
        <time>2014-11-23T10:31:13.000Z</time>
      </trkpt>
      <trkpt lat="47.45424" lon="6.73415">
        <ele>461.9</ele>
        <time>2014-11-23T10:31:14.000Z</time>
      </trkpt>
      <trkpt lat="47.45424" lon="6.7342">
        <ele>461.7</ele>
        <time>2014-11-23T10:31:15.000Z</time>
      </trkpt>
      <trkpt lat="47.45424" lon="6.73425">
        <ele>462.5</ele>
        <time>2014-11-23T10:31:16.000Z</time>
      </trkpt>
      <trkpt lat="47.45424" lon="6.7343">
        <ele>462.7</ele>
        <time>2014-11-23T10:31:17.000Z</time>
      </trkpt>
      <trkpt lat="47.45423" lon="6.73436">
        <ele>462</ele>
        <time>2014-11-23T10:31:18.000Z</time>
      </trkpt>
      <trkpt lat="47.45424" lon="6.73441">
        <ele>462.9</ele>
        <time>2014-11-23T10:31:19.000Z</time>
      </trkpt>
      <trkpt lat="47.45424" lon="6.73447">
        <ele>463</ele>
        <time>2014-11-23T10:31:20.000Z</time>
      </trkpt>
      <trkpt lat="47.45424" lon="6.73453">
        <ele>463.2</ele>
        <time>2014-11-23T10:31:21.000Z</time>
      </trkpt>
      <trkpt lat="47.45424" lon="6.73459">
        <ele>463.2</ele>
        <time>2014-11-23T10:31:22.000Z</time>
      </trkpt>
      <trkpt lat="47.45425" lon="6.73466">
        <ele>462.1</ele>
        <time>2014-11-23T10:31:23.000Z</time>
      </trkpt>
      <trkpt lat="47.45426" lon="6.73473">
        <ele>462</ele>
        <time>2014-11-23T10:31:24.000Z</time>
      </trkpt>
      <trkpt lat="47.45429" lon="6.73481">
        <ele>461</ele>
        <time>2014-11-23T10:31:25.000Z</time>
      </trkpt>
      <trkpt lat="47.45431" lon="6.73489">
        <ele>460.6</ele>
        <time>2014-11-23T10:31:26.000Z</time>
      </trkpt>
      <trkpt lat="47.45433" lon="6.73497">
        <ele>459.8</ele>
        <time>2014-11-23T10:31:27.000Z</time>
      </trkpt>
      <trkpt lat="47.45435" lon="6.73504">
        <ele>459.5</ele>
        <time>2014-11-23T10:31:28.000Z</time>
      </trkpt>
      <trkpt lat="47.45435" lon="6.7351">
        <ele>459</ele>
        <time>2014-11-23T10:31:29.000Z</time>
      </trkpt>
      <trkpt lat="47.45437" lon="6.73552">
        <ele>445.4</ele>
        <time>2014-11-23T10:31:37.000Z</time>
      </trkpt>
      <trkpt lat="47.45437" lon="6.73556">
        <ele>445.4</ele>
        <time>2014-11-23T10:31:38.000Z</time>
      </trkpt>
      <trkpt lat="47.45437" lon="6.7356">
        <ele>446.5</ele>
        <time>2014-11-23T10:31:39.000Z</time>
      </trkpt>
      <trkpt lat="47.45437" lon="6.73565">
        <ele>446.5</ele>
        <time>2014-11-23T10:31:40.000Z</time>
      </trkpt>
      <trkpt lat="47.45438" lon="6.73569">
        <ele>446</ele>
        <time>2014-11-23T10:31:41.000Z</time>
      </trkpt>
      <trkpt lat="47.45438" lon="6.73572">
        <ele>445</ele>
        <time>2014-11-23T10:31:42.000Z</time>
      </trkpt>
      <trkpt lat="47.45439" lon="6.73576">
        <ele>447.1</ele>
        <time>2014-11-23T10:31:43.000Z</time>
      </trkpt>
      <trkpt lat="47.4544" lon="6.73581">
        <ele>445.6</ele>
        <time>2014-11-23T10:31:45.000Z</time>
      </trkpt>
      <trkpt lat="47.45442" lon="6.73584">
        <ele>445.3</ele>
        <time>2014-11-23T10:31:46.000Z</time>
      </trkpt>
      <trkpt lat="47.45444" lon="6.73588">
        <ele>445.2</ele>
        <time>2014-11-23T10:31:47.000Z</time>
      </trkpt>
      <trkpt lat="47.45445" lon="6.73591">
        <ele>441.3</ele>
        <time>2014-11-23T10:31:48.000Z</time>
      </trkpt>
      <trkpt lat="47.45447" lon="6.73594">
        <ele>440.6</ele>
        <time>2014-11-23T10:31:49.000Z</time>
      </trkpt>
      <trkpt lat="47.45449" lon="6.73597">
        <ele>440.3</ele>
        <time>2014-11-23T10:31:50.000Z</time>
      </trkpt>
      <trkpt lat="47.4545" lon="6.73601">
        <ele>438.4</ele>
        <time>2014-11-23T10:31:51.000Z</time>
      </trkpt>
      <trkpt lat="47.45452" lon="6.73605">
        <ele>438.1</ele>
        <time>2014-11-23T10:31:52.000Z</time>
      </trkpt>
      <trkpt lat="47.45454" lon="6.73608">
        <ele>437.1</ele>
        <time>2014-11-23T10:31:53.000Z</time>
      </trkpt>
      <trkpt lat="47.45456" lon="6.73612">
        <ele>436.8</ele>
        <time>2014-11-23T10:31:54.000Z</time>
      </trkpt>
      <trkpt lat="47.45457" lon="6.73616">
        <ele>436.6</ele>
        <time>2014-11-23T10:31:55.000Z</time>
      </trkpt>
      <trkpt lat="47.45459" lon="6.73619">
        <ele>436.6</ele>
        <time>2014-11-23T10:31:56.000Z</time>
      </trkpt>
      <trkpt lat="47.4546" lon="6.73621">
        <ele>436.9</ele>
        <time>2014-11-23T10:31:57.000Z</time>
      </trkpt>
      <trkpt lat="47.45462" lon="6.73624">
        <ele>436.8</ele>
        <time>2014-11-23T10:31:58.000Z</time>
      </trkpt>
      <trkpt lat="47.45464" lon="6.73627">
        <ele>436.8</ele>
        <time>2014-11-23T10:31:59.000Z</time>
      </trkpt>
      <trkpt lat="47.45466" lon="6.7363">
        <ele>437.7</ele>
        <time>2014-11-23T10:32:00.000Z</time>
      </trkpt>
      <trkpt lat="47.45469" lon="6.73633">
        <ele>439.1</ele>
        <time>2014-11-23T10:32:01.000Z</time>
      </trkpt>
      <trkpt lat="47.45472" lon="6.73636">
        <ele>439.3</ele>
        <time>2014-11-23T10:32:02.000Z</time>
      </trkpt>
      <trkpt lat="47.45475" lon="6.73639">
        <ele>440</ele>
        <time>2014-11-23T10:32:03.000Z</time>
      </trkpt>
      <trkpt lat="47.45478" lon="6.73642">
        <ele>440.2</ele>
        <time>2014-11-23T10:32:04.000Z</time>
      </trkpt>
      <trkpt lat="47.45481" lon="6.73645">
        <ele>440.3</ele>
        <time>2014-11-23T10:32:05.000Z</time>
      </trkpt>
      <trkpt lat="47.45484" lon="6.73648">
        <ele>439.7</ele>
        <time>2014-11-23T10:32:06.000Z</time>
      </trkpt>
      <trkpt lat="47.45487" lon="6.73651">
        <ele>440</ele>
        <time>2014-11-23T10:32:07.000Z</time>
      </trkpt>
      <trkpt lat="47.45491" lon="6.73654">
        <ele>440.7</ele>
        <time>2014-11-23T10:32:08.000Z</time>
      </trkpt>
      <trkpt lat="47.45494" lon="6.73657">
        <ele>441</ele>
        <time>2014-11-23T10:32:09.000Z</time>
      </trkpt>
      <trkpt lat="47.45497" lon="6.7366">
        <ele>441.1</ele>
        <time>2014-11-23T10:32:10.000Z</time>
      </trkpt>
      <trkpt lat="47.455" lon="6.73663">
        <ele>440.3</ele>
        <time>2014-11-23T10:32:11.000Z</time>
      </trkpt>
      <trkpt lat="47.45504" lon="6.73666">
        <ele>443.2</ele>
        <time>2014-11-23T10:32:12.000Z</time>
      </trkpt>
      <trkpt lat="47.45507" lon="6.73668">
        <ele>443.2</ele>
        <time>2014-11-23T10:32:13.000Z</time>
      </trkpt>
      <trkpt lat="47.45511" lon="6.73671">
        <ele>443.2</ele>
        <time>2014-11-23T10:32:14.000Z</time>
      </trkpt>
      <trkpt lat="47.45515" lon="6.73673">
        <ele>443</ele>
        <time>2014-11-23T10:32:15.000Z</time>
      </trkpt>
      <trkpt lat="47.45518" lon="6.73676">
        <ele>442.4</ele>
        <time>2014-11-23T10:32:16.000Z</time>
      </trkpt>
      <trkpt lat="47.45521" lon="6.73677">
        <ele>442.2</ele>
        <time>2014-11-23T10:32:17.000Z</time>
      </trkpt>
      <trkpt lat="47.45524" lon="6.73679">
        <ele>443.2</ele>
        <time>2014-11-23T10:32:18.000Z</time>
      </trkpt>
      <trkpt lat="47.45527" lon="6.73681">
        <ele>443.8</ele>
        <time>2014-11-23T10:32:19.000Z</time>
      </trkpt>
      <trkpt lat="47.4553" lon="6.73682">
        <ele>444</ele>
        <time>2014-11-23T10:32:20.000Z</time>
      </trkpt>
      <trkpt lat="47.45533" lon="6.73683">
        <ele>443.8</ele>
        <time>2014-11-23T10:32:21.000Z</time>
      </trkpt>
      <trkpt lat="47.45536" lon="6.73684">
        <ele>444.9</ele>
        <time>2014-11-23T10:32:22.000Z</time>
      </trkpt>
      <trkpt lat="47.4554" lon="6.73685">
        <ele>447</ele>
        <time>2014-11-23T10:32:23.000Z</time>
      </trkpt>
      <trkpt lat="47.45543" lon="6.73685">
        <ele>446.8</ele>
        <time>2014-11-23T10:32:24.000Z</time>
      </trkpt>
      <trkpt lat="47.45545" lon="6.73686">
        <ele>446.5</ele>
        <time>2014-11-23T10:32:25.000Z</time>
      </trkpt>
      <trkpt lat="47.45548" lon="6.73686">
        <ele>446.6</ele>
        <time>2014-11-23T10:32:26.000Z</time>
      </trkpt>
      <trkpt lat="47.4555" lon="6.73687">
        <ele>446.9</ele>
        <time>2014-11-23T10:32:27.000Z</time>
      </trkpt>
      <trkpt lat="47.45553" lon="6.73687">
        <ele>446.5</ele>
        <time>2014-11-23T10:32:28.000Z</time>
      </trkpt>
      <trkpt lat="47.45583" lon="6.73695">
        <ele>452.7</ele>
        <time>2014-11-23T10:32:37.000Z</time>
      </trkpt>
      <trkpt lat="47.45587" lon="6.73697">
        <ele>453.1</ele>
        <time>2014-11-23T10:32:38.000Z</time>
      </trkpt>
      <trkpt lat="47.45592" lon="6.73699">
        <ele>453.4</ele>
        <time>2014-11-23T10:32:39.000Z</time>
      </trkpt>
      <trkpt lat="47.45596" lon="6.737">
        <ele>453.3</ele>
        <time>2014-11-23T10:32:40.000Z</time>
      </trkpt>
      <trkpt lat="47.45599" lon="6.73701">
        <ele>452.8</ele>
        <time>2014-11-23T10:32:41.000Z</time>
      </trkpt>
      <trkpt lat="47.45603" lon="6.73701">
        <ele>452.7</ele>
        <time>2014-11-23T10:32:42.000Z</time>
      </trkpt>
      <trkpt lat="47.45606" lon="6.73702">
        <ele>453.2</ele>
        <time>2014-11-23T10:32:43.000Z</time>
      </trkpt>
      <trkpt lat="47.4561" lon="6.73702">
        <ele>453.2</ele>
        <time>2014-11-23T10:32:44.000Z</time>
      </trkpt>
      <trkpt lat="47.45614" lon="6.73702">
        <ele>452.8</ele>
        <time>2014-11-23T10:32:45.000Z</time>
      </trkpt>
      <trkpt lat="47.45618" lon="6.73703">
        <ele>454.1</ele>
        <time>2014-11-23T10:32:46.000Z</time>
      </trkpt>
      <trkpt lat="47.45622" lon="6.73703">
        <ele>455.2</ele>
        <time>2014-11-23T10:32:47.000Z</time>
      </trkpt>
      <trkpt lat="47.45625" lon="6.73703">
        <ele>455.3</ele>
        <time>2014-11-23T10:32:48.000Z</time>
      </trkpt>
      <trkpt lat="47.45628" lon="6.73704">
        <ele>455.7</ele>
        <time>2014-11-23T10:32:49.000Z</time>
      </trkpt>
      <trkpt lat="47.45632" lon="6.73706">
        <ele>455.8</ele>
        <time>2014-11-23T10:32:51.000Z</time>
      </trkpt>
      <trkpt lat="47.45633" lon="6.73706">
        <ele>456.1</ele>
        <time>2014-11-23T10:32:52.000Z</time>
      </trkpt>
      <trkpt lat="47.45634" lon="6.73701">
        <ele>454.2</ele>
        <time>2014-11-23T10:32:55.000Z</time>
      </trkpt>
      <trkpt lat="47.45635" lon="6.73699">
        <ele>453.4</ele>
        <time>2014-11-23T10:32:56.000Z</time>
      </trkpt>
      <trkpt lat="47.45636" lon="6.73693">
        <ele>452.9</ele>
        <time>2014-11-23T10:33:09.000Z</time>
      </trkpt>
      <trkpt lat="47.45636" lon="6.73692">
        <ele>452.3</ele>
        <time>2014-11-23T10:33:10.000Z</time>
      </trkpt>
      <trkpt lat="47.4564" lon="6.73691">
        <ele>453.5</ele>
        <time>2014-11-23T10:34:10.000Z</time>
      </trkpt>
      <trkpt lat="47.45641" lon="6.7369">
        <ele>453</ele>
        <time>2014-11-23T10:34:11.000Z</time>
      </trkpt>
      <trkpt lat="47.45644" lon="6.73686">
        <ele>448.3</ele>
        <time>2014-11-23T10:36:03.000Z</time>
      </trkpt>
      <trkpt lat="47.45644" lon="6.73686">
        <ele>448.6</ele>
        <time>2014-11-23T10:36:04.000Z</time>
      </trkpt>
      <trkpt lat="47.45642" lon="6.73691">
        <ele>451.7</ele>
        <time>2014-11-23T10:38:03.000Z</time>
      </trkpt>
      <trkpt lat="47.45642" lon="6.73692">
        <ele>451.6</ele>
        <time>2014-11-23T10:38:04.000Z</time>
      </trkpt>
      <trkpt lat="47.45639" lon="6.73696">
        <ele>453.3</ele>
        <time>2014-11-23T10:38:06.000Z</time>
      </trkpt>
      <trkpt lat="47.45637" lon="6.737">
        <ele>456.9</ele>
        <time>2014-11-23T10:38:07.000Z</time>
      </trkpt>
      <trkpt lat="47.45635" lon="6.73703">
        <ele>458.4</ele>
        <time>2014-11-23T10:38:08.000Z</time>
      </trkpt>
      <trkpt lat="47.45633" lon="6.73707">
        <ele>459</ele>
        <time>2014-11-23T10:38:09.000Z</time>
      </trkpt>
      <trkpt lat="47.4563" lon="6.73711">
        <ele>458.7</ele>
        <time>2014-11-23T10:38:10.000Z</time>
      </trkpt>
      <trkpt lat="47.45629" lon="6.73715">
        <ele>459.1</ele>
        <time>2014-11-23T10:38:11.000Z</time>
      </trkpt>
      <trkpt lat="47.45627" lon="6.73718">
        <ele>459.6</ele>
        <time>2014-11-23T10:38:12.000Z</time>
      </trkpt>
      <trkpt lat="47.45625" lon="6.73721">
        <ele>459.3</ele>
        <time>2014-11-23T10:38:13.000Z</time>
      </trkpt>
      <trkpt lat="47.45623" lon="6.73724">
        <ele>459.2</ele>
        <time>2014-11-23T10:38:14.000Z</time>
      </trkpt>
      <trkpt lat="47.45621" lon="6.73728">
        <ele>458.7</ele>
        <time>2014-11-23T10:38:15.000Z</time>
      </trkpt>
      <trkpt lat="47.4562" lon="6.73731">
        <ele>459.5</ele>
        <time>2014-11-23T10:38:16.000Z</time>
      </trkpt>
      <trkpt lat="47.45619" lon="6.73734">
        <ele>459.5</ele>
        <time>2014-11-23T10:38:17.000Z</time>
      </trkpt>
      <trkpt lat="47.45618" lon="6.73738">
        <ele>459.1</ele>
        <time>2014-11-23T10:38:18.000Z</time>
      </trkpt>
      <trkpt lat="47.45617" lon="6.73741">
        <ele>459.3</ele>
        <time>2014-11-23T10:38:19.000Z</time>
      </trkpt>
      <trkpt lat="47.45617" lon="6.73745">
        <ele>458.7</ele>
        <time>2014-11-23T10:38:20.000Z</time>
      </trkpt>
      <trkpt lat="47.45617" lon="6.73749">
        <ele>458.9</ele>
        <time>2014-11-23T10:38:21.000Z</time>
      </trkpt>
      <trkpt lat="47.45617" lon="6.73754">
        <ele>458.7</ele>
        <time>2014-11-23T10:38:22.000Z</time>
      </trkpt>
      <trkpt lat="47.45616" lon="6.73758">
        <ele>458.1</ele>
        <time>2014-11-23T10:38:23.000Z</time>
      </trkpt>
      <trkpt lat="47.45615" lon="6.73763">
        <ele>457.1</ele>
        <time>2014-11-23T10:38:24.000Z</time>
      </trkpt>
      <trkpt lat="47.45615" lon="6.73767">
        <ele>456.6</ele>
        <time>2014-11-23T10:38:25.000Z</time>
      </trkpt>
      <trkpt lat="47.45614" lon="6.7377">
        <ele>456.3</ele>
        <time>2014-11-23T10:38:26.000Z</time>
      </trkpt>
      <trkpt lat="47.45613" lon="6.73774">
        <ele>455.5</ele>
        <time>2014-11-23T10:38:27.000Z</time>
      </trkpt>
      <trkpt lat="47.45612" lon="6.73777">
        <ele>455</ele>
        <time>2014-11-23T10:38:28.000Z</time>
      </trkpt>
      <trkpt lat="47.45607" lon="6.73809">
        <ele>453.2</ele>
        <time>2014-11-23T10:38:37.000Z</time>
      </trkpt>
      <trkpt lat="47.45606" lon="6.73813">
        <ele>452.8</ele>
        <time>2014-11-23T10:38:38.000Z</time>
      </trkpt>
      <trkpt lat="47.45604" lon="6.73818">
        <ele>450.1</ele>
        <time>2014-11-23T10:38:39.000Z</time>
      </trkpt>
      <trkpt lat="47.45603" lon="6.73824">
        <ele>449.1</ele>
        <time>2014-11-23T10:38:40.000Z</time>
      </trkpt>
      <trkpt lat="47.45602" lon="6.73831">
        <ele>449</ele>
        <time>2014-11-23T10:38:41.000Z</time>
      </trkpt>
      <trkpt lat="47.45603" lon="6.73839">
        <ele>448.7</ele>
        <time>2014-11-23T10:38:42.000Z</time>
      </trkpt>
      <trkpt lat="47.45604" lon="6.73847">
        <ele>447.8</ele>
        <time>2014-11-23T10:38:43.000Z</time>
      </trkpt>
      <trkpt lat="47.45607" lon="6.73855">
        <ele>447.2</ele>
        <time>2014-11-23T10:38:44.000Z</time>
      </trkpt>
      <trkpt lat="47.4561" lon="6.73862">
        <ele>446.3</ele>
        <time>2014-11-23T10:38:45.000Z</time>
      </trkpt>
      <trkpt lat="47.45614" lon="6.73868">
        <ele>446.2</ele>
        <time>2014-11-23T10:38:46.000Z</time>
      </trkpt>
      <trkpt lat="47.45617" lon="6.73874">
        <ele>444.8</ele>
        <time>2014-11-23T10:38:47.000Z</time>
      </trkpt>
      <trkpt lat="47.4562" lon="6.7388">
        <ele>443.4</ele>
        <time>2014-11-23T10:38:48.000Z</time>
      </trkpt>
      <trkpt lat="47.45627" lon="6.73901">
        <ele>443.3</ele>
        <time>2014-11-23T10:38:49.000Z</time>
      </trkpt>
      <trkpt lat="47.45632" lon="6.7391">
        <ele>442.9</ele>
        <time>2014-11-23T10:38:50.000Z</time>
      </trkpt>
      <trkpt lat="47.45635" lon="6.73918">
        <ele>443</ele>
        <time>2014-11-23T10:38:51.000Z</time>
      </trkpt>
      <trkpt lat="47.45638" lon="6.73926">
        <ele>442.6</ele>
        <time>2014-11-23T10:38:52.000Z</time>
      </trkpt>
      <trkpt lat="47.45643" lon="6.73934">
        <ele>443</ele>
        <time>2014-11-23T10:38:53.000Z</time>
      </trkpt>
      <trkpt lat="47.45646" lon="6.73939">
        <ele>443</ele>
        <time>2014-11-23T10:38:54.000Z</time>
      </trkpt>
      <trkpt lat="47.45649" lon="6.73946">
        <ele>442.3</ele>
        <time>2014-11-23T10:38:55.000Z</time>
      </trkpt>
      <trkpt lat="47.45655" lon="6.73955">
        <ele>442.6</ele>
        <time>2014-11-23T10:38:56.000Z</time>
      </trkpt>
      <trkpt lat="47.45659" lon="6.73962">
        <ele>443.3</ele>
        <time>2014-11-23T10:38:57.000Z</time>
      </trkpt>
      <trkpt lat="47.45663" lon="6.7397">
        <ele>442.7</ele>
        <time>2014-11-23T10:38:58.000Z</time>
      </trkpt>
      <trkpt lat="47.45669" lon="6.73978">
        <ele>443</ele>
        <time>2014-11-23T10:38:59.000Z</time>
      </trkpt>
      <trkpt lat="47.45673" lon="6.73984">
        <ele>443</ele>
        <time>2014-11-23T10:39:00.000Z</time>
      </trkpt>
      <trkpt lat="47.45677" lon="6.73991">
        <ele>443.2</ele>
        <time>2014-11-23T10:39:01.000Z</time>
      </trkpt>
      <trkpt lat="47.45681" lon="6.73997">
        <ele>442.3</ele>
        <time>2014-11-23T10:39:02.000Z</time>
      </trkpt>
      <trkpt lat="47.45684" lon="6.74005">
        <ele>440.8</ele>
        <time>2014-11-23T10:39:03.000Z</time>
      </trkpt>
      <trkpt lat="47.45685" lon="6.74009">
        <ele>439.1</ele>
        <time>2014-11-23T10:39:04.000Z</time>
      </trkpt>
      <trkpt lat="47.45688" lon="6.74012">
        <ele>438.3</ele>
        <time>2014-11-23T10:39:05.000Z</time>
      </trkpt>
      <trkpt lat="47.45691" lon="6.74016">
        <ele>438.2</ele>
        <time>2014-11-23T10:39:06.000Z</time>
      </trkpt>
      <trkpt lat="47.45693" lon="6.74021">
        <ele>436.7</ele>
        <time>2014-11-23T10:39:07.000Z</time>
      </trkpt>
      <trkpt lat="47.45696" lon="6.74024">
        <ele>436.5</ele>
        <time>2014-11-23T10:39:08.000Z</time>
      </trkpt>
      <trkpt lat="47.457" lon="6.7403">
        <ele>436.4</ele>
        <time>2014-11-23T10:39:09.000Z</time>
      </trkpt>
      <trkpt lat="47.45706" lon="6.74038">
        <ele>435.3</ele>
        <time>2014-11-23T10:39:10.000Z</time>
      </trkpt>
      <trkpt lat="47.4571" lon="6.74043">
        <ele>435.3</ele>
        <time>2014-11-23T10:39:11.000Z</time>
      </trkpt>
      <trkpt lat="47.45713" lon="6.74047">
        <ele>434.7</ele>
        <time>2014-11-23T10:39:12.000Z</time>
      </trkpt>
      <trkpt lat="47.45717" lon="6.74052">
        <ele>434.4</ele>
        <time>2014-11-23T10:39:13.000Z</time>
      </trkpt>
      <trkpt lat="47.4572" lon="6.74056">
        <ele>434.8</ele>
        <time>2014-11-23T10:39:14.000Z</time>
      </trkpt>
      <trkpt lat="47.45725" lon="6.7406">
        <ele>435.5</ele>
        <time>2014-11-23T10:39:15.000Z</time>
      </trkpt>
      <trkpt lat="47.45725" lon="6.74064">
        <ele>435.5</ele>
        <time>2014-11-23T10:39:16.000Z</time>
      </trkpt>
      <trkpt lat="47.45727" lon="6.74069">
        <ele>435.3</ele>
        <time>2014-11-23T10:39:17.000Z</time>
      </trkpt>
      <trkpt lat="47.4573" lon="6.74072">
        <ele>434.7</ele>
        <time>2014-11-23T10:39:18.000Z</time>
      </trkpt>
      <trkpt lat="47.45732" lon="6.74076">
        <ele>434.5</ele>
        <time>2014-11-23T10:39:19.000Z</time>
      </trkpt>
      <trkpt lat="47.45734" lon="6.7408">
        <ele>434.3</ele>
        <time>2014-11-23T10:39:20.000Z</time>
      </trkpt>
      <trkpt lat="47.45736" lon="6.74085">
        <ele>434.6</ele>
        <time>2014-11-23T10:39:21.000Z</time>
      </trkpt>
      <trkpt lat="47.45739" lon="6.7409">
        <ele>434.4</ele>
        <time>2014-11-23T10:39:22.000Z</time>
      </trkpt>
      <trkpt lat="47.45741" lon="6.74095">
        <ele>434.6</ele>
        <time>2014-11-23T10:39:23.000Z</time>
      </trkpt>
      <trkpt lat="47.45743" lon="6.741">
        <ele>434.5</ele>
        <time>2014-11-23T10:39:24.000Z</time>
      </trkpt>
      <trkpt lat="47.45746" lon="6.74106">
        <ele>434.3</ele>
        <time>2014-11-23T10:39:25.000Z</time>
      </trkpt>
      <trkpt lat="47.45749" lon="6.74112">
        <ele>433.4</ele>
        <time>2014-11-23T10:39:26.000Z</time>
      </trkpt>
      <trkpt lat="47.45752" lon="6.74119">
        <ele>433.4</ele>
        <time>2014-11-23T10:39:27.000Z</time>
      </trkpt>
      <trkpt lat="47.45755" lon="6.74126">
        <ele>432.3</ele>
        <time>2014-11-23T10:39:28.000Z</time>
      </trkpt>
      <trkpt lat="47.45759" lon="6.74133">
        <ele>432.7</ele>
        <time>2014-11-23T10:39:29.000Z</time>
      </trkpt>
      <trkpt lat="47.45784" lon="6.74168">
        <ele>430.6</ele>
        <time>2014-11-23T10:39:37.000Z</time>
      </trkpt>
      <trkpt lat="47.45786" lon="6.7417">
        <ele>430.1</ele>
        <time>2014-11-23T10:39:38.000Z</time>
      </trkpt>
      <trkpt lat="47.45788" lon="6.74172">
        <ele>429.9</ele>
        <time>2014-11-23T10:39:39.000Z</time>
      </trkpt>
      <trkpt lat="47.45791" lon="6.74175">
        <ele>429.5</ele>
        <time>2014-11-23T10:39:40.000Z</time>
      </trkpt>
      <trkpt lat="47.45795" lon="6.74179">
        <ele>431.4</ele>
        <time>2014-11-23T10:39:41.000Z</time>
      </trkpt>
      <trkpt lat="47.458" lon="6.74182">
        <ele>429.7</ele>
        <time>2014-11-23T10:39:42.000Z</time>
      </trkpt>
      <trkpt lat="47.45806" lon="6.74186">
        <ele>428.6</ele>
        <time>2014-11-23T10:39:43.000Z</time>
      </trkpt>
      <trkpt lat="47.45812" lon="6.74189">
        <ele>428</ele>
        <time>2014-11-23T10:39:44.000Z</time>
      </trkpt>
      <trkpt lat="47.45817" lon="6.74192">
        <ele>428.4</ele>
        <time>2014-11-23T10:39:45.000Z</time>
      </trkpt>
      <trkpt lat="47.45821" lon="6.74195">
        <ele>427.9</ele>
        <time>2014-11-23T10:39:46.000Z</time>
      </trkpt>
      <trkpt lat="47.45825" lon="6.74198">
        <ele>427.1</ele>
        <time>2014-11-23T10:39:47.000Z</time>
      </trkpt>
      <trkpt lat="47.45829" lon="6.742">
        <ele>427.2</ele>
        <time>2014-11-23T10:39:48.000Z</time>
      </trkpt>
      <trkpt lat="47.45833" lon="6.74202">
        <ele>427.5</ele>
        <time>2014-11-23T10:39:49.000Z</time>
      </trkpt>
      <trkpt lat="47.45837" lon="6.74204">
        <ele>427.3</ele>
        <time>2014-11-23T10:39:50.000Z</time>
      </trkpt>
      <trkpt lat="47.45841" lon="6.74205">
        <ele>427.5</ele>
        <time>2014-11-23T10:39:51.000Z</time>
      </trkpt>
      <trkpt lat="47.45846" lon="6.74206">
        <ele>426.9</ele>
        <time>2014-11-23T10:39:52.000Z</time>
      </trkpt>
      <trkpt lat="47.4585" lon="6.74208">
        <ele>426.4</ele>
        <time>2014-11-23T10:39:53.000Z</time>
      </trkpt>
      <trkpt lat="47.45854" lon="6.74209">
        <ele>425.6</ele>
        <time>2014-11-23T10:39:54.000Z</time>
      </trkpt>
      <trkpt lat="47.45858" lon="6.7421">
        <ele>425.3</ele>
        <time>2014-11-23T10:39:55.000Z</time>
      </trkpt>
      <trkpt lat="47.45863" lon="6.74212">
        <ele>425.7</ele>
        <time>2014-11-23T10:39:56.000Z</time>
      </trkpt>
      <trkpt lat="47.45867" lon="6.74213">
        <ele>424.7</ele>
        <time>2014-11-23T10:39:57.000Z</time>
      </trkpt>
      <trkpt lat="47.45872" lon="6.74215">
        <ele>425.8</ele>
        <time>2014-11-23T10:39:58.000Z</time>
      </trkpt>
      <trkpt lat="47.45877" lon="6.74216">
        <ele>423.4</ele>
        <time>2014-11-23T10:39:59.000Z</time>
      </trkpt>
      <trkpt lat="47.45882" lon="6.74216">
        <ele>423</ele>
        <time>2014-11-23T10:40:00.000Z</time>
      </trkpt>
      <trkpt lat="47.45886" lon="6.74216">
        <ele>422</ele>
        <time>2014-11-23T10:40:01.000Z</time>
      </trkpt>
      <trkpt lat="47.4589" lon="6.74217">
        <ele>421.9</ele>
        <time>2014-11-23T10:40:02.000Z</time>
      </trkpt>
      <trkpt lat="47.45894" lon="6.74218">
        <ele>423</ele>
        <time>2014-11-23T10:40:03.000Z</time>
      </trkpt>
      <trkpt lat="47.45898" lon="6.74219">
        <ele>423.6</ele>
        <time>2014-11-23T10:40:04.000Z</time>
      </trkpt>
      <trkpt lat="47.45902" lon="6.7422">
        <ele>423.9</ele>
        <time>2014-11-23T10:40:05.000Z</time>
      </trkpt>
      <trkpt lat="47.45906" lon="6.74221">
        <ele>424.2</ele>
        <time>2014-11-23T10:40:06.000Z</time>
      </trkpt>
      <trkpt lat="47.45909" lon="6.74221">
        <ele>423.8</ele>
        <time>2014-11-23T10:40:07.000Z</time>
      </trkpt>
      <trkpt lat="47.45913" lon="6.74222">
        <ele>424</ele>
        <time>2014-11-23T10:40:08.000Z</time>
      </trkpt>
      <trkpt lat="47.45916" lon="6.74222">
        <ele>423.8</ele>
        <time>2014-11-23T10:40:09.000Z</time>
      </trkpt>
      <trkpt lat="47.45919" lon="6.74223">
        <ele>424.2</ele>
        <time>2014-11-23T10:40:10.000Z</time>
      </trkpt>
      <trkpt lat="47.45922" lon="6.74223">
        <ele>425.7</ele>
        <time>2014-11-23T10:40:11.000Z</time>
      </trkpt>
      <trkpt lat="47.45926" lon="6.74223">
        <ele>425.9</ele>
        <time>2014-11-23T10:40:12.000Z</time>
      </trkpt>
      <trkpt lat="47.45929" lon="6.74223">
        <ele>425.5</ele>
        <time>2014-11-23T10:40:13.000Z</time>
      </trkpt>
      <trkpt lat="47.45932" lon="6.74222">
        <ele>425.3</ele>
        <time>2014-11-23T10:40:14.000Z</time>
      </trkpt>
      <trkpt lat="47.45934" lon="6.74221">
        <ele>424.8</ele>
        <time>2014-11-23T10:40:15.000Z</time>
      </trkpt>
      <trkpt lat="47.45937" lon="6.74219">
        <ele>423.7</ele>
        <time>2014-11-23T10:40:16.000Z</time>
      </trkpt>
      <trkpt lat="47.45939" lon="6.74219">
        <ele>423.3</ele>
        <time>2014-11-23T10:40:17.000Z</time>
      </trkpt>
      <trkpt lat="47.45942" lon="6.74218">
        <ele>422.5</ele>
        <time>2014-11-23T10:40:18.000Z</time>
      </trkpt>
      <trkpt lat="47.45945" lon="6.74217">
        <ele>422.7</ele>
        <time>2014-11-23T10:40:19.000Z</time>
      </trkpt>
      <trkpt lat="47.45947" lon="6.74217">
        <ele>422.5</ele>
        <time>2014-11-23T10:40:20.000Z</time>
      </trkpt>
      <trkpt lat="47.4595" lon="6.74217">
        <ele>422.6</ele>
        <time>2014-11-23T10:40:21.000Z</time>
      </trkpt>
      <trkpt lat="47.45953" lon="6.74218">
        <ele>422.5</ele>
        <time>2014-11-23T10:40:22.000Z</time>
      </trkpt>
      <trkpt lat="47.45955" lon="6.74219">
        <ele>422.1</ele>
        <time>2014-11-23T10:40:23.000Z</time>
      </trkpt>
      <trkpt lat="47.45957" lon="6.74221">
        <ele>422.6</ele>
        <time>2014-11-23T10:40:24.000Z</time>
      </trkpt>
      <trkpt lat="47.45959" lon="6.74223">
        <ele>421.9</ele>
        <time>2014-11-23T10:40:25.000Z</time>
      </trkpt>
      <trkpt lat="47.45963" lon="6.74227">
        <ele>421.8</ele>
        <time>2014-11-23T10:40:26.000Z</time>
      </trkpt>
      <trkpt lat="47.45967" lon="6.74231">
        <ele>419.2</ele>
        <time>2014-11-23T10:40:27.000Z</time>
      </trkpt>
      <trkpt lat="47.45971" lon="6.74234">
        <ele>418</ele>
        <time>2014-11-23T10:40:28.000Z</time>
      </trkpt>
      <trkpt lat="47.45999" lon="6.74234">
        <ele>421.6</ele>
        <time>2014-11-23T10:40:37.000Z</time>
      </trkpt>
      <trkpt lat="47.46002" lon="6.74233">
        <ele>420.6</ele>
        <time>2014-11-23T10:40:38.000Z</time>
      </trkpt>
      <trkpt lat="47.46004" lon="6.74232">
        <ele>419.9</ele>
        <time>2014-11-23T10:40:39.000Z</time>
      </trkpt>
      <trkpt lat="47.46006" lon="6.74232">
        <ele>419.9</ele>
        <time>2014-11-23T10:40:40.000Z</time>
      </trkpt>
      <trkpt lat="47.46008" lon="6.74232">
        <ele>420.9</ele>
        <time>2014-11-23T10:40:41.000Z</time>
      </trkpt>
      <trkpt lat="47.46011" lon="6.74233">
        <ele>420.3</ele>
        <time>2014-11-23T10:40:42.000Z</time>
      </trkpt>
      <trkpt lat="47.46013" lon="6.74233">
        <ele>421.1</ele>
        <time>2014-11-23T10:40:43.000Z</time>
      </trkpt>
      <trkpt lat="47.46016" lon="6.74234">
        <ele>422.4</ele>
        <time>2014-11-23T10:40:44.000Z</time>
      </trkpt>
      <trkpt lat="47.46019" lon="6.74235">
        <ele>421.9</ele>
        <time>2014-11-23T10:40:45.000Z</time>
      </trkpt>
      <trkpt lat="47.46021" lon="6.74235">
        <ele>422.7</ele>
        <time>2014-11-23T10:40:46.000Z</time>
      </trkpt>
      <trkpt lat="47.46024" lon="6.74236">
        <ele>422.9</ele>
        <time>2014-11-23T10:40:47.000Z</time>
      </trkpt>
      <trkpt lat="47.46027" lon="6.74236">
        <ele>422.7</ele>
        <time>2014-11-23T10:40:48.000Z</time>
      </trkpt>
      <trkpt lat="47.4603" lon="6.74237">
        <ele>423.2</ele>
        <time>2014-11-23T10:40:49.000Z</time>
      </trkpt>
      <trkpt lat="47.46033" lon="6.74237">
        <ele>423.8</ele>
        <time>2014-11-23T10:40:50.000Z</time>
      </trkpt>
      <trkpt lat="47.46036" lon="6.74239">
        <ele>422.4</ele>
        <time>2014-11-23T10:40:51.000Z</time>
      </trkpt>
      <trkpt lat="47.46039" lon="6.7424">
        <ele>421.4</ele>
        <time>2014-11-23T10:40:52.000Z</time>
      </trkpt>
      <trkpt lat="47.46043" lon="6.74241">
        <ele>422.1</ele>
        <time>2014-11-23T10:40:53.000Z</time>
      </trkpt>
      <trkpt lat="47.46046" lon="6.74242">
        <ele>421.9</ele>
        <time>2014-11-23T10:40:54.000Z</time>
      </trkpt>
      <trkpt lat="47.4605" lon="6.74242">
        <ele>422</ele>
        <time>2014-11-23T10:40:55.000Z</time>
      </trkpt>
      <trkpt lat="47.46053" lon="6.74241">
        <ele>421.8</ele>
        <time>2014-11-23T10:40:56.000Z</time>
      </trkpt>
      <trkpt lat="47.46057" lon="6.7424">
        <ele>421.9</ele>
        <time>2014-11-23T10:40:57.000Z</time>
      </trkpt>
      <trkpt lat="47.4606" lon="6.74241">
        <ele>422.6</ele>
        <time>2014-11-23T10:40:58.000Z</time>
      </trkpt>
      <trkpt lat="47.46064" lon="6.74242">
        <ele>421.9</ele>
        <time>2014-11-23T10:40:59.000Z</time>
      </trkpt>
      <trkpt lat="47.46068" lon="6.74244">
        <ele>421.3</ele>
        <time>2014-11-23T10:41:00.000Z</time>
      </trkpt>
      <trkpt lat="47.46072" lon="6.74245">
        <ele>421</ele>
        <time>2014-11-23T10:41:01.000Z</time>
      </trkpt>
      <trkpt lat="47.46076" lon="6.74246">
        <ele>422.4</ele>
        <time>2014-11-23T10:41:02.000Z</time>
      </trkpt>
      <trkpt lat="47.4608" lon="6.74247">
        <ele>420</ele>
        <time>2014-11-23T10:41:03.000Z</time>
      </trkpt>
      <trkpt lat="47.46084" lon="6.74249">
        <ele>418.5</ele>
        <time>2014-11-23T10:41:04.000Z</time>
      </trkpt>
      <trkpt lat="47.46088" lon="6.74251">
        <ele>420.5</ele>
        <time>2014-11-23T10:41:05.000Z</time>
      </trkpt>
      <trkpt lat="47.46091" lon="6.74252">
        <ele>420.8</ele>
        <time>2014-11-23T10:41:06.000Z</time>
      </trkpt>
      <trkpt lat="47.46095" lon="6.74254">
        <ele>421</ele>
        <time>2014-11-23T10:41:07.000Z</time>
      </trkpt>
      <trkpt lat="47.46099" lon="6.74255">
        <ele>421</ele>
        <time>2014-11-23T10:41:08.000Z</time>
      </trkpt>
      <trkpt lat="47.46102" lon="6.74255">
        <ele>421</ele>
        <time>2014-11-23T10:41:09.000Z</time>
      </trkpt>
      <trkpt lat="47.46105" lon="6.74256">
        <ele>421.2</ele>
        <time>2014-11-23T10:41:10.000Z</time>
      </trkpt>
      <trkpt lat="47.46108" lon="6.74255">
        <ele>421</ele>
        <time>2014-11-23T10:41:11.000Z</time>
      </trkpt>
      <trkpt lat="47.4611" lon="6.74255">
        <ele>416.8</ele>
        <time>2014-11-23T10:41:12.000Z</time>
      </trkpt>
      <trkpt lat="47.46114" lon="6.74256">
        <ele>416.4</ele>
        <time>2014-11-23T10:41:14.000Z</time>
      </trkpt>
      <trkpt lat="47.46116" lon="6.74257">
        <ele>416.2</ele>
        <time>2014-11-23T10:41:15.000Z</time>
      </trkpt>
      <trkpt lat="47.46118" lon="6.74258">
        <ele>415.7</ele>
        <time>2014-11-23T10:41:16.000Z</time>
      </trkpt>
      <trkpt lat="47.4612" lon="6.74258">
        <ele>414.5</ele>
        <time>2014-11-23T10:41:17.000Z</time>
      </trkpt>
      <trkpt lat="47.46123" lon="6.74258">
        <ele>414.3</ele>
        <time>2014-11-23T10:41:18.000Z</time>
      </trkpt>
      <trkpt lat="47.46126" lon="6.74258">
        <ele>413.3</ele>
        <time>2014-11-23T10:41:19.000Z</time>
      </trkpt>
      <trkpt lat="47.46129" lon="6.74257">
        <ele>413.6</ele>
        <time>2014-11-23T10:41:20.000Z</time>
      </trkpt>
      <trkpt lat="47.46131" lon="6.74257">
        <ele>413.8</ele>
        <time>2014-11-23T10:41:21.000Z</time>
      </trkpt>
      <trkpt lat="47.46134" lon="6.74257">
        <ele>413.4</ele>
        <time>2014-11-23T10:41:22.000Z</time>
      </trkpt>
      <trkpt lat="47.46138" lon="6.74257">
        <ele>416.9</ele>
        <time>2014-11-23T10:41:23.000Z</time>
      </trkpt>
      <trkpt lat="47.46142" lon="6.74258">
        <ele>416.8</ele>
        <time>2014-11-23T10:41:24.000Z</time>
      </trkpt>
      <trkpt lat="47.46146" lon="6.74258">
        <ele>417.1</ele>
        <time>2014-11-23T10:41:25.000Z</time>
      </trkpt>
      <trkpt lat="47.4615" lon="6.74259">
        <ele>416.4</ele>
        <time>2014-11-23T10:41:26.000Z</time>
      </trkpt>
      <trkpt lat="47.46154" lon="6.74259">
        <ele>415.9</ele>
        <time>2014-11-23T10:41:27.000Z</time>
      </trkpt>
      <trkpt lat="47.46157" lon="6.74259">
        <ele>415.6</ele>
        <time>2014-11-23T10:41:28.000Z</time>
      </trkpt>
      <trkpt lat="47.46159" lon="6.74259">
        <ele>415.5</ele>
        <time>2014-11-23T10:41:29.000Z</time>
      </trkpt>
      <trkpt lat="47.46183" lon="6.74265">
        <ele>411.9</ele>
        <time>2014-11-23T10:41:37.000Z</time>
      </trkpt>
      <trkpt lat="47.46186" lon="6.74266">
        <ele>411.9</ele>
        <time>2014-11-23T10:41:38.000Z</time>
      </trkpt>
      <trkpt lat="47.46189" lon="6.74267">
        <ele>412.4</ele>
        <time>2014-11-23T10:41:39.000Z</time>
      </trkpt>
      <trkpt lat="47.46192" lon="6.74269">
        <ele>412.5</ele>
        <time>2014-11-23T10:41:40.000Z</time>
      </trkpt>
      <trkpt lat="47.46194" lon="6.7427">
        <ele>413.3</ele>
        <time>2014-11-23T10:41:41.000Z</time>
      </trkpt>
      <trkpt lat="47.46197" lon="6.74271">
        <ele>412.9</ele>
        <time>2014-11-23T10:41:42.000Z</time>
      </trkpt>
      <trkpt lat="47.462" lon="6.74273">
        <ele>413.4</ele>
        <time>2014-11-23T10:41:43.000Z</time>
      </trkpt>
      <trkpt lat="47.46203" lon="6.74275">
        <ele>414.2</ele>
        <time>2014-11-23T10:41:44.000Z</time>
      </trkpt>
      <trkpt lat="47.46207" lon="6.74277">
        <ele>416.2</ele>
        <time>2014-11-23T10:41:45.000Z</time>
      </trkpt>
      <trkpt lat="47.4621" lon="6.74278">
        <ele>416.5</ele>
        <time>2014-11-23T10:41:46.000Z</time>
      </trkpt>
      <trkpt lat="47.46214" lon="6.7428">
        <ele>416.7</ele>
        <time>2014-11-23T10:41:47.000Z</time>
      </trkpt>
      <trkpt lat="47.46218" lon="6.74281">
        <ele>418.6</ele>
        <time>2014-11-23T10:41:48.000Z</time>
      </trkpt>
      <trkpt lat="47.46223" lon="6.74283">
        <ele>419.4</ele>
        <time>2014-11-23T10:41:49.000Z</time>
      </trkpt>
      <trkpt lat="47.46227" lon="6.74285">
        <ele>419.3</ele>
        <time>2014-11-23T10:41:50.000Z</time>
      </trkpt>
      <trkpt lat="47.46232" lon="6.74286">
        <ele>417.5</ele>
        <time>2014-11-23T10:41:51.000Z</time>
      </trkpt>
      <trkpt lat="47.46237" lon="6.74288">
        <ele>415.6</ele>
        <time>2014-11-23T10:41:52.000Z</time>
      </trkpt>
      <trkpt lat="47.46242" lon="6.7429">
        <ele>415.5</ele>
        <time>2014-11-23T10:41:53.000Z</time>
      </trkpt>
      <trkpt lat="47.46246" lon="6.74292">
        <ele>415</ele>
        <time>2014-11-23T10:41:54.000Z</time>
      </trkpt>
      <trkpt lat="47.46251" lon="6.74294">
        <ele>414.7</ele>
        <time>2014-11-23T10:41:55.000Z</time>
      </trkpt>
      <trkpt lat="47.46255" lon="6.74295">
        <ele>417.6</ele>
        <time>2014-11-23T10:41:56.000Z</time>
      </trkpt>
      <trkpt lat="47.46259" lon="6.74295">
        <ele>420.1</ele>
        <time>2014-11-23T10:41:57.000Z</time>
      </trkpt>
      <trkpt lat="47.46261" lon="6.74295">
        <ele>419</ele>
        <time>2014-11-23T10:41:58.000Z</time>
      </trkpt>
      <trkpt lat="47.46263" lon="6.74294">
        <ele>419.7</ele>
        <time>2014-11-23T10:41:59.000Z</time>
      </trkpt>
      <trkpt lat="47.46266" lon="6.74291">
        <ele>418.6</ele>
        <time>2014-11-23T10:42:01.000Z</time>
      </trkpt>
      <trkpt lat="47.46267" lon="6.74291">
        <ele>417.7</ele>
        <time>2014-11-23T10:42:02.000Z</time>
      </trkpt>
      <trkpt lat="47.46271" lon="6.74291">
        <ele>418.4</ele>
        <time>2014-11-23T10:42:06.000Z</time>
      </trkpt>
      <trkpt lat="47.46272" lon="6.74293">
        <ele>418.9</ele>
        <time>2014-11-23T10:42:07.000Z</time>
      </trkpt>
      <trkpt lat="47.46275" lon="6.74296">
        <ele>416.8</ele>
        <time>2014-11-23T10:42:09.000Z</time>
      </trkpt>
      <trkpt lat="47.46276" lon="6.74297">
        <ele>417.1</ele>
        <time>2014-11-23T10:42:10.000Z</time>
      </trkpt>
      <trkpt lat="47.46278" lon="6.743">
        <ele>416.2</ele>
        <time>2014-11-23T10:42:12.000Z</time>
      </trkpt>
      <trkpt lat="47.46281" lon="6.74301">
        <ele>415.7</ele>
        <time>2014-11-23T10:42:13.000Z</time>
      </trkpt>
      <trkpt lat="47.46284" lon="6.74301">
        <ele>415.4</ele>
        <time>2014-11-23T10:42:14.000Z</time>
      </trkpt>
      <trkpt lat="47.46287" lon="6.74302">
        <ele>416.1</ele>
        <time>2014-11-23T10:42:15.000Z</time>
      </trkpt>
      <trkpt lat="47.46291" lon="6.74302">
        <ele>417.8</ele>
        <time>2014-11-23T10:42:16.000Z</time>
      </trkpt>
      <trkpt lat="47.46294" lon="6.74303">
        <ele>417.7</ele>
        <time>2014-11-23T10:42:17.000Z</time>
      </trkpt>
      <trkpt lat="47.46297" lon="6.74304">
        <ele>417.9</ele>
        <time>2014-11-23T10:42:18.000Z</time>
      </trkpt>
      <trkpt lat="47.463" lon="6.74306">
        <ele>418.2</ele>
        <time>2014-11-23T10:42:19.000Z</time>
      </trkpt>
      <trkpt lat="47.46303" lon="6.74307">
        <ele>417.8</ele>
        <time>2014-11-23T10:42:20.000Z</time>
      </trkpt>
      <trkpt lat="47.46306" lon="6.74309">
        <ele>417.9</ele>
        <time>2014-11-23T10:42:21.000Z</time>
      </trkpt>
      <trkpt lat="47.46308" lon="6.74311">
        <ele>416.2</ele>
        <time>2014-11-23T10:42:22.000Z</time>
      </trkpt>
      <trkpt lat="47.46311" lon="6.74313">
        <ele>415.7</ele>
        <time>2014-11-23T10:42:23.000Z</time>
      </trkpt>
      <trkpt lat="47.46313" lon="6.74315">
        <ele>415</ele>
        <time>2014-11-23T10:42:24.000Z</time>
      </trkpt>
      <trkpt lat="47.46316" lon="6.74316">
        <ele>414.2</ele>
        <time>2014-11-23T10:42:25.000Z</time>
      </trkpt>
      <trkpt lat="47.46319" lon="6.74317">
        <ele>413.4</ele>
        <time>2014-11-23T10:42:27.000Z</time>
      </trkpt>
      <trkpt lat="47.46321" lon="6.74317">
        <ele>413.6</ele>
        <time>2014-11-23T10:42:28.000Z</time>
      </trkpt>
      <trkpt lat="47.46324" lon="6.74317">
        <ele>413.7</ele>
        <time>2014-11-23T10:42:29.000Z</time>
      </trkpt>
      <trkpt lat="47.46346" lon="6.74323">
        <ele>411.3</ele>
        <time>2014-11-23T10:42:37.000Z</time>
      </trkpt>
      <trkpt lat="47.46349" lon="6.74322">
        <ele>410.7</ele>
        <time>2014-11-23T10:42:38.000Z</time>
      </trkpt>
      <trkpt lat="47.46352" lon="6.74322">
        <ele>409.7</ele>
        <time>2014-11-23T10:42:39.000Z</time>
      </trkpt>
      <trkpt lat="47.46356" lon="6.74324">
        <ele>408.8</ele>
        <time>2014-11-23T10:42:40.000Z</time>
      </trkpt>
      <trkpt lat="47.4636" lon="6.74327">
        <ele>407.6</ele>
        <time>2014-11-23T10:42:41.000Z</time>
      </trkpt>
      <trkpt lat="47.46364" lon="6.7433">
        <ele>407.6</ele>
        <time>2014-11-23T10:42:42.000Z</time>
      </trkpt>
      <trkpt lat="47.46368" lon="6.74333">
        <ele>407.9</ele>
        <time>2014-11-23T10:42:43.000Z</time>
      </trkpt>
      <trkpt lat="47.46372" lon="6.74336">
        <ele>408</ele>
        <time>2014-11-23T10:42:44.000Z</time>
      </trkpt>
      <trkpt lat="47.46376" lon="6.74338">
        <ele>407.6</ele>
        <time>2014-11-23T10:42:45.000Z</time>
      </trkpt>
      <trkpt lat="47.4638" lon="6.7434">
        <ele>406.6</ele>
        <time>2014-11-23T10:42:46.000Z</time>
      </trkpt>
      <trkpt lat="47.46384" lon="6.74342">
        <ele>406.5</ele>
        <time>2014-11-23T10:42:47.000Z</time>
      </trkpt>
      <trkpt lat="47.46388" lon="6.74345">
        <ele>406.4</ele>
        <time>2014-11-23T10:42:48.000Z</time>
      </trkpt>
      <trkpt lat="47.46392" lon="6.74348">
        <ele>402.2</ele>
        <time>2014-11-23T10:42:49.000Z</time>
      </trkpt>
      <trkpt lat="47.46395" lon="6.74351">
        <ele>400.5</ele>
        <time>2014-11-23T10:42:50.000Z</time>
      </trkpt>
      <trkpt lat="47.464" lon="6.74354">
        <ele>398.9</ele>
        <time>2014-11-23T10:42:51.000Z</time>
      </trkpt>
      <trkpt lat="47.46404" lon="6.74356">
        <ele>398.8</ele>
        <time>2014-11-23T10:42:52.000Z</time>
      </trkpt>
      <trkpt lat="47.46408" lon="6.74358">
        <ele>399.1</ele>
        <time>2014-11-23T10:42:53.000Z</time>
      </trkpt>
      <trkpt lat="47.46412" lon="6.7436">
        <ele>399.4</ele>
        <time>2014-11-23T10:42:54.000Z</time>
      </trkpt>
      <trkpt lat="47.46415" lon="6.74362">
        <ele>398.7</ele>
        <time>2014-11-23T10:42:55.000Z</time>
      </trkpt>
      <trkpt lat="47.46418" lon="6.74365">
        <ele>397.3</ele>
        <time>2014-11-23T10:42:56.000Z</time>
      </trkpt>
      <trkpt lat="47.46421" lon="6.74369">
        <ele>395.7</ele>
        <time>2014-11-23T10:42:57.000Z</time>
      </trkpt>
      <trkpt lat="47.46423" lon="6.74372">
        <ele>395.6</ele>
        <time>2014-11-23T10:42:58.000Z</time>
      </trkpt>
      <trkpt lat="47.46426" lon="6.74377">
        <ele>394.9</ele>
        <time>2014-11-23T10:42:59.000Z</time>
      </trkpt>
      <trkpt lat="47.46429" lon="6.7438">
        <ele>394.3</ele>
        <time>2014-11-23T10:43:00.000Z</time>
      </trkpt>
      <trkpt lat="47.46431" lon="6.74383">
        <ele>394.2</ele>
        <time>2014-11-23T10:43:01.000Z</time>
      </trkpt>
      <trkpt lat="47.46434" lon="6.74385">
        <ele>394</ele>
        <time>2014-11-23T10:43:02.000Z</time>
      </trkpt>
      <trkpt lat="47.46436" lon="6.74387">
        <ele>393.8</ele>
        <time>2014-11-23T10:43:03.000Z</time>
      </trkpt>
      <trkpt lat="47.46439" lon="6.7439">
        <ele>392.9</ele>
        <time>2014-11-23T10:43:04.000Z</time>
      </trkpt>
      <trkpt lat="47.46442" lon="6.74393">
        <ele>392.4</ele>
        <time>2014-11-23T10:43:05.000Z</time>
      </trkpt>
      <trkpt lat="47.46445" lon="6.74396">
        <ele>391.7</ele>
        <time>2014-11-23T10:43:06.000Z</time>
      </trkpt>
      <trkpt lat="47.46447" lon="6.74399">
        <ele>391.4</ele>
        <time>2014-11-23T10:43:06.999Z</time>
      </trkpt>
      <trkpt lat="47.46452" lon="6.74404">
        <ele>391.1</ele>
        <time>2014-11-23T10:43:08.000Z</time>
      </trkpt>
      <trkpt lat="47.46456" lon="6.74409">
        <ele>390.8</ele>
        <time>2014-11-23T10:43:09.000Z</time>
      </trkpt>
      <trkpt lat="47.4646" lon="6.74413">
        <ele>389.9</ele>
        <time>2014-11-23T10:43:10.000Z</time>
      </trkpt>
      <trkpt lat="47.46465" lon="6.74418">
        <ele>389.7</ele>
        <time>2014-11-23T10:43:11.000Z</time>
      </trkpt>
      <trkpt lat="47.4647" lon="6.74422">
        <ele>389.5</ele>
        <time>2014-11-23T10:43:12.000Z</time>
      </trkpt>
      <trkpt lat="47.46486" lon="6.74437">
        <ele>389.2</ele>
        <time>2014-11-23T10:43:13.000Z</time>
      </trkpt>
      <trkpt lat="47.46492" lon="6.74443">
        <ele>388.9</ele>
        <time>2014-11-23T10:43:14.000Z</time>
      </trkpt>
      <trkpt lat="47.46498" lon="6.74449">
        <ele>388.7</ele>
        <time>2014-11-23T10:43:15.000Z</time>
      </trkpt>
      <trkpt lat="47.46504" lon="6.74455">
        <ele>388.9</ele>
        <time>2014-11-23T10:43:16.000Z</time>
      </trkpt>
      <trkpt lat="47.46507" lon="6.74463">
        <ele>386.6</ele>
        <time>2014-11-23T10:43:17.000Z</time>
      </trkpt>
      <trkpt lat="47.46512" lon="6.74471">
        <ele>385.9</ele>
        <time>2014-11-23T10:43:18.000Z</time>
      </trkpt>
      <trkpt lat="47.46514" lon="6.74476">
        <ele>385.7</ele>
        <time>2014-11-23T10:43:19.000Z</time>
      </trkpt>
      <trkpt lat="47.46517" lon="6.74481">
        <ele>385.2</ele>
        <time>2014-11-23T10:43:20.000Z</time>
      </trkpt>
      <trkpt lat="47.46521" lon="6.74492">
        <ele>384.8</ele>
        <time>2014-11-23T10:43:21.000Z</time>
      </trkpt>
      <trkpt lat="47.46527" lon="6.74498">
        <ele>382.9</ele>
        <time>2014-11-23T10:43:22.000Z</time>
      </trkpt>
      <trkpt lat="47.4653" lon="6.74505">
        <ele>382.7</ele>
        <time>2014-11-23T10:43:23.000Z</time>
      </trkpt>
      <trkpt lat="47.46534" lon="6.74509">
        <ele>382.4</ele>
        <time>2014-11-23T10:43:24.000Z</time>
      </trkpt>
      <trkpt lat="47.46539" lon="6.74514">
        <ele>381.9</ele>
        <time>2014-11-23T10:43:25.000Z</time>
      </trkpt>
      <trkpt lat="47.46547" lon="6.74525">
        <ele>380.3</ele>
        <time>2014-11-23T10:43:26.000Z</time>
      </trkpt>
      <trkpt lat="47.46553" lon="6.74533">
        <ele>380.6</ele>
        <time>2014-11-23T10:43:27.000Z</time>
      </trkpt>
      <trkpt lat="47.46557" lon="6.74538">
        <ele>380.6</ele>
        <time>2014-11-23T10:43:28.000Z</time>
      </trkpt>
      <trkpt lat="47.46562" lon="6.74543">
        <ele>380.5</ele>
        <time>2014-11-23T10:43:29.000Z</time>
      </trkpt>
      <trkpt lat="47.4659" lon="6.74586">
        <ele>375</ele>
        <time>2014-11-23T10:43:37.000Z</time>
      </trkpt>
      <trkpt lat="47.46595" lon="6.74589">
        <ele>374.5</ele>
        <time>2014-11-23T10:43:38.000Z</time>
      </trkpt>
      <trkpt lat="47.46597" lon="6.74594">
        <ele>374.8</ele>
        <time>2014-11-23T10:43:39.000Z</time>
      </trkpt>
      <trkpt lat="47.46603" lon="6.74601">
        <ele>374.3</ele>
        <time>2014-11-23T10:43:40.000Z</time>
      </trkpt>
      <trkpt lat="47.46607" lon="6.7461">
        <ele>374.2</ele>
        <time>2014-11-23T10:43:41.000Z</time>
      </trkpt>
      <trkpt lat="47.46611" lon="6.74615">
        <ele>374.4</ele>
        <time>2014-11-23T10:43:42.000Z</time>
      </trkpt>
      <trkpt lat="47.46615" lon="6.74621">
        <ele>374</ele>
        <time>2014-11-23T10:43:43.000Z</time>
      </trkpt>
      <trkpt lat="47.46622" lon="6.74631">
        <ele>373.3</ele>
        <time>2014-11-23T10:43:44.000Z</time>
      </trkpt>
      <trkpt lat="47.46626" lon="6.74639">
        <ele>372.5</ele>
        <time>2014-11-23T10:43:45.000Z</time>
      </trkpt>
      <trkpt lat="47.46631" lon="6.74646">
        <ele>372.1</ele>
        <time>2014-11-23T10:43:46.000Z</time>
      </trkpt>
      <trkpt lat="47.4664" lon="6.74659">
        <ele>371.6</ele>
        <time>2014-11-23T10:43:47.000Z</time>
      </trkpt>
      <trkpt lat="47.46648" lon="6.7467">
        <ele>370.3</ele>
        <time>2014-11-23T10:43:48.000Z</time>
      </trkpt>
      <trkpt lat="47.46654" lon="6.74682">
        <ele>369.5</ele>
        <time>2014-11-23T10:43:49.000Z</time>
      </trkpt>
      <trkpt lat="47.46663" lon="6.74695">
        <ele>368.7</ele>
        <time>2014-11-23T10:43:50.000Z</time>
      </trkpt>
      <trkpt lat="47.46673" lon="6.74708">
        <ele>367.9</ele>
        <time>2014-11-23T10:43:51.000Z</time>
      </trkpt>
      <trkpt lat="47.46682" lon="6.74713">
        <ele>367.7</ele>
        <time>2014-11-23T10:43:52.000Z</time>
      </trkpt>
      <trkpt lat="47.46686" lon="6.74716">
        <ele>366.9</ele>
        <time>2014-11-23T10:43:53.000Z</time>
      </trkpt>
      <trkpt lat="47.46687" lon="6.74713">
        <ele>366.4</ele>
        <time>2014-11-23T10:43:54.000Z</time>
      </trkpt>
      <trkpt lat="47.46692" lon="6.74711">
        <ele>362.3</ele>
        <time>2014-11-23T10:43:55.000Z</time>
      </trkpt>
      <trkpt lat="47.46695" lon="6.74713">
        <ele>359.6</ele>
        <time>2014-11-23T10:43:57.000Z</time>
      </trkpt>
      <trkpt lat="47.46697" lon="6.74712">
        <ele>357.8</ele>
        <time>2014-11-23T10:43:58.000Z</time>
      </trkpt>
      <trkpt lat="47.46701" lon="6.74713">
        <ele>355.4</ele>
        <time>2014-11-23T10:44:00.000Z</time>
      </trkpt>
      <trkpt lat="47.46702" lon="6.74712">
        <ele>355.2</ele>
        <time>2014-11-23T10:44:01.000Z</time>
      </trkpt>
      <trkpt lat="47.46706" lon="6.74712">
        <ele>354.8</ele>
        <time>2014-11-23T10:44:04.000Z</time>
      </trkpt>
      <trkpt lat="47.46707" lon="6.74711">
        <ele>355</ele>
        <time>2014-11-23T10:44:05.000Z</time>
      </trkpt>
      <trkpt lat="47.4671" lon="6.7471">
        <ele>355.6</ele>
        <time>2014-11-23T10:44:08.000Z</time>
      </trkpt>
      <trkpt lat="47.46712" lon="6.7471">
        <ele>355.7</ele>
        <time>2014-11-23T10:44:09.000Z</time>
      </trkpt>
      <trkpt lat="47.46714" lon="6.74712">
        <ele>353.7</ele>
        <time>2014-11-23T10:45:29.000Z</time>
      </trkpt>
      <trkpt lat="47.46716" lon="6.7471">
        <ele>352.8</ele>
        <time>2014-11-23T10:45:37.000Z</time>
      </trkpt>
      <trkpt lat="47.46718" lon="6.74708">
        <ele>351.8</ele>
        <time>2014-11-23T10:45:38.000Z</time>
      </trkpt>
      <trkpt lat="47.46721" lon="6.74707">
        <ele>351.8</ele>
        <time>2014-11-23T10:45:39.000Z</time>
      </trkpt>
      <trkpt lat="47.46725" lon="6.74706">
        <ele>352.6</ele>
        <time>2014-11-23T10:45:40.000Z</time>
      </trkpt>
      <trkpt lat="47.46736" lon="6.74704">
        <ele>351.3</ele>
        <time>2014-11-23T10:45:41.000Z</time>
      </trkpt>
      <trkpt lat="47.4674" lon="6.74704">
        <ele>351.3</ele>
        <time>2014-11-23T10:45:42.000Z</time>
      </trkpt>
      <trkpt lat="47.46745" lon="6.74703">
        <ele>351.3</ele>
        <time>2014-11-23T10:45:43.000Z</time>
      </trkpt>
      <trkpt lat="47.46748" lon="6.74699">
        <ele>351.2</ele>
        <time>2014-11-23T10:45:44.000Z</time>
      </trkpt>
      <trkpt lat="47.46752" lon="6.74696">
        <ele>349.3</ele>
        <time>2014-11-23T10:45:45.000Z</time>
      </trkpt>
      <trkpt lat="47.46755" lon="6.74693">
        <ele>349.5</ele>
        <time>2014-11-23T10:45:46.000Z</time>
      </trkpt>
      <trkpt lat="47.46757" lon="6.74689">
        <ele>349.2</ele>
        <time>2014-11-23T10:45:47.000Z</time>
      </trkpt>
      <trkpt lat="47.4676" lon="6.74685">
        <ele>349</ele>
        <time>2014-11-23T10:45:48.000Z</time>
      </trkpt>
      <trkpt lat="47.46763" lon="6.74682">
        <ele>348.5</ele>
        <time>2014-11-23T10:45:49.000Z</time>
      </trkpt>
      <trkpt lat="47.46765" lon="6.74679">
        <ele>348.3</ele>
        <time>2014-11-23T10:45:50.000Z</time>
      </trkpt>
      <trkpt lat="47.46768" lon="6.74676">
        <ele>348.3</ele>
        <time>2014-11-23T10:45:51.000Z</time>
      </trkpt>
      <trkpt lat="47.46772" lon="6.74673">
        <ele>348.3</ele>
        <time>2014-11-23T10:45:52.000Z</time>
      </trkpt>
      <trkpt lat="47.46775" lon="6.7467">
        <ele>348.5</ele>
        <time>2014-11-23T10:45:53.000Z</time>
      </trkpt>
      <trkpt lat="47.46779" lon="6.74667">
        <ele>348.6</ele>
        <time>2014-11-23T10:45:54.000Z</time>
      </trkpt>
      <trkpt lat="47.46782" lon="6.74665">
        <ele>348.8</ele>
        <time>2014-11-23T10:45:55.000Z</time>
      </trkpt>
      <trkpt lat="47.46786" lon="6.74662">
        <ele>348.6</ele>
        <time>2014-11-23T10:45:56.000Z</time>
      </trkpt>
      <trkpt lat="47.4679" lon="6.7466">
        <ele>348.2</ele>
        <time>2014-11-23T10:45:57.000Z</time>
      </trkpt>
      <trkpt lat="47.46795" lon="6.74658">
        <ele>348.1</ele>
        <time>2014-11-23T10:45:58.000Z</time>
      </trkpt>
      <trkpt lat="47.46799" lon="6.74657">
        <ele>347.7</ele>
        <time>2014-11-23T10:45:59.000Z</time>
      </trkpt>
      <trkpt lat="47.46803" lon="6.74655">
        <ele>347.6</ele>
        <time>2014-11-23T10:46:00.000Z</time>
      </trkpt>
      <trkpt lat="47.46807" lon="6.74654">
        <ele>347.7</ele>
        <time>2014-11-23T10:46:01.000Z</time>
      </trkpt>
      <trkpt lat="47.46811" lon="6.74652">
        <ele>347.1</ele>
        <time>2014-11-23T10:46:02.000Z</time>
      </trkpt>
      <trkpt lat="47.46815" lon="6.74651">
        <ele>346.9</ele>
        <time>2014-11-23T10:46:03.000Z</time>
      </trkpt>
      <trkpt lat="47.46818" lon="6.74649">
        <ele>347.8</ele>
        <time>2014-11-23T10:46:04.000Z</time>
      </trkpt>
      <trkpt lat="47.46822" lon="6.74648">
        <ele>347.2</ele>
        <time>2014-11-23T10:46:05.000Z</time>
      </trkpt>
      <trkpt lat="47.46825" lon="6.74647">
        <ele>348.9</ele>
        <time>2014-11-23T10:46:06.000Z</time>
      </trkpt>
      <trkpt lat="47.46828" lon="6.74645">
        <ele>350.3</ele>
        <time>2014-11-23T10:46:07.000Z</time>
      </trkpt>
      <trkpt lat="47.46831" lon="6.74644">
        <ele>351.7</ele>
        <time>2014-11-23T10:46:08.000Z</time>
      </trkpt>
      <trkpt lat="47.46834" lon="6.74641">
        <ele>351.3</ele>
        <time>2014-11-23T10:46:09.000Z</time>
      </trkpt>
      <trkpt lat="47.46837" lon="6.74637">
        <ele>351.5</ele>
        <time>2014-11-23T10:46:10.000Z</time>
      </trkpt>
      <trkpt lat="47.4684" lon="6.74634">
        <ele>350.7</ele>
        <time>2014-11-23T10:46:11.000Z</time>
      </trkpt>
      <trkpt lat="47.46843" lon="6.7463">
        <ele>351.1</ele>
        <time>2014-11-23T10:46:12.000Z</time>
      </trkpt>
      <trkpt lat="47.46846" lon="6.74627">
        <ele>348.3</ele>
        <time>2014-11-23T10:46:13.000Z</time>
      </trkpt>
      <trkpt lat="47.46849" lon="6.74624">
        <ele>348.5</ele>
        <time>2014-11-23T10:46:14.000Z</time>
      </trkpt>
      <trkpt lat="47.46853" lon="6.74621">
        <ele>348.4</ele>
        <time>2014-11-23T10:46:15.000Z</time>
      </trkpt>
      <trkpt lat="47.46856" lon="6.74618">
        <ele>348.1</ele>
        <time>2014-11-23T10:46:16.000Z</time>
      </trkpt>
      <trkpt lat="47.46859" lon="6.74615">
        <ele>348.9</ele>
        <time>2014-11-23T10:46:17.000Z</time>
      </trkpt>
      <trkpt lat="47.46862" lon="6.74611">
        <ele>349.1</ele>
        <time>2014-11-23T10:46:18.000Z</time>
      </trkpt>
      <trkpt lat="47.46866" lon="6.74608">
        <ele>348.9</ele>
        <time>2014-11-23T10:46:19.000Z</time>
      </trkpt>
      <trkpt lat="47.46869" lon="6.74604">
        <ele>349.6</ele>
        <time>2014-11-23T10:46:20.000Z</time>
      </trkpt>
      <trkpt lat="47.46873" lon="6.74601">
        <ele>349.6</ele>
        <time>2014-11-23T10:46:21.000Z</time>
      </trkpt>
      <trkpt lat="47.46877" lon="6.74598">
        <ele>350.2</ele>
        <time>2014-11-23T10:46:22.000Z</time>
      </trkpt>
      <trkpt lat="47.46881" lon="6.74596">
        <ele>351.7</ele>
        <time>2014-11-23T10:46:23.000Z</time>
      </trkpt>
      <trkpt lat="47.46885" lon="6.74595">
        <ele>351.9</ele>
        <time>2014-11-23T10:46:24.000Z</time>
      </trkpt>
      <trkpt lat="47.46889" lon="6.74594">
        <ele>351.4</ele>
        <time>2014-11-23T10:46:25.000Z</time>
      </trkpt>
      <trkpt lat="47.46892" lon="6.74593">
        <ele>349.9</ele>
        <time>2014-11-23T10:46:26.000Z</time>
      </trkpt>
      <trkpt lat="47.46896" lon="6.74591">
        <ele>349.8</ele>
        <time>2014-11-23T10:46:27.000Z</time>
      </trkpt>
      <trkpt lat="47.469" lon="6.7459">
        <ele>349</ele>
        <time>2014-11-23T10:46:28.000Z</time>
      </trkpt>
      <trkpt lat="47.46904" lon="6.74589">
        <ele>349.2</ele>
        <time>2014-11-23T10:46:29.000Z</time>
      </trkpt>
      <trkpt lat="47.46931" lon="6.74575">
        <ele>346.5</ele>
        <time>2014-11-23T10:46:37.000Z</time>
      </trkpt>
      <trkpt lat="47.46934" lon="6.74573">
        <ele>346.3</ele>
        <time>2014-11-23T10:46:38.000Z</time>
      </trkpt>
      <trkpt lat="47.46938" lon="6.74571">
        <ele>346.2</ele>
        <time>2014-11-23T10:46:39.000Z</time>
      </trkpt>
      <trkpt lat="47.46944" lon="6.74569">
        <ele>346.9</ele>
        <time>2014-11-23T10:46:40.000Z</time>
      </trkpt>
      <trkpt lat="47.46948" lon="6.74568">
        <ele>346.3</ele>
        <time>2014-11-23T10:46:41.000Z</time>
      </trkpt>
      <trkpt lat="47.46953" lon="6.74568">
        <ele>344.8</ele>
        <time>2014-11-23T10:46:42.000Z</time>
      </trkpt>
      <trkpt lat="47.46958" lon="6.74567">
        <ele>345.6</ele>
        <time>2014-11-23T10:46:43.000Z</time>
      </trkpt>
      <trkpt lat="47.46963" lon="6.74567">
        <ele>345.9</ele>
        <time>2014-11-23T10:46:44.000Z</time>
      </trkpt>
      <trkpt lat="47.46967" lon="6.74567">
        <ele>345.1</ele>
        <time>2014-11-23T10:46:45.000Z</time>
      </trkpt>
      <trkpt lat="47.46973" lon="6.74568">
        <ele>345.1</ele>
        <time>2014-11-23T10:46:46.000Z</time>
      </trkpt>
      <trkpt lat="47.46978" lon="6.74569">
        <ele>344.9</ele>
        <time>2014-11-23T10:46:47.000Z</time>
      </trkpt>
      <trkpt lat="47.46983" lon="6.74569">
        <ele>344.2</ele>
        <time>2014-11-23T10:46:48.000Z</time>
      </trkpt>
      <trkpt lat="47.46989" lon="6.74571">
        <ele>343.9</ele>
        <time>2014-11-23T10:46:49.000Z</time>
      </trkpt>
      <trkpt lat="47.46994" lon="6.74571">
        <ele>343.6</ele>
        <time>2014-11-23T10:46:50.000Z</time>
      </trkpt>
      <trkpt lat="47.47" lon="6.74572">
        <ele>343.7</ele>
        <time>2014-11-23T10:46:51.000Z</time>
      </trkpt>
      <trkpt lat="47.47006" lon="6.74572">
        <ele>343.4</ele>
        <time>2014-11-23T10:46:52.000Z</time>
      </trkpt>
      <trkpt lat="47.47012" lon="6.74572">
        <ele>343</ele>
        <time>2014-11-23T10:46:53.000Z</time>
      </trkpt>
      <trkpt lat="47.47018" lon="6.74572">
        <ele>343.4</ele>
        <time>2014-11-23T10:46:54.000Z</time>
      </trkpt>
      <trkpt lat="47.47024" lon="6.74571">
        <ele>344.1</ele>
        <time>2014-11-23T10:46:55.000Z</time>
      </trkpt>
      <trkpt lat="47.4703" lon="6.7457">
        <ele>343.8</ele>
        <time>2014-11-23T10:46:56.000Z</time>
      </trkpt>
      <trkpt lat="47.47035" lon="6.74568">
        <ele>343.6</ele>
        <time>2014-11-23T10:46:57.000Z</time>
      </trkpt>
      <trkpt lat="47.4704" lon="6.74568">
        <ele>342.3</ele>
        <time>2014-11-23T10:46:58.000Z</time>
      </trkpt>
      <trkpt lat="47.47044" lon="6.74573">
        <ele>342.6</ele>
        <time>2014-11-23T10:46:59.000Z</time>
      </trkpt>
      <trkpt lat="47.47045" lon="6.74583">
        <ele>342.1</ele>
        <time>2014-11-23T10:47:00.000Z</time>
      </trkpt>
      <trkpt lat="47.47043" lon="6.7459">
        <ele>342.7</ele>
        <time>2014-11-23T10:47:01.000Z</time>
      </trkpt>
      <trkpt lat="47.47041" lon="6.74595">
        <ele>341.8</ele>
        <time>2014-11-23T10:47:02.000Z</time>
      </trkpt>
      <trkpt lat="47.47038" lon="6.746">
        <ele>341.9</ele>
        <time>2014-11-23T10:47:03.000Z</time>
      </trkpt>
      <trkpt lat="47.47036" lon="6.74605">
        <ele>341</ele>
        <time>2014-11-23T10:47:04.000Z</time>
      </trkpt>
      <trkpt lat="47.47034" lon="6.74611">
        <ele>340</ele>
        <time>2014-11-23T10:47:05.000Z</time>
      </trkpt>
      <trkpt lat="47.47032" lon="6.74617">
        <ele>339.7</ele>
        <time>2014-11-23T10:47:06.000Z</time>
      </trkpt>
      <trkpt lat="47.47029" lon="6.74624">
        <ele>340.2</ele>
        <time>2014-11-23T10:47:07.000Z</time>
      </trkpt>
      <trkpt lat="47.47025" lon="6.7463">
        <ele>340.4</ele>
        <time>2014-11-23T10:47:08.000Z</time>
      </trkpt>
      <trkpt lat="47.47022" lon="6.74636">
        <ele>339.7</ele>
        <time>2014-11-23T10:47:09.000Z</time>
      </trkpt>
      <trkpt lat="47.4702" lon="6.74644">
        <ele>339</ele>
        <time>2014-11-23T10:47:10.000Z</time>
      </trkpt>
      <trkpt lat="47.47016" lon="6.74651">
        <ele>338</ele>
        <time>2014-11-23T10:47:11.000Z</time>
      </trkpt>
      <trkpt lat="47.47013" lon="6.74659">
        <ele>338.3</ele>
        <time>2014-11-23T10:47:12.000Z</time>
      </trkpt>
      <trkpt lat="47.4701" lon="6.74667">
        <ele>338.4</ele>
        <time>2014-11-23T10:47:13.000Z</time>
      </trkpt>
      <trkpt lat="47.47009" lon="6.74677">
        <ele>338</ele>
        <time>2014-11-23T10:47:14.000Z</time>
      </trkpt>
      <trkpt lat="47.47006" lon="6.74687">
        <ele>338.1</ele>
        <time>2014-11-23T10:47:15.000Z</time>
      </trkpt>
      <trkpt lat="47.47004" lon="6.74697">
        <ele>337.5</ele>
        <time>2014-11-23T10:47:16.000Z</time>
      </trkpt>
      <trkpt lat="47.47002" lon="6.74708">
        <ele>337.8</ele>
        <time>2014-11-23T10:47:17.000Z</time>
      </trkpt>
      <trkpt lat="47.47001" lon="6.74721">
        <ele>336.7</ele>
        <time>2014-11-23T10:47:18.000Z</time>
      </trkpt>
      <trkpt lat="47.46999" lon="6.74732">
        <ele>337.5</ele>
        <time>2014-11-23T10:47:19.000Z</time>
      </trkpt>
      <trkpt lat="47.46998" lon="6.74744">
        <ele>337.5</ele>
        <time>2014-11-23T10:47:20.000Z</time>
      </trkpt>
      <trkpt lat="47.46998" lon="6.74755">
        <ele>337.2</ele>
        <time>2014-11-23T10:47:21.000Z</time>
      </trkpt>
      <trkpt lat="47.46997" lon="6.74767">
        <ele>336.2</ele>
        <time>2014-11-23T10:47:22.000Z</time>
      </trkpt>
      <trkpt lat="47.46997" lon="6.74778">
        <ele>335.8</ele>
        <time>2014-11-23T10:47:23.000Z</time>
      </trkpt>
      <trkpt lat="47.46998" lon="6.74789">
        <ele>336.1</ele>
        <time>2014-11-23T10:47:24.000Z</time>
      </trkpt>
      <trkpt lat="47.46997" lon="6.748">
        <ele>336.2</ele>
        <time>2014-11-23T10:47:25.000Z</time>
      </trkpt>
      <trkpt lat="47.46997" lon="6.74812">
        <ele>335.7</ele>
        <time>2014-11-23T10:47:26.000Z</time>
      </trkpt>
      <trkpt lat="47.46998" lon="6.74823">
        <ele>335.5</ele>
        <time>2014-11-23T10:47:27.000Z</time>
      </trkpt>
      <trkpt lat="47.46998" lon="6.74834">
        <ele>334.9</ele>
        <time>2014-11-23T10:47:28.000Z</time>
      </trkpt>
      <trkpt lat="47.46998" lon="6.74845">
        <ele>334.6</ele>
        <time>2014-11-23T10:47:29.000Z</time>
      </trkpt>
      <trkpt lat="47.46998" lon="6.74921">
        <ele>332</ele>
        <time>2014-11-23T10:47:37.000Z</time>
      </trkpt>
      <trkpt lat="47.46998" lon="6.7493">
        <ele>331.5</ele>
        <time>2014-11-23T10:47:38.000Z</time>
      </trkpt>
      <trkpt lat="47.46996" lon="6.74939">
        <ele>332.5</ele>
        <time>2014-11-23T10:47:39.000Z</time>
      </trkpt>
      <trkpt lat="47.46996" lon="6.74949">
        <ele>332.7</ele>
        <time>2014-11-23T10:47:40.000Z</time>
      </trkpt>
      <trkpt lat="47.46996" lon="6.74957">
        <ele>332.7</ele>
        <time>2014-11-23T10:47:41.000Z</time>
      </trkpt>
      <trkpt lat="47.46996" lon="6.74966">
        <ele>332.8</ele>
        <time>2014-11-23T10:47:42.000Z</time>
      </trkpt>
      <trkpt lat="47.46996" lon="6.74975">
        <ele>333.1</ele>
        <time>2014-11-23T10:47:43.000Z</time>
      </trkpt>
      <trkpt lat="47.46996" lon="6.74983">
        <ele>332.9</ele>
        <time>2014-11-23T10:47:44.000Z</time>
      </trkpt>
      <trkpt lat="47.46995" lon="6.74992">
        <ele>333.1</ele>
        <time>2014-11-23T10:47:45.000Z</time>
      </trkpt>
      <trkpt lat="47.46995" lon="6.75001">
        <ele>333.7</ele>
        <time>2014-11-23T10:47:46.000Z</time>
      </trkpt>
      <trkpt lat="47.46995" lon="6.75008">
        <ele>334.2</ele>
        <time>2014-11-23T10:47:47.000Z</time>
      </trkpt>
      <trkpt lat="47.46996" lon="6.75016">
        <ele>333.9</ele>
        <time>2014-11-23T10:47:48.000Z</time>
      </trkpt>
      <trkpt lat="47.46996" lon="6.75024">
        <ele>333.8</ele>
        <time>2014-11-23T10:47:49.000Z</time>
      </trkpt>
      <trkpt lat="47.46997" lon="6.75032">
        <ele>333.6</ele>
        <time>2014-11-23T10:47:50.000Z</time>
      </trkpt>
      <trkpt lat="47.46998" lon="6.75039">
        <ele>334.1</ele>
        <time>2014-11-23T10:47:51.000Z</time>
      </trkpt>
      <trkpt lat="47.46998" lon="6.75048">
        <ele>334.4</ele>
        <time>2014-11-23T10:47:52.000Z</time>
      </trkpt>
      <trkpt lat="47.47" lon="6.75054">
        <ele>334.9</ele>
        <time>2014-11-23T10:47:53.000Z</time>
      </trkpt>
      <trkpt lat="47.47001" lon="6.7506">
        <ele>334.2</ele>
        <time>2014-11-23T10:47:54.000Z</time>
      </trkpt>
      <trkpt lat="47.47002" lon="6.75067">
        <ele>334.5</ele>
        <time>2014-11-23T10:47:55.000Z</time>
      </trkpt>
      <trkpt lat="47.47004" lon="6.75074">
        <ele>333.9</ele>
        <time>2014-11-23T10:47:56.000Z</time>
      </trkpt>
      <trkpt lat="47.47005" lon="6.75081">
        <ele>332.7</ele>
        <time>2014-11-23T10:47:57.000Z</time>
      </trkpt>
      <trkpt lat="47.47007" lon="6.75087">
        <ele>333.1</ele>
        <time>2014-11-23T10:47:58.000Z</time>
      </trkpt>
      <trkpt lat="47.47008" lon="6.75093">
        <ele>331.6</ele>
        <time>2014-11-23T10:47:59.000Z</time>
      </trkpt>
      <trkpt lat="47.4701" lon="6.751">
        <ele>330.9</ele>
        <time>2014-11-23T10:48:00.000Z</time>
      </trkpt>
      <trkpt lat="47.47012" lon="6.75107">
        <ele>330.3</ele>
        <time>2014-11-23T10:48:01.000Z</time>
      </trkpt>
      <trkpt lat="47.47014" lon="6.75112">
        <ele>330.6</ele>
        <time>2014-11-23T10:48:02.000Z</time>
      </trkpt>
      <trkpt lat="47.47015" lon="6.75119">
        <ele>330.2</ele>
        <time>2014-11-23T10:48:03.000Z</time>
      </trkpt>
      <trkpt lat="47.47017" lon="6.75125">
        <ele>329.5</ele>
        <time>2014-11-23T10:48:04.000Z</time>
      </trkpt>
      <trkpt lat="47.47019" lon="6.75132">
        <ele>329.6</ele>
        <time>2014-11-23T10:48:05.000Z</time>
      </trkpt>
      <trkpt lat="47.4702" lon="6.75139">
        <ele>330</ele>
        <time>2014-11-23T10:48:06.000Z</time>
      </trkpt>
      <trkpt lat="47.47022" lon="6.75146">
        <ele>330.2</ele>
        <time>2014-11-23T10:48:07.000Z</time>
      </trkpt>
      <trkpt lat="47.47024" lon="6.75152">
        <ele>330.5</ele>
        <time>2014-11-23T10:48:08.000Z</time>
      </trkpt>
      <trkpt lat="47.47024" lon="6.75159">
        <ele>330.5</ele>
        <time>2014-11-23T10:48:09.000Z</time>
      </trkpt>
      <trkpt lat="47.47027" lon="6.75165">
        <ele>330.3</ele>
        <time>2014-11-23T10:48:10.000Z</time>
      </trkpt>
      <trkpt lat="47.47029" lon="6.75172">
        <ele>330.1</ele>
        <time>2014-11-23T10:48:10.999Z</time>
      </trkpt>
      <trkpt lat="47.4703" lon="6.75178">
        <ele>330.1</ele>
        <time>2014-11-23T10:48:12.000Z</time>
      </trkpt>
      <trkpt lat="47.47033" lon="6.75184">
        <ele>329.7</ele>
        <time>2014-11-23T10:48:13.000Z</time>
      </trkpt>
      <trkpt lat="47.47034" lon="6.7519">
        <ele>329.4</ele>
        <time>2014-11-23T10:48:14.000Z</time>
      </trkpt>
      <trkpt lat="47.47035" lon="6.75196">
        <ele>329.7</ele>
        <time>2014-11-23T10:48:15.000Z</time>
      </trkpt>
      <trkpt lat="47.47036" lon="6.75201">
        <ele>329.4</ele>
        <time>2014-11-23T10:48:16.000Z</time>
      </trkpt>
      <trkpt lat="47.47038" lon="6.75207">
        <ele>329.2</ele>
        <time>2014-11-23T10:48:17.000Z</time>
      </trkpt>
      <trkpt lat="47.47038" lon="6.75213">
        <ele>329.3</ele>
        <time>2014-11-23T10:48:18.000Z</time>
      </trkpt>
      <trkpt lat="47.47039" lon="6.75218">
        <ele>329.8</ele>
        <time>2014-11-23T10:48:19.000Z</time>
      </trkpt>
      <trkpt lat="47.47041" lon="6.75224">
        <ele>329.5</ele>
        <time>2014-11-23T10:48:20.000Z</time>
      </trkpt>
      <trkpt lat="47.47042" lon="6.7523">
        <ele>329.2</ele>
        <time>2014-11-23T10:48:21.000Z</time>
      </trkpt>
      <trkpt lat="47.47044" lon="6.75236">
        <ele>329.4</ele>
        <time>2014-11-23T10:48:22.000Z</time>
      </trkpt>
      <trkpt lat="47.47045" lon="6.75243">
        <ele>328.4</ele>
        <time>2014-11-23T10:48:23.000Z</time>
      </trkpt>
      <trkpt lat="47.47048" lon="6.75249">
        <ele>328.8</ele>
        <time>2014-11-23T10:48:24.000Z</time>
      </trkpt>
      <trkpt lat="47.47049" lon="6.75257">
        <ele>327.9</ele>
        <time>2014-11-23T10:48:25.000Z</time>
      </trkpt>
      <trkpt lat="47.47051" lon="6.75265">
        <ele>326.9</ele>
        <time>2014-11-23T10:48:26.000Z</time>
      </trkpt>
      <trkpt lat="47.47053" lon="6.75273">
        <ele>326.4</ele>
        <time>2014-11-23T10:48:27.000Z</time>
      </trkpt>
      <trkpt lat="47.47052" lon="6.75282">
        <ele>327.5</ele>
        <time>2014-11-23T10:48:28.000Z</time>
      </trkpt>
      <trkpt lat="47.47053" lon="6.75341">
        <ele>329.5</ele>
        <time>2014-11-23T10:48:35.923Z</time>
      </trkpt>
      <trkpt lat="47.47053" lon="6.75348">
        <ele>329.4</ele>
        <time>2014-11-23T10:48:37.000Z</time>
      </trkpt>
      <trkpt lat="47.47052" lon="6.75353">
        <ele>329.3</ele>
        <time>2014-11-23T10:48:38.000Z</time>
      </trkpt>
      <trkpt lat="47.47053" lon="6.75364">
        <ele>328.2</ele>
        <time>2014-11-23T10:48:39.000Z</time>
      </trkpt>
      <trkpt lat="47.47054" lon="6.75372">
        <ele>328.1</ele>
        <time>2014-11-23T10:48:40.000Z</time>
      </trkpt>
      <trkpt lat="47.47054" lon="6.75379">
        <ele>328</ele>
        <time>2014-11-23T10:48:41.000Z</time>
      </trkpt>
      <trkpt lat="47.47053" lon="6.75388">
        <ele>328.8</ele>
        <time>2014-11-23T10:48:42.000Z</time>
      </trkpt>
      <trkpt lat="47.47055" lon="6.75396">
        <ele>326.2</ele>
        <time>2014-11-23T10:48:43.000Z</time>
      </trkpt>
      <trkpt lat="47.47056" lon="6.75403">
        <ele>325.1</ele>
        <time>2014-11-23T10:48:44.000Z</time>
      </trkpt>
      <trkpt lat="47.47056" lon="6.75409">
        <ele>324.8</ele>
        <time>2014-11-23T10:48:45.000Z</time>
      </trkpt>
      <trkpt lat="47.47058" lon="6.75415">
        <ele>324.6</ele>
        <time>2014-11-23T10:48:46.000Z</time>
      </trkpt>
      <trkpt lat="47.47058" lon="6.75421">
        <ele>324.8</ele>
        <time>2014-11-23T10:48:47.000Z</time>
      </trkpt>
      <trkpt lat="47.47059" lon="6.75427">
        <ele>324.7</ele>
        <time>2014-11-23T10:48:48.000Z</time>
      </trkpt>
      <trkpt lat="47.47059" lon="6.75433">
        <ele>324.8</ele>
        <time>2014-11-23T10:48:49.000Z</time>
      </trkpt>
      <trkpt lat="47.47058" lon="6.75441">
        <ele>324</ele>
        <time>2014-11-23T10:48:50.000Z</time>
      </trkpt>
      <trkpt lat="47.47058" lon="6.75448">
        <ele>323.8</ele>
        <time>2014-11-23T10:48:51.000Z</time>
      </trkpt>
      <trkpt lat="47.47058" lon="6.75456">
        <ele>324.4</ele>
        <time>2014-11-23T10:48:52.000Z</time>
      </trkpt>
      <trkpt lat="47.47057" lon="6.75463">
        <ele>323.9</ele>
        <time>2014-11-23T10:48:53.000Z</time>
      </trkpt>
      <trkpt lat="47.47057" lon="6.75471">
        <ele>324.1</ele>
        <time>2014-11-23T10:48:54.000Z</time>
      </trkpt>
      <trkpt lat="47.47057" lon="6.75478">
        <ele>324.9</ele>
        <time>2014-11-23T10:48:55.000Z</time>
      </trkpt>
      <trkpt lat="47.47057" lon="6.75485">
        <ele>326.7</ele>
        <time>2014-11-23T10:48:56.000Z</time>
      </trkpt>
      <trkpt lat="47.47058" lon="6.75492">
        <ele>326.9</ele>
        <time>2014-11-23T10:48:57.000Z</time>
      </trkpt>
      <trkpt lat="47.47058" lon="6.75499">
        <ele>328</ele>
        <time>2014-11-23T10:48:58.000Z</time>
      </trkpt>
      <trkpt lat="47.47059" lon="6.75505">
        <ele>327.7</ele>
        <time>2014-11-23T10:48:59.000Z</time>
      </trkpt>
      <trkpt lat="47.47059" lon="6.75511">
        <ele>326.7</ele>
        <time>2014-11-23T10:49:00.000Z</time>
      </trkpt>
      <trkpt lat="47.47059" lon="6.75517">
        <ele>326.3</ele>
        <time>2014-11-23T10:49:01.000Z</time>
      </trkpt>
      <trkpt lat="47.4706" lon="6.75523">
        <ele>327.3</ele>
        <time>2014-11-23T10:49:02.000Z</time>
      </trkpt>
      <trkpt lat="47.4706" lon="6.7553">
        <ele>328</ele>
        <time>2014-11-23T10:49:03.000Z</time>
      </trkpt>
      <trkpt lat="47.4706" lon="6.75536">
        <ele>328.2</ele>
        <time>2014-11-23T10:49:04.000Z</time>
      </trkpt>
      <trkpt lat="47.4706" lon="6.75543">
        <ele>328.3</ele>
        <time>2014-11-23T10:49:05.000Z</time>
      </trkpt>
      <trkpt lat="47.4706" lon="6.75549">
        <ele>328.2</ele>
        <time>2014-11-23T10:49:06.000Z</time>
      </trkpt>
      <trkpt lat="47.4706" lon="6.75555">
        <ele>328.9</ele>
        <time>2014-11-23T10:49:07.000Z</time>
      </trkpt>
      <trkpt lat="47.4706" lon="6.75561">
        <ele>329.4</ele>
        <time>2014-11-23T10:49:08.000Z</time>
      </trkpt>
      <trkpt lat="47.4706" lon="6.75567">
        <ele>329.3</ele>
        <time>2014-11-23T10:49:09.000Z</time>
      </trkpt>
      <trkpt lat="47.47061" lon="6.75573">
        <ele>330.9</ele>
        <time>2014-11-23T10:49:10.000Z</time>
      </trkpt>
      <trkpt lat="47.47061" lon="6.75579">
        <ele>331.6</ele>
        <time>2014-11-23T10:49:11.000Z</time>
      </trkpt>
      <trkpt lat="47.47061" lon="6.75586">
        <ele>331.9</ele>
        <time>2014-11-23T10:49:12.000Z</time>
      </trkpt>
      <trkpt lat="47.47061" lon="6.75592">
        <ele>332.5</ele>
        <time>2014-11-23T10:49:13.000Z</time>
      </trkpt>
      <trkpt lat="47.47062" lon="6.75598">
        <ele>331.9</ele>
        <time>2014-11-23T10:49:14.000Z</time>
      </trkpt>
      <trkpt lat="47.47062" lon="6.75604">
        <ele>332.1</ele>
        <time>2014-11-23T10:49:15.000Z</time>
      </trkpt>
      <trkpt lat="47.47063" lon="6.7561">
        <ele>331.9</ele>
        <time>2014-11-23T10:49:16.000Z</time>
      </trkpt>
      <trkpt lat="47.47063" lon="6.75616">
        <ele>332</ele>
        <time>2014-11-23T10:49:17.000Z</time>
      </trkpt>
      <trkpt lat="47.47064" lon="6.75622">
        <ele>331.7</ele>
        <time>2014-11-23T10:49:18.000Z</time>
      </trkpt>
      <trkpt lat="47.47064" lon="6.75628">
        <ele>331.9</ele>
        <time>2014-11-23T10:49:19.000Z</time>
      </trkpt>
      <trkpt lat="47.47064" lon="6.75634">
        <ele>331.9</ele>
        <time>2014-11-23T10:49:20.000Z</time>
      </trkpt>
      <trkpt lat="47.47064" lon="6.7564">
        <ele>332.6</ele>
        <time>2014-11-23T10:49:21.000Z</time>
      </trkpt>
      <trkpt lat="47.47065" lon="6.75646">
        <ele>332.9</ele>
        <time>2014-11-23T10:49:22.000Z</time>
      </trkpt>
      <trkpt lat="47.47066" lon="6.75652">
        <ele>332.6</ele>
        <time>2014-11-23T10:49:23.000Z</time>
      </trkpt>
      <trkpt lat="47.47068" lon="6.75658">
        <ele>331.6</ele>
        <time>2014-11-23T10:49:24.000Z</time>
      </trkpt>
      <trkpt lat="47.47069" lon="6.75664">
        <ele>331.4</ele>
        <time>2014-11-23T10:49:25.000Z</time>
      </trkpt>
      <trkpt lat="47.4707" lon="6.75671">
        <ele>330.9</ele>
        <time>2014-11-23T10:49:26.000Z</time>
      </trkpt>
      <trkpt lat="47.47071" lon="6.75677">
        <ele>330.7</ele>
        <time>2014-11-23T10:49:27.000Z</time>
      </trkpt>
      <trkpt lat="47.47072" lon="6.75683">
        <ele>330.7</ele>
        <time>2014-11-23T10:49:28.000Z</time>
      </trkpt>
      <trkpt lat="47.47072" lon="6.75689">
        <ele>331.3</ele>
        <time>2014-11-23T10:49:29.000Z</time>
      </trkpt>
      <trkpt lat="47.47079" lon="6.75727">
        <ele>332.1</ele>
        <time>2014-11-23T10:49:37.000Z</time>
      </trkpt>
      <trkpt lat="47.4708" lon="6.75731">
        <ele>331</ele>
        <time>2014-11-23T10:49:38.000Z</time>
      </trkpt>
      <trkpt lat="47.47081" lon="6.75736">
        <ele>331.5</ele>
        <time>2014-11-23T10:49:39.000Z</time>
      </trkpt>
      <trkpt lat="47.47082" lon="6.75741">
        <ele>331.9</ele>
        <time>2014-11-23T10:49:40.000Z</time>
      </trkpt>
      <trkpt lat="47.47083" lon="6.75746">
        <ele>332.6</ele>
        <time>2014-11-23T10:49:41.000Z</time>
      </trkpt>
      <trkpt lat="47.47084" lon="6.75751">
        <ele>333</ele>
        <time>2014-11-23T10:49:42.000Z</time>
      </trkpt>
      <trkpt lat="47.47085" lon="6.75756">
        <ele>333.7</ele>
        <time>2014-11-23T10:49:43.000Z</time>
      </trkpt>
      <trkpt lat="47.47086" lon="6.75762">
        <ele>333.8</ele>
        <time>2014-11-23T10:49:44.000Z</time>
      </trkpt>
      <trkpt lat="47.47087" lon="6.75767">
        <ele>334.6</ele>
        <time>2014-11-23T10:49:45.000Z</time>
      </trkpt>
      <trkpt lat="47.47088" lon="6.75773">
        <ele>334.4</ele>
        <time>2014-11-23T10:49:46.000Z</time>
      </trkpt>
      <trkpt lat="47.47089" lon="6.75778">
        <ele>334.6</ele>
        <time>2014-11-23T10:49:47.000Z</time>
      </trkpt>
      <trkpt lat="47.47089" lon="6.75784">
        <ele>334.6</ele>
        <time>2014-11-23T10:49:48.000Z</time>
      </trkpt>
      <trkpt lat="47.4709" lon="6.7579">
        <ele>335</ele>
        <time>2014-11-23T10:49:49.000Z</time>
      </trkpt>
      <trkpt lat="47.4709" lon="6.75795">
        <ele>333.9</ele>
        <time>2014-11-23T10:49:50.000Z</time>
      </trkpt>
      <trkpt lat="47.47091" lon="6.758">
        <ele>332.7</ele>
        <time>2014-11-23T10:49:51.000Z</time>
      </trkpt>
      <trkpt lat="47.47091" lon="6.75806">
        <ele>333.7</ele>
        <time>2014-11-23T10:49:52.000Z</time>
      </trkpt>
      <trkpt lat="47.47092" lon="6.75811">
        <ele>334</ele>
        <time>2014-11-23T10:49:53.000Z</time>
      </trkpt>
      <trkpt lat="47.47092" lon="6.75816">
        <ele>334.3</ele>
        <time>2014-11-23T10:49:54.000Z</time>
      </trkpt>
      <trkpt lat="47.47093" lon="6.75822">
        <ele>334.5</ele>
        <time>2014-11-23T10:49:55.000Z</time>
      </trkpt>
      <trkpt lat="47.47094" lon="6.75827">
        <ele>334.8</ele>
        <time>2014-11-23T10:49:56.000Z</time>
      </trkpt>
      <trkpt lat="47.47094" lon="6.75832">
        <ele>335</ele>
        <time>2014-11-23T10:49:57.000Z</time>
      </trkpt>
      <trkpt lat="47.47095" lon="6.75837">
        <ele>336</ele>
        <time>2014-11-23T10:49:58.000Z</time>
      </trkpt>
      <trkpt lat="47.47095" lon="6.75841">
        <ele>335.6</ele>
        <time>2014-11-23T10:49:59.000Z</time>
      </trkpt>
      <trkpt lat="47.47095" lon="6.75846">
        <ele>335.2</ele>
        <time>2014-11-23T10:50:00.000Z</time>
      </trkpt>
      <trkpt lat="47.47095" lon="6.75852">
        <ele>335.4</ele>
        <time>2014-11-23T10:50:01.000Z</time>
      </trkpt>
      <trkpt lat="47.47095" lon="6.75857">
        <ele>335.9</ele>
        <time>2014-11-23T10:50:02.000Z</time>
      </trkpt>
      <trkpt lat="47.47095" lon="6.75862">
        <ele>335.4</ele>
        <time>2014-11-23T10:50:03.000Z</time>
      </trkpt>
      <trkpt lat="47.47095" lon="6.75868">
        <ele>335.4</ele>
        <time>2014-11-23T10:50:04.000Z</time>
      </trkpt>
      <trkpt lat="47.47096" lon="6.75874">
        <ele>335.4</ele>
        <time>2014-11-23T10:50:05.000Z</time>
      </trkpt>
      <trkpt lat="47.47096" lon="6.7588">
        <ele>335.4</ele>
        <time>2014-11-23T10:50:06.000Z</time>
      </trkpt>
      <trkpt lat="47.47096" lon="6.75886">
        <ele>334.3</ele>
        <time>2014-11-23T10:50:07.000Z</time>
      </trkpt>
      <trkpt lat="47.47096" lon="6.75891">
        <ele>333.5</ele>
        <time>2014-11-23T10:50:08.000Z</time>
      </trkpt>
      <trkpt lat="47.47095" lon="6.75899">
        <ele>332.9</ele>
        <time>2014-11-23T10:50:09.000Z</time>
      </trkpt>
      <trkpt lat="47.47094" lon="6.75905">
        <ele>333</ele>
        <time>2014-11-23T10:50:10.000Z</time>
      </trkpt>
      <trkpt lat="47.47094" lon="6.75911">
        <ele>333.7</ele>
        <time>2014-11-23T10:50:11.000Z</time>
      </trkpt>
      <trkpt lat="47.47094" lon="6.75917">
        <ele>333.6</ele>
        <time>2014-11-23T10:50:12.000Z</time>
      </trkpt>
      <trkpt lat="47.47094" lon="6.75923">
        <ele>333.9</ele>
        <time>2014-11-23T10:50:13.000Z</time>
      </trkpt>
      <trkpt lat="47.47093" lon="6.75929">
        <ele>333.9</ele>
        <time>2014-11-23T10:50:14.000Z</time>
      </trkpt>
      <trkpt lat="47.47092" lon="6.75936">
        <ele>334</ele>
        <time>2014-11-23T10:50:15.000Z</time>
      </trkpt>
      <trkpt lat="47.47092" lon="6.75944">
        <ele>334.8</ele>
        <time>2014-11-23T10:50:16.000Z</time>
      </trkpt>
      <trkpt lat="47.47092" lon="6.75951">
        <ele>335.6</ele>
        <time>2014-11-23T10:50:17.000Z</time>
      </trkpt>
      <trkpt lat="47.47092" lon="6.75958">
        <ele>335.4</ele>
        <time>2014-11-23T10:50:18.000Z</time>
      </trkpt>
      <trkpt lat="47.47092" lon="6.75965">
        <ele>335.7</ele>
        <time>2014-11-23T10:50:19.000Z</time>
      </trkpt>
      <trkpt lat="47.47092" lon="6.75972">
        <ele>335.2</ele>
        <time>2014-11-23T10:50:20.000Z</time>
      </trkpt>
      <trkpt lat="47.47092" lon="6.75978">
        <ele>335.2</ele>
        <time>2014-11-23T10:50:21.000Z</time>
      </trkpt>
      <trkpt lat="47.47094" lon="6.75984">
        <ele>335</ele>
        <time>2014-11-23T10:50:22.000Z</time>
      </trkpt>
      <trkpt lat="47.47097" lon="6.7599">
        <ele>334.7</ele>
        <time>2014-11-23T10:50:23.000Z</time>
      </trkpt>
      <trkpt lat="47.47102" lon="6.75993">
        <ele>333.7</ele>
        <time>2014-11-23T10:50:24.000Z</time>
      </trkpt>
      <trkpt lat="47.47108" lon="6.75994">
        <ele>333.1</ele>
        <time>2014-11-23T10:50:25.000Z</time>
      </trkpt>
      <trkpt lat="47.47113" lon="6.75996">
        <ele>332.5</ele>
        <time>2014-11-23T10:50:26.000Z</time>
      </trkpt>
      <trkpt lat="47.47118" lon="6.75998">
        <ele>331.6</ele>
        <time>2014-11-23T10:50:27.000Z</time>
      </trkpt>
      <trkpt lat="47.47123" lon="6.76">
        <ele>331.3</ele>
        <time>2014-11-23T10:50:28.000Z</time>
      </trkpt>
      <trkpt lat="47.47129" lon="6.76001">
        <ele>329.9</ele>
        <time>2014-11-23T10:50:29.000Z</time>
      </trkpt>
      <trkpt lat="47.4717" lon="6.76016">
        <ele>331.5</ele>
        <time>2014-11-23T10:50:37.000Z</time>
      </trkpt>
      <trkpt lat="47.47172" lon="6.76021">
        <ele>331.2</ele>
        <time>2014-11-23T10:50:38.000Z</time>
      </trkpt>
      <trkpt lat="47.47177" lon="6.76022">
        <ele>331.3</ele>
        <time>2014-11-23T10:50:39.000Z</time>
      </trkpt>
      <trkpt lat="47.47182" lon="6.76023">
        <ele>331</ele>
        <time>2014-11-23T10:50:40.000Z</time>
      </trkpt>
      <trkpt lat="47.47186" lon="6.76026">
        <ele>330.4</ele>
        <time>2014-11-23T10:50:41.000Z</time>
      </trkpt>
      <trkpt lat="47.4719" lon="6.76027">
        <ele>331.4</ele>
        <time>2014-11-23T10:50:42.000Z</time>
      </trkpt>
      <trkpt lat="47.47194" lon="6.76028">
        <ele>331.8</ele>
        <time>2014-11-23T10:50:43.000Z</time>
      </trkpt>
      <trkpt lat="47.47197" lon="6.7603">
        <ele>330.9</ele>
        <time>2014-11-23T10:50:44.000Z</time>
      </trkpt>
      <trkpt lat="47.472" lon="6.76031">
        <ele>332</ele>
        <time>2014-11-23T10:50:45.000Z</time>
      </trkpt>
      <trkpt lat="47.47204" lon="6.76033">
        <ele>332.2</ele>
        <time>2014-11-23T10:50:46.000Z</time>
      </trkpt>
      <trkpt lat="47.47208" lon="6.76034">
        <ele>332.3</ele>
        <time>2014-11-23T10:50:47.000Z</time>
      </trkpt>
      <trkpt lat="47.47212" lon="6.76035">
        <ele>332.6</ele>
        <time>2014-11-23T10:50:48.000Z</time>
      </trkpt>
      <trkpt lat="47.47216" lon="6.76038">
        <ele>333.1</ele>
        <time>2014-11-23T10:50:49.000Z</time>
      </trkpt>
      <trkpt lat="47.4722" lon="6.7604">
        <ele>333.5</ele>
        <time>2014-11-23T10:50:50.000Z</time>
      </trkpt>
      <trkpt lat="47.47224" lon="6.76042">
        <ele>333.8</ele>
        <time>2014-11-23T10:50:51.000Z</time>
      </trkpt>
      <trkpt lat="47.47227" lon="6.76043">
        <ele>333.7</ele>
        <time>2014-11-23T10:50:52.000Z</time>
      </trkpt>
      <trkpt lat="47.47231" lon="6.76045">
        <ele>333.2</ele>
        <time>2014-11-23T10:50:53.000Z</time>
      </trkpt>
      <trkpt lat="47.47235" lon="6.76046">
        <ele>333.2</ele>
        <time>2014-11-23T10:50:54.000Z</time>
      </trkpt>
      <trkpt lat="47.47239" lon="6.76048">
        <ele>334.7</ele>
        <time>2014-11-23T10:50:55.000Z</time>
      </trkpt>
      <trkpt lat="47.47243" lon="6.76049">
        <ele>333.2</ele>
        <time>2014-11-23T10:50:56.000Z</time>
      </trkpt>
      <trkpt lat="47.47247" lon="6.7605">
        <ele>332.8</ele>
        <time>2014-11-23T10:50:57.000Z</time>
      </trkpt>
      <trkpt lat="47.47251" lon="6.76052">
        <ele>332.3</ele>
        <time>2014-11-23T10:50:58.000Z</time>
      </trkpt>
      <trkpt lat="47.47255" lon="6.76053">
        <ele>333</ele>
        <time>2014-11-23T10:50:59.000Z</time>
      </trkpt>
      <trkpt lat="47.47259" lon="6.76055">
        <ele>333.7</ele>
        <time>2014-11-23T10:51:00.000Z</time>
      </trkpt>
      <trkpt lat="47.47264" lon="6.76057">
        <ele>334</ele>
        <time>2014-11-23T10:51:01.000Z</time>
      </trkpt>
      <trkpt lat="47.47269" lon="6.76058">
        <ele>333.5</ele>
        <time>2014-11-23T10:51:02.000Z</time>
      </trkpt>
      <trkpt lat="47.47273" lon="6.7606">
        <ele>333.5</ele>
        <time>2014-11-23T10:51:03.000Z</time>
      </trkpt>
      <trkpt lat="47.47277" lon="6.76062">
        <ele>332.8</ele>
        <time>2014-11-23T10:51:04.000Z</time>
      </trkpt>
      <trkpt lat="47.47282" lon="6.76064">
        <ele>334.4</ele>
        <time>2014-11-23T10:51:05.000Z</time>
      </trkpt>
      <trkpt lat="47.47286" lon="6.76066">
        <ele>334.3</ele>
        <time>2014-11-23T10:51:06.000Z</time>
      </trkpt>
      <trkpt lat="47.4729" lon="6.7607">
        <ele>333.3</ele>
        <time>2014-11-23T10:51:07.000Z</time>
      </trkpt>
      <trkpt lat="47.47294" lon="6.76073">
        <ele>334.1</ele>
        <time>2014-11-23T10:51:08.000Z</time>
      </trkpt>
      <trkpt lat="47.47298" lon="6.76077">
        <ele>334.2</ele>
        <time>2014-11-23T10:51:09.000Z</time>
      </trkpt>
      <trkpt lat="47.47302" lon="6.76083">
        <ele>334.2</ele>
        <time>2014-11-23T10:51:10.000Z</time>
      </trkpt>
      <trkpt lat="47.47306" lon="6.76088">
        <ele>334.4</ele>
        <time>2014-11-23T10:51:11.000Z</time>
      </trkpt>
      <trkpt lat="47.4731" lon="6.76093">
        <ele>334.6</ele>
        <time>2014-11-23T10:51:12.000Z</time>
      </trkpt>
      <trkpt lat="47.47313" lon="6.76097">
        <ele>335.5</ele>
        <time>2014-11-23T10:51:13.000Z</time>
      </trkpt>
      <trkpt lat="47.47316" lon="6.76103">
        <ele>336.9</ele>
        <time>2014-11-23T10:51:14.000Z</time>
      </trkpt>
      <trkpt lat="47.47321" lon="6.76106">
        <ele>333.7</ele>
        <time>2014-11-23T10:51:15.000Z</time>
      </trkpt>
      <trkpt lat="47.47325" lon="6.7611">
        <ele>332.6</ele>
        <time>2014-11-23T10:51:16.000Z</time>
      </trkpt>
      <trkpt lat="47.47329" lon="6.76116">
        <ele>333.1</ele>
        <time>2014-11-23T10:51:17.000Z</time>
      </trkpt>
      <trkpt lat="47.47333" lon="6.7612">
        <ele>332.5</ele>
        <time>2014-11-23T10:51:18.000Z</time>
      </trkpt>
      <trkpt lat="47.47337" lon="6.76124">
        <ele>331.9</ele>
        <time>2014-11-23T10:51:19.000Z</time>
      </trkpt>
      <trkpt lat="47.4734" lon="6.76129">
        <ele>331.9</ele>
        <time>2014-11-23T10:51:20.000Z</time>
      </trkpt>
      <trkpt lat="47.47343" lon="6.76134">
        <ele>331.2</ele>
        <time>2014-11-23T10:51:21.000Z</time>
      </trkpt>
      <trkpt lat="47.47347" lon="6.76139">
        <ele>331</ele>
        <time>2014-11-23T10:51:22.000Z</time>
      </trkpt>
      <trkpt lat="47.47351" lon="6.76144">
        <ele>331.7</ele>
        <time>2014-11-23T10:51:23.000Z</time>
      </trkpt>
      <trkpt lat="47.47355" lon="6.76149">
        <ele>331.7</ele>
        <time>2014-11-23T10:51:24.000Z</time>
      </trkpt>
      <trkpt lat="47.47358" lon="6.76154">
        <ele>331.8</ele>
        <time>2014-11-23T10:51:25.000Z</time>
      </trkpt>
      <trkpt lat="47.47363" lon="6.7616">
        <ele>331.9</ele>
        <time>2014-11-23T10:51:26.000Z</time>
      </trkpt>
      <trkpt lat="47.47367" lon="6.76165">
        <ele>332.2</ele>
        <time>2014-11-23T10:51:27.000Z</time>
      </trkpt>
      <trkpt lat="47.47371" lon="6.7617">
        <ele>331.7</ele>
        <time>2014-11-23T10:51:28.000Z</time>
      </trkpt>
      <trkpt lat="47.47374" lon="6.76176">
        <ele>331</ele>
        <time>2014-11-23T10:51:29.000Z</time>
      </trkpt>
      <trkpt lat="47.47396" lon="6.76216">
        <ele>329.4</ele>
        <time>2014-11-23T10:51:37.000Z</time>
      </trkpt>
      <trkpt lat="47.47402" lon="6.7622">
        <ele>329.3</ele>
        <time>2014-11-23T10:51:38.000Z</time>
      </trkpt>
      <trkpt lat="47.47406" lon="6.76225">
        <ele>329.8</ele>
        <time>2014-11-23T10:51:39.000Z</time>
      </trkpt>
      <trkpt lat="47.47411" lon="6.76228">
        <ele>329.9</ele>
        <time>2014-11-23T10:51:40.000Z</time>
      </trkpt>
      <trkpt lat="47.47412" lon="6.76235">
        <ele>329.9</ele>
        <time>2014-11-23T10:51:41.000Z</time>
      </trkpt>
      <trkpt lat="47.47413" lon="6.76238">
        <ele>329</ele>
        <time>2014-11-23T10:51:42.000Z</time>
      </trkpt>
      <trkpt lat="47.47415" lon="6.76241">
        <ele>328.5</ele>
        <time>2014-11-23T10:51:43.000Z</time>
      </trkpt>
      <trkpt lat="47.47415" lon="6.76247">
        <ele>328.5</ele>
        <time>2014-11-23T10:51:44.000Z</time>
      </trkpt>
      <trkpt lat="47.47415" lon="6.76251">
        <ele>328.4</ele>
        <time>2014-11-23T10:51:45.000Z</time>
      </trkpt>
      <trkpt lat="47.47421" lon="6.76258">
        <ele>324</ele>
        <time>2014-11-23T10:51:46.000Z</time>
      </trkpt>
      <trkpt lat="47.47421" lon="6.76265">
        <ele>324.7</ele>
        <time>2014-11-23T10:51:47.000Z</time>
      </trkpt>
      <trkpt lat="47.47423" lon="6.76273">
        <ele>323.3</ele>
        <time>2014-11-23T10:51:48.000Z</time>
      </trkpt>
      <trkpt lat="47.47427" lon="6.76281">
        <ele>322.9</ele>
        <time>2014-11-23T10:51:49.000Z</time>
      </trkpt>
      <trkpt lat="47.47428" lon="6.76288">
        <ele>322.3</ele>
        <time>2014-11-23T10:51:50.000Z</time>
      </trkpt>
      <trkpt lat="47.47428" lon="6.76298">
        <ele>322.6</ele>
        <time>2014-11-23T10:51:51.000Z</time>
      </trkpt>
      <trkpt lat="47.47426" lon="6.76305">
        <ele>323</ele>
        <time>2014-11-23T10:51:52.000Z</time>
      </trkpt>
      <trkpt lat="47.47424" lon="6.76312">
        <ele>323.8</ele>
        <time>2014-11-23T10:51:53.000Z</time>
      </trkpt>
      <trkpt lat="47.47421" lon="6.76318">
        <ele>323.8</ele>
        <time>2014-11-23T10:51:54.000Z</time>
      </trkpt>
      <trkpt lat="47.47418" lon="6.76323">
        <ele>323.7</ele>
        <time>2014-11-23T10:51:55.000Z</time>
      </trkpt>
      <trkpt lat="47.47415" lon="6.76326">
        <ele>323.7</ele>
        <time>2014-11-23T10:51:56.000Z</time>
      </trkpt>
      <trkpt lat="47.47412" lon="6.7633">
        <ele>323.4</ele>
        <time>2014-11-23T10:51:57.000Z</time>
      </trkpt>
      <trkpt lat="47.47408" lon="6.76332">
        <ele>323.5</ele>
        <time>2014-11-23T10:51:58.000Z</time>
      </trkpt>
      <trkpt lat="47.47403" lon="6.76337">
        <ele>323.5</ele>
        <time>2014-11-23T10:51:59.000Z</time>
      </trkpt>
      <trkpt lat="47.474" lon="6.76343">
        <ele>323.9</ele>
        <time>2014-11-23T10:52:00.000Z</time>
      </trkpt>
      <trkpt lat="47.47395" lon="6.76351">
        <ele>322.9</ele>
        <time>2014-11-23T10:52:01.000Z</time>
      </trkpt>
      <trkpt lat="47.47391" lon="6.76361">
        <ele>322.7</ele>
        <time>2014-11-23T10:52:02.000Z</time>
      </trkpt>
      <trkpt lat="47.4739" lon="6.76366">
        <ele>321.8</ele>
        <time>2014-11-23T10:52:03.000Z</time>
      </trkpt>
      <trkpt lat="47.47388" lon="6.76372">
        <ele>320.8</ele>
        <time>2014-11-23T10:52:04.000Z</time>
      </trkpt>
      <trkpt lat="47.47386" lon="6.76378">
        <ele>320.4</ele>
        <time>2014-11-23T10:52:05.000Z</time>
      </trkpt>
      <trkpt lat="47.47385" lon="6.76384">
        <ele>319.4</ele>
        <time>2014-11-23T10:52:06.000Z</time>
      </trkpt>
      <trkpt lat="47.47388" lon="6.7639">
        <ele>318.8</ele>
        <time>2014-11-23T10:52:07.000Z</time>
      </trkpt>
      <trkpt lat="47.47392" lon="6.76395">
        <ele>317.5</ele>
        <time>2014-11-23T10:52:08.000Z</time>
      </trkpt>
      <trkpt lat="47.47396" lon="6.76401">
        <ele>317</ele>
        <time>2014-11-23T10:52:09.000Z</time>
      </trkpt>
      <trkpt lat="47.474" lon="6.76406">
        <ele>317.2</ele>
        <time>2014-11-23T10:52:10.000Z</time>
      </trkpt>
      <trkpt lat="47.47405" lon="6.76413">
        <ele>315.4</ele>
        <time>2014-11-23T10:52:11.000Z</time>
      </trkpt>
      <trkpt lat="47.47411" lon="6.76419">
        <ele>315.3</ele>
        <time>2014-11-23T10:52:12.000Z</time>
      </trkpt>
      <trkpt lat="47.47416" lon="6.76426">
        <ele>314.9</ele>
        <time>2014-11-23T10:52:13.000Z</time>
      </trkpt>
      <trkpt lat="47.47422" lon="6.76432">
        <ele>314.5</ele>
        <time>2014-11-23T10:52:14.000Z</time>
      </trkpt>
      <trkpt lat="47.47426" lon="6.76437">
        <ele>313.3</ele>
        <time>2014-11-23T10:52:15.000Z</time>
      </trkpt>
      <trkpt lat="47.4743" lon="6.76441">
        <ele>312.6</ele>
        <time>2014-11-23T10:52:16.000Z</time>
      </trkpt>
      <trkpt lat="47.47433" lon="6.76444">
        <ele>312.3</ele>
        <time>2014-11-23T10:52:17.000Z</time>
      </trkpt>
      <trkpt lat="47.47434" lon="6.76448">
        <ele>312.8</ele>
        <time>2014-11-23T10:52:18.000Z</time>
      </trkpt>
      <trkpt lat="47.47435" lon="6.7645">
        <ele>313.7</ele>
        <time>2014-11-23T10:52:19.000Z</time>
      </trkpt>
      <trkpt lat="47.47437" lon="6.76451">
        <ele>314.3</ele>
        <time>2014-11-23T10:52:20.000Z</time>
      </trkpt>
      <trkpt lat="47.4744" lon="6.76451">
        <ele>314</ele>
        <time>2014-11-23T10:52:21.000Z</time>
      </trkpt>
      <trkpt lat="47.47445" lon="6.7645">
        <ele>314.9</ele>
        <time>2014-11-23T10:52:22.000Z</time>
      </trkpt>
      <trkpt lat="47.47449" lon="6.76446">
        <ele>315.3</ele>
        <time>2014-11-23T10:52:23.000Z</time>
      </trkpt>
      <trkpt lat="47.47455" lon="6.76441">
        <ele>314.4</ele>
        <time>2014-11-23T10:52:24.000Z</time>
      </trkpt>
      <trkpt lat="47.4746" lon="6.76438">
        <ele>314.5</ele>
        <time>2014-11-23T10:52:25.000Z</time>
      </trkpt>
      <trkpt lat="47.47466" lon="6.7644">
        <ele>312.8</ele>
        <time>2014-11-23T10:52:26.000Z</time>
      </trkpt>
      <trkpt lat="47.4747" lon="6.76441">
        <ele>311.8</ele>
        <time>2014-11-23T10:52:27.000Z</time>
      </trkpt>
      <trkpt lat="47.47475" lon="6.76444">
        <ele>311.9</ele>
        <time>2014-11-23T10:52:28.000Z</time>
      </trkpt>
      <trkpt lat="47.47479" lon="6.76446">
        <ele>311</ele>
        <time>2014-11-23T10:52:29.000Z</time>
      </trkpt>
      <trkpt lat="47.47508" lon="6.76458">
        <ele>311.3</ele>
        <time>2014-11-23T10:52:37.000Z</time>
      </trkpt>
      <trkpt lat="47.47511" lon="6.76453">
        <ele>311.2</ele>
        <time>2014-11-23T10:52:38.000Z</time>
      </trkpt>
      <trkpt lat="47.47515" lon="6.76449">
        <ele>311.5</ele>
        <time>2014-11-23T10:52:39.000Z</time>
      </trkpt>
      <trkpt lat="47.47519" lon="6.76442">
        <ele>311.8</ele>
        <time>2014-11-23T10:52:40.000Z</time>
      </trkpt>
      <trkpt lat="47.47523" lon="6.76438">
        <ele>311.7</ele>
        <time>2014-11-23T10:52:41.000Z</time>
      </trkpt>
      <trkpt lat="47.47527" lon="6.76432">
        <ele>311.8</ele>
        <time>2014-11-23T10:52:42.000Z</time>
      </trkpt>
      <trkpt lat="47.47531" lon="6.76426">
        <ele>311.9</ele>
        <time>2014-11-23T10:52:43.000Z</time>
      </trkpt>
      <trkpt lat="47.47536" lon="6.76422">
        <ele>312</ele>
        <time>2014-11-23T10:52:44.000Z</time>
      </trkpt>
      <trkpt lat="47.47539" lon="6.76421">
        <ele>312.2</ele>
        <time>2014-11-23T10:52:45.000Z</time>
      </trkpt>
      <trkpt lat="47.47543" lon="6.76417">
        <ele>312.3</ele>
        <time>2014-11-23T10:52:46.000Z</time>
      </trkpt>
      <trkpt lat="47.47546" lon="6.76408">
        <ele>312.5</ele>
        <time>2014-11-23T10:52:47.000Z</time>
      </trkpt>
      <trkpt lat="47.47548" lon="6.76394">
        <ele>312.8</ele>
        <time>2014-11-23T10:52:48.000Z</time>
      </trkpt>
      <trkpt lat="47.47551" lon="6.76382">
        <ele>310.8</ele>
        <time>2014-11-23T10:52:49.000Z</time>
      </trkpt>
      <trkpt lat="47.47554" lon="6.76374">
        <ele>311.1</ele>
        <time>2014-11-23T10:52:50.000Z</time>
      </trkpt>
      <trkpt lat="47.47556" lon="6.76367">
        <ele>311.7</ele>
        <time>2014-11-23T10:52:51.000Z</time>
      </trkpt>
      <trkpt lat="47.47559" lon="6.7636">
        <ele>311.8</ele>
        <time>2014-11-23T10:52:52.000Z</time>
      </trkpt>
      <trkpt lat="47.47562" lon="6.76354">
        <ele>311.8</ele>
        <time>2014-11-23T10:52:53.000Z</time>
      </trkpt>
      <trkpt lat="47.47567" lon="6.76346">
        <ele>311.6</ele>
        <time>2014-11-23T10:52:54.000Z</time>
      </trkpt>
      <trkpt lat="47.47572" lon="6.76338">
        <ele>311.7</ele>
        <time>2014-11-23T10:52:55.000Z</time>
      </trkpt>
      <trkpt lat="47.47577" lon="6.7633">
        <ele>312</ele>
        <time>2014-11-23T10:52:56.000Z</time>
      </trkpt>
      <trkpt lat="47.4758" lon="6.76324">
        <ele>310.2</ele>
        <time>2014-11-23T10:52:57.000Z</time>
      </trkpt>
      <trkpt lat="47.47583" lon="6.76317">
        <ele>311.5</ele>
        <time>2014-11-23T10:52:58.000Z</time>
      </trkpt>
      <trkpt lat="47.47586" lon="6.76311">
        <ele>311.8</ele>
        <time>2014-11-23T10:52:59.000Z</time>
      </trkpt>
      <trkpt lat="47.47589" lon="6.76306">
        <ele>312.2</ele>
        <time>2014-11-23T10:53:00.000Z</time>
      </trkpt>
      <trkpt lat="47.47592" lon="6.76301">
        <ele>312.4</ele>
        <time>2014-11-23T10:53:01.000Z</time>
      </trkpt>
      <trkpt lat="47.47594" lon="6.76297">
        <ele>312.4</ele>
        <time>2014-11-23T10:53:02.000Z</time>
      </trkpt>
      <trkpt lat="47.47596" lon="6.76292">
        <ele>312.5</ele>
        <time>2014-11-23T10:53:03.000Z</time>
      </trkpt>
      <trkpt lat="47.47599" lon="6.76286">
        <ele>312.2</ele>
        <time>2014-11-23T10:53:04.000Z</time>
      </trkpt>
      <trkpt lat="47.47603" lon="6.76281">
        <ele>311.9</ele>
        <time>2014-11-23T10:53:05.000Z</time>
      </trkpt>
      <trkpt lat="47.47605" lon="6.76275">
        <ele>312.1</ele>
        <time>2014-11-23T10:53:06.000Z</time>
      </trkpt>
      <trkpt lat="47.47606" lon="6.76269">
        <ele>312.9</ele>
        <time>2014-11-23T10:53:07.000Z</time>
      </trkpt>
      <trkpt lat="47.47609" lon="6.76262">
        <ele>313.6</ele>
        <time>2014-11-23T10:53:08.000Z</time>
      </trkpt>
      <trkpt lat="47.47613" lon="6.76255">
        <ele>314.6</ele>
        <time>2014-11-23T10:53:09.000Z</time>
      </trkpt>
      <trkpt lat="47.47615" lon="6.7625">
        <ele>314.8</ele>
        <time>2014-11-23T10:53:10.000Z</time>
      </trkpt>
      <trkpt lat="47.47618" lon="6.76246">
        <ele>318.4</ele>
        <time>2014-11-23T10:53:11.000Z</time>
      </trkpt>
      <trkpt lat="47.47621" lon="6.76241">
        <ele>318.7</ele>
        <time>2014-11-23T10:53:12.000Z</time>
      </trkpt>
      <trkpt lat="47.47626" lon="6.76232">
        <ele>318.7</ele>
        <time>2014-11-23T10:53:13.000Z</time>
      </trkpt>
      <trkpt lat="47.47631" lon="6.76223">
        <ele>318</ele>
        <time>2014-11-23T10:53:14.000Z</time>
      </trkpt>
      <trkpt lat="47.47635" lon="6.76215">
        <ele>317.9</ele>
        <time>2014-11-23T10:53:15.000Z</time>
      </trkpt>
      <trkpt lat="47.47638" lon="6.76207">
        <ele>317.6</ele>
        <time>2014-11-23T10:53:16.000Z</time>
      </trkpt>
      <trkpt lat="47.47641" lon="6.762">
        <ele>319.9</ele>
        <time>2014-11-23T10:53:17.000Z</time>
      </trkpt>
      <trkpt lat="47.47645" lon="6.76191">
        <ele>320.3</ele>
        <time>2014-11-23T10:53:18.000Z</time>
      </trkpt>
      <trkpt lat="47.47647" lon="6.76183">
        <ele>320.4</ele>
        <time>2014-11-23T10:53:19.000Z</time>
      </trkpt>
      <trkpt lat="47.47649" lon="6.76177">
        <ele>320.6</ele>
        <time>2014-11-23T10:53:20.000Z</time>
      </trkpt>
      <trkpt lat="47.47652" lon="6.76171">
        <ele>320</ele>
        <time>2014-11-23T10:53:21.000Z</time>
      </trkpt>
      <trkpt lat="47.47654" lon="6.76165">
        <ele>319.2</ele>
        <time>2014-11-23T10:53:22.000Z</time>
      </trkpt>
      <trkpt lat="47.47658" lon="6.76158">
        <ele>318.9</ele>
        <time>2014-11-23T10:53:23.000Z</time>
      </trkpt>
      <trkpt lat="47.47661" lon="6.76152">
        <ele>319.1</ele>
        <time>2014-11-23T10:53:24.000Z</time>
      </trkpt>
      <trkpt lat="47.47663" lon="6.76144">
        <ele>320.4</ele>
        <time>2014-11-23T10:53:25.000Z</time>
      </trkpt>
      <trkpt lat="47.47667" lon="6.76137">
        <ele>320.3</ele>
        <time>2014-11-23T10:53:26.000Z</time>
      </trkpt>
      <trkpt lat="47.47671" lon="6.76129">
        <ele>319.5</ele>
        <time>2014-11-23T10:53:27.000Z</time>
      </trkpt>
      <trkpt lat="47.47674" lon="6.76121">
        <ele>319</ele>
        <time>2014-11-23T10:53:28.000Z</time>
      </trkpt>
      <trkpt lat="47.47677" lon="6.76114">
        <ele>319.6</ele>
        <time>2014-11-23T10:53:29.000Z</time>
      </trkpt>
      <trkpt lat="47.47693" lon="6.7613">
        <ele>313.2</ele>
        <time>2014-11-23T10:53:37.000Z</time>
      </trkpt>
      <trkpt lat="47.47696" lon="6.76133">
        <ele>313.4</ele>
        <time>2014-11-23T10:53:38.000Z</time>
      </trkpt>
      <trkpt lat="47.47701" lon="6.76136">
        <ele>311.6</ele>
        <time>2014-11-23T10:53:39.000Z</time>
      </trkpt>
      <trkpt lat="47.47706" lon="6.7614">
        <ele>310.9</ele>
        <time>2014-11-23T10:53:40.000Z</time>
      </trkpt>
      <trkpt lat="47.47709" lon="6.76145">
        <ele>310.4</ele>
        <time>2014-11-23T10:53:41.000Z</time>
      </trkpt>
      <trkpt lat="47.47712" lon="6.76148">
        <ele>310.7</ele>
        <time>2014-11-23T10:53:42.000Z</time>
      </trkpt>
      <trkpt lat="47.47716" lon="6.76153">
        <ele>309.8</ele>
        <time>2014-11-23T10:53:43.000Z</time>
      </trkpt>
      <trkpt lat="47.47719" lon="6.76159">
        <ele>309.6</ele>
        <time>2014-11-23T10:53:44.000Z</time>
      </trkpt>
      <trkpt lat="47.47724" lon="6.76164">
        <ele>308.7</ele>
        <time>2014-11-23T10:53:45.000Z</time>
      </trkpt>
      <trkpt lat="47.47727" lon="6.76169">
        <ele>307.8</ele>
        <time>2014-11-23T10:53:46.000Z</time>
      </trkpt>
      <trkpt lat="47.47732" lon="6.76173">
        <ele>307.3</ele>
        <time>2014-11-23T10:53:47.000Z</time>
      </trkpt>
      <trkpt lat="47.47736" lon="6.76177">
        <ele>307.4</ele>
        <time>2014-11-23T10:53:48.000Z</time>
      </trkpt>
      <trkpt lat="47.47739" lon="6.76182">
        <ele>307.1</ele>
        <time>2014-11-23T10:53:49.000Z</time>
      </trkpt>
      <trkpt lat="47.47744" lon="6.76187">
        <ele>306.5</ele>
        <time>2014-11-23T10:53:50.000Z</time>
      </trkpt>
      <trkpt lat="47.47747" lon="6.76192">
        <ele>306.8</ele>
        <time>2014-11-23T10:53:51.000Z</time>
      </trkpt>
      <trkpt lat="47.4775" lon="6.76197">
        <ele>306.6</ele>
        <time>2014-11-23T10:53:52.000Z</time>
      </trkpt>
      <trkpt lat="47.47754" lon="6.76202">
        <ele>306.6</ele>
        <time>2014-11-23T10:53:53.000Z</time>
      </trkpt>
      <trkpt lat="47.47757" lon="6.76207">
        <ele>306</ele>
        <time>2014-11-23T10:53:54.000Z</time>
      </trkpt>
      <trkpt lat="47.47759" lon="6.76211">
        <ele>306.4</ele>
        <time>2014-11-23T10:53:55.000Z</time>
      </trkpt>
      <trkpt lat="47.47762" lon="6.76218">
        <ele>306.8</ele>
        <time>2014-11-23T10:53:56.000Z</time>
      </trkpt>
      <trkpt lat="47.47765" lon="6.76224">
        <ele>307</ele>
        <time>2014-11-23T10:53:57.000Z</time>
      </trkpt>
      <trkpt lat="47.47769" lon="6.76229">
        <ele>307.3</ele>
        <time>2014-11-23T10:53:58.000Z</time>
      </trkpt>
      <trkpt lat="47.47773" lon="6.76234">
        <ele>308.3</ele>
        <time>2014-11-23T10:53:59.000Z</time>
      </trkpt>
      <trkpt lat="47.47777" lon="6.7624">
        <ele>308.4</ele>
        <time>2014-11-23T10:54:00.000Z</time>
      </trkpt>
      <trkpt lat="47.47781" lon="6.76244">
        <ele>308.4</ele>
        <time>2014-11-23T10:54:01.000Z</time>
      </trkpt>
      <trkpt lat="47.47786" lon="6.7625">
        <ele>307.6</ele>
        <time>2014-11-23T10:54:02.000Z</time>
      </trkpt>
      <trkpt lat="47.47792" lon="6.76254">
        <ele>308.2</ele>
        <time>2014-11-23T10:54:03.000Z</time>
      </trkpt>
      <trkpt lat="47.47796" lon="6.76257">
        <ele>307.8</ele>
        <time>2014-11-23T10:54:04.000Z</time>
      </trkpt>
      <trkpt lat="47.47801" lon="6.76261">
        <ele>307.7</ele>
        <time>2014-11-23T10:54:05.000Z</time>
      </trkpt>
      <trkpt lat="47.47806" lon="6.76263">
        <ele>307.4</ele>
        <time>2014-11-23T10:54:06.000Z</time>
      </trkpt>
      <trkpt lat="47.4781" lon="6.76268">
        <ele>305.7</ele>
        <time>2014-11-23T10:54:07.000Z</time>
      </trkpt>
      <trkpt lat="47.47815" lon="6.7627">
        <ele>304.3</ele>
        <time>2014-11-23T10:54:08.000Z</time>
      </trkpt>
      <trkpt lat="47.4782" lon="6.76273">
        <ele>304</ele>
        <time>2014-11-23T10:54:09.000Z</time>
      </trkpt>
      <trkpt lat="47.47824" lon="6.76277">
        <ele>304.3</ele>
        <time>2014-11-23T10:54:10.000Z</time>
      </trkpt>
      <trkpt lat="47.47829" lon="6.76281">
        <ele>305</ele>
        <time>2014-11-23T10:54:11.000Z</time>
      </trkpt>
      <trkpt lat="47.47832" lon="6.76285">
        <ele>304.5</ele>
        <time>2014-11-23T10:54:12.000Z</time>
      </trkpt>
      <trkpt lat="47.47836" lon="6.76289">
        <ele>304.7</ele>
        <time>2014-11-23T10:54:13.000Z</time>
      </trkpt>
      <trkpt lat="47.4784" lon="6.76293">
        <ele>304.8</ele>
        <time>2014-11-23T10:54:14.000Z</time>
      </trkpt>
      <trkpt lat="47.47844" lon="6.76296">
        <ele>304.6</ele>
        <time>2014-11-23T10:54:15.000Z</time>
      </trkpt>
      <trkpt lat="47.47847" lon="6.76303">
        <ele>305</ele>
        <time>2014-11-23T10:54:16.000Z</time>
      </trkpt>
      <trkpt lat="47.4785" lon="6.7631">
        <ele>304.6</ele>
        <time>2014-11-23T10:54:17.000Z</time>
      </trkpt>
      <trkpt lat="47.47853" lon="6.76316">
        <ele>304.3</ele>
        <time>2014-11-23T10:54:18.000Z</time>
      </trkpt>
      <trkpt lat="47.47856" lon="6.76321">
        <ele>304.5</ele>
        <time>2014-11-23T10:54:19.000Z</time>
      </trkpt>
      <trkpt lat="47.47859" lon="6.76327">
        <ele>304.5</ele>
        <time>2014-11-23T10:54:20.000Z</time>
      </trkpt>
      <trkpt lat="47.47862" lon="6.76333">
        <ele>304.5</ele>
        <time>2014-11-23T10:54:21.000Z</time>
      </trkpt>
      <trkpt lat="47.47866" lon="6.76338">
        <ele>304.8</ele>
        <time>2014-11-23T10:54:22.000Z</time>
      </trkpt>
      <trkpt lat="47.47869" lon="6.76343">
        <ele>305.7</ele>
        <time>2014-11-23T10:54:23.000Z</time>
      </trkpt>
      <trkpt lat="47.47872" lon="6.7635">
        <ele>306</ele>
        <time>2014-11-23T10:54:24.000Z</time>
      </trkpt>
      <trkpt lat="47.47875" lon="6.76355">
        <ele>305.9</ele>
        <time>2014-11-23T10:54:25.000Z</time>
      </trkpt>
      <trkpt lat="47.47878" lon="6.76361">
        <ele>305.4</ele>
        <time>2014-11-23T10:54:26.000Z</time>
      </trkpt>
      <trkpt lat="47.47881" lon="6.76367">
        <ele>306.2</ele>
        <time>2014-11-23T10:54:27.000Z</time>
      </trkpt>
      <trkpt lat="47.47884" lon="6.76372">
        <ele>306.7</ele>
        <time>2014-11-23T10:54:28.000Z</time>
      </trkpt>
      <trkpt lat="47.47887" lon="6.76377">
        <ele>306.9</ele>
        <time>2014-11-23T10:54:29.000Z</time>
      </trkpt>
      <trkpt lat="47.47902" lon="6.76419">
        <ele>310.8</ele>
        <time>2014-11-23T10:54:37.000Z</time>
      </trkpt>
      <trkpt lat="47.47905" lon="6.76427">
        <ele>310.5</ele>
        <time>2014-11-23T10:54:38.000Z</time>
      </trkpt>
      <trkpt lat="47.47907" lon="6.76435">
        <ele>310.7</ele>
        <time>2014-11-23T10:54:39.000Z</time>
      </trkpt>
      <trkpt lat="47.47909" lon="6.76442">
        <ele>310.5</ele>
        <time>2014-11-23T10:54:40.000Z</time>
      </trkpt>
      <trkpt lat="47.47911" lon="6.76449">
        <ele>310.7</ele>
        <time>2014-11-23T10:54:41.000Z</time>
      </trkpt>
      <trkpt lat="47.47913" lon="6.76456">
        <ele>309.4</ele>
        <time>2014-11-23T10:54:42.000Z</time>
      </trkpt>
      <trkpt lat="47.47915" lon="6.76462">
        <ele>309.7</ele>
        <time>2014-11-23T10:54:43.000Z</time>
      </trkpt>
      <trkpt lat="47.47918" lon="6.7647">
        <ele>310.2</ele>
        <time>2014-11-23T10:54:44.000Z</time>
      </trkpt>
      <trkpt lat="47.4792" lon="6.76476">
        <ele>309.4</ele>
        <time>2014-11-23T10:54:45.000Z</time>
      </trkpt>
      <trkpt lat="47.47921" lon="6.76484">
        <ele>308.7</ele>
        <time>2014-11-23T10:54:46.000Z</time>
      </trkpt>
      <trkpt lat="47.47924" lon="6.7649">
        <ele>308.3</ele>
        <time>2014-11-23T10:54:47.000Z</time>
      </trkpt>
      <trkpt lat="47.47925" lon="6.76497">
        <ele>308.8</ele>
        <time>2014-11-23T10:54:48.000Z</time>
      </trkpt>
      <trkpt lat="47.47927" lon="6.76502">
        <ele>308.2</ele>
        <time>2014-11-23T10:54:49.000Z</time>
      </trkpt>
      <trkpt lat="47.47929" lon="6.76509">
        <ele>308.9</ele>
        <time>2014-11-23T10:54:50.000Z</time>
      </trkpt>
      <trkpt lat="47.47931" lon="6.76518">
        <ele>309.8</ele>
        <time>2014-11-23T10:54:51.000Z</time>
      </trkpt>
      <trkpt lat="47.47932" lon="6.76524">
        <ele>309.9</ele>
        <time>2014-11-23T10:54:52.000Z</time>
      </trkpt>
      <trkpt lat="47.47934" lon="6.7653">
        <ele>310</ele>
        <time>2014-11-23T10:54:53.000Z</time>
      </trkpt>
      <trkpt lat="47.47935" lon="6.76538">
        <ele>308.9</ele>
        <time>2014-11-23T10:54:54.000Z</time>
      </trkpt>
      <trkpt lat="47.47937" lon="6.76543">
        <ele>309.2</ele>
        <time>2014-11-23T10:54:55.000Z</time>
      </trkpt>
      <trkpt lat="47.47939" lon="6.7655">
        <ele>309</ele>
        <time>2014-11-23T10:54:56.000Z</time>
      </trkpt>
      <trkpt lat="47.47942" lon="6.76556">
        <ele>308.4</ele>
        <time>2014-11-23T10:54:57.000Z</time>
      </trkpt>
      <trkpt lat="47.47943" lon="6.7656">
        <ele>308.3</ele>
        <time>2014-11-23T10:54:58.000Z</time>
      </trkpt>
      <trkpt lat="47.47945" lon="6.76567">
        <ele>309.5</ele>
        <time>2014-11-23T10:54:59.000Z</time>
      </trkpt>
      <trkpt lat="47.47946" lon="6.76574">
        <ele>310.5</ele>
        <time>2014-11-23T10:55:00.000Z</time>
      </trkpt>
      <trkpt lat="47.47946" lon="6.76579">
        <ele>309.9</ele>
        <time>2014-11-23T10:55:01.000Z</time>
      </trkpt>
      <trkpt lat="47.47945" lon="6.76585">
        <ele>311.4</ele>
        <time>2014-11-23T10:55:02.000Z</time>
      </trkpt>
      <trkpt lat="47.47946" lon="6.76589">
        <ele>311</ele>
        <time>2014-11-23T10:55:03.000Z</time>
      </trkpt>
      <trkpt lat="47.47948" lon="6.76594">
        <ele>309.2</ele>
        <time>2014-11-23T10:55:04.000Z</time>
      </trkpt>
      <trkpt lat="47.47949" lon="6.76597">
        <ele>308.9</ele>
        <time>2014-11-23T10:55:05.000Z</time>
      </trkpt>
      <trkpt lat="47.4795" lon="6.76601">
        <ele>308.7</ele>
        <time>2014-11-23T10:55:06.000Z</time>
      </trkpt>
      <trkpt lat="47.47951" lon="6.76605">
        <ele>306.8</ele>
        <time>2014-11-23T10:55:07.000Z</time>
      </trkpt>
      <trkpt lat="47.47951" lon="6.7661">
        <ele>305.9</ele>
        <time>2014-11-23T10:55:08.000Z</time>
      </trkpt>
      <trkpt lat="47.47952" lon="6.76614">
        <ele>309.2</ele>
        <time>2014-11-23T10:55:09.000Z</time>
      </trkpt>
      <trkpt lat="47.47952" lon="6.76617">
        <ele>310.1</ele>
        <time>2014-11-23T10:55:10.000Z</time>
      </trkpt>
      <trkpt lat="47.47953" lon="6.76622">
        <ele>309.5</ele>
        <time>2014-11-23T10:55:17.000Z</time>
      </trkpt>
      <trkpt lat="47.47954" lon="6.76623">
        <ele>309.5</ele>
        <time>2014-11-23T10:55:18.000Z</time>
      </trkpt>
      <trkpt lat="47.47956" lon="6.76626">
        <ele>310.3</ele>
        <time>2014-11-23T10:55:19.000Z</time>
      </trkpt>
      <trkpt lat="47.4796" lon="6.76627">
        <ele>310.7</ele>
        <time>2014-11-23T10:55:20.000Z</time>
      </trkpt>
      <trkpt lat="47.47964" lon="6.76628">
        <ele>310.9</ele>
        <time>2014-11-23T10:55:21.000Z</time>
      </trkpt>
      <trkpt lat="47.47968" lon="6.76626">
        <ele>310.2</ele>
        <time>2014-11-23T10:55:22.000Z</time>
      </trkpt>
      <trkpt lat="47.47973" lon="6.76624">
        <ele>310.3</ele>
        <time>2014-11-23T10:55:23.000Z</time>
      </trkpt>
      <trkpt lat="47.47977" lon="6.76621">
        <ele>310.6</ele>
        <time>2014-11-23T10:55:24.000Z</time>
      </trkpt>
      <trkpt lat="47.47985" lon="6.76613">
        <ele>310.2</ele>
        <time>2014-11-23T10:55:25.000Z</time>
      </trkpt>
      <trkpt lat="47.4799" lon="6.76607">
        <ele>309.1</ele>
        <time>2014-11-23T10:55:26.000Z</time>
      </trkpt>
      <trkpt lat="47.47994" lon="6.76604">
        <ele>309</ele>
        <time>2014-11-23T10:55:27.000Z</time>
      </trkpt>
      <trkpt lat="47.47999" lon="6.76602">
        <ele>309.2</ele>
        <time>2014-11-23T10:55:28.000Z</time>
      </trkpt>
      <trkpt lat="47.48004" lon="6.76601">
        <ele>309.2</ele>
        <time>2014-11-23T10:55:29.000Z</time>
      </trkpt>
      <trkpt lat="47.4804" lon="6.7658">
        <ele>309.2</ele>
        <time>2014-11-23T10:55:37.000Z</time>
      </trkpt>
      <trkpt lat="47.48045" lon="6.76576">
        <ele>309.7</ele>
        <time>2014-11-23T10:55:38.000Z</time>
      </trkpt>
      <trkpt lat="47.4805" lon="6.76571">
        <ele>309.7</ele>
        <time>2014-11-23T10:55:39.000Z</time>
      </trkpt>
      <trkpt lat="47.48054" lon="6.76567">
        <ele>310.3</ele>
        <time>2014-11-23T10:55:40.000Z</time>
      </trkpt>
      <trkpt lat="47.4806" lon="6.76563">
        <ele>311</ele>
        <time>2014-11-23T10:55:41.000Z</time>
      </trkpt>
      <trkpt lat="47.48064" lon="6.7656">
        <ele>310.3</ele>
        <time>2014-11-23T10:55:42.000Z</time>
      </trkpt>
      <trkpt lat="47.48068" lon="6.76556">
        <ele>310.4</ele>
        <time>2014-11-23T10:55:43.000Z</time>
      </trkpt>
      <trkpt lat="47.48073" lon="6.76552">
        <ele>310.6</ele>
        <time>2014-11-23T10:55:44.000Z</time>
      </trkpt>
      <trkpt lat="47.48078" lon="6.76548">
        <ele>310.9</ele>
        <time>2014-11-23T10:55:45.000Z</time>
      </trkpt>
      <trkpt lat="47.48082" lon="6.76544">
        <ele>311.1</ele>
        <time>2014-11-23T10:55:46.000Z</time>
      </trkpt>
      <trkpt lat="47.48087" lon="6.76539">
        <ele>311.1</ele>
        <time>2014-11-23T10:55:47.000Z</time>
      </trkpt>
      <trkpt lat="47.48092" lon="6.76535">
        <ele>311.4</ele>
        <time>2014-11-23T10:55:48.000Z</time>
      </trkpt>
      <trkpt lat="47.48097" lon="6.76532">
        <ele>311.9</ele>
        <time>2014-11-23T10:55:49.000Z</time>
      </trkpt>
      <trkpt lat="47.48101" lon="6.76528">
        <ele>310.7</ele>
        <time>2014-11-23T10:55:50.000Z</time>
      </trkpt>
      <trkpt lat="47.48106" lon="6.76525">
        <ele>310.6</ele>
        <time>2014-11-23T10:55:51.000Z</time>
      </trkpt>
      <trkpt lat="47.48109" lon="6.76522">
        <ele>310</ele>
        <time>2014-11-23T10:55:52.000Z</time>
      </trkpt>
      <trkpt lat="47.48111" lon="6.76521">
        <ele>309.5</ele>
        <time>2014-11-23T10:55:53.000Z</time>
      </trkpt>
      <trkpt lat="47.48112" lon="6.7653">
        <ele>312</ele>
        <time>2014-11-23T10:55:54.000Z</time>
      </trkpt>
      <trkpt lat="47.48115" lon="6.76534">
        <ele>312</ele>
        <time>2014-11-23T10:55:55.000Z</time>
      </trkpt>
      <trkpt lat="47.48116" lon="6.76539">
        <ele>312</ele>
        <time>2014-11-23T10:55:56.000Z</time>
      </trkpt>
      <trkpt lat="47.48117" lon="6.76544">
        <ele>312.4</ele>
        <time>2014-11-23T10:55:57.000Z</time>
      </trkpt>
      <trkpt lat="47.48118" lon="6.7655">
        <ele>311.7</ele>
        <time>2014-11-23T10:55:58.000Z</time>
      </trkpt>
      <trkpt lat="47.48117" lon="6.76556">
        <ele>312.3</ele>
        <time>2014-11-23T10:55:59.000Z</time>
      </trkpt>
      <trkpt lat="47.48117" lon="6.76561">
        <ele>312.4</ele>
        <time>2014-11-23T10:56:00.000Z</time>
      </trkpt>
      <trkpt lat="47.48116" lon="6.76566">
        <ele>312.5</ele>
        <time>2014-11-23T10:56:01.000Z</time>
      </trkpt>
      <trkpt lat="47.48115" lon="6.76571">
        <ele>312.1</ele>
        <time>2014-11-23T10:56:02.000Z</time>
      </trkpt>
      <trkpt lat="47.48113" lon="6.76576">
        <ele>312.2</ele>
        <time>2014-11-23T10:56:03.000Z</time>
      </trkpt>
      <trkpt lat="47.4811" lon="6.7658">
        <ele>311.3</ele>
        <time>2014-11-23T10:56:04.000Z</time>
      </trkpt>
      <trkpt lat="47.48103" lon="6.76585">
        <ele>310.8</ele>
        <time>2014-11-23T10:56:05.000Z</time>
      </trkpt>
      <trkpt lat="47.481" lon="6.76591">
        <ele>311.1</ele>
        <time>2014-11-23T10:56:06.000Z</time>
      </trkpt>
      <trkpt lat="47.48099" lon="6.76598">
        <ele>311.3</ele>
        <time>2014-11-23T10:56:07.000Z</time>
      </trkpt>
      <trkpt lat="47.48098" lon="6.76608">
        <ele>312.2</ele>
        <time>2014-11-23T10:56:08.000Z</time>
      </trkpt>
      <trkpt lat="47.48098" lon="6.76615">
        <ele>312.9</ele>
        <time>2014-11-23T10:56:09.000Z</time>
      </trkpt>
      <trkpt lat="47.48099" lon="6.76622">
        <ele>312.7</ele>
        <time>2014-11-23T10:56:10.000Z</time>
      </trkpt>
      <trkpt lat="47.48102" lon="6.76627">
        <ele>314.4</ele>
        <time>2014-11-23T10:56:11.000Z</time>
      </trkpt>
      <trkpt lat="47.48103" lon="6.76634">
        <ele>314.4</ele>
        <time>2014-11-23T10:56:12.000Z</time>
      </trkpt>
      <trkpt lat="47.48106" lon="6.76641">
        <ele>313</ele>
        <time>2014-11-23T10:56:13.000Z</time>
      </trkpt>
      <trkpt lat="47.48109" lon="6.76648">
        <ele>312.4</ele>
        <time>2014-11-23T10:56:14.000Z</time>
      </trkpt>
      <trkpt lat="47.48112" lon="6.76653">
        <ele>313.6</ele>
        <time>2014-11-23T10:56:15.000Z</time>
      </trkpt>
      <trkpt lat="47.48115" lon="6.76658">
        <ele>313.4</ele>
        <time>2014-11-23T10:56:16.000Z</time>
      </trkpt>
      <trkpt lat="47.48119" lon="6.76664">
        <ele>313.4</ele>
        <time>2014-11-23T10:56:17.000Z</time>
      </trkpt>
      <trkpt lat="47.48122" lon="6.7667">
        <ele>313.3</ele>
        <time>2014-11-23T10:56:18.000Z</time>
      </trkpt>
      <trkpt lat="47.48126" lon="6.76679">
        <ele>312.9</ele>
        <time>2014-11-23T10:56:19.000Z</time>
      </trkpt>
      <trkpt lat="47.48131" lon="6.76689">
        <ele>312</ele>
        <time>2014-11-23T10:56:20.000Z</time>
      </trkpt>
      <trkpt lat="47.48136" lon="6.76696">
        <ele>311.2</ele>
        <time>2014-11-23T10:56:21.000Z</time>
      </trkpt>
      <trkpt lat="47.48138" lon="6.76704">
        <ele>311.4</ele>
        <time>2014-11-23T10:56:22.000Z</time>
      </trkpt>
      <trkpt lat="47.48142" lon="6.76711">
        <ele>310.8</ele>
        <time>2014-11-23T10:56:23.000Z</time>
      </trkpt>
      <trkpt lat="47.48145" lon="6.76718">
        <ele>311.2</ele>
        <time>2014-11-23T10:56:24.000Z</time>
      </trkpt>
      <trkpt lat="47.48148" lon="6.76724">
        <ele>312.4</ele>
        <time>2014-11-23T10:56:25.000Z</time>
      </trkpt>
      <trkpt lat="47.4815" lon="6.76731">
        <ele>312.3</ele>
        <time>2014-11-23T10:56:26.000Z</time>
      </trkpt>
      <trkpt lat="47.48155" lon="6.76737">
        <ele>311.9</ele>
        <time>2014-11-23T10:56:27.000Z</time>
      </trkpt>
      <trkpt lat="47.48159" lon="6.76744">
        <ele>311.7</ele>
        <time>2014-11-23T10:56:28.000Z</time>
      </trkpt>
      <trkpt lat="47.48163" lon="6.7675">
        <ele>311.3</ele>
        <time>2014-11-23T10:56:29.000Z</time>
      </trkpt>
      <trkpt lat="47.48195" lon="6.76787">
        <ele>313.5</ele>
        <time>2014-11-23T10:56:37.000Z</time>
      </trkpt>
      <trkpt lat="47.48202" lon="6.76789">
        <ele>313.5</ele>
        <time>2014-11-23T10:56:38.000Z</time>
      </trkpt>
      <trkpt lat="47.48208" lon="6.76793">
        <ele>313.9</ele>
        <time>2014-11-23T10:56:39.000Z</time>
      </trkpt>
      <trkpt lat="47.48214" lon="6.76796">
        <ele>315</ele>
        <time>2014-11-23T10:56:40.000Z</time>
      </trkpt>
      <trkpt lat="47.48219" lon="6.768">
        <ele>315</ele>
        <time>2014-11-23T10:56:41.000Z</time>
      </trkpt>
      <trkpt lat="47.48224" lon="6.76803">
        <ele>314.7</ele>
        <time>2014-11-23T10:56:42.000Z</time>
      </trkpt>
      <trkpt lat="47.48228" lon="6.76806">
        <ele>316</ele>
        <time>2014-11-23T10:56:43.000Z</time>
      </trkpt>
      <trkpt lat="47.48233" lon="6.76809">
        <ele>316.2</ele>
        <time>2014-11-23T10:56:44.000Z</time>
      </trkpt>
      <trkpt lat="47.48238" lon="6.76812">
        <ele>316.4</ele>
        <time>2014-11-23T10:56:45.000Z</time>
      </trkpt>
      <trkpt lat="47.48243" lon="6.76816">
        <ele>316.4</ele>
        <time>2014-11-23T10:56:46.000Z</time>
      </trkpt>
      <trkpt lat="47.48246" lon="6.7682">
        <ele>316.8</ele>
        <time>2014-11-23T10:56:47.000Z</time>
      </trkpt>
      <trkpt lat="47.4825" lon="6.76826">
        <ele>316.5</ele>
        <time>2014-11-23T10:56:48.000Z</time>
      </trkpt>
      <trkpt lat="47.48254" lon="6.76831">
        <ele>316.5</ele>
        <time>2014-11-23T10:56:49.000Z</time>
      </trkpt>
      <trkpt lat="47.48258" lon="6.76835">
        <ele>315.6</ele>
        <time>2014-11-23T10:56:50.000Z</time>
      </trkpt>
      <trkpt lat="47.48261" lon="6.7684">
        <ele>315.1</ele>
        <time>2014-11-23T10:56:51.000Z</time>
      </trkpt>
      <trkpt lat="47.48265" lon="6.76845">
        <ele>316</ele>
        <time>2014-11-23T10:56:52.000Z</time>
      </trkpt>
      <trkpt lat="47.48269" lon="6.76851">
        <ele>316.1</ele>
        <time>2014-11-23T10:56:53.000Z</time>
      </trkpt>
      <trkpt lat="47.48274" lon="6.76855">
        <ele>314.7</ele>
        <time>2014-11-23T10:56:54.000Z</time>
      </trkpt>
      <trkpt lat="47.48279" lon="6.76861">
        <ele>313.5</ele>
        <time>2014-11-23T10:56:55.000Z</time>
      </trkpt>
      <trkpt lat="47.48282" lon="6.76866">
        <ele>312.9</ele>
        <time>2014-11-23T10:56:56.000Z</time>
      </trkpt>
      <trkpt lat="47.48287" lon="6.76872">
        <ele>312.2</ele>
        <time>2014-11-23T10:56:57.000Z</time>
      </trkpt>
      <trkpt lat="47.48291" lon="6.76878">
        <ele>311.5</ele>
        <time>2014-11-23T10:56:58.000Z</time>
      </trkpt>
      <trkpt lat="47.48296" lon="6.76883">
        <ele>311.8</ele>
        <time>2014-11-23T10:56:59.000Z</time>
      </trkpt>
      <trkpt lat="47.48302" lon="6.76888">
        <ele>312.3</ele>
        <time>2014-11-23T10:57:00.000Z</time>
      </trkpt>
      <trkpt lat="47.48306" lon="6.76892">
        <ele>312.5</ele>
        <time>2014-11-23T10:57:01.000Z</time>
      </trkpt>
      <trkpt lat="47.48311" lon="6.76897">
        <ele>312.2</ele>
        <time>2014-11-23T10:57:02.000Z</time>
      </trkpt>
      <trkpt lat="47.48316" lon="6.76902">
        <ele>312.7</ele>
        <time>2014-11-23T10:57:03.000Z</time>
      </trkpt>
      <trkpt lat="47.4832" lon="6.76906">
        <ele>313</ele>
        <time>2014-11-23T10:57:04.000Z</time>
      </trkpt>
      <trkpt lat="47.48326" lon="6.76911">
        <ele>313.4</ele>
        <time>2014-11-23T10:57:05.000Z</time>
      </trkpt>
      <trkpt lat="47.48332" lon="6.76917">
        <ele>312.6</ele>
        <time>2014-11-23T10:57:06.000Z</time>
      </trkpt>
      <trkpt lat="47.48339" lon="6.76921">
        <ele>312.4</ele>
        <time>2014-11-23T10:57:07.000Z</time>
      </trkpt>
      <trkpt lat="47.48345" lon="6.76925">
        <ele>312.7</ele>
        <time>2014-11-23T10:57:08.000Z</time>
      </trkpt>
      <trkpt lat="47.48353" lon="6.76929">
        <ele>311.8</ele>
        <time>2014-11-23T10:57:09.000Z</time>
      </trkpt>
      <trkpt lat="47.4836" lon="6.76934">
        <ele>313.6</ele>
        <time>2014-11-23T10:57:10.000Z</time>
      </trkpt>
      <trkpt lat="47.48367" lon="6.76938">
        <ele>313.9</ele>
        <time>2014-11-23T10:57:11.000Z</time>
      </trkpt>
      <trkpt lat="47.48375" lon="6.76943">
        <ele>313.4</ele>
        <time>2014-11-23T10:57:12.000Z</time>
      </trkpt>
      <trkpt lat="47.48382" lon="6.76948">
        <ele>313.1</ele>
        <time>2014-11-23T10:57:13.000Z</time>
      </trkpt>
      <trkpt lat="47.4839" lon="6.76952">
        <ele>312.5</ele>
        <time>2014-11-23T10:57:14.000Z</time>
      </trkpt>
      <trkpt lat="47.48397" lon="6.76956">
        <ele>312.7</ele>
        <time>2014-11-23T10:57:15.000Z</time>
      </trkpt>
      <trkpt lat="47.48406" lon="6.76961">
        <ele>313.3</ele>
        <time>2014-11-23T10:57:16.000Z</time>
      </trkpt>
      <trkpt lat="47.48413" lon="6.76965">
        <ele>312.8</ele>
        <time>2014-11-23T10:57:17.000Z</time>
      </trkpt>
      <trkpt lat="47.48422" lon="6.76969">
        <ele>313.8</ele>
        <time>2014-11-23T10:57:18.000Z</time>
      </trkpt>
      <trkpt lat="47.4843" lon="6.76973">
        <ele>313.9</ele>
        <time>2014-11-23T10:57:19.000Z</time>
      </trkpt>
      <trkpt lat="47.48438" lon="6.76977">
        <ele>314.2</ele>
        <time>2014-11-23T10:57:20.000Z</time>
      </trkpt>
      <trkpt lat="47.48446" lon="6.76982">
        <ele>314</ele>
        <time>2014-11-23T10:57:21.000Z</time>
      </trkpt>
      <trkpt lat="47.48453" lon="6.76986">
        <ele>314</ele>
        <time>2014-11-23T10:57:22.000Z</time>
      </trkpt>
      <trkpt lat="47.4846" lon="6.76991">
        <ele>313.1</ele>
        <time>2014-11-23T10:57:23.000Z</time>
      </trkpt>
      <trkpt lat="47.48468" lon="6.76996">
        <ele>313.2</ele>
        <time>2014-11-23T10:57:24.000Z</time>
      </trkpt>
      <trkpt lat="47.48475" lon="6.77001">
        <ele>313.1</ele>
        <time>2014-11-23T10:57:25.000Z</time>
      </trkpt>
      <trkpt lat="47.48483" lon="6.77006">
        <ele>313.1</ele>
        <time>2014-11-23T10:57:26.000Z</time>
      </trkpt>
      <trkpt lat="47.48491" lon="6.77011">
        <ele>313.1</ele>
        <time>2014-11-23T10:57:27.000Z</time>
      </trkpt>
      <trkpt lat="47.48498" lon="6.77016">
        <ele>313</ele>
        <time>2014-11-23T10:57:28.000Z</time>
      </trkpt>
      <trkpt lat="47.48505" lon="6.77021">
        <ele>312.7</ele>
        <time>2014-11-23T10:57:29.000Z</time>
      </trkpt>
      <trkpt lat="47.48556" lon="6.77055">
        <ele>310.5</ele>
        <time>2014-11-23T10:57:37.000Z</time>
      </trkpt>
      <trkpt lat="47.48561" lon="6.77055">
        <ele>312.6</ele>
        <time>2014-11-23T10:57:38.000Z</time>
      </trkpt>
      <trkpt lat="47.48566" lon="6.77058">
        <ele>312.3</ele>
        <time>2014-11-23T10:57:39.000Z</time>
      </trkpt>
      <trkpt lat="47.48572" lon="6.77061">
        <ele>312.9</ele>
        <time>2014-11-23T10:57:40.000Z</time>
      </trkpt>
      <trkpt lat="47.48577" lon="6.77065">
        <ele>313</ele>
        <time>2014-11-23T10:57:41.000Z</time>
      </trkpt>
      <trkpt lat="47.48583" lon="6.7707">
        <ele>313.3</ele>
        <time>2014-11-23T10:57:42.000Z</time>
      </trkpt>
      <trkpt lat="47.48588" lon="6.77077">
        <ele>315.8</ele>
        <time>2014-11-23T10:57:43.000Z</time>
      </trkpt>
      <trkpt lat="47.48594" lon="6.7708">
        <ele>315.8</ele>
        <time>2014-11-23T10:57:44.000Z</time>
      </trkpt>
      <trkpt lat="47.48601" lon="6.77083">
        <ele>315.5</ele>
        <time>2014-11-23T10:57:45.000Z</time>
      </trkpt>
      <trkpt lat="47.48605" lon="6.77088">
        <ele>315.7</ele>
        <time>2014-11-23T10:57:46.000Z</time>
      </trkpt>
      <trkpt lat="47.4861" lon="6.77092">
        <ele>317.3</ele>
        <time>2014-11-23T10:57:47.000Z</time>
      </trkpt>
      <trkpt lat="47.48614" lon="6.77094">
        <ele>317.7</ele>
        <time>2014-11-23T10:57:48.000Z</time>
      </trkpt>
      <trkpt lat="47.48617" lon="6.77099">
        <ele>318</ele>
        <time>2014-11-23T10:57:49.000Z</time>
      </trkpt>
      <trkpt lat="47.48622" lon="6.77102">
        <ele>318.1</ele>
        <time>2014-11-23T10:57:50.000Z</time>
      </trkpt>
      <trkpt lat="47.48626" lon="6.77106">
        <ele>319.3</ele>
        <time>2014-11-23T10:57:51.000Z</time>
      </trkpt>
      <trkpt lat="47.4863" lon="6.77111">
        <ele>319.7</ele>
        <time>2014-11-23T10:57:52.000Z</time>
      </trkpt>
      <trkpt lat="47.48635" lon="6.77115">
        <ele>318.6</ele>
        <time>2014-11-23T10:57:53.000Z</time>
      </trkpt>
      <trkpt lat="47.4864" lon="6.77119">
        <ele>318.7</ele>
        <time>2014-11-23T10:57:54.000Z</time>
      </trkpt>
      <trkpt lat="47.48646" lon="6.77125">
        <ele>318</ele>
        <time>2014-11-23T10:57:55.000Z</time>
      </trkpt>
      <trkpt lat="47.48651" lon="6.7713">
        <ele>317.7</ele>
        <time>2014-11-23T10:57:56.000Z</time>
      </trkpt>
      <trkpt lat="47.48657" lon="6.77133">
        <ele>315.3</ele>
        <time>2014-11-23T10:57:57.000Z</time>
      </trkpt>
      <trkpt lat="47.48662" lon="6.77138">
        <ele>315.3</ele>
        <time>2014-11-23T10:57:58.000Z</time>
      </trkpt>
      <trkpt lat="47.48667" lon="6.77143">
        <ele>315.5</ele>
        <time>2014-11-23T10:57:59.000Z</time>
      </trkpt>
      <trkpt lat="47.48672" lon="6.77147">
        <ele>314.6</ele>
        <time>2014-11-23T10:58:00.000Z</time>
      </trkpt>
      <trkpt lat="47.48677" lon="6.77152">
        <ele>314.8</ele>
        <time>2014-11-23T10:58:01.000Z</time>
      </trkpt>
      <trkpt lat="47.48682" lon="6.77155">
        <ele>315</ele>
        <time>2014-11-23T10:58:02.000Z</time>
      </trkpt>
      <trkpt lat="47.48687" lon="6.77159">
        <ele>314.5</ele>
        <time>2014-11-23T10:58:03.000Z</time>
      </trkpt>
      <trkpt lat="47.48692" lon="6.77164">
        <ele>314.8</ele>
        <time>2014-11-23T10:58:04.000Z</time>
      </trkpt>
      <trkpt lat="47.48697" lon="6.77167">
        <ele>314.7</ele>
        <time>2014-11-23T10:58:05.000Z</time>
      </trkpt>
      <trkpt lat="47.48702" lon="6.77171">
        <ele>314.4</ele>
        <time>2014-11-23T10:58:06.000Z</time>
      </trkpt>
      <trkpt lat="47.48707" lon="6.77175">
        <ele>314.8</ele>
        <time>2014-11-23T10:58:07.000Z</time>
      </trkpt>
      <trkpt lat="47.48713" lon="6.77179">
        <ele>314.8</ele>
        <time>2014-11-23T10:58:08.000Z</time>
      </trkpt>
      <trkpt lat="47.48718" lon="6.77182">
        <ele>314.7</ele>
        <time>2014-11-23T10:58:09.000Z</time>
      </trkpt>
      <trkpt lat="47.48723" lon="6.77186">
        <ele>314.8</ele>
        <time>2014-11-23T10:58:10.000Z</time>
      </trkpt>
      <trkpt lat="47.48728" lon="6.77189">
        <ele>315.1</ele>
        <time>2014-11-23T10:58:11.000Z</time>
      </trkpt>
      <trkpt lat="47.48733" lon="6.77193">
        <ele>315.1</ele>
        <time>2014-11-23T10:58:12.000Z</time>
      </trkpt>
      <trkpt lat="47.48738" lon="6.77197">
        <ele>315.4</ele>
        <time>2014-11-23T10:58:13.000Z</time>
      </trkpt>
      <trkpt lat="47.48743" lon="6.772">
        <ele>315.7</ele>
        <time>2014-11-23T10:58:14.000Z</time>
      </trkpt>
      <trkpt lat="47.48748" lon="6.77204">
        <ele>315.2</ele>
        <time>2014-11-23T10:58:15.000Z</time>
      </trkpt>
      <trkpt lat="47.48753" lon="6.77207">
        <ele>314.7</ele>
        <time>2014-11-23T10:58:16.000Z</time>
      </trkpt>
      <trkpt lat="47.48757" lon="6.77211">
        <ele>314.4</ele>
        <time>2014-11-23T10:58:17.000Z</time>
      </trkpt>
      <trkpt lat="47.48762" lon="6.77214">
        <ele>314.5</ele>
        <time>2014-11-23T10:58:18.000Z</time>
      </trkpt>
      <trkpt lat="47.48767" lon="6.77218">
        <ele>314.9</ele>
        <time>2014-11-23T10:58:19.000Z</time>
      </trkpt>
      <trkpt lat="47.48772" lon="6.77222">
        <ele>315.2</ele>
        <time>2014-11-23T10:58:19.998Z</time>
      </trkpt>
      <trkpt lat="47.48777" lon="6.77225">
        <ele>314</ele>
        <time>2014-11-23T10:58:21.000Z</time>
      </trkpt>
      <trkpt lat="47.48782" lon="6.77229">
        <ele>313.3</ele>
        <time>2014-11-23T10:58:22.000Z</time>
      </trkpt>
      <trkpt lat="47.48786" lon="6.77234">
        <ele>313.2</ele>
        <time>2014-11-23T10:58:23.000Z</time>
      </trkpt>
      <trkpt lat="47.48791" lon="6.77235">
        <ele>314.4</ele>
        <time>2014-11-23T10:58:24.000Z</time>
      </trkpt>
      <trkpt lat="47.48796" lon="6.77239">
        <ele>314.9</ele>
        <time>2014-11-23T10:58:25.000Z</time>
      </trkpt>
      <trkpt lat="47.48801" lon="6.7724">
        <ele>318.8</ele>
        <time>2014-11-23T10:58:26.000Z</time>
      </trkpt>
      <trkpt lat="47.48806" lon="6.77244">
        <ele>318.3</ele>
        <time>2014-11-23T10:58:27.000Z</time>
      </trkpt>
      <trkpt lat="47.4881" lon="6.77248">
        <ele>318.2</ele>
        <time>2014-11-23T10:58:28.000Z</time>
      </trkpt>
      <trkpt lat="47.48815" lon="6.77253">
        <ele>318.1</ele>
        <time>2014-11-23T10:58:29.000Z</time>
      </trkpt>
      <trkpt lat="47.48849" lon="6.7728">
        <ele>316.1</ele>
        <time>2014-11-23T10:58:37.000Z</time>
      </trkpt>
      <trkpt lat="47.48857" lon="6.77282">
        <ele>315.2</ele>
        <time>2014-11-23T10:58:38.000Z</time>
      </trkpt>
      <trkpt lat="47.48862" lon="6.77286">
        <ele>315.2</ele>
        <time>2014-11-23T10:58:39.000Z</time>
      </trkpt>
      <trkpt lat="47.48867" lon="6.77288">
        <ele>315.3</ele>
        <time>2014-11-23T10:58:40.000Z</time>
      </trkpt>
      <trkpt lat="47.48872" lon="6.7729">
        <ele>315.5</ele>
        <time>2014-11-23T10:58:41.000Z</time>
      </trkpt>
      <trkpt lat="47.48877" lon="6.77292">
        <ele>315.3</ele>
        <time>2014-11-23T10:58:42.000Z</time>
      </trkpt>
      <trkpt lat="47.48882" lon="6.77294">
        <ele>315.3</ele>
        <time>2014-11-23T10:58:43.000Z</time>
      </trkpt>
      <trkpt lat="47.48887" lon="6.77295">
        <ele>315.4</ele>
        <time>2014-11-23T10:58:44.000Z</time>
      </trkpt>
      <trkpt lat="47.48892" lon="6.77298">
        <ele>315.8</ele>
        <time>2014-11-23T10:58:45.000Z</time>
      </trkpt>
      <trkpt lat="47.48897" lon="6.77299">
        <ele>315.2</ele>
        <time>2014-11-23T10:58:46.000Z</time>
      </trkpt>
      <trkpt lat="47.48901" lon="6.77301">
        <ele>314.9</ele>
        <time>2014-11-23T10:58:47.000Z</time>
      </trkpt>
      <trkpt lat="47.48906" lon="6.77304">
        <ele>316.8</ele>
        <time>2014-11-23T10:58:48.000Z</time>
      </trkpt>
      <trkpt lat="47.48911" lon="6.77307">
        <ele>317.7</ele>
        <time>2014-11-23T10:58:49.000Z</time>
      </trkpt>
      <trkpt lat="47.48915" lon="6.77308">
        <ele>317.1</ele>
        <time>2014-11-23T10:58:50.000Z</time>
      </trkpt>
      <trkpt lat="47.48919" lon="6.77311">
        <ele>315.5</ele>
        <time>2014-11-23T10:58:51.000Z</time>
      </trkpt>
      <trkpt lat="47.48925" lon="6.77312">
        <ele>315.6</ele>
        <time>2014-11-23T10:58:52.000Z</time>
      </trkpt>
      <trkpt lat="47.48929" lon="6.77315">
        <ele>314.8</ele>
        <time>2014-11-23T10:58:53.000Z</time>
      </trkpt>
      <trkpt lat="47.48934" lon="6.77318">
        <ele>315.5</ele>
        <time>2014-11-23T10:58:54.000Z</time>
      </trkpt>
      <trkpt lat="47.48938" lon="6.77319">
        <ele>315.4</ele>
        <time>2014-11-23T10:58:55.000Z</time>
      </trkpt>
      <trkpt lat="47.48944" lon="6.7732">
        <ele>314.7</ele>
        <time>2014-11-23T10:58:56.000Z</time>
      </trkpt>
      <trkpt lat="47.48948" lon="6.77321">
        <ele>314.4</ele>
        <time>2014-11-23T10:58:57.000Z</time>
      </trkpt>
      <trkpt lat="47.48954" lon="6.77322">
        <ele>314.7</ele>
        <time>2014-11-23T10:58:58.000Z</time>
      </trkpt>
      <trkpt lat="47.48958" lon="6.77324">
        <ele>314.7</ele>
        <time>2014-11-23T10:58:59.000Z</time>
      </trkpt>
      <trkpt lat="47.48963" lon="6.77325">
        <ele>314.6</ele>
        <time>2014-11-23T10:59:00.000Z</time>
      </trkpt>
      <trkpt lat="47.48969" lon="6.77326">
        <ele>314.2</ele>
        <time>2014-11-23T10:59:01.000Z</time>
      </trkpt>
      <trkpt lat="47.48974" lon="6.77327">
        <ele>313.9</ele>
        <time>2014-11-23T10:59:02.000Z</time>
      </trkpt>
      <trkpt lat="47.48979" lon="6.77327">
        <ele>313.1</ele>
        <time>2014-11-23T10:59:03.000Z</time>
      </trkpt>
      <trkpt lat="47.48984" lon="6.77327">
        <ele>313.1</ele>
        <time>2014-11-23T10:59:04.000Z</time>
      </trkpt>
      <trkpt lat="47.4899" lon="6.77327">
        <ele>313.3</ele>
        <time>2014-11-23T10:59:05.000Z</time>
      </trkpt>
      <trkpt lat="47.48995" lon="6.77327">
        <ele>313.2</ele>
        <time>2014-11-23T10:59:06.000Z</time>
      </trkpt>
      <trkpt lat="47.49001" lon="6.77327">
        <ele>312</ele>
        <time>2014-11-23T10:59:07.000Z</time>
      </trkpt>
      <trkpt lat="47.49007" lon="6.77327">
        <ele>312.3</ele>
        <time>2014-11-23T10:59:08.000Z</time>
      </trkpt>
      <trkpt lat="47.49012" lon="6.77328">
        <ele>312.2</ele>
        <time>2014-11-23T10:59:09.000Z</time>
      </trkpt>
      <trkpt lat="47.49016" lon="6.77327">
        <ele>312.4</ele>
        <time>2014-11-23T10:59:10.000Z</time>
      </trkpt>
      <trkpt lat="47.49021" lon="6.77327">
        <ele>312.5</ele>
        <time>2014-11-23T10:59:11.000Z</time>
      </trkpt>
      <trkpt lat="47.49025" lon="6.77327">
        <ele>312.4</ele>
        <time>2014-11-23T10:59:12.000Z</time>
      </trkpt>
      <trkpt lat="47.49031" lon="6.77328">
        <ele>311.7</ele>
        <time>2014-11-23T10:59:13.000Z</time>
      </trkpt>
      <trkpt lat="47.49036" lon="6.77328">
        <ele>311.8</ele>
        <time>2014-11-23T10:59:14.000Z</time>
      </trkpt>
      <trkpt lat="47.49042" lon="6.77328">
        <ele>312.5</ele>
        <time>2014-11-23T10:59:15.000Z</time>
      </trkpt>
      <trkpt lat="47.49046" lon="6.77328">
        <ele>311.9</ele>
        <time>2014-11-23T10:59:16.000Z</time>
      </trkpt>
      <trkpt lat="47.49051" lon="6.77328">
        <ele>312</ele>
        <time>2014-11-23T10:59:17.000Z</time>
      </trkpt>
      <trkpt lat="47.49056" lon="6.77329">
        <ele>312.6</ele>
        <time>2014-11-23T10:59:18.000Z</time>
      </trkpt>
      <trkpt lat="47.49062" lon="6.77329">
        <ele>312.6</ele>
        <time>2014-11-23T10:59:19.000Z</time>
      </trkpt>
      <trkpt lat="47.49066" lon="6.77331">
        <ele>313.8</ele>
        <time>2014-11-23T10:59:20.000Z</time>
      </trkpt>
      <trkpt lat="47.49072" lon="6.77332">
        <ele>314.4</ele>
        <time>2014-11-23T10:59:21.000Z</time>
      </trkpt>
      <trkpt lat="47.49077" lon="6.77332">
        <ele>314.6</ele>
        <time>2014-11-23T10:59:22.000Z</time>
      </trkpt>
      <trkpt lat="47.49082" lon="6.77333">
        <ele>313.8</ele>
        <time>2014-11-23T10:59:23.000Z</time>
      </trkpt>
      <trkpt lat="47.49087" lon="6.77333">
        <ele>313.7</ele>
        <time>2014-11-23T10:59:24.000Z</time>
      </trkpt>
      <trkpt lat="47.49092" lon="6.77334">
        <ele>313.9</ele>
        <time>2014-11-23T10:59:25.000Z</time>
      </trkpt>
      <trkpt lat="47.49097" lon="6.77333">
        <ele>313.9</ele>
        <time>2014-11-23T10:59:26.000Z</time>
      </trkpt>
      <trkpt lat="47.49102" lon="6.77333">
        <ele>314.1</ele>
        <time>2014-11-23T10:59:27.000Z</time>
      </trkpt>
      <trkpt lat="47.49106" lon="6.77334">
        <ele>313.2</ele>
        <time>2014-11-23T10:59:28.000Z</time>
      </trkpt>
      <trkpt lat="47.4911" lon="6.77334">
        <ele>313.5</ele>
        <time>2014-11-23T10:59:29.000Z</time>
      </trkpt>
      <trkpt lat="47.49135" lon="6.77337">
        <ele>311.9</ele>
        <time>2014-11-23T10:59:37.000Z</time>
      </trkpt>
      <trkpt lat="47.49138" lon="6.77337">
        <ele>312</ele>
        <time>2014-11-23T10:59:38.000Z</time>
      </trkpt>
      <trkpt lat="47.49141" lon="6.77337">
        <ele>311.5</ele>
        <time>2014-11-23T10:59:39.000Z</time>
      </trkpt>
      <trkpt lat="47.49143" lon="6.77337">
        <ele>312.1</ele>
        <time>2014-11-23T10:59:40.000Z</time>
      </trkpt>
      <trkpt lat="47.49146" lon="6.77338">
        <ele>310.6</ele>
        <time>2014-11-23T10:59:41.000Z</time>
      </trkpt>
      <trkpt lat="47.4915" lon="6.77339">
        <ele>311.1</ele>
        <time>2014-11-23T10:59:43.000Z</time>
      </trkpt>
      <trkpt lat="47.49152" lon="6.77339">
        <ele>311.1</ele>
        <time>2014-11-23T10:59:44.000Z</time>
      </trkpt>
      <trkpt lat="47.49155" lon="6.7734">
        <ele>311.4</ele>
        <time>2014-11-23T10:59:45.000Z</time>
      </trkpt>
      <trkpt lat="47.49157" lon="6.7734">
        <ele>311.2</ele>
        <time>2014-11-23T10:59:46.000Z</time>
      </trkpt>
      <trkpt lat="47.49161" lon="6.7734">
        <ele>310.9</ele>
        <time>2014-11-23T10:59:48.000Z</time>
      </trkpt>
      <trkpt lat="47.49163" lon="6.77341">
        <ele>310.6</ele>
        <time>2014-11-23T10:59:49.000Z</time>
      </trkpt>
      <trkpt lat="47.49165" lon="6.77341">
        <ele>311.1</ele>
        <time>2014-11-23T10:59:50.000Z</time>
      </trkpt>
      <trkpt lat="47.49168" lon="6.77341">
        <ele>311</ele>
        <time>2014-11-23T10:59:51.000Z</time>
      </trkpt>
      <trkpt lat="47.49172" lon="6.7734">
        <ele>311.1</ele>
        <time>2014-11-23T10:59:53.000Z</time>
      </trkpt>
      <trkpt lat="47.49174" lon="6.77339">
        <ele>311.5</ele>
        <time>2014-11-23T10:59:54.000Z</time>
      </trkpt>
      <trkpt lat="47.49177" lon="6.77339">
        <ele>312.1</ele>
        <time>2014-11-23T10:59:56.000Z</time>
      </trkpt>
      <trkpt lat="47.49178" lon="6.77339">
        <ele>313</ele>
        <time>2014-11-23T10:59:57.000Z</time>
      </trkpt>
      <trkpt lat="47.49181" lon="6.77336">
        <ele>303.9</ele>
        <time>2014-11-23T11:05:29.000Z</time>
      </trkpt>
      <trkpt lat="47.49212" lon="6.77338">
        <ele>306.6</ele>
        <time>2014-11-23T11:05:37.000Z</time>
      </trkpt>
      <trkpt lat="47.4922" lon="6.7734">
        <ele>308.5</ele>
        <time>2014-11-23T11:05:38.000Z</time>
      </trkpt>
      <trkpt lat="47.49224" lon="6.7734">
        <ele>308.8</ele>
        <time>2014-11-23T11:05:39.000Z</time>
      </trkpt>
      <trkpt lat="47.4923" lon="6.77341">
        <ele>308.5</ele>
        <time>2014-11-23T11:05:40.000Z</time>
      </trkpt>
      <trkpt lat="47.49236" lon="6.77341">
        <ele>307.9</ele>
        <time>2014-11-23T11:05:41.000Z</time>
      </trkpt>
      <trkpt lat="47.49241" lon="6.77341">
        <ele>308.2</ele>
        <time>2014-11-23T11:05:42.000Z</time>
      </trkpt>
      <trkpt lat="47.49246" lon="6.7734">
        <ele>308.7</ele>
        <time>2014-11-23T11:05:43.000Z</time>
      </trkpt>
      <trkpt lat="47.49251" lon="6.77337">
        <ele>308.7</ele>
        <time>2014-11-23T11:05:44.000Z</time>
      </trkpt>
      <trkpt lat="47.49255" lon="6.77335">
        <ele>308.5</ele>
        <time>2014-11-23T11:05:45.000Z</time>
      </trkpt>
      <trkpt lat="47.4926" lon="6.77333">
        <ele>308.4</ele>
        <time>2014-11-23T11:05:46.000Z</time>
      </trkpt>
      <trkpt lat="47.49264" lon="6.77332">
        <ele>307.3</ele>
        <time>2014-11-23T11:05:47.000Z</time>
      </trkpt>
      <trkpt lat="47.49269" lon="6.77331">
        <ele>307.1</ele>
        <time>2014-11-23T11:05:48.000Z</time>
      </trkpt>
      <trkpt lat="47.49275" lon="6.77331">
        <ele>306.8</ele>
        <time>2014-11-23T11:05:49.000Z</time>
      </trkpt>
      <trkpt lat="47.4928" lon="6.77333">
        <ele>306.2</ele>
        <time>2014-11-23T11:05:50.000Z</time>
      </trkpt>
      <trkpt lat="47.49285" lon="6.77333">
        <ele>306.3</ele>
        <time>2014-11-23T11:05:51.000Z</time>
      </trkpt>
      <trkpt lat="47.4929" lon="6.77332">
        <ele>306.1</ele>
        <time>2014-11-23T11:05:52.000Z</time>
      </trkpt>
      <trkpt lat="47.49296" lon="6.77333">
        <ele>306.5</ele>
        <time>2014-11-23T11:05:53.000Z</time>
      </trkpt>
      <trkpt lat="47.493" lon="6.77333">
        <ele>306.7</ele>
        <time>2014-11-23T11:05:54.000Z</time>
      </trkpt>
      <trkpt lat="47.49305" lon="6.77332">
        <ele>306.7</ele>
        <time>2014-11-23T11:05:55.000Z</time>
      </trkpt>
      <trkpt lat="47.4931" lon="6.77332">
        <ele>306.7</ele>
        <time>2014-11-23T11:05:56.000Z</time>
      </trkpt>
      <trkpt lat="47.49314" lon="6.77331">
        <ele>306.6</ele>
        <time>2014-11-23T11:05:57.000Z</time>
      </trkpt>
      <trkpt lat="47.49318" lon="6.77333">
        <ele>307.2</ele>
        <time>2014-11-23T11:05:58.000Z</time>
      </trkpt>
      <trkpt lat="47.49323" lon="6.77334">
        <ele>307.9</ele>
        <time>2014-11-23T11:05:59.000Z</time>
      </trkpt>
      <trkpt lat="47.49326" lon="6.77337">
        <ele>308.7</ele>
        <time>2014-11-23T11:06:00.000Z</time>
      </trkpt>
      <trkpt lat="47.4933" lon="6.7734">
        <ele>310</ele>
        <time>2014-11-23T11:06:01.000Z</time>
      </trkpt>
      <trkpt lat="47.49334" lon="6.77343">
        <ele>310.5</ele>
        <time>2014-11-23T11:06:02.000Z</time>
      </trkpt>
      <trkpt lat="47.49338" lon="6.77347">
        <ele>309.9</ele>
        <time>2014-11-23T11:06:03.000Z</time>
      </trkpt>
      <trkpt lat="47.49342" lon="6.77349">
        <ele>309.8</ele>
        <time>2014-11-23T11:06:04.000Z</time>
      </trkpt>
      <trkpt lat="47.49347" lon="6.7735">
        <ele>310.1</ele>
        <time>2014-11-23T11:06:05.000Z</time>
      </trkpt>
      <trkpt lat="47.49352" lon="6.77352">
        <ele>310.4</ele>
        <time>2014-11-23T11:06:06.000Z</time>
      </trkpt>
      <trkpt lat="47.49356" lon="6.77354">
        <ele>310.2</ele>
        <time>2014-11-23T11:06:07.000Z</time>
      </trkpt>
      <trkpt lat="47.49362" lon="6.77355">
        <ele>310.8</ele>
        <time>2014-11-23T11:06:08.000Z</time>
      </trkpt>
      <trkpt lat="47.49368" lon="6.77356">
        <ele>311.4</ele>
        <time>2014-11-23T11:06:09.000Z</time>
      </trkpt>
      <trkpt lat="47.49373" lon="6.77356">
        <ele>310.9</ele>
        <time>2014-11-23T11:06:10.000Z</time>
      </trkpt>
      <trkpt lat="47.49379" lon="6.77358">
        <ele>311.3</ele>
        <time>2014-11-23T11:06:11.000Z</time>
      </trkpt>
      <trkpt lat="47.49385" lon="6.77358">
        <ele>311.4</ele>
        <time>2014-11-23T11:06:12.000Z</time>
      </trkpt>
      <trkpt lat="47.49391" lon="6.77358">
        <ele>311.6</ele>
        <time>2014-11-23T11:06:13.000Z</time>
      </trkpt>
      <trkpt lat="47.49397" lon="6.77359">
        <ele>311.7</ele>
        <time>2014-11-23T11:06:14.000Z</time>
      </trkpt>
      <trkpt lat="47.49403" lon="6.7736">
        <ele>312.5</ele>
        <time>2014-11-23T11:06:15.000Z</time>
      </trkpt>
      <trkpt lat="47.49409" lon="6.77361">
        <ele>312.4</ele>
        <time>2014-11-23T11:06:16.000Z</time>
      </trkpt>
      <trkpt lat="47.49415" lon="6.77362">
        <ele>312.9</ele>
        <time>2014-11-23T11:06:17.000Z</time>
      </trkpt>
      <trkpt lat="47.49421" lon="6.77362">
        <ele>313.1</ele>
        <time>2014-11-23T11:06:18.000Z</time>
      </trkpt>
      <trkpt lat="47.49427" lon="6.77363">
        <ele>313.6</ele>
        <time>2014-11-23T11:06:19.000Z</time>
      </trkpt>
      <trkpt lat="47.49434" lon="6.77363">
        <ele>313.3</ele>
        <time>2014-11-23T11:06:20.000Z</time>
      </trkpt>
      <trkpt lat="47.4944" lon="6.77364">
        <ele>314.8</ele>
        <time>2014-11-23T11:06:21.000Z</time>
      </trkpt>
      <trkpt lat="47.49445" lon="6.77365">
        <ele>314.6</ele>
        <time>2014-11-23T11:06:22.000Z</time>
      </trkpt>
      <trkpt lat="47.49451" lon="6.77366">
        <ele>315.5</ele>
        <time>2014-11-23T11:06:23.000Z</time>
      </trkpt>
      <trkpt lat="47.49458" lon="6.77366">
        <ele>315.7</ele>
        <time>2014-11-23T11:06:24.000Z</time>
      </trkpt>
      <trkpt lat="47.49464" lon="6.77367">
        <ele>315.8</ele>
        <time>2014-11-23T11:06:25.000Z</time>
      </trkpt>
      <trkpt lat="47.49471" lon="6.77367">
        <ele>315.1</ele>
        <time>2014-11-23T11:06:26.000Z</time>
      </trkpt>
      <trkpt lat="47.49477" lon="6.77367">
        <ele>315.2</ele>
        <time>2014-11-23T11:06:27.000Z</time>
      </trkpt>
      <trkpt lat="47.49484" lon="6.77367">
        <ele>314.3</ele>
        <time>2014-11-23T11:06:28.000Z</time>
      </trkpt>
      <trkpt lat="47.49536" lon="6.77371">
        <ele>315.5</ele>
        <time>2014-11-23T11:06:37.000Z</time>
      </trkpt>
      <trkpt lat="47.49542" lon="6.77372">
        <ele>314.8</ele>
        <time>2014-11-23T11:06:38.000Z</time>
      </trkpt>
      <trkpt lat="47.49549" lon="6.77371">
        <ele>314.5</ele>
        <time>2014-11-23T11:06:39.000Z</time>
      </trkpt>
      <trkpt lat="47.49554" lon="6.77369">
        <ele>314.4</ele>
        <time>2014-11-23T11:06:40.001Z</time>
      </trkpt>
      <trkpt lat="47.4956" lon="6.77369">
        <ele>313.4</ele>
        <time>2014-11-23T11:06:41.001Z</time>
      </trkpt>
      <trkpt lat="47.49566" lon="6.77369">
        <ele>312.7</ele>
        <time>2014-11-23T11:06:42.000Z</time>
      </trkpt>
      <trkpt lat="47.49572" lon="6.7737">
        <ele>312.8</ele>
        <time>2014-11-23T11:06:43.000Z</time>
      </trkpt>
      <trkpt lat="47.49578" lon="6.77368">
        <ele>312.1</ele>
        <time>2014-11-23T11:06:44.000Z</time>
      </trkpt>
      <trkpt lat="47.49583" lon="6.77368">
        <ele>312.8</ele>
        <time>2014-11-23T11:06:45.000Z</time>
      </trkpt>
      <trkpt lat="47.49589" lon="6.77368">
        <ele>312.7</ele>
        <time>2014-11-23T11:06:46.000Z</time>
      </trkpt>
      <trkpt lat="47.49595" lon="6.77368">
        <ele>313.9</ele>
        <time>2014-11-23T11:06:47.000Z</time>
      </trkpt>
      <trkpt lat="47.49602" lon="6.77368">
        <ele>313.3</ele>
        <time>2014-11-23T11:06:48.000Z</time>
      </trkpt>
      <trkpt lat="47.49608" lon="6.77367">
        <ele>313.6</ele>
        <time>2014-11-23T11:06:49.000Z</time>
      </trkpt>
      <trkpt lat="47.49613" lon="6.77366">
        <ele>313.6</ele>
        <time>2014-11-23T11:06:50.000Z</time>
      </trkpt>
      <trkpt lat="47.4962" lon="6.77365">
        <ele>314.3</ele>
        <time>2014-11-23T11:06:51.000Z</time>
      </trkpt>
      <trkpt lat="47.49625" lon="6.77364">
        <ele>315.1</ele>
        <time>2014-11-23T11:06:52.000Z</time>
      </trkpt>
      <trkpt lat="47.49631" lon="6.77363">
        <ele>314.6</ele>
        <time>2014-11-23T11:06:53.000Z</time>
      </trkpt>
      <trkpt lat="47.49637" lon="6.77362">
        <ele>314.8</ele>
        <time>2014-11-23T11:06:54.000Z</time>
      </trkpt>
      <trkpt lat="47.49644" lon="6.7736">
        <ele>315.2</ele>
        <time>2014-11-23T11:06:55.000Z</time>
      </trkpt>
      <trkpt lat="47.49649" lon="6.77358">
        <ele>315.2</ele>
        <time>2014-11-23T11:06:56.000Z</time>
      </trkpt>
      <trkpt lat="47.49655" lon="6.77357">
        <ele>316</ele>
        <time>2014-11-23T11:06:57.000Z</time>
      </trkpt>
      <trkpt lat="47.49661" lon="6.77356">
        <ele>317</ele>
        <time>2014-11-23T11:06:58.000Z</time>
      </trkpt>
      <trkpt lat="47.49668" lon="6.77355">
        <ele>316.6</ele>
        <time>2014-11-23T11:06:59.000Z</time>
      </trkpt>
      <trkpt lat="47.49674" lon="6.77353">
        <ele>316.7</ele>
        <time>2014-11-23T11:07:00.000Z</time>
      </trkpt>
      <trkpt lat="47.49681" lon="6.77351">
        <ele>316.8</ele>
        <time>2014-11-23T11:07:01.000Z</time>
      </trkpt>
      <trkpt lat="47.49687" lon="6.7735">
        <ele>316.6</ele>
        <time>2014-11-23T11:07:02.000Z</time>
      </trkpt>
      <trkpt lat="47.49693" lon="6.77348">
        <ele>316.4</ele>
        <time>2014-11-23T11:07:03.000Z</time>
      </trkpt>
      <trkpt lat="47.497" lon="6.77346">
        <ele>316.1</ele>
        <time>2014-11-23T11:07:04.000Z</time>
      </trkpt>
      <trkpt lat="47.49706" lon="6.77345">
        <ele>315.6</ele>
        <time>2014-11-23T11:07:05.000Z</time>
      </trkpt>
      <trkpt lat="47.49712" lon="6.77344">
        <ele>316.1</ele>
        <time>2014-11-23T11:07:06.000Z</time>
      </trkpt>
      <trkpt lat="47.49718" lon="6.77342">
        <ele>316.6</ele>
        <time>2014-11-23T11:07:07.000Z</time>
      </trkpt>
      <trkpt lat="47.49724" lon="6.77341">
        <ele>316.7</ele>
        <time>2014-11-23T11:07:08.000Z</time>
      </trkpt>
      <trkpt lat="47.4973" lon="6.77337">
        <ele>316.5</ele>
        <time>2014-11-23T11:07:09.000Z</time>
      </trkpt>
      <trkpt lat="47.49736" lon="6.77333">
        <ele>316.2</ele>
        <time>2014-11-23T11:07:10.000Z</time>
      </trkpt>
      <trkpt lat="47.49741" lon="6.7733">
        <ele>316.4</ele>
        <time>2014-11-23T11:07:11.000Z</time>
      </trkpt>
      <trkpt lat="47.49746" lon="6.77326">
        <ele>318</ele>
        <time>2014-11-23T11:07:12.000Z</time>
      </trkpt>
      <trkpt lat="47.49752" lon="6.77324">
        <ele>320.5</ele>
        <time>2014-11-23T11:07:13.000Z</time>
      </trkpt>
      <trkpt lat="47.49757" lon="6.77321">
        <ele>320.2</ele>
        <time>2014-11-23T11:07:14.000Z</time>
      </trkpt>
      <trkpt lat="47.49763" lon="6.7732">
        <ele>320.1</ele>
        <time>2014-11-23T11:07:15.000Z</time>
      </trkpt>
      <trkpt lat="47.49769" lon="6.77319">
        <ele>320</ele>
        <time>2014-11-23T11:07:16.000Z</time>
      </trkpt>
      <trkpt lat="47.49774" lon="6.7732">
        <ele>321.1</ele>
        <time>2014-11-23T11:07:17.000Z</time>
      </trkpt>
      <trkpt lat="47.49781" lon="6.7732">
        <ele>319.9</ele>
        <time>2014-11-23T11:07:18.000Z</time>
      </trkpt>
      <trkpt lat="47.49786" lon="6.77319">
        <ele>319.6</ele>
        <time>2014-11-23T11:07:19.000Z</time>
      </trkpt>
      <trkpt lat="47.49792" lon="6.77318">
        <ele>319.7</ele>
        <time>2014-11-23T11:07:20.000Z</time>
      </trkpt>
      <trkpt lat="47.49798" lon="6.77317">
        <ele>319.8</ele>
        <time>2014-11-23T11:07:21.000Z</time>
      </trkpt>
      <trkpt lat="47.49803" lon="6.77318">
        <ele>319.7</ele>
        <time>2014-11-23T11:07:22.000Z</time>
      </trkpt>
      <trkpt lat="47.49808" lon="6.77318">
        <ele>319.8</ele>
        <time>2014-11-23T11:07:23.000Z</time>
      </trkpt>
      <trkpt lat="47.49814" lon="6.77316">
        <ele>317.7</ele>
        <time>2014-11-23T11:07:24.000Z</time>
      </trkpt>
      <trkpt lat="47.49819" lon="6.77315">
        <ele>317.3</ele>
        <time>2014-11-23T11:07:25.000Z</time>
      </trkpt>
      <trkpt lat="47.49823" lon="6.77315">
        <ele>317.3</ele>
        <time>2014-11-23T11:07:26.000Z</time>
      </trkpt>
      <trkpt lat="47.4983" lon="6.77314">
        <ele>317.2</ele>
        <time>2014-11-23T11:07:27.000Z</time>
      </trkpt>
      <trkpt lat="47.49835" lon="6.77314">
        <ele>316.8</ele>
        <time>2014-11-23T11:07:28.000Z</time>
      </trkpt>
      <trkpt lat="47.49841" lon="6.77313">
        <ele>316.8</ele>
        <time>2014-11-23T11:07:29.000Z</time>
      </trkpt>
      <trkpt lat="47.49881" lon="6.77307">
        <ele>319.1</ele>
        <time>2014-11-23T11:07:37.000Z</time>
      </trkpt>
      <trkpt lat="47.4989" lon="6.77302">
        <ele>318.5</ele>
        <time>2014-11-23T11:07:38.000Z</time>
      </trkpt>
      <trkpt lat="47.49896" lon="6.77301">
        <ele>319.7</ele>
        <time>2014-11-23T11:07:39.000Z</time>
      </trkpt>
      <trkpt lat="47.49903" lon="6.77299">
        <ele>320.6</ele>
        <time>2014-11-23T11:07:40.000Z</time>
      </trkpt>
      <trkpt lat="47.4991" lon="6.77295">
        <ele>319.6</ele>
        <time>2014-11-23T11:07:41.000Z</time>
      </trkpt>
      <trkpt lat="47.49915" lon="6.77292">
        <ele>318.7</ele>
        <time>2014-11-23T11:07:42.000Z</time>
      </trkpt>
      <trkpt lat="47.49921" lon="6.77289">
        <ele>318.1</ele>
        <time>2014-11-23T11:07:43.000Z</time>
      </trkpt>
      <trkpt lat="47.49927" lon="6.77287">
        <ele>318.8</ele>
        <time>2014-11-23T11:07:44.000Z</time>
      </trkpt>
      <trkpt lat="47.49933" lon="6.77282">
        <ele>318.9</ele>
        <time>2014-11-23T11:07:45.000Z</time>
      </trkpt>
      <trkpt lat="47.49938" lon="6.77278">
        <ele>318.7</ele>
        <time>2014-11-23T11:07:46.000Z</time>
      </trkpt>
      <trkpt lat="47.49942" lon="6.77276">
        <ele>318.4</ele>
        <time>2014-11-23T11:07:47.000Z</time>
      </trkpt>
      <trkpt lat="47.49947" lon="6.77273">
        <ele>318.2</ele>
        <time>2014-11-23T11:07:48.000Z</time>
      </trkpt>
      <trkpt lat="47.49954" lon="6.7727">
        <ele>318.2</ele>
        <time>2014-11-23T11:07:49.000Z</time>
      </trkpt>
      <trkpt lat="47.49959" lon="6.77266">
        <ele>317.8</ele>
        <time>2014-11-23T11:07:50.000Z</time>
      </trkpt>
      <trkpt lat="47.49965" lon="6.77263">
        <ele>318.1</ele>
        <time>2014-11-23T11:07:51.000Z</time>
      </trkpt>
      <trkpt lat="47.49971" lon="6.7726">
        <ele>318.4</ele>
        <time>2014-11-23T11:07:52.000Z</time>
      </trkpt>
      <trkpt lat="47.49976" lon="6.77257">
        <ele>317.7</ele>
        <time>2014-11-23T11:07:53.000Z</time>
      </trkpt>
      <trkpt lat="47.49981" lon="6.77254">
        <ele>317.5</ele>
        <time>2014-11-23T11:07:54.000Z</time>
      </trkpt>
      <trkpt lat="47.49986" lon="6.77253">
        <ele>317.5</ele>
        <time>2014-11-23T11:07:55.000Z</time>
      </trkpt>
      <trkpt lat="47.49991" lon="6.7725">
        <ele>316.5</ele>
        <time>2014-11-23T11:07:56.000Z</time>
      </trkpt>
      <trkpt lat="47.49995" lon="6.77249">
        <ele>315.8</ele>
        <time>2014-11-23T11:07:57.000Z</time>
      </trkpt>
      <trkpt lat="47.5" lon="6.77245">
        <ele>314.6</ele>
        <time>2014-11-23T11:07:58.000Z</time>
      </trkpt>
      <trkpt lat="47.50004" lon="6.77242">
        <ele>313.3</ele>
        <time>2014-11-23T11:07:59.000Z</time>
      </trkpt>
      <trkpt lat="47.50007" lon="6.77241">
        <ele>313.1</ele>
        <time>2014-11-23T11:08:00.000Z</time>
      </trkpt>
      <trkpt lat="47.5001" lon="6.7724">
        <ele>313.1</ele>
        <time>2014-11-23T11:08:00.999Z</time>
      </trkpt>
      <trkpt lat="47.50014" lon="6.77237">
        <ele>312.5</ele>
        <time>2014-11-23T11:08:06.000Z</time>
      </trkpt>
      <trkpt lat="47.50015" lon="6.77236">
        <ele>311.9</ele>
        <time>2014-11-23T11:08:07.000Z</time>
      </trkpt>
      <trkpt lat="47.50016" lon="6.77235">
        <ele>313.2</ele>
        <time>2014-11-23T11:08:08.000Z</time>
      </trkpt>
      <trkpt lat="47.50019" lon="6.77234">
        <ele>314.5</ele>
        <time>2014-11-23T11:08:09.000Z</time>
      </trkpt>
      <trkpt lat="47.50022" lon="6.77233">
        <ele>315.6</ele>
        <time>2014-11-23T11:08:10.000Z</time>
      </trkpt>
      <trkpt lat="47.50025" lon="6.77233">
        <ele>314.7</ele>
        <time>2014-11-23T11:08:11.000Z</time>
      </trkpt>
      <trkpt lat="47.50032" lon="6.77229">
        <ele>314.5</ele>
        <time>2014-11-23T11:08:12.000Z</time>
      </trkpt>
      <trkpt lat="47.50037" lon="6.77228">
        <ele>314</ele>
        <time>2014-11-23T11:08:13.000Z</time>
      </trkpt>
      <trkpt lat="47.50041" lon="6.77226">
        <ele>313.4</ele>
        <time>2014-11-23T11:08:14.000Z</time>
      </trkpt>
      <trkpt lat="47.50046" lon="6.77223">
        <ele>312.8</ele>
        <time>2014-11-23T11:08:15.000Z</time>
      </trkpt>
      <trkpt lat="47.5005" lon="6.77222">
        <ele>312.6</ele>
        <time>2014-11-23T11:08:16.000Z</time>
      </trkpt>
      <trkpt lat="47.50054" lon="6.7722">
        <ele>313</ele>
        <time>2014-11-23T11:08:17.000Z</time>
      </trkpt>
      <trkpt lat="47.50057" lon="6.77219">
        <ele>312.5</ele>
        <time>2014-11-23T11:08:18.000Z</time>
      </trkpt>
      <trkpt lat="47.50061" lon="6.77219">
        <ele>312.7</ele>
        <time>2014-11-23T11:08:19.000Z</time>
      </trkpt>
      <trkpt lat="47.50068" lon="6.77219">
        <ele>313.6</ele>
        <time>2014-11-23T11:08:20.000Z</time>
      </trkpt>
      <trkpt lat="47.50073" lon="6.77218">
        <ele>313.3</ele>
        <time>2014-11-23T11:08:21.000Z</time>
      </trkpt>
      <trkpt lat="47.50078" lon="6.77215">
        <ele>313.8</ele>
        <time>2014-11-23T11:08:22.000Z</time>
      </trkpt>
      <trkpt lat="47.50082" lon="6.77213">
        <ele>314.3</ele>
        <time>2014-11-23T11:08:23.000Z</time>
      </trkpt>
      <trkpt lat="47.50087" lon="6.77212">
        <ele>315.2</ele>
        <time>2014-11-23T11:08:24.000Z</time>
      </trkpt>
      <trkpt lat="47.50091" lon="6.7721">
        <ele>315.8</ele>
        <time>2014-11-23T11:08:25.000Z</time>
      </trkpt>
      <trkpt lat="47.50097" lon="6.77208">
        <ele>315.8</ele>
        <time>2014-11-23T11:08:26.000Z</time>
      </trkpt>
      <trkpt lat="47.50102" lon="6.77208">
        <ele>316.4</ele>
        <time>2014-11-23T11:08:27.000Z</time>
      </trkpt>
      <trkpt lat="47.50108" lon="6.77208">
        <ele>316.7</ele>
        <time>2014-11-23T11:08:28.000Z</time>
      </trkpt>
      <trkpt lat="47.50114" lon="6.7721">
        <ele>316.1</ele>
        <time>2014-11-23T11:08:29.000Z</time>
      </trkpt>
      <trkpt lat="47.50131" lon="6.77213">
        <ele>315.3</ele>
        <time>2014-11-23T11:08:32.000Z</time>
      </trkpt>
      <trkpt lat="47.50138" lon="6.77214">
        <ele>314.4</ele>
        <time>2014-11-23T11:08:33.000Z</time>
      </trkpt>
      <trkpt lat="47.50145" lon="6.77217">
        <ele>315.4</ele>
        <time>2014-11-23T11:08:34.000Z</time>
      </trkpt>
      <trkpt lat="47.50151" lon="6.7722">
        <ele>315.7</ele>
        <time>2014-11-23T11:08:35.000Z</time>
      </trkpt>
      <trkpt lat="47.50156" lon="6.77224">
        <ele>316.2</ele>
        <time>2014-11-23T11:08:36.000Z</time>
      </trkpt>
      <trkpt lat="47.50161" lon="6.77228">
        <ele>316.1</ele>
        <time>2014-11-23T11:08:37.000Z</time>
      </trkpt>
      <trkpt lat="47.50166" lon="6.77233">
        <ele>316.5</ele>
        <time>2014-11-23T11:08:38.000Z</time>
      </trkpt>
      <trkpt lat="47.50171" lon="6.77237">
        <ele>316.5</ele>
        <time>2014-11-23T11:08:39.000Z</time>
      </trkpt>
      <trkpt lat="47.50175" lon="6.77242">
        <ele>316.7</ele>
        <time>2014-11-23T11:08:40.000Z</time>
      </trkpt>
      <trkpt lat="47.5018" lon="6.77249">
        <ele>317.7</ele>
        <time>2014-11-23T11:08:41.000Z</time>
      </trkpt>
      <trkpt lat="47.50185" lon="6.77254">
        <ele>317.7</ele>
        <time>2014-11-23T11:08:42.000Z</time>
      </trkpt>
      <trkpt lat="47.5019" lon="6.77259">
        <ele>318.3</ele>
        <time>2014-11-23T11:08:43.000Z</time>
      </trkpt>
      <trkpt lat="47.50195" lon="6.77263">
        <ele>319</ele>
        <time>2014-11-23T11:08:44.000Z</time>
      </trkpt>
      <trkpt lat="47.50201" lon="6.77267">
        <ele>318.6</ele>
        <time>2014-11-23T11:08:45.000Z</time>
      </trkpt>
      <trkpt lat="47.50206" lon="6.77272">
        <ele>318.4</ele>
        <time>2014-11-23T11:08:46.000Z</time>
      </trkpt>
      <trkpt lat="47.50211" lon="6.77275">
        <ele>317.9</ele>
        <time>2014-11-23T11:08:47.000Z</time>
      </trkpt>
      <trkpt lat="47.50216" lon="6.7728">
        <ele>318</ele>
        <time>2014-11-23T11:08:48.000Z</time>
      </trkpt>
      <trkpt lat="47.50221" lon="6.77284">
        <ele>318.3</ele>
        <time>2014-11-23T11:08:49.000Z</time>
      </trkpt>
      <trkpt lat="47.50226" lon="6.77288">
        <ele>318.4</ele>
        <time>2014-11-23T11:08:50.000Z</time>
      </trkpt>
      <trkpt lat="47.50231" lon="6.77293">
        <ele>320</ele>
        <time>2014-11-23T11:08:51.000Z</time>
      </trkpt>
      <trkpt lat="47.50236" lon="6.77297">
        <ele>321.2</ele>
        <time>2014-11-23T11:08:52.000Z</time>
      </trkpt>
      <trkpt lat="47.50241" lon="6.773">
        <ele>320.1</ele>
        <time>2014-11-23T11:08:53.000Z</time>
      </trkpt>
      <trkpt lat="47.50247" lon="6.77304">
        <ele>320.8</ele>
        <time>2014-11-23T11:08:54.000Z</time>
      </trkpt>
      <trkpt lat="47.50252" lon="6.77308">
        <ele>321.2</ele>
        <time>2014-11-23T11:08:55.000Z</time>
      </trkpt>
      <trkpt lat="47.50257" lon="6.77311">
        <ele>321.4</ele>
        <time>2014-11-23T11:08:56.000Z</time>
      </trkpt>
      <trkpt lat="47.50262" lon="6.77314">
        <ele>321.5</ele>
        <time>2014-11-23T11:08:57.000Z</time>
      </trkpt>
      <trkpt lat="47.50266" lon="6.77318">
        <ele>321.8</ele>
        <time>2014-11-23T11:08:58.000Z</time>
      </trkpt>
      <trkpt lat="47.50271" lon="6.77323">
        <ele>322.8</ele>
        <time>2014-11-23T11:08:59.000Z</time>
      </trkpt>
      <trkpt lat="47.50277" lon="6.77327">
        <ele>323.9</ele>
        <time>2014-11-23T11:09:00.000Z</time>
      </trkpt>
      <trkpt lat="47.50282" lon="6.7733">
        <ele>323.8</ele>
        <time>2014-11-23T11:09:01.000Z</time>
      </trkpt>
      <trkpt lat="47.50288" lon="6.77334">
        <ele>323.2</ele>
        <time>2014-11-23T11:09:02.000Z</time>
      </trkpt>
      <trkpt lat="47.50293" lon="6.77336">
        <ele>321.9</ele>
        <time>2014-11-23T11:09:03.000Z</time>
      </trkpt>
      <trkpt lat="47.50298" lon="6.77341">
        <ele>321.6</ele>
        <time>2014-11-23T11:09:04.000Z</time>
      </trkpt>
      <trkpt lat="47.50303" lon="6.77346">
        <ele>323.1</ele>
        <time>2014-11-23T11:09:05.000Z</time>
      </trkpt>
      <trkpt lat="47.50308" lon="6.7735">
        <ele>323.5</ele>
        <time>2014-11-23T11:09:06.000Z</time>
      </trkpt>
      <trkpt lat="47.50314" lon="6.77353">
        <ele>323.1</ele>
        <time>2014-11-23T11:09:07.000Z</time>
      </trkpt>
      <trkpt lat="47.50319" lon="6.77357">
        <ele>322.8</ele>
        <time>2014-11-23T11:09:08.000Z</time>
      </trkpt>
      <trkpt lat="47.50323" lon="6.77361">
        <ele>322.4</ele>
        <time>2014-11-23T11:09:09.000Z</time>
      </trkpt>
      <trkpt lat="47.50329" lon="6.77365">
        <ele>322.2</ele>
        <time>2014-11-23T11:09:10.000Z</time>
      </trkpt>
      <trkpt lat="47.50333" lon="6.7737">
        <ele>322.7</ele>
        <time>2014-11-23T11:09:11.000Z</time>
      </trkpt>
      <trkpt lat="47.50339" lon="6.77374">
        <ele>322.7</ele>
        <time>2014-11-23T11:09:12.000Z</time>
      </trkpt>
      <trkpt lat="47.50344" lon="6.77379">
        <ele>322.6</ele>
        <time>2014-11-23T11:09:13.000Z</time>
      </trkpt>
      <trkpt lat="47.50349" lon="6.77383">
        <ele>323.2</ele>
        <time>2014-11-23T11:09:14.000Z</time>
      </trkpt>
      <trkpt lat="47.50354" lon="6.77388">
        <ele>324.4</ele>
        <time>2014-11-23T11:09:15.000Z</time>
      </trkpt>
      <trkpt lat="47.50359" lon="6.77392">
        <ele>324.8</ele>
        <time>2014-11-23T11:09:16.000Z</time>
      </trkpt>
      <trkpt lat="47.50365" lon="6.77396">
        <ele>324.7</ele>
        <time>2014-11-23T11:09:17.000Z</time>
      </trkpt>
      <trkpt lat="47.5037" lon="6.774">
        <ele>323</ele>
        <time>2014-11-23T11:09:18.000Z</time>
      </trkpt>
      <trkpt lat="47.50376" lon="6.77405">
        <ele>323.9</ele>
        <time>2014-11-23T11:09:19.000Z</time>
      </trkpt>
      <trkpt lat="47.5038" lon="6.77409">
        <ele>323.8</ele>
        <time>2014-11-23T11:09:20.000Z</time>
      </trkpt>
      <trkpt lat="47.50385" lon="6.77414">
        <ele>323.8</ele>
        <time>2014-11-23T11:09:21.000Z</time>
      </trkpt>
      <trkpt lat="47.5039" lon="6.77418">
        <ele>323.6</ele>
        <time>2014-11-23T11:09:22.000Z</time>
      </trkpt>
      <trkpt lat="47.50395" lon="6.77423">
        <ele>324.7</ele>
        <time>2014-11-23T11:09:23.000Z</time>
      </trkpt>
      <trkpt lat="47.504" lon="6.77427">
        <ele>325.2</ele>
        <time>2014-11-23T11:09:24.000Z</time>
      </trkpt>
      <trkpt lat="47.50405" lon="6.77431">
        <ele>325.6</ele>
        <time>2014-11-23T11:09:25.000Z</time>
      </trkpt>
      <trkpt lat="47.5041" lon="6.77435">
        <ele>326.1</ele>
        <time>2014-11-23T11:09:26.000Z</time>
      </trkpt>
      <trkpt lat="47.50415" lon="6.77439">
        <ele>325.3</ele>
        <time>2014-11-23T11:09:27.000Z</time>
      </trkpt>
      <trkpt lat="47.50419" lon="6.77444">
        <ele>327.4</ele>
        <time>2014-11-23T11:09:28.000Z</time>
      </trkpt>
      <trkpt lat="47.50424" lon="6.77448">
        <ele>326.5</ele>
        <time>2014-11-23T11:09:29.000Z</time>
      </trkpt>
      <trkpt lat="47.50461" lon="6.77479">
        <ele>324.1</ele>
        <time>2014-11-23T11:09:37.000Z</time>
      </trkpt>
      <trkpt lat="47.50465" lon="6.77482">
        <ele>324.2</ele>
        <time>2014-11-23T11:09:38.000Z</time>
      </trkpt>
      <trkpt lat="47.5047" lon="6.77487">
        <ele>324</ele>
        <time>2014-11-23T11:09:39.000Z</time>
      </trkpt>
      <trkpt lat="47.50475" lon="6.77492">
        <ele>324</ele>
        <time>2014-11-23T11:09:40.000Z</time>
      </trkpt>
      <trkpt lat="47.50481" lon="6.77498">
        <ele>324</ele>
        <time>2014-11-23T11:09:41.000Z</time>
      </trkpt>
      <trkpt lat="47.50487" lon="6.77503">
        <ele>324</ele>
        <time>2014-11-23T11:09:42.000Z</time>
      </trkpt>
      <trkpt lat="47.50492" lon="6.77507">
        <ele>323.7</ele>
        <time>2014-11-23T11:09:43.000Z</time>
      </trkpt>
      <trkpt lat="47.50498" lon="6.77511">
        <ele>323.9</ele>
        <time>2014-11-23T11:09:44.000Z</time>
      </trkpt>
      <trkpt lat="47.50503" lon="6.77514">
        <ele>324.4</ele>
        <time>2014-11-23T11:09:45.000Z</time>
      </trkpt>
      <trkpt lat="47.50508" lon="6.77517">
        <ele>324.1</ele>
        <time>2014-11-23T11:09:46.000Z</time>
      </trkpt>
      <trkpt lat="47.50513" lon="6.7752">
        <ele>323.2</ele>
        <time>2014-11-23T11:09:47.000Z</time>
      </trkpt>
      <trkpt lat="47.50518" lon="6.77523">
        <ele>323.6</ele>
        <time>2014-11-23T11:09:48.000Z</time>
      </trkpt>
      <trkpt lat="47.50523" lon="6.77528">
        <ele>323.7</ele>
        <time>2014-11-23T11:09:49.000Z</time>
      </trkpt>
      <trkpt lat="47.50527" lon="6.77531">
        <ele>323.7</ele>
        <time>2014-11-23T11:09:50.000Z</time>
      </trkpt>
      <trkpt lat="47.50532" lon="6.77535">
        <ele>323.3</ele>
        <time>2014-11-23T11:09:51.000Z</time>
      </trkpt>
      <trkpt lat="47.50536" lon="6.77536">
        <ele>323.3</ele>
        <time>2014-11-23T11:09:52.000Z</time>
      </trkpt>
      <trkpt lat="47.50539" lon="6.77539">
        <ele>323.2</ele>
        <time>2014-11-23T11:09:53.000Z</time>
      </trkpt>
      <trkpt lat="47.50543" lon="6.77542">
        <ele>322</ele>
        <time>2014-11-23T11:09:54.000Z</time>
      </trkpt>
      <trkpt lat="47.50546" lon="6.77545">
        <ele>321.7</ele>
        <time>2014-11-23T11:09:55.000Z</time>
      </trkpt>
      <trkpt lat="47.50548" lon="6.77551">
        <ele>320.4</ele>
        <time>2014-11-23T11:09:56.000Z</time>
      </trkpt>
      <trkpt lat="47.50551" lon="6.77556">
        <ele>320.2</ele>
        <time>2014-11-23T11:09:57.000Z</time>
      </trkpt>
      <trkpt lat="47.50556" lon="6.7756">
        <ele>320.6</ele>
        <time>2014-11-23T11:09:58.000Z</time>
      </trkpt>
      <trkpt lat="47.5056" lon="6.77563">
        <ele>320.8</ele>
        <time>2014-11-23T11:09:59.000Z</time>
      </trkpt>
      <trkpt lat="47.50566" lon="6.77564">
        <ele>320.8</ele>
        <time>2014-11-23T11:10:00.000Z</time>
      </trkpt>
      <trkpt lat="47.50571" lon="6.77561">
        <ele>321.2</ele>
        <time>2014-11-23T11:10:01.000Z</time>
      </trkpt>
      <trkpt lat="47.50576" lon="6.77557">
        <ele>320.4</ele>
        <time>2014-11-23T11:10:02.000Z</time>
      </trkpt>
      <trkpt lat="47.50579" lon="6.77551">
        <ele>320.5</ele>
        <time>2014-11-23T11:10:03.000Z</time>
      </trkpt>
      <trkpt lat="47.5058" lon="6.77547">
        <ele>319.9</ele>
        <time>2014-11-23T11:10:04.000Z</time>
      </trkpt>
      <trkpt lat="47.50586" lon="6.77547">
        <ele>320.5</ele>
        <time>2014-11-23T11:10:05.000Z</time>
      </trkpt>
      <trkpt lat="47.5059" lon="6.77545">
        <ele>319.3</ele>
        <time>2014-11-23T11:10:06.000Z</time>
      </trkpt>
      <trkpt lat="47.50594" lon="6.77546">
        <ele>318.7</ele>
        <time>2014-11-23T11:10:07.000Z</time>
      </trkpt>
      <trkpt lat="47.50599" lon="6.77545">
        <ele>318.6</ele>
        <time>2014-11-23T11:10:08.000Z</time>
      </trkpt>
      <trkpt lat="47.50603" lon="6.77544">
        <ele>317.9</ele>
        <time>2014-11-23T11:10:09.000Z</time>
      </trkpt>
      <trkpt lat="47.5061" lon="6.77545">
        <ele>314</ele>
        <time>2014-11-23T11:10:10.000Z</time>
      </trkpt>
      <trkpt lat="47.50615" lon="6.77546">
        <ele>313.4</ele>
        <time>2014-11-23T11:10:11.000Z</time>
      </trkpt>
      <trkpt lat="47.5062" lon="6.77551">
        <ele>312.9</ele>
        <time>2014-11-23T11:10:12.000Z</time>
      </trkpt>
      <trkpt lat="47.50624" lon="6.77552">
        <ele>312.5</ele>
        <time>2014-11-23T11:10:13.000Z</time>
      </trkpt>
      <trkpt lat="47.50626" lon="6.77551">
        <ele>313.6</ele>
        <time>2014-11-23T11:10:14.000Z</time>
      </trkpt>
      <trkpt lat="47.5063" lon="6.77549">
        <ele>314.2</ele>
        <time>2014-11-23T11:10:15.000Z</time>
      </trkpt>
      <trkpt lat="47.50636" lon="6.77546">
        <ele>314</ele>
        <time>2014-11-23T11:10:16.000Z</time>
      </trkpt>
      <trkpt lat="47.50642" lon="6.77548">
        <ele>315.5</ele>
        <time>2014-11-23T11:10:17.000Z</time>
      </trkpt>
      <trkpt lat="47.50648" lon="6.77548">
        <ele>316.3</ele>
        <time>2014-11-23T11:10:18.000Z</time>
      </trkpt>
      <trkpt lat="47.50653" lon="6.77546">
        <ele>315.4</ele>
        <time>2014-11-23T11:10:19.000Z</time>
      </trkpt>
      <trkpt lat="47.50659" lon="6.77546">
        <ele>316.2</ele>
        <time>2014-11-23T11:10:20.000Z</time>
      </trkpt>
      <trkpt lat="47.50664" lon="6.77545">
        <ele>316.9</ele>
        <time>2014-11-23T11:10:21.000Z</time>
      </trkpt>
      <trkpt lat="47.50669" lon="6.77545">
        <ele>318.7</ele>
        <time>2014-11-23T11:10:22.000Z</time>
      </trkpt>
      <trkpt lat="47.50674" lon="6.77544">
        <ele>319.1</ele>
        <time>2014-11-23T11:10:23.000Z</time>
      </trkpt>
      <trkpt lat="47.50681" lon="6.77544">
        <ele>318.8</ele>
        <time>2014-11-23T11:10:24.000Z</time>
      </trkpt>
      <trkpt lat="47.50686" lon="6.77543">
        <ele>318.5</ele>
        <time>2014-11-23T11:10:25.000Z</time>
      </trkpt>
      <trkpt lat="47.50691" lon="6.77543">
        <ele>319.2</ele>
        <time>2014-11-23T11:10:26.000Z</time>
      </trkpt>
      <trkpt lat="47.50697" lon="6.77543">
        <ele>319.6</ele>
        <time>2014-11-23T11:10:27.000Z</time>
      </trkpt>
      <trkpt lat="47.50701" lon="6.77544">
        <ele>321</ele>
        <time>2014-11-23T11:10:28.000Z</time>
      </trkpt>
      <trkpt lat="47.50706" lon="6.77545">
        <ele>321.5</ele>
        <time>2014-11-23T11:10:29.000Z</time>
      </trkpt>
      <trkpt lat="47.50739" lon="6.77562">
        <ele>317.1</ele>
        <time>2014-11-23T11:10:37.000Z</time>
      </trkpt>
      <trkpt lat="47.50743" lon="6.77567">
        <ele>317</ele>
        <time>2014-11-23T11:10:38.000Z</time>
      </trkpt>
      <trkpt lat="47.50747" lon="6.77568">
        <ele>317.4</ele>
        <time>2014-11-23T11:10:39.000Z</time>
      </trkpt>
      <trkpt lat="47.50752" lon="6.77571">
        <ele>317.7</ele>
        <time>2014-11-23T11:10:40.000Z</time>
      </trkpt>
      <trkpt lat="47.50756" lon="6.77572">
        <ele>318.3</ele>
        <time>2014-11-23T11:10:41.000Z</time>
      </trkpt>
      <trkpt lat="47.50761" lon="6.77575">
        <ele>318.2</ele>
        <time>2014-11-23T11:10:42.000Z</time>
      </trkpt>
      <trkpt lat="47.50766" lon="6.77578">
        <ele>318.1</ele>
        <time>2014-11-23T11:10:43.000Z</time>
      </trkpt>
      <trkpt lat="47.50771" lon="6.77581">
        <ele>317.9</ele>
        <time>2014-11-23T11:10:44.000Z</time>
      </trkpt>
      <trkpt lat="47.50776" lon="6.77584">
        <ele>317.2</ele>
        <time>2014-11-23T11:10:45.000Z</time>
      </trkpt>
      <trkpt lat="47.50781" lon="6.77588">
        <ele>316.5</ele>
        <time>2014-11-23T11:10:46.000Z</time>
      </trkpt>
      <trkpt lat="47.50785" lon="6.77591">
        <ele>316.6</ele>
        <time>2014-11-23T11:10:47.000Z</time>
      </trkpt>
      <trkpt lat="47.50791" lon="6.77594">
        <ele>316.2</ele>
        <time>2014-11-23T11:10:48.000Z</time>
      </trkpt>
      <trkpt lat="47.50796" lon="6.776">
        <ele>316.4</ele>
        <time>2014-11-23T11:10:49.000Z</time>
      </trkpt>
      <trkpt lat="47.508" lon="6.77606">
        <ele>316.5</ele>
        <time>2014-11-23T11:10:50.000Z</time>
      </trkpt>
      <trkpt lat="47.50806" lon="6.77611">
        <ele>316.3</ele>
        <time>2014-11-23T11:10:51.000Z</time>
      </trkpt>
      <trkpt lat="47.50811" lon="6.77616">
        <ele>315.3</ele>
        <time>2014-11-23T11:10:52.000Z</time>
      </trkpt>
      <trkpt lat="47.5082" lon="6.7762">
        <ele>315.1</ele>
        <time>2014-11-23T11:10:53.000Z</time>
      </trkpt>
      <trkpt lat="47.50825" lon="6.77625">
        <ele>313.8</ele>
        <time>2014-11-23T11:10:54.000Z</time>
      </trkpt>
      <trkpt lat="47.5083" lon="6.77631">
        <ele>314</ele>
        <time>2014-11-23T11:10:55.000Z</time>
      </trkpt>
      <trkpt lat="47.50837" lon="6.77638">
        <ele>313.7</ele>
        <time>2014-11-23T11:10:56.000Z</time>
      </trkpt>
      <trkpt lat="47.50843" lon="6.77643">
        <ele>314</ele>
        <time>2014-11-23T11:10:57.000Z</time>
      </trkpt>
      <trkpt lat="47.50847" lon="6.77649">
        <ele>314.6</ele>
        <time>2014-11-23T11:10:58.000Z</time>
      </trkpt>
      <trkpt lat="47.50851" lon="6.77657">
        <ele>315.2</ele>
        <time>2014-11-23T11:10:59.000Z</time>
      </trkpt>
      <trkpt lat="47.50854" lon="6.77663">
        <ele>314.8</ele>
        <time>2014-11-23T11:11:00.000Z</time>
      </trkpt>
      <trkpt lat="47.50858" lon="6.77668">
        <ele>313.6</ele>
        <time>2014-11-23T11:11:01.000Z</time>
      </trkpt>
      <trkpt lat="47.50862" lon="6.77673">
        <ele>313.7</ele>
        <time>2014-11-23T11:11:02.000Z</time>
      </trkpt>
      <trkpt lat="47.50865" lon="6.77678">
        <ele>313.3</ele>
        <time>2014-11-23T11:11:03.000Z</time>
      </trkpt>
      <trkpt lat="47.50868" lon="6.77682">
        <ele>313.3</ele>
        <time>2014-11-23T11:11:04.000Z</time>
      </trkpt>
      <trkpt lat="47.50872" lon="6.77687">
        <ele>312.8</ele>
        <time>2014-11-23T11:11:05.000Z</time>
      </trkpt>
      <trkpt lat="47.50875" lon="6.77693">
        <ele>312.7</ele>
        <time>2014-11-23T11:11:06.000Z</time>
      </trkpt>
      <trkpt lat="47.50878" lon="6.77696">
        <ele>312.7</ele>
        <time>2014-11-23T11:11:07.000Z</time>
      </trkpt>
      <trkpt lat="47.50882" lon="6.77699">
        <ele>312.4</ele>
        <time>2014-11-23T11:11:08.000Z</time>
      </trkpt>
      <trkpt lat="47.50887" lon="6.777">
        <ele>312.7</ele>
        <time>2014-11-23T11:11:09.000Z</time>
      </trkpt>
      <trkpt lat="47.50891" lon="6.77701">
        <ele>311.8</ele>
        <time>2014-11-23T11:11:10.000Z</time>
      </trkpt>
      <trkpt lat="47.50897" lon="6.777">
        <ele>311.8</ele>
        <time>2014-11-23T11:11:11.000Z</time>
      </trkpt>
      <trkpt lat="47.50902" lon="6.77701">
        <ele>311.6</ele>
        <time>2014-11-23T11:11:12.000Z</time>
      </trkpt>
      <trkpt lat="47.50907" lon="6.777">
        <ele>311.9</ele>
        <time>2014-11-23T11:11:13.000Z</time>
      </trkpt>
      <trkpt lat="47.50912" lon="6.777">
        <ele>311.2</ele>
        <time>2014-11-23T11:11:14.000Z</time>
      </trkpt>
      <trkpt lat="47.50916" lon="6.77701">
        <ele>310.5</ele>
        <time>2014-11-23T11:11:15.000Z</time>
      </trkpt>
      <trkpt lat="47.5092" lon="6.77703">
        <ele>311.3</ele>
        <time>2014-11-23T11:11:16.000Z</time>
      </trkpt>
      <trkpt lat="47.50925" lon="6.77704">
        <ele>310.8</ele>
        <time>2014-11-23T11:11:17.000Z</time>
      </trkpt>
      <trkpt lat="47.50929" lon="6.77704">
        <ele>311.5</ele>
        <time>2014-11-23T11:11:18.000Z</time>
      </trkpt>
      <trkpt lat="47.50932" lon="6.77703">
        <ele>311.1</ele>
        <time>2014-11-23T11:11:19.000Z</time>
      </trkpt>
      <trkpt lat="47.50934" lon="6.77706">
        <ele>310.1</ele>
        <time>2014-11-23T11:11:20.000Z</time>
      </trkpt>
      <trkpt lat="47.50937" lon="6.77708">
        <ele>309.4</ele>
        <time>2014-11-23T11:11:21.000Z</time>
      </trkpt>
      <trkpt lat="47.5094" lon="6.77705">
        <ele>307.7</ele>
        <time>2014-11-23T11:11:27.000Z</time>
      </trkpt>
      <trkpt lat="47.50942" lon="6.77704">
        <ele>307.8</ele>
        <time>2014-11-23T11:11:28.000Z</time>
      </trkpt>
      <trkpt lat="47.50943" lon="6.77702">
        <ele>307</ele>
        <time>2014-11-23T11:11:29.000Z</time>
      </trkpt>
      <trkpt lat="47.5097" lon="6.77704">
        <ele>309.8</ele>
        <time>2014-11-23T11:11:37.000Z</time>
      </trkpt>
      <trkpt lat="47.50978" lon="6.77715">
        <ele>309.8</ele>
        <time>2014-11-23T11:11:38.000Z</time>
      </trkpt>
      <trkpt lat="47.50983" lon="6.77719">
        <ele>308.7</ele>
        <time>2014-11-23T11:11:39.000Z</time>
      </trkpt>
      <trkpt lat="47.50989" lon="6.77724">
        <ele>308.6</ele>
        <time>2014-11-23T11:11:40.000Z</time>
      </trkpt>
      <trkpt lat="47.50993" lon="6.77726">
        <ele>308.4</ele>
        <time>2014-11-23T11:11:41.000Z</time>
      </trkpt>
      <trkpt lat="47.50998" lon="6.77729">
        <ele>308.1</ele>
        <time>2014-11-23T11:11:42.000Z</time>
      </trkpt>
      <trkpt lat="47.51002" lon="6.77732">
        <ele>307.9</ele>
        <time>2014-11-23T11:11:43.000Z</time>
      </trkpt>
      <trkpt lat="47.51006" lon="6.77736">
        <ele>308.5</ele>
        <time>2014-11-23T11:11:44.000Z</time>
      </trkpt>
      <trkpt lat="47.5101" lon="6.77739">
        <ele>308</ele>
        <time>2014-11-23T11:11:45.000Z</time>
      </trkpt>
      <trkpt lat="47.51014" lon="6.77742">
        <ele>308</ele>
        <time>2014-11-23T11:11:46.000Z</time>
      </trkpt>
      <trkpt lat="47.51018" lon="6.77745">
        <ele>308</ele>
        <time>2014-11-23T11:11:47.000Z</time>
      </trkpt>
      <trkpt lat="47.51022" lon="6.77749">
        <ele>307.9</ele>
        <time>2014-11-23T11:11:48.000Z</time>
      </trkpt>
      <trkpt lat="47.51025" lon="6.77751">
        <ele>308</ele>
        <time>2014-11-23T11:11:49.000Z</time>
      </trkpt>
      <trkpt lat="47.51029" lon="6.77754">
        <ele>308.3</ele>
        <time>2014-11-23T11:11:50.000Z</time>
      </trkpt>
      <trkpt lat="47.51032" lon="6.77755">
        <ele>309.9</ele>
        <time>2014-11-23T11:11:51.000Z</time>
      </trkpt>
      <trkpt lat="47.51035" lon="6.77758">
        <ele>310.4</ele>
        <time>2014-11-23T11:11:52.000Z</time>
      </trkpt>
      <trkpt lat="47.51038" lon="6.7776">
        <ele>310.4</ele>
        <time>2014-11-23T11:11:53.000Z</time>
      </trkpt>
      <trkpt lat="47.51041" lon="6.77763">
        <ele>310.4</ele>
        <time>2014-11-23T11:11:54.000Z</time>
      </trkpt>
      <trkpt lat="47.51043" lon="6.77765">
        <ele>310.2</ele>
        <time>2014-11-23T11:11:55.000Z</time>
      </trkpt>
      <trkpt lat="47.51046" lon="6.77767">
        <ele>310</ele>
        <time>2014-11-23T11:11:56.000Z</time>
      </trkpt>
      <trkpt lat="47.51048" lon="6.77769">
        <ele>309.7</ele>
        <time>2014-11-23T11:11:57.000Z</time>
      </trkpt>
      <trkpt lat="47.5105" lon="6.7777">
        <ele>310.4</ele>
        <time>2014-11-23T11:11:58.000Z</time>
      </trkpt>
      <trkpt lat="47.51053" lon="6.77772">
        <ele>309.5</ele>
        <time>2014-11-23T11:11:59.000Z</time>
      </trkpt>
      <trkpt lat="47.51056" lon="6.77774">
        <ele>309.1</ele>
        <time>2014-11-23T11:12:00.000Z</time>
      </trkpt>
      <trkpt lat="47.51059" lon="6.77774">
        <ele>309.5</ele>
        <time>2014-11-23T11:12:01.000Z</time>
      </trkpt>
      <trkpt lat="47.51062" lon="6.77775">
        <ele>308.5</ele>
        <time>2014-11-23T11:12:02.000Z</time>
      </trkpt>
      <trkpt lat="47.51065" lon="6.77776">
        <ele>307.8</ele>
        <time>2014-11-23T11:12:03.000Z</time>
      </trkpt>
      <trkpt lat="47.51069" lon="6.77777">
        <ele>308</ele>
        <time>2014-11-23T11:12:04.000Z</time>
      </trkpt>
      <trkpt lat="47.51072" lon="6.77778">
        <ele>308.7</ele>
        <time>2014-11-23T11:12:05.000Z</time>
      </trkpt>
      <trkpt lat="47.51076" lon="6.77779">
        <ele>310.5</ele>
        <time>2014-11-23T11:12:06.000Z</time>
      </trkpt>
      <trkpt lat="47.5108" lon="6.77779">
        <ele>310.9</ele>
        <time>2014-11-23T11:12:07.000Z</time>
      </trkpt>
      <trkpt lat="47.51085" lon="6.7778">
        <ele>311.2</ele>
        <time>2014-11-23T11:12:08.000Z</time>
      </trkpt>
      <trkpt lat="47.51089" lon="6.7778">
        <ele>310.6</ele>
        <time>2014-11-23T11:12:09.000Z</time>
      </trkpt>
      <trkpt lat="47.51093" lon="6.77781">
        <ele>311.2</ele>
        <time>2014-11-23T11:12:10.000Z</time>
      </trkpt>
      <trkpt lat="47.51097" lon="6.77782">
        <ele>312.2</ele>
        <time>2014-11-23T11:12:11.000Z</time>
      </trkpt>
      <trkpt lat="47.51102" lon="6.77782">
        <ele>313.3</ele>
        <time>2014-11-23T11:12:12.000Z</time>
      </trkpt>
      <trkpt lat="47.51106" lon="6.77783">
        <ele>313.8</ele>
        <time>2014-11-23T11:12:13.000Z</time>
      </trkpt>
      <trkpt lat="47.5111" lon="6.77784">
        <ele>314.6</ele>
        <time>2014-11-23T11:12:14.000Z</time>
      </trkpt>
      <trkpt lat="47.51113" lon="6.77786">
        <ele>315.3</ele>
        <time>2014-11-23T11:12:15.000Z</time>
      </trkpt>
      <trkpt lat="47.51117" lon="6.77787">
        <ele>315.8</ele>
        <time>2014-11-23T11:12:16.000Z</time>
      </trkpt>
      <trkpt lat="47.5112" lon="6.77789">
        <ele>315.6</ele>
        <time>2014-11-23T11:12:17.000Z</time>
      </trkpt>
      <trkpt lat="47.51124" lon="6.7779">
        <ele>316.5</ele>
        <time>2014-11-23T11:12:18.000Z</time>
      </trkpt>
      <trkpt lat="47.51127" lon="6.77791">
        <ele>316.4</ele>
        <time>2014-11-23T11:12:19.000Z</time>
      </trkpt>
      <trkpt lat="47.51131" lon="6.77791">
        <ele>315.6</ele>
        <time>2014-11-23T11:12:20.000Z</time>
      </trkpt>
      <trkpt lat="47.51134" lon="6.77791">
        <ele>315.9</ele>
        <time>2014-11-23T11:12:21.000Z</time>
      </trkpt>
      <trkpt lat="47.51137" lon="6.77791">
        <ele>315.7</ele>
        <time>2014-11-23T11:12:22.000Z</time>
      </trkpt>
      <trkpt lat="47.5114" lon="6.77791">
        <ele>316.6</ele>
        <time>2014-11-23T11:12:23.000Z</time>
      </trkpt>
      <trkpt lat="47.51143" lon="6.77791">
        <ele>317.5</ele>
        <time>2014-11-23T11:12:24.000Z</time>
      </trkpt>
      <trkpt lat="47.51146" lon="6.77791">
        <ele>318.1</ele>
        <time>2014-11-23T11:12:25.000Z</time>
      </trkpt>
      <trkpt lat="47.51149" lon="6.77791">
        <ele>318.3</ele>
        <time>2014-11-23T11:12:26.000Z</time>
      </trkpt>
      <trkpt lat="47.51152" lon="6.77791">
        <ele>318.4</ele>
        <time>2014-11-23T11:12:27.000Z</time>
      </trkpt>
      <trkpt lat="47.51155" lon="6.77792">
        <ele>318.7</ele>
        <time>2014-11-23T11:12:28.000Z</time>
      </trkpt>
      <trkpt lat="47.51158" lon="6.77792">
        <ele>317.2</ele>
        <time>2014-11-23T11:12:29.000Z</time>
      </trkpt>
      <trkpt lat="47.51185" lon="6.77792">
        <ele>321.4</ele>
        <time>2014-11-23T11:12:37.000Z</time>
      </trkpt>
      <trkpt lat="47.51187" lon="6.77792">
        <ele>321.4</ele>
        <time>2014-11-23T11:12:38.000Z</time>
      </trkpt>
      <trkpt lat="47.5119" lon="6.77792">
        <ele>321.8</ele>
        <time>2014-11-23T11:12:39.000Z</time>
      </trkpt>
      <trkpt lat="47.51194" lon="6.7779">
        <ele>320.8</ele>
        <time>2014-11-23T11:12:41.000Z</time>
      </trkpt>
      <trkpt lat="47.51196" lon="6.7779">
        <ele>320.6</ele>
        <time>2014-11-23T11:12:42.000Z</time>
      </trkpt>
      <trkpt lat="47.512" lon="6.7779">
        <ele>322</ele>
        <time>2014-11-23T11:12:44.000Z</time>
      </trkpt>
      <trkpt lat="47.51203" lon="6.7779">
        <ele>323.4</ele>
        <time>2014-11-23T11:12:45.000Z</time>
      </trkpt>
      <trkpt lat="47.51205" lon="6.7779">
        <ele>322.2</ele>
        <time>2014-11-23T11:12:46.000Z</time>
      </trkpt>
      <trkpt lat="47.51208" lon="6.7779">
        <ele>322.7</ele>
        <time>2014-11-23T11:12:47.000Z</time>
      </trkpt>
      <trkpt lat="47.51211" lon="6.7779">
        <ele>322.3</ele>
        <time>2014-11-23T11:12:48.000Z</time>
      </trkpt>
      <trkpt lat="47.51213" lon="6.7779">
        <ele>322.7</ele>
        <time>2014-11-23T11:12:49.000Z</time>
      </trkpt>
      <trkpt lat="47.51216" lon="6.7779">
        <ele>322.6</ele>
        <time>2014-11-23T11:12:50.000Z</time>
      </trkpt>
      <trkpt lat="47.51219" lon="6.7779">
        <ele>322.6</ele>
        <time>2014-11-23T11:12:51.000Z</time>
      </trkpt>
      <trkpt lat="47.51221" lon="6.7779">
        <ele>323.6</ele>
        <time>2014-11-23T11:12:52.000Z</time>
      </trkpt>
      <trkpt lat="47.51224" lon="6.7779">
        <ele>324.3</ele>
        <time>2014-11-23T11:12:53.000Z</time>
      </trkpt>
      <trkpt lat="47.51227" lon="6.7779">
        <ele>325.2</ele>
        <time>2014-11-23T11:12:54.000Z</time>
      </trkpt>
      <trkpt lat="47.51229" lon="6.77791">
        <ele>325.2</ele>
        <time>2014-11-23T11:12:55.000Z</time>
      </trkpt>
      <trkpt lat="47.51232" lon="6.77791">
        <ele>325.2</ele>
        <time>2014-11-23T11:12:56.000Z</time>
      </trkpt>
      <trkpt lat="47.51235" lon="6.77791">
        <ele>325.8</ele>
        <time>2014-11-23T11:12:57.000Z</time>
      </trkpt>
      <trkpt lat="47.51237" lon="6.77791">
        <ele>326</ele>
        <time>2014-11-23T11:12:58.000Z</time>
      </trkpt>
      <trkpt lat="47.5124" lon="6.77792">
        <ele>326.1</ele>
        <time>2014-11-23T11:12:59.000Z</time>
      </trkpt>
      <trkpt lat="47.51243" lon="6.77792">
        <ele>326.3</ele>
        <time>2014-11-23T11:13:00.000Z</time>
      </trkpt>
      <trkpt lat="47.51246" lon="6.77792">
        <ele>326.5</ele>
        <time>2014-11-23T11:13:01.000Z</time>
      </trkpt>
      <trkpt lat="47.51248" lon="6.77791">
        <ele>326.9</ele>
        <time>2014-11-23T11:13:02.000Z</time>
      </trkpt>
      <trkpt lat="47.51251" lon="6.7779">
        <ele>327.9</ele>
        <time>2014-11-23T11:13:03.000Z</time>
      </trkpt>
      <trkpt lat="47.51254" lon="6.77789">
        <ele>327.2</ele>
        <time>2014-11-23T11:13:04.000Z</time>
      </trkpt>
      <trkpt lat="47.51256" lon="6.77788">
        <ele>328.2</ele>
        <time>2014-11-23T11:13:05.000Z</time>
      </trkpt>
      <trkpt lat="47.51259" lon="6.77788">
        <ele>328.4</ele>
        <time>2014-11-23T11:13:06.000Z</time>
      </trkpt>
      <trkpt lat="47.51262" lon="6.77787">
        <ele>328.6</ele>
        <time>2014-11-23T11:13:07.000Z</time>
      </trkpt>
      <trkpt lat="47.51265" lon="6.77787">
        <ele>329.3</ele>
        <time>2014-11-23T11:13:08.000Z</time>
      </trkpt>
      <trkpt lat="47.51268" lon="6.77787">
        <ele>329.9</ele>
        <time>2014-11-23T11:13:09.000Z</time>
      </trkpt>
      <trkpt lat="47.51271" lon="6.77786">
        <ele>329.5</ele>
        <time>2014-11-23T11:13:10.000Z</time>
      </trkpt>
      <trkpt lat="47.51274" lon="6.77786">
        <ele>329.5</ele>
        <time>2014-11-23T11:13:11.000Z</time>
      </trkpt>
      <trkpt lat="47.51277" lon="6.77786">
        <ele>329.4</ele>
        <time>2014-11-23T11:13:12.000Z</time>
      </trkpt>
      <trkpt lat="47.5128" lon="6.77786">
        <ele>330.6</ele>
        <time>2014-11-23T11:13:13.000Z</time>
      </trkpt>
      <trkpt lat="47.51283" lon="6.77786">
        <ele>330.9</ele>
        <time>2014-11-23T11:13:14.000Z</time>
      </trkpt>
      <trkpt lat="47.51286" lon="6.77785">
        <ele>330.7</ele>
        <time>2014-11-23T11:13:15.000Z</time>
      </trkpt>
      <trkpt lat="47.51289" lon="6.77785">
        <ele>330.7</ele>
        <time>2014-11-23T11:13:16.000Z</time>
      </trkpt>
      <trkpt lat="47.51292" lon="6.77784">
        <ele>330.3</ele>
        <time>2014-11-23T11:13:17.000Z</time>
      </trkpt>
      <trkpt lat="47.51295" lon="6.77784">
        <ele>329.6</ele>
        <time>2014-11-23T11:13:18.000Z</time>
      </trkpt>
      <trkpt lat="47.51298" lon="6.77783">
        <ele>330.7</ele>
        <time>2014-11-23T11:13:19.000Z</time>
      </trkpt>
      <trkpt lat="47.51301" lon="6.77783">
        <ele>331.6</ele>
        <time>2014-11-23T11:13:19.998Z</time>
      </trkpt>
      <trkpt lat="47.51304" lon="6.77784">
        <ele>332.2</ele>
        <time>2014-11-23T11:13:21.000Z</time>
      </trkpt>
      <trkpt lat="47.51306" lon="6.77783">
        <ele>332.7</ele>
        <time>2014-11-23T11:13:22.000Z</time>
      </trkpt>
      <trkpt lat="47.51309" lon="6.77783">
        <ele>333.1</ele>
        <time>2014-11-23T11:13:23.000Z</time>
      </trkpt>
      <trkpt lat="47.51311" lon="6.77782">
        <ele>333.6</ele>
        <time>2014-11-23T11:13:24.000Z</time>
      </trkpt>
      <trkpt lat="47.51314" lon="6.77781">
        <ele>333.5</ele>
        <time>2014-11-23T11:13:25.000Z</time>
      </trkpt>
      <trkpt lat="47.51316" lon="6.7778">
        <ele>334.2</ele>
        <time>2014-11-23T11:13:26.000Z</time>
      </trkpt>
      <trkpt lat="47.51319" lon="6.7778">
        <ele>334.6</ele>
        <time>2014-11-23T11:13:27.000Z</time>
      </trkpt>
      <trkpt lat="47.51321" lon="6.77779">
        <ele>335.7</ele>
        <time>2014-11-23T11:13:28.000Z</time>
      </trkpt>
      <trkpt lat="47.51323" lon="6.77779">
        <ele>336.4</ele>
        <time>2014-11-23T11:13:29.000Z</time>
      </trkpt>
      <trkpt lat="47.51339" lon="6.77785">
        <ele>336.7</ele>
        <time>2014-11-23T11:13:37.000Z</time>
      </trkpt>
      <trkpt lat="47.51341" lon="6.77784">
        <ele>335.8</ele>
        <time>2014-11-23T11:13:38.000Z</time>
      </trkpt>
      <trkpt lat="47.51343" lon="6.77782">
        <ele>334.6</ele>
        <time>2014-11-23T11:13:39.000Z</time>
      </trkpt>
      <trkpt lat="47.51345" lon="6.77779">
        <ele>335.1</ele>
        <time>2014-11-23T11:13:40.000Z</time>
      </trkpt>
      <trkpt lat="47.51348" lon="6.77777">
        <ele>335.4</ele>
        <time>2014-11-23T11:13:41.000Z</time>
      </trkpt>
      <trkpt lat="47.5135" lon="6.77775">
        <ele>334.9</ele>
        <time>2014-11-23T11:13:42.000Z</time>
      </trkpt>
      <trkpt lat="47.51352" lon="6.77773">
        <ele>334.6</ele>
        <time>2014-11-23T11:13:43.000Z</time>
      </trkpt>
      <trkpt lat="47.51354" lon="6.77771">
        <ele>334.5</ele>
        <time>2014-11-23T11:13:44.000Z</time>
      </trkpt>
      <trkpt lat="47.51355" lon="6.77769">
        <ele>334.1</ele>
        <time>2014-11-23T11:13:45.000Z</time>
      </trkpt>
      <trkpt lat="47.51358" lon="6.77768">
        <ele>333.8</ele>
        <time>2014-11-23T11:13:46.000Z</time>
      </trkpt>
      <trkpt lat="47.5136" lon="6.77766">
        <ele>333.8</ele>
        <time>2014-11-23T11:13:47.000Z</time>
      </trkpt>
      <trkpt lat="47.51364" lon="6.77765">
        <ele>335.6</ele>
        <time>2014-11-23T11:13:49.000Z</time>
      </trkpt>
      <trkpt lat="47.51366" lon="6.77765">
        <ele>336.8</ele>
        <time>2014-11-23T11:13:50.000Z</time>
      </trkpt>
      <trkpt lat="47.51368" lon="6.77764">
        <ele>337.7</ele>
        <time>2014-11-23T11:13:51.000Z</time>
      </trkpt>
      <trkpt lat="47.51371" lon="6.77763">
        <ele>338.1</ele>
        <time>2014-11-23T11:13:52.000Z</time>
      </trkpt>
      <trkpt lat="47.51373" lon="6.77761">
        <ele>336.2</ele>
        <time>2014-11-23T11:13:53.000Z</time>
      </trkpt>
      <trkpt lat="47.51375" lon="6.7776">
        <ele>336.4</ele>
        <time>2014-11-23T11:13:54.000Z</time>
      </trkpt>
      <trkpt lat="47.51379" lon="6.77757">
        <ele>336.2</ele>
        <time>2014-11-23T11:13:56.000Z</time>
      </trkpt>
      <trkpt lat="47.51381" lon="6.77756">
        <ele>336.3</ele>
        <time>2014-11-23T11:13:57.000Z</time>
      </trkpt>
      <trkpt lat="47.51384" lon="6.77754">
        <ele>338.4</ele>
        <time>2014-11-23T11:13:59.000Z</time>
      </trkpt>
      <trkpt lat="47.51386" lon="6.77753">
        <ele>339.4</ele>
        <time>2014-11-23T11:14:00.000Z</time>
      </trkpt>
      <trkpt lat="47.5139" lon="6.77752">
        <ele>338.9</ele>
        <time>2014-11-23T11:14:02.000Z</time>
      </trkpt>
      <trkpt lat="47.51391" lon="6.77751">
        <ele>338.8</ele>
        <time>2014-11-23T11:14:03.000Z</time>
      </trkpt>
      <trkpt lat="47.51395" lon="6.7775">
        <ele>338.2</ele>
        <time>2014-11-23T11:14:05.000Z</time>
      </trkpt>
      <trkpt lat="47.51397" lon="6.77749">
        <ele>338.4</ele>
        <time>2014-11-23T11:14:06.000Z</time>
      </trkpt>
      <trkpt lat="47.51401" lon="6.77747">
        <ele>340</ele>
        <time>2014-11-23T11:14:08.000Z</time>
      </trkpt>
      <trkpt lat="47.51402" lon="6.77746">
        <ele>339.8</ele>
        <time>2014-11-23T11:14:09.000Z</time>
      </trkpt>
      <trkpt lat="47.51406" lon="6.77745">
        <ele>341.9</ele>
        <time>2014-11-23T11:14:11.000Z</time>
      </trkpt>
      <trkpt lat="47.51408" lon="6.77744">
        <ele>342.9</ele>
        <time>2014-11-23T11:14:12.000Z</time>
      </trkpt>
      <trkpt lat="47.51411" lon="6.77743">
        <ele>344.2</ele>
        <time>2014-11-23T11:14:14.000Z</time>
      </trkpt>
      <trkpt lat="47.51413" lon="6.77742">
        <ele>344.5</ele>
        <time>2014-11-23T11:14:15.000Z</time>
      </trkpt>
      <trkpt lat="47.51416" lon="6.7774">
        <ele>345.7</ele>
        <time>2014-11-23T11:14:17.000Z</time>
      </trkpt>
      <trkpt lat="47.51417" lon="6.77739">
        <ele>346</ele>
        <time>2014-11-23T11:14:18.000Z</time>
      </trkpt>
      <trkpt lat="47.5142" lon="6.77738">
        <ele>348.1</ele>
        <time>2014-11-23T11:14:20.000Z</time>
      </trkpt>
      <trkpt lat="47.51422" lon="6.77738">
        <ele>348.2</ele>
        <time>2014-11-23T11:14:21.000Z</time>
      </trkpt>
      <trkpt lat="47.51426" lon="6.77737">
        <ele>350.6</ele>
        <time>2014-11-23T11:14:23.000Z</time>
      </trkpt>
      <trkpt lat="47.51427" lon="6.77737">
        <ele>351</ele>
        <time>2014-11-23T11:14:24.000Z</time>
      </trkpt>
      <trkpt lat="47.51431" lon="6.77737">
        <ele>351.2</ele>
        <time>2014-11-23T11:14:26.000Z</time>
      </trkpt>
      <trkpt lat="47.51433" lon="6.77737">
        <ele>350.8</ele>
        <time>2014-11-23T11:14:27.000Z</time>
      </trkpt>
      <trkpt lat="47.51437" lon="6.77737">
        <ele>350.3</ele>
        <time>2014-11-23T11:14:29.000Z</time>
      </trkpt>
      <trkpt lat="47.5145" lon="6.77732">
        <ele>349.2</ele>
        <time>2014-11-23T11:14:37.000Z</time>
      </trkpt>
      <trkpt lat="47.51453" lon="6.77733">
        <ele>349.9</ele>
        <time>2014-11-23T11:14:39.000Z</time>
      </trkpt>
      <trkpt lat="47.51455" lon="6.77733">
        <ele>350</ele>
        <time>2014-11-23T11:14:40.000Z</time>
      </trkpt>
      <trkpt lat="47.51459" lon="6.77734">
        <ele>351.5</ele>
        <time>2014-11-23T11:14:42.000Z</time>
      </trkpt>
      <trkpt lat="47.51461" lon="6.77734">
        <ele>351.8</ele>
        <time>2014-11-23T11:14:43.000Z</time>
      </trkpt>
      <trkpt lat="47.51464" lon="6.77736">
        <ele>352.6</ele>
        <time>2014-11-23T11:14:45.000Z</time>
      </trkpt>
      <trkpt lat="47.51466" lon="6.77736">
        <ele>353.2</ele>
        <time>2014-11-23T11:14:46.000Z</time>
      </trkpt>
      <trkpt lat="47.5147" lon="6.77736">
        <ele>350.9</ele>
        <time>2014-11-23T11:14:48.000Z</time>
      </trkpt>
      <trkpt lat="47.51472" lon="6.77735">
        <ele>350.6</ele>
        <time>2014-11-23T11:14:49.000Z</time>
      </trkpt>
      <trkpt lat="47.51476" lon="6.77734">
        <ele>351.1</ele>
        <time>2014-11-23T11:14:51.000Z</time>
      </trkpt>
      <trkpt lat="47.51478" lon="6.77733">
        <ele>351.4</ele>
        <time>2014-11-23T11:14:52.000Z</time>
      </trkpt>
      <trkpt lat="47.51482" lon="6.77732">
        <ele>351.1</ele>
        <time>2014-11-23T11:14:54.000Z</time>
      </trkpt>
      <trkpt lat="47.51484" lon="6.77732">
        <ele>352.2</ele>
        <time>2014-11-23T11:14:55.000Z</time>
      </trkpt>
      <trkpt lat="47.51487" lon="6.77732">
        <ele>351.8</ele>
        <time>2014-11-23T11:14:57.000Z</time>
      </trkpt>
      <trkpt lat="47.51489" lon="6.77731">
        <ele>351.8</ele>
        <time>2014-11-23T11:14:58.000Z</time>
      </trkpt>
      <trkpt lat="47.51493" lon="6.77731">
        <ele>352.5</ele>
        <time>2014-11-23T11:15:00.000Z</time>
      </trkpt>
      <trkpt lat="47.51495" lon="6.7773">
        <ele>353</ele>
        <time>2014-11-23T11:15:01.000Z</time>
      </trkpt>
      <trkpt lat="47.51498" lon="6.77729">
        <ele>353.5</ele>
        <time>2014-11-23T11:15:03.000Z</time>
      </trkpt>
      <trkpt lat="47.515" lon="6.77729">
        <ele>354</ele>
        <time>2014-11-23T11:15:04.000Z</time>
      </trkpt>
      <trkpt lat="47.51503" lon="6.77729">
        <ele>355.2</ele>
        <time>2014-11-23T11:15:06.000Z</time>
      </trkpt>
      <trkpt lat="47.51504" lon="6.77729">
        <ele>355.3</ele>
        <time>2014-11-23T11:15:07.000Z</time>
      </trkpt>
      <trkpt lat="47.51508" lon="6.77727">
        <ele>355</ele>
        <time>2014-11-23T11:15:09.000Z</time>
      </trkpt>
      <trkpt lat="47.5151" lon="6.77727">
        <ele>355.7</ele>
        <time>2014-11-23T11:15:10.000Z</time>
      </trkpt>
      <trkpt lat="47.51514" lon="6.77727">
        <ele>357.7</ele>
        <time>2014-11-23T11:15:12.000Z</time>
      </trkpt>
      <trkpt lat="47.51516" lon="6.77727">
        <ele>358.4</ele>
        <time>2014-11-23T11:15:13.000Z</time>
      </trkpt>
      <trkpt lat="47.51519" lon="6.77728">
        <ele>360.8</ele>
        <time>2014-11-23T11:15:15.000Z</time>
      </trkpt>
      <trkpt lat="47.51521" lon="6.77729">
        <ele>361.8</ele>
        <time>2014-11-23T11:15:16.000Z</time>
      </trkpt>
      <trkpt lat="47.51525" lon="6.7773">
        <ele>362.8</ele>
        <time>2014-11-23T11:15:19.000Z</time>
      </trkpt>
      <trkpt lat="47.51527" lon="6.7773">
        <ele>363</ele>
        <time>2014-11-23T11:15:20.000Z</time>
      </trkpt>
      <trkpt lat="47.5153" lon="6.77731">
        <ele>362.9</ele>
        <time>2014-11-23T11:15:22.000Z</time>
      </trkpt>
      <trkpt lat="47.51532" lon="6.77731">
        <ele>362.8</ele>
        <time>2014-11-23T11:15:23.000Z</time>
      </trkpt>
      <trkpt lat="47.51535" lon="6.77732">
        <ele>364.7</ele>
        <time>2014-11-23T11:15:25.000Z</time>
      </trkpt>
      <trkpt lat="47.51537" lon="6.77732">
        <ele>365.1</ele>
        <time>2014-11-23T11:15:26.000Z</time>
      </trkpt>
      <trkpt lat="47.51541" lon="6.77733">
        <ele>364.9</ele>
        <time>2014-11-23T11:15:28.000Z</time>
      </trkpt>
      <trkpt lat="47.51543" lon="6.77733">
        <ele>365</ele>
        <time>2014-11-23T11:15:29.000Z</time>
      </trkpt>
      <trkpt lat="47.51558" lon="6.77734">
        <ele>367.9</ele>
        <time>2014-11-23T11:15:37.000Z</time>
      </trkpt>
      <trkpt lat="47.51562" lon="6.77734">
        <ele>368.5</ele>
        <time>2014-11-23T11:15:39.000Z</time>
      </trkpt>
      <trkpt lat="47.51564" lon="6.77735">
        <ele>369.1</ele>
        <time>2014-11-23T11:15:40.000Z</time>
      </trkpt>
      <trkpt lat="47.51568" lon="6.77738">
        <ele>370.3</ele>
        <time>2014-11-23T11:15:42.000Z</time>
      </trkpt>
      <trkpt lat="47.51569" lon="6.77739">
        <ele>369.9</ele>
        <time>2014-11-23T11:15:43.000Z</time>
      </trkpt>
      <trkpt lat="47.51573" lon="6.77739">
        <ele>370.2</ele>
        <time>2014-11-23T11:15:45.000Z</time>
      </trkpt>
      <trkpt lat="47.51574" lon="6.7774">
        <ele>370.4</ele>
        <time>2014-11-23T11:15:46.000Z</time>
      </trkpt>
      <trkpt lat="47.51578" lon="6.77741">
        <ele>372.3</ele>
        <time>2014-11-23T11:15:49.000Z</time>
      </trkpt>
      <trkpt lat="47.5158" lon="6.77742">
        <ele>373.4</ele>
        <time>2014-11-23T11:15:50.000Z</time>
      </trkpt>
      <trkpt lat="47.51583" lon="6.77743">
        <ele>373.8</ele>
        <time>2014-11-23T11:15:52.000Z</time>
      </trkpt>
      <trkpt lat="47.51585" lon="6.77744">
        <ele>373.8</ele>
        <time>2014-11-23T11:15:53.000Z</time>
      </trkpt>
      <trkpt lat="47.51587" lon="6.77745">
        <ele>374</ele>
        <time>2014-11-23T11:15:54.000Z</time>
      </trkpt>
      <trkpt lat="47.51589" lon="6.77746">
        <ele>374.6</ele>
        <time>2014-11-23T11:15:55.000Z</time>
      </trkpt>
      <trkpt lat="47.51593" lon="6.77749">
        <ele>374.6</ele>
        <time>2014-11-23T11:15:57.000Z</time>
      </trkpt>
      <trkpt lat="47.51595" lon="6.7775">
        <ele>375.1</ele>
        <time>2014-11-23T11:15:58.000Z</time>
      </trkpt>
      <trkpt lat="47.51597" lon="6.77751">
        <ele>375.5</ele>
        <time>2014-11-23T11:15:59.000Z</time>
      </trkpt>
      <trkpt lat="47.51599" lon="6.77752">
        <ele>375.4</ele>
        <time>2014-11-23T11:16:00.000Z</time>
      </trkpt>
      <trkpt lat="47.51603" lon="6.77754">
        <ele>376.8</ele>
        <time>2014-11-23T11:16:02.000Z</time>
      </trkpt>
      <trkpt lat="47.51605" lon="6.77754">
        <ele>377.3</ele>
        <time>2014-11-23T11:16:03.000Z</time>
      </trkpt>
      <trkpt lat="47.51609" lon="6.77756">
        <ele>379.1</ele>
        <time>2014-11-23T11:16:07.000Z</time>
      </trkpt>
      <trkpt lat="47.5161" lon="6.77756">
        <ele>379.1</ele>
        <time>2014-11-23T11:16:08.000Z</time>
      </trkpt>
      <trkpt lat="47.51613" lon="6.77756">
        <ele>380.8</ele>
        <time>2014-11-23T11:16:11.000Z</time>
      </trkpt>
      <trkpt lat="47.51615" lon="6.77757">
        <ele>380.9</ele>
        <time>2014-11-23T11:16:12.000Z</time>
      </trkpt>
      <trkpt lat="47.51618" lon="6.77758">
        <ele>381.9</ele>
        <time>2014-11-23T11:16:14.000Z</time>
      </trkpt>
      <trkpt lat="47.5162" lon="6.77759">
        <ele>383.1</ele>
        <time>2014-11-23T11:16:15.000Z</time>
      </trkpt>
      <trkpt lat="47.51622" lon="6.77759">
        <ele>383.9</ele>
        <time>2014-11-23T11:16:16.000Z</time>
      </trkpt>
      <trkpt lat="47.51624" lon="6.7776">
        <ele>384.3</ele>
        <time>2014-11-23T11:16:17.000Z</time>
      </trkpt>
      <trkpt lat="47.51628" lon="6.77762">
        <ele>384.3</ele>
        <time>2014-11-23T11:16:19.000Z</time>
      </trkpt>
      <trkpt lat="47.5163" lon="6.77764">
        <ele>384.6</ele>
        <time>2014-11-23T11:16:20.000Z</time>
      </trkpt>
      <trkpt lat="47.51634" lon="6.77766">
        <ele>383.4</ele>
        <time>2014-11-23T11:16:22.000Z</time>
      </trkpt>
      <trkpt lat="47.51635" lon="6.77767">
        <ele>384.3</ele>
        <time>2014-11-23T11:16:23.000Z</time>
      </trkpt>
      <trkpt lat="47.51639" lon="6.77768">
        <ele>384.8</ele>
        <time>2014-11-23T11:16:25.000Z</time>
      </trkpt>
      <trkpt lat="47.51642" lon="6.77768">
        <ele>384.5</ele>
        <time>2014-11-23T11:16:26.000Z</time>
      </trkpt>
      <trkpt lat="47.51644" lon="6.77769">
        <ele>384.1</ele>
        <time>2014-11-23T11:16:27.000Z</time>
      </trkpt>
      <trkpt lat="47.51647" lon="6.77769">
        <ele>383.3</ele>
        <time>2014-11-23T11:16:28.000Z</time>
      </trkpt>
      <trkpt lat="47.51649" lon="6.7777">
        <ele>382.9</ele>
        <time>2014-11-23T11:16:29.000Z</time>
      </trkpt>
      <trkpt lat="47.51665" lon="6.7778">
        <ele>389.1</ele>
        <time>2014-11-23T11:16:37.000Z</time>
      </trkpt>
      <trkpt lat="47.51669" lon="6.77782">
        <ele>389.9</ele>
        <time>2014-11-23T11:16:39.000Z</time>
      </trkpt>
      <trkpt lat="47.51671" lon="6.77782">
        <ele>388.8</ele>
        <time>2014-11-23T11:16:40.000Z</time>
      </trkpt>
      <trkpt lat="47.51675" lon="6.77784">
        <ele>389.5</ele>
        <time>2014-11-23T11:16:42.000Z</time>
      </trkpt>
      <trkpt lat="47.51677" lon="6.77784">
        <ele>389.2</ele>
        <time>2014-11-23T11:16:43.000Z</time>
      </trkpt>
      <trkpt lat="47.5168" lon="6.77784">
        <ele>388.9</ele>
        <time>2014-11-23T11:16:45.000Z</time>
      </trkpt>
      <trkpt lat="47.51682" lon="6.77783">
        <ele>389.3</ele>
        <time>2014-11-23T11:16:46.000Z</time>
      </trkpt>
      <trkpt lat="47.51685" lon="6.7778">
        <ele>390.5</ele>
        <time>2014-11-23T11:16:48.000Z</time>
      </trkpt>
      <trkpt lat="47.51687" lon="6.77777">
        <ele>391.1</ele>
        <time>2014-11-23T11:16:49.000Z</time>
      </trkpt>
      <trkpt lat="47.51689" lon="6.77772">
        <ele>391.4</ele>
        <time>2014-11-23T11:16:51.000Z</time>
      </trkpt>
      <trkpt lat="47.51689" lon="6.77769">
        <ele>389.6</ele>
        <time>2014-11-23T11:16:52.000Z</time>
      </trkpt>
      <trkpt lat="47.5169" lon="6.77765">
        <ele>386</ele>
        <time>2014-11-23T11:16:53.000Z</time>
      </trkpt>
      <trkpt lat="47.51691" lon="6.7776">
        <ele>383.2</ele>
        <time>2014-11-23T11:16:54.000Z</time>
      </trkpt>
      <trkpt lat="47.51691" lon="6.77754">
        <ele>380.4</ele>
        <time>2014-11-23T11:16:55.000Z</time>
      </trkpt>
      <trkpt lat="47.5169" lon="6.77747">
        <ele>376.2</ele>
        <time>2014-11-23T11:16:56.000Z</time>
      </trkpt>
      <trkpt lat="47.5169" lon="6.77742">
        <ele>376.1</ele>
        <time>2014-11-23T11:16:57.000Z</time>
      </trkpt>
      <trkpt lat="47.5169" lon="6.77736">
        <ele>376.2</ele>
        <time>2014-11-23T11:16:58.000Z</time>
      </trkpt>
      <trkpt lat="47.51691" lon="6.77732">
        <ele>376.6</ele>
        <time>2014-11-23T11:16:59.000Z</time>
      </trkpt>
      <trkpt lat="47.51692" lon="6.77728">
        <ele>377.1</ele>
        <time>2014-11-23T11:17:00.000Z</time>
      </trkpt>
      <trkpt lat="47.51693" lon="6.77724">
        <ele>378.7</ele>
        <time>2014-11-23T11:17:01.000Z</time>
      </trkpt>
      <trkpt lat="47.51694" lon="6.77721">
        <ele>379.6</ele>
        <time>2014-11-23T11:17:02.000Z</time>
      </trkpt>
      <trkpt lat="47.51694" lon="6.77718">
        <ele>381.5</ele>
        <time>2014-11-23T11:17:03.000Z</time>
      </trkpt>
      <trkpt lat="47.51695" lon="6.77714">
        <ele>382.5</ele>
        <time>2014-11-23T11:17:04.000Z</time>
      </trkpt>
      <trkpt lat="47.51695" lon="6.77708">
        <ele>383.6</ele>
        <time>2014-11-23T11:17:06.000Z</time>
      </trkpt>
      <trkpt lat="47.51696" lon="6.77705">
        <ele>384.4</ele>
        <time>2014-11-23T11:17:07.000Z</time>
      </trkpt>
      <trkpt lat="47.51697" lon="6.77699">
        <ele>384.6</ele>
        <time>2014-11-23T11:17:09.000Z</time>
      </trkpt>
      <trkpt lat="47.51698" lon="6.77696">
        <ele>383.8</ele>
        <time>2014-11-23T11:17:10.000Z</time>
      </trkpt>
      <trkpt lat="47.517" lon="6.77692">
        <ele>384.8</ele>
        <time>2014-11-23T11:17:12.000Z</time>
      </trkpt>
      <trkpt lat="47.51702" lon="6.7769">
        <ele>386.5</ele>
        <time>2014-11-23T11:17:13.000Z</time>
      </trkpt>
      <trkpt lat="47.51704" lon="6.77688">
        <ele>386.3</ele>
        <time>2014-11-23T11:17:14.000Z</time>
      </trkpt>
      <trkpt lat="47.51705" lon="6.77685">
        <ele>387</ele>
        <time>2014-11-23T11:17:15.000Z</time>
      </trkpt>
      <trkpt lat="47.51706" lon="6.77682">
        <ele>386.9</ele>
        <time>2014-11-23T11:17:16.000Z</time>
      </trkpt>
      <trkpt lat="47.51707" lon="6.77679">
        <ele>387.1</ele>
        <time>2014-11-23T11:17:17.000Z</time>
      </trkpt>
      <trkpt lat="47.51707" lon="6.77675">
        <ele>387.8</ele>
        <time>2014-11-23T11:17:18.000Z</time>
      </trkpt>
      <trkpt lat="47.51707" lon="6.77672">
        <ele>387.8</ele>
        <time>2014-11-23T11:17:19.000Z</time>
      </trkpt>
      <trkpt lat="47.51707" lon="6.77668">
        <ele>388.6</ele>
        <time>2014-11-23T11:17:20.000Z</time>
      </trkpt>
      <trkpt lat="47.51708" lon="6.77665">
        <ele>388.9</ele>
        <time>2014-11-23T11:17:21.000Z</time>
      </trkpt>
      <trkpt lat="47.51708" lon="6.77661">
        <ele>389.9</ele>
        <time>2014-11-23T11:17:22.000Z</time>
      </trkpt>
      <trkpt lat="47.51709" lon="6.77657">
        <ele>389.4</ele>
        <time>2014-11-23T11:17:23.000Z</time>
      </trkpt>
      <trkpt lat="47.51709" lon="6.77653">
        <ele>390</ele>
        <time>2014-11-23T11:17:24.000Z</time>
      </trkpt>
      <trkpt lat="47.5171" lon="6.7765">
        <ele>390.4</ele>
        <time>2014-11-23T11:17:25.000Z</time>
      </trkpt>
      <trkpt lat="47.5171" lon="6.77646">
        <ele>391.3</ele>
        <time>2014-11-23T11:17:26.000Z</time>
      </trkpt>
      <trkpt lat="47.51711" lon="6.77642">
        <ele>392</ele>
        <time>2014-11-23T11:17:27.000Z</time>
      </trkpt>
      <trkpt lat="47.51711" lon="6.77638">
        <ele>393.1</ele>
        <time>2014-11-23T11:17:28.000Z</time>
      </trkpt>
      <trkpt lat="47.51712" lon="6.77635">
        <ele>393.2</ele>
        <time>2014-11-23T11:17:29.000Z</time>
      </trkpt>
      <trkpt lat="47.51713" lon="6.77605">
        <ele>392.5</ele>
        <time>2014-11-23T11:17:37.000Z</time>
      </trkpt>
      <trkpt lat="47.51713" lon="6.77601">
        <ele>393.1</ele>
        <time>2014-11-23T11:17:38.000Z</time>
      </trkpt>
      <trkpt lat="47.51714" lon="6.77597">
        <ele>393.5</ele>
        <time>2014-11-23T11:17:39.000Z</time>
      </trkpt>
      <trkpt lat="47.51715" lon="6.77594">
        <ele>393.1</ele>
        <time>2014-11-23T11:17:40.000Z</time>
      </trkpt>
      <trkpt lat="47.51717" lon="6.77591">
        <ele>392.7</ele>
        <time>2014-11-23T11:17:41.000Z</time>
      </trkpt>
      <trkpt lat="47.51721" lon="6.77588">
        <ele>393.2</ele>
        <time>2014-11-23T11:17:43.000Z</time>
      </trkpt>
      <trkpt lat="47.51722" lon="6.77587">
        <ele>393.4</ele>
        <time>2014-11-23T11:17:44.000Z</time>
      </trkpt>
      <trkpt lat="47.51724" lon="6.77582">
        <ele>392.3</ele>
        <time>2014-11-23T11:17:46.000Z</time>
      </trkpt>
      <trkpt lat="47.51724" lon="6.77577">
        <ele>390.9</ele>
        <time>2014-11-23T11:17:47.000Z</time>
      </trkpt>
      <trkpt lat="47.51722" lon="6.77572">
        <ele>390</ele>
        <time>2014-11-23T11:17:48.000Z</time>
      </trkpt>
      <trkpt lat="47.51721" lon="6.77567">
        <ele>390.5</ele>
        <time>2014-11-23T11:17:49.000Z</time>
      </trkpt>
      <trkpt lat="47.5172" lon="6.77562">
        <ele>391.3</ele>
        <time>2014-11-23T11:17:50.000Z</time>
      </trkpt>
      <trkpt lat="47.51719" lon="6.77558">
        <ele>391.5</ele>
        <time>2014-11-23T11:17:51.000Z</time>
      </trkpt>
      <trkpt lat="47.51719" lon="6.77553">
        <ele>392.1</ele>
        <time>2014-11-23T11:17:52.000Z</time>
      </trkpt>
      <trkpt lat="47.5172" lon="6.77547">
        <ele>390.9</ele>
        <time>2014-11-23T11:17:53.000Z</time>
      </trkpt>
      <trkpt lat="47.51721" lon="6.77542">
        <ele>390.5</ele>
        <time>2014-11-23T11:17:54.000Z</time>
      </trkpt>
      <trkpt lat="47.51722" lon="6.77536">
        <ele>389.7</ele>
        <time>2014-11-23T11:17:55.000Z</time>
      </trkpt>
      <trkpt lat="47.51723" lon="6.7753">
        <ele>389.1</ele>
        <time>2014-11-23T11:17:56.000Z</time>
      </trkpt>
      <trkpt lat="47.51724" lon="6.77524">
        <ele>388.7</ele>
        <time>2014-11-23T11:17:57.000Z</time>
      </trkpt>
      <trkpt lat="47.51725" lon="6.77518">
        <ele>388.2</ele>
        <time>2014-11-23T11:17:58.000Z</time>
      </trkpt>
      <trkpt lat="47.51726" lon="6.77512">
        <ele>387.7</ele>
        <time>2014-11-23T11:17:59.000Z</time>
      </trkpt>
      <trkpt lat="47.51728" lon="6.77507">
        <ele>387.9</ele>
        <time>2014-11-23T11:18:00.000Z</time>
      </trkpt>
      <trkpt lat="47.51729" lon="6.77501">
        <ele>387.8</ele>
        <time>2014-11-23T11:18:01.000Z</time>
      </trkpt>
      <trkpt lat="47.51729" lon="6.77495">
        <ele>387.5</ele>
        <time>2014-11-23T11:18:02.000Z</time>
      </trkpt>
      <trkpt lat="47.5173" lon="6.7749">
        <ele>387.7</ele>
        <time>2014-11-23T11:18:03.000Z</time>
      </trkpt>
      <trkpt lat="47.51732" lon="6.77484">
        <ele>387.7</ele>
        <time>2014-11-23T11:18:04.000Z</time>
      </trkpt>
      <trkpt lat="47.51733" lon="6.7748">
        <ele>388.3</ele>
        <time>2014-11-23T11:18:05.000Z</time>
      </trkpt>
      <trkpt lat="47.51736" lon="6.77476">
        <ele>388.4</ele>
        <time>2014-11-23T11:18:06.000Z</time>
      </trkpt>
      <trkpt lat="47.5174" lon="6.77474">
        <ele>388.6</ele>
        <time>2014-11-23T11:18:07.000Z</time>
      </trkpt>
      <trkpt lat="47.51743" lon="6.77473">
        <ele>388.9</ele>
        <time>2014-11-23T11:18:08.000Z</time>
      </trkpt>
      <trkpt lat="47.51747" lon="6.77473">
        <ele>389.1</ele>
        <time>2014-11-23T11:18:09.000Z</time>
      </trkpt>
      <trkpt lat="47.5175" lon="6.77474">
        <ele>388.8</ele>
        <time>2014-11-23T11:18:10.000Z</time>
      </trkpt>
      <trkpt lat="47.51754" lon="6.77475">
        <ele>388.8</ele>
        <time>2014-11-23T11:18:11.000Z</time>
      </trkpt>
      <trkpt lat="47.51757" lon="6.77477">
        <ele>389.6</ele>
        <time>2014-11-23T11:18:12.000Z</time>
      </trkpt>
      <trkpt lat="47.5176" lon="6.77479">
        <ele>389.4</ele>
        <time>2014-11-23T11:18:13.000Z</time>
      </trkpt>
      <trkpt lat="47.51763" lon="6.7748">
        <ele>388.6</ele>
        <time>2014-11-23T11:18:14.000Z</time>
      </trkpt>
      <trkpt lat="47.51767" lon="6.77481">
        <ele>388</ele>
        <time>2014-11-23T11:18:15.000Z</time>
      </trkpt>
      <trkpt lat="47.5177" lon="6.77482">
        <ele>388</ele>
        <time>2014-11-23T11:18:16.000Z</time>
      </trkpt>
      <trkpt lat="47.51773" lon="6.77483">
        <ele>387.6</ele>
        <time>2014-11-23T11:18:17.000Z</time>
      </trkpt>
      <trkpt lat="47.51776" lon="6.77484">
        <ele>387.7</ele>
        <time>2014-11-23T11:18:18.000Z</time>
      </trkpt>
      <trkpt lat="47.5178" lon="6.77485">
        <ele>386.8</ele>
        <time>2014-11-23T11:18:19.000Z</time>
      </trkpt>
      <trkpt lat="47.51783" lon="6.77486">
        <ele>386.2</ele>
        <time>2014-11-23T11:18:20.000Z</time>
      </trkpt>
      <trkpt lat="47.51787" lon="6.77488">
        <ele>385.2</ele>
        <time>2014-11-23T11:18:21.000Z</time>
      </trkpt>
      <trkpt lat="47.51791" lon="6.77489">
        <ele>384.4</ele>
        <time>2014-11-23T11:18:22.000Z</time>
      </trkpt>
      <trkpt lat="47.51795" lon="6.77491">
        <ele>384</ele>
        <time>2014-11-23T11:18:23.000Z</time>
      </trkpt>
      <trkpt lat="47.51799" lon="6.77492">
        <ele>383.7</ele>
        <time>2014-11-23T11:18:24.000Z</time>
      </trkpt>
      <trkpt lat="47.51803" lon="6.77494">
        <ele>383.8</ele>
        <time>2014-11-23T11:18:25.000Z</time>
      </trkpt>
      <trkpt lat="47.51807" lon="6.77495">
        <ele>383.4</ele>
        <time>2014-11-23T11:18:26.000Z</time>
      </trkpt>
      <trkpt lat="47.51811" lon="6.77494">
        <ele>384.8</ele>
        <time>2014-11-23T11:18:27.000Z</time>
      </trkpt>
      <trkpt lat="47.51813" lon="6.77492">
        <ele>385.3</ele>
        <time>2014-11-23T11:18:28.000Z</time>
      </trkpt>
      <trkpt lat="47.51813" lon="6.77488">
        <ele>384.3</ele>
        <time>2014-11-23T11:18:29.000Z</time>
      </trkpt>
      <trkpt lat="47.518" lon="6.77475">
        <ele>377.4</ele>
        <time>2014-11-23T11:18:37.000Z</time>
      </trkpt>
      <trkpt lat="47.518" lon="6.77469">
        <ele>378.9</ele>
        <time>2014-11-23T11:18:42.000Z</time>
      </trkpt>
      <trkpt lat="47.51799" lon="6.77468">
        <ele>378.5</ele>
        <time>2014-11-23T11:18:43.002Z</time>
      </trkpt>
      <trkpt lat="47.51799" lon="6.77462">
        <ele>378.5</ele>
        <time>2014-11-23T11:18:47.000Z</time>
      </trkpt>
      <trkpt lat="47.518" lon="6.77461">
        <ele>379.2</ele>
        <time>2014-11-23T11:18:48.000Z</time>
      </trkpt>
      <trkpt lat="47.518" lon="6.77468">
        <ele>377.8</ele>
        <time>2014-11-23T11:20:12.000Z</time>
      </trkpt>
      <trkpt lat="47.51799" lon="6.77469">
        <ele>377.2</ele>
        <time>2014-11-23T11:20:13.000Z</time>
      </trkpt>
      <trkpt lat="47.51798" lon="6.77475">
        <ele>380.7</ele>
        <time>2014-11-23T11:20:20.000Z</time>
      </trkpt>
      <trkpt lat="47.51799" lon="6.77477">
        <ele>380.8</ele>
        <time>2014-11-23T11:20:21.000Z</time>
      </trkpt>
      <trkpt lat="47.51801" lon="6.77476">
        <ele>326.8</ele>
        <time>2014-11-23T11:21:45.000Z</time>
      </trkpt>
    </trkseg>
  </trk>
</gpx>